<?xml version="1.0" encoding="UTF-8" standalone="no" ?>
<gpx xmlns="http://www.topografix.com/GPX/1/1" xmlns:xsi="http://www.w3.org/2001/XMLSchema-instance" xsi:schemaLocation="http://www.topografix.com/GPX/1/1 http://www.topografix.com/GPX/1/1/gpx.xsd" version="1.1" creator="VisuGPX - https://www.visugpx.com">
  <metadata>
    <name>Haulmé Sugny 2022-09-28</name>
  </metadata>
  <trk>
    <name><![CDATA[Haulmé Sugny 2022-09-28_1]]></name>
    <trkseg>
      <trkpt lat="49.75385" lon="4.8218">
        <ele>201</ele>
        <time>2022-09-28T06:28:53.000Z</time>
      </trkpt>
      <trkpt lat="49.75386" lon="4.82178">
        <ele>200</ele>
        <time>2022-09-28T06:28:54.000Z</time>
      </trkpt>
      <trkpt lat="49.75387" lon="4.82175">
        <ele>200</ele>
        <time>2022-09-28T06:28:55.000Z</time>
      </trkpt>
      <trkpt lat="49.75389" lon="4.82173">
        <ele>199</ele>
        <time>2022-09-28T06:28:56.000Z</time>
      </trkpt>
      <trkpt lat="49.75392" lon="4.82172">
        <ele>199</ele>
        <time>2022-09-28T06:28:57.000Z</time>
      </trkpt>
      <trkpt lat="49.75395" lon="4.82172">
        <ele>198</ele>
        <time>2022-09-28T06:28:58.000Z</time>
      </trkpt>
      <trkpt lat="49.75399" lon="4.82174">
        <ele>198</ele>
        <time>2022-09-28T06:28:59.000Z</time>
      </trkpt>
      <trkpt lat="49.75402" lon="4.82175">
        <ele>198</ele>
        <time>2022-09-28T06:29:00.000Z</time>
      </trkpt>
      <trkpt lat="49.75406" lon="4.82177">
        <ele>197</ele>
        <time>2022-09-28T06:29:01.000Z</time>
      </trkpt>
      <trkpt lat="49.7541" lon="4.82179">
        <ele>197</ele>
        <time>2022-09-28T06:29:02.000Z</time>
      </trkpt>
      <trkpt lat="49.75415" lon="4.82182">
        <ele>197</ele>
        <time>2022-09-28T06:29:03.000Z</time>
      </trkpt>
      <trkpt lat="49.75419" lon="4.82185">
        <ele>196</ele>
        <time>2022-09-28T06:29:04.000Z</time>
      </trkpt>
      <trkpt lat="49.75424" lon="4.82188">
        <ele>196</ele>
        <time>2022-09-28T06:29:05.000Z</time>
      </trkpt>
      <trkpt lat="49.75429" lon="4.8219">
        <ele>196</ele>
        <time>2022-09-28T06:29:06.000Z</time>
      </trkpt>
      <trkpt lat="49.75433" lon="4.82194">
        <ele>195</ele>
        <time>2022-09-28T06:29:07.000Z</time>
      </trkpt>
      <trkpt lat="49.75436" lon="4.822">
        <ele>195</ele>
        <time>2022-09-28T06:29:08.000Z</time>
      </trkpt>
      <trkpt lat="49.75438" lon="4.82205">
        <ele>195</ele>
        <time>2022-09-28T06:29:09.000Z</time>
      </trkpt>
      <trkpt lat="49.75439" lon="4.8221">
        <ele>194</ele>
        <time>2022-09-28T06:29:10.000Z</time>
      </trkpt>
      <trkpt lat="49.75441" lon="4.82214">
        <ele>194</ele>
        <time>2022-09-28T06:29:11.000Z</time>
      </trkpt>
      <trkpt lat="49.75444" lon="4.82218">
        <ele>194</ele>
        <time>2022-09-28T06:29:12.000Z</time>
      </trkpt>
      <trkpt lat="49.75447" lon="4.82221">
        <ele>193</ele>
        <time>2022-09-28T06:29:13.000Z</time>
      </trkpt>
      <trkpt lat="49.75452" lon="4.82224">
        <ele>193</ele>
        <time>2022-09-28T06:29:14.000Z</time>
      </trkpt>
      <trkpt lat="49.75458" lon="4.8223">
        <ele>193</ele>
        <time>2022-09-28T06:29:15.000Z</time>
      </trkpt>
      <trkpt lat="49.75463" lon="4.82237">
        <ele>193</ele>
        <time>2022-09-28T06:29:16.000Z</time>
      </trkpt>
      <trkpt lat="49.75469" lon="4.82244">
        <ele>192</ele>
        <time>2022-09-28T06:29:17.000Z</time>
      </trkpt>
      <trkpt lat="49.75475" lon="4.82251">
        <ele>192</ele>
        <time>2022-09-28T06:29:18.000Z</time>
      </trkpt>
      <trkpt lat="49.75482" lon="4.82256">
        <ele>192</ele>
        <time>2022-09-28T06:29:19.000Z</time>
      </trkpt>
      <trkpt lat="49.75489" lon="4.82261">
        <ele>192</ele>
        <time>2022-09-28T06:29:20.000Z</time>
      </trkpt>
      <trkpt lat="49.75496" lon="4.82265">
        <ele>192</ele>
        <time>2022-09-28T06:29:21.000Z</time>
      </trkpt>
      <trkpt lat="49.75503" lon="4.82269">
        <ele>191</ele>
        <time>2022-09-28T06:29:22.000Z</time>
      </trkpt>
      <trkpt lat="49.7551" lon="4.82273">
        <ele>191</ele>
        <time>2022-09-28T06:29:23.000Z</time>
      </trkpt>
      <trkpt lat="49.75517" lon="4.82277">
        <ele>191</ele>
        <time>2022-09-28T06:29:24.000Z</time>
      </trkpt>
      <trkpt lat="49.75524" lon="4.82279">
        <ele>191</ele>
        <time>2022-09-28T06:29:25.000Z</time>
      </trkpt>
      <trkpt lat="49.75531" lon="4.82279">
        <ele>190</ele>
        <time>2022-09-28T06:29:26.000Z</time>
      </trkpt>
      <trkpt lat="49.75537" lon="4.82276">
        <ele>190</ele>
        <time>2022-09-28T06:29:27.000Z</time>
      </trkpt>
      <trkpt lat="49.75542" lon="4.82273">
        <ele>190</ele>
        <time>2022-09-28T06:29:28.000Z</time>
      </trkpt>
      <trkpt lat="49.75547" lon="4.82269">
        <ele>189</ele>
        <time>2022-09-28T06:29:29.000Z</time>
      </trkpt>
      <trkpt lat="49.7555" lon="4.82264">
        <ele>189</ele>
        <time>2022-09-28T06:29:30.000Z</time>
      </trkpt>
      <trkpt lat="49.75551" lon="4.82259">
        <ele>189</ele>
        <time>2022-09-28T06:29:31.000Z</time>
      </trkpt>
      <trkpt lat="49.75549" lon="4.82252">
        <ele>189</ele>
        <time>2022-09-28T06:29:32.000Z</time>
      </trkpt>
      <trkpt lat="49.75546" lon="4.82246">
        <ele>189</ele>
        <time>2022-09-28T06:29:33.000Z</time>
      </trkpt>
      <trkpt lat="49.75543" lon="4.8224">
        <ele>189</ele>
        <time>2022-09-28T06:29:34.000Z</time>
      </trkpt>
      <trkpt lat="49.75539" lon="4.82233">
        <ele>189</ele>
        <time>2022-09-28T06:29:35.000Z</time>
      </trkpt>
      <trkpt lat="49.75536" lon="4.82226">
        <ele>189</ele>
        <time>2022-09-28T06:29:36.000Z</time>
      </trkpt>
      <trkpt lat="49.75532" lon="4.8222">
        <ele>189</ele>
        <time>2022-09-28T06:29:37.000Z</time>
      </trkpt>
      <trkpt lat="49.75529" lon="4.82213">
        <ele>189</ele>
        <time>2022-09-28T06:29:38.000Z</time>
      </trkpt>
      <trkpt lat="49.75525" lon="4.82207">
        <ele>189</ele>
        <time>2022-09-28T06:29:39.000Z</time>
      </trkpt>
      <trkpt lat="49.75522" lon="4.822">
        <ele>189</ele>
        <time>2022-09-28T06:29:40.000Z</time>
      </trkpt>
      <trkpt lat="49.75519" lon="4.82193">
        <ele>189</ele>
        <time>2022-09-28T06:29:41.000Z</time>
      </trkpt>
      <trkpt lat="49.75515" lon="4.82186">
        <ele>189</ele>
        <time>2022-09-28T06:29:42.000Z</time>
      </trkpt>
      <trkpt lat="49.75512" lon="4.8218">
        <ele>189</ele>
        <time>2022-09-28T06:29:43.000Z</time>
      </trkpt>
      <trkpt lat="49.75508" lon="4.82173">
        <ele>189</ele>
        <time>2022-09-28T06:29:44.000Z</time>
      </trkpt>
      <trkpt lat="49.75504" lon="4.82167">
        <ele>188</ele>
        <time>2022-09-28T06:29:45.000Z</time>
      </trkpt>
      <trkpt lat="49.755" lon="4.8216">
        <ele>188</ele>
        <time>2022-09-28T06:29:46.000Z</time>
      </trkpt>
      <trkpt lat="49.75496" lon="4.82154">
        <ele>188</ele>
        <time>2022-09-28T06:29:47.000Z</time>
      </trkpt>
      <trkpt lat="49.75492" lon="4.82148">
        <ele>188</ele>
        <time>2022-09-28T06:29:48.000Z</time>
      </trkpt>
      <trkpt lat="49.75488" lon="4.82142">
        <ele>188</ele>
        <time>2022-09-28T06:29:49.000Z</time>
      </trkpt>
      <trkpt lat="49.75485" lon="4.82136">
        <ele>189</ele>
        <time>2022-09-28T06:29:50.000Z</time>
      </trkpt>
      <trkpt lat="49.75481" lon="4.82131">
        <ele>189</ele>
        <time>2022-09-28T06:29:51.000Z</time>
      </trkpt>
      <trkpt lat="49.75477" lon="4.82125">
        <ele>189</ele>
        <time>2022-09-28T06:29:52.000Z</time>
      </trkpt>
      <trkpt lat="49.75473" lon="4.8212">
        <ele>189</ele>
        <time>2022-09-28T06:29:53.000Z</time>
      </trkpt>
      <trkpt lat="49.7547" lon="4.82115">
        <ele>189</ele>
        <time>2022-09-28T06:29:54.000Z</time>
      </trkpt>
      <trkpt lat="49.75466" lon="4.8211">
        <ele>189</ele>
        <time>2022-09-28T06:29:55.000Z</time>
      </trkpt>
      <trkpt lat="49.75462" lon="4.82105">
        <ele>189</ele>
        <time>2022-09-28T06:29:56.000Z</time>
      </trkpt>
      <trkpt lat="49.75458" lon="4.82101">
        <ele>189</ele>
        <time>2022-09-28T06:29:57.000Z</time>
      </trkpt>
      <trkpt lat="49.75454" lon="4.82097">
        <ele>189</ele>
        <time>2022-09-28T06:29:58.000Z</time>
      </trkpt>
      <trkpt lat="49.7545" lon="4.82094">
        <ele>189</ele>
        <time>2022-09-28T06:29:59.000Z</time>
      </trkpt>
      <trkpt lat="49.75446" lon="4.82089">
        <ele>189</ele>
        <time>2022-09-28T06:30:00.000Z</time>
      </trkpt>
      <trkpt lat="49.75441" lon="4.82085">
        <ele>189</ele>
        <time>2022-09-28T06:30:01.000Z</time>
      </trkpt>
      <trkpt lat="49.75437" lon="4.82081">
        <ele>189</ele>
        <time>2022-09-28T06:30:02.000Z</time>
      </trkpt>
      <trkpt lat="49.75433" lon="4.82077">
        <ele>189</ele>
        <time>2022-09-28T06:30:03.000Z</time>
      </trkpt>
      <trkpt lat="49.75429" lon="4.82072">
        <ele>189</ele>
        <time>2022-09-28T06:30:04.000Z</time>
      </trkpt>
      <trkpt lat="49.75425" lon="4.82068">
        <ele>189</ele>
        <time>2022-09-28T06:30:05.000Z</time>
      </trkpt>
      <trkpt lat="49.7542" lon="4.82064">
        <ele>189</ele>
        <time>2022-09-28T06:30:06.000Z</time>
      </trkpt>
      <trkpt lat="49.75416" lon="4.8206">
        <ele>189</ele>
        <time>2022-09-28T06:30:07.000Z</time>
      </trkpt>
      <trkpt lat="49.75412" lon="4.82056">
        <ele>189</ele>
        <time>2022-09-28T06:30:08.000Z</time>
      </trkpt>
      <trkpt lat="49.75408" lon="4.82052">
        <ele>189</ele>
        <time>2022-09-28T06:30:09.000Z</time>
      </trkpt>
      <trkpt lat="49.75404" lon="4.82048">
        <ele>189</ele>
        <time>2022-09-28T06:30:10.000Z</time>
      </trkpt>
      <trkpt lat="49.754" lon="4.82044">
        <ele>189</ele>
        <time>2022-09-28T06:30:11.000Z</time>
      </trkpt>
      <trkpt lat="49.75395" lon="4.8204">
        <ele>189</ele>
        <time>2022-09-28T06:30:12.000Z</time>
      </trkpt>
      <trkpt lat="49.75391" lon="4.82036">
        <ele>189</ele>
        <time>2022-09-28T06:30:13.000Z</time>
      </trkpt>
      <trkpt lat="49.75386" lon="4.82033">
        <ele>189</ele>
        <time>2022-09-28T06:30:14.000Z</time>
      </trkpt>
      <trkpt lat="49.75382" lon="4.8203">
        <ele>189</ele>
        <time>2022-09-28T06:30:15.000Z</time>
      </trkpt>
      <trkpt lat="49.75377" lon="4.82027">
        <ele>189</ele>
        <time>2022-09-28T06:30:16.000Z</time>
      </trkpt>
      <trkpt lat="49.75373" lon="4.82025">
        <ele>189</ele>
        <time>2022-09-28T06:30:17.000Z</time>
      </trkpt>
      <trkpt lat="49.75368" lon="4.82023">
        <ele>190</ele>
        <time>2022-09-28T06:30:18.000Z</time>
      </trkpt>
      <trkpt lat="49.75364" lon="4.82021">
        <ele>190</ele>
        <time>2022-09-28T06:30:19.000Z</time>
      </trkpt>
      <trkpt lat="49.75359" lon="4.82019">
        <ele>190</ele>
        <time>2022-09-28T06:30:20.000Z</time>
      </trkpt>
      <trkpt lat="49.75355" lon="4.82016">
        <ele>190</ele>
        <time>2022-09-28T06:30:21.000Z</time>
      </trkpt>
      <trkpt lat="49.75351" lon="4.82013">
        <ele>190</ele>
        <time>2022-09-28T06:30:22.000Z</time>
      </trkpt>
      <trkpt lat="49.75347" lon="4.8201">
        <ele>190</ele>
        <time>2022-09-28T06:30:23.000Z</time>
      </trkpt>
      <trkpt lat="49.75343" lon="4.82008">
        <ele>190</ele>
        <time>2022-09-28T06:30:24.000Z</time>
      </trkpt>
      <trkpt lat="49.75339" lon="4.82006">
        <ele>190</ele>
        <time>2022-09-28T06:30:25.000Z</time>
      </trkpt>
      <trkpt lat="49.75335" lon="4.82003">
        <ele>190</ele>
        <time>2022-09-28T06:30:26.000Z</time>
      </trkpt>
      <trkpt lat="49.75331" lon="4.82001">
        <ele>190</ele>
        <time>2022-09-28T06:30:27.000Z</time>
      </trkpt>
      <trkpt lat="49.75327" lon="4.81998">
        <ele>190</ele>
        <time>2022-09-28T06:30:28.000Z</time>
      </trkpt>
      <trkpt lat="49.75323" lon="4.81996">
        <ele>190</ele>
        <time>2022-09-28T06:30:29.000Z</time>
      </trkpt>
      <trkpt lat="49.75319" lon="4.81993">
        <ele>190</ele>
        <time>2022-09-28T06:30:30.000Z</time>
      </trkpt>
      <trkpt lat="49.75316" lon="4.8199">
        <ele>190</ele>
        <time>2022-09-28T06:30:31.000Z</time>
      </trkpt>
      <trkpt lat="49.75312" lon="4.81988">
        <ele>190</ele>
        <time>2022-09-28T06:30:32.000Z</time>
      </trkpt>
      <trkpt lat="49.75309" lon="4.81986">
        <ele>190</ele>
        <time>2022-09-28T06:30:33.000Z</time>
      </trkpt>
      <trkpt lat="49.75306" lon="4.81983">
        <ele>190</ele>
        <time>2022-09-28T06:30:34.000Z</time>
      </trkpt>
      <trkpt lat="49.75304" lon="4.81982">
        <ele>190</ele>
        <time>2022-09-28T06:30:35.000Z</time>
      </trkpt>
      <trkpt lat="49.75301" lon="4.8198">
        <ele>191</ele>
        <time>2022-09-28T06:30:36.000Z</time>
      </trkpt>
      <trkpt lat="49.75298" lon="4.81978">
        <ele>191</ele>
        <time>2022-09-28T06:30:37.000Z</time>
      </trkpt>
      <trkpt lat="49.75296" lon="4.81976">
        <ele>191</ele>
        <time>2022-09-28T06:30:38.000Z</time>
      </trkpt>
      <trkpt lat="49.75293" lon="4.81973">
        <ele>191</ele>
        <time>2022-09-28T06:30:39.000Z</time>
      </trkpt>
      <trkpt lat="49.7529" lon="4.81971">
        <ele>191</ele>
        <time>2022-09-28T06:30:40.000Z</time>
      </trkpt>
      <trkpt lat="49.75287" lon="4.81969">
        <ele>191</ele>
        <time>2022-09-28T06:30:41.000Z</time>
      </trkpt>
      <trkpt lat="49.75284" lon="4.81967">
        <ele>191</ele>
        <time>2022-09-28T06:30:42.000Z</time>
      </trkpt>
      <trkpt lat="49.75281" lon="4.81964">
        <ele>191</ele>
        <time>2022-09-28T06:30:43.000Z</time>
      </trkpt>
      <trkpt lat="49.75278" lon="4.81962">
        <ele>192</ele>
        <time>2022-09-28T06:30:44.000Z</time>
      </trkpt>
      <trkpt lat="49.75274" lon="4.81959">
        <ele>192</ele>
        <time>2022-09-28T06:30:45.000Z</time>
      </trkpt>
      <trkpt lat="49.75271" lon="4.81956">
        <ele>192</ele>
        <time>2022-09-28T06:30:46.000Z</time>
      </trkpt>
      <trkpt lat="49.75268" lon="4.81953">
        <ele>192</ele>
        <time>2022-09-28T06:30:47.000Z</time>
      </trkpt>
      <trkpt lat="49.75266" lon="4.8195">
        <ele>192</ele>
        <time>2022-09-28T06:30:48.000Z</time>
      </trkpt>
      <trkpt lat="49.75263" lon="4.81947">
        <ele>192</ele>
        <time>2022-09-28T06:30:49.000Z</time>
      </trkpt>
      <trkpt lat="49.7526" lon="4.81944">
        <ele>193</ele>
        <time>2022-09-28T06:30:50.000Z</time>
      </trkpt>
      <trkpt lat="49.75258" lon="4.81941">
        <ele>193</ele>
        <time>2022-09-28T06:30:51.000Z</time>
      </trkpt>
      <trkpt lat="49.75255" lon="4.81937">
        <ele>193</ele>
        <time>2022-09-28T06:30:52.000Z</time>
      </trkpt>
      <trkpt lat="49.75253" lon="4.81933">
        <ele>193</ele>
        <time>2022-09-28T06:30:53.000Z</time>
      </trkpt>
      <trkpt lat="49.75251" lon="4.81929">
        <ele>193</ele>
        <time>2022-09-28T06:30:54.000Z</time>
      </trkpt>
      <trkpt lat="49.75249" lon="4.81925">
        <ele>193</ele>
        <time>2022-09-28T06:30:55.000Z</time>
      </trkpt>
      <trkpt lat="49.75246" lon="4.81922">
        <ele>193</ele>
        <time>2022-09-28T06:30:56.000Z</time>
      </trkpt>
      <trkpt lat="49.75243" lon="4.81918">
        <ele>193</ele>
        <time>2022-09-28T06:30:57.000Z</time>
      </trkpt>
      <trkpt lat="49.7524" lon="4.81915">
        <ele>194</ele>
        <time>2022-09-28T06:30:58.000Z</time>
      </trkpt>
      <trkpt lat="49.75238" lon="4.81912">
        <ele>194</ele>
        <time>2022-09-28T06:30:59.000Z</time>
      </trkpt>
      <trkpt lat="49.75235" lon="4.81909">
        <ele>194</ele>
        <time>2022-09-28T06:31:00.000Z</time>
      </trkpt>
      <trkpt lat="49.75232" lon="4.81906">
        <ele>194</ele>
        <time>2022-09-28T06:31:01.000Z</time>
      </trkpt>
      <trkpt lat="49.75229" lon="4.81902">
        <ele>194</ele>
        <time>2022-09-28T06:31:02.000Z</time>
      </trkpt>
      <trkpt lat="49.75226" lon="4.81899">
        <ele>194</ele>
        <time>2022-09-28T06:31:03.000Z</time>
      </trkpt>
      <trkpt lat="49.75223" lon="4.81895">
        <ele>194</ele>
        <time>2022-09-28T06:31:04.000Z</time>
      </trkpt>
      <trkpt lat="49.75221" lon="4.81892">
        <ele>195</ele>
        <time>2022-09-28T06:31:05.000Z</time>
      </trkpt>
      <trkpt lat="49.75218" lon="4.81889">
        <ele>195</ele>
        <time>2022-09-28T06:31:06.000Z</time>
      </trkpt>
      <trkpt lat="49.75216" lon="4.81886">
        <ele>195</ele>
        <time>2022-09-28T06:31:07.000Z</time>
      </trkpt>
      <trkpt lat="49.75213" lon="4.81882">
        <ele>195</ele>
        <time>2022-09-28T06:31:08.000Z</time>
      </trkpt>
      <trkpt lat="49.7521" lon="4.81879">
        <ele>195</ele>
        <time>2022-09-28T06:31:09.000Z</time>
      </trkpt>
      <trkpt lat="49.75207" lon="4.81875">
        <ele>195</ele>
        <time>2022-09-28T06:31:10.000Z</time>
      </trkpt>
      <trkpt lat="49.75204" lon="4.81871">
        <ele>195</ele>
        <time>2022-09-28T06:31:11.000Z</time>
      </trkpt>
      <trkpt lat="49.75201" lon="4.81866">
        <ele>196</ele>
        <time>2022-09-28T06:31:12.000Z</time>
      </trkpt>
      <trkpt lat="49.75199" lon="4.81862">
        <ele>196</ele>
        <time>2022-09-28T06:31:13.000Z</time>
      </trkpt>
      <trkpt lat="49.75196" lon="4.81857">
        <ele>196</ele>
        <time>2022-09-28T06:31:14.000Z</time>
      </trkpt>
      <trkpt lat="49.75193" lon="4.81852">
        <ele>196</ele>
        <time>2022-09-28T06:31:15.000Z</time>
      </trkpt>
      <trkpt lat="49.7519" lon="4.81847">
        <ele>196</ele>
        <time>2022-09-28T06:31:16.000Z</time>
      </trkpt>
      <trkpt lat="49.75187" lon="4.81842">
        <ele>196</ele>
        <time>2022-09-28T06:31:17.000Z</time>
      </trkpt>
      <trkpt lat="49.75185" lon="4.81837">
        <ele>197</ele>
        <time>2022-09-28T06:31:18.000Z</time>
      </trkpt>
      <trkpt lat="49.75182" lon="4.81832">
        <ele>197</ele>
        <time>2022-09-28T06:31:19.000Z</time>
      </trkpt>
      <trkpt lat="49.75179" lon="4.81827">
        <ele>197</ele>
        <time>2022-09-28T06:31:20.000Z</time>
      </trkpt>
      <trkpt lat="49.75176" lon="4.81822">
        <ele>197</ele>
        <time>2022-09-28T06:31:21.000Z</time>
      </trkpt>
      <trkpt lat="49.75173" lon="4.81817">
        <ele>197</ele>
        <time>2022-09-28T06:31:22.000Z</time>
      </trkpt>
      <trkpt lat="49.7517" lon="4.81812">
        <ele>197</ele>
        <time>2022-09-28T06:31:23.000Z</time>
      </trkpt>
      <trkpt lat="49.75167" lon="4.81808">
        <ele>198</ele>
        <time>2022-09-28T06:31:24.000Z</time>
      </trkpt>
      <trkpt lat="49.75164" lon="4.81803">
        <ele>198</ele>
        <time>2022-09-28T06:31:25.000Z</time>
      </trkpt>
      <trkpt lat="49.75161" lon="4.81798">
        <ele>198</ele>
        <time>2022-09-28T06:31:26.000Z</time>
      </trkpt>
      <trkpt lat="49.75159" lon="4.81793">
        <ele>198</ele>
        <time>2022-09-28T06:31:27.000Z</time>
      </trkpt>
      <trkpt lat="49.75156" lon="4.81788">
        <ele>198</ele>
        <time>2022-09-28T06:31:28.000Z</time>
      </trkpt>
      <trkpt lat="49.75153" lon="4.81783">
        <ele>198</ele>
        <time>2022-09-28T06:31:29.000Z</time>
      </trkpt>
      <trkpt lat="49.75149" lon="4.81777">
        <ele>198</ele>
        <time>2022-09-28T06:31:30.000Z</time>
      </trkpt>
      <trkpt lat="49.75146" lon="4.81772">
        <ele>198</ele>
        <time>2022-09-28T06:31:31.000Z</time>
      </trkpt>
      <trkpt lat="49.75143" lon="4.81768">
        <ele>198</ele>
        <time>2022-09-28T06:31:32.000Z</time>
      </trkpt>
      <trkpt lat="49.75141" lon="4.81763">
        <ele>198</ele>
        <time>2022-09-28T06:31:33.000Z</time>
      </trkpt>
      <trkpt lat="49.75138" lon="4.81757">
        <ele>198</ele>
        <time>2022-09-28T06:31:34.000Z</time>
      </trkpt>
      <trkpt lat="49.75137" lon="4.81751">
        <ele>198</ele>
        <time>2022-09-28T06:31:35.000Z</time>
      </trkpt>
      <trkpt lat="49.75135" lon="4.81745">
        <ele>198</ele>
        <time>2022-09-28T06:31:36.000Z</time>
      </trkpt>
      <trkpt lat="49.75133" lon="4.81738">
        <ele>198</ele>
        <time>2022-09-28T06:31:37.000Z</time>
      </trkpt>
      <trkpt lat="49.75131" lon="4.81732">
        <ele>198</ele>
        <time>2022-09-28T06:31:38.000Z</time>
      </trkpt>
      <trkpt lat="49.75129" lon="4.81726">
        <ele>198</ele>
        <time>2022-09-28T06:31:39.000Z</time>
      </trkpt>
      <trkpt lat="49.75127" lon="4.8172">
        <ele>198</ele>
        <time>2022-09-28T06:31:40.000Z</time>
      </trkpt>
      <trkpt lat="49.75124" lon="4.81714">
        <ele>199</ele>
        <time>2022-09-28T06:31:41.000Z</time>
      </trkpt>
      <trkpt lat="49.75122" lon="4.81708">
        <ele>199</ele>
        <time>2022-09-28T06:31:42.000Z</time>
      </trkpt>
      <trkpt lat="49.7512" lon="4.81702">
        <ele>199</ele>
        <time>2022-09-28T06:31:43.000Z</time>
      </trkpt>
      <trkpt lat="49.75118" lon="4.81696">
        <ele>199</ele>
        <time>2022-09-28T06:31:44.000Z</time>
      </trkpt>
      <trkpt lat="49.75117" lon="4.81689">
        <ele>199</ele>
        <time>2022-09-28T06:31:45.000Z</time>
      </trkpt>
      <trkpt lat="49.75116" lon="4.81683">
        <ele>199</ele>
        <time>2022-09-28T06:31:46.000Z</time>
      </trkpt>
      <trkpt lat="49.75115" lon="4.81676">
        <ele>199</ele>
        <time>2022-09-28T06:31:47.000Z</time>
      </trkpt>
      <trkpt lat="49.75115" lon="4.81669">
        <ele>199</ele>
        <time>2022-09-28T06:31:48.000Z</time>
      </trkpt>
      <trkpt lat="49.75114" lon="4.81662">
        <ele>199</ele>
        <time>2022-09-28T06:31:49.000Z</time>
      </trkpt>
      <trkpt lat="49.75114" lon="4.81655">
        <ele>199</ele>
        <time>2022-09-28T06:31:50.000Z</time>
      </trkpt>
      <trkpt lat="49.75113" lon="4.81647">
        <ele>199</ele>
        <time>2022-09-28T06:31:51.000Z</time>
      </trkpt>
      <trkpt lat="49.75113" lon="4.8164">
        <ele>199</ele>
        <time>2022-09-28T06:31:52.000Z</time>
      </trkpt>
      <trkpt lat="49.75113" lon="4.81633">
        <ele>199</ele>
        <time>2022-09-28T06:31:53.000Z</time>
      </trkpt>
      <trkpt lat="49.75113" lon="4.81626">
        <ele>199</ele>
        <time>2022-09-28T06:31:54.000Z</time>
      </trkpt>
      <trkpt lat="49.75112" lon="4.81619">
        <ele>199</ele>
        <time>2022-09-28T06:31:55.000Z</time>
      </trkpt>
      <trkpt lat="49.75112" lon="4.81611">
        <ele>199</ele>
        <time>2022-09-28T06:31:56.000Z</time>
      </trkpt>
      <trkpt lat="49.75112" lon="4.81604">
        <ele>200</ele>
        <time>2022-09-28T06:31:57.000Z</time>
      </trkpt>
      <trkpt lat="49.75112" lon="4.81598">
        <ele>200</ele>
        <time>2022-09-28T06:31:58.000Z</time>
      </trkpt>
      <trkpt lat="49.75112" lon="4.81591">
        <ele>200</ele>
        <time>2022-09-28T06:31:59.000Z</time>
      </trkpt>
      <trkpt lat="49.75112" lon="4.81584">
        <ele>200</ele>
        <time>2022-09-28T06:32:00.000Z</time>
      </trkpt>
      <trkpt lat="49.75113" lon="4.81578">
        <ele>200</ele>
        <time>2022-09-28T06:32:01.000Z</time>
      </trkpt>
      <trkpt lat="49.75114" lon="4.81572">
        <ele>200</ele>
        <time>2022-09-28T06:32:02.000Z</time>
      </trkpt>
      <trkpt lat="49.75114" lon="4.81566">
        <ele>200</ele>
        <time>2022-09-28T06:32:03.000Z</time>
      </trkpt>
      <trkpt lat="49.75115" lon="4.8156">
        <ele>200</ele>
        <time>2022-09-28T06:32:04.000Z</time>
      </trkpt>
      <trkpt lat="49.75116" lon="4.81553">
        <ele>200</ele>
        <time>2022-09-28T06:32:05.000Z</time>
      </trkpt>
      <trkpt lat="49.75117" lon="4.81547">
        <ele>200</ele>
        <time>2022-09-28T06:32:06.000Z</time>
      </trkpt>
      <trkpt lat="49.75118" lon="4.8154">
        <ele>200</ele>
        <time>2022-09-28T06:32:07.000Z</time>
      </trkpt>
      <trkpt lat="49.75119" lon="4.81534">
        <ele>200</ele>
        <time>2022-09-28T06:32:08.000Z</time>
      </trkpt>
      <trkpt lat="49.7512" lon="4.81528">
        <ele>200</ele>
        <time>2022-09-28T06:32:09.000Z</time>
      </trkpt>
      <trkpt lat="49.75122" lon="4.81521">
        <ele>201</ele>
        <time>2022-09-28T06:32:10.000Z</time>
      </trkpt>
      <trkpt lat="49.75123" lon="4.81515">
        <ele>201</ele>
        <time>2022-09-28T06:32:11.000Z</time>
      </trkpt>
      <trkpt lat="49.75124" lon="4.81508">
        <ele>201</ele>
        <time>2022-09-28T06:32:12.000Z</time>
      </trkpt>
      <trkpt lat="49.75126" lon="4.81502">
        <ele>201</ele>
        <time>2022-09-28T06:32:13.000Z</time>
      </trkpt>
      <trkpt lat="49.75127" lon="4.81496">
        <ele>201</ele>
        <time>2022-09-28T06:32:14.000Z</time>
      </trkpt>
      <trkpt lat="49.75128" lon="4.81489">
        <ele>201</ele>
        <time>2022-09-28T06:32:15.000Z</time>
      </trkpt>
      <trkpt lat="49.7513" lon="4.81483">
        <ele>202</ele>
        <time>2022-09-28T06:32:16.000Z</time>
      </trkpt>
      <trkpt lat="49.75132" lon="4.81477">
        <ele>202</ele>
        <time>2022-09-28T06:32:17.000Z</time>
      </trkpt>
      <trkpt lat="49.75133" lon="4.81472">
        <ele>202</ele>
        <time>2022-09-28T06:32:18.000Z</time>
      </trkpt>
      <trkpt lat="49.75134" lon="4.81466">
        <ele>202</ele>
        <time>2022-09-28T06:32:19.000Z</time>
      </trkpt>
      <trkpt lat="49.75135" lon="4.8146">
        <ele>202</ele>
        <time>2022-09-28T06:32:20.000Z</time>
      </trkpt>
      <trkpt lat="49.75136" lon="4.81455">
        <ele>202</ele>
        <time>2022-09-28T06:32:21.000Z</time>
      </trkpt>
      <trkpt lat="49.75137" lon="4.81449">
        <ele>202</ele>
        <time>2022-09-28T06:32:22.000Z</time>
      </trkpt>
      <trkpt lat="49.75137" lon="4.81443">
        <ele>202</ele>
        <time>2022-09-28T06:32:23.000Z</time>
      </trkpt>
      <trkpt lat="49.75138" lon="4.81438">
        <ele>202</ele>
        <time>2022-09-28T06:32:24.000Z</time>
      </trkpt>
      <trkpt lat="49.75138" lon="4.81433">
        <ele>202</ele>
        <time>2022-09-28T06:32:25.000Z</time>
      </trkpt>
      <trkpt lat="49.75139" lon="4.81428">
        <ele>203</ele>
        <time>2022-09-28T06:32:26.000Z</time>
      </trkpt>
      <trkpt lat="49.75139" lon="4.81424">
        <ele>203</ele>
        <time>2022-09-28T06:32:27.000Z</time>
      </trkpt>
      <trkpt lat="49.7514" lon="4.8142">
        <ele>203</ele>
        <time>2022-09-28T06:32:28.000Z</time>
      </trkpt>
      <trkpt lat="49.7514" lon="4.81416">
        <ele>203</ele>
        <time>2022-09-28T06:32:29.000Z</time>
      </trkpt>
      <trkpt lat="49.75141" lon="4.81411">
        <ele>203</ele>
        <time>2022-09-28T06:32:30.000Z</time>
      </trkpt>
      <trkpt lat="49.75142" lon="4.81407">
        <ele>203</ele>
        <time>2022-09-28T06:32:31.000Z</time>
      </trkpt>
      <trkpt lat="49.75143" lon="4.81403">
        <ele>203</ele>
        <time>2022-09-28T06:32:32.000Z</time>
      </trkpt>
      <trkpt lat="49.75144" lon="4.81398">
        <ele>204</ele>
        <time>2022-09-28T06:32:33.000Z</time>
      </trkpt>
      <trkpt lat="49.75144" lon="4.81394">
        <ele>204</ele>
        <time>2022-09-28T06:32:34.000Z</time>
      </trkpt>
      <trkpt lat="49.75145" lon="4.81389">
        <ele>204</ele>
        <time>2022-09-28T06:32:35.000Z</time>
      </trkpt>
      <trkpt lat="49.75145" lon="4.81385">
        <ele>204</ele>
        <time>2022-09-28T06:32:36.000Z</time>
      </trkpt>
      <trkpt lat="49.75145" lon="4.8138">
        <ele>205</ele>
        <time>2022-09-28T06:32:37.000Z</time>
      </trkpt>
      <trkpt lat="49.75146" lon="4.81376">
        <ele>205</ele>
        <time>2022-09-28T06:32:38.000Z</time>
      </trkpt>
      <trkpt lat="49.75146" lon="4.81371">
        <ele>205</ele>
        <time>2022-09-28T06:32:39.000Z</time>
      </trkpt>
      <trkpt lat="49.75146" lon="4.81367">
        <ele>205</ele>
        <time>2022-09-28T06:32:40.000Z</time>
      </trkpt>
      <trkpt lat="49.75146" lon="4.81362">
        <ele>206</ele>
        <time>2022-09-28T06:32:41.000Z</time>
      </trkpt>
      <trkpt lat="49.75147" lon="4.81358">
        <ele>206</ele>
        <time>2022-09-28T06:32:42.000Z</time>
      </trkpt>
      <trkpt lat="49.75147" lon="4.81353">
        <ele>206</ele>
        <time>2022-09-28T06:32:43.000Z</time>
      </trkpt>
      <trkpt lat="49.75146" lon="4.81348">
        <ele>206</ele>
        <time>2022-09-28T06:32:44.000Z</time>
      </trkpt>
      <trkpt lat="49.75146" lon="4.81344">
        <ele>207</ele>
        <time>2022-09-28T06:32:45.000Z</time>
      </trkpt>
      <trkpt lat="49.75146" lon="4.81339">
        <ele>207</ele>
        <time>2022-09-28T06:32:46.000Z</time>
      </trkpt>
      <trkpt lat="49.75146" lon="4.81334">
        <ele>207</ele>
        <time>2022-09-28T06:32:47.000Z</time>
      </trkpt>
      <trkpt lat="49.75146" lon="4.8133">
        <ele>207</ele>
        <time>2022-09-28T06:32:48.000Z</time>
      </trkpt>
      <trkpt lat="49.75146" lon="4.81325">
        <ele>208</ele>
        <time>2022-09-28T06:32:49.000Z</time>
      </trkpt>
      <trkpt lat="49.75146" lon="4.81321">
        <ele>208</ele>
        <time>2022-09-28T06:32:50.000Z</time>
      </trkpt>
      <trkpt lat="49.75146" lon="4.81316">
        <ele>208</ele>
        <time>2022-09-28T06:32:51.000Z</time>
      </trkpt>
      <trkpt lat="49.75145" lon="4.81312">
        <ele>208</ele>
        <time>2022-09-28T06:32:52.000Z</time>
      </trkpt>
      <trkpt lat="49.75144" lon="4.81307">
        <ele>209</ele>
        <time>2022-09-28T06:32:53.000Z</time>
      </trkpt>
      <trkpt lat="49.75143" lon="4.81303">
        <ele>209</ele>
        <time>2022-09-28T06:32:54.000Z</time>
      </trkpt>
      <trkpt lat="49.75143" lon="4.81298">
        <ele>210</ele>
        <time>2022-09-28T06:32:55.000Z</time>
      </trkpt>
      <trkpt lat="49.75142" lon="4.81294">
        <ele>210</ele>
        <time>2022-09-28T06:32:56.000Z</time>
      </trkpt>
      <trkpt lat="49.75141" lon="4.8129">
        <ele>210</ele>
        <time>2022-09-28T06:32:57.000Z</time>
      </trkpt>
      <trkpt lat="49.7514" lon="4.81285">
        <ele>210</ele>
        <time>2022-09-28T06:32:58.000Z</time>
      </trkpt>
      <trkpt lat="49.75139" lon="4.81281">
        <ele>211</ele>
        <time>2022-09-28T06:32:59.000Z</time>
      </trkpt>
      <trkpt lat="49.75139" lon="4.81276">
        <ele>211</ele>
        <time>2022-09-28T06:33:00.000Z</time>
      </trkpt>
      <trkpt lat="49.75137" lon="4.81272">
        <ele>211</ele>
        <time>2022-09-28T06:33:01.000Z</time>
      </trkpt>
      <trkpt lat="49.75137" lon="4.81267">
        <ele>212</ele>
        <time>2022-09-28T06:33:02.000Z</time>
      </trkpt>
      <trkpt lat="49.75136" lon="4.81263">
        <ele>212</ele>
        <time>2022-09-28T06:33:03.000Z</time>
      </trkpt>
      <trkpt lat="49.75135" lon="4.81258">
        <ele>212</ele>
        <time>2022-09-28T06:33:04.000Z</time>
      </trkpt>
      <trkpt lat="49.75135" lon="4.81254">
        <ele>212</ele>
        <time>2022-09-28T06:33:05.000Z</time>
      </trkpt>
      <trkpt lat="49.75134" lon="4.8125">
        <ele>212</ele>
        <time>2022-09-28T06:33:06.000Z</time>
      </trkpt>
      <trkpt lat="49.75133" lon="4.81246">
        <ele>212</ele>
        <time>2022-09-28T06:33:07.000Z</time>
      </trkpt>
      <trkpt lat="49.75133" lon="4.81242">
        <ele>213</ele>
        <time>2022-09-28T06:33:08.000Z</time>
      </trkpt>
      <trkpt lat="49.75132" lon="4.81238">
        <ele>213</ele>
        <time>2022-09-28T06:33:09.000Z</time>
      </trkpt>
      <trkpt lat="49.75131" lon="4.81234">
        <ele>213</ele>
        <time>2022-09-28T06:33:10.000Z</time>
      </trkpt>
      <trkpt lat="49.7513" lon="4.81229">
        <ele>213</ele>
        <time>2022-09-28T06:33:11.000Z</time>
      </trkpt>
      <trkpt lat="49.75129" lon="4.81225">
        <ele>213</ele>
        <time>2022-09-28T06:33:12.000Z</time>
      </trkpt>
      <trkpt lat="49.75129" lon="4.81221">
        <ele>213</ele>
        <time>2022-09-28T06:33:13.000Z</time>
      </trkpt>
      <trkpt lat="49.75128" lon="4.81217">
        <ele>213</ele>
        <time>2022-09-28T06:33:14.000Z</time>
      </trkpt>
      <trkpt lat="49.75127" lon="4.81213">
        <ele>213</ele>
        <time>2022-09-28T06:33:15.000Z</time>
      </trkpt>
      <trkpt lat="49.75126" lon="4.81208">
        <ele>213</ele>
        <time>2022-09-28T06:33:16.000Z</time>
      </trkpt>
      <trkpt lat="49.75125" lon="4.81204">
        <ele>214</ele>
        <time>2022-09-28T06:33:17.000Z</time>
      </trkpt>
      <trkpt lat="49.75125" lon="4.81199">
        <ele>214</ele>
        <time>2022-09-28T06:33:18.000Z</time>
      </trkpt>
      <trkpt lat="49.75124" lon="4.81195">
        <ele>214</ele>
        <time>2022-09-28T06:33:19.000Z</time>
      </trkpt>
      <trkpt lat="49.75123" lon="4.8119">
        <ele>214</ele>
        <time>2022-09-28T06:33:20.000Z</time>
      </trkpt>
      <trkpt lat="49.75122" lon="4.81186">
        <ele>214</ele>
        <time>2022-09-28T06:33:21.000Z</time>
      </trkpt>
      <trkpt lat="49.75121" lon="4.81181">
        <ele>214</ele>
        <time>2022-09-28T06:33:22.000Z</time>
      </trkpt>
      <trkpt lat="49.75121" lon="4.81177">
        <ele>214</ele>
        <time>2022-09-28T06:33:23.000Z</time>
      </trkpt>
      <trkpt lat="49.7512" lon="4.81172">
        <ele>214</ele>
        <time>2022-09-28T06:33:24.000Z</time>
      </trkpt>
      <trkpt lat="49.75119" lon="4.81168">
        <ele>214</ele>
        <time>2022-09-28T06:33:25.000Z</time>
      </trkpt>
      <trkpt lat="49.75118" lon="4.81163">
        <ele>214</ele>
        <time>2022-09-28T06:33:26.000Z</time>
      </trkpt>
      <trkpt lat="49.75118" lon="4.81159">
        <ele>214</ele>
        <time>2022-09-28T06:33:27.000Z</time>
      </trkpt>
      <trkpt lat="49.75117" lon="4.81155">
        <ele>214</ele>
        <time>2022-09-28T06:33:28.000Z</time>
      </trkpt>
      <trkpt lat="49.75117" lon="4.8115">
        <ele>215</ele>
        <time>2022-09-28T06:33:29.000Z</time>
      </trkpt>
      <trkpt lat="49.75116" lon="4.81146">
        <ele>215</ele>
        <time>2022-09-28T06:33:30.000Z</time>
      </trkpt>
      <trkpt lat="49.75114" lon="4.81141">
        <ele>215</ele>
        <time>2022-09-28T06:33:31.000Z</time>
      </trkpt>
      <trkpt lat="49.75113" lon="4.81136">
        <ele>215</ele>
        <time>2022-09-28T06:33:32.000Z</time>
      </trkpt>
      <trkpt lat="49.75112" lon="4.81131">
        <ele>215</ele>
        <time>2022-09-28T06:33:33.000Z</time>
      </trkpt>
      <trkpt lat="49.7511" lon="4.81127">
        <ele>215</ele>
        <time>2022-09-28T06:33:34.000Z</time>
      </trkpt>
      <trkpt lat="49.75109" lon="4.81122">
        <ele>215</ele>
        <time>2022-09-28T06:33:35.000Z</time>
      </trkpt>
      <trkpt lat="49.75107" lon="4.81118">
        <ele>215</ele>
        <time>2022-09-28T06:33:36.000Z</time>
      </trkpt>
      <trkpt lat="49.75105" lon="4.81113">
        <ele>215</ele>
        <time>2022-09-28T06:33:37.000Z</time>
      </trkpt>
      <trkpt lat="49.75104" lon="4.81109">
        <ele>215</ele>
        <time>2022-09-28T06:33:38.000Z</time>
      </trkpt>
      <trkpt lat="49.75103" lon="4.81105">
        <ele>215</ele>
        <time>2022-09-28T06:33:39.000Z</time>
      </trkpt>
      <trkpt lat="49.75101" lon="4.811">
        <ele>216</ele>
        <time>2022-09-28T06:33:40.000Z</time>
      </trkpt>
      <trkpt lat="49.751" lon="4.81096">
        <ele>216</ele>
        <time>2022-09-28T06:33:41.000Z</time>
      </trkpt>
      <trkpt lat="49.75099" lon="4.81091">
        <ele>215</ele>
        <time>2022-09-28T06:33:42.000Z</time>
      </trkpt>
      <trkpt lat="49.75097" lon="4.81087">
        <ele>215</ele>
        <time>2022-09-28T06:33:43.000Z</time>
      </trkpt>
      <trkpt lat="49.75096" lon="4.81082">
        <ele>215</ele>
        <time>2022-09-28T06:33:44.000Z</time>
      </trkpt>
      <trkpt lat="49.75095" lon="4.81077">
        <ele>215</ele>
        <time>2022-09-28T06:33:45.000Z</time>
      </trkpt>
      <trkpt lat="49.75094" lon="4.81072">
        <ele>215</ele>
        <time>2022-09-28T06:33:46.000Z</time>
      </trkpt>
      <trkpt lat="49.75092" lon="4.81066">
        <ele>215</ele>
        <time>2022-09-28T06:33:47.000Z</time>
      </trkpt>
      <trkpt lat="49.75091" lon="4.8106">
        <ele>215</ele>
        <time>2022-09-28T06:33:48.000Z</time>
      </trkpt>
      <trkpt lat="49.75089" lon="4.81054">
        <ele>215</ele>
        <time>2022-09-28T06:33:49.000Z</time>
      </trkpt>
      <trkpt lat="49.75088" lon="4.81048">
        <ele>216</ele>
        <time>2022-09-28T06:33:50.000Z</time>
      </trkpt>
      <trkpt lat="49.75087" lon="4.81041">
        <ele>216</ele>
        <time>2022-09-28T06:33:51.000Z</time>
      </trkpt>
      <trkpt lat="49.75085" lon="4.81035">
        <ele>216</ele>
        <time>2022-09-28T06:33:52.000Z</time>
      </trkpt>
      <trkpt lat="49.75084" lon="4.81028">
        <ele>216</ele>
        <time>2022-09-28T06:33:53.000Z</time>
      </trkpt>
      <trkpt lat="49.75082" lon="4.81022">
        <ele>216</ele>
        <time>2022-09-28T06:33:54.000Z</time>
      </trkpt>
      <trkpt lat="49.7508" lon="4.81016">
        <ele>216</ele>
        <time>2022-09-28T06:33:55.000Z</time>
      </trkpt>
      <trkpt lat="49.75078" lon="4.8101">
        <ele>216</ele>
        <time>2022-09-28T06:33:56.000Z</time>
      </trkpt>
      <trkpt lat="49.75077" lon="4.81003">
        <ele>216</ele>
        <time>2022-09-28T06:33:57.000Z</time>
      </trkpt>
      <trkpt lat="49.75075" lon="4.80997">
        <ele>216</ele>
        <time>2022-09-28T06:33:58.000Z</time>
      </trkpt>
      <trkpt lat="49.75074" lon="4.80991">
        <ele>216</ele>
        <time>2022-09-28T06:33:59.000Z</time>
      </trkpt>
      <trkpt lat="49.75072" lon="4.80985">
        <ele>216</ele>
        <time>2022-09-28T06:34:00.000Z</time>
      </trkpt>
      <trkpt lat="49.7507" lon="4.8098">
        <ele>216</ele>
        <time>2022-09-28T06:34:01.000Z</time>
      </trkpt>
      <trkpt lat="49.75069" lon="4.80974">
        <ele>217</ele>
        <time>2022-09-28T06:34:02.000Z</time>
      </trkpt>
      <trkpt lat="49.75067" lon="4.80967">
        <ele>217</ele>
        <time>2022-09-28T06:34:03.000Z</time>
      </trkpt>
      <trkpt lat="49.75065" lon="4.80961">
        <ele>217</ele>
        <time>2022-09-28T06:34:04.000Z</time>
      </trkpt>
      <trkpt lat="49.75064" lon="4.80954">
        <ele>217</ele>
        <time>2022-09-28T06:34:05.000Z</time>
      </trkpt>
      <trkpt lat="49.75062" lon="4.80947">
        <ele>217</ele>
        <time>2022-09-28T06:34:06.000Z</time>
      </trkpt>
      <trkpt lat="49.75061" lon="4.80939">
        <ele>217</ele>
        <time>2022-09-28T06:34:07.000Z</time>
      </trkpt>
      <trkpt lat="49.7506" lon="4.80932">
        <ele>217</ele>
        <time>2022-09-28T06:34:08.000Z</time>
      </trkpt>
      <trkpt lat="49.75059" lon="4.80924">
        <ele>217</ele>
        <time>2022-09-28T06:34:09.000Z</time>
      </trkpt>
      <trkpt lat="49.75059" lon="4.80916">
        <ele>217</ele>
        <time>2022-09-28T06:34:10.000Z</time>
      </trkpt>
      <trkpt lat="49.75058" lon="4.80907">
        <ele>217</ele>
        <time>2022-09-28T06:34:11.000Z</time>
      </trkpt>
      <trkpt lat="49.75058" lon="4.80899">
        <ele>217</ele>
        <time>2022-09-28T06:34:12.000Z</time>
      </trkpt>
      <trkpt lat="49.75059" lon="4.80889">
        <ele>217</ele>
        <time>2022-09-28T06:34:13.000Z</time>
      </trkpt>
      <trkpt lat="49.75059" lon="4.8088">
        <ele>217</ele>
        <time>2022-09-28T06:34:14.000Z</time>
      </trkpt>
      <trkpt lat="49.7506" lon="4.80869">
        <ele>217</ele>
        <time>2022-09-28T06:34:15.000Z</time>
      </trkpt>
      <trkpt lat="49.7506" lon="4.80858">
        <ele>217</ele>
        <time>2022-09-28T06:34:16.000Z</time>
      </trkpt>
      <trkpt lat="49.75061" lon="4.80846">
        <ele>217</ele>
        <time>2022-09-28T06:34:17.000Z</time>
      </trkpt>
      <trkpt lat="49.75061" lon="4.80834">
        <ele>216</ele>
        <time>2022-09-28T06:34:18.000Z</time>
      </trkpt>
      <trkpt lat="49.75062" lon="4.80821">
        <ele>216</ele>
        <time>2022-09-28T06:34:19.000Z</time>
      </trkpt>
      <trkpt lat="49.75064" lon="4.80806">
        <ele>216</ele>
        <time>2022-09-28T06:34:20.000Z</time>
      </trkpt>
      <trkpt lat="49.75066" lon="4.80792">
        <ele>215</ele>
        <time>2022-09-28T06:34:21.000Z</time>
      </trkpt>
      <trkpt lat="49.75069" lon="4.80779">
        <ele>215</ele>
        <time>2022-09-28T06:34:22.000Z</time>
      </trkpt>
      <trkpt lat="49.75072" lon="4.80765">
        <ele>215</ele>
        <time>2022-09-28T06:34:23.000Z</time>
      </trkpt>
      <trkpt lat="49.75076" lon="4.80752">
        <ele>214</ele>
        <time>2022-09-28T06:34:24.000Z</time>
      </trkpt>
      <trkpt lat="49.75082" lon="4.80739">
        <ele>214</ele>
        <time>2022-09-28T06:34:25.000Z</time>
      </trkpt>
      <trkpt lat="49.75088" lon="4.80728">
        <ele>213</ele>
        <time>2022-09-28T06:34:26.000Z</time>
      </trkpt>
      <trkpt lat="49.75095" lon="4.80719">
        <ele>212</ele>
        <time>2022-09-28T06:34:27.000Z</time>
      </trkpt>
      <trkpt lat="49.75103" lon="4.80713">
        <ele>212</ele>
        <time>2022-09-28T06:34:28.000Z</time>
      </trkpt>
      <trkpt lat="49.75111" lon="4.80708">
        <ele>211</ele>
        <time>2022-09-28T06:34:29.000Z</time>
      </trkpt>
      <trkpt lat="49.75119" lon="4.80704">
        <ele>210</ele>
        <time>2022-09-28T06:34:30.000Z</time>
      </trkpt>
      <trkpt lat="49.75126" lon="4.807">
        <ele>209</ele>
        <time>2022-09-28T06:34:31.000Z</time>
      </trkpt>
      <trkpt lat="49.75134" lon="4.80697">
        <ele>208</ele>
        <time>2022-09-28T06:34:32.000Z</time>
      </trkpt>
      <trkpt lat="49.75141" lon="4.80695">
        <ele>207</ele>
        <time>2022-09-28T06:34:33.000Z</time>
      </trkpt>
      <trkpt lat="49.75148" lon="4.80696">
        <ele>206</ele>
        <time>2022-09-28T06:34:34.000Z</time>
      </trkpt>
      <trkpt lat="49.75155" lon="4.80696">
        <ele>205</ele>
        <time>2022-09-28T06:34:35.000Z</time>
      </trkpt>
      <trkpt lat="49.75161" lon="4.80695">
        <ele>205</ele>
        <time>2022-09-28T06:34:36.000Z</time>
      </trkpt>
      <trkpt lat="49.75167" lon="4.80695">
        <ele>204</ele>
        <time>2022-09-28T06:34:37.000Z</time>
      </trkpt>
      <trkpt lat="49.75173" lon="4.80695">
        <ele>204</ele>
        <time>2022-09-28T06:34:38.000Z</time>
      </trkpt>
      <trkpt lat="49.75179" lon="4.80695">
        <ele>203</ele>
        <time>2022-09-28T06:34:39.000Z</time>
      </trkpt>
      <trkpt lat="49.75184" lon="4.80694">
        <ele>203</ele>
        <time>2022-09-28T06:34:40.000Z</time>
      </trkpt>
      <trkpt lat="49.7519" lon="4.80694">
        <ele>203</ele>
        <time>2022-09-28T06:34:41.000Z</time>
      </trkpt>
      <trkpt lat="49.75195" lon="4.80694">
        <ele>203</ele>
        <time>2022-09-28T06:34:42.000Z</time>
      </trkpt>
      <trkpt lat="49.752" lon="4.80694">
        <ele>202</ele>
        <time>2022-09-28T06:34:43.000Z</time>
      </trkpt>
      <trkpt lat="49.75206" lon="4.80693">
        <ele>202</ele>
        <time>2022-09-28T06:34:44.000Z</time>
      </trkpt>
      <trkpt lat="49.75211" lon="4.80693">
        <ele>202</ele>
        <time>2022-09-28T06:34:45.000Z</time>
      </trkpt>
      <trkpt lat="49.75216" lon="4.80693">
        <ele>202</ele>
        <time>2022-09-28T06:34:46.000Z</time>
      </trkpt>
      <trkpt lat="49.75221" lon="4.80693">
        <ele>202</ele>
        <time>2022-09-28T06:34:47.000Z</time>
      </trkpt>
      <trkpt lat="49.75226" lon="4.80693">
        <ele>202</ele>
        <time>2022-09-28T06:34:48.000Z</time>
      </trkpt>
      <trkpt lat="49.7523" lon="4.80694">
        <ele>202</ele>
        <time>2022-09-28T06:34:49.000Z</time>
      </trkpt>
      <trkpt lat="49.75234" lon="4.80696">
        <ele>202</ele>
        <time>2022-09-28T06:34:50.000Z</time>
      </trkpt>
      <trkpt lat="49.75239" lon="4.80698">
        <ele>202</ele>
        <time>2022-09-28T06:34:51.000Z</time>
      </trkpt>
      <trkpt lat="49.75243" lon="4.807">
        <ele>202</ele>
        <time>2022-09-28T06:34:52.000Z</time>
      </trkpt>
      <trkpt lat="49.75247" lon="4.80701">
        <ele>202</ele>
        <time>2022-09-28T06:34:53.000Z</time>
      </trkpt>
      <trkpt lat="49.75251" lon="4.80702">
        <ele>202</ele>
        <time>2022-09-28T06:34:54.000Z</time>
      </trkpt>
      <trkpt lat="49.75255" lon="4.80702">
        <ele>202</ele>
        <time>2022-09-28T06:34:55.000Z</time>
      </trkpt>
      <trkpt lat="49.75258" lon="4.80702">
        <ele>202</ele>
        <time>2022-09-28T06:34:56.000Z</time>
      </trkpt>
      <trkpt lat="49.75262" lon="4.80701">
        <ele>202</ele>
        <time>2022-09-28T06:34:57.000Z</time>
      </trkpt>
      <trkpt lat="49.75265" lon="4.80699">
        <ele>202</ele>
        <time>2022-09-28T06:34:58.000Z</time>
      </trkpt>
      <trkpt lat="49.75268" lon="4.80698">
        <ele>202</ele>
        <time>2022-09-28T06:34:59.000Z</time>
      </trkpt>
      <trkpt lat="49.75271" lon="4.80695">
        <ele>202</ele>
        <time>2022-09-28T06:35:00.000Z</time>
      </trkpt>
      <trkpt lat="49.75274" lon="4.80693">
        <ele>202</ele>
        <time>2022-09-28T06:35:01.000Z</time>
      </trkpt>
      <trkpt lat="49.75277" lon="4.8069">
        <ele>202</ele>
        <time>2022-09-28T06:35:02.000Z</time>
      </trkpt>
      <trkpt lat="49.75281" lon="4.80688">
        <ele>202</ele>
        <time>2022-09-28T06:35:03.000Z</time>
      </trkpt>
      <trkpt lat="49.75284" lon="4.80686">
        <ele>202</ele>
        <time>2022-09-28T06:35:04.000Z</time>
      </trkpt>
      <trkpt lat="49.75287" lon="4.80683">
        <ele>203</ele>
        <time>2022-09-28T06:35:05.000Z</time>
      </trkpt>
      <trkpt lat="49.75291" lon="4.80681">
        <ele>203</ele>
        <time>2022-09-28T06:35:06.000Z</time>
      </trkpt>
      <trkpt lat="49.75294" lon="4.80679">
        <ele>203</ele>
        <time>2022-09-28T06:35:07.000Z</time>
      </trkpt>
      <trkpt lat="49.75297" lon="4.80677">
        <ele>203</ele>
        <time>2022-09-28T06:35:08.000Z</time>
      </trkpt>
      <trkpt lat="49.753" lon="4.80675">
        <ele>203</ele>
        <time>2022-09-28T06:35:09.000Z</time>
      </trkpt>
      <trkpt lat="49.75302" lon="4.80673">
        <ele>203</ele>
        <time>2022-09-28T06:35:10.000Z</time>
      </trkpt>
      <trkpt lat="49.75305" lon="4.80671">
        <ele>203</ele>
        <time>2022-09-28T06:35:11.000Z</time>
      </trkpt>
      <trkpt lat="49.75307" lon="4.80671">
        <ele>203</ele>
        <time>2022-09-28T06:35:12.000Z</time>
      </trkpt>
      <trkpt lat="49.7531" lon="4.8067">
        <ele>203</ele>
        <time>2022-09-28T06:35:13.000Z</time>
      </trkpt>
      <trkpt lat="49.75313" lon="4.8067">
        <ele>203</ele>
        <time>2022-09-28T06:35:14.000Z</time>
      </trkpt>
      <trkpt lat="49.75315" lon="4.8067">
        <ele>203</ele>
        <time>2022-09-28T06:35:15.000Z</time>
      </trkpt>
      <trkpt lat="49.75318" lon="4.8067">
        <ele>204</ele>
        <time>2022-09-28T06:35:16.000Z</time>
      </trkpt>
      <trkpt lat="49.75321" lon="4.8067">
        <ele>204</ele>
        <time>2022-09-28T06:35:17.000Z</time>
      </trkpt>
      <trkpt lat="49.75323" lon="4.8067">
        <ele>204</ele>
        <time>2022-09-28T06:35:18.000Z</time>
      </trkpt>
      <trkpt lat="49.75326" lon="4.8067">
        <ele>204</ele>
        <time>2022-09-28T06:35:19.000Z</time>
      </trkpt>
      <trkpt lat="49.75329" lon="4.80672">
        <ele>204</ele>
        <time>2022-09-28T06:35:20.000Z</time>
      </trkpt>
      <trkpt lat="49.75332" lon="4.80672">
        <ele>205</ele>
        <time>2022-09-28T06:35:21.000Z</time>
      </trkpt>
      <trkpt lat="49.75335" lon="4.80674">
        <ele>205</ele>
        <time>2022-09-28T06:35:22.000Z</time>
      </trkpt>
      <trkpt lat="49.75338" lon="4.80675">
        <ele>205</ele>
        <time>2022-09-28T06:35:23.000Z</time>
      </trkpt>
      <trkpt lat="49.75342" lon="4.80676">
        <ele>205</ele>
        <time>2022-09-28T06:35:24.000Z</time>
      </trkpt>
      <trkpt lat="49.75345" lon="4.80677">
        <ele>206</ele>
        <time>2022-09-28T06:35:25.000Z</time>
      </trkpt>
      <trkpt lat="49.75347" lon="4.80678">
        <ele>206</ele>
        <time>2022-09-28T06:35:26.000Z</time>
      </trkpt>
      <trkpt lat="49.7535" lon="4.80679">
        <ele>206</ele>
        <time>2022-09-28T06:35:27.000Z</time>
      </trkpt>
      <trkpt lat="49.75353" lon="4.8068">
        <ele>207</ele>
        <time>2022-09-28T06:35:28.000Z</time>
      </trkpt>
      <trkpt lat="49.75356" lon="4.80681">
        <ele>207</ele>
        <time>2022-09-28T06:35:29.000Z</time>
      </trkpt>
      <trkpt lat="49.75359" lon="4.80682">
        <ele>207</ele>
        <time>2022-09-28T06:35:30.000Z</time>
      </trkpt>
      <trkpt lat="49.75362" lon="4.80683">
        <ele>208</ele>
        <time>2022-09-28T06:35:31.000Z</time>
      </trkpt>
      <trkpt lat="49.75364" lon="4.80684">
        <ele>208</ele>
        <time>2022-09-28T06:35:32.000Z</time>
      </trkpt>
      <trkpt lat="49.75367" lon="4.80686">
        <ele>208</ele>
        <time>2022-09-28T06:35:33.000Z</time>
      </trkpt>
      <trkpt lat="49.7537" lon="4.80686">
        <ele>209</ele>
        <time>2022-09-28T06:35:34.000Z</time>
      </trkpt>
      <trkpt lat="49.75373" lon="4.80687">
        <ele>209</ele>
        <time>2022-09-28T06:35:35.000Z</time>
      </trkpt>
      <trkpt lat="49.75376" lon="4.80688">
        <ele>209</ele>
        <time>2022-09-28T06:35:36.000Z</time>
      </trkpt>
      <trkpt lat="49.75378" lon="4.80688">
        <ele>209</ele>
        <time>2022-09-28T06:35:37.000Z</time>
      </trkpt>
      <trkpt lat="49.75379" lon="4.80688">
        <ele>210</ele>
        <time>2022-09-28T06:35:38.000Z</time>
      </trkpt>
      <trkpt lat="49.75381" lon="4.80689">
        <ele>210</ele>
        <time>2022-09-28T06:35:39.000Z</time>
      </trkpt>
      <trkpt lat="49.75383" lon="4.8069">
        <ele>210</ele>
        <time>2022-09-28T06:35:40.000Z</time>
      </trkpt>
      <trkpt lat="49.75386" lon="4.8069">
        <ele>211</ele>
        <time>2022-09-28T06:35:41.000Z</time>
      </trkpt>
      <trkpt lat="49.75388" lon="4.8069">
        <ele>211</ele>
        <time>2022-09-28T06:35:42.000Z</time>
      </trkpt>
      <trkpt lat="49.7539" lon="4.80692">
        <ele>211</ele>
        <time>2022-09-28T06:35:43.000Z</time>
      </trkpt>
      <trkpt lat="49.75393" lon="4.80692">
        <ele>212</ele>
        <time>2022-09-28T06:35:44.000Z</time>
      </trkpt>
      <trkpt lat="49.75395" lon="4.80693">
        <ele>212</ele>
        <time>2022-09-28T06:35:45.000Z</time>
      </trkpt>
      <trkpt lat="49.75397" lon="4.80694">
        <ele>212</ele>
        <time>2022-09-28T06:35:46.000Z</time>
      </trkpt>
      <trkpt lat="49.754" lon="4.80695">
        <ele>213</ele>
        <time>2022-09-28T06:35:47.000Z</time>
      </trkpt>
      <trkpt lat="49.75402" lon="4.80695">
        <ele>213</ele>
        <time>2022-09-28T06:35:48.000Z</time>
      </trkpt>
      <trkpt lat="49.75405" lon="4.80696">
        <ele>213</ele>
        <time>2022-09-28T06:35:49.000Z</time>
      </trkpt>
      <trkpt lat="49.75407" lon="4.80697">
        <ele>214</ele>
        <time>2022-09-28T06:35:50.000Z</time>
      </trkpt>
      <trkpt lat="49.75409" lon="4.80698">
        <ele>214</ele>
        <time>2022-09-28T06:35:51.000Z</time>
      </trkpt>
      <trkpt lat="49.75412" lon="4.80699">
        <ele>214</ele>
        <time>2022-09-28T06:35:52.000Z</time>
      </trkpt>
      <trkpt lat="49.75414" lon="4.807">
        <ele>214</ele>
        <time>2022-09-28T06:35:53.000Z</time>
      </trkpt>
      <trkpt lat="49.75417" lon="4.80702">
        <ele>215</ele>
        <time>2022-09-28T06:35:54.000Z</time>
      </trkpt>
      <trkpt lat="49.7542" lon="4.80703">
        <ele>215</ele>
        <time>2022-09-28T06:35:55.000Z</time>
      </trkpt>
      <trkpt lat="49.75422" lon="4.80704">
        <ele>215</ele>
        <time>2022-09-28T06:35:56.000Z</time>
      </trkpt>
      <trkpt lat="49.75425" lon="4.80706">
        <ele>216</ele>
        <time>2022-09-28T06:35:57.000Z</time>
      </trkpt>
      <trkpt lat="49.75428" lon="4.80708">
        <ele>216</ele>
        <time>2022-09-28T06:35:58.000Z</time>
      </trkpt>
      <trkpt lat="49.75432" lon="4.8071">
        <ele>216</ele>
        <time>2022-09-28T06:35:59.000Z</time>
      </trkpt>
      <trkpt lat="49.75435" lon="4.80713">
        <ele>216</ele>
        <time>2022-09-28T06:36:00.000Z</time>
      </trkpt>
      <trkpt lat="49.75439" lon="4.80715">
        <ele>217</ele>
        <time>2022-09-28T06:36:01.000Z</time>
      </trkpt>
      <trkpt lat="49.75442" lon="4.80717">
        <ele>217</ele>
        <time>2022-09-28T06:36:02.000Z</time>
      </trkpt>
      <trkpt lat="49.75445" lon="4.80719">
        <ele>217</ele>
        <time>2022-09-28T06:36:03.000Z</time>
      </trkpt>
      <trkpt lat="49.75449" lon="4.80722">
        <ele>217</ele>
        <time>2022-09-28T06:36:04.000Z</time>
      </trkpt>
      <trkpt lat="49.75452" lon="4.80724">
        <ele>218</ele>
        <time>2022-09-28T06:36:05.000Z</time>
      </trkpt>
      <trkpt lat="49.75454" lon="4.80727">
        <ele>218</ele>
        <time>2022-09-28T06:36:06.000Z</time>
      </trkpt>
      <trkpt lat="49.75457" lon="4.80729">
        <ele>218</ele>
        <time>2022-09-28T06:36:07.000Z</time>
      </trkpt>
      <trkpt lat="49.7546" lon="4.80731">
        <ele>218</ele>
        <time>2022-09-28T06:36:08.000Z</time>
      </trkpt>
      <trkpt lat="49.75462" lon="4.80733">
        <ele>219</ele>
        <time>2022-09-28T06:36:09.000Z</time>
      </trkpt>
      <trkpt lat="49.75465" lon="4.80734">
        <ele>219</ele>
        <time>2022-09-28T06:36:10.000Z</time>
      </trkpt>
      <trkpt lat="49.75468" lon="4.80736">
        <ele>219</ele>
        <time>2022-09-28T06:36:11.000Z</time>
      </trkpt>
      <trkpt lat="49.75471" lon="4.80737">
        <ele>219</ele>
        <time>2022-09-28T06:36:12.000Z</time>
      </trkpt>
      <trkpt lat="49.75473" lon="4.80739">
        <ele>219</ele>
        <time>2022-09-28T06:36:13.000Z</time>
      </trkpt>
      <trkpt lat="49.75476" lon="4.8074">
        <ele>219</ele>
        <time>2022-09-28T06:36:14.000Z</time>
      </trkpt>
      <trkpt lat="49.75479" lon="4.80743">
        <ele>220</ele>
        <time>2022-09-28T06:36:15.000Z</time>
      </trkpt>
      <trkpt lat="49.75481" lon="4.80745">
        <ele>220</ele>
        <time>2022-09-28T06:36:16.000Z</time>
      </trkpt>
      <trkpt lat="49.75484" lon="4.80748">
        <ele>220</ele>
        <time>2022-09-28T06:36:17.000Z</time>
      </trkpt>
      <trkpt lat="49.75486" lon="4.80752">
        <ele>220</ele>
        <time>2022-09-28T06:36:18.000Z</time>
      </trkpt>
      <trkpt lat="49.75488" lon="4.80755">
        <ele>220</ele>
        <time>2022-09-28T06:36:19.000Z</time>
      </trkpt>
      <trkpt lat="49.75492" lon="4.80757">
        <ele>220</ele>
        <time>2022-09-28T06:36:20.000Z</time>
      </trkpt>
      <trkpt lat="49.75494" lon="4.8076">
        <ele>220</ele>
        <time>2022-09-28T06:36:21.000Z</time>
      </trkpt>
      <trkpt lat="49.75498" lon="4.80762">
        <ele>220</ele>
        <time>2022-09-28T06:36:22.000Z</time>
      </trkpt>
      <trkpt lat="49.75501" lon="4.80764">
        <ele>221</ele>
        <time>2022-09-28T06:36:23.000Z</time>
      </trkpt>
      <trkpt lat="49.75503" lon="4.80767">
        <ele>221</ele>
        <time>2022-09-28T06:36:24.000Z</time>
      </trkpt>
      <trkpt lat="49.75506" lon="4.8077">
        <ele>221</ele>
        <time>2022-09-28T06:36:25.000Z</time>
      </trkpt>
      <trkpt lat="49.75508" lon="4.80771">
        <ele>221</ele>
        <time>2022-09-28T06:36:26.000Z</time>
      </trkpt>
      <trkpt lat="49.75511" lon="4.80773">
        <ele>221</ele>
        <time>2022-09-28T06:36:27.000Z</time>
      </trkpt>
      <trkpt lat="49.75513" lon="4.80773">
        <ele>221</ele>
        <time>2022-09-28T06:36:28.000Z</time>
      </trkpt>
      <trkpt lat="49.75516" lon="4.80774">
        <ele>221</ele>
        <time>2022-09-28T06:36:29.000Z</time>
      </trkpt>
      <trkpt lat="49.75518" lon="4.80776">
        <ele>221</ele>
        <time>2022-09-28T06:36:30.000Z</time>
      </trkpt>
      <trkpt lat="49.7552" lon="4.80778">
        <ele>221</ele>
        <time>2022-09-28T06:36:31.000Z</time>
      </trkpt>
      <trkpt lat="49.75522" lon="4.80781">
        <ele>221</ele>
        <time>2022-09-28T06:36:32.000Z</time>
      </trkpt>
      <trkpt lat="49.75525" lon="4.80784">
        <ele>221</ele>
        <time>2022-09-28T06:36:33.000Z</time>
      </trkpt>
      <trkpt lat="49.75528" lon="4.80787">
        <ele>221</ele>
        <time>2022-09-28T06:36:34.000Z</time>
      </trkpt>
      <trkpt lat="49.7553" lon="4.8079">
        <ele>222</ele>
        <time>2022-09-28T06:36:35.000Z</time>
      </trkpt>
      <trkpt lat="49.75532" lon="4.80792">
        <ele>222</ele>
        <time>2022-09-28T06:36:36.000Z</time>
      </trkpt>
      <trkpt lat="49.75535" lon="4.80795">
        <ele>222</ele>
        <time>2022-09-28T06:36:37.000Z</time>
      </trkpt>
      <trkpt lat="49.75538" lon="4.80797">
        <ele>222</ele>
        <time>2022-09-28T06:36:38.000Z</time>
      </trkpt>
      <trkpt lat="49.7554" lon="4.80799">
        <ele>222</ele>
        <time>2022-09-28T06:36:39.000Z</time>
      </trkpt>
      <trkpt lat="49.75543" lon="4.80802">
        <ele>222</ele>
        <time>2022-09-28T06:36:40.000Z</time>
      </trkpt>
      <trkpt lat="49.75546" lon="4.80805">
        <ele>223</ele>
        <time>2022-09-28T06:36:41.000Z</time>
      </trkpt>
      <trkpt lat="49.75548" lon="4.80808">
        <ele>223</ele>
        <time>2022-09-28T06:36:42.000Z</time>
      </trkpt>
      <trkpt lat="49.7555" lon="4.8081">
        <ele>223</ele>
        <time>2022-09-28T06:36:43.000Z</time>
      </trkpt>
      <trkpt lat="49.75552" lon="4.80813">
        <ele>223</ele>
        <time>2022-09-28T06:36:44.000Z</time>
      </trkpt>
      <trkpt lat="49.75555" lon="4.80815">
        <ele>223</ele>
        <time>2022-09-28T06:36:45.000Z</time>
      </trkpt>
      <trkpt lat="49.75557" lon="4.80818">
        <ele>223</ele>
        <time>2022-09-28T06:36:46.000Z</time>
      </trkpt>
      <trkpt lat="49.75559" lon="4.8082">
        <ele>224</ele>
        <time>2022-09-28T06:36:47.000Z</time>
      </trkpt>
      <trkpt lat="49.75561" lon="4.80822">
        <ele>224</ele>
        <time>2022-09-28T06:36:48.000Z</time>
      </trkpt>
      <trkpt lat="49.75563" lon="4.80824">
        <ele>224</ele>
        <time>2022-09-28T06:36:49.000Z</time>
      </trkpt>
      <trkpt lat="49.75565" lon="4.80827">
        <ele>224</ele>
        <time>2022-09-28T06:36:50.000Z</time>
      </trkpt>
      <trkpt lat="49.75568" lon="4.80829">
        <ele>224</ele>
        <time>2022-09-28T06:36:51.000Z</time>
      </trkpt>
      <trkpt lat="49.75569" lon="4.8083">
        <ele>224</ele>
        <time>2022-09-28T06:36:52.000Z</time>
      </trkpt>
      <trkpt lat="49.75571" lon="4.80831">
        <ele>224</ele>
        <time>2022-09-28T06:36:53.000Z</time>
      </trkpt>
      <trkpt lat="49.75573" lon="4.80832">
        <ele>224</ele>
        <time>2022-09-28T06:36:54.000Z</time>
      </trkpt>
      <trkpt lat="49.75575" lon="4.80833">
        <ele>224</ele>
        <time>2022-09-28T06:36:55.000Z</time>
      </trkpt>
      <trkpt lat="49.75577" lon="4.80834">
        <ele>224</ele>
        <time>2022-09-28T06:36:56.000Z</time>
      </trkpt>
      <trkpt lat="49.7558" lon="4.80835">
        <ele>225</ele>
        <time>2022-09-28T06:36:57.000Z</time>
      </trkpt>
      <trkpt lat="49.75583" lon="4.80837">
        <ele>225</ele>
        <time>2022-09-28T06:36:58.000Z</time>
      </trkpt>
      <trkpt lat="49.75585" lon="4.80837">
        <ele>225</ele>
        <time>2022-09-28T06:36:59.000Z</time>
      </trkpt>
      <trkpt lat="49.75589" lon="4.80838">
        <ele>225</ele>
        <time>2022-09-28T06:37:00.000Z</time>
      </trkpt>
      <trkpt lat="49.75592" lon="4.80839">
        <ele>225</ele>
        <time>2022-09-28T06:37:01.000Z</time>
      </trkpt>
      <trkpt lat="49.75595" lon="4.80841">
        <ele>225</ele>
        <time>2022-09-28T06:37:02.000Z</time>
      </trkpt>
      <trkpt lat="49.75598" lon="4.80842">
        <ele>226</ele>
        <time>2022-09-28T06:37:03.000Z</time>
      </trkpt>
      <trkpt lat="49.756" lon="4.80843">
        <ele>226</ele>
        <time>2022-09-28T06:37:04.000Z</time>
      </trkpt>
      <trkpt lat="49.75603" lon="4.80845">
        <ele>226</ele>
        <time>2022-09-28T06:37:05.000Z</time>
      </trkpt>
      <trkpt lat="49.75606" lon="4.80847">
        <ele>226</ele>
        <time>2022-09-28T06:37:06.000Z</time>
      </trkpt>
      <trkpt lat="49.7561" lon="4.80848">
        <ele>227</ele>
        <time>2022-09-28T06:37:07.000Z</time>
      </trkpt>
      <trkpt lat="49.75613" lon="4.80849">
        <ele>227</ele>
        <time>2022-09-28T06:37:08.000Z</time>
      </trkpt>
      <trkpt lat="49.75615" lon="4.80851">
        <ele>227</ele>
        <time>2022-09-28T06:37:09.000Z</time>
      </trkpt>
      <trkpt lat="49.75618" lon="4.80853">
        <ele>228</ele>
        <time>2022-09-28T06:37:10.000Z</time>
      </trkpt>
      <trkpt lat="49.75622" lon="4.80855">
        <ele>228</ele>
        <time>2022-09-28T06:37:11.000Z</time>
      </trkpt>
      <trkpt lat="49.75624" lon="4.80857">
        <ele>228</ele>
        <time>2022-09-28T06:37:12.000Z</time>
      </trkpt>
      <trkpt lat="49.75627" lon="4.80858">
        <ele>228</ele>
        <time>2022-09-28T06:37:13.000Z</time>
      </trkpt>
      <trkpt lat="49.7563" lon="4.80859">
        <ele>228</ele>
        <time>2022-09-28T06:37:14.000Z</time>
      </trkpt>
      <trkpt lat="49.75633" lon="4.80861">
        <ele>229</ele>
        <time>2022-09-28T06:37:15.000Z</time>
      </trkpt>
      <trkpt lat="49.75637" lon="4.80862">
        <ele>229</ele>
        <time>2022-09-28T06:37:16.000Z</time>
      </trkpt>
      <trkpt lat="49.75641" lon="4.80864">
        <ele>229</ele>
        <time>2022-09-28T06:37:17.000Z</time>
      </trkpt>
      <trkpt lat="49.75644" lon="4.80865">
        <ele>229</ele>
        <time>2022-09-28T06:37:18.000Z</time>
      </trkpt>
      <trkpt lat="49.75647" lon="4.80867">
        <ele>229</ele>
        <time>2022-09-28T06:37:19.000Z</time>
      </trkpt>
      <trkpt lat="49.7565" lon="4.80868">
        <ele>229</ele>
        <time>2022-09-28T06:37:20.000Z</time>
      </trkpt>
      <trkpt lat="49.75653" lon="4.80869">
        <ele>230</ele>
        <time>2022-09-28T06:37:21.000Z</time>
      </trkpt>
      <trkpt lat="49.75657" lon="4.8087">
        <ele>230</ele>
        <time>2022-09-28T06:37:22.000Z</time>
      </trkpt>
      <trkpt lat="49.7566" lon="4.80871">
        <ele>230</ele>
        <time>2022-09-28T06:37:23.000Z</time>
      </trkpt>
      <trkpt lat="49.75663" lon="4.80872">
        <ele>231</ele>
        <time>2022-09-28T06:37:24.000Z</time>
      </trkpt>
      <trkpt lat="49.75666" lon="4.80873">
        <ele>231</ele>
        <time>2022-09-28T06:37:25.000Z</time>
      </trkpt>
      <trkpt lat="49.7567" lon="4.80874">
        <ele>231</ele>
        <time>2022-09-28T06:37:26.000Z</time>
      </trkpt>
      <trkpt lat="49.75673" lon="4.80875">
        <ele>231</ele>
        <time>2022-09-28T06:37:27.000Z</time>
      </trkpt>
      <trkpt lat="49.75675" lon="4.80876">
        <ele>231</ele>
        <time>2022-09-28T06:37:28.000Z</time>
      </trkpt>
      <trkpt lat="49.75678" lon="4.80877">
        <ele>231</ele>
        <time>2022-09-28T06:37:29.000Z</time>
      </trkpt>
      <trkpt lat="49.75681" lon="4.80878">
        <ele>232</ele>
        <time>2022-09-28T06:37:30.000Z</time>
      </trkpt>
      <trkpt lat="49.75684" lon="4.80879">
        <ele>232</ele>
        <time>2022-09-28T06:37:31.000Z</time>
      </trkpt>
      <trkpt lat="49.75688" lon="4.8088">
        <ele>232</ele>
        <time>2022-09-28T06:37:32.000Z</time>
      </trkpt>
      <trkpt lat="49.75691" lon="4.80882">
        <ele>232</ele>
        <time>2022-09-28T06:37:33.000Z</time>
      </trkpt>
      <trkpt lat="49.75694" lon="4.80883">
        <ele>232</ele>
        <time>2022-09-28T06:37:34.000Z</time>
      </trkpt>
      <trkpt lat="49.75697" lon="4.80885">
        <ele>232</ele>
        <time>2022-09-28T06:37:35.000Z</time>
      </trkpt>
      <trkpt lat="49.757" lon="4.80886">
        <ele>232</ele>
        <time>2022-09-28T06:37:36.000Z</time>
      </trkpt>
      <trkpt lat="49.75703" lon="4.80887">
        <ele>232</ele>
        <time>2022-09-28T06:37:37.000Z</time>
      </trkpt>
      <trkpt lat="49.75705" lon="4.80888">
        <ele>233</ele>
        <time>2022-09-28T06:37:38.000Z</time>
      </trkpt>
      <trkpt lat="49.75707" lon="4.80889">
        <ele>233</ele>
        <time>2022-09-28T06:37:39.000Z</time>
      </trkpt>
      <trkpt lat="49.75711" lon="4.8089">
        <ele>233</ele>
        <time>2022-09-28T06:37:40.000Z</time>
      </trkpt>
      <trkpt lat="49.75714" lon="4.8089">
        <ele>233</ele>
        <time>2022-09-28T06:37:41.000Z</time>
      </trkpt>
      <trkpt lat="49.75717" lon="4.8089">
        <ele>233</ele>
        <time>2022-09-28T06:37:42.000Z</time>
      </trkpt>
      <trkpt lat="49.7572" lon="4.8089">
        <ele>234</ele>
        <time>2022-09-28T06:37:43.000Z</time>
      </trkpt>
      <trkpt lat="49.75722" lon="4.80891">
        <ele>234</ele>
        <time>2022-09-28T06:37:44.000Z</time>
      </trkpt>
      <trkpt lat="49.75725" lon="4.80892">
        <ele>234</ele>
        <time>2022-09-28T06:37:45.000Z</time>
      </trkpt>
      <trkpt lat="49.75728" lon="4.80892">
        <ele>234</ele>
        <time>2022-09-28T06:37:46.000Z</time>
      </trkpt>
      <trkpt lat="49.75732" lon="4.80893">
        <ele>234</ele>
        <time>2022-09-28T06:37:47.000Z</time>
      </trkpt>
      <trkpt lat="49.75735" lon="4.80893">
        <ele>235</ele>
        <time>2022-09-28T06:37:48.000Z</time>
      </trkpt>
      <trkpt lat="49.75738" lon="4.80894">
        <ele>235</ele>
        <time>2022-09-28T06:37:49.000Z</time>
      </trkpt>
      <trkpt lat="49.75741" lon="4.80895">
        <ele>235</ele>
        <time>2022-09-28T06:37:50.000Z</time>
      </trkpt>
      <trkpt lat="49.75744" lon="4.80895">
        <ele>235</ele>
        <time>2022-09-28T06:37:51.000Z</time>
      </trkpt>
      <trkpt lat="49.75747" lon="4.80895">
        <ele>236</ele>
        <time>2022-09-28T06:37:52.000Z</time>
      </trkpt>
      <trkpt lat="49.75749" lon="4.80895">
        <ele>236</ele>
        <time>2022-09-28T06:37:53.000Z</time>
      </trkpt>
      <trkpt lat="49.75752" lon="4.80895">
        <ele>236</ele>
        <time>2022-09-28T06:37:54.000Z</time>
      </trkpt>
      <trkpt lat="49.75755" lon="4.80896">
        <ele>236</ele>
        <time>2022-09-28T06:37:55.000Z</time>
      </trkpt>
      <trkpt lat="49.75759" lon="4.80897">
        <ele>237</ele>
        <time>2022-09-28T06:37:56.000Z</time>
      </trkpt>
      <trkpt lat="49.75761" lon="4.80897">
        <ele>237</ele>
        <time>2022-09-28T06:37:57.000Z</time>
      </trkpt>
      <trkpt lat="49.75765" lon="4.80898">
        <ele>237</ele>
        <time>2022-09-28T06:37:58.000Z</time>
      </trkpt>
      <trkpt lat="49.75768" lon="4.80898">
        <ele>238</ele>
        <time>2022-09-28T06:37:59.000Z</time>
      </trkpt>
      <trkpt lat="49.75771" lon="4.80898">
        <ele>238</ele>
        <time>2022-09-28T06:38:00.000Z</time>
      </trkpt>
      <trkpt lat="49.75773" lon="4.80899">
        <ele>238</ele>
        <time>2022-09-28T06:38:01.000Z</time>
      </trkpt>
      <trkpt lat="49.75776" lon="4.80899">
        <ele>238</ele>
        <time>2022-09-28T06:38:02.000Z</time>
      </trkpt>
      <trkpt lat="49.75779" lon="4.809">
        <ele>239</ele>
        <time>2022-09-28T06:38:03.000Z</time>
      </trkpt>
      <trkpt lat="49.75783" lon="4.809">
        <ele>239</ele>
        <time>2022-09-28T06:38:04.000Z</time>
      </trkpt>
      <trkpt lat="49.75786" lon="4.80901">
        <ele>239</ele>
        <time>2022-09-28T06:38:05.000Z</time>
      </trkpt>
      <trkpt lat="49.75789" lon="4.80902">
        <ele>239</ele>
        <time>2022-09-28T06:38:06.000Z</time>
      </trkpt>
      <trkpt lat="49.75791" lon="4.80902">
        <ele>239</ele>
        <time>2022-09-28T06:38:07.000Z</time>
      </trkpt>
      <trkpt lat="49.75794" lon="4.80903">
        <ele>239</ele>
        <time>2022-09-28T06:38:08.000Z</time>
      </trkpt>
      <trkpt lat="49.75798" lon="4.80904">
        <ele>239</ele>
        <time>2022-09-28T06:38:09.000Z</time>
      </trkpt>
      <trkpt lat="49.758" lon="4.80905">
        <ele>240</ele>
        <time>2022-09-28T06:38:10.000Z</time>
      </trkpt>
      <trkpt lat="49.75803" lon="4.80906">
        <ele>240</ele>
        <time>2022-09-28T06:38:11.000Z</time>
      </trkpt>
      <trkpt lat="49.75806" lon="4.80907">
        <ele>240</ele>
        <time>2022-09-28T06:38:12.000Z</time>
      </trkpt>
      <trkpt lat="49.75809" lon="4.80908">
        <ele>240</ele>
        <time>2022-09-28T06:38:13.000Z</time>
      </trkpt>
      <trkpt lat="49.75811" lon="4.8091">
        <ele>240</ele>
        <time>2022-09-28T06:38:14.000Z</time>
      </trkpt>
      <trkpt lat="49.75814" lon="4.80912">
        <ele>240</ele>
        <time>2022-09-28T06:38:15.000Z</time>
      </trkpt>
      <trkpt lat="49.75817" lon="4.80912">
        <ele>240</ele>
        <time>2022-09-28T06:38:16.000Z</time>
      </trkpt>
      <trkpt lat="49.7582" lon="4.80914">
        <ele>240</ele>
        <time>2022-09-28T06:38:17.000Z</time>
      </trkpt>
      <trkpt lat="49.75822" lon="4.80915">
        <ele>240</ele>
        <time>2022-09-28T06:38:18.000Z</time>
      </trkpt>
      <trkpt lat="49.75825" lon="4.80917">
        <ele>240</ele>
        <time>2022-09-28T06:38:19.000Z</time>
      </trkpt>
      <trkpt lat="49.75828" lon="4.80919">
        <ele>240</ele>
        <time>2022-09-28T06:38:20.000Z</time>
      </trkpt>
      <trkpt lat="49.75831" lon="4.80922">
        <ele>240</ele>
        <time>2022-09-28T06:38:21.000Z</time>
      </trkpt>
      <trkpt lat="49.75833" lon="4.80924">
        <ele>241</ele>
        <time>2022-09-28T06:38:22.000Z</time>
      </trkpt>
      <trkpt lat="49.75836" lon="4.80926">
        <ele>241</ele>
        <time>2022-09-28T06:38:23.000Z</time>
      </trkpt>
      <trkpt lat="49.75839" lon="4.80928">
        <ele>241</ele>
        <time>2022-09-28T06:38:24.000Z</time>
      </trkpt>
      <trkpt lat="49.75841" lon="4.8093">
        <ele>241</ele>
        <time>2022-09-28T06:38:25.000Z</time>
      </trkpt>
      <trkpt lat="49.75844" lon="4.80932">
        <ele>241</ele>
        <time>2022-09-28T06:38:26.000Z</time>
      </trkpt>
      <trkpt lat="49.75846" lon="4.80935">
        <ele>241</ele>
        <time>2022-09-28T06:38:27.000Z</time>
      </trkpt>
      <trkpt lat="49.75849" lon="4.80938">
        <ele>241</ele>
        <time>2022-09-28T06:38:28.000Z</time>
      </trkpt>
      <trkpt lat="49.75851" lon="4.80941">
        <ele>241</ele>
        <time>2022-09-28T06:38:29.000Z</time>
      </trkpt>
      <trkpt lat="49.75853" lon="4.80945">
        <ele>241</ele>
        <time>2022-09-28T06:38:30.000Z</time>
      </trkpt>
      <trkpt lat="49.75856" lon="4.80947">
        <ele>241</ele>
        <time>2022-09-28T06:38:31.000Z</time>
      </trkpt>
      <trkpt lat="49.75859" lon="4.8095">
        <ele>241</ele>
        <time>2022-09-28T06:38:32.000Z</time>
      </trkpt>
      <trkpt lat="49.75862" lon="4.80952">
        <ele>241</ele>
        <time>2022-09-28T06:38:33.000Z</time>
      </trkpt>
      <trkpt lat="49.75865" lon="4.80955">
        <ele>241</ele>
        <time>2022-09-28T06:38:34.000Z</time>
      </trkpt>
      <trkpt lat="49.75867" lon="4.80957">
        <ele>241</ele>
        <time>2022-09-28T06:38:35.000Z</time>
      </trkpt>
      <trkpt lat="49.7587" lon="4.80959">
        <ele>241</ele>
        <time>2022-09-28T06:38:36.000Z</time>
      </trkpt>
      <trkpt lat="49.75872" lon="4.80961">
        <ele>241</ele>
        <time>2022-09-28T06:38:37.000Z</time>
      </trkpt>
      <trkpt lat="49.75874" lon="4.80964">
        <ele>241</ele>
        <time>2022-09-28T06:38:38.000Z</time>
      </trkpt>
      <trkpt lat="49.75876" lon="4.80966">
        <ele>241</ele>
        <time>2022-09-28T06:38:39.000Z</time>
      </trkpt>
      <trkpt lat="49.75877" lon="4.80968">
        <ele>241</ele>
        <time>2022-09-28T06:38:40.000Z</time>
      </trkpt>
      <trkpt lat="49.7588" lon="4.80971">
        <ele>241</ele>
        <time>2022-09-28T06:38:41.000Z</time>
      </trkpt>
      <trkpt lat="49.75882" lon="4.80974">
        <ele>241</ele>
        <time>2022-09-28T06:38:42.000Z</time>
      </trkpt>
      <trkpt lat="49.75884" lon="4.80976">
        <ele>241</ele>
        <time>2022-09-28T06:38:43.000Z</time>
      </trkpt>
      <trkpt lat="49.75887" lon="4.80979">
        <ele>241</ele>
        <time>2022-09-28T06:38:44.000Z</time>
      </trkpt>
      <trkpt lat="49.75889" lon="4.80982">
        <ele>241</ele>
        <time>2022-09-28T06:38:45.000Z</time>
      </trkpt>
      <trkpt lat="49.75892" lon="4.80985">
        <ele>241</ele>
        <time>2022-09-28T06:38:46.000Z</time>
      </trkpt>
      <trkpt lat="49.75895" lon="4.80988">
        <ele>241</ele>
        <time>2022-09-28T06:38:47.000Z</time>
      </trkpt>
      <trkpt lat="49.75897" lon="4.80991">
        <ele>241</ele>
        <time>2022-09-28T06:38:48.000Z</time>
      </trkpt>
      <trkpt lat="49.75898" lon="4.80995">
        <ele>241</ele>
        <time>2022-09-28T06:38:49.000Z</time>
      </trkpt>
      <trkpt lat="49.75901" lon="4.80999">
        <ele>241</ele>
        <time>2022-09-28T06:38:50.000Z</time>
      </trkpt>
      <trkpt lat="49.75903" lon="4.81002">
        <ele>242</ele>
        <time>2022-09-28T06:38:51.000Z</time>
      </trkpt>
      <trkpt lat="49.75905" lon="4.81006">
        <ele>242</ele>
        <time>2022-09-28T06:38:52.000Z</time>
      </trkpt>
      <trkpt lat="49.75908" lon="4.81009">
        <ele>242</ele>
        <time>2022-09-28T06:38:53.000Z</time>
      </trkpt>
      <trkpt lat="49.7591" lon="4.81012">
        <ele>242</ele>
        <time>2022-09-28T06:38:54.000Z</time>
      </trkpt>
      <trkpt lat="49.75912" lon="4.81016">
        <ele>242</ele>
        <time>2022-09-28T06:38:55.000Z</time>
      </trkpt>
      <trkpt lat="49.75914" lon="4.81019">
        <ele>242</ele>
        <time>2022-09-28T06:38:56.000Z</time>
      </trkpt>
      <trkpt lat="49.75916" lon="4.81023">
        <ele>243</ele>
        <time>2022-09-28T06:38:57.000Z</time>
      </trkpt>
      <trkpt lat="49.75918" lon="4.81027">
        <ele>243</ele>
        <time>2022-09-28T06:38:58.000Z</time>
      </trkpt>
      <trkpt lat="49.75919" lon="4.81031">
        <ele>243</ele>
        <time>2022-09-28T06:38:59.000Z</time>
      </trkpt>
      <trkpt lat="49.7592" lon="4.81035">
        <ele>243</ele>
        <time>2022-09-28T06:39:00.000Z</time>
      </trkpt>
      <trkpt lat="49.75922" lon="4.81039">
        <ele>243</ele>
        <time>2022-09-28T06:39:01.000Z</time>
      </trkpt>
      <trkpt lat="49.75923" lon="4.81042">
        <ele>243</ele>
        <time>2022-09-28T06:39:02.000Z</time>
      </trkpt>
      <trkpt lat="49.75924" lon="4.81045">
        <ele>243</ele>
        <time>2022-09-28T06:39:03.000Z</time>
      </trkpt>
      <trkpt lat="49.75925" lon="4.81047">
        <ele>243</ele>
        <time>2022-09-28T06:39:04.000Z</time>
      </trkpt>
      <trkpt lat="49.75926" lon="4.81049">
        <ele>243</ele>
        <time>2022-09-28T06:39:05.000Z</time>
      </trkpt>
      <trkpt lat="49.75928" lon="4.8105">
        <ele>243</ele>
        <time>2022-09-28T06:39:06.000Z</time>
      </trkpt>
      <trkpt lat="49.75929" lon="4.81052">
        <ele>243</ele>
        <time>2022-09-28T06:39:07.000Z</time>
      </trkpt>
      <trkpt lat="49.75931" lon="4.81054">
        <ele>243</ele>
        <time>2022-09-28T06:39:08.000Z</time>
      </trkpt>
      <trkpt lat="49.75932" lon="4.81056">
        <ele>244</ele>
        <time>2022-09-28T06:39:09.000Z</time>
      </trkpt>
      <trkpt lat="49.75934" lon="4.81059">
        <ele>244</ele>
        <time>2022-09-28T06:39:10.000Z</time>
      </trkpt>
      <trkpt lat="49.75935" lon="4.81062">
        <ele>244</ele>
        <time>2022-09-28T06:39:11.000Z</time>
      </trkpt>
      <trkpt lat="49.75936" lon="4.81064">
        <ele>244</ele>
        <time>2022-09-28T06:39:12.000Z</time>
      </trkpt>
      <trkpt lat="49.75937" lon="4.81067">
        <ele>244</ele>
        <time>2022-09-28T06:39:13.000Z</time>
      </trkpt>
      <trkpt lat="49.75939" lon="4.81069">
        <ele>244</ele>
        <time>2022-09-28T06:39:14.000Z</time>
      </trkpt>
      <trkpt lat="49.7594" lon="4.81072">
        <ele>245</ele>
        <time>2022-09-28T06:39:15.000Z</time>
      </trkpt>
      <trkpt lat="49.75942" lon="4.81075">
        <ele>245</ele>
        <time>2022-09-28T06:39:16.000Z</time>
      </trkpt>
      <trkpt lat="49.75943" lon="4.81078">
        <ele>245</ele>
        <time>2022-09-28T06:39:17.000Z</time>
      </trkpt>
      <trkpt lat="49.75945" lon="4.81081">
        <ele>245</ele>
        <time>2022-09-28T06:39:18.000Z</time>
      </trkpt>
      <trkpt lat="49.75947" lon="4.81084">
        <ele>245</ele>
        <time>2022-09-28T06:39:19.000Z</time>
      </trkpt>
      <trkpt lat="49.75949" lon="4.81089">
        <ele>245</ele>
        <time>2022-09-28T06:39:20.000Z</time>
      </trkpt>
      <trkpt lat="49.75952" lon="4.81093">
        <ele>245</ele>
        <time>2022-09-28T06:39:21.000Z</time>
      </trkpt>
      <trkpt lat="49.75954" lon="4.81097">
        <ele>245</ele>
        <time>2022-09-28T06:39:22.000Z</time>
      </trkpt>
      <trkpt lat="49.75957" lon="4.811">
        <ele>245</ele>
        <time>2022-09-28T06:39:23.000Z</time>
      </trkpt>
      <trkpt lat="49.75959" lon="4.81104">
        <ele>245</ele>
        <time>2022-09-28T06:39:24.000Z</time>
      </trkpt>
      <trkpt lat="49.75961" lon="4.81107">
        <ele>245</ele>
        <time>2022-09-28T06:39:25.000Z</time>
      </trkpt>
      <trkpt lat="49.75963" lon="4.8111">
        <ele>246</ele>
        <time>2022-09-28T06:39:26.000Z</time>
      </trkpt>
      <trkpt lat="49.75966" lon="4.81113">
        <ele>246</ele>
        <time>2022-09-28T06:39:27.000Z</time>
      </trkpt>
      <trkpt lat="49.75969" lon="4.81116">
        <ele>246</ele>
        <time>2022-09-28T06:39:28.000Z</time>
      </trkpt>
      <trkpt lat="49.75972" lon="4.81119">
        <ele>246</ele>
        <time>2022-09-28T06:39:29.000Z</time>
      </trkpt>
      <trkpt lat="49.75974" lon="4.81122">
        <ele>246</ele>
        <time>2022-09-28T06:39:30.000Z</time>
      </trkpt>
      <trkpt lat="49.75976" lon="4.81126">
        <ele>246</ele>
        <time>2022-09-28T06:39:31.000Z</time>
      </trkpt>
      <trkpt lat="49.75978" lon="4.81129">
        <ele>246</ele>
        <time>2022-09-28T06:39:32.000Z</time>
      </trkpt>
      <trkpt lat="49.7598" lon="4.81131">
        <ele>247</ele>
        <time>2022-09-28T06:39:33.000Z</time>
      </trkpt>
      <trkpt lat="49.75983" lon="4.81133">
        <ele>247</ele>
        <time>2022-09-28T06:39:34.000Z</time>
      </trkpt>
      <trkpt lat="49.75985" lon="4.81135">
        <ele>247</ele>
        <time>2022-09-28T06:39:35.000Z</time>
      </trkpt>
      <trkpt lat="49.75988" lon="4.81138">
        <ele>247</ele>
        <time>2022-09-28T06:39:36.000Z</time>
      </trkpt>
      <trkpt lat="49.75991" lon="4.81139">
        <ele>247</ele>
        <time>2022-09-28T06:39:37.000Z</time>
      </trkpt>
      <trkpt lat="49.75994" lon="4.81141">
        <ele>247</ele>
        <time>2022-09-28T06:39:38.000Z</time>
      </trkpt>
      <trkpt lat="49.75996" lon="4.81144">
        <ele>248</ele>
        <time>2022-09-28T06:39:39.000Z</time>
      </trkpt>
      <trkpt lat="49.75998" lon="4.81146">
        <ele>248</ele>
        <time>2022-09-28T06:39:40.000Z</time>
      </trkpt>
      <trkpt lat="49.76" lon="4.81148">
        <ele>248</ele>
        <time>2022-09-28T06:39:41.000Z</time>
      </trkpt>
      <trkpt lat="49.76001" lon="4.81148">
        <ele>248</ele>
        <time>2022-09-28T06:39:42.000Z</time>
      </trkpt>
      <trkpt lat="49.76003" lon="4.81149">
        <ele>248</ele>
        <time>2022-09-28T06:39:43.000Z</time>
      </trkpt>
      <trkpt lat="49.76005" lon="4.8115">
        <ele>249</ele>
        <time>2022-09-28T06:39:44.000Z</time>
      </trkpt>
      <trkpt lat="49.76006" lon="4.8115">
        <ele>249</ele>
        <time>2022-09-28T06:39:45.000Z</time>
      </trkpt>
      <trkpt lat="49.76007" lon="4.81151">
        <ele>249</ele>
        <time>2022-09-28T06:39:46.000Z</time>
      </trkpt>
      <trkpt lat="49.76008" lon="4.81153">
        <ele>249</ele>
        <time>2022-09-28T06:39:47.000Z</time>
      </trkpt>
      <trkpt lat="49.76009" lon="4.81155">
        <ele>249</ele>
        <time>2022-09-28T06:39:48.000Z</time>
      </trkpt>
      <trkpt lat="49.76009" lon="4.81156">
        <ele>249</ele>
        <time>2022-09-28T06:39:49.000Z</time>
      </trkpt>
      <trkpt lat="49.76009" lon="4.81156">
        <ele>250</ele>
        <time>2022-09-28T06:39:50.000Z</time>
      </trkpt>
      <trkpt lat="49.76009" lon="4.81157">
        <ele>250</ele>
        <time>2022-09-28T06:39:51.000Z</time>
      </trkpt>
      <trkpt lat="49.76008" lon="4.81158">
        <ele>250</ele>
        <time>2022-09-28T06:39:52.000Z</time>
      </trkpt>
      <trkpt lat="49.76008" lon="4.8116">
        <ele>250</ele>
        <time>2022-09-28T06:39:53.000Z</time>
      </trkpt>
      <trkpt lat="49.76009" lon="4.81161">
        <ele>250</ele>
        <time>2022-09-28T06:39:54.000Z</time>
      </trkpt>
      <trkpt lat="49.76009" lon="4.81162">
        <ele>250</ele>
        <time>2022-09-28T06:39:55.000Z</time>
      </trkpt>
      <trkpt lat="49.7601" lon="4.81163">
        <ele>250</ele>
        <time>2022-09-28T06:39:56.000Z</time>
      </trkpt>
      <trkpt lat="49.7601" lon="4.81165">
        <ele>251</ele>
        <time>2022-09-28T06:39:57.000Z</time>
      </trkpt>
      <trkpt lat="49.76011" lon="4.81166">
        <ele>251</ele>
        <time>2022-09-28T06:39:58.000Z</time>
      </trkpt>
      <trkpt lat="49.76013" lon="4.81168">
        <ele>251</ele>
        <time>2022-09-28T06:39:59.000Z</time>
      </trkpt>
      <trkpt lat="49.76015" lon="4.8117">
        <ele>251</ele>
        <time>2022-09-28T06:40:00.000Z</time>
      </trkpt>
      <trkpt lat="49.76017" lon="4.81173">
        <ele>251</ele>
        <time>2022-09-28T06:40:01.000Z</time>
      </trkpt>
      <trkpt lat="49.76019" lon="4.81175">
        <ele>251</ele>
        <time>2022-09-28T06:40:02.000Z</time>
      </trkpt>
      <trkpt lat="49.7602" lon="4.81178">
        <ele>251</ele>
        <time>2022-09-28T06:40:03.000Z</time>
      </trkpt>
      <trkpt lat="49.76021" lon="4.8118">
        <ele>251</ele>
        <time>2022-09-28T06:40:04.000Z</time>
      </trkpt>
      <trkpt lat="49.76023" lon="4.81183">
        <ele>252</ele>
        <time>2022-09-28T06:40:05.000Z</time>
      </trkpt>
      <trkpt lat="49.76025" lon="4.81185">
        <ele>252</ele>
        <time>2022-09-28T06:40:06.000Z</time>
      </trkpt>
      <trkpt lat="49.76027" lon="4.81188">
        <ele>252</ele>
        <time>2022-09-28T06:40:07.000Z</time>
      </trkpt>
      <trkpt lat="49.76029" lon="4.81191">
        <ele>252</ele>
        <time>2022-09-28T06:40:08.000Z</time>
      </trkpt>
      <trkpt lat="49.7603" lon="4.81194">
        <ele>252</ele>
        <time>2022-09-28T06:40:09.000Z</time>
      </trkpt>
      <trkpt lat="49.76032" lon="4.81196">
        <ele>252</ele>
        <time>2022-09-28T06:40:10.000Z</time>
      </trkpt>
      <trkpt lat="49.76035" lon="4.81198">
        <ele>252</ele>
        <time>2022-09-28T06:40:11.000Z</time>
      </trkpt>
      <trkpt lat="49.76037" lon="4.812">
        <ele>252</ele>
        <time>2022-09-28T06:40:12.000Z</time>
      </trkpt>
      <trkpt lat="49.76039" lon="4.81203">
        <ele>252</ele>
        <time>2022-09-28T06:40:13.000Z</time>
      </trkpt>
      <trkpt lat="49.76041" lon="4.81206">
        <ele>252</ele>
        <time>2022-09-28T06:40:14.000Z</time>
      </trkpt>
      <trkpt lat="49.76043" lon="4.81209">
        <ele>253</ele>
        <time>2022-09-28T06:40:15.000Z</time>
      </trkpt>
      <trkpt lat="49.76044" lon="4.81212">
        <ele>253</ele>
        <time>2022-09-28T06:40:16.000Z</time>
      </trkpt>
      <trkpt lat="49.76046" lon="4.81214">
        <ele>253</ele>
        <time>2022-09-28T06:40:17.000Z</time>
      </trkpt>
      <trkpt lat="49.76048" lon="4.81217">
        <ele>253</ele>
        <time>2022-09-28T06:40:18.000Z</time>
      </trkpt>
      <trkpt lat="49.7605" lon="4.8122">
        <ele>253</ele>
        <time>2022-09-28T06:40:19.000Z</time>
      </trkpt>
      <trkpt lat="49.76052" lon="4.81223">
        <ele>253</ele>
        <time>2022-09-28T06:40:20.000Z</time>
      </trkpt>
      <trkpt lat="49.76054" lon="4.81225">
        <ele>253</ele>
        <time>2022-09-28T06:40:21.000Z</time>
      </trkpt>
      <trkpt lat="49.76057" lon="4.81228">
        <ele>253</ele>
        <time>2022-09-28T06:40:22.000Z</time>
      </trkpt>
      <trkpt lat="49.76059" lon="4.81231">
        <ele>253</ele>
        <time>2022-09-28T06:40:23.000Z</time>
      </trkpt>
      <trkpt lat="49.76062" lon="4.81234">
        <ele>253</ele>
        <time>2022-09-28T06:40:24.000Z</time>
      </trkpt>
      <trkpt lat="49.76064" lon="4.81236">
        <ele>253</ele>
        <time>2022-09-28T06:40:25.000Z</time>
      </trkpt>
      <trkpt lat="49.76066" lon="4.81239">
        <ele>253</ele>
        <time>2022-09-28T06:40:26.000Z</time>
      </trkpt>
      <trkpt lat="49.76068" lon="4.81243">
        <ele>253</ele>
        <time>2022-09-28T06:40:27.000Z</time>
      </trkpt>
      <trkpt lat="49.7607" lon="4.81246">
        <ele>253</ele>
        <time>2022-09-28T06:40:28.000Z</time>
      </trkpt>
      <trkpt lat="49.76072" lon="4.81248">
        <ele>253</ele>
        <time>2022-09-28T06:40:29.000Z</time>
      </trkpt>
      <trkpt lat="49.76075" lon="4.81251">
        <ele>253</ele>
        <time>2022-09-28T06:40:30.000Z</time>
      </trkpt>
      <trkpt lat="49.76077" lon="4.81254">
        <ele>253</ele>
        <time>2022-09-28T06:40:31.000Z</time>
      </trkpt>
      <trkpt lat="49.7608" lon="4.81257">
        <ele>254</ele>
        <time>2022-09-28T06:40:32.000Z</time>
      </trkpt>
      <trkpt lat="49.76082" lon="4.8126">
        <ele>254</ele>
        <time>2022-09-28T06:40:33.000Z</time>
      </trkpt>
      <trkpt lat="49.76084" lon="4.81262">
        <ele>254</ele>
        <time>2022-09-28T06:40:34.000Z</time>
      </trkpt>
      <trkpt lat="49.76086" lon="4.81264">
        <ele>254</ele>
        <time>2022-09-28T06:40:35.000Z</time>
      </trkpt>
      <trkpt lat="49.76088" lon="4.81266">
        <ele>254</ele>
        <time>2022-09-28T06:40:36.000Z</time>
      </trkpt>
      <trkpt lat="49.7609" lon="4.81268">
        <ele>254</ele>
        <time>2022-09-28T06:40:37.000Z</time>
      </trkpt>
      <trkpt lat="49.76093" lon="4.8127">
        <ele>254</ele>
        <time>2022-09-28T06:40:38.000Z</time>
      </trkpt>
      <trkpt lat="49.76095" lon="4.81272">
        <ele>254</ele>
        <time>2022-09-28T06:40:39.000Z</time>
      </trkpt>
      <trkpt lat="49.76098" lon="4.81274">
        <ele>254</ele>
        <time>2022-09-28T06:40:40.000Z</time>
      </trkpt>
      <trkpt lat="49.761" lon="4.81276">
        <ele>254</ele>
        <time>2022-09-28T06:40:41.000Z</time>
      </trkpt>
      <trkpt lat="49.76102" lon="4.81278">
        <ele>254</ele>
        <time>2022-09-28T06:40:42.000Z</time>
      </trkpt>
      <trkpt lat="49.76104" lon="4.81281">
        <ele>254</ele>
        <time>2022-09-28T06:40:43.000Z</time>
      </trkpt>
      <trkpt lat="49.76105" lon="4.81284">
        <ele>254</ele>
        <time>2022-09-28T06:40:44.000Z</time>
      </trkpt>
      <trkpt lat="49.76107" lon="4.81286">
        <ele>254</ele>
        <time>2022-09-28T06:40:45.000Z</time>
      </trkpt>
      <trkpt lat="49.76109" lon="4.81288">
        <ele>255</ele>
        <time>2022-09-28T06:40:46.000Z</time>
      </trkpt>
      <trkpt lat="49.7611" lon="4.8129">
        <ele>255</ele>
        <time>2022-09-28T06:40:47.000Z</time>
      </trkpt>
      <trkpt lat="49.76111" lon="4.81293">
        <ele>255</ele>
        <time>2022-09-28T06:40:48.000Z</time>
      </trkpt>
      <trkpt lat="49.76113" lon="4.81295">
        <ele>255</ele>
        <time>2022-09-28T06:40:49.000Z</time>
      </trkpt>
      <trkpt lat="49.76114" lon="4.81297">
        <ele>255</ele>
        <time>2022-09-28T06:40:50.000Z</time>
      </trkpt>
      <trkpt lat="49.76117" lon="4.81298">
        <ele>255</ele>
        <time>2022-09-28T06:40:51.000Z</time>
      </trkpt>
      <trkpt lat="49.76119" lon="4.81299">
        <ele>255</ele>
        <time>2022-09-28T06:40:52.000Z</time>
      </trkpt>
      <trkpt lat="49.76121" lon="4.81301">
        <ele>255</ele>
        <time>2022-09-28T06:40:53.000Z</time>
      </trkpt>
      <trkpt lat="49.76124" lon="4.81303">
        <ele>256</ele>
        <time>2022-09-28T06:40:54.000Z</time>
      </trkpt>
      <trkpt lat="49.76126" lon="4.81305">
        <ele>256</ele>
        <time>2022-09-28T06:40:55.000Z</time>
      </trkpt>
      <trkpt lat="49.76127" lon="4.81307">
        <ele>256</ele>
        <time>2022-09-28T06:40:56.000Z</time>
      </trkpt>
      <trkpt lat="49.76129" lon="4.81309">
        <ele>256</ele>
        <time>2022-09-28T06:40:57.000Z</time>
      </trkpt>
      <trkpt lat="49.7613" lon="4.81311">
        <ele>256</ele>
        <time>2022-09-28T06:40:58.000Z</time>
      </trkpt>
      <trkpt lat="49.76131" lon="4.81314">
        <ele>257</ele>
        <time>2022-09-28T06:40:59.000Z</time>
      </trkpt>
      <trkpt lat="49.76132" lon="4.81317">
        <ele>257</ele>
        <time>2022-09-28T06:41:00.000Z</time>
      </trkpt>
      <trkpt lat="49.76133" lon="4.8132">
        <ele>257</ele>
        <time>2022-09-28T06:41:01.000Z</time>
      </trkpt>
      <trkpt lat="49.76133" lon="4.81323">
        <ele>257</ele>
        <time>2022-09-28T06:41:02.000Z</time>
      </trkpt>
      <trkpt lat="49.76133" lon="4.81325">
        <ele>257</ele>
        <time>2022-09-28T06:41:03.000Z</time>
      </trkpt>
      <trkpt lat="49.76134" lon="4.81328">
        <ele>258</ele>
        <time>2022-09-28T06:41:04.000Z</time>
      </trkpt>
      <trkpt lat="49.76134" lon="4.81331">
        <ele>258</ele>
        <time>2022-09-28T06:41:05.000Z</time>
      </trkpt>
      <trkpt lat="49.76135" lon="4.81334">
        <ele>258</ele>
        <time>2022-09-28T06:41:06.000Z</time>
      </trkpt>
      <trkpt lat="49.76135" lon="4.81336">
        <ele>258</ele>
        <time>2022-09-28T06:41:07.000Z</time>
      </trkpt>
      <trkpt lat="49.76135" lon="4.81338">
        <ele>258</ele>
        <time>2022-09-28T06:41:08.000Z</time>
      </trkpt>
      <trkpt lat="49.76135" lon="4.8134">
        <ele>258</ele>
        <time>2022-09-28T06:41:09.000Z</time>
      </trkpt>
      <trkpt lat="49.76134" lon="4.81343">
        <ele>259</ele>
        <time>2022-09-28T06:41:10.000Z</time>
      </trkpt>
      <trkpt lat="49.76134" lon="4.81346">
        <ele>259</ele>
        <time>2022-09-28T06:41:11.000Z</time>
      </trkpt>
      <trkpt lat="49.76133" lon="4.81349">
        <ele>259</ele>
        <time>2022-09-28T06:41:12.000Z</time>
      </trkpt>
      <trkpt lat="49.76133" lon="4.81352">
        <ele>260</ele>
        <time>2022-09-28T06:41:13.000Z</time>
      </trkpt>
      <trkpt lat="49.76133" lon="4.81356">
        <ele>260</ele>
        <time>2022-09-28T06:41:14.000Z</time>
      </trkpt>
      <trkpt lat="49.76134" lon="4.81359">
        <ele>260</ele>
        <time>2022-09-28T06:41:15.000Z</time>
      </trkpt>
      <trkpt lat="49.76134" lon="4.81362">
        <ele>260</ele>
        <time>2022-09-28T06:41:16.000Z</time>
      </trkpt>
      <trkpt lat="49.76134" lon="4.81365">
        <ele>260</ele>
        <time>2022-09-28T06:41:17.000Z</time>
      </trkpt>
      <trkpt lat="49.76133" lon="4.81368">
        <ele>260</ele>
        <time>2022-09-28T06:41:18.000Z</time>
      </trkpt>
      <trkpt lat="49.76132" lon="4.81371">
        <ele>261</ele>
        <time>2022-09-28T06:41:19.000Z</time>
      </trkpt>
      <trkpt lat="49.76132" lon="4.81374">
        <ele>261</ele>
        <time>2022-09-28T06:41:20.000Z</time>
      </trkpt>
      <trkpt lat="49.76132" lon="4.81377">
        <ele>261</ele>
        <time>2022-09-28T06:41:21.000Z</time>
      </trkpt>
      <trkpt lat="49.76132" lon="4.8138">
        <ele>261</ele>
        <time>2022-09-28T06:41:22.000Z</time>
      </trkpt>
      <trkpt lat="49.76132" lon="4.81383">
        <ele>261</ele>
        <time>2022-09-28T06:41:23.000Z</time>
      </trkpt>
      <trkpt lat="49.76131" lon="4.81386">
        <ele>261</ele>
        <time>2022-09-28T06:41:24.000Z</time>
      </trkpt>
      <trkpt lat="49.76131" lon="4.81389">
        <ele>261</ele>
        <time>2022-09-28T06:41:25.000Z</time>
      </trkpt>
      <trkpt lat="49.76131" lon="4.81392">
        <ele>262</ele>
        <time>2022-09-28T06:41:26.000Z</time>
      </trkpt>
      <trkpt lat="49.76131" lon="4.81395">
        <ele>262</ele>
        <time>2022-09-28T06:41:27.000Z</time>
      </trkpt>
      <trkpt lat="49.76131" lon="4.81398">
        <ele>262</ele>
        <time>2022-09-28T06:41:28.000Z</time>
      </trkpt>
      <trkpt lat="49.76131" lon="4.81401">
        <ele>262</ele>
        <time>2022-09-28T06:41:29.000Z</time>
      </trkpt>
      <trkpt lat="49.76131" lon="4.81405">
        <ele>262</ele>
        <time>2022-09-28T06:41:30.000Z</time>
      </trkpt>
      <trkpt lat="49.76131" lon="4.81407">
        <ele>262</ele>
        <time>2022-09-28T06:41:31.000Z</time>
      </trkpt>
      <trkpt lat="49.76132" lon="4.81411">
        <ele>262</ele>
        <time>2022-09-28T06:41:32.000Z</time>
      </trkpt>
      <trkpt lat="49.76132" lon="4.81414">
        <ele>262</ele>
        <time>2022-09-28T06:41:33.000Z</time>
      </trkpt>
      <trkpt lat="49.76133" lon="4.81417">
        <ele>263</ele>
        <time>2022-09-28T06:41:34.000Z</time>
      </trkpt>
      <trkpt lat="49.76134" lon="4.81421">
        <ele>263</ele>
        <time>2022-09-28T06:41:35.000Z</time>
      </trkpt>
      <trkpt lat="49.76134" lon="4.81424">
        <ele>263</ele>
        <time>2022-09-28T06:41:36.000Z</time>
      </trkpt>
      <trkpt lat="49.76136" lon="4.81426">
        <ele>263</ele>
        <time>2022-09-28T06:41:37.000Z</time>
      </trkpt>
      <trkpt lat="49.76137" lon="4.81427">
        <ele>263</ele>
        <time>2022-09-28T06:41:38.000Z</time>
      </trkpt>
      <trkpt lat="49.7614" lon="4.81429">
        <ele>263</ele>
        <time>2022-09-28T06:41:39.000Z</time>
      </trkpt>
      <trkpt lat="49.76142" lon="4.8143">
        <ele>263</ele>
        <time>2022-09-28T06:41:40.000Z</time>
      </trkpt>
      <trkpt lat="49.76145" lon="4.81431">
        <ele>263</ele>
        <time>2022-09-28T06:41:41.000Z</time>
      </trkpt>
      <trkpt lat="49.76147" lon="4.81432">
        <ele>263</ele>
        <time>2022-09-28T06:41:42.000Z</time>
      </trkpt>
      <trkpt lat="49.76149" lon="4.81433">
        <ele>263</ele>
        <time>2022-09-28T06:41:43.000Z</time>
      </trkpt>
      <trkpt lat="49.76151" lon="4.81434">
        <ele>263</ele>
        <time>2022-09-28T06:41:44.000Z</time>
      </trkpt>
      <trkpt lat="49.76153" lon="4.81434">
        <ele>263</ele>
        <time>2022-09-28T06:41:45.000Z</time>
      </trkpt>
      <trkpt lat="49.76155" lon="4.81435">
        <ele>263</ele>
        <time>2022-09-28T06:41:46.000Z</time>
      </trkpt>
      <trkpt lat="49.76158" lon="4.81436">
        <ele>263</ele>
        <time>2022-09-28T06:41:47.000Z</time>
      </trkpt>
      <trkpt lat="49.76161" lon="4.81437">
        <ele>263</ele>
        <time>2022-09-28T06:41:48.000Z</time>
      </trkpt>
      <trkpt lat="49.76163" lon="4.81438">
        <ele>264</ele>
        <time>2022-09-28T06:41:49.000Z</time>
      </trkpt>
      <trkpt lat="49.76166" lon="4.8144">
        <ele>264</ele>
        <time>2022-09-28T06:41:50.000Z</time>
      </trkpt>
      <trkpt lat="49.76169" lon="4.81441">
        <ele>264</ele>
        <time>2022-09-28T06:41:51.000Z</time>
      </trkpt>
      <trkpt lat="49.76171" lon="4.81441">
        <ele>264</ele>
        <time>2022-09-28T06:41:52.000Z</time>
      </trkpt>
      <trkpt lat="49.76173" lon="4.81442">
        <ele>264</ele>
        <time>2022-09-28T06:41:53.000Z</time>
      </trkpt>
      <trkpt lat="49.76176" lon="4.81442">
        <ele>264</ele>
        <time>2022-09-28T06:41:54.000Z</time>
      </trkpt>
      <trkpt lat="49.76177" lon="4.81441">
        <ele>264</ele>
        <time>2022-09-28T06:41:55.000Z</time>
      </trkpt>
      <trkpt lat="49.76179" lon="4.81439">
        <ele>264</ele>
        <time>2022-09-28T06:41:56.000Z</time>
      </trkpt>
      <trkpt lat="49.7618" lon="4.81437">
        <ele>265</ele>
        <time>2022-09-28T06:41:57.000Z</time>
      </trkpt>
      <trkpt lat="49.76181" lon="4.81435">
        <ele>265</ele>
        <time>2022-09-28T06:41:58.000Z</time>
      </trkpt>
      <trkpt lat="49.76182" lon="4.81432">
        <ele>265</ele>
        <time>2022-09-28T06:41:59.000Z</time>
      </trkpt>
      <trkpt lat="49.76182" lon="4.81428">
        <ele>265</ele>
        <time>2022-09-28T06:42:00.000Z</time>
      </trkpt>
      <trkpt lat="49.76184" lon="4.81423">
        <ele>265</ele>
        <time>2022-09-28T06:42:01.000Z</time>
      </trkpt>
      <trkpt lat="49.76185" lon="4.81417">
        <ele>265</ele>
        <time>2022-09-28T06:42:02.000Z</time>
      </trkpt>
      <trkpt lat="49.76185" lon="4.81409">
        <ele>264</ele>
        <time>2022-09-28T06:42:03.000Z</time>
      </trkpt>
      <trkpt lat="49.76186" lon="4.814">
        <ele>264</ele>
        <time>2022-09-28T06:42:04.000Z</time>
      </trkpt>
      <trkpt lat="49.76186" lon="4.81391">
        <ele>264</ele>
        <time>2022-09-28T06:42:05.000Z</time>
      </trkpt>
      <trkpt lat="49.76186" lon="4.81381">
        <ele>264</ele>
        <time>2022-09-28T06:42:06.000Z</time>
      </trkpt>
      <trkpt lat="49.76186" lon="4.8137">
        <ele>263</ele>
        <time>2022-09-28T06:42:07.000Z</time>
      </trkpt>
      <trkpt lat="49.76186" lon="4.8136">
        <ele>263</ele>
        <time>2022-09-28T06:42:08.000Z</time>
      </trkpt>
      <trkpt lat="49.76187" lon="4.81349">
        <ele>263</ele>
        <time>2022-09-28T06:42:09.000Z</time>
      </trkpt>
      <trkpt lat="49.76188" lon="4.81338">
        <ele>263</ele>
        <time>2022-09-28T06:42:10.000Z</time>
      </trkpt>
      <trkpt lat="49.76188" lon="4.81327">
        <ele>262</ele>
        <time>2022-09-28T06:42:11.000Z</time>
      </trkpt>
      <trkpt lat="49.76189" lon="4.81316">
        <ele>262</ele>
        <time>2022-09-28T06:42:12.000Z</time>
      </trkpt>
      <trkpt lat="49.76189" lon="4.81307">
        <ele>262</ele>
        <time>2022-09-28T06:42:13.000Z</time>
      </trkpt>
      <trkpt lat="49.7619" lon="4.81299">
        <ele>262</ele>
        <time>2022-09-28T06:42:14.000Z</time>
      </trkpt>
      <trkpt lat="49.7619" lon="4.81293">
        <ele>262</ele>
        <time>2022-09-28T06:42:15.000Z</time>
      </trkpt>
      <trkpt lat="49.7619" lon="4.81289">
        <ele>262</ele>
        <time>2022-09-28T06:42:16.000Z</time>
      </trkpt>
      <trkpt lat="49.7619" lon="4.81284">
        <ele>262</ele>
        <time>2022-09-28T06:42:17.000Z</time>
      </trkpt>
      <trkpt lat="49.76189" lon="4.8128">
        <ele>262</ele>
        <time>2022-09-28T06:42:18.000Z</time>
      </trkpt>
      <trkpt lat="49.76189" lon="4.81277">
        <ele>262</ele>
        <time>2022-09-28T06:42:19.000Z</time>
      </trkpt>
      <trkpt lat="49.76189" lon="4.81273">
        <ele>262</ele>
        <time>2022-09-28T06:42:20.000Z</time>
      </trkpt>
      <trkpt lat="49.76189" lon="4.81272">
        <ele>262</ele>
        <time>2022-09-28T06:42:21.000Z</time>
      </trkpt>
      <trkpt lat="49.76189" lon="4.81272">
        <ele>262</ele>
        <time>2022-09-28T06:42:22.000Z</time>
      </trkpt>
      <trkpt lat="49.76189" lon="4.81271">
        <ele>262</ele>
        <time>2022-09-28T06:42:23.000Z</time>
      </trkpt>
      <trkpt lat="49.76189" lon="4.8127">
        <ele>262</ele>
        <time>2022-09-28T06:42:24.000Z</time>
      </trkpt>
      <trkpt lat="49.76189" lon="4.81268">
        <ele>262</ele>
        <time>2022-09-28T06:42:25.000Z</time>
      </trkpt>
      <trkpt lat="49.76189" lon="4.81266">
        <ele>262</ele>
        <time>2022-09-28T06:42:26.000Z</time>
      </trkpt>
      <trkpt lat="49.76189" lon="4.81263">
        <ele>262</ele>
        <time>2022-09-28T06:42:27.000Z</time>
      </trkpt>
      <trkpt lat="49.76189" lon="4.8126">
        <ele>262</ele>
        <time>2022-09-28T06:42:28.000Z</time>
      </trkpt>
      <trkpt lat="49.76189" lon="4.81256">
        <ele>262</ele>
        <time>2022-09-28T06:42:29.000Z</time>
      </trkpt>
      <trkpt lat="49.76189" lon="4.81252">
        <ele>262</ele>
        <time>2022-09-28T06:42:30.000Z</time>
      </trkpt>
      <trkpt lat="49.7619" lon="4.81249">
        <ele>262</ele>
        <time>2022-09-28T06:42:31.000Z</time>
      </trkpt>
      <trkpt lat="49.7619" lon="4.81245">
        <ele>262</ele>
        <time>2022-09-28T06:42:32.000Z</time>
      </trkpt>
      <trkpt lat="49.7619" lon="4.81242">
        <ele>262</ele>
        <time>2022-09-28T06:42:33.000Z</time>
      </trkpt>
      <trkpt lat="49.76191" lon="4.81238">
        <ele>262</ele>
        <time>2022-09-28T06:42:34.000Z</time>
      </trkpt>
      <trkpt lat="49.76191" lon="4.81234">
        <ele>262</ele>
        <time>2022-09-28T06:42:35.000Z</time>
      </trkpt>
      <trkpt lat="49.76191" lon="4.81229">
        <ele>262</ele>
        <time>2022-09-28T06:42:36.000Z</time>
      </trkpt>
      <trkpt lat="49.76192" lon="4.81224">
        <ele>263</ele>
        <time>2022-09-28T06:42:37.000Z</time>
      </trkpt>
      <trkpt lat="49.76192" lon="4.81219">
        <ele>263</ele>
        <time>2022-09-28T06:42:38.000Z</time>
      </trkpt>
      <trkpt lat="49.76192" lon="4.81214">
        <ele>263</ele>
        <time>2022-09-28T06:42:39.000Z</time>
      </trkpt>
      <trkpt lat="49.76193" lon="4.81208">
        <ele>263</ele>
        <time>2022-09-28T06:42:40.000Z</time>
      </trkpt>
      <trkpt lat="49.76193" lon="4.81203">
        <ele>263</ele>
        <time>2022-09-28T06:42:41.000Z</time>
      </trkpt>
      <trkpt lat="49.76193" lon="4.81198">
        <ele>263</ele>
        <time>2022-09-28T06:42:42.000Z</time>
      </trkpt>
      <trkpt lat="49.76194" lon="4.81193">
        <ele>263</ele>
        <time>2022-09-28T06:42:43.000Z</time>
      </trkpt>
      <trkpt lat="49.76194" lon="4.81188">
        <ele>263</ele>
        <time>2022-09-28T06:42:44.000Z</time>
      </trkpt>
      <trkpt lat="49.76194" lon="4.81182">
        <ele>263</ele>
        <time>2022-09-28T06:42:45.000Z</time>
      </trkpt>
      <trkpt lat="49.76195" lon="4.81177">
        <ele>263</ele>
        <time>2022-09-28T06:42:46.000Z</time>
      </trkpt>
      <trkpt lat="49.76195" lon="4.81171">
        <ele>263</ele>
        <time>2022-09-28T06:42:47.000Z</time>
      </trkpt>
      <trkpt lat="49.76194" lon="4.81166">
        <ele>263</ele>
        <time>2022-09-28T06:42:48.000Z</time>
      </trkpt>
      <trkpt lat="49.76195" lon="4.8116">
        <ele>263</ele>
        <time>2022-09-28T06:42:49.000Z</time>
      </trkpt>
      <trkpt lat="49.76195" lon="4.81153">
        <ele>263</ele>
        <time>2022-09-28T06:42:50.000Z</time>
      </trkpt>
      <trkpt lat="49.76196" lon="4.81147">
        <ele>263</ele>
        <time>2022-09-28T06:42:51.000Z</time>
      </trkpt>
      <trkpt lat="49.76197" lon="4.8114">
        <ele>263</ele>
        <time>2022-09-28T06:42:52.000Z</time>
      </trkpt>
      <trkpt lat="49.76198" lon="4.81135">
        <ele>263</ele>
        <time>2022-09-28T06:42:53.000Z</time>
      </trkpt>
      <trkpt lat="49.76198" lon="4.81129">
        <ele>263</ele>
        <time>2022-09-28T06:42:54.000Z</time>
      </trkpt>
      <trkpt lat="49.76198" lon="4.81122">
        <ele>263</ele>
        <time>2022-09-28T06:42:55.000Z</time>
      </trkpt>
      <trkpt lat="49.76198" lon="4.81116">
        <ele>263</ele>
        <time>2022-09-28T06:42:56.000Z</time>
      </trkpt>
      <trkpt lat="49.76198" lon="4.81109">
        <ele>263</ele>
        <time>2022-09-28T06:42:57.000Z</time>
      </trkpt>
      <trkpt lat="49.76198" lon="4.81101">
        <ele>263</ele>
        <time>2022-09-28T06:42:58.000Z</time>
      </trkpt>
      <trkpt lat="49.76198" lon="4.81094">
        <ele>263</ele>
        <time>2022-09-28T06:42:59.000Z</time>
      </trkpt>
      <trkpt lat="49.76197" lon="4.81086">
        <ele>263</ele>
        <time>2022-09-28T06:43:00.000Z</time>
      </trkpt>
      <trkpt lat="49.76198" lon="4.81077">
        <ele>263</ele>
        <time>2022-09-28T06:43:01.000Z</time>
      </trkpt>
      <trkpt lat="49.76198" lon="4.81068">
        <ele>263</ele>
        <time>2022-09-28T06:43:02.000Z</time>
      </trkpt>
      <trkpt lat="49.76198" lon="4.81059">
        <ele>263</ele>
        <time>2022-09-28T06:43:03.000Z</time>
      </trkpt>
      <trkpt lat="49.76198" lon="4.81051">
        <ele>263</ele>
        <time>2022-09-28T06:43:04.000Z</time>
      </trkpt>
      <trkpt lat="49.76198" lon="4.81043">
        <ele>262</ele>
        <time>2022-09-28T06:43:05.000Z</time>
      </trkpt>
      <trkpt lat="49.76197" lon="4.81035">
        <ele>262</ele>
        <time>2022-09-28T06:43:06.000Z</time>
      </trkpt>
      <trkpt lat="49.76197" lon="4.81027">
        <ele>262</ele>
        <time>2022-09-28T06:43:07.000Z</time>
      </trkpt>
      <trkpt lat="49.76197" lon="4.8102">
        <ele>262</ele>
        <time>2022-09-28T06:43:08.000Z</time>
      </trkpt>
      <trkpt lat="49.76197" lon="4.81014">
        <ele>262</ele>
        <time>2022-09-28T06:43:09.000Z</time>
      </trkpt>
      <trkpt lat="49.76197" lon="4.81008">
        <ele>263</ele>
        <time>2022-09-28T06:43:10.000Z</time>
      </trkpt>
      <trkpt lat="49.76198" lon="4.81003">
        <ele>263</ele>
        <time>2022-09-28T06:43:11.000Z</time>
      </trkpt>
      <trkpt lat="49.76199" lon="4.80997">
        <ele>263</ele>
        <time>2022-09-28T06:43:12.000Z</time>
      </trkpt>
      <trkpt lat="49.762" lon="4.80992">
        <ele>263</ele>
        <time>2022-09-28T06:43:13.000Z</time>
      </trkpt>
      <trkpt lat="49.762" lon="4.80986">
        <ele>263</ele>
        <time>2022-09-28T06:43:14.000Z</time>
      </trkpt>
      <trkpt lat="49.762" lon="4.8098">
        <ele>263</ele>
        <time>2022-09-28T06:43:15.000Z</time>
      </trkpt>
      <trkpt lat="49.762" lon="4.80974">
        <ele>263</ele>
        <time>2022-09-28T06:43:16.000Z</time>
      </trkpt>
      <trkpt lat="49.762" lon="4.80968">
        <ele>263</ele>
        <time>2022-09-28T06:43:17.000Z</time>
      </trkpt>
      <trkpt lat="49.76201" lon="4.80963">
        <ele>263</ele>
        <time>2022-09-28T06:43:18.000Z</time>
      </trkpt>
      <trkpt lat="49.76201" lon="4.80957">
        <ele>263</ele>
        <time>2022-09-28T06:43:19.000Z</time>
      </trkpt>
      <trkpt lat="49.76201" lon="4.80952">
        <ele>263</ele>
        <time>2022-09-28T06:43:20.000Z</time>
      </trkpt>
      <trkpt lat="49.76201" lon="4.80947">
        <ele>263</ele>
        <time>2022-09-28T06:43:21.000Z</time>
      </trkpt>
      <trkpt lat="49.762" lon="4.80942">
        <ele>263</ele>
        <time>2022-09-28T06:43:22.000Z</time>
      </trkpt>
      <trkpt lat="49.762" lon="4.80937">
        <ele>263</ele>
        <time>2022-09-28T06:43:23.000Z</time>
      </trkpt>
      <trkpt lat="49.762" lon="4.8093">
        <ele>262</ele>
        <time>2022-09-28T06:43:24.000Z</time>
      </trkpt>
      <trkpt lat="49.76201" lon="4.80924">
        <ele>262</ele>
        <time>2022-09-28T06:43:25.000Z</time>
      </trkpt>
      <trkpt lat="49.76203" lon="4.80918">
        <ele>262</ele>
        <time>2022-09-28T06:43:26.000Z</time>
      </trkpt>
      <trkpt lat="49.76206" lon="4.80915">
        <ele>262</ele>
        <time>2022-09-28T06:43:27.000Z</time>
      </trkpt>
      <trkpt lat="49.76209" lon="4.80913">
        <ele>262</ele>
        <time>2022-09-28T06:43:28.000Z</time>
      </trkpt>
      <trkpt lat="49.76211" lon="4.80911">
        <ele>262</ele>
        <time>2022-09-28T06:43:29.000Z</time>
      </trkpt>
      <trkpt lat="49.76214" lon="4.8091">
        <ele>262</ele>
        <time>2022-09-28T06:43:30.000Z</time>
      </trkpt>
      <trkpt lat="49.76217" lon="4.80909">
        <ele>262</ele>
        <time>2022-09-28T06:43:31.000Z</time>
      </trkpt>
      <trkpt lat="49.7622" lon="4.8091">
        <ele>262</ele>
        <time>2022-09-28T06:43:32.000Z</time>
      </trkpt>
      <trkpt lat="49.76222" lon="4.8091">
        <ele>262</ele>
        <time>2022-09-28T06:43:33.000Z</time>
      </trkpt>
      <trkpt lat="49.76225" lon="4.80911">
        <ele>262</ele>
        <time>2022-09-28T06:43:34.000Z</time>
      </trkpt>
      <trkpt lat="49.76227" lon="4.80912">
        <ele>262</ele>
        <time>2022-09-28T06:43:35.000Z</time>
      </trkpt>
      <trkpt lat="49.76229" lon="4.80912">
        <ele>262</ele>
        <time>2022-09-28T06:43:36.000Z</time>
      </trkpt>
      <trkpt lat="49.76232" lon="4.80913">
        <ele>262</ele>
        <time>2022-09-28T06:43:37.000Z</time>
      </trkpt>
      <trkpt lat="49.76234" lon="4.80914">
        <ele>262</ele>
        <time>2022-09-28T06:43:38.000Z</time>
      </trkpt>
      <trkpt lat="49.76236" lon="4.80915">
        <ele>262</ele>
        <time>2022-09-28T06:43:39.000Z</time>
      </trkpt>
      <trkpt lat="49.76239" lon="4.80916">
        <ele>263</ele>
        <time>2022-09-28T06:43:40.000Z</time>
      </trkpt>
      <trkpt lat="49.76241" lon="4.80917">
        <ele>263</ele>
        <time>2022-09-28T06:43:41.000Z</time>
      </trkpt>
      <trkpt lat="49.76244" lon="4.80918">
        <ele>263</ele>
        <time>2022-09-28T06:43:42.000Z</time>
      </trkpt>
      <trkpt lat="49.76246" lon="4.80919">
        <ele>263</ele>
        <time>2022-09-28T06:43:43.000Z</time>
      </trkpt>
      <trkpt lat="49.76249" lon="4.8092">
        <ele>263</ele>
        <time>2022-09-28T06:43:44.000Z</time>
      </trkpt>
      <trkpt lat="49.76251" lon="4.80921">
        <ele>263</ele>
        <time>2022-09-28T06:43:45.000Z</time>
      </trkpt>
      <trkpt lat="49.76254" lon="4.80922">
        <ele>264</ele>
        <time>2022-09-28T06:43:46.000Z</time>
      </trkpt>
      <trkpt lat="49.76256" lon="4.80923">
        <ele>264</ele>
        <time>2022-09-28T06:43:47.000Z</time>
      </trkpt>
      <trkpt lat="49.76259" lon="4.80924">
        <ele>264</ele>
        <time>2022-09-28T06:43:48.000Z</time>
      </trkpt>
      <trkpt lat="49.76261" lon="4.80925">
        <ele>264</ele>
        <time>2022-09-28T06:43:49.000Z</time>
      </trkpt>
      <trkpt lat="49.76264" lon="4.80926">
        <ele>264</ele>
        <time>2022-09-28T06:43:50.000Z</time>
      </trkpt>
      <trkpt lat="49.76266" lon="4.80927">
        <ele>264</ele>
        <time>2022-09-28T06:43:51.000Z</time>
      </trkpt>
      <trkpt lat="49.76268" lon="4.80928">
        <ele>265</ele>
        <time>2022-09-28T06:43:52.000Z</time>
      </trkpt>
      <trkpt lat="49.76271" lon="4.80929">
        <ele>265</ele>
        <time>2022-09-28T06:43:53.000Z</time>
      </trkpt>
      <trkpt lat="49.76274" lon="4.8093">
        <ele>265</ele>
        <time>2022-09-28T06:43:54.000Z</time>
      </trkpt>
      <trkpt lat="49.76276" lon="4.80932">
        <ele>265</ele>
        <time>2022-09-28T06:43:55.000Z</time>
      </trkpt>
      <trkpt lat="49.76279" lon="4.80933">
        <ele>265</ele>
        <time>2022-09-28T06:43:56.000Z</time>
      </trkpt>
      <trkpt lat="49.76281" lon="4.80934">
        <ele>266</ele>
        <time>2022-09-28T06:43:57.000Z</time>
      </trkpt>
      <trkpt lat="49.76283" lon="4.80936">
        <ele>266</ele>
        <time>2022-09-28T06:43:58.000Z</time>
      </trkpt>
      <trkpt lat="49.76286" lon="4.80937">
        <ele>266</ele>
        <time>2022-09-28T06:43:59.000Z</time>
      </trkpt>
      <trkpt lat="49.76288" lon="4.80938">
        <ele>266</ele>
        <time>2022-09-28T06:44:00.000Z</time>
      </trkpt>
      <trkpt lat="49.76291" lon="4.80939">
        <ele>266</ele>
        <time>2022-09-28T06:44:01.000Z</time>
      </trkpt>
      <trkpt lat="49.76293" lon="4.8094">
        <ele>266</ele>
        <time>2022-09-28T06:44:02.000Z</time>
      </trkpt>
      <trkpt lat="49.76295" lon="4.80941">
        <ele>267</ele>
        <time>2022-09-28T06:44:03.000Z</time>
      </trkpt>
      <trkpt lat="49.76298" lon="4.80942">
        <ele>267</ele>
        <time>2022-09-28T06:44:04.000Z</time>
      </trkpt>
      <trkpt lat="49.763" lon="4.80942">
        <ele>267</ele>
        <time>2022-09-28T06:44:05.000Z</time>
      </trkpt>
      <trkpt lat="49.76302" lon="4.80942">
        <ele>267</ele>
        <time>2022-09-28T06:44:06.000Z</time>
      </trkpt>
      <trkpt lat="49.76304" lon="4.80941">
        <ele>267</ele>
        <time>2022-09-28T06:44:07.000Z</time>
      </trkpt>
      <trkpt lat="49.76306" lon="4.80939">
        <ele>267</ele>
        <time>2022-09-28T06:44:08.000Z</time>
      </trkpt>
      <trkpt lat="49.76307" lon="4.80935">
        <ele>267</ele>
        <time>2022-09-28T06:44:09.000Z</time>
      </trkpt>
      <trkpt lat="49.76308" lon="4.80931">
        <ele>267</ele>
        <time>2022-09-28T06:44:10.000Z</time>
      </trkpt>
      <trkpt lat="49.76309" lon="4.80926">
        <ele>267</ele>
        <time>2022-09-28T06:44:11.000Z</time>
      </trkpt>
      <trkpt lat="49.76309" lon="4.80921">
        <ele>267</ele>
        <time>2022-09-28T06:44:12.000Z</time>
      </trkpt>
      <trkpt lat="49.7631" lon="4.80916">
        <ele>268</ele>
        <time>2022-09-28T06:44:13.000Z</time>
      </trkpt>
      <trkpt lat="49.7631" lon="4.80911">
        <ele>268</ele>
        <time>2022-09-28T06:44:14.000Z</time>
      </trkpt>
      <trkpt lat="49.76311" lon="4.80906">
        <ele>268</ele>
        <time>2022-09-28T06:44:15.000Z</time>
      </trkpt>
      <trkpt lat="49.76312" lon="4.80902">
        <ele>268</ele>
        <time>2022-09-28T06:44:16.000Z</time>
      </trkpt>
      <trkpt lat="49.76313" lon="4.80897">
        <ele>268</ele>
        <time>2022-09-28T06:44:17.000Z</time>
      </trkpt>
      <trkpt lat="49.76314" lon="4.80893">
        <ele>268</ele>
        <time>2022-09-28T06:44:18.000Z</time>
      </trkpt>
      <trkpt lat="49.76314" lon="4.80889">
        <ele>268</ele>
        <time>2022-09-28T06:44:19.000Z</time>
      </trkpt>
      <trkpt lat="49.76314" lon="4.80883">
        <ele>268</ele>
        <time>2022-09-28T06:44:20.000Z</time>
      </trkpt>
      <trkpt lat="49.76314" lon="4.80878">
        <ele>268</ele>
        <time>2022-09-28T06:44:21.000Z</time>
      </trkpt>
      <trkpt lat="49.76314" lon="4.80873">
        <ele>268</ele>
        <time>2022-09-28T06:44:22.000Z</time>
      </trkpt>
      <trkpt lat="49.76314" lon="4.80868">
        <ele>268</ele>
        <time>2022-09-28T06:44:23.000Z</time>
      </trkpt>
      <trkpt lat="49.76315" lon="4.80863">
        <ele>268</ele>
        <time>2022-09-28T06:44:24.000Z</time>
      </trkpt>
      <trkpt lat="49.76315" lon="4.80858">
        <ele>268</ele>
        <time>2022-09-28T06:44:25.000Z</time>
      </trkpt>
      <trkpt lat="49.76315" lon="4.80852">
        <ele>268</ele>
        <time>2022-09-28T06:44:26.000Z</time>
      </trkpt>
      <trkpt lat="49.76315" lon="4.80847">
        <ele>268</ele>
        <time>2022-09-28T06:44:27.000Z</time>
      </trkpt>
      <trkpt lat="49.76316" lon="4.80842">
        <ele>268</ele>
        <time>2022-09-28T06:44:28.000Z</time>
      </trkpt>
      <trkpt lat="49.76315" lon="4.80837">
        <ele>268</ele>
        <time>2022-09-28T06:44:29.000Z</time>
      </trkpt>
      <trkpt lat="49.76315" lon="4.80832">
        <ele>268</ele>
        <time>2022-09-28T06:44:30.000Z</time>
      </trkpt>
      <trkpt lat="49.76315" lon="4.80826">
        <ele>268</ele>
        <time>2022-09-28T06:44:31.000Z</time>
      </trkpt>
      <trkpt lat="49.76315" lon="4.8082">
        <ele>268</ele>
        <time>2022-09-28T06:44:32.000Z</time>
      </trkpt>
      <trkpt lat="49.76314" lon="4.80815">
        <ele>268</ele>
        <time>2022-09-28T06:44:33.000Z</time>
      </trkpt>
      <trkpt lat="49.76314" lon="4.80809">
        <ele>268</ele>
        <time>2022-09-28T06:44:34.000Z</time>
      </trkpt>
      <trkpt lat="49.76314" lon="4.80803">
        <ele>268</ele>
        <time>2022-09-28T06:44:35.000Z</time>
      </trkpt>
      <trkpt lat="49.76314" lon="4.80797">
        <ele>268</ele>
        <time>2022-09-28T06:44:36.000Z</time>
      </trkpt>
      <trkpt lat="49.76313" lon="4.80791">
        <ele>268</ele>
        <time>2022-09-28T06:44:37.000Z</time>
      </trkpt>
      <trkpt lat="49.76313" lon="4.80786">
        <ele>268</ele>
        <time>2022-09-28T06:44:38.000Z</time>
      </trkpt>
      <trkpt lat="49.76313" lon="4.8078">
        <ele>268</ele>
        <time>2022-09-28T06:44:39.000Z</time>
      </trkpt>
      <trkpt lat="49.76313" lon="4.80774">
        <ele>268</ele>
        <time>2022-09-28T06:44:40.000Z</time>
      </trkpt>
      <trkpt lat="49.76314" lon="4.80768">
        <ele>268</ele>
        <time>2022-09-28T06:44:41.000Z</time>
      </trkpt>
      <trkpt lat="49.76314" lon="4.80763">
        <ele>268</ele>
        <time>2022-09-28T06:44:42.000Z</time>
      </trkpt>
      <trkpt lat="49.76315" lon="4.80757">
        <ele>268</ele>
        <time>2022-09-28T06:44:43.000Z</time>
      </trkpt>
      <trkpt lat="49.76316" lon="4.80751">
        <ele>268</ele>
        <time>2022-09-28T06:44:44.000Z</time>
      </trkpt>
      <trkpt lat="49.76318" lon="4.80745">
        <ele>268</ele>
        <time>2022-09-28T06:44:45.000Z</time>
      </trkpt>
      <trkpt lat="49.76319" lon="4.80739">
        <ele>268</ele>
        <time>2022-09-28T06:44:46.000Z</time>
      </trkpt>
      <trkpt lat="49.76321" lon="4.80734">
        <ele>269</ele>
        <time>2022-09-28T06:44:47.000Z</time>
      </trkpt>
      <trkpt lat="49.76323" lon="4.80729">
        <ele>269</ele>
        <time>2022-09-28T06:44:48.000Z</time>
      </trkpt>
      <trkpt lat="49.76326" lon="4.80724">
        <ele>269</ele>
        <time>2022-09-28T06:44:49.000Z</time>
      </trkpt>
      <trkpt lat="49.76328" lon="4.80719">
        <ele>269</ele>
        <time>2022-09-28T06:44:50.000Z</time>
      </trkpt>
      <trkpt lat="49.7633" lon="4.80715">
        <ele>269</ele>
        <time>2022-09-28T06:44:51.000Z</time>
      </trkpt>
      <trkpt lat="49.76333" lon="4.80711">
        <ele>269</ele>
        <time>2022-09-28T06:44:52.000Z</time>
      </trkpt>
      <trkpt lat="49.76335" lon="4.80707">
        <ele>269</ele>
        <time>2022-09-28T06:44:53.000Z</time>
      </trkpt>
      <trkpt lat="49.76336" lon="4.80703">
        <ele>270</ele>
        <time>2022-09-28T06:44:54.000Z</time>
      </trkpt>
      <trkpt lat="49.76338" lon="4.807">
        <ele>270</ele>
        <time>2022-09-28T06:44:55.000Z</time>
      </trkpt>
      <trkpt lat="49.7634" lon="4.80696">
        <ele>270</ele>
        <time>2022-09-28T06:44:56.000Z</time>
      </trkpt>
      <trkpt lat="49.76342" lon="4.80692">
        <ele>270</ele>
        <time>2022-09-28T06:44:57.000Z</time>
      </trkpt>
      <trkpt lat="49.76343" lon="4.80687">
        <ele>269</ele>
        <time>2022-09-28T06:44:58.000Z</time>
      </trkpt>
      <trkpt lat="49.76346" lon="4.80683">
        <ele>269</ele>
        <time>2022-09-28T06:44:59.000Z</time>
      </trkpt>
      <trkpt lat="49.76348" lon="4.80678">
        <ele>269</ele>
        <time>2022-09-28T06:45:00.000Z</time>
      </trkpt>
      <trkpt lat="49.76351" lon="4.80674">
        <ele>269</ele>
        <time>2022-09-28T06:45:01.000Z</time>
      </trkpt>
      <trkpt lat="49.76354" lon="4.80669">
        <ele>269</ele>
        <time>2022-09-28T06:45:02.000Z</time>
      </trkpt>
      <trkpt lat="49.76356" lon="4.80664">
        <ele>269</ele>
        <time>2022-09-28T06:45:03.000Z</time>
      </trkpt>
      <trkpt lat="49.7636" lon="4.8066">
        <ele>269</ele>
        <time>2022-09-28T06:45:04.000Z</time>
      </trkpt>
      <trkpt lat="49.76363" lon="4.80655">
        <ele>269</ele>
        <time>2022-09-28T06:45:05.000Z</time>
      </trkpt>
      <trkpt lat="49.76367" lon="4.80652">
        <ele>269</ele>
        <time>2022-09-28T06:45:06.000Z</time>
      </trkpt>
      <trkpt lat="49.76371" lon="4.80648">
        <ele>269</ele>
        <time>2022-09-28T06:45:07.000Z</time>
      </trkpt>
      <trkpt lat="49.76375" lon="4.80645">
        <ele>269</ele>
        <time>2022-09-28T06:45:08.000Z</time>
      </trkpt>
      <trkpt lat="49.76379" lon="4.80641">
        <ele>270</ele>
        <time>2022-09-28T06:45:09.000Z</time>
      </trkpt>
      <trkpt lat="49.76383" lon="4.80638">
        <ele>270</ele>
        <time>2022-09-28T06:45:10.000Z</time>
      </trkpt>
      <trkpt lat="49.76387" lon="4.80635">
        <ele>270</ele>
        <time>2022-09-28T06:45:11.000Z</time>
      </trkpt>
      <trkpt lat="49.76391" lon="4.80632">
        <ele>270</ele>
        <time>2022-09-28T06:45:12.000Z</time>
      </trkpt>
      <trkpt lat="49.76395" lon="4.80629">
        <ele>270</ele>
        <time>2022-09-28T06:45:13.000Z</time>
      </trkpt>
      <trkpt lat="49.764" lon="4.80626">
        <ele>270</ele>
        <time>2022-09-28T06:45:14.000Z</time>
      </trkpt>
      <trkpt lat="49.76405" lon="4.80623">
        <ele>270</ele>
        <time>2022-09-28T06:45:15.000Z</time>
      </trkpt>
      <trkpt lat="49.7641" lon="4.80619">
        <ele>270</ele>
        <time>2022-09-28T06:45:16.000Z</time>
      </trkpt>
      <trkpt lat="49.76415" lon="4.80616">
        <ele>270</ele>
        <time>2022-09-28T06:45:17.000Z</time>
      </trkpt>
      <trkpt lat="49.7642" lon="4.80613">
        <ele>271</ele>
        <time>2022-09-28T06:45:18.000Z</time>
      </trkpt>
      <trkpt lat="49.76425" lon="4.80609">
        <ele>271</ele>
        <time>2022-09-28T06:45:19.000Z</time>
      </trkpt>
      <trkpt lat="49.7643" lon="4.80606">
        <ele>271</ele>
        <time>2022-09-28T06:45:20.000Z</time>
      </trkpt>
      <trkpt lat="49.76435" lon="4.80603">
        <ele>271</ele>
        <time>2022-09-28T06:45:21.000Z</time>
      </trkpt>
      <trkpt lat="49.7644" lon="4.80599">
        <ele>271</ele>
        <time>2022-09-28T06:45:22.000Z</time>
      </trkpt>
      <trkpt lat="49.76444" lon="4.80596">
        <ele>271</ele>
        <time>2022-09-28T06:45:23.000Z</time>
      </trkpt>
      <trkpt lat="49.76448" lon="4.80593">
        <ele>271</ele>
        <time>2022-09-28T06:45:24.000Z</time>
      </trkpt>
      <trkpt lat="49.76453" lon="4.80589">
        <ele>271</ele>
        <time>2022-09-28T06:45:25.000Z</time>
      </trkpt>
      <trkpt lat="49.76457" lon="4.80586">
        <ele>271</ele>
        <time>2022-09-28T06:45:26.000Z</time>
      </trkpt>
      <trkpt lat="49.76462" lon="4.80583">
        <ele>271</ele>
        <time>2022-09-28T06:45:27.000Z</time>
      </trkpt>
      <trkpt lat="49.76466" lon="4.80579">
        <ele>271</ele>
        <time>2022-09-28T06:45:28.000Z</time>
      </trkpt>
      <trkpt lat="49.7647" lon="4.80576">
        <ele>271</ele>
        <time>2022-09-28T06:45:29.000Z</time>
      </trkpt>
      <trkpt lat="49.76473" lon="4.80572">
        <ele>270</ele>
        <time>2022-09-28T06:45:30.000Z</time>
      </trkpt>
      <trkpt lat="49.76477" lon="4.80569">
        <ele>270</ele>
        <time>2022-09-28T06:45:31.000Z</time>
      </trkpt>
      <trkpt lat="49.7648" lon="4.80566">
        <ele>270</ele>
        <time>2022-09-28T06:45:32.000Z</time>
      </trkpt>
      <trkpt lat="49.76484" lon="4.80563">
        <ele>270</ele>
        <time>2022-09-28T06:45:33.000Z</time>
      </trkpt>
      <trkpt lat="49.76487" lon="4.8056">
        <ele>270</ele>
        <time>2022-09-28T06:45:34.000Z</time>
      </trkpt>
      <trkpt lat="49.7649" lon="4.80557">
        <ele>270</ele>
        <time>2022-09-28T06:45:35.000Z</time>
      </trkpt>
      <trkpt lat="49.76493" lon="4.80554">
        <ele>270</ele>
        <time>2022-09-28T06:45:36.000Z</time>
      </trkpt>
      <trkpt lat="49.76497" lon="4.8055">
        <ele>270</ele>
        <time>2022-09-28T06:45:37.000Z</time>
      </trkpt>
      <trkpt lat="49.765" lon="4.80547">
        <ele>270</ele>
        <time>2022-09-28T06:45:38.000Z</time>
      </trkpt>
      <trkpt lat="49.76503" lon="4.80544">
        <ele>270</ele>
        <time>2022-09-28T06:45:39.000Z</time>
      </trkpt>
      <trkpt lat="49.76506" lon="4.80542">
        <ele>270</ele>
        <time>2022-09-28T06:45:40.000Z</time>
      </trkpt>
      <trkpt lat="49.76508" lon="4.8054">
        <ele>270</ele>
        <time>2022-09-28T06:45:41.000Z</time>
      </trkpt>
      <trkpt lat="49.76511" lon="4.80538">
        <ele>270</ele>
        <time>2022-09-28T06:45:42.000Z</time>
      </trkpt>
      <trkpt lat="49.76513" lon="4.80535">
        <ele>270</ele>
        <time>2022-09-28T06:45:43.000Z</time>
      </trkpt>
      <trkpt lat="49.76515" lon="4.80533">
        <ele>270</ele>
        <time>2022-09-28T06:45:44.000Z</time>
      </trkpt>
      <trkpt lat="49.76517" lon="4.80531">
        <ele>270</ele>
        <time>2022-09-28T06:45:45.000Z</time>
      </trkpt>
      <trkpt lat="49.76519" lon="4.80528">
        <ele>270</ele>
        <time>2022-09-28T06:45:46.000Z</time>
      </trkpt>
      <trkpt lat="49.76522" lon="4.80525">
        <ele>270</ele>
        <time>2022-09-28T06:45:47.000Z</time>
      </trkpt>
      <trkpt lat="49.76525" lon="4.80523">
        <ele>270</ele>
        <time>2022-09-28T06:45:48.000Z</time>
      </trkpt>
      <trkpt lat="49.76527" lon="4.80521">
        <ele>270</ele>
        <time>2022-09-28T06:45:49.000Z</time>
      </trkpt>
      <trkpt lat="49.76531" lon="4.8052">
        <ele>270</ele>
        <time>2022-09-28T06:45:50.000Z</time>
      </trkpt>
      <trkpt lat="49.76535" lon="4.8052">
        <ele>270</ele>
        <time>2022-09-28T06:45:51.000Z</time>
      </trkpt>
      <trkpt lat="49.7654" lon="4.8052">
        <ele>270</ele>
        <time>2022-09-28T06:45:52.000Z</time>
      </trkpt>
      <trkpt lat="49.76544" lon="4.80519">
        <ele>270</ele>
        <time>2022-09-28T06:45:53.000Z</time>
      </trkpt>
      <trkpt lat="49.76548" lon="4.80517">
        <ele>270</ele>
        <time>2022-09-28T06:45:54.000Z</time>
      </trkpt>
      <trkpt lat="49.76552" lon="4.80517">
        <ele>270</ele>
        <time>2022-09-28T06:45:55.000Z</time>
      </trkpt>
      <trkpt lat="49.76555" lon="4.80516">
        <ele>270</ele>
        <time>2022-09-28T06:45:56.000Z</time>
      </trkpt>
      <trkpt lat="49.76559" lon="4.80515">
        <ele>270</ele>
        <time>2022-09-28T06:45:57.000Z</time>
      </trkpt>
      <trkpt lat="49.76562" lon="4.80514">
        <ele>270</ele>
        <time>2022-09-28T06:45:58.000Z</time>
      </trkpt>
      <trkpt lat="49.76565" lon="4.80513">
        <ele>270</ele>
        <time>2022-09-28T06:45:59.000Z</time>
      </trkpt>
      <trkpt lat="49.76568" lon="4.80512">
        <ele>270</ele>
        <time>2022-09-28T06:46:00.000Z</time>
      </trkpt>
      <trkpt lat="49.76571" lon="4.80511">
        <ele>271</ele>
        <time>2022-09-28T06:46:01.000Z</time>
      </trkpt>
      <trkpt lat="49.76575" lon="4.8051">
        <ele>271</ele>
        <time>2022-09-28T06:46:02.000Z</time>
      </trkpt>
      <trkpt lat="49.76578" lon="4.80509">
        <ele>271</ele>
        <time>2022-09-28T06:46:03.000Z</time>
      </trkpt>
      <trkpt lat="49.76582" lon="4.80507">
        <ele>271</ele>
        <time>2022-09-28T06:46:04.000Z</time>
      </trkpt>
      <trkpt lat="49.76585" lon="4.80505">
        <ele>271</ele>
        <time>2022-09-28T06:46:05.000Z</time>
      </trkpt>
      <trkpt lat="49.76588" lon="4.80503">
        <ele>271</ele>
        <time>2022-09-28T06:46:06.000Z</time>
      </trkpt>
      <trkpt lat="49.76591" lon="4.80502">
        <ele>271</ele>
        <time>2022-09-28T06:46:07.000Z</time>
      </trkpt>
      <trkpt lat="49.76594" lon="4.80501">
        <ele>271</ele>
        <time>2022-09-28T06:46:08.000Z</time>
      </trkpt>
      <trkpt lat="49.76596" lon="4.80499">
        <ele>271</ele>
        <time>2022-09-28T06:46:09.000Z</time>
      </trkpt>
      <trkpt lat="49.76598" lon="4.80498">
        <ele>271</ele>
        <time>2022-09-28T06:46:10.000Z</time>
      </trkpt>
      <trkpt lat="49.76601" lon="4.80497">
        <ele>272</ele>
        <time>2022-09-28T06:46:11.000Z</time>
      </trkpt>
      <trkpt lat="49.76603" lon="4.80496">
        <ele>272</ele>
        <time>2022-09-28T06:46:12.000Z</time>
      </trkpt>
      <trkpt lat="49.76606" lon="4.80496">
        <ele>272</ele>
        <time>2022-09-28T06:46:13.000Z</time>
      </trkpt>
      <trkpt lat="49.76609" lon="4.80494">
        <ele>272</ele>
        <time>2022-09-28T06:46:14.000Z</time>
      </trkpt>
      <trkpt lat="49.76611" lon="4.80492">
        <ele>272</ele>
        <time>2022-09-28T06:46:15.000Z</time>
      </trkpt>
      <trkpt lat="49.76615" lon="4.80489">
        <ele>272</ele>
        <time>2022-09-28T06:46:16.000Z</time>
      </trkpt>
      <trkpt lat="49.76618" lon="4.80487">
        <ele>273</ele>
        <time>2022-09-28T06:46:17.000Z</time>
      </trkpt>
      <trkpt lat="49.76622" lon="4.80485">
        <ele>273</ele>
        <time>2022-09-28T06:46:18.000Z</time>
      </trkpt>
      <trkpt lat="49.76625" lon="4.80484">
        <ele>273</ele>
        <time>2022-09-28T06:46:19.000Z</time>
      </trkpt>
      <trkpt lat="49.76628" lon="4.80483">
        <ele>273</ele>
        <time>2022-09-28T06:46:20.000Z</time>
      </trkpt>
      <trkpt lat="49.76632" lon="4.80482">
        <ele>274</ele>
        <time>2022-09-28T06:46:21.000Z</time>
      </trkpt>
      <trkpt lat="49.76634" lon="4.80481">
        <ele>274</ele>
        <time>2022-09-28T06:46:22.000Z</time>
      </trkpt>
      <trkpt lat="49.76637" lon="4.8048">
        <ele>274</ele>
        <time>2022-09-28T06:46:23.000Z</time>
      </trkpt>
      <trkpt lat="49.76639" lon="4.80478">
        <ele>274</ele>
        <time>2022-09-28T06:46:24.000Z</time>
      </trkpt>
      <trkpt lat="49.76643" lon="4.80477">
        <ele>275</ele>
        <time>2022-09-28T06:46:25.000Z</time>
      </trkpt>
      <trkpt lat="49.76646" lon="4.80475">
        <ele>275</ele>
        <time>2022-09-28T06:46:26.000Z</time>
      </trkpt>
      <trkpt lat="49.76649" lon="4.80475">
        <ele>275</ele>
        <time>2022-09-28T06:46:27.000Z</time>
      </trkpt>
      <trkpt lat="49.76652" lon="4.80474">
        <ele>275</ele>
        <time>2022-09-28T06:46:28.000Z</time>
      </trkpt>
      <trkpt lat="49.76656" lon="4.80474">
        <ele>276</ele>
        <time>2022-09-28T06:46:29.000Z</time>
      </trkpt>
      <trkpt lat="49.7666" lon="4.80475">
        <ele>276</ele>
        <time>2022-09-28T06:46:30.000Z</time>
      </trkpt>
      <trkpt lat="49.76664" lon="4.80475">
        <ele>276</ele>
        <time>2022-09-28T06:46:31.000Z</time>
      </trkpt>
      <trkpt lat="49.76667" lon="4.80475">
        <ele>276</ele>
        <time>2022-09-28T06:46:32.000Z</time>
      </trkpt>
      <trkpt lat="49.76671" lon="4.80475">
        <ele>277</ele>
        <time>2022-09-28T06:46:33.000Z</time>
      </trkpt>
      <trkpt lat="49.76674" lon="4.80476">
        <ele>277</ele>
        <time>2022-09-28T06:46:34.000Z</time>
      </trkpt>
      <trkpt lat="49.76677" lon="4.80477">
        <ele>277</ele>
        <time>2022-09-28T06:46:35.000Z</time>
      </trkpt>
      <trkpt lat="49.7668" lon="4.80478">
        <ele>277</ele>
        <time>2022-09-28T06:46:36.000Z</time>
      </trkpt>
      <trkpt lat="49.76684" lon="4.80478">
        <ele>278</ele>
        <time>2022-09-28T06:46:37.000Z</time>
      </trkpt>
      <trkpt lat="49.76687" lon="4.80478">
        <ele>278</ele>
        <time>2022-09-28T06:46:38.000Z</time>
      </trkpt>
      <trkpt lat="49.7669" lon="4.80477">
        <ele>278</ele>
        <time>2022-09-28T06:46:39.000Z</time>
      </trkpt>
      <trkpt lat="49.76694" lon="4.80476">
        <ele>278</ele>
        <time>2022-09-28T06:46:40.000Z</time>
      </trkpt>
      <trkpt lat="49.76698" lon="4.80475">
        <ele>278</ele>
        <time>2022-09-28T06:46:41.000Z</time>
      </trkpt>
      <trkpt lat="49.76702" lon="4.80474">
        <ele>278</ele>
        <time>2022-09-28T06:46:42.000Z</time>
      </trkpt>
      <trkpt lat="49.76705" lon="4.80472">
        <ele>278</ele>
        <time>2022-09-28T06:46:43.000Z</time>
      </trkpt>
      <trkpt lat="49.76709" lon="4.80471">
        <ele>278</ele>
        <time>2022-09-28T06:46:44.000Z</time>
      </trkpt>
      <trkpt lat="49.76713" lon="4.8047">
        <ele>278</ele>
        <time>2022-09-28T06:46:45.000Z</time>
      </trkpt>
      <trkpt lat="49.76718" lon="4.80469">
        <ele>278</ele>
        <time>2022-09-28T06:46:46.000Z</time>
      </trkpt>
      <trkpt lat="49.76722" lon="4.80468">
        <ele>278</ele>
        <time>2022-09-28T06:46:47.000Z</time>
      </trkpt>
      <trkpt lat="49.76726" lon="4.80466">
        <ele>279</ele>
        <time>2022-09-28T06:46:48.000Z</time>
      </trkpt>
      <trkpt lat="49.7673" lon="4.80465">
        <ele>279</ele>
        <time>2022-09-28T06:46:49.000Z</time>
      </trkpt>
      <trkpt lat="49.76734" lon="4.80464">
        <ele>279</ele>
        <time>2022-09-28T06:46:50.000Z</time>
      </trkpt>
      <trkpt lat="49.76739" lon="4.80463">
        <ele>279</ele>
        <time>2022-09-28T06:46:51.000Z</time>
      </trkpt>
      <trkpt lat="49.76743" lon="4.80462">
        <ele>279</ele>
        <time>2022-09-28T06:46:52.000Z</time>
      </trkpt>
      <trkpt lat="49.76747" lon="4.80461">
        <ele>279</ele>
        <time>2022-09-28T06:46:53.000Z</time>
      </trkpt>
      <trkpt lat="49.76751" lon="4.8046">
        <ele>279</ele>
        <time>2022-09-28T06:46:54.000Z</time>
      </trkpt>
      <trkpt lat="49.76756" lon="4.8046">
        <ele>279</ele>
        <time>2022-09-28T06:46:55.000Z</time>
      </trkpt>
      <trkpt lat="49.7676" lon="4.80461">
        <ele>279</ele>
        <time>2022-09-28T06:46:56.000Z</time>
      </trkpt>
      <trkpt lat="49.76764" lon="4.8046">
        <ele>279</ele>
        <time>2022-09-28T06:46:57.000Z</time>
      </trkpt>
      <trkpt lat="49.76769" lon="4.80459">
        <ele>279</ele>
        <time>2022-09-28T06:46:58.000Z</time>
      </trkpt>
      <trkpt lat="49.76773" lon="4.80458">
        <ele>279</ele>
        <time>2022-09-28T06:46:59.000Z</time>
      </trkpt>
      <trkpt lat="49.76777" lon="4.80457">
        <ele>279</ele>
        <time>2022-09-28T06:47:00.000Z</time>
      </trkpt>
      <trkpt lat="49.76781" lon="4.80456">
        <ele>279</ele>
        <time>2022-09-28T06:47:01.000Z</time>
      </trkpt>
      <trkpt lat="49.76785" lon="4.80454">
        <ele>279</ele>
        <time>2022-09-28T06:47:02.000Z</time>
      </trkpt>
      <trkpt lat="49.76789" lon="4.80453">
        <ele>279</ele>
        <time>2022-09-28T06:47:03.000Z</time>
      </trkpt>
      <trkpt lat="49.76794" lon="4.80452">
        <ele>279</ele>
        <time>2022-09-28T06:47:04.000Z</time>
      </trkpt>
      <trkpt lat="49.76798" lon="4.80451">
        <ele>279</ele>
        <time>2022-09-28T06:47:05.000Z</time>
      </trkpt>
      <trkpt lat="49.76802" lon="4.80449">
        <ele>279</ele>
        <time>2022-09-28T06:47:06.000Z</time>
      </trkpt>
      <trkpt lat="49.76805" lon="4.80447">
        <ele>279</ele>
        <time>2022-09-28T06:47:07.000Z</time>
      </trkpt>
      <trkpt lat="49.76809" lon="4.80445">
        <ele>279</ele>
        <time>2022-09-28T06:47:08.000Z</time>
      </trkpt>
      <trkpt lat="49.76812" lon="4.80443">
        <ele>279</ele>
        <time>2022-09-28T06:47:09.000Z</time>
      </trkpt>
      <trkpt lat="49.76816" lon="4.80441">
        <ele>279</ele>
        <time>2022-09-28T06:47:10.000Z</time>
      </trkpt>
      <trkpt lat="49.76819" lon="4.80438">
        <ele>279</ele>
        <time>2022-09-28T06:47:11.000Z</time>
      </trkpt>
      <trkpt lat="49.76823" lon="4.80435">
        <ele>279</ele>
        <time>2022-09-28T06:47:12.000Z</time>
      </trkpt>
      <trkpt lat="49.76827" lon="4.80432">
        <ele>279</ele>
        <time>2022-09-28T06:47:13.000Z</time>
      </trkpt>
      <trkpt lat="49.76831" lon="4.80429">
        <ele>279</ele>
        <time>2022-09-28T06:47:14.000Z</time>
      </trkpt>
      <trkpt lat="49.76834" lon="4.80426">
        <ele>279</ele>
        <time>2022-09-28T06:47:15.000Z</time>
      </trkpt>
      <trkpt lat="49.76838" lon="4.80422">
        <ele>278</ele>
        <time>2022-09-28T06:47:16.000Z</time>
      </trkpt>
      <trkpt lat="49.76841" lon="4.80419">
        <ele>278</ele>
        <time>2022-09-28T06:47:17.000Z</time>
      </trkpt>
      <trkpt lat="49.76845" lon="4.80416">
        <ele>278</ele>
        <time>2022-09-28T06:47:18.000Z</time>
      </trkpt>
      <trkpt lat="49.76849" lon="4.80413">
        <ele>278</ele>
        <time>2022-09-28T06:47:19.000Z</time>
      </trkpt>
      <trkpt lat="49.76853" lon="4.80411">
        <ele>278</ele>
        <time>2022-09-28T06:47:20.000Z</time>
      </trkpt>
      <trkpt lat="49.76857" lon="4.80408">
        <ele>277</ele>
        <time>2022-09-28T06:47:21.000Z</time>
      </trkpt>
      <trkpt lat="49.76861" lon="4.80406">
        <ele>277</ele>
        <time>2022-09-28T06:47:22.000Z</time>
      </trkpt>
      <trkpt lat="49.76864" lon="4.80404">
        <ele>277</ele>
        <time>2022-09-28T06:47:23.000Z</time>
      </trkpt>
      <trkpt lat="49.76868" lon="4.80401">
        <ele>277</ele>
        <time>2022-09-28T06:47:24.000Z</time>
      </trkpt>
      <trkpt lat="49.76872" lon="4.80399">
        <ele>277</ele>
        <time>2022-09-28T06:47:25.000Z</time>
      </trkpt>
      <trkpt lat="49.76876" lon="4.80397">
        <ele>277</ele>
        <time>2022-09-28T06:47:26.000Z</time>
      </trkpt>
      <trkpt lat="49.7688" lon="4.80395">
        <ele>277</ele>
        <time>2022-09-28T06:47:27.000Z</time>
      </trkpt>
      <trkpt lat="49.76884" lon="4.80393">
        <ele>277</ele>
        <time>2022-09-28T06:47:28.000Z</time>
      </trkpt>
      <trkpt lat="49.76887" lon="4.80391">
        <ele>277</ele>
        <time>2022-09-28T06:47:29.000Z</time>
      </trkpt>
      <trkpt lat="49.76891" lon="4.80389">
        <ele>277</ele>
        <time>2022-09-28T06:47:30.000Z</time>
      </trkpt>
      <trkpt lat="49.76895" lon="4.80386">
        <ele>277</ele>
        <time>2022-09-28T06:47:31.000Z</time>
      </trkpt>
      <trkpt lat="49.76899" lon="4.80382">
        <ele>277</ele>
        <time>2022-09-28T06:47:32.000Z</time>
      </trkpt>
      <trkpt lat="49.76902" lon="4.80378">
        <ele>277</ele>
        <time>2022-09-28T06:47:33.000Z</time>
      </trkpt>
      <trkpt lat="49.76906" lon="4.80373">
        <ele>277</ele>
        <time>2022-09-28T06:47:34.000Z</time>
      </trkpt>
      <trkpt lat="49.7691" lon="4.80368">
        <ele>277</ele>
        <time>2022-09-28T06:47:35.000Z</time>
      </trkpt>
      <trkpt lat="49.76913" lon="4.80364">
        <ele>277</ele>
        <time>2022-09-28T06:47:36.000Z</time>
      </trkpt>
      <trkpt lat="49.76916" lon="4.80359">
        <ele>277</ele>
        <time>2022-09-28T06:47:37.000Z</time>
      </trkpt>
      <trkpt lat="49.76919" lon="4.80355">
        <ele>278</ele>
        <time>2022-09-28T06:47:38.000Z</time>
      </trkpt>
      <trkpt lat="49.76922" lon="4.8035">
        <ele>278</ele>
        <time>2022-09-28T06:47:39.000Z</time>
      </trkpt>
      <trkpt lat="49.76926" lon="4.80346">
        <ele>278</ele>
        <time>2022-09-28T06:47:40.000Z</time>
      </trkpt>
      <trkpt lat="49.76929" lon="4.80343">
        <ele>278</ele>
        <time>2022-09-28T06:47:41.000Z</time>
      </trkpt>
      <trkpt lat="49.76933" lon="4.8034">
        <ele>278</ele>
        <time>2022-09-28T06:47:42.000Z</time>
      </trkpt>
      <trkpt lat="49.76936" lon="4.80337">
        <ele>278</ele>
        <time>2022-09-28T06:47:43.000Z</time>
      </trkpt>
      <trkpt lat="49.76939" lon="4.80334">
        <ele>278</ele>
        <time>2022-09-28T06:47:44.000Z</time>
      </trkpt>
      <trkpt lat="49.76942" lon="4.80332">
        <ele>279</ele>
        <time>2022-09-28T06:47:45.000Z</time>
      </trkpt>
      <trkpt lat="49.76944" lon="4.80329">
        <ele>279</ele>
        <time>2022-09-28T06:47:46.000Z</time>
      </trkpt>
      <trkpt lat="49.76946" lon="4.80326">
        <ele>279</ele>
        <time>2022-09-28T06:47:47.000Z</time>
      </trkpt>
      <trkpt lat="49.76948" lon="4.80323">
        <ele>279</ele>
        <time>2022-09-28T06:47:48.000Z</time>
      </trkpt>
      <trkpt lat="49.76951" lon="4.8032">
        <ele>279</ele>
        <time>2022-09-28T06:47:49.000Z</time>
      </trkpt>
      <trkpt lat="49.76953" lon="4.80318">
        <ele>280</ele>
        <time>2022-09-28T06:47:50.000Z</time>
      </trkpt>
      <trkpt lat="49.76955" lon="4.80315">
        <ele>280</ele>
        <time>2022-09-28T06:47:51.000Z</time>
      </trkpt>
      <trkpt lat="49.76957" lon="4.80313">
        <ele>280</ele>
        <time>2022-09-28T06:47:52.000Z</time>
      </trkpt>
      <trkpt lat="49.76958" lon="4.80311">
        <ele>280</ele>
        <time>2022-09-28T06:47:53.000Z</time>
      </trkpt>
      <trkpt lat="49.7696" lon="4.80309">
        <ele>280</ele>
        <time>2022-09-28T06:47:54.000Z</time>
      </trkpt>
      <trkpt lat="49.76962" lon="4.80306">
        <ele>281</ele>
        <time>2022-09-28T06:47:55.000Z</time>
      </trkpt>
      <trkpt lat="49.76964" lon="4.80303">
        <ele>281</ele>
        <time>2022-09-28T06:47:56.000Z</time>
      </trkpt>
      <trkpt lat="49.76966" lon="4.803">
        <ele>281</ele>
        <time>2022-09-28T06:47:57.000Z</time>
      </trkpt>
      <trkpt lat="49.76968" lon="4.80297">
        <ele>281</ele>
        <time>2022-09-28T06:47:58.000Z</time>
      </trkpt>
      <trkpt lat="49.7697" lon="4.80294">
        <ele>281</ele>
        <time>2022-09-28T06:47:59.000Z</time>
      </trkpt>
      <trkpt lat="49.76971" lon="4.8029">
        <ele>281</ele>
        <time>2022-09-28T06:48:00.000Z</time>
      </trkpt>
      <trkpt lat="49.76972" lon="4.80287">
        <ele>281</ele>
        <time>2022-09-28T06:48:01.000Z</time>
      </trkpt>
      <trkpt lat="49.76974" lon="4.80284">
        <ele>281</ele>
        <time>2022-09-28T06:48:02.000Z</time>
      </trkpt>
      <trkpt lat="49.76976" lon="4.80282">
        <ele>281</ele>
        <time>2022-09-28T06:48:03.000Z</time>
      </trkpt>
      <trkpt lat="49.76978" lon="4.80279">
        <ele>282</ele>
        <time>2022-09-28T06:48:04.000Z</time>
      </trkpt>
      <trkpt lat="49.7698" lon="4.80276">
        <ele>282</ele>
        <time>2022-09-28T06:48:05.000Z</time>
      </trkpt>
      <trkpt lat="49.76982" lon="4.80273">
        <ele>282</ele>
        <time>2022-09-28T06:48:06.000Z</time>
      </trkpt>
      <trkpt lat="49.76983" lon="4.80271">
        <ele>282</ele>
        <time>2022-09-28T06:48:07.000Z</time>
      </trkpt>
      <trkpt lat="49.76985" lon="4.80268">
        <ele>282</ele>
        <time>2022-09-28T06:48:08.000Z</time>
      </trkpt>
      <trkpt lat="49.76987" lon="4.80266">
        <ele>283</ele>
        <time>2022-09-28T06:48:09.000Z</time>
      </trkpt>
      <trkpt lat="49.7699" lon="4.80263">
        <ele>283</ele>
        <time>2022-09-28T06:48:10.000Z</time>
      </trkpt>
      <trkpt lat="49.76992" lon="4.80261">
        <ele>283</ele>
        <time>2022-09-28T06:48:11.000Z</time>
      </trkpt>
      <trkpt lat="49.76994" lon="4.80257">
        <ele>283</ele>
        <time>2022-09-28T06:48:12.000Z</time>
      </trkpt>
      <trkpt lat="49.76996" lon="4.80255">
        <ele>284</ele>
        <time>2022-09-28T06:48:13.000Z</time>
      </trkpt>
      <trkpt lat="49.76999" lon="4.80252">
        <ele>284</ele>
        <time>2022-09-28T06:48:14.000Z</time>
      </trkpt>
      <trkpt lat="49.77001" lon="4.8025">
        <ele>284</ele>
        <time>2022-09-28T06:48:15.000Z</time>
      </trkpt>
      <trkpt lat="49.77004" lon="4.80247">
        <ele>284</ele>
        <time>2022-09-28T06:48:16.000Z</time>
      </trkpt>
      <trkpt lat="49.77006" lon="4.80243">
        <ele>285</ele>
        <time>2022-09-28T06:48:17.000Z</time>
      </trkpt>
      <trkpt lat="49.77009" lon="4.8024">
        <ele>285</ele>
        <time>2022-09-28T06:48:18.000Z</time>
      </trkpt>
      <trkpt lat="49.77011" lon="4.80237">
        <ele>285</ele>
        <time>2022-09-28T06:48:19.000Z</time>
      </trkpt>
      <trkpt lat="49.77013" lon="4.80234">
        <ele>285</ele>
        <time>2022-09-28T06:48:20.000Z</time>
      </trkpt>
      <trkpt lat="49.77015" lon="4.80231">
        <ele>286</ele>
        <time>2022-09-28T06:48:21.000Z</time>
      </trkpt>
      <trkpt lat="49.77018" lon="4.80228">
        <ele>286</ele>
        <time>2022-09-28T06:48:22.000Z</time>
      </trkpt>
      <trkpt lat="49.77021" lon="4.80226">
        <ele>286</ele>
        <time>2022-09-28T06:48:23.000Z</time>
      </trkpt>
      <trkpt lat="49.77023" lon="4.80224">
        <ele>286</ele>
        <time>2022-09-28T06:48:24.000Z</time>
      </trkpt>
      <trkpt lat="49.77026" lon="4.80222">
        <ele>286</ele>
        <time>2022-09-28T06:48:25.000Z</time>
      </trkpt>
      <trkpt lat="49.77029" lon="4.8022">
        <ele>286</ele>
        <time>2022-09-28T06:48:26.000Z</time>
      </trkpt>
      <trkpt lat="49.77031" lon="4.80218">
        <ele>286</ele>
        <time>2022-09-28T06:48:27.000Z</time>
      </trkpt>
      <trkpt lat="49.77034" lon="4.80216">
        <ele>286</ele>
        <time>2022-09-28T06:48:28.000Z</time>
      </trkpt>
      <trkpt lat="49.77036" lon="4.80213">
        <ele>286</ele>
        <time>2022-09-28T06:48:29.000Z</time>
      </trkpt>
      <trkpt lat="49.77038" lon="4.8021">
        <ele>287</ele>
        <time>2022-09-28T06:48:30.000Z</time>
      </trkpt>
      <trkpt lat="49.77041" lon="4.80208">
        <ele>287</ele>
        <time>2022-09-28T06:48:31.000Z</time>
      </trkpt>
      <trkpt lat="49.77043" lon="4.80205">
        <ele>287</ele>
        <time>2022-09-28T06:48:32.000Z</time>
      </trkpt>
      <trkpt lat="49.77045" lon="4.80202">
        <ele>287</ele>
        <time>2022-09-28T06:48:33.000Z</time>
      </trkpt>
      <trkpt lat="49.77046" lon="4.80198">
        <ele>287</ele>
        <time>2022-09-28T06:48:34.000Z</time>
      </trkpt>
      <trkpt lat="49.77048" lon="4.80194">
        <ele>287</ele>
        <time>2022-09-28T06:48:35.000Z</time>
      </trkpt>
      <trkpt lat="49.7705" lon="4.8019">
        <ele>287</ele>
        <time>2022-09-28T06:48:36.000Z</time>
      </trkpt>
      <trkpt lat="49.77051" lon="4.80187">
        <ele>287</ele>
        <time>2022-09-28T06:48:37.000Z</time>
      </trkpt>
      <trkpt lat="49.77053" lon="4.80183">
        <ele>287</ele>
        <time>2022-09-28T06:48:38.000Z</time>
      </trkpt>
      <trkpt lat="49.77055" lon="4.80179">
        <ele>288</ele>
        <time>2022-09-28T06:48:39.000Z</time>
      </trkpt>
      <trkpt lat="49.77057" lon="4.80175">
        <ele>288</ele>
        <time>2022-09-28T06:48:40.000Z</time>
      </trkpt>
      <trkpt lat="49.77059" lon="4.8017">
        <ele>288</ele>
        <time>2022-09-28T06:48:41.000Z</time>
      </trkpt>
      <trkpt lat="49.77061" lon="4.80166">
        <ele>288</ele>
        <time>2022-09-28T06:48:42.000Z</time>
      </trkpt>
      <trkpt lat="49.77064" lon="4.80163">
        <ele>288</ele>
        <time>2022-09-28T06:48:43.000Z</time>
      </trkpt>
      <trkpt lat="49.77066" lon="4.8016">
        <ele>288</ele>
        <time>2022-09-28T06:48:44.000Z</time>
      </trkpt>
      <trkpt lat="49.77069" lon="4.80158">
        <ele>288</ele>
        <time>2022-09-28T06:48:45.000Z</time>
      </trkpt>
      <trkpt lat="49.77072" lon="4.80157">
        <ele>289</ele>
        <time>2022-09-28T06:48:46.000Z</time>
      </trkpt>
      <trkpt lat="49.77075" lon="4.80158">
        <ele>289</ele>
        <time>2022-09-28T06:48:47.000Z</time>
      </trkpt>
      <trkpt lat="49.77078" lon="4.80159">
        <ele>289</ele>
        <time>2022-09-28T06:48:48.000Z</time>
      </trkpt>
      <trkpt lat="49.77081" lon="4.80161">
        <ele>289</ele>
        <time>2022-09-28T06:48:49.000Z</time>
      </trkpt>
      <trkpt lat="49.77084" lon="4.80162">
        <ele>289</ele>
        <time>2022-09-28T06:48:50.000Z</time>
      </trkpt>
      <trkpt lat="49.77086" lon="4.80164">
        <ele>290</ele>
        <time>2022-09-28T06:48:51.000Z</time>
      </trkpt>
      <trkpt lat="49.77088" lon="4.80165">
        <ele>290</ele>
        <time>2022-09-28T06:48:52.000Z</time>
      </trkpt>
      <trkpt lat="49.77089" lon="4.80165">
        <ele>290</ele>
        <time>2022-09-28T06:48:53.000Z</time>
      </trkpt>
      <trkpt lat="49.77089" lon="4.80165">
        <ele>290</ele>
        <time>2022-09-28T06:48:54.000Z</time>
      </trkpt>
      <trkpt lat="49.77089" lon="4.80165">
        <ele>290</ele>
        <time>2022-09-28T06:48:55.000Z</time>
      </trkpt>
      <trkpt lat="49.7709" lon="4.80165">
        <ele>291</ele>
        <time>2022-09-28T06:48:56.000Z</time>
      </trkpt>
      <trkpt lat="49.7709" lon="4.80164">
        <ele>291</ele>
        <time>2022-09-28T06:48:57.000Z</time>
      </trkpt>
      <trkpt lat="49.7709" lon="4.80164">
        <ele>291</ele>
        <time>2022-09-28T06:48:58.000Z</time>
      </trkpt>
      <trkpt lat="49.77091" lon="4.80164">
        <ele>291</ele>
        <time>2022-09-28T06:48:59.000Z</time>
      </trkpt>
      <trkpt lat="49.77091" lon="4.80164">
        <ele>291</ele>
        <time>2022-09-28T06:49:00.000Z</time>
      </trkpt>
      <trkpt lat="49.77091" lon="4.80164">
        <ele>291</ele>
        <time>2022-09-28T06:49:01.000Z</time>
      </trkpt>
      <trkpt lat="49.77091" lon="4.80164">
        <ele>291</ele>
        <time>2022-09-28T06:49:02.000Z</time>
      </trkpt>
      <trkpt lat="49.77092" lon="4.80164">
        <ele>291</ele>
        <time>2022-09-28T06:49:03.000Z</time>
      </trkpt>
      <trkpt lat="49.77092" lon="4.80164">
        <ele>292</ele>
        <time>2022-09-28T06:49:04.000Z</time>
      </trkpt>
      <trkpt lat="49.77092" lon="4.80163">
        <ele>292</ele>
        <time>2022-09-28T06:49:05.000Z</time>
      </trkpt>
      <trkpt lat="49.77092" lon="4.80163">
        <ele>292</ele>
        <time>2022-09-28T06:49:06.000Z</time>
      </trkpt>
      <trkpt lat="49.77092" lon="4.80163">
        <ele>292</ele>
        <time>2022-09-28T06:49:07.000Z</time>
      </trkpt>
      <trkpt lat="49.77092" lon="4.80163">
        <ele>292</ele>
        <time>2022-09-28T06:49:08.000Z</time>
      </trkpt>
      <trkpt lat="49.77093" lon="4.80163">
        <ele>292</ele>
        <time>2022-09-28T06:49:09.000Z</time>
      </trkpt>
      <trkpt lat="49.77093" lon="4.80163">
        <ele>292</ele>
        <time>2022-09-28T06:49:10.000Z</time>
      </trkpt>
      <trkpt lat="49.77093" lon="4.80163">
        <ele>292</ele>
        <time>2022-09-28T06:49:11.000Z</time>
      </trkpt>
      <trkpt lat="49.77093" lon="4.80163">
        <ele>292</ele>
        <time>2022-09-28T06:49:12.000Z</time>
      </trkpt>
      <trkpt lat="49.77093" lon="4.80163">
        <ele>292</ele>
        <time>2022-09-28T06:49:13.000Z</time>
      </trkpt>
      <trkpt lat="49.77093" lon="4.80163">
        <ele>292</ele>
        <time>2022-09-28T06:49:14.000Z</time>
      </trkpt>
      <trkpt lat="49.77093" lon="4.80163">
        <ele>292</ele>
        <time>2022-09-28T06:49:15.000Z</time>
      </trkpt>
      <trkpt lat="49.77093" lon="4.80163">
        <ele>292</ele>
        <time>2022-09-28T06:49:16.000Z</time>
      </trkpt>
      <trkpt lat="49.77093" lon="4.80163">
        <ele>292</ele>
        <time>2022-09-28T06:49:17.000Z</time>
      </trkpt>
      <trkpt lat="49.77093" lon="4.80163">
        <ele>292</ele>
        <time>2022-09-28T06:49:18.000Z</time>
      </trkpt>
      <trkpt lat="49.77093" lon="4.80163">
        <ele>292</ele>
        <time>2022-09-28T06:49:19.000Z</time>
      </trkpt>
      <trkpt lat="49.77093" lon="4.80163">
        <ele>292</ele>
        <time>2022-09-28T06:49:20.000Z</time>
      </trkpt>
      <trkpt lat="49.77093" lon="4.80163">
        <ele>292</ele>
        <time>2022-09-28T06:49:21.000Z</time>
      </trkpt>
      <trkpt lat="49.77093" lon="4.80163">
        <ele>292</ele>
        <time>2022-09-28T06:49:22.000Z</time>
      </trkpt>
      <trkpt lat="49.77094" lon="4.80163">
        <ele>292</ele>
        <time>2022-09-28T06:49:23.000Z</time>
      </trkpt>
      <trkpt lat="49.77094" lon="4.80163">
        <ele>292</ele>
        <time>2022-09-28T06:49:24.000Z</time>
      </trkpt>
      <trkpt lat="49.77094" lon="4.80163">
        <ele>292</ele>
        <time>2022-09-28T06:49:25.000Z</time>
      </trkpt>
      <trkpt lat="49.77094" lon="4.80163">
        <ele>292</ele>
        <time>2022-09-28T06:49:26.000Z</time>
      </trkpt>
      <trkpt lat="49.77094" lon="4.80163">
        <ele>292</ele>
        <time>2022-09-28T06:49:27.000Z</time>
      </trkpt>
      <trkpt lat="49.77094" lon="4.80163">
        <ele>292</ele>
        <time>2022-09-28T06:49:28.000Z</time>
      </trkpt>
      <trkpt lat="49.77094" lon="4.80163">
        <ele>292</ele>
        <time>2022-09-28T06:49:29.000Z</time>
      </trkpt>
      <trkpt lat="49.77094" lon="4.80163">
        <ele>292</ele>
        <time>2022-09-28T06:49:30.000Z</time>
      </trkpt>
      <trkpt lat="49.77094" lon="4.80162">
        <ele>292</ele>
        <time>2022-09-28T06:49:31.000Z</time>
      </trkpt>
      <trkpt lat="49.77094" lon="4.80162">
        <ele>292</ele>
        <time>2022-09-28T06:49:32.000Z</time>
      </trkpt>
      <trkpt lat="49.77095" lon="4.80163">
        <ele>292</ele>
        <time>2022-09-28T06:49:33.000Z</time>
      </trkpt>
      <trkpt lat="49.77094" lon="4.80162">
        <ele>292</ele>
        <time>2022-09-28T06:49:34.000Z</time>
      </trkpt>
      <trkpt lat="49.77094" lon="4.80162">
        <ele>293</ele>
        <time>2022-09-28T06:49:35.000Z</time>
      </trkpt>
      <trkpt lat="49.77095" lon="4.80162">
        <ele>293</ele>
        <time>2022-09-28T06:49:36.000Z</time>
      </trkpt>
      <trkpt lat="49.77095" lon="4.80162">
        <ele>293</ele>
        <time>2022-09-28T06:49:37.000Z</time>
      </trkpt>
      <trkpt lat="49.77095" lon="4.80163">
        <ele>293</ele>
        <time>2022-09-28T06:49:38.000Z</time>
      </trkpt>
      <trkpt lat="49.77096" lon="4.80163">
        <ele>293</ele>
        <time>2022-09-28T06:49:39.000Z</time>
      </trkpt>
      <trkpt lat="49.77097" lon="4.80165">
        <ele>293</ele>
        <time>2022-09-28T06:49:40.000Z</time>
      </trkpt>
      <trkpt lat="49.77098" lon="4.80166">
        <ele>293</ele>
        <time>2022-09-28T06:49:41.000Z</time>
      </trkpt>
      <trkpt lat="49.771" lon="4.80169">
        <ele>293</ele>
        <time>2022-09-28T06:49:42.000Z</time>
      </trkpt>
      <trkpt lat="49.77102" lon="4.80171">
        <ele>293</ele>
        <time>2022-09-28T06:49:43.000Z</time>
      </trkpt>
      <trkpt lat="49.77103" lon="4.80173">
        <ele>293</ele>
        <time>2022-09-28T06:49:44.000Z</time>
      </trkpt>
      <trkpt lat="49.77106" lon="4.80175">
        <ele>293</ele>
        <time>2022-09-28T06:49:45.000Z</time>
      </trkpt>
      <trkpt lat="49.77108" lon="4.80176">
        <ele>293</ele>
        <time>2022-09-28T06:49:46.000Z</time>
      </trkpt>
      <trkpt lat="49.77111" lon="4.80178">
        <ele>293</ele>
        <time>2022-09-28T06:49:47.000Z</time>
      </trkpt>
      <trkpt lat="49.77114" lon="4.80179">
        <ele>293</ele>
        <time>2022-09-28T06:49:48.000Z</time>
      </trkpt>
      <trkpt lat="49.77117" lon="4.8018">
        <ele>293</ele>
        <time>2022-09-28T06:49:49.000Z</time>
      </trkpt>
      <trkpt lat="49.7712" lon="4.8018">
        <ele>293</ele>
        <time>2022-09-28T06:49:50.000Z</time>
      </trkpt>
      <trkpt lat="49.77122" lon="4.8018">
        <ele>293</ele>
        <time>2022-09-28T06:49:51.000Z</time>
      </trkpt>
      <trkpt lat="49.77125" lon="4.8018">
        <ele>293</ele>
        <time>2022-09-28T06:49:52.000Z</time>
      </trkpt>
      <trkpt lat="49.77129" lon="4.80179">
        <ele>293</ele>
        <time>2022-09-28T06:49:53.000Z</time>
      </trkpt>
      <trkpt lat="49.77132" lon="4.80177">
        <ele>293</ele>
        <time>2022-09-28T06:49:54.000Z</time>
      </trkpt>
      <trkpt lat="49.77134" lon="4.80176">
        <ele>293</ele>
        <time>2022-09-28T06:49:55.000Z</time>
      </trkpt>
      <trkpt lat="49.77137" lon="4.80175">
        <ele>293</ele>
        <time>2022-09-28T06:49:56.000Z</time>
      </trkpt>
      <trkpt lat="49.77139" lon="4.80174">
        <ele>293</ele>
        <time>2022-09-28T06:49:57.000Z</time>
      </trkpt>
      <trkpt lat="49.77142" lon="4.80174">
        <ele>292</ele>
        <time>2022-09-28T06:49:58.000Z</time>
      </trkpt>
      <trkpt lat="49.77144" lon="4.80173">
        <ele>292</ele>
        <time>2022-09-28T06:49:59.000Z</time>
      </trkpt>
      <trkpt lat="49.77146" lon="4.80173">
        <ele>292</ele>
        <time>2022-09-28T06:50:00.000Z</time>
      </trkpt>
      <trkpt lat="49.77149" lon="4.80172">
        <ele>292</ele>
        <time>2022-09-28T06:50:01.000Z</time>
      </trkpt>
      <trkpt lat="49.77151" lon="4.80172">
        <ele>292</ele>
        <time>2022-09-28T06:50:02.000Z</time>
      </trkpt>
      <trkpt lat="49.77153" lon="4.80172">
        <ele>292</ele>
        <time>2022-09-28T06:50:03.000Z</time>
      </trkpt>
      <trkpt lat="49.77156" lon="4.80172">
        <ele>292</ele>
        <time>2022-09-28T06:50:04.000Z</time>
      </trkpt>
      <trkpt lat="49.77159" lon="4.80173">
        <ele>292</ele>
        <time>2022-09-28T06:50:05.000Z</time>
      </trkpt>
      <trkpt lat="49.77163" lon="4.80173">
        <ele>292</ele>
        <time>2022-09-28T06:50:06.000Z</time>
      </trkpt>
      <trkpt lat="49.77167" lon="4.80173">
        <ele>292</ele>
        <time>2022-09-28T06:50:07.000Z</time>
      </trkpt>
      <trkpt lat="49.77171" lon="4.80172">
        <ele>292</ele>
        <time>2022-09-28T06:50:08.000Z</time>
      </trkpt>
      <trkpt lat="49.77176" lon="4.80172">
        <ele>292</ele>
        <time>2022-09-28T06:50:09.000Z</time>
      </trkpt>
      <trkpt lat="49.7718" lon="4.80171">
        <ele>292</ele>
        <time>2022-09-28T06:50:10.000Z</time>
      </trkpt>
      <trkpt lat="49.77185" lon="4.80171">
        <ele>292</ele>
        <time>2022-09-28T06:50:11.000Z</time>
      </trkpt>
      <trkpt lat="49.7719" lon="4.8017">
        <ele>292</ele>
        <time>2022-09-28T06:50:12.000Z</time>
      </trkpt>
      <trkpt lat="49.77194" lon="4.80169">
        <ele>292</ele>
        <time>2022-09-28T06:50:13.000Z</time>
      </trkpt>
      <trkpt lat="49.77199" lon="4.80169">
        <ele>292</ele>
        <time>2022-09-28T06:50:14.000Z</time>
      </trkpt>
      <trkpt lat="49.77204" lon="4.80168">
        <ele>292</ele>
        <time>2022-09-28T06:50:15.000Z</time>
      </trkpt>
      <trkpt lat="49.77209" lon="4.80167">
        <ele>292</ele>
        <time>2022-09-28T06:50:16.000Z</time>
      </trkpt>
      <trkpt lat="49.77213" lon="4.80167">
        <ele>292</ele>
        <time>2022-09-28T06:50:17.000Z</time>
      </trkpt>
      <trkpt lat="49.77219" lon="4.80166">
        <ele>292</ele>
        <time>2022-09-28T06:50:18.000Z</time>
      </trkpt>
      <trkpt lat="49.77224" lon="4.80165">
        <ele>292</ele>
        <time>2022-09-28T06:50:19.000Z</time>
      </trkpt>
      <trkpt lat="49.77229" lon="4.80165">
        <ele>292</ele>
        <time>2022-09-28T06:50:20.000Z</time>
      </trkpt>
      <trkpt lat="49.77234" lon="4.80164">
        <ele>292</ele>
        <time>2022-09-28T06:50:21.000Z</time>
      </trkpt>
      <trkpt lat="49.77239" lon="4.80163">
        <ele>292</ele>
        <time>2022-09-28T06:50:22.000Z</time>
      </trkpt>
      <trkpt lat="49.77244" lon="4.80162">
        <ele>292</ele>
        <time>2022-09-28T06:50:23.000Z</time>
      </trkpt>
      <trkpt lat="49.77249" lon="4.80161">
        <ele>292</ele>
        <time>2022-09-28T06:50:24.000Z</time>
      </trkpt>
      <trkpt lat="49.77254" lon="4.8016">
        <ele>291</ele>
        <time>2022-09-28T06:50:25.000Z</time>
      </trkpt>
      <trkpt lat="49.77259" lon="4.8016">
        <ele>291</ele>
        <time>2022-09-28T06:50:26.000Z</time>
      </trkpt>
      <trkpt lat="49.77264" lon="4.80159">
        <ele>291</ele>
        <time>2022-09-28T06:50:27.000Z</time>
      </trkpt>
      <trkpt lat="49.77269" lon="4.80158">
        <ele>291</ele>
        <time>2022-09-28T06:50:28.000Z</time>
      </trkpt>
      <trkpt lat="49.77273" lon="4.80157">
        <ele>291</ele>
        <time>2022-09-28T06:50:29.000Z</time>
      </trkpt>
      <trkpt lat="49.77278" lon="4.80157">
        <ele>291</ele>
        <time>2022-09-28T06:50:30.000Z</time>
      </trkpt>
      <trkpt lat="49.77283" lon="4.80156">
        <ele>290</ele>
        <time>2022-09-28T06:50:31.000Z</time>
      </trkpt>
      <trkpt lat="49.77288" lon="4.80155">
        <ele>290</ele>
        <time>2022-09-28T06:50:32.000Z</time>
      </trkpt>
      <trkpt lat="49.77293" lon="4.80154">
        <ele>290</ele>
        <time>2022-09-28T06:50:33.000Z</time>
      </trkpt>
      <trkpt lat="49.77299" lon="4.80153">
        <ele>290</ele>
        <time>2022-09-28T06:50:34.000Z</time>
      </trkpt>
      <trkpt lat="49.77305" lon="4.80151">
        <ele>290</ele>
        <time>2022-09-28T06:50:35.000Z</time>
      </trkpt>
      <trkpt lat="49.7731" lon="4.8015">
        <ele>289</ele>
        <time>2022-09-28T06:50:36.000Z</time>
      </trkpt>
      <trkpt lat="49.77316" lon="4.80148">
        <ele>289</ele>
        <time>2022-09-28T06:50:37.000Z</time>
      </trkpt>
      <trkpt lat="49.77322" lon="4.80147">
        <ele>289</ele>
        <time>2022-09-28T06:50:38.000Z</time>
      </trkpt>
      <trkpt lat="49.77327" lon="4.80145">
        <ele>289</ele>
        <time>2022-09-28T06:50:39.000Z</time>
      </trkpt>
      <trkpt lat="49.77333" lon="4.80142">
        <ele>288</ele>
        <time>2022-09-28T06:50:40.000Z</time>
      </trkpt>
      <trkpt lat="49.77338" lon="4.80139">
        <ele>288</ele>
        <time>2022-09-28T06:50:41.000Z</time>
      </trkpt>
      <trkpt lat="49.77342" lon="4.80135">
        <ele>288</ele>
        <time>2022-09-28T06:50:42.000Z</time>
      </trkpt>
      <trkpt lat="49.77347" lon="4.80131">
        <ele>288</ele>
        <time>2022-09-28T06:50:43.000Z</time>
      </trkpt>
      <trkpt lat="49.77352" lon="4.80127">
        <ele>288</ele>
        <time>2022-09-28T06:50:44.000Z</time>
      </trkpt>
      <trkpt lat="49.77357" lon="4.80122">
        <ele>288</ele>
        <time>2022-09-28T06:50:45.000Z</time>
      </trkpt>
      <trkpt lat="49.77361" lon="4.80117">
        <ele>288</ele>
        <time>2022-09-28T06:50:46.000Z</time>
      </trkpt>
      <trkpt lat="49.77366" lon="4.80111">
        <ele>287</ele>
        <time>2022-09-28T06:50:47.000Z</time>
      </trkpt>
      <trkpt lat="49.7737" lon="4.80105">
        <ele>287</ele>
        <time>2022-09-28T06:50:48.000Z</time>
      </trkpt>
      <trkpt lat="49.77374" lon="4.801">
        <ele>287</ele>
        <time>2022-09-28T06:50:49.000Z</time>
      </trkpt>
      <trkpt lat="49.77378" lon="4.80093">
        <ele>287</ele>
        <time>2022-09-28T06:50:50.000Z</time>
      </trkpt>
      <trkpt lat="49.77382" lon="4.80087">
        <ele>287</ele>
        <time>2022-09-28T06:50:51.000Z</time>
      </trkpt>
      <trkpt lat="49.77386" lon="4.8008">
        <ele>287</ele>
        <time>2022-09-28T06:50:52.000Z</time>
      </trkpt>
      <trkpt lat="49.7739" lon="4.80072">
        <ele>286</ele>
        <time>2022-09-28T06:50:53.000Z</time>
      </trkpt>
      <trkpt lat="49.77394" lon="4.80063">
        <ele>286</ele>
        <time>2022-09-28T06:50:54.000Z</time>
      </trkpt>
      <trkpt lat="49.77398" lon="4.80055">
        <ele>286</ele>
        <time>2022-09-28T06:50:55.000Z</time>
      </trkpt>
      <trkpt lat="49.77402" lon="4.80047">
        <ele>286</ele>
        <time>2022-09-28T06:50:56.000Z</time>
      </trkpt>
      <trkpt lat="49.77407" lon="4.8004">
        <ele>286</ele>
        <time>2022-09-28T06:50:57.000Z</time>
      </trkpt>
      <trkpt lat="49.77413" lon="4.80036">
        <ele>286</ele>
        <time>2022-09-28T06:50:58.000Z</time>
      </trkpt>
      <trkpt lat="49.7742" lon="4.80034">
        <ele>285</ele>
        <time>2022-09-28T06:50:59.000Z</time>
      </trkpt>
      <trkpt lat="49.77427" lon="4.80035">
        <ele>285</ele>
        <time>2022-09-28T06:51:00.000Z</time>
      </trkpt>
      <trkpt lat="49.77435" lon="4.80035">
        <ele>285</ele>
        <time>2022-09-28T06:51:01.000Z</time>
      </trkpt>
      <trkpt lat="49.77443" lon="4.80035">
        <ele>285</ele>
        <time>2022-09-28T06:51:02.000Z</time>
      </trkpt>
      <trkpt lat="49.77452" lon="4.80034">
        <ele>284</ele>
        <time>2022-09-28T06:51:03.000Z</time>
      </trkpt>
      <trkpt lat="49.77461" lon="4.80031">
        <ele>284</ele>
        <time>2022-09-28T06:51:04.000Z</time>
      </trkpt>
      <trkpt lat="49.77469" lon="4.80026">
        <ele>283</ele>
        <time>2022-09-28T06:51:05.000Z</time>
      </trkpt>
      <trkpt lat="49.77476" lon="4.8002">
        <ele>282</ele>
        <time>2022-09-28T06:51:06.000Z</time>
      </trkpt>
      <trkpt lat="49.77484" lon="4.80014">
        <ele>281</ele>
        <time>2022-09-28T06:51:07.000Z</time>
      </trkpt>
      <trkpt lat="49.77492" lon="4.80008">
        <ele>280</ele>
        <time>2022-09-28T06:51:08.000Z</time>
      </trkpt>
      <trkpt lat="49.77499" lon="4.80002">
        <ele>279</ele>
        <time>2022-09-28T06:51:09.000Z</time>
      </trkpt>
      <trkpt lat="49.77507" lon="4.79998">
        <ele>277</ele>
        <time>2022-09-28T06:51:10.000Z</time>
      </trkpt>
      <trkpt lat="49.77516" lon="4.79994">
        <ele>276</ele>
        <time>2022-09-28T06:51:11.000Z</time>
      </trkpt>
      <trkpt lat="49.77524" lon="4.79991">
        <ele>275</ele>
        <time>2022-09-28T06:51:12.000Z</time>
      </trkpt>
      <trkpt lat="49.77533" lon="4.79989">
        <ele>274</ele>
        <time>2022-09-28T06:51:13.000Z</time>
      </trkpt>
      <trkpt lat="49.77542" lon="4.79988">
        <ele>273</ele>
        <time>2022-09-28T06:51:14.000Z</time>
      </trkpt>
      <trkpt lat="49.77551" lon="4.79987">
        <ele>272</ele>
        <time>2022-09-28T06:51:15.000Z</time>
      </trkpt>
      <trkpt lat="49.7756" lon="4.79986">
        <ele>271</ele>
        <time>2022-09-28T06:51:16.000Z</time>
      </trkpt>
      <trkpt lat="49.77569" lon="4.79984">
        <ele>270</ele>
        <time>2022-09-28T06:51:17.000Z</time>
      </trkpt>
      <trkpt lat="49.77578" lon="4.79983">
        <ele>269</ele>
        <time>2022-09-28T06:51:18.000Z</time>
      </trkpt>
      <trkpt lat="49.77587" lon="4.79982">
        <ele>268</ele>
        <time>2022-09-28T06:51:19.000Z</time>
      </trkpt>
      <trkpt lat="49.77595" lon="4.79981">
        <ele>267</ele>
        <time>2022-09-28T06:51:20.000Z</time>
      </trkpt>
      <trkpt lat="49.77603" lon="4.7998">
        <ele>266</ele>
        <time>2022-09-28T06:51:21.000Z</time>
      </trkpt>
      <trkpt lat="49.77611" lon="4.79979">
        <ele>266</ele>
        <time>2022-09-28T06:51:22.000Z</time>
      </trkpt>
      <trkpt lat="49.77619" lon="4.79978">
        <ele>265</ele>
        <time>2022-09-28T06:51:23.000Z</time>
      </trkpt>
      <trkpt lat="49.77626" lon="4.79976">
        <ele>265</ele>
        <time>2022-09-28T06:51:24.000Z</time>
      </trkpt>
      <trkpt lat="49.77633" lon="4.79973">
        <ele>264</ele>
        <time>2022-09-28T06:51:25.000Z</time>
      </trkpt>
      <trkpt lat="49.77639" lon="4.7997">
        <ele>264</ele>
        <time>2022-09-28T06:51:26.000Z</time>
      </trkpt>
      <trkpt lat="49.77645" lon="4.79967">
        <ele>264</ele>
        <time>2022-09-28T06:51:27.000Z</time>
      </trkpt>
      <trkpt lat="49.7765" lon="4.79964">
        <ele>263</ele>
        <time>2022-09-28T06:51:28.000Z</time>
      </trkpt>
      <trkpt lat="49.77655" lon="4.79959">
        <ele>263</ele>
        <time>2022-09-28T06:51:29.000Z</time>
      </trkpt>
      <trkpt lat="49.77661" lon="4.79956">
        <ele>262</ele>
        <time>2022-09-28T06:51:30.000Z</time>
      </trkpt>
      <trkpt lat="49.77666" lon="4.79952">
        <ele>262</ele>
        <time>2022-09-28T06:51:31.000Z</time>
      </trkpt>
      <trkpt lat="49.7767" lon="4.79947">
        <ele>262</ele>
        <time>2022-09-28T06:51:32.000Z</time>
      </trkpt>
      <trkpt lat="49.77675" lon="4.79941">
        <ele>261</ele>
        <time>2022-09-28T06:51:33.000Z</time>
      </trkpt>
      <trkpt lat="49.77679" lon="4.79937">
        <ele>261</ele>
        <time>2022-09-28T06:51:34.000Z</time>
      </trkpt>
      <trkpt lat="49.77684" lon="4.79932">
        <ele>260</ele>
        <time>2022-09-28T06:51:35.000Z</time>
      </trkpt>
      <trkpt lat="49.77688" lon="4.79927">
        <ele>260</ele>
        <time>2022-09-28T06:51:36.000Z</time>
      </trkpt>
      <trkpt lat="49.77692" lon="4.79921">
        <ele>260</ele>
        <time>2022-09-28T06:51:37.000Z</time>
      </trkpt>
      <trkpt lat="49.77697" lon="4.79916">
        <ele>259</ele>
        <time>2022-09-28T06:51:38.000Z</time>
      </trkpt>
      <trkpt lat="49.77701" lon="4.7991">
        <ele>259</ele>
        <time>2022-09-28T06:51:39.000Z</time>
      </trkpt>
      <trkpt lat="49.77706" lon="4.79905">
        <ele>258</ele>
        <time>2022-09-28T06:51:40.000Z</time>
      </trkpt>
      <trkpt lat="49.77711" lon="4.799">
        <ele>258</ele>
        <time>2022-09-28T06:51:41.000Z</time>
      </trkpt>
      <trkpt lat="49.77716" lon="4.79895">
        <ele>258</ele>
        <time>2022-09-28T06:51:42.000Z</time>
      </trkpt>
      <trkpt lat="49.77721" lon="4.7989">
        <ele>257</ele>
        <time>2022-09-28T06:51:43.000Z</time>
      </trkpt>
      <trkpt lat="49.77726" lon="4.79886">
        <ele>257</ele>
        <time>2022-09-28T06:51:44.000Z</time>
      </trkpt>
      <trkpt lat="49.77731" lon="4.79882">
        <ele>257</ele>
        <time>2022-09-28T06:51:45.000Z</time>
      </trkpt>
      <trkpt lat="49.77737" lon="4.79878">
        <ele>257</ele>
        <time>2022-09-28T06:51:46.000Z</time>
      </trkpt>
      <trkpt lat="49.77742" lon="4.79874">
        <ele>257</ele>
        <time>2022-09-28T06:51:47.000Z</time>
      </trkpt>
      <trkpt lat="49.77748" lon="4.79869">
        <ele>256</ele>
        <time>2022-09-28T06:51:48.000Z</time>
      </trkpt>
      <trkpt lat="49.77753" lon="4.79865">
        <ele>256</ele>
        <time>2022-09-28T06:51:49.000Z</time>
      </trkpt>
      <trkpt lat="49.77758" lon="4.7986">
        <ele>256</ele>
        <time>2022-09-28T06:51:50.000Z</time>
      </trkpt>
      <trkpt lat="49.77764" lon="4.79856">
        <ele>256</ele>
        <time>2022-09-28T06:51:51.000Z</time>
      </trkpt>
      <trkpt lat="49.77769" lon="4.79851">
        <ele>256</ele>
        <time>2022-09-28T06:51:52.000Z</time>
      </trkpt>
      <trkpt lat="49.77774" lon="4.79847">
        <ele>255</ele>
        <time>2022-09-28T06:51:53.000Z</time>
      </trkpt>
      <trkpt lat="49.77779" lon="4.79842">
        <ele>255</ele>
        <time>2022-09-28T06:51:54.000Z</time>
      </trkpt>
      <trkpt lat="49.77783" lon="4.79836">
        <ele>255</ele>
        <time>2022-09-28T06:51:55.000Z</time>
      </trkpt>
      <trkpt lat="49.77788" lon="4.79831">
        <ele>255</ele>
        <time>2022-09-28T06:51:56.000Z</time>
      </trkpt>
      <trkpt lat="49.77792" lon="4.79826">
        <ele>255</ele>
        <time>2022-09-28T06:51:57.000Z</time>
      </trkpt>
      <trkpt lat="49.77796" lon="4.79821">
        <ele>255</ele>
        <time>2022-09-28T06:51:58.000Z</time>
      </trkpt>
      <trkpt lat="49.778" lon="4.79817">
        <ele>255</ele>
        <time>2022-09-28T06:51:59.000Z</time>
      </trkpt>
      <trkpt lat="49.77805" lon="4.79813">
        <ele>255</ele>
        <time>2022-09-28T06:52:00.000Z</time>
      </trkpt>
      <trkpt lat="49.7781" lon="4.7981">
        <ele>255</ele>
        <time>2022-09-28T06:52:01.000Z</time>
      </trkpt>
      <trkpt lat="49.77814" lon="4.79807">
        <ele>255</ele>
        <time>2022-09-28T06:52:02.000Z</time>
      </trkpt>
      <trkpt lat="49.77819" lon="4.79805">
        <ele>255</ele>
        <time>2022-09-28T06:52:03.000Z</time>
      </trkpt>
      <trkpt lat="49.77823" lon="4.79804">
        <ele>255</ele>
        <time>2022-09-28T06:52:04.000Z</time>
      </trkpt>
      <trkpt lat="49.77827" lon="4.79802">
        <ele>255</ele>
        <time>2022-09-28T06:52:05.000Z</time>
      </trkpt>
      <trkpt lat="49.77831" lon="4.79801">
        <ele>255</ele>
        <time>2022-09-28T06:52:06.000Z</time>
      </trkpt>
      <trkpt lat="49.77836" lon="4.79797">
        <ele>255</ele>
        <time>2022-09-28T06:52:07.000Z</time>
      </trkpt>
      <trkpt lat="49.7784" lon="4.79794">
        <ele>255</ele>
        <time>2022-09-28T06:52:08.000Z</time>
      </trkpt>
      <trkpt lat="49.77845" lon="4.7979">
        <ele>255</ele>
        <time>2022-09-28T06:52:09.000Z</time>
      </trkpt>
      <trkpt lat="49.77851" lon="4.79785">
        <ele>255</ele>
        <time>2022-09-28T06:52:10.000Z</time>
      </trkpt>
      <trkpt lat="49.77856" lon="4.79781">
        <ele>255</ele>
        <time>2022-09-28T06:52:11.000Z</time>
      </trkpt>
      <trkpt lat="49.77862" lon="4.79776">
        <ele>255</ele>
        <time>2022-09-28T06:52:12.000Z</time>
      </trkpt>
      <trkpt lat="49.77868" lon="4.79772">
        <ele>254</ele>
        <time>2022-09-28T06:52:13.000Z</time>
      </trkpt>
      <trkpt lat="49.77873" lon="4.79768">
        <ele>254</ele>
        <time>2022-09-28T06:52:14.000Z</time>
      </trkpt>
      <trkpt lat="49.77879" lon="4.79764">
        <ele>254</ele>
        <time>2022-09-28T06:52:15.000Z</time>
      </trkpt>
      <trkpt lat="49.77885" lon="4.7976">
        <ele>254</ele>
        <time>2022-09-28T06:52:16.000Z</time>
      </trkpt>
      <trkpt lat="49.77891" lon="4.79756">
        <ele>254</ele>
        <time>2022-09-28T06:52:17.000Z</time>
      </trkpt>
      <trkpt lat="49.77897" lon="4.79751">
        <ele>253</ele>
        <time>2022-09-28T06:52:18.000Z</time>
      </trkpt>
      <trkpt lat="49.77903" lon="4.79746">
        <ele>253</ele>
        <time>2022-09-28T06:52:19.000Z</time>
      </trkpt>
      <trkpt lat="49.7791" lon="4.79742">
        <ele>252</ele>
        <time>2022-09-28T06:52:20.000Z</time>
      </trkpt>
      <trkpt lat="49.77917" lon="4.79738">
        <ele>252</ele>
        <time>2022-09-28T06:52:21.000Z</time>
      </trkpt>
      <trkpt lat="49.77924" lon="4.79736">
        <ele>251</ele>
        <time>2022-09-28T06:52:22.000Z</time>
      </trkpt>
      <trkpt lat="49.77931" lon="4.79733">
        <ele>251</ele>
        <time>2022-09-28T06:52:23.000Z</time>
      </trkpt>
      <trkpt lat="49.77939" lon="4.79731">
        <ele>250</ele>
        <time>2022-09-28T06:52:24.000Z</time>
      </trkpt>
      <trkpt lat="49.77947" lon="4.7973">
        <ele>249</ele>
        <time>2022-09-28T06:52:25.000Z</time>
      </trkpt>
      <trkpt lat="49.77954" lon="4.79729">
        <ele>248</ele>
        <time>2022-09-28T06:52:26.000Z</time>
      </trkpt>
      <trkpt lat="49.7796" lon="4.79728">
        <ele>248</ele>
        <time>2022-09-28T06:52:27.000Z</time>
      </trkpt>
      <trkpt lat="49.77965" lon="4.79729">
        <ele>247</ele>
        <time>2022-09-28T06:52:28.000Z</time>
      </trkpt>
      <trkpt lat="49.7797" lon="4.79731">
        <ele>247</ele>
        <time>2022-09-28T06:52:29.000Z</time>
      </trkpt>
      <trkpt lat="49.77974" lon="4.79737">
        <ele>247</ele>
        <time>2022-09-28T06:52:30.000Z</time>
      </trkpt>
      <trkpt lat="49.77976" lon="4.79745">
        <ele>247</ele>
        <time>2022-09-28T06:52:31.000Z</time>
      </trkpt>
      <trkpt lat="49.77978" lon="4.79751">
        <ele>246</ele>
        <time>2022-09-28T06:52:32.000Z</time>
      </trkpt>
      <trkpt lat="49.7798" lon="4.79758">
        <ele>246</ele>
        <time>2022-09-28T06:52:33.000Z</time>
      </trkpt>
      <trkpt lat="49.77984" lon="4.79763">
        <ele>246</ele>
        <time>2022-09-28T06:52:34.000Z</time>
      </trkpt>
      <trkpt lat="49.77987" lon="4.79768">
        <ele>246</ele>
        <time>2022-09-28T06:52:35.000Z</time>
      </trkpt>
      <trkpt lat="49.77992" lon="4.79772">
        <ele>247</ele>
        <time>2022-09-28T06:52:36.000Z</time>
      </trkpt>
      <trkpt lat="49.77996" lon="4.79774">
        <ele>247</ele>
        <time>2022-09-28T06:52:37.000Z</time>
      </trkpt>
      <trkpt lat="49.78001" lon="4.79776">
        <ele>247</ele>
        <time>2022-09-28T06:52:38.000Z</time>
      </trkpt>
      <trkpt lat="49.78006" lon="4.79779">
        <ele>247</ele>
        <time>2022-09-28T06:52:39.000Z</time>
      </trkpt>
      <trkpt lat="49.78011" lon="4.79781">
        <ele>247</ele>
        <time>2022-09-28T06:52:40.000Z</time>
      </trkpt>
      <trkpt lat="49.78016" lon="4.79782">
        <ele>247</ele>
        <time>2022-09-28T06:52:41.000Z</time>
      </trkpt>
      <trkpt lat="49.78021" lon="4.79782">
        <ele>247</ele>
        <time>2022-09-28T06:52:42.000Z</time>
      </trkpt>
      <trkpt lat="49.78026" lon="4.79783">
        <ele>247</ele>
        <time>2022-09-28T06:52:43.000Z</time>
      </trkpt>
      <trkpt lat="49.78031" lon="4.79783">
        <ele>247</ele>
        <time>2022-09-28T06:52:44.000Z</time>
      </trkpt>
      <trkpt lat="49.78036" lon="4.79783">
        <ele>247</ele>
        <time>2022-09-28T06:52:45.000Z</time>
      </trkpt>
      <trkpt lat="49.7804" lon="4.79783">
        <ele>247</ele>
        <time>2022-09-28T06:52:46.000Z</time>
      </trkpt>
      <trkpt lat="49.78045" lon="4.79783">
        <ele>248</ele>
        <time>2022-09-28T06:52:47.000Z</time>
      </trkpt>
      <trkpt lat="49.7805" lon="4.79783">
        <ele>248</ele>
        <time>2022-09-28T06:52:48.000Z</time>
      </trkpt>
      <trkpt lat="49.78054" lon="4.79783">
        <ele>248</ele>
        <time>2022-09-28T06:52:49.000Z</time>
      </trkpt>
      <trkpt lat="49.78059" lon="4.79781">
        <ele>248</ele>
        <time>2022-09-28T06:52:50.000Z</time>
      </trkpt>
      <trkpt lat="49.78063" lon="4.7978">
        <ele>248</ele>
        <time>2022-09-28T06:52:51.000Z</time>
      </trkpt>
      <trkpt lat="49.78068" lon="4.79778">
        <ele>248</ele>
        <time>2022-09-28T06:52:52.000Z</time>
      </trkpt>
      <trkpt lat="49.78072" lon="4.79775">
        <ele>248</ele>
        <time>2022-09-28T06:52:53.000Z</time>
      </trkpt>
      <trkpt lat="49.78077" lon="4.79771">
        <ele>248</ele>
        <time>2022-09-28T06:52:54.000Z</time>
      </trkpt>
      <trkpt lat="49.78081" lon="4.79767">
        <ele>247</ele>
        <time>2022-09-28T06:52:55.000Z</time>
      </trkpt>
      <trkpt lat="49.78085" lon="4.79763">
        <ele>247</ele>
        <time>2022-09-28T06:52:56.000Z</time>
      </trkpt>
      <trkpt lat="49.78088" lon="4.79757">
        <ele>247</ele>
        <time>2022-09-28T06:52:57.000Z</time>
      </trkpt>
      <trkpt lat="49.78091" lon="4.7975">
        <ele>247</ele>
        <time>2022-09-28T06:52:58.000Z</time>
      </trkpt>
      <trkpt lat="49.78095" lon="4.79743">
        <ele>247</ele>
        <time>2022-09-28T06:52:59.000Z</time>
      </trkpt>
      <trkpt lat="49.78099" lon="4.79736">
        <ele>247</ele>
        <time>2022-09-28T06:53:00.000Z</time>
      </trkpt>
      <trkpt lat="49.78102" lon="4.7973">
        <ele>247</ele>
        <time>2022-09-28T06:53:01.000Z</time>
      </trkpt>
      <trkpt lat="49.78105" lon="4.79724">
        <ele>247</ele>
        <time>2022-09-28T06:53:02.000Z</time>
      </trkpt>
      <trkpt lat="49.78108" lon="4.79718">
        <ele>247</ele>
        <time>2022-09-28T06:53:03.000Z</time>
      </trkpt>
      <trkpt lat="49.78111" lon="4.79713">
        <ele>248</ele>
        <time>2022-09-28T06:53:04.000Z</time>
      </trkpt>
      <trkpt lat="49.78114" lon="4.79707">
        <ele>248</ele>
        <time>2022-09-28T06:53:05.000Z</time>
      </trkpt>
      <trkpt lat="49.78118" lon="4.79703">
        <ele>248</ele>
        <time>2022-09-28T06:53:06.000Z</time>
      </trkpt>
      <trkpt lat="49.78123" lon="4.79699">
        <ele>248</ele>
        <time>2022-09-28T06:53:07.000Z</time>
      </trkpt>
      <trkpt lat="49.78126" lon="4.79697">
        <ele>248</ele>
        <time>2022-09-28T06:53:08.000Z</time>
      </trkpt>
      <trkpt lat="49.7813" lon="4.79695">
        <ele>248</ele>
        <time>2022-09-28T06:53:09.000Z</time>
      </trkpt>
      <trkpt lat="49.78134" lon="4.79692">
        <ele>248</ele>
        <time>2022-09-28T06:53:10.000Z</time>
      </trkpt>
      <trkpt lat="49.78138" lon="4.7969">
        <ele>248</ele>
        <time>2022-09-28T06:53:11.000Z</time>
      </trkpt>
      <trkpt lat="49.78142" lon="4.79687">
        <ele>249</ele>
        <time>2022-09-28T06:53:12.000Z</time>
      </trkpt>
      <trkpt lat="49.78146" lon="4.79684">
        <ele>249</ele>
        <time>2022-09-28T06:53:13.000Z</time>
      </trkpt>
      <trkpt lat="49.7815" lon="4.79681">
        <ele>249</ele>
        <time>2022-09-28T06:53:14.000Z</time>
      </trkpt>
      <trkpt lat="49.78154" lon="4.79678">
        <ele>249</ele>
        <time>2022-09-28T06:53:15.000Z</time>
      </trkpt>
      <trkpt lat="49.78159" lon="4.79675">
        <ele>249</ele>
        <time>2022-09-28T06:53:16.000Z</time>
      </trkpt>
      <trkpt lat="49.78163" lon="4.79672">
        <ele>249</ele>
        <time>2022-09-28T06:53:17.000Z</time>
      </trkpt>
      <trkpt lat="49.78167" lon="4.79669">
        <ele>249</ele>
        <time>2022-09-28T06:53:18.000Z</time>
      </trkpt>
      <trkpt lat="49.78171" lon="4.79665">
        <ele>249</ele>
        <time>2022-09-28T06:53:19.000Z</time>
      </trkpt>
      <trkpt lat="49.78175" lon="4.79661">
        <ele>249</ele>
        <time>2022-09-28T06:53:20.000Z</time>
      </trkpt>
      <trkpt lat="49.78179" lon="4.79658">
        <ele>249</ele>
        <time>2022-09-28T06:53:21.000Z</time>
      </trkpt>
      <trkpt lat="49.78183" lon="4.79655">
        <ele>249</ele>
        <time>2022-09-28T06:53:22.000Z</time>
      </trkpt>
      <trkpt lat="49.78187" lon="4.79652">
        <ele>250</ele>
        <time>2022-09-28T06:53:23.000Z</time>
      </trkpt>
      <trkpt lat="49.78191" lon="4.79649">
        <ele>250</ele>
        <time>2022-09-28T06:53:24.000Z</time>
      </trkpt>
      <trkpt lat="49.78195" lon="4.79645">
        <ele>250</ele>
        <time>2022-09-28T06:53:25.000Z</time>
      </trkpt>
      <trkpt lat="49.78199" lon="4.79642">
        <ele>250</ele>
        <time>2022-09-28T06:53:26.000Z</time>
      </trkpt>
      <trkpt lat="49.78204" lon="4.79638">
        <ele>250</ele>
        <time>2022-09-28T06:53:27.000Z</time>
      </trkpt>
      <trkpt lat="49.78208" lon="4.79635">
        <ele>250</ele>
        <time>2022-09-28T06:53:28.000Z</time>
      </trkpt>
      <trkpt lat="49.78213" lon="4.79631">
        <ele>250</ele>
        <time>2022-09-28T06:53:29.000Z</time>
      </trkpt>
      <trkpt lat="49.78218" lon="4.79628">
        <ele>250</ele>
        <time>2022-09-28T06:53:30.000Z</time>
      </trkpt>
      <trkpt lat="49.78223" lon="4.79624">
        <ele>250</ele>
        <time>2022-09-28T06:53:31.000Z</time>
      </trkpt>
      <trkpt lat="49.78228" lon="4.79621">
        <ele>250</ele>
        <time>2022-09-28T06:53:32.000Z</time>
      </trkpt>
      <trkpt lat="49.78233" lon="4.79617">
        <ele>250</ele>
        <time>2022-09-28T06:53:33.000Z</time>
      </trkpt>
      <trkpt lat="49.78239" lon="4.79614">
        <ele>250</ele>
        <time>2022-09-28T06:53:34.000Z</time>
      </trkpt>
      <trkpt lat="49.78245" lon="4.79611">
        <ele>249</ele>
        <time>2022-09-28T06:53:35.000Z</time>
      </trkpt>
      <trkpt lat="49.78251" lon="4.79608">
        <ele>249</ele>
        <time>2022-09-28T06:53:36.000Z</time>
      </trkpt>
      <trkpt lat="49.78258" lon="4.79606">
        <ele>249</ele>
        <time>2022-09-28T06:53:37.000Z</time>
      </trkpt>
      <trkpt lat="49.78264" lon="4.79603">
        <ele>249</ele>
        <time>2022-09-28T06:53:38.000Z</time>
      </trkpt>
      <trkpt lat="49.7827" lon="4.79601">
        <ele>249</ele>
        <time>2022-09-28T06:53:39.000Z</time>
      </trkpt>
      <trkpt lat="49.78277" lon="4.796">
        <ele>249</ele>
        <time>2022-09-28T06:53:40.000Z</time>
      </trkpt>
      <trkpt lat="49.78283" lon="4.79597">
        <ele>248</ele>
        <time>2022-09-28T06:53:41.000Z</time>
      </trkpt>
      <trkpt lat="49.7829" lon="4.79595">
        <ele>248</ele>
        <time>2022-09-28T06:53:42.000Z</time>
      </trkpt>
      <trkpt lat="49.78296" lon="4.79594">
        <ele>248</ele>
        <time>2022-09-28T06:53:43.000Z</time>
      </trkpt>
      <trkpt lat="49.78299" lon="4.79594">
        <ele>248</ele>
        <time>2022-09-28T06:53:44.000Z</time>
      </trkpt>
      <trkpt lat="49.78301" lon="4.79594">
        <ele>247</ele>
        <time>2022-09-28T06:53:45.000Z</time>
      </trkpt>
      <trkpt lat="49.78302" lon="4.79594">
        <ele>247</ele>
        <time>2022-09-28T06:53:46.000Z</time>
      </trkpt>
      <trkpt lat="49.78304" lon="4.79594">
        <ele>247</ele>
        <time>2022-09-28T06:53:47.000Z</time>
      </trkpt>
      <trkpt lat="49.78306" lon="4.79595">
        <ele>247</ele>
        <time>2022-09-28T06:53:48.000Z</time>
      </trkpt>
      <trkpt lat="49.78308" lon="4.79596">
        <ele>247</ele>
        <time>2022-09-28T06:53:49.000Z</time>
      </trkpt>
      <trkpt lat="49.78311" lon="4.79597">
        <ele>247</ele>
        <time>2022-09-28T06:53:50.000Z</time>
      </trkpt>
      <trkpt lat="49.78315" lon="4.79599">
        <ele>247</ele>
        <time>2022-09-28T06:53:51.000Z</time>
      </trkpt>
      <trkpt lat="49.78319" lon="4.79601">
        <ele>247</ele>
        <time>2022-09-28T06:53:52.000Z</time>
      </trkpt>
      <trkpt lat="49.78323" lon="4.79604">
        <ele>247</ele>
        <time>2022-09-28T06:53:53.000Z</time>
      </trkpt>
      <trkpt lat="49.78327" lon="4.79607">
        <ele>248</ele>
        <time>2022-09-28T06:53:54.000Z</time>
      </trkpt>
      <trkpt lat="49.78331" lon="4.7961">
        <ele>248</ele>
        <time>2022-09-28T06:53:55.000Z</time>
      </trkpt>
      <trkpt lat="49.78336" lon="4.79613">
        <ele>248</ele>
        <time>2022-09-28T06:53:56.000Z</time>
      </trkpt>
      <trkpt lat="49.78341" lon="4.79615">
        <ele>248</ele>
        <time>2022-09-28T06:53:57.000Z</time>
      </trkpt>
      <trkpt lat="49.78346" lon="4.79618">
        <ele>248</ele>
        <time>2022-09-28T06:53:58.000Z</time>
      </trkpt>
      <trkpt lat="49.7835" lon="4.79621">
        <ele>248</ele>
        <time>2022-09-28T06:53:59.000Z</time>
      </trkpt>
      <trkpt lat="49.78355" lon="4.79624">
        <ele>249</ele>
        <time>2022-09-28T06:54:00.000Z</time>
      </trkpt>
      <trkpt lat="49.7836" lon="4.79627">
        <ele>249</ele>
        <time>2022-09-28T06:54:01.000Z</time>
      </trkpt>
      <trkpt lat="49.78364" lon="4.79631">
        <ele>249</ele>
        <time>2022-09-28T06:54:02.000Z</time>
      </trkpt>
      <trkpt lat="49.78369" lon="4.79634">
        <ele>249</ele>
        <time>2022-09-28T06:54:03.000Z</time>
      </trkpt>
      <trkpt lat="49.78373" lon="4.79637">
        <ele>249</ele>
        <time>2022-09-28T06:54:04.000Z</time>
      </trkpt>
      <trkpt lat="49.78378" lon="4.7964">
        <ele>249</ele>
        <time>2022-09-28T06:54:05.000Z</time>
      </trkpt>
      <trkpt lat="49.78383" lon="4.79642">
        <ele>249</ele>
        <time>2022-09-28T06:54:06.000Z</time>
      </trkpt>
      <trkpt lat="49.78388" lon="4.79645">
        <ele>250</ele>
        <time>2022-09-28T06:54:07.000Z</time>
      </trkpt>
      <trkpt lat="49.78393" lon="4.79648">
        <ele>250</ele>
        <time>2022-09-28T06:54:08.000Z</time>
      </trkpt>
      <trkpt lat="49.78398" lon="4.79651">
        <ele>250</ele>
        <time>2022-09-28T06:54:09.000Z</time>
      </trkpt>
      <trkpt lat="49.78403" lon="4.79654">
        <ele>250</ele>
        <time>2022-09-28T06:54:10.000Z</time>
      </trkpt>
      <trkpt lat="49.78408" lon="4.79656">
        <ele>250</ele>
        <time>2022-09-28T06:54:11.000Z</time>
      </trkpt>
      <trkpt lat="49.78413" lon="4.79658">
        <ele>251</ele>
        <time>2022-09-28T06:54:12.000Z</time>
      </trkpt>
      <trkpt lat="49.78417" lon="4.7966">
        <ele>251</ele>
        <time>2022-09-28T06:54:13.000Z</time>
      </trkpt>
      <trkpt lat="49.78422" lon="4.79662">
        <ele>251</ele>
        <time>2022-09-28T06:54:14.000Z</time>
      </trkpt>
      <trkpt lat="49.78426" lon="4.79664">
        <ele>251</ele>
        <time>2022-09-28T06:54:15.000Z</time>
      </trkpt>
      <trkpt lat="49.7843" lon="4.79665">
        <ele>251</ele>
        <time>2022-09-28T06:54:16.000Z</time>
      </trkpt>
      <trkpt lat="49.78435" lon="4.79666">
        <ele>252</ele>
        <time>2022-09-28T06:54:17.000Z</time>
      </trkpt>
      <trkpt lat="49.78439" lon="4.79668">
        <ele>252</ele>
        <time>2022-09-28T06:54:18.000Z</time>
      </trkpt>
      <trkpt lat="49.78443" lon="4.79669">
        <ele>252</ele>
        <time>2022-09-28T06:54:19.000Z</time>
      </trkpt>
      <trkpt lat="49.78447" lon="4.79671">
        <ele>252</ele>
        <time>2022-09-28T06:54:20.000Z</time>
      </trkpt>
      <trkpt lat="49.78451" lon="4.79673">
        <ele>252</ele>
        <time>2022-09-28T06:54:21.000Z</time>
      </trkpt>
      <trkpt lat="49.78455" lon="4.79674">
        <ele>253</ele>
        <time>2022-09-28T06:54:22.000Z</time>
      </trkpt>
      <trkpt lat="49.78459" lon="4.79676">
        <ele>253</ele>
        <time>2022-09-28T06:54:23.000Z</time>
      </trkpt>
      <trkpt lat="49.78463" lon="4.79678">
        <ele>253</ele>
        <time>2022-09-28T06:54:24.000Z</time>
      </trkpt>
      <trkpt lat="49.78468" lon="4.79679">
        <ele>253</ele>
        <time>2022-09-28T06:54:25.000Z</time>
      </trkpt>
      <trkpt lat="49.78472" lon="4.79681">
        <ele>253</ele>
        <time>2022-09-28T06:54:26.000Z</time>
      </trkpt>
      <trkpt lat="49.78476" lon="4.79683">
        <ele>254</ele>
        <time>2022-09-28T06:54:27.000Z</time>
      </trkpt>
      <trkpt lat="49.7848" lon="4.79685">
        <ele>254</ele>
        <time>2022-09-28T06:54:28.000Z</time>
      </trkpt>
      <trkpt lat="49.78485" lon="4.79686">
        <ele>254</ele>
        <time>2022-09-28T06:54:29.000Z</time>
      </trkpt>
      <trkpt lat="49.78489" lon="4.79688">
        <ele>254</ele>
        <time>2022-09-28T06:54:30.000Z</time>
      </trkpt>
      <trkpt lat="49.78493" lon="4.7969">
        <ele>254</ele>
        <time>2022-09-28T06:54:31.000Z</time>
      </trkpt>
      <trkpt lat="49.78497" lon="4.79691">
        <ele>255</ele>
        <time>2022-09-28T06:54:32.000Z</time>
      </trkpt>
      <trkpt lat="49.78502" lon="4.79693">
        <ele>255</ele>
        <time>2022-09-28T06:54:33.000Z</time>
      </trkpt>
      <trkpt lat="49.78506" lon="4.79695">
        <ele>255</ele>
        <time>2022-09-28T06:54:34.000Z</time>
      </trkpt>
      <trkpt lat="49.78511" lon="4.79697">
        <ele>255</ele>
        <time>2022-09-28T06:54:35.000Z</time>
      </trkpt>
      <trkpt lat="49.78515" lon="4.79699">
        <ele>255</ele>
        <time>2022-09-28T06:54:36.000Z</time>
      </trkpt>
      <trkpt lat="49.78519" lon="4.79701">
        <ele>256</ele>
        <time>2022-09-28T06:54:37.000Z</time>
      </trkpt>
      <trkpt lat="49.78524" lon="4.79703">
        <ele>256</ele>
        <time>2022-09-28T06:54:38.000Z</time>
      </trkpt>
      <trkpt lat="49.78528" lon="4.79704">
        <ele>256</ele>
        <time>2022-09-28T06:54:39.000Z</time>
      </trkpt>
      <trkpt lat="49.78533" lon="4.79705">
        <ele>256</ele>
        <time>2022-09-28T06:54:40.000Z</time>
      </trkpt>
      <trkpt lat="49.78537" lon="4.79706">
        <ele>257</ele>
        <time>2022-09-28T06:54:41.000Z</time>
      </trkpt>
      <trkpt lat="49.78541" lon="4.79707">
        <ele>257</ele>
        <time>2022-09-28T06:54:42.000Z</time>
      </trkpt>
      <trkpt lat="49.78545" lon="4.79709">
        <ele>257</ele>
        <time>2022-09-28T06:54:43.000Z</time>
      </trkpt>
      <trkpt lat="49.78549" lon="4.7971">
        <ele>257</ele>
        <time>2022-09-28T06:54:44.000Z</time>
      </trkpt>
      <trkpt lat="49.78553" lon="4.79711">
        <ele>257</ele>
        <time>2022-09-28T06:54:45.000Z</time>
      </trkpt>
      <trkpt lat="49.78557" lon="4.79713">
        <ele>258</ele>
        <time>2022-09-28T06:54:46.000Z</time>
      </trkpt>
      <trkpt lat="49.78561" lon="4.79714">
        <ele>258</ele>
        <time>2022-09-28T06:54:47.000Z</time>
      </trkpt>
      <trkpt lat="49.78565" lon="4.79716">
        <ele>258</ele>
        <time>2022-09-28T06:54:48.000Z</time>
      </trkpt>
      <trkpt lat="49.78569" lon="4.79717">
        <ele>258</ele>
        <time>2022-09-28T06:54:49.000Z</time>
      </trkpt>
      <trkpt lat="49.78573" lon="4.79718">
        <ele>258</ele>
        <time>2022-09-28T06:54:50.000Z</time>
      </trkpt>
      <trkpt lat="49.78577" lon="4.7972">
        <ele>259</ele>
        <time>2022-09-28T06:54:51.000Z</time>
      </trkpt>
      <trkpt lat="49.78581" lon="4.79721">
        <ele>259</ele>
        <time>2022-09-28T06:54:52.000Z</time>
      </trkpt>
      <trkpt lat="49.78584" lon="4.79723">
        <ele>259</ele>
        <time>2022-09-28T06:54:53.000Z</time>
      </trkpt>
      <trkpt lat="49.78588" lon="4.79724">
        <ele>259</ele>
        <time>2022-09-28T06:54:54.000Z</time>
      </trkpt>
      <trkpt lat="49.78592" lon="4.79726">
        <ele>259</ele>
        <time>2022-09-28T06:54:55.000Z</time>
      </trkpt>
      <trkpt lat="49.78596" lon="4.79727">
        <ele>260</ele>
        <time>2022-09-28T06:54:56.000Z</time>
      </trkpt>
      <trkpt lat="49.786" lon="4.79728">
        <ele>260</ele>
        <time>2022-09-28T06:54:57.000Z</time>
      </trkpt>
      <trkpt lat="49.78604" lon="4.79729">
        <ele>260</ele>
        <time>2022-09-28T06:54:58.000Z</time>
      </trkpt>
      <trkpt lat="49.78608" lon="4.79731">
        <ele>260</ele>
        <time>2022-09-28T06:54:59.000Z</time>
      </trkpt>
      <trkpt lat="49.78611" lon="4.79732">
        <ele>260</ele>
        <time>2022-09-28T06:55:00.000Z</time>
      </trkpt>
      <trkpt lat="49.78615" lon="4.79733">
        <ele>260</ele>
        <time>2022-09-28T06:55:01.000Z</time>
      </trkpt>
      <trkpt lat="49.78619" lon="4.79735">
        <ele>260</ele>
        <time>2022-09-28T06:55:02.000Z</time>
      </trkpt>
      <trkpt lat="49.78623" lon="4.79736">
        <ele>261</ele>
        <time>2022-09-28T06:55:03.000Z</time>
      </trkpt>
      <trkpt lat="49.78627" lon="4.79738">
        <ele>261</ele>
        <time>2022-09-28T06:55:04.000Z</time>
      </trkpt>
      <trkpt lat="49.7863" lon="4.79739">
        <ele>261</ele>
        <time>2022-09-28T06:55:05.000Z</time>
      </trkpt>
      <trkpt lat="49.78634" lon="4.7974">
        <ele>261</ele>
        <time>2022-09-28T06:55:06.000Z</time>
      </trkpt>
      <trkpt lat="49.78638" lon="4.79742">
        <ele>261</ele>
        <time>2022-09-28T06:55:07.000Z</time>
      </trkpt>
      <trkpt lat="49.78642" lon="4.79743">
        <ele>261</ele>
        <time>2022-09-28T06:55:08.000Z</time>
      </trkpt>
      <trkpt lat="49.78646" lon="4.79745">
        <ele>261</ele>
        <time>2022-09-28T06:55:09.000Z</time>
      </trkpt>
      <trkpt lat="49.78651" lon="4.79746">
        <ele>261</ele>
        <time>2022-09-28T06:55:10.000Z</time>
      </trkpt>
      <trkpt lat="49.78655" lon="4.79748">
        <ele>261</ele>
        <time>2022-09-28T06:55:11.000Z</time>
      </trkpt>
      <trkpt lat="49.78659" lon="4.79749">
        <ele>262</ele>
        <time>2022-09-28T06:55:12.000Z</time>
      </trkpt>
      <trkpt lat="49.78663" lon="4.79751">
        <ele>262</ele>
        <time>2022-09-28T06:55:13.000Z</time>
      </trkpt>
      <trkpt lat="49.78667" lon="4.79752">
        <ele>262</ele>
        <time>2022-09-28T06:55:14.000Z</time>
      </trkpt>
      <trkpt lat="49.78671" lon="4.79754">
        <ele>262</ele>
        <time>2022-09-28T06:55:15.000Z</time>
      </trkpt>
      <trkpt lat="49.78676" lon="4.79755">
        <ele>262</ele>
        <time>2022-09-28T06:55:16.000Z</time>
      </trkpt>
      <trkpt lat="49.7868" lon="4.79757">
        <ele>262</ele>
        <time>2022-09-28T06:55:17.000Z</time>
      </trkpt>
      <trkpt lat="49.78684" lon="4.79758">
        <ele>262</ele>
        <time>2022-09-28T06:55:18.000Z</time>
      </trkpt>
      <trkpt lat="49.78689" lon="4.7976">
        <ele>263</ele>
        <time>2022-09-28T06:55:19.000Z</time>
      </trkpt>
      <trkpt lat="49.78693" lon="4.79762">
        <ele>263</ele>
        <time>2022-09-28T06:55:20.000Z</time>
      </trkpt>
      <trkpt lat="49.78697" lon="4.79764">
        <ele>263</ele>
        <time>2022-09-28T06:55:21.000Z</time>
      </trkpt>
      <trkpt lat="49.78702" lon="4.79765">
        <ele>263</ele>
        <time>2022-09-28T06:55:22.000Z</time>
      </trkpt>
      <trkpt lat="49.78706" lon="4.79767">
        <ele>263</ele>
        <time>2022-09-28T06:55:23.000Z</time>
      </trkpt>
      <trkpt lat="49.7871" lon="4.79769">
        <ele>263</ele>
        <time>2022-09-28T06:55:24.000Z</time>
      </trkpt>
      <trkpt lat="49.78715" lon="4.7977">
        <ele>264</ele>
        <time>2022-09-28T06:55:25.000Z</time>
      </trkpt>
      <trkpt lat="49.78719" lon="4.7977">
        <ele>264</ele>
        <time>2022-09-28T06:55:26.000Z</time>
      </trkpt>
      <trkpt lat="49.78723" lon="4.79771">
        <ele>264</ele>
        <time>2022-09-28T06:55:27.000Z</time>
      </trkpt>
      <trkpt lat="49.78727" lon="4.79772">
        <ele>264</ele>
        <time>2022-09-28T06:55:28.000Z</time>
      </trkpt>
      <trkpt lat="49.7873" lon="4.79773">
        <ele>264</ele>
        <time>2022-09-28T06:55:29.000Z</time>
      </trkpt>
      <trkpt lat="49.78735" lon="4.79775">
        <ele>264</ele>
        <time>2022-09-28T06:55:30.000Z</time>
      </trkpt>
      <trkpt lat="49.78739" lon="4.79777">
        <ele>264</ele>
        <time>2022-09-28T06:55:31.000Z</time>
      </trkpt>
      <trkpt lat="49.78744" lon="4.79779">
        <ele>264</ele>
        <time>2022-09-28T06:55:32.000Z</time>
      </trkpt>
      <trkpt lat="49.78748" lon="4.79781">
        <ele>264</ele>
        <time>2022-09-28T06:55:33.000Z</time>
      </trkpt>
      <trkpt lat="49.78753" lon="4.79783">
        <ele>264</ele>
        <time>2022-09-28T06:55:34.000Z</time>
      </trkpt>
      <trkpt lat="49.78758" lon="4.79785">
        <ele>264</ele>
        <time>2022-09-28T06:55:35.000Z</time>
      </trkpt>
      <trkpt lat="49.78763" lon="4.79787">
        <ele>264</ele>
        <time>2022-09-28T06:55:36.000Z</time>
      </trkpt>
      <trkpt lat="49.78768" lon="4.7979">
        <ele>264</ele>
        <time>2022-09-28T06:55:37.000Z</time>
      </trkpt>
      <trkpt lat="49.78774" lon="4.79792">
        <ele>265</ele>
        <time>2022-09-28T06:55:38.000Z</time>
      </trkpt>
      <trkpt lat="49.78779" lon="4.79794">
        <ele>265</ele>
        <time>2022-09-28T06:55:39.000Z</time>
      </trkpt>
      <trkpt lat="49.78784" lon="4.79797">
        <ele>265</ele>
        <time>2022-09-28T06:55:40.000Z</time>
      </trkpt>
      <trkpt lat="49.78789" lon="4.79799">
        <ele>265</ele>
        <time>2022-09-28T06:55:41.000Z</time>
      </trkpt>
      <trkpt lat="49.78795" lon="4.79802">
        <ele>265</ele>
        <time>2022-09-28T06:55:42.000Z</time>
      </trkpt>
      <trkpt lat="49.788" lon="4.79804">
        <ele>265</ele>
        <time>2022-09-28T06:55:43.000Z</time>
      </trkpt>
      <trkpt lat="49.78805" lon="4.79807">
        <ele>266</ele>
        <time>2022-09-28T06:55:44.000Z</time>
      </trkpt>
      <trkpt lat="49.78811" lon="4.7981">
        <ele>266</ele>
        <time>2022-09-28T06:55:45.000Z</time>
      </trkpt>
      <trkpt lat="49.78816" lon="4.79813">
        <ele>266</ele>
        <time>2022-09-28T06:55:46.000Z</time>
      </trkpt>
      <trkpt lat="49.78821" lon="4.79816">
        <ele>266</ele>
        <time>2022-09-28T06:55:47.000Z</time>
      </trkpt>
      <trkpt lat="49.78827" lon="4.79819">
        <ele>266</ele>
        <time>2022-09-28T06:55:48.000Z</time>
      </trkpt>
      <trkpt lat="49.78832" lon="4.79822">
        <ele>266</ele>
        <time>2022-09-28T06:55:49.000Z</time>
      </trkpt>
      <trkpt lat="49.78838" lon="4.79825">
        <ele>266</ele>
        <time>2022-09-28T06:55:50.000Z</time>
      </trkpt>
      <trkpt lat="49.78844" lon="4.79829">
        <ele>267</ele>
        <time>2022-09-28T06:55:51.000Z</time>
      </trkpt>
      <trkpt lat="49.78849" lon="4.79832">
        <ele>267</ele>
        <time>2022-09-28T06:55:52.000Z</time>
      </trkpt>
      <trkpt lat="49.78855" lon="4.79836">
        <ele>267</ele>
        <time>2022-09-28T06:55:53.000Z</time>
      </trkpt>
      <trkpt lat="49.7886" lon="4.79839">
        <ele>267</ele>
        <time>2022-09-28T06:55:54.000Z</time>
      </trkpt>
      <trkpt lat="49.78866" lon="4.79843">
        <ele>267</ele>
        <time>2022-09-28T06:55:55.000Z</time>
      </trkpt>
      <trkpt lat="49.78871" lon="4.79847">
        <ele>267</ele>
        <time>2022-09-28T06:55:56.000Z</time>
      </trkpt>
      <trkpt lat="49.78877" lon="4.79851">
        <ele>267</ele>
        <time>2022-09-28T06:55:57.000Z</time>
      </trkpt>
      <trkpt lat="49.78882" lon="4.79855">
        <ele>267</ele>
        <time>2022-09-28T06:55:58.000Z</time>
      </trkpt>
      <trkpt lat="49.78888" lon="4.79859">
        <ele>267</ele>
        <time>2022-09-28T06:55:59.000Z</time>
      </trkpt>
      <trkpt lat="49.78893" lon="4.79864">
        <ele>266</ele>
        <time>2022-09-28T06:56:00.000Z</time>
      </trkpt>
      <trkpt lat="49.78899" lon="4.79868">
        <ele>266</ele>
        <time>2022-09-28T06:56:01.000Z</time>
      </trkpt>
      <trkpt lat="49.78905" lon="4.79872">
        <ele>266</ele>
        <time>2022-09-28T06:56:02.000Z</time>
      </trkpt>
      <trkpt lat="49.7891" lon="4.79877">
        <ele>266</ele>
        <time>2022-09-28T06:56:03.000Z</time>
      </trkpt>
      <trkpt lat="49.78915" lon="4.79881">
        <ele>266</ele>
        <time>2022-09-28T06:56:04.000Z</time>
      </trkpt>
      <trkpt lat="49.78921" lon="4.79886">
        <ele>266</ele>
        <time>2022-09-28T06:56:05.000Z</time>
      </trkpt>
      <trkpt lat="49.78926" lon="4.79891">
        <ele>266</ele>
        <time>2022-09-28T06:56:06.000Z</time>
      </trkpt>
      <trkpt lat="49.78932" lon="4.79895">
        <ele>266</ele>
        <time>2022-09-28T06:56:07.000Z</time>
      </trkpt>
      <trkpt lat="49.78937" lon="4.799">
        <ele>266</ele>
        <time>2022-09-28T06:56:08.000Z</time>
      </trkpt>
      <trkpt lat="49.78942" lon="4.79904">
        <ele>266</ele>
        <time>2022-09-28T06:56:09.000Z</time>
      </trkpt>
      <trkpt lat="49.78947" lon="4.79909">
        <ele>266</ele>
        <time>2022-09-28T06:56:10.000Z</time>
      </trkpt>
      <trkpt lat="49.78953" lon="4.79913">
        <ele>266</ele>
        <time>2022-09-28T06:56:11.000Z</time>
      </trkpt>
      <trkpt lat="49.78958" lon="4.79918">
        <ele>266</ele>
        <time>2022-09-28T06:56:12.000Z</time>
      </trkpt>
      <trkpt lat="49.78963" lon="4.79923">
        <ele>266</ele>
        <time>2022-09-28T06:56:13.000Z</time>
      </trkpt>
      <trkpt lat="49.78968" lon="4.79927">
        <ele>266</ele>
        <time>2022-09-28T06:56:14.000Z</time>
      </trkpt>
      <trkpt lat="49.78973" lon="4.79932">
        <ele>265</ele>
        <time>2022-09-28T06:56:15.000Z</time>
      </trkpt>
      <trkpt lat="49.78978" lon="4.79936">
        <ele>265</ele>
        <time>2022-09-28T06:56:16.000Z</time>
      </trkpt>
      <trkpt lat="49.78983" lon="4.79941">
        <ele>265</ele>
        <time>2022-09-28T06:56:17.000Z</time>
      </trkpt>
      <trkpt lat="49.78988" lon="4.79946">
        <ele>265</ele>
        <time>2022-09-28T06:56:18.000Z</time>
      </trkpt>
      <trkpt lat="49.78994" lon="4.79951">
        <ele>265</ele>
        <time>2022-09-28T06:56:19.000Z</time>
      </trkpt>
      <trkpt lat="49.78999" lon="4.79955">
        <ele>265</ele>
        <time>2022-09-28T06:56:20.000Z</time>
      </trkpt>
      <trkpt lat="49.79004" lon="4.7996">
        <ele>265</ele>
        <time>2022-09-28T06:56:21.000Z</time>
      </trkpt>
      <trkpt lat="49.79009" lon="4.79965">
        <ele>264</ele>
        <time>2022-09-28T06:56:22.000Z</time>
      </trkpt>
      <trkpt lat="49.79014" lon="4.7997">
        <ele>264</ele>
        <time>2022-09-28T06:56:23.000Z</time>
      </trkpt>
      <trkpt lat="49.79019" lon="4.79975">
        <ele>264</ele>
        <time>2022-09-28T06:56:24.000Z</time>
      </trkpt>
      <trkpt lat="49.79025" lon="4.79979">
        <ele>264</ele>
        <time>2022-09-28T06:56:25.000Z</time>
      </trkpt>
      <trkpt lat="49.7903" lon="4.79984">
        <ele>264</ele>
        <time>2022-09-28T06:56:26.000Z</time>
      </trkpt>
      <trkpt lat="49.79035" lon="4.79989">
        <ele>264</ele>
        <time>2022-09-28T06:56:27.000Z</time>
      </trkpt>
      <trkpt lat="49.79041" lon="4.79994">
        <ele>264</ele>
        <time>2022-09-28T06:56:28.000Z</time>
      </trkpt>
      <trkpt lat="49.79046" lon="4.79999">
        <ele>264</ele>
        <time>2022-09-28T06:56:29.000Z</time>
      </trkpt>
      <trkpt lat="49.79051" lon="4.80004">
        <ele>264</ele>
        <time>2022-09-28T06:56:30.000Z</time>
      </trkpt>
      <trkpt lat="49.79056" lon="4.80008">
        <ele>264</ele>
        <time>2022-09-28T06:56:31.000Z</time>
      </trkpt>
      <trkpt lat="49.79061" lon="4.80013">
        <ele>264</ele>
        <time>2022-09-28T06:56:32.000Z</time>
      </trkpt>
      <trkpt lat="49.79066" lon="4.80018">
        <ele>264</ele>
        <time>2022-09-28T06:56:33.000Z</time>
      </trkpt>
      <trkpt lat="49.79072" lon="4.80023">
        <ele>264</ele>
        <time>2022-09-28T06:56:34.000Z</time>
      </trkpt>
      <trkpt lat="49.79077" lon="4.80027">
        <ele>264</ele>
        <time>2022-09-28T06:56:35.000Z</time>
      </trkpt>
      <trkpt lat="49.79082" lon="4.80032">
        <ele>264</ele>
        <time>2022-09-28T06:56:36.000Z</time>
      </trkpt>
      <trkpt lat="49.79087" lon="4.80036">
        <ele>264</ele>
        <time>2022-09-28T06:56:37.000Z</time>
      </trkpt>
      <trkpt lat="49.79092" lon="4.80041">
        <ele>264</ele>
        <time>2022-09-28T06:56:38.000Z</time>
      </trkpt>
      <trkpt lat="49.79097" lon="4.80046">
        <ele>264</ele>
        <time>2022-09-28T06:56:39.000Z</time>
      </trkpt>
      <trkpt lat="49.79102" lon="4.8005">
        <ele>264</ele>
        <time>2022-09-28T06:56:40.000Z</time>
      </trkpt>
      <trkpt lat="49.79107" lon="4.80055">
        <ele>264</ele>
        <time>2022-09-28T06:56:41.000Z</time>
      </trkpt>
      <trkpt lat="49.79112" lon="4.80058">
        <ele>264</ele>
        <time>2022-09-28T06:56:42.000Z</time>
      </trkpt>
      <trkpt lat="49.79117" lon="4.80061">
        <ele>264</ele>
        <time>2022-09-28T06:56:43.000Z</time>
      </trkpt>
      <trkpt lat="49.79123" lon="4.80064">
        <ele>264</ele>
        <time>2022-09-28T06:56:44.000Z</time>
      </trkpt>
      <trkpt lat="49.79128" lon="4.80067">
        <ele>264</ele>
        <time>2022-09-28T06:56:45.000Z</time>
      </trkpt>
      <trkpt lat="49.79132" lon="4.8007">
        <ele>264</ele>
        <time>2022-09-28T06:56:46.000Z</time>
      </trkpt>
      <trkpt lat="49.79137" lon="4.80072">
        <ele>264</ele>
        <time>2022-09-28T06:56:47.000Z</time>
      </trkpt>
      <trkpt lat="49.79141" lon="4.80073">
        <ele>264</ele>
        <time>2022-09-28T06:56:48.000Z</time>
      </trkpt>
      <trkpt lat="49.79146" lon="4.80073">
        <ele>264</ele>
        <time>2022-09-28T06:56:49.000Z</time>
      </trkpt>
      <trkpt lat="49.7915" lon="4.80073">
        <ele>264</ele>
        <time>2022-09-28T06:56:50.000Z</time>
      </trkpt>
      <trkpt lat="49.79154" lon="4.80072">
        <ele>264</ele>
        <time>2022-09-28T06:56:51.000Z</time>
      </trkpt>
      <trkpt lat="49.7916" lon="4.80072">
        <ele>264</ele>
        <time>2022-09-28T06:56:52.000Z</time>
      </trkpt>
      <trkpt lat="49.79165" lon="4.80071">
        <ele>264</ele>
        <time>2022-09-28T06:56:53.000Z</time>
      </trkpt>
      <trkpt lat="49.79169" lon="4.8007">
        <ele>264</ele>
        <time>2022-09-28T06:56:54.000Z</time>
      </trkpt>
      <trkpt lat="49.79174" lon="4.8007">
        <ele>264</ele>
        <time>2022-09-28T06:56:55.000Z</time>
      </trkpt>
      <trkpt lat="49.79179" lon="4.8007">
        <ele>264</ele>
        <time>2022-09-28T06:56:56.000Z</time>
      </trkpt>
      <trkpt lat="49.79183" lon="4.80069">
        <ele>264</ele>
        <time>2022-09-28T06:56:57.000Z</time>
      </trkpt>
      <trkpt lat="49.79188" lon="4.80069">
        <ele>264</ele>
        <time>2022-09-28T06:56:58.000Z</time>
      </trkpt>
      <trkpt lat="49.79193" lon="4.80068">
        <ele>264</ele>
        <time>2022-09-28T06:56:59.000Z</time>
      </trkpt>
      <trkpt lat="49.79197" lon="4.80069">
        <ele>264</ele>
        <time>2022-09-28T06:57:00.000Z</time>
      </trkpt>
      <trkpt lat="49.79201" lon="4.80069">
        <ele>264</ele>
        <time>2022-09-28T06:57:01.000Z</time>
      </trkpt>
      <trkpt lat="49.79204" lon="4.80068">
        <ele>265</ele>
        <time>2022-09-28T06:57:02.000Z</time>
      </trkpt>
      <trkpt lat="49.79207" lon="4.80067">
        <ele>265</ele>
        <time>2022-09-28T06:57:03.000Z</time>
      </trkpt>
      <trkpt lat="49.7921" lon="4.80066">
        <ele>265</ele>
        <time>2022-09-28T06:57:04.000Z</time>
      </trkpt>
      <trkpt lat="49.79214" lon="4.80065">
        <ele>265</ele>
        <time>2022-09-28T06:57:05.000Z</time>
      </trkpt>
      <trkpt lat="49.79216" lon="4.80064">
        <ele>265</ele>
        <time>2022-09-28T06:57:06.000Z</time>
      </trkpt>
      <trkpt lat="49.79219" lon="4.80063">
        <ele>266</ele>
        <time>2022-09-28T06:57:07.000Z</time>
      </trkpt>
      <trkpt lat="49.79222" lon="4.80062">
        <ele>266</ele>
        <time>2022-09-28T06:57:08.000Z</time>
      </trkpt>
      <trkpt lat="49.79225" lon="4.80061">
        <ele>266</ele>
        <time>2022-09-28T06:57:09.000Z</time>
      </trkpt>
      <trkpt lat="49.79228" lon="4.80061">
        <ele>266</ele>
        <time>2022-09-28T06:57:10.000Z</time>
      </trkpt>
      <trkpt lat="49.79231" lon="4.8006">
        <ele>266</ele>
        <time>2022-09-28T06:57:11.000Z</time>
      </trkpt>
      <trkpt lat="49.79234" lon="4.80059">
        <ele>267</ele>
        <time>2022-09-28T06:57:12.000Z</time>
      </trkpt>
      <trkpt lat="49.79236" lon="4.80058">
        <ele>267</ele>
        <time>2022-09-28T06:57:13.000Z</time>
      </trkpt>
      <trkpt lat="49.7924" lon="4.80057">
        <ele>267</ele>
        <time>2022-09-28T06:57:14.000Z</time>
      </trkpt>
      <trkpt lat="49.79243" lon="4.80057">
        <ele>268</ele>
        <time>2022-09-28T06:57:15.000Z</time>
      </trkpt>
      <trkpt lat="49.79245" lon="4.80057">
        <ele>268</ele>
        <time>2022-09-28T06:57:16.000Z</time>
      </trkpt>
      <trkpt lat="49.79249" lon="4.80055">
        <ele>268</ele>
        <time>2022-09-28T06:57:17.000Z</time>
      </trkpt>
      <trkpt lat="49.79251" lon="4.80054">
        <ele>269</ele>
        <time>2022-09-28T06:57:18.000Z</time>
      </trkpt>
      <trkpt lat="49.79254" lon="4.80054">
        <ele>269</ele>
        <time>2022-09-28T06:57:19.000Z</time>
      </trkpt>
      <trkpt lat="49.79256" lon="4.80053">
        <ele>269</ele>
        <time>2022-09-28T06:57:20.000Z</time>
      </trkpt>
      <trkpt lat="49.79259" lon="4.80052">
        <ele>269</ele>
        <time>2022-09-28T06:57:21.000Z</time>
      </trkpt>
      <trkpt lat="49.79261" lon="4.80051">
        <ele>270</ele>
        <time>2022-09-28T06:57:22.000Z</time>
      </trkpt>
      <trkpt lat="49.79263" lon="4.8005">
        <ele>270</ele>
        <time>2022-09-28T06:57:23.000Z</time>
      </trkpt>
      <trkpt lat="49.79266" lon="4.80049">
        <ele>270</ele>
        <time>2022-09-28T06:57:24.000Z</time>
      </trkpt>
      <trkpt lat="49.79268" lon="4.80048">
        <ele>270</ele>
        <time>2022-09-28T06:57:25.000Z</time>
      </trkpt>
      <trkpt lat="49.79271" lon="4.80048">
        <ele>270</ele>
        <time>2022-09-28T06:57:26.000Z</time>
      </trkpt>
      <trkpt lat="49.79274" lon="4.80047">
        <ele>271</ele>
        <time>2022-09-28T06:57:27.000Z</time>
      </trkpt>
      <trkpt lat="49.79277" lon="4.80046">
        <ele>271</ele>
        <time>2022-09-28T06:57:28.000Z</time>
      </trkpt>
      <trkpt lat="49.79279" lon="4.80046">
        <ele>271</ele>
        <time>2022-09-28T06:57:29.000Z</time>
      </trkpt>
      <trkpt lat="49.79282" lon="4.80045">
        <ele>271</ele>
        <time>2022-09-28T06:57:30.000Z</time>
      </trkpt>
      <trkpt lat="49.79284" lon="4.80045">
        <ele>271</ele>
        <time>2022-09-28T06:57:31.000Z</time>
      </trkpt>
      <trkpt lat="49.79287" lon="4.80044">
        <ele>272</ele>
        <time>2022-09-28T06:57:32.000Z</time>
      </trkpt>
      <trkpt lat="49.79289" lon="4.80044">
        <ele>272</ele>
        <time>2022-09-28T06:57:33.000Z</time>
      </trkpt>
      <trkpt lat="49.79292" lon="4.80043">
        <ele>272</ele>
        <time>2022-09-28T06:57:34.000Z</time>
      </trkpt>
      <trkpt lat="49.79294" lon="4.80042">
        <ele>272</ele>
        <time>2022-09-28T06:57:35.000Z</time>
      </trkpt>
      <trkpt lat="49.79297" lon="4.80042">
        <ele>272</ele>
        <time>2022-09-28T06:57:36.000Z</time>
      </trkpt>
      <trkpt lat="49.793" lon="4.80042">
        <ele>273</ele>
        <time>2022-09-28T06:57:37.000Z</time>
      </trkpt>
      <trkpt lat="49.79302" lon="4.80042">
        <ele>273</ele>
        <time>2022-09-28T06:57:38.000Z</time>
      </trkpt>
      <trkpt lat="49.79304" lon="4.80041">
        <ele>273</ele>
        <time>2022-09-28T06:57:39.000Z</time>
      </trkpt>
      <trkpt lat="49.79307" lon="4.80041">
        <ele>273</ele>
        <time>2022-09-28T06:57:40.000Z</time>
      </trkpt>
      <trkpt lat="49.79309" lon="4.8004">
        <ele>274</ele>
        <time>2022-09-28T06:57:41.000Z</time>
      </trkpt>
      <trkpt lat="49.79311" lon="4.80039">
        <ele>274</ele>
        <time>2022-09-28T06:57:42.000Z</time>
      </trkpt>
      <trkpt lat="49.79313" lon="4.80037">
        <ele>274</ele>
        <time>2022-09-28T06:57:43.000Z</time>
      </trkpt>
      <trkpt lat="49.79316" lon="4.80034">
        <ele>274</ele>
        <time>2022-09-28T06:57:44.000Z</time>
      </trkpt>
      <trkpt lat="49.79318" lon="4.8003">
        <ele>274</ele>
        <time>2022-09-28T06:57:45.000Z</time>
      </trkpt>
      <trkpt lat="49.79319" lon="4.80026">
        <ele>274</ele>
        <time>2022-09-28T06:57:46.000Z</time>
      </trkpt>
      <trkpt lat="49.79321" lon="4.80022">
        <ele>275</ele>
        <time>2022-09-28T06:57:47.000Z</time>
      </trkpt>
      <trkpt lat="49.79323" lon="4.80017">
        <ele>275</ele>
        <time>2022-09-28T06:57:48.000Z</time>
      </trkpt>
      <trkpt lat="49.79325" lon="4.80012">
        <ele>275</ele>
        <time>2022-09-28T06:57:49.000Z</time>
      </trkpt>
      <trkpt lat="49.79327" lon="4.80008">
        <ele>275</ele>
        <time>2022-09-28T06:57:50.000Z</time>
      </trkpt>
      <trkpt lat="49.79329" lon="4.80004">
        <ele>275</ele>
        <time>2022-09-28T06:57:51.000Z</time>
      </trkpt>
      <trkpt lat="49.7933" lon="4.79999">
        <ele>275</ele>
        <time>2022-09-28T06:57:52.000Z</time>
      </trkpt>
      <trkpt lat="49.79331" lon="4.79995">
        <ele>276</ele>
        <time>2022-09-28T06:57:53.000Z</time>
      </trkpt>
      <trkpt lat="49.79332" lon="4.7999">
        <ele>276</ele>
        <time>2022-09-28T06:57:54.000Z</time>
      </trkpt>
      <trkpt lat="49.79333" lon="4.79985">
        <ele>276</ele>
        <time>2022-09-28T06:57:55.000Z</time>
      </trkpt>
      <trkpt lat="49.79334" lon="4.7998">
        <ele>276</ele>
        <time>2022-09-28T06:57:56.000Z</time>
      </trkpt>
      <trkpt lat="49.79335" lon="4.79975">
        <ele>276</ele>
        <time>2022-09-28T06:57:57.000Z</time>
      </trkpt>
      <trkpt lat="49.79336" lon="4.7997">
        <ele>276</ele>
        <time>2022-09-28T06:57:58.000Z</time>
      </trkpt>
      <trkpt lat="49.79337" lon="4.79964">
        <ele>276</ele>
        <time>2022-09-28T06:57:59.000Z</time>
      </trkpt>
      <trkpt lat="49.79338" lon="4.79959">
        <ele>276</ele>
        <time>2022-09-28T06:58:00.000Z</time>
      </trkpt>
      <trkpt lat="49.79341" lon="4.79954">
        <ele>276</ele>
        <time>2022-09-28T06:58:01.000Z</time>
      </trkpt>
      <trkpt lat="49.79343" lon="4.79949">
        <ele>276</ele>
        <time>2022-09-28T06:58:02.000Z</time>
      </trkpt>
      <trkpt lat="49.79345" lon="4.79945">
        <ele>276</ele>
        <time>2022-09-28T06:58:03.000Z</time>
      </trkpt>
      <trkpt lat="49.79347" lon="4.79942">
        <ele>276</ele>
        <time>2022-09-28T06:58:04.000Z</time>
      </trkpt>
      <trkpt lat="49.79349" lon="4.79938">
        <ele>276</ele>
        <time>2022-09-28T06:58:05.000Z</time>
      </trkpt>
      <trkpt lat="49.7935" lon="4.79934">
        <ele>275</ele>
        <time>2022-09-28T06:58:06.000Z</time>
      </trkpt>
      <trkpt lat="49.79352" lon="4.7993">
        <ele>275</ele>
        <time>2022-09-28T06:58:07.000Z</time>
      </trkpt>
      <trkpt lat="49.79354" lon="4.79925">
        <ele>275</ele>
        <time>2022-09-28T06:58:08.000Z</time>
      </trkpt>
      <trkpt lat="49.79356" lon="4.79921">
        <ele>275</ele>
        <time>2022-09-28T06:58:09.000Z</time>
      </trkpt>
      <trkpt lat="49.79359" lon="4.79917">
        <ele>275</ele>
        <time>2022-09-28T06:58:10.000Z</time>
      </trkpt>
      <trkpt lat="49.79361" lon="4.79913">
        <ele>275</ele>
        <time>2022-09-28T06:58:11.000Z</time>
      </trkpt>
      <trkpt lat="49.79363" lon="4.79909">
        <ele>275</ele>
        <time>2022-09-28T06:58:12.000Z</time>
      </trkpt>
      <trkpt lat="49.79365" lon="4.79906">
        <ele>275</ele>
        <time>2022-09-28T06:58:13.000Z</time>
      </trkpt>
      <trkpt lat="49.79367" lon="4.79904">
        <ele>275</ele>
        <time>2022-09-28T06:58:14.000Z</time>
      </trkpt>
      <trkpt lat="49.79369" lon="4.79901">
        <ele>275</ele>
        <time>2022-09-28T06:58:15.000Z</time>
      </trkpt>
      <trkpt lat="49.79371" lon="4.79898">
        <ele>275</ele>
        <time>2022-09-28T06:58:16.000Z</time>
      </trkpt>
      <trkpt lat="49.79373" lon="4.79895">
        <ele>275</ele>
        <time>2022-09-28T06:58:17.000Z</time>
      </trkpt>
      <trkpt lat="49.79375" lon="4.79892">
        <ele>275</ele>
        <time>2022-09-28T06:58:18.000Z</time>
      </trkpt>
      <trkpt lat="49.79376" lon="4.79888">
        <ele>275</ele>
        <time>2022-09-28T06:58:19.000Z</time>
      </trkpt>
      <trkpt lat="49.79378" lon="4.79885">
        <ele>275</ele>
        <time>2022-09-28T06:58:20.000Z</time>
      </trkpt>
      <trkpt lat="49.7938" lon="4.79881">
        <ele>275</ele>
        <time>2022-09-28T06:58:21.000Z</time>
      </trkpt>
      <trkpt lat="49.79382" lon="4.79878">
        <ele>275</ele>
        <time>2022-09-28T06:58:22.000Z</time>
      </trkpt>
      <trkpt lat="49.79383" lon="4.79875">
        <ele>275</ele>
        <time>2022-09-28T06:58:23.000Z</time>
      </trkpt>
      <trkpt lat="49.79384" lon="4.7987">
        <ele>275</ele>
        <time>2022-09-28T06:58:24.000Z</time>
      </trkpt>
      <trkpt lat="49.79385" lon="4.79865">
        <ele>275</ele>
        <time>2022-09-28T06:58:25.000Z</time>
      </trkpt>
      <trkpt lat="49.79386" lon="4.7986">
        <ele>275</ele>
        <time>2022-09-28T06:58:26.000Z</time>
      </trkpt>
      <trkpt lat="49.79387" lon="4.79856">
        <ele>275</ele>
        <time>2022-09-28T06:58:27.000Z</time>
      </trkpt>
      <trkpt lat="49.79389" lon="4.79854">
        <ele>275</ele>
        <time>2022-09-28T06:58:28.000Z</time>
      </trkpt>
      <trkpt lat="49.7939" lon="4.79853">
        <ele>276</ele>
        <time>2022-09-28T06:58:29.000Z</time>
      </trkpt>
      <trkpt lat="49.79392" lon="4.79852">
        <ele>276</ele>
        <time>2022-09-28T06:58:30.000Z</time>
      </trkpt>
      <trkpt lat="49.79394" lon="4.7985">
        <ele>276</ele>
        <time>2022-09-28T06:58:31.000Z</time>
      </trkpt>
      <trkpt lat="49.79396" lon="4.79849">
        <ele>276</ele>
        <time>2022-09-28T06:58:32.000Z</time>
      </trkpt>
      <trkpt lat="49.79398" lon="4.79849">
        <ele>276</ele>
        <time>2022-09-28T06:58:33.000Z</time>
      </trkpt>
      <trkpt lat="49.794" lon="4.79849">
        <ele>276</ele>
        <time>2022-09-28T06:58:34.000Z</time>
      </trkpt>
      <trkpt lat="49.79402" lon="4.79848">
        <ele>276</ele>
        <time>2022-09-28T06:58:35.000Z</time>
      </trkpt>
      <trkpt lat="49.79404" lon="4.79848">
        <ele>276</ele>
        <time>2022-09-28T06:58:36.000Z</time>
      </trkpt>
      <trkpt lat="49.79406" lon="4.79847">
        <ele>277</ele>
        <time>2022-09-28T06:58:37.000Z</time>
      </trkpt>
      <trkpt lat="49.79408" lon="4.79846">
        <ele>277</ele>
        <time>2022-09-28T06:58:38.000Z</time>
      </trkpt>
      <trkpt lat="49.7941" lon="4.79846">
        <ele>277</ele>
        <time>2022-09-28T06:58:39.000Z</time>
      </trkpt>
      <trkpt lat="49.79413" lon="4.79845">
        <ele>277</ele>
        <time>2022-09-28T06:58:40.000Z</time>
      </trkpt>
      <trkpt lat="49.79415" lon="4.79844">
        <ele>277</ele>
        <time>2022-09-28T06:58:41.000Z</time>
      </trkpt>
      <trkpt lat="49.79418" lon="4.79844">
        <ele>277</ele>
        <time>2022-09-28T06:58:42.000Z</time>
      </trkpt>
      <trkpt lat="49.7942" lon="4.79844">
        <ele>277</ele>
        <time>2022-09-28T06:58:43.000Z</time>
      </trkpt>
      <trkpt lat="49.79422" lon="4.79844">
        <ele>277</ele>
        <time>2022-09-28T06:58:44.000Z</time>
      </trkpt>
      <trkpt lat="49.79424" lon="4.79844">
        <ele>278</ele>
        <time>2022-09-28T06:58:45.000Z</time>
      </trkpt>
      <trkpt lat="49.79427" lon="4.79843">
        <ele>278</ele>
        <time>2022-09-28T06:58:46.000Z</time>
      </trkpt>
      <trkpt lat="49.79429" lon="4.79843">
        <ele>278</ele>
        <time>2022-09-28T06:58:47.000Z</time>
      </trkpt>
      <trkpt lat="49.79432" lon="4.79843">
        <ele>278</ele>
        <time>2022-09-28T06:58:48.000Z</time>
      </trkpt>
      <trkpt lat="49.79435" lon="4.79843">
        <ele>278</ele>
        <time>2022-09-28T06:58:49.000Z</time>
      </trkpt>
      <trkpt lat="49.79437" lon="4.79843">
        <ele>279</ele>
        <time>2022-09-28T06:58:50.000Z</time>
      </trkpt>
      <trkpt lat="49.7944" lon="4.79842">
        <ele>279</ele>
        <time>2022-09-28T06:58:51.000Z</time>
      </trkpt>
      <trkpt lat="49.79443" lon="4.79842">
        <ele>279</ele>
        <time>2022-09-28T06:58:52.000Z</time>
      </trkpt>
      <trkpt lat="49.79447" lon="4.79842">
        <ele>279</ele>
        <time>2022-09-28T06:58:53.000Z</time>
      </trkpt>
      <trkpt lat="49.79449" lon="4.79841">
        <ele>280</ele>
        <time>2022-09-28T06:58:54.000Z</time>
      </trkpt>
      <trkpt lat="49.79452" lon="4.79841">
        <ele>280</ele>
        <time>2022-09-28T06:58:55.000Z</time>
      </trkpt>
      <trkpt lat="49.79455" lon="4.79841">
        <ele>280</ele>
        <time>2022-09-28T06:58:56.000Z</time>
      </trkpt>
      <trkpt lat="49.79458" lon="4.7984">
        <ele>281</ele>
        <time>2022-09-28T06:58:57.000Z</time>
      </trkpt>
      <trkpt lat="49.7946" lon="4.7984">
        <ele>281</ele>
        <time>2022-09-28T06:58:58.000Z</time>
      </trkpt>
      <trkpt lat="49.79463" lon="4.7984">
        <ele>281</ele>
        <time>2022-09-28T06:58:59.000Z</time>
      </trkpt>
      <trkpt lat="49.79466" lon="4.7984">
        <ele>282</ele>
        <time>2022-09-28T06:59:00.000Z</time>
      </trkpt>
      <trkpt lat="49.79468" lon="4.7984">
        <ele>282</ele>
        <time>2022-09-28T06:59:01.000Z</time>
      </trkpt>
      <trkpt lat="49.7947" lon="4.79839">
        <ele>282</ele>
        <time>2022-09-28T06:59:02.000Z</time>
      </trkpt>
      <trkpt lat="49.79472" lon="4.79839">
        <ele>283</ele>
        <time>2022-09-28T06:59:03.000Z</time>
      </trkpt>
      <trkpt lat="49.79475" lon="4.79838">
        <ele>283</ele>
        <time>2022-09-28T06:59:04.000Z</time>
      </trkpt>
      <trkpt lat="49.79477" lon="4.79838">
        <ele>284</ele>
        <time>2022-09-28T06:59:05.000Z</time>
      </trkpt>
      <trkpt lat="49.7948" lon="4.79838">
        <ele>284</ele>
        <time>2022-09-28T06:59:06.000Z</time>
      </trkpt>
      <trkpt lat="49.79484" lon="4.79837">
        <ele>284</ele>
        <time>2022-09-28T06:59:07.000Z</time>
      </trkpt>
      <trkpt lat="49.79487" lon="4.79837">
        <ele>284</ele>
        <time>2022-09-28T06:59:08.000Z</time>
      </trkpt>
      <trkpt lat="49.79491" lon="4.79837">
        <ele>285</ele>
        <time>2022-09-28T06:59:09.000Z</time>
      </trkpt>
      <trkpt lat="49.79493" lon="4.79837">
        <ele>285</ele>
        <time>2022-09-28T06:59:10.000Z</time>
      </trkpt>
      <trkpt lat="49.79496" lon="4.79837">
        <ele>285</ele>
        <time>2022-09-28T06:59:11.000Z</time>
      </trkpt>
      <trkpt lat="49.79499" lon="4.79837">
        <ele>285</ele>
        <time>2022-09-28T06:59:12.000Z</time>
      </trkpt>
      <trkpt lat="49.79502" lon="4.79837">
        <ele>285</ele>
        <time>2022-09-28T06:59:13.000Z</time>
      </trkpt>
      <trkpt lat="49.79506" lon="4.79836">
        <ele>286</ele>
        <time>2022-09-28T06:59:14.000Z</time>
      </trkpt>
      <trkpt lat="49.79509" lon="4.79836">
        <ele>286</ele>
        <time>2022-09-28T06:59:15.000Z</time>
      </trkpt>
      <trkpt lat="49.79512" lon="4.79836">
        <ele>286</ele>
        <time>2022-09-28T06:59:16.000Z</time>
      </trkpt>
      <trkpt lat="49.79514" lon="4.79836">
        <ele>286</ele>
        <time>2022-09-28T06:59:17.000Z</time>
      </trkpt>
      <trkpt lat="49.79517" lon="4.79835">
        <ele>287</ele>
        <time>2022-09-28T06:59:18.000Z</time>
      </trkpt>
      <trkpt lat="49.79519" lon="4.79834">
        <ele>287</ele>
        <time>2022-09-28T06:59:19.000Z</time>
      </trkpt>
      <trkpt lat="49.79522" lon="4.79833">
        <ele>287</ele>
        <time>2022-09-28T06:59:20.000Z</time>
      </trkpt>
      <trkpt lat="49.79525" lon="4.79833">
        <ele>287</ele>
        <time>2022-09-28T06:59:21.000Z</time>
      </trkpt>
      <trkpt lat="49.79528" lon="4.79833">
        <ele>288</ele>
        <time>2022-09-28T06:59:22.000Z</time>
      </trkpt>
      <trkpt lat="49.79531" lon="4.79833">
        <ele>288</ele>
        <time>2022-09-28T06:59:23.000Z</time>
      </trkpt>
      <trkpt lat="49.79534" lon="4.79834">
        <ele>288</ele>
        <time>2022-09-28T06:59:24.000Z</time>
      </trkpt>
      <trkpt lat="49.79537" lon="4.79833">
        <ele>288</ele>
        <time>2022-09-28T06:59:25.000Z</time>
      </trkpt>
      <trkpt lat="49.7954" lon="4.79832">
        <ele>289</ele>
        <time>2022-09-28T06:59:26.000Z</time>
      </trkpt>
      <trkpt lat="49.79543" lon="4.79833">
        <ele>289</ele>
        <time>2022-09-28T06:59:27.000Z</time>
      </trkpt>
      <trkpt lat="49.79546" lon="4.79833">
        <ele>289</ele>
        <time>2022-09-28T06:59:28.000Z</time>
      </trkpt>
      <trkpt lat="49.79548" lon="4.79833">
        <ele>290</ele>
        <time>2022-09-28T06:59:29.000Z</time>
      </trkpt>
      <trkpt lat="49.79551" lon="4.79833">
        <ele>290</ele>
        <time>2022-09-28T06:59:30.000Z</time>
      </trkpt>
      <trkpt lat="49.79555" lon="4.79834">
        <ele>290</ele>
        <time>2022-09-28T06:59:31.000Z</time>
      </trkpt>
      <trkpt lat="49.79558" lon="4.79834">
        <ele>290</ele>
        <time>2022-09-28T06:59:32.000Z</time>
      </trkpt>
      <trkpt lat="49.79561" lon="4.79834">
        <ele>291</ele>
        <time>2022-09-28T06:59:33.000Z</time>
      </trkpt>
      <trkpt lat="49.79564" lon="4.79835">
        <ele>291</ele>
        <time>2022-09-28T06:59:34.000Z</time>
      </trkpt>
      <trkpt lat="49.79566" lon="4.79835">
        <ele>291</ele>
        <time>2022-09-28T06:59:35.000Z</time>
      </trkpt>
      <trkpt lat="49.79569" lon="4.79835">
        <ele>291</ele>
        <time>2022-09-28T06:59:36.000Z</time>
      </trkpt>
      <trkpt lat="49.79572" lon="4.79834">
        <ele>292</ele>
        <time>2022-09-28T06:59:37.000Z</time>
      </trkpt>
      <trkpt lat="49.79574" lon="4.79834">
        <ele>292</ele>
        <time>2022-09-28T06:59:38.000Z</time>
      </trkpt>
      <trkpt lat="49.79577" lon="4.79834">
        <ele>292</ele>
        <time>2022-09-28T06:59:39.000Z</time>
      </trkpt>
      <trkpt lat="49.7958" lon="4.79833">
        <ele>292</ele>
        <time>2022-09-28T06:59:40.000Z</time>
      </trkpt>
      <trkpt lat="49.79584" lon="4.79833">
        <ele>293</ele>
        <time>2022-09-28T06:59:41.000Z</time>
      </trkpt>
      <trkpt lat="49.79587" lon="4.79832">
        <ele>293</ele>
        <time>2022-09-28T06:59:42.000Z</time>
      </trkpt>
      <trkpt lat="49.7959" lon="4.79831">
        <ele>293</ele>
        <time>2022-09-28T06:59:43.000Z</time>
      </trkpt>
      <trkpt lat="49.79593" lon="4.79831">
        <ele>293</ele>
        <time>2022-09-28T06:59:44.000Z</time>
      </trkpt>
      <trkpt lat="49.79597" lon="4.7983">
        <ele>293</ele>
        <time>2022-09-28T06:59:45.000Z</time>
      </trkpt>
      <trkpt lat="49.796" lon="4.7983">
        <ele>294</ele>
        <time>2022-09-28T06:59:46.000Z</time>
      </trkpt>
      <trkpt lat="49.79603" lon="4.7983">
        <ele>294</ele>
        <time>2022-09-28T06:59:47.000Z</time>
      </trkpt>
      <trkpt lat="49.79607" lon="4.79829">
        <ele>294</ele>
        <time>2022-09-28T06:59:48.000Z</time>
      </trkpt>
      <trkpt lat="49.7961" lon="4.79829">
        <ele>294</ele>
        <time>2022-09-28T06:59:49.000Z</time>
      </trkpt>
      <trkpt lat="49.79613" lon="4.79828">
        <ele>294</ele>
        <time>2022-09-28T06:59:50.000Z</time>
      </trkpt>
      <trkpt lat="49.79615" lon="4.79827">
        <ele>294</ele>
        <time>2022-09-28T06:59:51.000Z</time>
      </trkpt>
      <trkpt lat="49.79618" lon="4.79827">
        <ele>294</ele>
        <time>2022-09-28T06:59:52.000Z</time>
      </trkpt>
      <trkpt lat="49.7962" lon="4.79827">
        <ele>295</ele>
        <time>2022-09-28T06:59:53.000Z</time>
      </trkpt>
      <trkpt lat="49.79623" lon="4.79827">
        <ele>295</ele>
        <time>2022-09-28T06:59:54.000Z</time>
      </trkpt>
      <trkpt lat="49.79626" lon="4.79827">
        <ele>295</ele>
        <time>2022-09-28T06:59:55.000Z</time>
      </trkpt>
      <trkpt lat="49.79629" lon="4.79827">
        <ele>295</ele>
        <time>2022-09-28T06:59:56.000Z</time>
      </trkpt>
      <trkpt lat="49.79632" lon="4.79827">
        <ele>296</ele>
        <time>2022-09-28T06:59:57.000Z</time>
      </trkpt>
      <trkpt lat="49.79635" lon="4.79826">
        <ele>296</ele>
        <time>2022-09-28T06:59:58.000Z</time>
      </trkpt>
      <trkpt lat="49.79637" lon="4.79827">
        <ele>296</ele>
        <time>2022-09-28T06:59:59.000Z</time>
      </trkpt>
      <trkpt lat="49.7964" lon="4.79826">
        <ele>296</ele>
        <time>2022-09-28T07:00:00.000Z</time>
      </trkpt>
      <trkpt lat="49.79644" lon="4.79825">
        <ele>297</ele>
        <time>2022-09-28T07:00:01.000Z</time>
      </trkpt>
      <trkpt lat="49.79647" lon="4.79825">
        <ele>297</ele>
        <time>2022-09-28T07:00:02.000Z</time>
      </trkpt>
      <trkpt lat="49.79649" lon="4.79824">
        <ele>297</ele>
        <time>2022-09-28T07:00:03.000Z</time>
      </trkpt>
      <trkpt lat="49.79652" lon="4.79824">
        <ele>297</ele>
        <time>2022-09-28T07:00:04.000Z</time>
      </trkpt>
      <trkpt lat="49.79655" lon="4.79824">
        <ele>298</ele>
        <time>2022-09-28T07:00:05.000Z</time>
      </trkpt>
      <trkpt lat="49.79658" lon="4.79824">
        <ele>298</ele>
        <time>2022-09-28T07:00:06.000Z</time>
      </trkpt>
      <trkpt lat="49.79661" lon="4.79825">
        <ele>298</ele>
        <time>2022-09-28T07:00:07.000Z</time>
      </trkpt>
      <trkpt lat="49.79663" lon="4.79825">
        <ele>299</ele>
        <time>2022-09-28T07:00:08.000Z</time>
      </trkpt>
      <trkpt lat="49.79666" lon="4.79825">
        <ele>299</ele>
        <time>2022-09-28T07:00:09.000Z</time>
      </trkpt>
      <trkpt lat="49.7967" lon="4.79825">
        <ele>299</ele>
        <time>2022-09-28T07:00:10.000Z</time>
      </trkpt>
      <trkpt lat="49.79674" lon="4.79825">
        <ele>299</ele>
        <time>2022-09-28T07:00:11.000Z</time>
      </trkpt>
      <trkpt lat="49.79677" lon="4.79825">
        <ele>300</ele>
        <time>2022-09-28T07:00:12.000Z</time>
      </trkpt>
      <trkpt lat="49.79681" lon="4.79824">
        <ele>300</ele>
        <time>2022-09-28T07:00:13.000Z</time>
      </trkpt>
      <trkpt lat="49.79684" lon="4.79824">
        <ele>300</ele>
        <time>2022-09-28T07:00:14.000Z</time>
      </trkpt>
      <trkpt lat="49.79688" lon="4.79823">
        <ele>300</ele>
        <time>2022-09-28T07:00:15.000Z</time>
      </trkpt>
      <trkpt lat="49.79692" lon="4.79823">
        <ele>300</ele>
        <time>2022-09-28T07:00:16.000Z</time>
      </trkpt>
      <trkpt lat="49.79695" lon="4.79822">
        <ele>300</ele>
        <time>2022-09-28T07:00:17.000Z</time>
      </trkpt>
      <trkpt lat="49.79699" lon="4.79822">
        <ele>300</ele>
        <time>2022-09-28T07:00:18.000Z</time>
      </trkpt>
      <trkpt lat="49.79702" lon="4.79822">
        <ele>300</ele>
        <time>2022-09-28T07:00:19.000Z</time>
      </trkpt>
      <trkpt lat="49.79706" lon="4.79822">
        <ele>300</ele>
        <time>2022-09-28T07:00:20.000Z</time>
      </trkpt>
      <trkpt lat="49.7971" lon="4.79823">
        <ele>300</ele>
        <time>2022-09-28T07:00:21.000Z</time>
      </trkpt>
      <trkpt lat="49.79714" lon="4.79823">
        <ele>300</ele>
        <time>2022-09-28T07:00:22.000Z</time>
      </trkpt>
      <trkpt lat="49.79717" lon="4.79823">
        <ele>300</ele>
        <time>2022-09-28T07:00:23.000Z</time>
      </trkpt>
      <trkpt lat="49.79721" lon="4.79822">
        <ele>301</ele>
        <time>2022-09-28T07:00:24.000Z</time>
      </trkpt>
      <trkpt lat="49.79725" lon="4.79822">
        <ele>301</ele>
        <time>2022-09-28T07:00:25.000Z</time>
      </trkpt>
      <trkpt lat="49.79729" lon="4.79821">
        <ele>301</ele>
        <time>2022-09-28T07:00:26.000Z</time>
      </trkpt>
      <trkpt lat="49.79733" lon="4.7982">
        <ele>301</ele>
        <time>2022-09-28T07:00:27.000Z</time>
      </trkpt>
      <trkpt lat="49.79737" lon="4.79819">
        <ele>301</ele>
        <time>2022-09-28T07:00:28.000Z</time>
      </trkpt>
      <trkpt lat="49.79741" lon="4.79818">
        <ele>301</ele>
        <time>2022-09-28T07:00:29.000Z</time>
      </trkpt>
      <trkpt lat="49.79744" lon="4.79818">
        <ele>301</ele>
        <time>2022-09-28T07:00:30.000Z</time>
      </trkpt>
      <trkpt lat="49.79747" lon="4.79817">
        <ele>301</ele>
        <time>2022-09-28T07:00:31.000Z</time>
      </trkpt>
      <trkpt lat="49.7975" lon="4.79817">
        <ele>301</ele>
        <time>2022-09-28T07:00:32.000Z</time>
      </trkpt>
      <trkpt lat="49.79753" lon="4.79817">
        <ele>301</ele>
        <time>2022-09-28T07:00:33.000Z</time>
      </trkpt>
      <trkpt lat="49.79757" lon="4.79817">
        <ele>301</ele>
        <time>2022-09-28T07:00:34.000Z</time>
      </trkpt>
      <trkpt lat="49.7976" lon="4.79817">
        <ele>301</ele>
        <time>2022-09-28T07:00:35.000Z</time>
      </trkpt>
      <trkpt lat="49.79763" lon="4.79817">
        <ele>300</ele>
        <time>2022-09-28T07:00:36.000Z</time>
      </trkpt>
      <trkpt lat="49.79766" lon="4.79817">
        <ele>300</ele>
        <time>2022-09-28T07:00:37.000Z</time>
      </trkpt>
      <trkpt lat="49.79769" lon="4.79817">
        <ele>300</ele>
        <time>2022-09-28T07:00:38.000Z</time>
      </trkpt>
      <trkpt lat="49.79773" lon="4.79817">
        <ele>300</ele>
        <time>2022-09-28T07:00:39.000Z</time>
      </trkpt>
      <trkpt lat="49.79776" lon="4.79817">
        <ele>300</ele>
        <time>2022-09-28T07:00:40.000Z</time>
      </trkpt>
      <trkpt lat="49.7978" lon="4.79816">
        <ele>300</ele>
        <time>2022-09-28T07:00:41.000Z</time>
      </trkpt>
      <trkpt lat="49.79784" lon="4.79816">
        <ele>300</ele>
        <time>2022-09-28T07:00:42.000Z</time>
      </trkpt>
      <trkpt lat="49.79788" lon="4.79816">
        <ele>300</ele>
        <time>2022-09-28T07:00:43.000Z</time>
      </trkpt>
      <trkpt lat="49.79793" lon="4.79816">
        <ele>300</ele>
        <time>2022-09-28T07:00:44.000Z</time>
      </trkpt>
      <trkpt lat="49.79798" lon="4.79815">
        <ele>300</ele>
        <time>2022-09-28T07:00:45.000Z</time>
      </trkpt>
      <trkpt lat="49.79804" lon="4.79815">
        <ele>300</ele>
        <time>2022-09-28T07:00:46.000Z</time>
      </trkpt>
      <trkpt lat="49.79809" lon="4.79815">
        <ele>300</ele>
        <time>2022-09-28T07:00:47.000Z</time>
      </trkpt>
      <trkpt lat="49.79814" lon="4.79815">
        <ele>300</ele>
        <time>2022-09-28T07:00:48.000Z</time>
      </trkpt>
      <trkpt lat="49.79818" lon="4.79816">
        <ele>300</ele>
        <time>2022-09-28T07:00:49.000Z</time>
      </trkpt>
      <trkpt lat="49.79822" lon="4.79815">
        <ele>300</ele>
        <time>2022-09-28T07:00:50.000Z</time>
      </trkpt>
      <trkpt lat="49.79826" lon="4.79815">
        <ele>300</ele>
        <time>2022-09-28T07:00:51.000Z</time>
      </trkpt>
      <trkpt lat="49.79831" lon="4.79814">
        <ele>300</ele>
        <time>2022-09-28T07:00:52.000Z</time>
      </trkpt>
      <trkpt lat="49.79835" lon="4.79814">
        <ele>300</ele>
        <time>2022-09-28T07:00:53.000Z</time>
      </trkpt>
      <trkpt lat="49.79839" lon="4.79813">
        <ele>300</ele>
        <time>2022-09-28T07:00:54.000Z</time>
      </trkpt>
      <trkpt lat="49.79844" lon="4.79813">
        <ele>300</ele>
        <time>2022-09-28T07:00:55.000Z</time>
      </trkpt>
      <trkpt lat="49.79847" lon="4.79813">
        <ele>300</ele>
        <time>2022-09-28T07:00:56.000Z</time>
      </trkpt>
      <trkpt lat="49.79852" lon="4.79812">
        <ele>300</ele>
        <time>2022-09-28T07:00:57.000Z</time>
      </trkpt>
      <trkpt lat="49.79856" lon="4.79811">
        <ele>300</ele>
        <time>2022-09-28T07:00:58.000Z</time>
      </trkpt>
      <trkpt lat="49.7986" lon="4.79811">
        <ele>300</ele>
        <time>2022-09-28T07:00:59.000Z</time>
      </trkpt>
      <trkpt lat="49.79864" lon="4.7981">
        <ele>300</ele>
        <time>2022-09-28T07:01:00.000Z</time>
      </trkpt>
      <trkpt lat="49.79868" lon="4.7981">
        <ele>300</ele>
        <time>2022-09-28T07:01:01.000Z</time>
      </trkpt>
      <trkpt lat="49.79872" lon="4.7981">
        <ele>300</ele>
        <time>2022-09-28T07:01:02.000Z</time>
      </trkpt>
      <trkpt lat="49.79875" lon="4.7981">
        <ele>300</ele>
        <time>2022-09-28T07:01:03.000Z</time>
      </trkpt>
      <trkpt lat="49.79879" lon="4.7981">
        <ele>299</ele>
        <time>2022-09-28T07:01:04.000Z</time>
      </trkpt>
      <trkpt lat="49.79882" lon="4.79809">
        <ele>299</ele>
        <time>2022-09-28T07:01:05.000Z</time>
      </trkpt>
      <trkpt lat="49.79886" lon="4.79808">
        <ele>299</ele>
        <time>2022-09-28T07:01:06.000Z</time>
      </trkpt>
      <trkpt lat="49.7989" lon="4.79807">
        <ele>299</ele>
        <time>2022-09-28T07:01:07.000Z</time>
      </trkpt>
      <trkpt lat="49.79895" lon="4.79807">
        <ele>299</ele>
        <time>2022-09-28T07:01:08.000Z</time>
      </trkpt>
      <trkpt lat="49.79899" lon="4.79806">
        <ele>299</ele>
        <time>2022-09-28T07:01:09.000Z</time>
      </trkpt>
      <trkpt lat="49.79903" lon="4.79806">
        <ele>299</ele>
        <time>2022-09-28T07:01:10.000Z</time>
      </trkpt>
      <trkpt lat="49.79907" lon="4.79806">
        <ele>299</ele>
        <time>2022-09-28T07:01:11.000Z</time>
      </trkpt>
      <trkpt lat="49.79911" lon="4.79806">
        <ele>299</ele>
        <time>2022-09-28T07:01:12.000Z</time>
      </trkpt>
      <trkpt lat="49.79915" lon="4.79807">
        <ele>299</ele>
        <time>2022-09-28T07:01:13.000Z</time>
      </trkpt>
      <trkpt lat="49.7992" lon="4.79807">
        <ele>299</ele>
        <time>2022-09-28T07:01:14.000Z</time>
      </trkpt>
      <trkpt lat="49.79925" lon="4.79806">
        <ele>299</ele>
        <time>2022-09-28T07:01:15.000Z</time>
      </trkpt>
      <trkpt lat="49.79929" lon="4.79806">
        <ele>299</ele>
        <time>2022-09-28T07:01:16.000Z</time>
      </trkpt>
      <trkpt lat="49.79934" lon="4.79807">
        <ele>299</ele>
        <time>2022-09-28T07:01:17.000Z</time>
      </trkpt>
      <trkpt lat="49.79938" lon="4.79807">
        <ele>299</ele>
        <time>2022-09-28T07:01:18.000Z</time>
      </trkpt>
      <trkpt lat="49.79943" lon="4.79807">
        <ele>299</ele>
        <time>2022-09-28T07:01:19.000Z</time>
      </trkpt>
      <trkpt lat="49.79948" lon="4.79808">
        <ele>299</ele>
        <time>2022-09-28T07:01:20.000Z</time>
      </trkpt>
      <trkpt lat="49.79953" lon="4.79808">
        <ele>299</ele>
        <time>2022-09-28T07:01:21.000Z</time>
      </trkpt>
      <trkpt lat="49.79958" lon="4.79808">
        <ele>299</ele>
        <time>2022-09-28T07:01:22.000Z</time>
      </trkpt>
      <trkpt lat="49.79963" lon="4.79808">
        <ele>299</ele>
        <time>2022-09-28T07:01:23.000Z</time>
      </trkpt>
      <trkpt lat="49.79969" lon="4.79807">
        <ele>299</ele>
        <time>2022-09-28T07:01:24.000Z</time>
      </trkpt>
      <trkpt lat="49.79975" lon="4.79806">
        <ele>299</ele>
        <time>2022-09-28T07:01:25.000Z</time>
      </trkpt>
      <trkpt lat="49.79981" lon="4.79805">
        <ele>299</ele>
        <time>2022-09-28T07:01:26.000Z</time>
      </trkpt>
      <trkpt lat="49.79987" lon="4.79804">
        <ele>299</ele>
        <time>2022-09-28T07:01:27.000Z</time>
      </trkpt>
      <trkpt lat="49.79992" lon="4.79803">
        <ele>299</ele>
        <time>2022-09-28T07:01:28.000Z</time>
      </trkpt>
      <trkpt lat="49.79996" lon="4.79803">
        <ele>299</ele>
        <time>2022-09-28T07:01:29.000Z</time>
      </trkpt>
      <trkpt lat="49.80001" lon="4.79802">
        <ele>299</ele>
        <time>2022-09-28T07:01:30.000Z</time>
      </trkpt>
      <trkpt lat="49.80006" lon="4.79802">
        <ele>299</ele>
        <time>2022-09-28T07:01:31.000Z</time>
      </trkpt>
      <trkpt lat="49.8001" lon="4.79801">
        <ele>299</ele>
        <time>2022-09-28T07:01:32.000Z</time>
      </trkpt>
      <trkpt lat="49.80015" lon="4.79801">
        <ele>299</ele>
        <time>2022-09-28T07:01:33.000Z</time>
      </trkpt>
      <trkpt lat="49.80019" lon="4.79801">
        <ele>299</ele>
        <time>2022-09-28T07:01:34.000Z</time>
      </trkpt>
      <trkpt lat="49.80024" lon="4.79801">
        <ele>299</ele>
        <time>2022-09-28T07:01:35.000Z</time>
      </trkpt>
      <trkpt lat="49.80028" lon="4.79801">
        <ele>299</ele>
        <time>2022-09-28T07:01:36.000Z</time>
      </trkpt>
      <trkpt lat="49.80033" lon="4.798">
        <ele>299</ele>
        <time>2022-09-28T07:01:37.000Z</time>
      </trkpt>
      <trkpt lat="49.80038" lon="4.798">
        <ele>299</ele>
        <time>2022-09-28T07:01:38.000Z</time>
      </trkpt>
      <trkpt lat="49.80042" lon="4.79799">
        <ele>299</ele>
        <time>2022-09-28T07:01:39.000Z</time>
      </trkpt>
      <trkpt lat="49.80048" lon="4.79797">
        <ele>299</ele>
        <time>2022-09-28T07:01:40.000Z</time>
      </trkpt>
      <trkpt lat="49.80052" lon="4.79797">
        <ele>299</ele>
        <time>2022-09-28T07:01:41.000Z</time>
      </trkpt>
      <trkpt lat="49.80057" lon="4.79797">
        <ele>299</ele>
        <time>2022-09-28T07:01:42.000Z</time>
      </trkpt>
      <trkpt lat="49.80063" lon="4.79795">
        <ele>298</ele>
        <time>2022-09-28T07:01:43.000Z</time>
      </trkpt>
      <trkpt lat="49.80068" lon="4.79794">
        <ele>298</ele>
        <time>2022-09-28T07:01:44.000Z</time>
      </trkpt>
      <trkpt lat="49.80074" lon="4.79792">
        <ele>298</ele>
        <time>2022-09-28T07:01:45.000Z</time>
      </trkpt>
      <trkpt lat="49.80079" lon="4.79792">
        <ele>298</ele>
        <time>2022-09-28T07:01:46.000Z</time>
      </trkpt>
      <trkpt lat="49.80085" lon="4.79791">
        <ele>298</ele>
        <time>2022-09-28T07:01:47.000Z</time>
      </trkpt>
      <trkpt lat="49.80091" lon="4.79791">
        <ele>298</ele>
        <time>2022-09-28T07:01:48.000Z</time>
      </trkpt>
      <trkpt lat="49.80097" lon="4.7979">
        <ele>298</ele>
        <time>2022-09-28T07:01:49.000Z</time>
      </trkpt>
      <trkpt lat="49.80103" lon="4.79789">
        <ele>297</ele>
        <time>2022-09-28T07:01:50.000Z</time>
      </trkpt>
      <trkpt lat="49.80109" lon="4.79788">
        <ele>297</ele>
        <time>2022-09-28T07:01:51.000Z</time>
      </trkpt>
      <trkpt lat="49.80114" lon="4.79788">
        <ele>297</ele>
        <time>2022-09-28T07:01:52.000Z</time>
      </trkpt>
      <trkpt lat="49.8012" lon="4.79787">
        <ele>297</ele>
        <time>2022-09-28T07:01:53.000Z</time>
      </trkpt>
      <trkpt lat="49.80126" lon="4.79788">
        <ele>297</ele>
        <time>2022-09-28T07:01:54.000Z</time>
      </trkpt>
      <trkpt lat="49.80132" lon="4.79788">
        <ele>297</ele>
        <time>2022-09-28T07:01:55.000Z</time>
      </trkpt>
      <trkpt lat="49.80137" lon="4.79788">
        <ele>296</ele>
        <time>2022-09-28T07:01:56.000Z</time>
      </trkpt>
      <trkpt lat="49.80142" lon="4.79787">
        <ele>296</ele>
        <time>2022-09-28T07:01:57.000Z</time>
      </trkpt>
      <trkpt lat="49.80145" lon="4.79787">
        <ele>296</ele>
        <time>2022-09-28T07:01:58.000Z</time>
      </trkpt>
      <trkpt lat="49.80149" lon="4.79786">
        <ele>296</ele>
        <time>2022-09-28T07:01:59.000Z</time>
      </trkpt>
      <trkpt lat="49.80152" lon="4.79785">
        <ele>296</ele>
        <time>2022-09-28T07:02:00.000Z</time>
      </trkpt>
      <trkpt lat="49.80155" lon="4.79783">
        <ele>295</ele>
        <time>2022-09-28T07:02:01.000Z</time>
      </trkpt>
      <trkpt lat="49.80158" lon="4.79782">
        <ele>295</ele>
        <time>2022-09-28T07:02:02.000Z</time>
      </trkpt>
      <trkpt lat="49.8016" lon="4.79783">
        <ele>295</ele>
        <time>2022-09-28T07:02:03.000Z</time>
      </trkpt>
      <trkpt lat="49.80162" lon="4.79784">
        <ele>295</ele>
        <time>2022-09-28T07:02:04.000Z</time>
      </trkpt>
      <trkpt lat="49.80164" lon="4.79786">
        <ele>295</ele>
        <time>2022-09-28T07:02:05.000Z</time>
      </trkpt>
      <trkpt lat="49.80167" lon="4.79788">
        <ele>294</ele>
        <time>2022-09-28T07:02:06.000Z</time>
      </trkpt>
      <trkpt lat="49.8017" lon="4.79791">
        <ele>294</ele>
        <time>2022-09-28T07:02:07.000Z</time>
      </trkpt>
      <trkpt lat="49.80174" lon="4.79795">
        <ele>294</ele>
        <time>2022-09-28T07:02:08.000Z</time>
      </trkpt>
      <trkpt lat="49.80178" lon="4.79799">
        <ele>294</ele>
        <time>2022-09-28T07:02:09.000Z</time>
      </trkpt>
      <trkpt lat="49.80181" lon="4.79802">
        <ele>293</ele>
        <time>2022-09-28T07:02:10.000Z</time>
      </trkpt>
      <trkpt lat="49.80183" lon="4.79805">
        <ele>293</ele>
        <time>2022-09-28T07:02:11.000Z</time>
      </trkpt>
      <trkpt lat="49.80186" lon="4.79808">
        <ele>293</ele>
        <time>2022-09-28T07:02:12.000Z</time>
      </trkpt>
      <trkpt lat="49.80188" lon="4.79811">
        <ele>293</ele>
        <time>2022-09-28T07:02:13.000Z</time>
      </trkpt>
      <trkpt lat="49.8019" lon="4.79815">
        <ele>292</ele>
        <time>2022-09-28T07:02:14.000Z</time>
      </trkpt>
      <trkpt lat="49.80192" lon="4.79818">
        <ele>292</ele>
        <time>2022-09-28T07:02:15.000Z</time>
      </trkpt>
      <trkpt lat="49.80194" lon="4.79821">
        <ele>292</ele>
        <time>2022-09-28T07:02:16.000Z</time>
      </trkpt>
      <trkpt lat="49.80196" lon="4.79823">
        <ele>291</ele>
        <time>2022-09-28T07:02:17.000Z</time>
      </trkpt>
      <trkpt lat="49.80198" lon="4.79823">
        <ele>291</ele>
        <time>2022-09-28T07:02:18.000Z</time>
      </trkpt>
      <trkpt lat="49.80201" lon="4.79824">
        <ele>291</ele>
        <time>2022-09-28T07:02:19.000Z</time>
      </trkpt>
      <trkpt lat="49.80203" lon="4.79824">
        <ele>290</ele>
        <time>2022-09-28T07:02:20.000Z</time>
      </trkpt>
      <trkpt lat="49.80206" lon="4.79825">
        <ele>290</ele>
        <time>2022-09-28T07:02:21.000Z</time>
      </trkpt>
      <trkpt lat="49.80209" lon="4.79825">
        <ele>290</ele>
        <time>2022-09-28T07:02:22.000Z</time>
      </trkpt>
      <trkpt lat="49.80211" lon="4.79825">
        <ele>289</ele>
        <time>2022-09-28T07:02:23.000Z</time>
      </trkpt>
      <trkpt lat="49.80214" lon="4.79825">
        <ele>289</ele>
        <time>2022-09-28T07:02:24.000Z</time>
      </trkpt>
      <trkpt lat="49.80216" lon="4.79824">
        <ele>289</ele>
        <time>2022-09-28T07:02:25.000Z</time>
      </trkpt>
      <trkpt lat="49.80218" lon="4.79824">
        <ele>289</ele>
        <time>2022-09-28T07:02:26.000Z</time>
      </trkpt>
      <trkpt lat="49.80221" lon="4.79823">
        <ele>288</ele>
        <time>2022-09-28T07:02:27.000Z</time>
      </trkpt>
      <trkpt lat="49.80224" lon="4.79824">
        <ele>288</ele>
        <time>2022-09-28T07:02:28.000Z</time>
      </trkpt>
      <trkpt lat="49.80227" lon="4.79824">
        <ele>288</ele>
        <time>2022-09-28T07:02:29.000Z</time>
      </trkpt>
      <trkpt lat="49.80229" lon="4.79824">
        <ele>288</ele>
        <time>2022-09-28T07:02:30.000Z</time>
      </trkpt>
      <trkpt lat="49.80232" lon="4.79824">
        <ele>287</ele>
        <time>2022-09-28T07:02:31.000Z</time>
      </trkpt>
      <trkpt lat="49.80235" lon="4.79825">
        <ele>287</ele>
        <time>2022-09-28T07:02:32.000Z</time>
      </trkpt>
      <trkpt lat="49.80237" lon="4.79825">
        <ele>287</ele>
        <time>2022-09-28T07:02:33.000Z</time>
      </trkpt>
      <trkpt lat="49.80239" lon="4.79826">
        <ele>287</ele>
        <time>2022-09-28T07:02:34.000Z</time>
      </trkpt>
      <trkpt lat="49.80241" lon="4.79826">
        <ele>287</ele>
        <time>2022-09-28T07:02:35.000Z</time>
      </trkpt>
      <trkpt lat="49.80243" lon="4.79826">
        <ele>286</ele>
        <time>2022-09-28T07:02:36.000Z</time>
      </trkpt>
      <trkpt lat="49.80246" lon="4.79827">
        <ele>286</ele>
        <time>2022-09-28T07:02:37.000Z</time>
      </trkpt>
      <trkpt lat="49.8025" lon="4.79828">
        <ele>286</ele>
        <time>2022-09-28T07:02:38.000Z</time>
      </trkpt>
      <trkpt lat="49.80252" lon="4.79829">
        <ele>286</ele>
        <time>2022-09-28T07:02:39.000Z</time>
      </trkpt>
      <trkpt lat="49.80255" lon="4.79829">
        <ele>286</ele>
        <time>2022-09-28T07:02:40.000Z</time>
      </trkpt>
      <trkpt lat="49.80257" lon="4.7983">
        <ele>286</ele>
        <time>2022-09-28T07:02:41.000Z</time>
      </trkpt>
      <trkpt lat="49.80259" lon="4.7983">
        <ele>286</ele>
        <time>2022-09-28T07:02:42.000Z</time>
      </trkpt>
      <trkpt lat="49.80262" lon="4.7983">
        <ele>286</ele>
        <time>2022-09-28T07:02:43.000Z</time>
      </trkpt>
      <trkpt lat="49.80264" lon="4.7983">
        <ele>286</ele>
        <time>2022-09-28T07:02:44.000Z</time>
      </trkpt>
      <trkpt lat="49.80267" lon="4.79831">
        <ele>286</ele>
        <time>2022-09-28T07:02:45.000Z</time>
      </trkpt>
      <trkpt lat="49.8027" lon="4.79831">
        <ele>286</ele>
        <time>2022-09-28T07:02:46.000Z</time>
      </trkpt>
      <trkpt lat="49.80272" lon="4.79832">
        <ele>286</ele>
        <time>2022-09-28T07:02:47.000Z</time>
      </trkpt>
      <trkpt lat="49.80275" lon="4.79833">
        <ele>286</ele>
        <time>2022-09-28T07:02:48.000Z</time>
      </trkpt>
      <trkpt lat="49.80277" lon="4.79833">
        <ele>286</ele>
        <time>2022-09-28T07:02:49.000Z</time>
      </trkpt>
      <trkpt lat="49.8028" lon="4.79833">
        <ele>286</ele>
        <time>2022-09-28T07:02:50.000Z</time>
      </trkpt>
      <trkpt lat="49.80282" lon="4.79834">
        <ele>286</ele>
        <time>2022-09-28T07:02:51.000Z</time>
      </trkpt>
      <trkpt lat="49.80284" lon="4.79835">
        <ele>286</ele>
        <time>2022-09-28T07:02:52.000Z</time>
      </trkpt>
      <trkpt lat="49.80286" lon="4.79837">
        <ele>286</ele>
        <time>2022-09-28T07:02:53.000Z</time>
      </trkpt>
      <trkpt lat="49.80288" lon="4.79838">
        <ele>286</ele>
        <time>2022-09-28T07:02:54.000Z</time>
      </trkpt>
      <trkpt lat="49.8029" lon="4.7984">
        <ele>286</ele>
        <time>2022-09-28T07:02:55.000Z</time>
      </trkpt>
      <trkpt lat="49.80291" lon="4.79841">
        <ele>286</ele>
        <time>2022-09-28T07:02:56.000Z</time>
      </trkpt>
      <trkpt lat="49.80292" lon="4.79843">
        <ele>286</ele>
        <time>2022-09-28T07:02:57.000Z</time>
      </trkpt>
      <trkpt lat="49.80293" lon="4.79845">
        <ele>286</ele>
        <time>2022-09-28T07:02:58.000Z</time>
      </trkpt>
      <trkpt lat="49.80294" lon="4.79847">
        <ele>286</ele>
        <time>2022-09-28T07:02:59.000Z</time>
      </trkpt>
      <trkpt lat="49.80295" lon="4.79849">
        <ele>286</ele>
        <time>2022-09-28T07:03:00.000Z</time>
      </trkpt>
      <trkpt lat="49.80296" lon="4.7985">
        <ele>287</ele>
        <time>2022-09-28T07:03:01.000Z</time>
      </trkpt>
      <trkpt lat="49.80298" lon="4.79852">
        <ele>287</ele>
        <time>2022-09-28T07:03:02.000Z</time>
      </trkpt>
      <trkpt lat="49.80299" lon="4.79854">
        <ele>287</ele>
        <time>2022-09-28T07:03:03.000Z</time>
      </trkpt>
      <trkpt lat="49.80301" lon="4.79855">
        <ele>287</ele>
        <time>2022-09-28T07:03:04.000Z</time>
      </trkpt>
      <trkpt lat="49.80302" lon="4.79858">
        <ele>287</ele>
        <time>2022-09-28T07:03:05.000Z</time>
      </trkpt>
      <trkpt lat="49.80304" lon="4.7986">
        <ele>287</ele>
        <time>2022-09-28T07:03:06.000Z</time>
      </trkpt>
      <trkpt lat="49.80305" lon="4.79862">
        <ele>287</ele>
        <time>2022-09-28T07:03:07.000Z</time>
      </trkpt>
      <trkpt lat="49.80307" lon="4.79865">
        <ele>287</ele>
        <time>2022-09-28T07:03:08.000Z</time>
      </trkpt>
      <trkpt lat="49.80309" lon="4.79869">
        <ele>287</ele>
        <time>2022-09-28T07:03:09.000Z</time>
      </trkpt>
      <trkpt lat="49.8031" lon="4.79873">
        <ele>287</ele>
        <time>2022-09-28T07:03:10.000Z</time>
      </trkpt>
      <trkpt lat="49.80309" lon="4.79878">
        <ele>287</ele>
        <time>2022-09-28T07:03:11.000Z</time>
      </trkpt>
      <trkpt lat="49.80309" lon="4.79882">
        <ele>287</ele>
        <time>2022-09-28T07:03:12.000Z</time>
      </trkpt>
      <trkpt lat="49.80309" lon="4.79887">
        <ele>287</ele>
        <time>2022-09-28T07:03:13.000Z</time>
      </trkpt>
      <trkpt lat="49.80308" lon="4.79892">
        <ele>287</ele>
        <time>2022-09-28T07:03:14.000Z</time>
      </trkpt>
      <trkpt lat="49.80307" lon="4.79897">
        <ele>287</ele>
        <time>2022-09-28T07:03:15.000Z</time>
      </trkpt>
      <trkpt lat="49.80307" lon="4.79902">
        <ele>288</ele>
        <time>2022-09-28T07:03:16.000Z</time>
      </trkpt>
      <trkpt lat="49.80308" lon="4.79907">
        <ele>288</ele>
        <time>2022-09-28T07:03:17.000Z</time>
      </trkpt>
      <trkpt lat="49.80308" lon="4.79912">
        <ele>288</ele>
        <time>2022-09-28T07:03:18.000Z</time>
      </trkpt>
      <trkpt lat="49.80308" lon="4.79917">
        <ele>288</ele>
        <time>2022-09-28T07:03:19.000Z</time>
      </trkpt>
      <trkpt lat="49.80308" lon="4.79922">
        <ele>288</ele>
        <time>2022-09-28T07:03:20.000Z</time>
      </trkpt>
      <trkpt lat="49.80307" lon="4.79926">
        <ele>288</ele>
        <time>2022-09-28T07:03:21.000Z</time>
      </trkpt>
      <trkpt lat="49.80307" lon="4.79932">
        <ele>288</ele>
        <time>2022-09-28T07:03:22.000Z</time>
      </trkpt>
      <trkpt lat="49.80306" lon="4.79937">
        <ele>288</ele>
        <time>2022-09-28T07:03:23.000Z</time>
      </trkpt>
      <trkpt lat="49.80305" lon="4.79942">
        <ele>288</ele>
        <time>2022-09-28T07:03:24.000Z</time>
      </trkpt>
      <trkpt lat="49.80303" lon="4.79948">
        <ele>288</ele>
        <time>2022-09-28T07:03:25.000Z</time>
      </trkpt>
      <trkpt lat="49.80302" lon="4.79954">
        <ele>288</ele>
        <time>2022-09-28T07:03:26.000Z</time>
      </trkpt>
      <trkpt lat="49.80302" lon="4.7996">
        <ele>288</ele>
        <time>2022-09-28T07:03:27.000Z</time>
      </trkpt>
      <trkpt lat="49.80301" lon="4.79966">
        <ele>288</ele>
        <time>2022-09-28T07:03:28.000Z</time>
      </trkpt>
      <trkpt lat="49.80301" lon="4.79972">
        <ele>288</ele>
        <time>2022-09-28T07:03:29.000Z</time>
      </trkpt>
      <trkpt lat="49.803" lon="4.79979">
        <ele>288</ele>
        <time>2022-09-28T07:03:30.000Z</time>
      </trkpt>
      <trkpt lat="49.803" lon="4.79985">
        <ele>288</ele>
        <time>2022-09-28T07:03:31.000Z</time>
      </trkpt>
      <trkpt lat="49.80299" lon="4.79992">
        <ele>288</ele>
        <time>2022-09-28T07:03:32.000Z</time>
      </trkpt>
      <trkpt lat="49.80298" lon="4.79998">
        <ele>288</ele>
        <time>2022-09-28T07:03:33.000Z</time>
      </trkpt>
      <trkpt lat="49.80298" lon="4.80003">
        <ele>288</ele>
        <time>2022-09-28T07:03:34.000Z</time>
      </trkpt>
      <trkpt lat="49.80297" lon="4.80008">
        <ele>288</ele>
        <time>2022-09-28T07:03:35.000Z</time>
      </trkpt>
      <trkpt lat="49.80297" lon="4.80014">
        <ele>288</ele>
        <time>2022-09-28T07:03:36.000Z</time>
      </trkpt>
      <trkpt lat="49.80297" lon="4.8002">
        <ele>288</ele>
        <time>2022-09-28T07:03:37.000Z</time>
      </trkpt>
      <trkpt lat="49.80298" lon="4.80027">
        <ele>288</ele>
        <time>2022-09-28T07:03:38.000Z</time>
      </trkpt>
      <trkpt lat="49.80299" lon="4.80034">
        <ele>288</ele>
        <time>2022-09-28T07:03:39.000Z</time>
      </trkpt>
      <trkpt lat="49.803" lon="4.8004">
        <ele>288</ele>
        <time>2022-09-28T07:03:40.000Z</time>
      </trkpt>
      <trkpt lat="49.80302" lon="4.80047">
        <ele>288</ele>
        <time>2022-09-28T07:03:41.000Z</time>
      </trkpt>
      <trkpt lat="49.80303" lon="4.80055">
        <ele>288</ele>
        <time>2022-09-28T07:03:42.000Z</time>
      </trkpt>
      <trkpt lat="49.80305" lon="4.80061">
        <ele>288</ele>
        <time>2022-09-28T07:03:43.000Z</time>
      </trkpt>
      <trkpt lat="49.80306" lon="4.80066">
        <ele>288</ele>
        <time>2022-09-28T07:03:44.000Z</time>
      </trkpt>
      <trkpt lat="49.80307" lon="4.80071">
        <ele>287</ele>
        <time>2022-09-28T07:03:45.000Z</time>
      </trkpt>
      <trkpt lat="49.80308" lon="4.80076">
        <ele>287</ele>
        <time>2022-09-28T07:03:46.000Z</time>
      </trkpt>
      <trkpt lat="49.80309" lon="4.80082">
        <ele>287</ele>
        <time>2022-09-28T07:03:47.000Z</time>
      </trkpt>
      <trkpt lat="49.80311" lon="4.80088">
        <ele>287</ele>
        <time>2022-09-28T07:03:48.000Z</time>
      </trkpt>
      <trkpt lat="49.80312" lon="4.80094">
        <ele>287</ele>
        <time>2022-09-28T07:03:49.000Z</time>
      </trkpt>
      <trkpt lat="49.80314" lon="4.80101">
        <ele>287</ele>
        <time>2022-09-28T07:03:50.000Z</time>
      </trkpt>
      <trkpt lat="49.80316" lon="4.80108">
        <ele>287</ele>
        <time>2022-09-28T07:03:51.000Z</time>
      </trkpt>
      <trkpt lat="49.80318" lon="4.80115">
        <ele>286</ele>
        <time>2022-09-28T07:03:52.000Z</time>
      </trkpt>
      <trkpt lat="49.8032" lon="4.80122">
        <ele>286</ele>
        <time>2022-09-28T07:03:53.000Z</time>
      </trkpt>
      <trkpt lat="49.8032" lon="4.80128">
        <ele>286</ele>
        <time>2022-09-28T07:03:54.000Z</time>
      </trkpt>
      <trkpt lat="49.80321" lon="4.80133">
        <ele>286</ele>
        <time>2022-09-28T07:03:55.000Z</time>
      </trkpt>
      <trkpt lat="49.80323" lon="4.80139">
        <ele>286</ele>
        <time>2022-09-28T07:03:56.000Z</time>
      </trkpt>
      <trkpt lat="49.80324" lon="4.80146">
        <ele>286</ele>
        <time>2022-09-28T07:03:57.000Z</time>
      </trkpt>
      <trkpt lat="49.80326" lon="4.80153">
        <ele>286</ele>
        <time>2022-09-28T07:03:58.000Z</time>
      </trkpt>
      <trkpt lat="49.80327" lon="4.8016">
        <ele>286</ele>
        <time>2022-09-28T07:03:59.000Z</time>
      </trkpt>
      <trkpt lat="49.80327" lon="4.80167">
        <ele>286</ele>
        <time>2022-09-28T07:04:00.000Z</time>
      </trkpt>
      <trkpt lat="49.80327" lon="4.80173">
        <ele>285</ele>
        <time>2022-09-28T07:04:01.000Z</time>
      </trkpt>
      <trkpt lat="49.80328" lon="4.8018">
        <ele>285</ele>
        <time>2022-09-28T07:04:02.000Z</time>
      </trkpt>
      <trkpt lat="49.80329" lon="4.80187">
        <ele>285</ele>
        <time>2022-09-28T07:04:03.000Z</time>
      </trkpt>
      <trkpt lat="49.80329" lon="4.80194">
        <ele>285</ele>
        <time>2022-09-28T07:04:04.000Z</time>
      </trkpt>
      <trkpt lat="49.80329" lon="4.80201">
        <ele>285</ele>
        <time>2022-09-28T07:04:05.000Z</time>
      </trkpt>
      <trkpt lat="49.80329" lon="4.80206">
        <ele>285</ele>
        <time>2022-09-28T07:04:06.000Z</time>
      </trkpt>
      <trkpt lat="49.8033" lon="4.80211">
        <ele>285</ele>
        <time>2022-09-28T07:04:07.000Z</time>
      </trkpt>
      <trkpt lat="49.8033" lon="4.80216">
        <ele>285</ele>
        <time>2022-09-28T07:04:08.000Z</time>
      </trkpt>
      <trkpt lat="49.80329" lon="4.80222">
        <ele>285</ele>
        <time>2022-09-28T07:04:09.000Z</time>
      </trkpt>
      <trkpt lat="49.8033" lon="4.8023">
        <ele>284</ele>
        <time>2022-09-28T07:04:10.000Z</time>
      </trkpt>
      <trkpt lat="49.80331" lon="4.80237">
        <ele>284</ele>
        <time>2022-09-28T07:04:11.000Z</time>
      </trkpt>
      <trkpt lat="49.80331" lon="4.80244">
        <ele>284</ele>
        <time>2022-09-28T07:04:12.000Z</time>
      </trkpt>
      <trkpt lat="49.8033" lon="4.8025">
        <ele>284</ele>
        <time>2022-09-28T07:04:13.000Z</time>
      </trkpt>
      <trkpt lat="49.80328" lon="4.80257">
        <ele>284</ele>
        <time>2022-09-28T07:04:14.000Z</time>
      </trkpt>
      <trkpt lat="49.80326" lon="4.80261">
        <ele>283</ele>
        <time>2022-09-28T07:04:15.000Z</time>
      </trkpt>
      <trkpt lat="49.80325" lon="4.80266">
        <ele>283</ele>
        <time>2022-09-28T07:04:16.000Z</time>
      </trkpt>
      <trkpt lat="49.80323" lon="4.80271">
        <ele>283</ele>
        <time>2022-09-28T07:04:17.000Z</time>
      </trkpt>
      <trkpt lat="49.80321" lon="4.80275">
        <ele>283</ele>
        <time>2022-09-28T07:04:18.000Z</time>
      </trkpt>
      <trkpt lat="49.80319" lon="4.80279">
        <ele>283</ele>
        <time>2022-09-28T07:04:19.000Z</time>
      </trkpt>
      <trkpt lat="49.80317" lon="4.80285">
        <ele>282</ele>
        <time>2022-09-28T07:04:20.000Z</time>
      </trkpt>
      <trkpt lat="49.80316" lon="4.80291">
        <ele>282</ele>
        <time>2022-09-28T07:04:21.000Z</time>
      </trkpt>
      <trkpt lat="49.80313" lon="4.80297">
        <ele>282</ele>
        <time>2022-09-28T07:04:22.000Z</time>
      </trkpt>
      <trkpt lat="49.80311" lon="4.80305">
        <ele>281</ele>
        <time>2022-09-28T07:04:23.000Z</time>
      </trkpt>
      <trkpt lat="49.80308" lon="4.80312">
        <ele>281</ele>
        <time>2022-09-28T07:04:24.000Z</time>
      </trkpt>
      <trkpt lat="49.80307" lon="4.80319">
        <ele>280</ele>
        <time>2022-09-28T07:04:25.000Z</time>
      </trkpt>
      <trkpt lat="49.80306" lon="4.80325">
        <ele>280</ele>
        <time>2022-09-28T07:04:26.000Z</time>
      </trkpt>
      <trkpt lat="49.80304" lon="4.80331">
        <ele>280</ele>
        <time>2022-09-28T07:04:27.000Z</time>
      </trkpt>
      <trkpt lat="49.80302" lon="4.80335">
        <ele>279</ele>
        <time>2022-09-28T07:04:28.000Z</time>
      </trkpt>
      <trkpt lat="49.803" lon="4.80339">
        <ele>279</ele>
        <time>2022-09-28T07:04:29.000Z</time>
      </trkpt>
      <trkpt lat="49.80298" lon="4.80342">
        <ele>278</ele>
        <time>2022-09-28T07:04:30.000Z</time>
      </trkpt>
      <trkpt lat="49.80295" lon="4.80346">
        <ele>278</ele>
        <time>2022-09-28T07:04:31.000Z</time>
      </trkpt>
      <trkpt lat="49.80293" lon="4.80347">
        <ele>278</ele>
        <time>2022-09-28T07:04:32.000Z</time>
      </trkpt>
      <trkpt lat="49.80291" lon="4.80348">
        <ele>278</ele>
        <time>2022-09-28T07:04:33.000Z</time>
      </trkpt>
      <trkpt lat="49.80289" lon="4.80347">
        <ele>277</ele>
        <time>2022-09-28T07:04:34.000Z</time>
      </trkpt>
      <trkpt lat="49.80287" lon="4.80347">
        <ele>277</ele>
        <time>2022-09-28T07:04:35.000Z</time>
      </trkpt>
      <trkpt lat="49.80286" lon="4.80348">
        <ele>277</ele>
        <time>2022-09-28T07:04:36.000Z</time>
      </trkpt>
      <trkpt lat="49.80285" lon="4.8035">
        <ele>276</ele>
        <time>2022-09-28T07:04:37.000Z</time>
      </trkpt>
      <trkpt lat="49.80285" lon="4.80353">
        <ele>276</ele>
        <time>2022-09-28T07:04:38.000Z</time>
      </trkpt>
      <trkpt lat="49.80285" lon="4.80355">
        <ele>276</ele>
        <time>2022-09-28T07:04:39.000Z</time>
      </trkpt>
      <trkpt lat="49.80286" lon="4.80356">
        <ele>275</ele>
        <time>2022-09-28T07:04:40.000Z</time>
      </trkpt>
      <trkpt lat="49.80286" lon="4.80357">
        <ele>275</ele>
        <time>2022-09-28T07:04:41.000Z</time>
      </trkpt>
      <trkpt lat="49.80286" lon="4.80358">
        <ele>275</ele>
        <time>2022-09-28T07:04:42.000Z</time>
      </trkpt>
      <trkpt lat="49.80286" lon="4.8036">
        <ele>275</ele>
        <time>2022-09-28T07:04:43.000Z</time>
      </trkpt>
      <trkpt lat="49.80286" lon="4.8036">
        <ele>275</ele>
        <time>2022-09-28T07:04:44.000Z</time>
      </trkpt>
      <trkpt lat="49.80286" lon="4.80361">
        <ele>275</ele>
        <time>2022-09-28T07:04:45.000Z</time>
      </trkpt>
      <trkpt lat="49.80285" lon="4.80362">
        <ele>275</ele>
        <time>2022-09-28T07:04:46.000Z</time>
      </trkpt>
      <trkpt lat="49.80285" lon="4.80363">
        <ele>274</ele>
        <time>2022-09-28T07:04:47.000Z</time>
      </trkpt>
      <trkpt lat="49.80285" lon="4.80364">
        <ele>274</ele>
        <time>2022-09-28T07:04:48.000Z</time>
      </trkpt>
      <trkpt lat="49.80285" lon="4.80364">
        <ele>274</ele>
        <time>2022-09-28T07:04:49.000Z</time>
      </trkpt>
      <trkpt lat="49.80286" lon="4.80365">
        <ele>274</ele>
        <time>2022-09-28T07:04:50.000Z</time>
      </trkpt>
      <trkpt lat="49.80286" lon="4.80366">
        <ele>274</ele>
        <time>2022-09-28T07:04:51.000Z</time>
      </trkpt>
      <trkpt lat="49.80287" lon="4.80367">
        <ele>274</ele>
        <time>2022-09-28T07:04:52.000Z</time>
      </trkpt>
      <trkpt lat="49.80286" lon="4.80367">
        <ele>274</ele>
        <time>2022-09-28T07:04:53.000Z</time>
      </trkpt>
      <trkpt lat="49.80286" lon="4.80368">
        <ele>274</ele>
        <time>2022-09-28T07:04:54.000Z</time>
      </trkpt>
      <trkpt lat="49.80286" lon="4.80368">
        <ele>275</ele>
        <time>2022-09-28T07:04:55.000Z</time>
      </trkpt>
      <trkpt lat="49.80286" lon="4.80368">
        <ele>275</ele>
        <time>2022-09-28T07:04:56.000Z</time>
      </trkpt>
      <trkpt lat="49.80287" lon="4.80369">
        <ele>275</ele>
        <time>2022-09-28T07:04:57.000Z</time>
      </trkpt>
      <trkpt lat="49.80287" lon="4.80371">
        <ele>275</ele>
        <time>2022-09-28T07:04:58.000Z</time>
      </trkpt>
      <trkpt lat="49.80287" lon="4.80374">
        <ele>275</ele>
        <time>2022-09-28T07:04:59.000Z</time>
      </trkpt>
      <trkpt lat="49.80288" lon="4.80377">
        <ele>275</ele>
        <time>2022-09-28T07:05:00.000Z</time>
      </trkpt>
      <trkpt lat="49.80289" lon="4.8038">
        <ele>275</ele>
        <time>2022-09-28T07:05:01.000Z</time>
      </trkpt>
      <trkpt lat="49.80289" lon="4.80384">
        <ele>274</ele>
        <time>2022-09-28T07:05:02.000Z</time>
      </trkpt>
      <trkpt lat="49.80289" lon="4.80389">
        <ele>274</ele>
        <time>2022-09-28T07:05:03.000Z</time>
      </trkpt>
      <trkpt lat="49.80288" lon="4.80393">
        <ele>274</ele>
        <time>2022-09-28T07:05:04.000Z</time>
      </trkpt>
      <trkpt lat="49.80286" lon="4.80396">
        <ele>274</ele>
        <time>2022-09-28T07:05:05.000Z</time>
      </trkpt>
      <trkpt lat="49.80283" lon="4.80399">
        <ele>274</ele>
        <time>2022-09-28T07:05:06.000Z</time>
      </trkpt>
      <trkpt lat="49.80281" lon="4.80401">
        <ele>274</ele>
        <time>2022-09-28T07:05:07.000Z</time>
      </trkpt>
      <trkpt lat="49.80279" lon="4.80404">
        <ele>274</ele>
        <time>2022-09-28T07:05:08.000Z</time>
      </trkpt>
      <trkpt lat="49.80277" lon="4.80406">
        <ele>274</ele>
        <time>2022-09-28T07:05:09.000Z</time>
      </trkpt>
      <trkpt lat="49.80275" lon="4.80407">
        <ele>274</ele>
        <time>2022-09-28T07:05:10.000Z</time>
      </trkpt>
      <trkpt lat="49.80274" lon="4.80407">
        <ele>274</ele>
        <time>2022-09-28T07:05:11.000Z</time>
      </trkpt>
      <trkpt lat="49.80272" lon="4.80408">
        <ele>274</ele>
        <time>2022-09-28T07:05:12.000Z</time>
      </trkpt>
      <trkpt lat="49.80271" lon="4.8041">
        <ele>274</ele>
        <time>2022-09-28T07:05:13.000Z</time>
      </trkpt>
      <trkpt lat="49.80271" lon="4.80412">
        <ele>274</ele>
        <time>2022-09-28T07:05:14.000Z</time>
      </trkpt>
      <trkpt lat="49.80271" lon="4.80414">
        <ele>273</ele>
        <time>2022-09-28T07:05:15.000Z</time>
      </trkpt>
      <trkpt lat="49.80271" lon="4.80415">
        <ele>273</ele>
        <time>2022-09-28T07:05:16.000Z</time>
      </trkpt>
      <trkpt lat="49.80271" lon="4.80415">
        <ele>273</ele>
        <time>2022-09-28T07:05:17.000Z</time>
      </trkpt>
      <trkpt lat="49.80271" lon="4.80416">
        <ele>273</ele>
        <time>2022-09-28T07:05:18.000Z</time>
      </trkpt>
      <trkpt lat="49.80271" lon="4.80417">
        <ele>273</ele>
        <time>2022-09-28T07:05:19.000Z</time>
      </trkpt>
      <trkpt lat="49.80271" lon="4.80417">
        <ele>273</ele>
        <time>2022-09-28T07:05:20.000Z</time>
      </trkpt>
      <trkpt lat="49.80271" lon="4.80418">
        <ele>273</ele>
        <time>2022-09-28T07:05:21.000Z</time>
      </trkpt>
      <trkpt lat="49.80271" lon="4.80418">
        <ele>272</ele>
        <time>2022-09-28T07:05:22.000Z</time>
      </trkpt>
      <trkpt lat="49.80271" lon="4.8042">
        <ele>272</ele>
        <time>2022-09-28T07:05:23.000Z</time>
      </trkpt>
      <trkpt lat="49.80272" lon="4.80421">
        <ele>272</ele>
        <time>2022-09-28T07:05:24.000Z</time>
      </trkpt>
      <trkpt lat="49.80274" lon="4.80421">
        <ele>272</ele>
        <time>2022-09-28T07:05:25.000Z</time>
      </trkpt>
      <trkpt lat="49.80275" lon="4.80421">
        <ele>272</ele>
        <time>2022-09-28T07:05:26.000Z</time>
      </trkpt>
      <trkpt lat="49.80277" lon="4.80422">
        <ele>272</ele>
        <time>2022-09-28T07:05:27.000Z</time>
      </trkpt>
      <trkpt lat="49.80281" lon="4.80423">
        <ele>271</ele>
        <time>2022-09-28T07:05:28.000Z</time>
      </trkpt>
      <trkpt lat="49.80285" lon="4.80424">
        <ele>271</ele>
        <time>2022-09-28T07:05:29.000Z</time>
      </trkpt>
      <trkpt lat="49.80289" lon="4.80425">
        <ele>271</ele>
        <time>2022-09-28T07:05:30.000Z</time>
      </trkpt>
      <trkpt lat="49.80292" lon="4.80425">
        <ele>271</ele>
        <time>2022-09-28T07:05:31.000Z</time>
      </trkpt>
      <trkpt lat="49.80296" lon="4.80426">
        <ele>271</ele>
        <time>2022-09-28T07:05:32.000Z</time>
      </trkpt>
      <trkpt lat="49.80299" lon="4.80428">
        <ele>270</ele>
        <time>2022-09-28T07:05:33.000Z</time>
      </trkpt>
      <trkpt lat="49.80302" lon="4.80428">
        <ele>270</ele>
        <time>2022-09-28T07:05:34.000Z</time>
      </trkpt>
      <trkpt lat="49.80304" lon="4.80429">
        <ele>270</ele>
        <time>2022-09-28T07:05:35.000Z</time>
      </trkpt>
      <trkpt lat="49.80307" lon="4.8043">
        <ele>270</ele>
        <time>2022-09-28T07:05:36.000Z</time>
      </trkpt>
      <trkpt lat="49.8031" lon="4.8043">
        <ele>270</ele>
        <time>2022-09-28T07:05:37.000Z</time>
      </trkpt>
      <trkpt lat="49.80314" lon="4.80431">
        <ele>270</ele>
        <time>2022-09-28T07:05:38.000Z</time>
      </trkpt>
      <trkpt lat="49.80317" lon="4.80432">
        <ele>270</ele>
        <time>2022-09-28T07:05:39.000Z</time>
      </trkpt>
      <trkpt lat="49.80321" lon="4.80433">
        <ele>269</ele>
        <time>2022-09-28T07:05:40.000Z</time>
      </trkpt>
      <trkpt lat="49.80323" lon="4.80434">
        <ele>269</ele>
        <time>2022-09-28T07:05:41.000Z</time>
      </trkpt>
      <trkpt lat="49.80326" lon="4.80435">
        <ele>269</ele>
        <time>2022-09-28T07:05:42.000Z</time>
      </trkpt>
      <trkpt lat="49.80327" lon="4.80435">
        <ele>269</ele>
        <time>2022-09-28T07:05:43.000Z</time>
      </trkpt>
      <trkpt lat="49.80329" lon="4.80436">
        <ele>269</ele>
        <time>2022-09-28T07:05:44.000Z</time>
      </trkpt>
      <trkpt lat="49.80331" lon="4.80436">
        <ele>268</ele>
        <time>2022-09-28T07:05:45.000Z</time>
      </trkpt>
      <trkpt lat="49.80334" lon="4.80437">
        <ele>268</ele>
        <time>2022-09-28T07:05:46.000Z</time>
      </trkpt>
      <trkpt lat="49.80336" lon="4.80437">
        <ele>268</ele>
        <time>2022-09-28T07:05:47.000Z</time>
      </trkpt>
      <trkpt lat="49.80337" lon="4.80436">
        <ele>267</ele>
        <time>2022-09-28T07:05:48.000Z</time>
      </trkpt>
      <trkpt lat="49.80339" lon="4.80436">
        <ele>267</ele>
        <time>2022-09-28T07:05:49.000Z</time>
      </trkpt>
      <trkpt lat="49.80341" lon="4.80436">
        <ele>267</ele>
        <time>2022-09-28T07:05:50.000Z</time>
      </trkpt>
      <trkpt lat="49.80342" lon="4.80436">
        <ele>266</ele>
        <time>2022-09-28T07:05:51.000Z</time>
      </trkpt>
      <trkpt lat="49.80344" lon="4.80437">
        <ele>266</ele>
        <time>2022-09-28T07:05:52.000Z</time>
      </trkpt>
      <trkpt lat="49.80346" lon="4.80437">
        <ele>265</ele>
        <time>2022-09-28T07:05:53.000Z</time>
      </trkpt>
      <trkpt lat="49.80348" lon="4.80437">
        <ele>265</ele>
        <time>2022-09-28T07:05:54.000Z</time>
      </trkpt>
      <trkpt lat="49.80351" lon="4.80437">
        <ele>265</ele>
        <time>2022-09-28T07:05:55.000Z</time>
      </trkpt>
      <trkpt lat="49.80354" lon="4.80437">
        <ele>265</ele>
        <time>2022-09-28T07:05:56.000Z</time>
      </trkpt>
      <trkpt lat="49.80356" lon="4.80437">
        <ele>264</ele>
        <time>2022-09-28T07:05:57.000Z</time>
      </trkpt>
      <trkpt lat="49.80358" lon="4.80437">
        <ele>264</ele>
        <time>2022-09-28T07:05:58.000Z</time>
      </trkpt>
      <trkpt lat="49.80361" lon="4.80438">
        <ele>264</ele>
        <time>2022-09-28T07:05:59.000Z</time>
      </trkpt>
      <trkpt lat="49.80362" lon="4.80439">
        <ele>264</ele>
        <time>2022-09-28T07:06:00.000Z</time>
      </trkpt>
      <trkpt lat="49.80364" lon="4.8044">
        <ele>264</ele>
        <time>2022-09-28T07:06:01.000Z</time>
      </trkpt>
      <trkpt lat="49.80367" lon="4.80441">
        <ele>264</ele>
        <time>2022-09-28T07:06:02.000Z</time>
      </trkpt>
      <trkpt lat="49.80369" lon="4.80442">
        <ele>263</ele>
        <time>2022-09-28T07:06:03.000Z</time>
      </trkpt>
      <trkpt lat="49.80371" lon="4.80442">
        <ele>263</ele>
        <time>2022-09-28T07:06:04.000Z</time>
      </trkpt>
      <trkpt lat="49.80374" lon="4.80442">
        <ele>263</ele>
        <time>2022-09-28T07:06:05.000Z</time>
      </trkpt>
      <trkpt lat="49.80377" lon="4.80442">
        <ele>263</ele>
        <time>2022-09-28T07:06:06.000Z</time>
      </trkpt>
      <trkpt lat="49.80379" lon="4.80442">
        <ele>263</ele>
        <time>2022-09-28T07:06:07.000Z</time>
      </trkpt>
      <trkpt lat="49.80381" lon="4.80442">
        <ele>263</ele>
        <time>2022-09-28T07:06:08.000Z</time>
      </trkpt>
      <trkpt lat="49.80383" lon="4.80441">
        <ele>262</ele>
        <time>2022-09-28T07:06:09.000Z</time>
      </trkpt>
      <trkpt lat="49.80385" lon="4.8044">
        <ele>262</ele>
        <time>2022-09-28T07:06:10.000Z</time>
      </trkpt>
      <trkpt lat="49.80388" lon="4.80439">
        <ele>262</ele>
        <time>2022-09-28T07:06:11.000Z</time>
      </trkpt>
      <trkpt lat="49.80392" lon="4.80439">
        <ele>262</ele>
        <time>2022-09-28T07:06:12.000Z</time>
      </trkpt>
      <trkpt lat="49.80395" lon="4.80439">
        <ele>262</ele>
        <time>2022-09-28T07:06:13.000Z</time>
      </trkpt>
      <trkpt lat="49.804" lon="4.80438">
        <ele>262</ele>
        <time>2022-09-28T07:06:14.000Z</time>
      </trkpt>
      <trkpt lat="49.80404" lon="4.80438">
        <ele>261</ele>
        <time>2022-09-28T07:06:15.000Z</time>
      </trkpt>
      <trkpt lat="49.80409" lon="4.80438">
        <ele>261</ele>
        <time>2022-09-28T07:06:16.000Z</time>
      </trkpt>
      <trkpt lat="49.80413" lon="4.80438">
        <ele>261</ele>
        <time>2022-09-28T07:06:17.000Z</time>
      </trkpt>
      <trkpt lat="49.80415" lon="4.80437">
        <ele>261</ele>
        <time>2022-09-28T07:06:18.000Z</time>
      </trkpt>
      <trkpt lat="49.80418" lon="4.80436">
        <ele>261</ele>
        <time>2022-09-28T07:06:19.000Z</time>
      </trkpt>
      <trkpt lat="49.80421" lon="4.80435">
        <ele>261</ele>
        <time>2022-09-28T07:06:20.000Z</time>
      </trkpt>
      <trkpt lat="49.80424" lon="4.80434">
        <ele>260</ele>
        <time>2022-09-28T07:06:21.000Z</time>
      </trkpt>
      <trkpt lat="49.80427" lon="4.80433">
        <ele>260</ele>
        <time>2022-09-28T07:06:22.000Z</time>
      </trkpt>
      <trkpt lat="49.80431" lon="4.80432">
        <ele>260</ele>
        <time>2022-09-28T07:06:23.000Z</time>
      </trkpt>
      <trkpt lat="49.80437" lon="4.80433">
        <ele>260</ele>
        <time>2022-09-28T07:06:24.000Z</time>
      </trkpt>
      <trkpt lat="49.80442" lon="4.80433">
        <ele>260</ele>
        <time>2022-09-28T07:06:25.000Z</time>
      </trkpt>
      <trkpt lat="49.80448" lon="4.80434">
        <ele>259</ele>
        <time>2022-09-28T07:06:26.000Z</time>
      </trkpt>
      <trkpt lat="49.80454" lon="4.80432">
        <ele>259</ele>
        <time>2022-09-28T07:06:27.000Z</time>
      </trkpt>
      <trkpt lat="49.8046" lon="4.80431">
        <ele>259</ele>
        <time>2022-09-28T07:06:28.000Z</time>
      </trkpt>
      <trkpt lat="49.80467" lon="4.80429">
        <ele>259</ele>
        <time>2022-09-28T07:06:29.000Z</time>
      </trkpt>
      <trkpt lat="49.80474" lon="4.80426">
        <ele>258</ele>
        <time>2022-09-28T07:06:30.000Z</time>
      </trkpt>
      <trkpt lat="49.80482" lon="4.80424">
        <ele>258</ele>
        <time>2022-09-28T07:06:31.000Z</time>
      </trkpt>
      <trkpt lat="49.80491" lon="4.8042">
        <ele>258</ele>
        <time>2022-09-28T07:06:32.000Z</time>
      </trkpt>
      <trkpt lat="49.80498" lon="4.80418">
        <ele>257</ele>
        <time>2022-09-28T07:06:33.000Z</time>
      </trkpt>
      <trkpt lat="49.80505" lon="4.80415">
        <ele>257</ele>
        <time>2022-09-28T07:06:34.000Z</time>
      </trkpt>
      <trkpt lat="49.80511" lon="4.80413">
        <ele>256</ele>
        <time>2022-09-28T07:06:35.000Z</time>
      </trkpt>
      <trkpt lat="49.80515" lon="4.80412">
        <ele>255</ele>
        <time>2022-09-28T07:06:36.000Z</time>
      </trkpt>
      <trkpt lat="49.8052" lon="4.80411">
        <ele>255</ele>
        <time>2022-09-28T07:06:37.000Z</time>
      </trkpt>
      <trkpt lat="49.80524" lon="4.80409">
        <ele>254</ele>
        <time>2022-09-28T07:06:38.000Z</time>
      </trkpt>
      <trkpt lat="49.80528" lon="4.80406">
        <ele>254</ele>
        <time>2022-09-28T07:06:39.000Z</time>
      </trkpt>
      <trkpt lat="49.80531" lon="4.80402">
        <ele>253</ele>
        <time>2022-09-28T07:06:40.000Z</time>
      </trkpt>
      <trkpt lat="49.80534" lon="4.80398">
        <ele>252</ele>
        <time>2022-09-28T07:06:41.000Z</time>
      </trkpt>
      <trkpt lat="49.80536" lon="4.80393">
        <ele>252</ele>
        <time>2022-09-28T07:06:42.000Z</time>
      </trkpt>
      <trkpt lat="49.80539" lon="4.80388">
        <ele>251</ele>
        <time>2022-09-28T07:06:43.000Z</time>
      </trkpt>
      <trkpt lat="49.80541" lon="4.80382">
        <ele>251</ele>
        <time>2022-09-28T07:06:44.000Z</time>
      </trkpt>
      <trkpt lat="49.80543" lon="4.80376">
        <ele>250</ele>
        <time>2022-09-28T07:06:45.000Z</time>
      </trkpt>
      <trkpt lat="49.80546" lon="4.8037">
        <ele>249</ele>
        <time>2022-09-28T07:06:46.000Z</time>
      </trkpt>
      <trkpt lat="49.8055" lon="4.80364">
        <ele>249</ele>
        <time>2022-09-28T07:06:47.000Z</time>
      </trkpt>
      <trkpt lat="49.80553" lon="4.80359">
        <ele>248</ele>
        <time>2022-09-28T07:06:48.000Z</time>
      </trkpt>
      <trkpt lat="49.80556" lon="4.80354">
        <ele>247</ele>
        <time>2022-09-28T07:06:49.000Z</time>
      </trkpt>
      <trkpt lat="49.80559" lon="4.80349">
        <ele>247</ele>
        <time>2022-09-28T07:06:50.000Z</time>
      </trkpt>
      <trkpt lat="49.80562" lon="4.80344">
        <ele>246</ele>
        <time>2022-09-28T07:06:51.000Z</time>
      </trkpt>
      <trkpt lat="49.80566" lon="4.80339">
        <ele>246</ele>
        <time>2022-09-28T07:06:52.000Z</time>
      </trkpt>
      <trkpt lat="49.8057" lon="4.80333">
        <ele>245</ele>
        <time>2022-09-28T07:06:53.000Z</time>
      </trkpt>
      <trkpt lat="49.80574" lon="4.80326">
        <ele>245</ele>
        <time>2022-09-28T07:06:54.000Z</time>
      </trkpt>
      <trkpt lat="49.80578" lon="4.8032">
        <ele>244</ele>
        <time>2022-09-28T07:06:55.000Z</time>
      </trkpt>
      <trkpt lat="49.80582" lon="4.80313">
        <ele>243</ele>
        <time>2022-09-28T07:06:56.000Z</time>
      </trkpt>
      <trkpt lat="49.80586" lon="4.80307">
        <ele>243</ele>
        <time>2022-09-28T07:06:57.000Z</time>
      </trkpt>
      <trkpt lat="49.8059" lon="4.80301">
        <ele>242</ele>
        <time>2022-09-28T07:06:58.000Z</time>
      </trkpt>
      <trkpt lat="49.80594" lon="4.80296">
        <ele>242</ele>
        <time>2022-09-28T07:06:59.000Z</time>
      </trkpt>
      <trkpt lat="49.80598" lon="4.8029">
        <ele>241</ele>
        <time>2022-09-28T07:07:00.000Z</time>
      </trkpt>
      <trkpt lat="49.80602" lon="4.80283">
        <ele>241</ele>
        <time>2022-09-28T07:07:01.000Z</time>
      </trkpt>
      <trkpt lat="49.80606" lon="4.80277">
        <ele>240</ele>
        <time>2022-09-28T07:07:02.000Z</time>
      </trkpt>
      <trkpt lat="49.80609" lon="4.8027">
        <ele>240</ele>
        <time>2022-09-28T07:07:03.000Z</time>
      </trkpt>
      <trkpt lat="49.80613" lon="4.80263">
        <ele>239</ele>
        <time>2022-09-28T07:07:04.000Z</time>
      </trkpt>
      <trkpt lat="49.80617" lon="4.80256">
        <ele>238</ele>
        <time>2022-09-28T07:07:05.000Z</time>
      </trkpt>
      <trkpt lat="49.80621" lon="4.8025">
        <ele>238</ele>
        <time>2022-09-28T07:07:06.000Z</time>
      </trkpt>
      <trkpt lat="49.80626" lon="4.80243">
        <ele>237</ele>
        <time>2022-09-28T07:07:07.000Z</time>
      </trkpt>
      <trkpt lat="49.80631" lon="4.80234">
        <ele>236</ele>
        <time>2022-09-28T07:07:08.000Z</time>
      </trkpt>
      <trkpt lat="49.80636" lon="4.80226">
        <ele>235</ele>
        <time>2022-09-28T07:07:09.000Z</time>
      </trkpt>
      <trkpt lat="49.80642" lon="4.80217">
        <ele>235</ele>
        <time>2022-09-28T07:07:10.000Z</time>
      </trkpt>
      <trkpt lat="49.80648" lon="4.80208">
        <ele>234</ele>
        <time>2022-09-28T07:07:11.000Z</time>
      </trkpt>
      <trkpt lat="49.80654" lon="4.802">
        <ele>233</ele>
        <time>2022-09-28T07:07:12.000Z</time>
      </trkpt>
      <trkpt lat="49.8066" lon="4.80192">
        <ele>232</ele>
        <time>2022-09-28T07:07:13.000Z</time>
      </trkpt>
      <trkpt lat="49.80666" lon="4.80185">
        <ele>231</ele>
        <time>2022-09-28T07:07:14.000Z</time>
      </trkpt>
      <trkpt lat="49.80672" lon="4.80178">
        <ele>230</ele>
        <time>2022-09-28T07:07:15.000Z</time>
      </trkpt>
      <trkpt lat="49.80677" lon="4.8017">
        <ele>229</ele>
        <time>2022-09-28T07:07:16.000Z</time>
      </trkpt>
      <trkpt lat="49.80682" lon="4.80163">
        <ele>229</ele>
        <time>2022-09-28T07:07:17.000Z</time>
      </trkpt>
      <trkpt lat="49.80687" lon="4.80156">
        <ele>228</ele>
        <time>2022-09-28T07:07:18.000Z</time>
      </trkpt>
      <trkpt lat="49.80692" lon="4.80148">
        <ele>226</ele>
        <time>2022-09-28T07:07:19.000Z</time>
      </trkpt>
      <trkpt lat="49.80697" lon="4.80141">
        <ele>225</ele>
        <time>2022-09-28T07:07:20.000Z</time>
      </trkpt>
      <trkpt lat="49.80702" lon="4.80135">
        <ele>224</ele>
        <time>2022-09-28T07:07:21.000Z</time>
      </trkpt>
      <trkpt lat="49.80708" lon="4.80129">
        <ele>223</ele>
        <time>2022-09-28T07:07:22.000Z</time>
      </trkpt>
      <trkpt lat="49.80714" lon="4.80124">
        <ele>222</ele>
        <time>2022-09-28T07:07:23.000Z</time>
      </trkpt>
      <trkpt lat="49.8072" lon="4.80119">
        <ele>221</ele>
        <time>2022-09-28T07:07:24.000Z</time>
      </trkpt>
      <trkpt lat="49.80726" lon="4.80116">
        <ele>220</ele>
        <time>2022-09-28T07:07:25.000Z</time>
      </trkpt>
      <trkpt lat="49.80732" lon="4.80114">
        <ele>220</ele>
        <time>2022-09-28T07:07:26.000Z</time>
      </trkpt>
      <trkpt lat="49.80737" lon="4.80112">
        <ele>219</ele>
        <time>2022-09-28T07:07:27.000Z</time>
      </trkpt>
      <trkpt lat="49.80743" lon="4.80109">
        <ele>218</ele>
        <time>2022-09-28T07:07:28.000Z</time>
      </trkpt>
      <trkpt lat="49.80749" lon="4.80103">
        <ele>217</ele>
        <time>2022-09-28T07:07:29.000Z</time>
      </trkpt>
      <trkpt lat="49.80754" lon="4.80096">
        <ele>216</ele>
        <time>2022-09-28T07:07:30.000Z</time>
      </trkpt>
      <trkpt lat="49.80758" lon="4.80087">
        <ele>216</ele>
        <time>2022-09-28T07:07:31.000Z</time>
      </trkpt>
      <trkpt lat="49.80762" lon="4.80077">
        <ele>215</ele>
        <time>2022-09-28T07:07:32.000Z</time>
      </trkpt>
      <trkpt lat="49.80766" lon="4.80067">
        <ele>214</ele>
        <time>2022-09-28T07:07:33.000Z</time>
      </trkpt>
      <trkpt lat="49.8077" lon="4.80057">
        <ele>213</ele>
        <time>2022-09-28T07:07:34.000Z</time>
      </trkpt>
      <trkpt lat="49.80773" lon="4.80046">
        <ele>212</ele>
        <time>2022-09-28T07:07:35.000Z</time>
      </trkpt>
      <trkpt lat="49.80777" lon="4.80035">
        <ele>211</ele>
        <time>2022-09-28T07:07:36.000Z</time>
      </trkpt>
      <trkpt lat="49.8078" lon="4.80023">
        <ele>210</ele>
        <time>2022-09-28T07:07:37.000Z</time>
      </trkpt>
      <trkpt lat="49.80784" lon="4.80012">
        <ele>210</ele>
        <time>2022-09-28T07:07:38.000Z</time>
      </trkpt>
      <trkpt lat="49.80787" lon="4.80001">
        <ele>209</ele>
        <time>2022-09-28T07:07:39.000Z</time>
      </trkpt>
      <trkpt lat="49.8079" lon="4.7999">
        <ele>208</ele>
        <time>2022-09-28T07:07:40.000Z</time>
      </trkpt>
      <trkpt lat="49.80793" lon="4.79979">
        <ele>207</ele>
        <time>2022-09-28T07:07:41.000Z</time>
      </trkpt>
      <trkpt lat="49.80797" lon="4.79968">
        <ele>207</ele>
        <time>2022-09-28T07:07:42.000Z</time>
      </trkpt>
      <trkpt lat="49.808" lon="4.79958">
        <ele>206</ele>
        <time>2022-09-28T07:07:43.000Z</time>
      </trkpt>
      <trkpt lat="49.80804" lon="4.79947">
        <ele>205</ele>
        <time>2022-09-28T07:07:44.000Z</time>
      </trkpt>
      <trkpt lat="49.80807" lon="4.79935">
        <ele>205</ele>
        <time>2022-09-28T07:07:45.000Z</time>
      </trkpt>
      <trkpt lat="49.80812" lon="4.79924">
        <ele>204</ele>
        <time>2022-09-28T07:07:46.000Z</time>
      </trkpt>
      <trkpt lat="49.80816" lon="4.79913">
        <ele>203</ele>
        <time>2022-09-28T07:07:47.000Z</time>
      </trkpt>
      <trkpt lat="49.80822" lon="4.79902">
        <ele>202</ele>
        <time>2022-09-28T07:07:48.000Z</time>
      </trkpt>
      <trkpt lat="49.80827" lon="4.79892">
        <ele>201</ele>
        <time>2022-09-28T07:07:49.000Z</time>
      </trkpt>
      <trkpt lat="49.80833" lon="4.79882">
        <ele>200</ele>
        <time>2022-09-28T07:07:50.000Z</time>
      </trkpt>
      <trkpt lat="49.8084" lon="4.79873">
        <ele>199</ele>
        <time>2022-09-28T07:07:51.000Z</time>
      </trkpt>
      <trkpt lat="49.80847" lon="4.79864">
        <ele>198</ele>
        <time>2022-09-28T07:07:52.000Z</time>
      </trkpt>
      <trkpt lat="49.80855" lon="4.79856">
        <ele>197</ele>
        <time>2022-09-28T07:07:53.000Z</time>
      </trkpt>
      <trkpt lat="49.80864" lon="4.79848">
        <ele>195</ele>
        <time>2022-09-28T07:07:54.000Z</time>
      </trkpt>
      <trkpt lat="49.80872" lon="4.79839">
        <ele>194</ele>
        <time>2022-09-28T07:07:55.000Z</time>
      </trkpt>
      <trkpt lat="49.80882" lon="4.79832">
        <ele>193</ele>
        <time>2022-09-28T07:07:56.000Z</time>
      </trkpt>
      <trkpt lat="49.80891" lon="4.79824">
        <ele>192</ele>
        <time>2022-09-28T07:07:57.000Z</time>
      </trkpt>
      <trkpt lat="49.809" lon="4.79816">
        <ele>190</ele>
        <time>2022-09-28T07:07:58.000Z</time>
      </trkpt>
      <trkpt lat="49.80909" lon="4.79808">
        <ele>189</ele>
        <time>2022-09-28T07:07:59.000Z</time>
      </trkpt>
      <trkpt lat="49.80917" lon="4.79799">
        <ele>187</ele>
        <time>2022-09-28T07:08:00.000Z</time>
      </trkpt>
      <trkpt lat="49.80925" lon="4.79791">
        <ele>186</ele>
        <time>2022-09-28T07:08:01.000Z</time>
      </trkpt>
      <trkpt lat="49.80934" lon="4.79785">
        <ele>185</ele>
        <time>2022-09-28T07:08:02.000Z</time>
      </trkpt>
      <trkpt lat="49.80942" lon="4.79778">
        <ele>184</ele>
        <time>2022-09-28T07:08:03.000Z</time>
      </trkpt>
      <trkpt lat="49.8095" lon="4.79772">
        <ele>183</ele>
        <time>2022-09-28T07:08:04.000Z</time>
      </trkpt>
      <trkpt lat="49.80958" lon="4.79767">
        <ele>182</ele>
        <time>2022-09-28T07:08:05.000Z</time>
      </trkpt>
      <trkpt lat="49.80965" lon="4.79762">
        <ele>181</ele>
        <time>2022-09-28T07:08:06.000Z</time>
      </trkpt>
      <trkpt lat="49.80972" lon="4.79757">
        <ele>181</ele>
        <time>2022-09-28T07:08:07.000Z</time>
      </trkpt>
      <trkpt lat="49.80978" lon="4.79752">
        <ele>180</ele>
        <time>2022-09-28T07:08:08.000Z</time>
      </trkpt>
      <trkpt lat="49.80985" lon="4.79747">
        <ele>180</ele>
        <time>2022-09-28T07:08:09.000Z</time>
      </trkpt>
      <trkpt lat="49.80991" lon="4.79742">
        <ele>180</ele>
        <time>2022-09-28T07:08:10.000Z</time>
      </trkpt>
      <trkpt lat="49.80997" lon="4.79736">
        <ele>179</ele>
        <time>2022-09-28T07:08:11.000Z</time>
      </trkpt>
      <trkpt lat="49.81002" lon="4.79731">
        <ele>179</ele>
        <time>2022-09-28T07:08:12.000Z</time>
      </trkpt>
      <trkpt lat="49.81007" lon="4.79726">
        <ele>179</ele>
        <time>2022-09-28T07:08:13.000Z</time>
      </trkpt>
      <trkpt lat="49.81012" lon="4.79722">
        <ele>179</ele>
        <time>2022-09-28T07:08:14.000Z</time>
      </trkpt>
      <trkpt lat="49.81017" lon="4.79721">
        <ele>178</ele>
        <time>2022-09-28T07:08:15.000Z</time>
      </trkpt>
      <trkpt lat="49.81022" lon="4.79726">
        <ele>178</ele>
        <time>2022-09-28T07:08:16.000Z</time>
      </trkpt>
      <trkpt lat="49.81026" lon="4.79732">
        <ele>178</ele>
        <time>2022-09-28T07:08:17.000Z</time>
      </trkpt>
      <trkpt lat="49.8103" lon="4.79739">
        <ele>178</ele>
        <time>2022-09-28T07:08:18.000Z</time>
      </trkpt>
      <trkpt lat="49.81034" lon="4.79746">
        <ele>178</ele>
        <time>2022-09-28T07:08:19.000Z</time>
      </trkpt>
      <trkpt lat="49.81039" lon="4.79753">
        <ele>178</ele>
        <time>2022-09-28T07:08:20.000Z</time>
      </trkpt>
      <trkpt lat="49.81043" lon="4.7976">
        <ele>177</ele>
        <time>2022-09-28T07:08:21.000Z</time>
      </trkpt>
      <trkpt lat="49.81047" lon="4.79768">
        <ele>177</ele>
        <time>2022-09-28T07:08:22.000Z</time>
      </trkpt>
      <trkpt lat="49.81051" lon="4.79776">
        <ele>177</ele>
        <time>2022-09-28T07:08:23.000Z</time>
      </trkpt>
      <trkpt lat="49.81054" lon="4.79785">
        <ele>177</ele>
        <time>2022-09-28T07:08:24.000Z</time>
      </trkpt>
      <trkpt lat="49.81058" lon="4.79794">
        <ele>177</ele>
        <time>2022-09-28T07:08:25.000Z</time>
      </trkpt>
      <trkpt lat="49.81062" lon="4.79803">
        <ele>177</ele>
        <time>2022-09-28T07:08:26.000Z</time>
      </trkpt>
      <trkpt lat="49.81065" lon="4.79812">
        <ele>177</ele>
        <time>2022-09-28T07:08:27.000Z</time>
      </trkpt>
      <trkpt lat="49.81069" lon="4.79821">
        <ele>176</ele>
        <time>2022-09-28T07:08:28.000Z</time>
      </trkpt>
      <trkpt lat="49.81074" lon="4.7983">
        <ele>176</ele>
        <time>2022-09-28T07:08:29.000Z</time>
      </trkpt>
      <trkpt lat="49.81077" lon="4.79839">
        <ele>176</ele>
        <time>2022-09-28T07:08:30.000Z</time>
      </trkpt>
      <trkpt lat="49.81081" lon="4.79848">
        <ele>175</ele>
        <time>2022-09-28T07:08:31.000Z</time>
      </trkpt>
      <trkpt lat="49.81084" lon="4.79857">
        <ele>175</ele>
        <time>2022-09-28T07:08:32.000Z</time>
      </trkpt>
      <trkpt lat="49.81088" lon="4.79866">
        <ele>175</ele>
        <time>2022-09-28T07:08:33.000Z</time>
      </trkpt>
      <trkpt lat="49.81092" lon="4.79875">
        <ele>175</ele>
        <time>2022-09-28T07:08:34.000Z</time>
      </trkpt>
      <trkpt lat="49.81095" lon="4.79884">
        <ele>175</ele>
        <time>2022-09-28T07:08:35.000Z</time>
      </trkpt>
      <trkpt lat="49.81099" lon="4.79892">
        <ele>175</ele>
        <time>2022-09-28T07:08:36.000Z</time>
      </trkpt>
      <trkpt lat="49.81102" lon="4.799">
        <ele>175</ele>
        <time>2022-09-28T07:08:37.000Z</time>
      </trkpt>
      <trkpt lat="49.81106" lon="4.79908">
        <ele>175</ele>
        <time>2022-09-28T07:08:38.000Z</time>
      </trkpt>
      <trkpt lat="49.8111" lon="4.79915">
        <ele>174</ele>
        <time>2022-09-28T07:08:39.000Z</time>
      </trkpt>
      <trkpt lat="49.81114" lon="4.79922">
        <ele>174</ele>
        <time>2022-09-28T07:08:40.000Z</time>
      </trkpt>
      <trkpt lat="49.81118" lon="4.79929">
        <ele>174</ele>
        <time>2022-09-28T07:08:41.000Z</time>
      </trkpt>
      <trkpt lat="49.81122" lon="4.79936">
        <ele>174</ele>
        <time>2022-09-28T07:08:42.000Z</time>
      </trkpt>
      <trkpt lat="49.81126" lon="4.79942">
        <ele>174</ele>
        <time>2022-09-28T07:08:43.000Z</time>
      </trkpt>
      <trkpt lat="49.8113" lon="4.79948">
        <ele>174</ele>
        <time>2022-09-28T07:08:44.000Z</time>
      </trkpt>
      <trkpt lat="49.81135" lon="4.79954">
        <ele>174</ele>
        <time>2022-09-28T07:08:45.000Z</time>
      </trkpt>
      <trkpt lat="49.81139" lon="4.79961">
        <ele>174</ele>
        <time>2022-09-28T07:08:46.000Z</time>
      </trkpt>
      <trkpt lat="49.81142" lon="4.79969">
        <ele>174</ele>
        <time>2022-09-28T07:08:47.000Z</time>
      </trkpt>
      <trkpt lat="49.81144" lon="4.79977">
        <ele>173</ele>
        <time>2022-09-28T07:08:48.000Z</time>
      </trkpt>
      <trkpt lat="49.81146" lon="4.79985">
        <ele>173</ele>
        <time>2022-09-28T07:08:49.000Z</time>
      </trkpt>
      <trkpt lat="49.81147" lon="4.79993">
        <ele>174</ele>
        <time>2022-09-28T07:08:50.000Z</time>
      </trkpt>
      <trkpt lat="49.81148" lon="4.80002">
        <ele>174</ele>
        <time>2022-09-28T07:08:51.000Z</time>
      </trkpt>
      <trkpt lat="49.81148" lon="4.80009">
        <ele>174</ele>
        <time>2022-09-28T07:08:52.000Z</time>
      </trkpt>
      <trkpt lat="49.81149" lon="4.80016">
        <ele>174</ele>
        <time>2022-09-28T07:08:53.000Z</time>
      </trkpt>
      <trkpt lat="49.81149" lon="4.80022">
        <ele>174</ele>
        <time>2022-09-28T07:08:54.000Z</time>
      </trkpt>
      <trkpt lat="49.81149" lon="4.80028">
        <ele>174</ele>
        <time>2022-09-28T07:08:55.000Z</time>
      </trkpt>
      <trkpt lat="49.81149" lon="4.80033">
        <ele>174</ele>
        <time>2022-09-28T07:08:56.000Z</time>
      </trkpt>
      <trkpt lat="49.81148" lon="4.80037">
        <ele>174</ele>
        <time>2022-09-28T07:08:57.000Z</time>
      </trkpt>
      <trkpt lat="49.81147" lon="4.80042">
        <ele>174</ele>
        <time>2022-09-28T07:08:58.000Z</time>
      </trkpt>
      <trkpt lat="49.81147" lon="4.80047">
        <ele>174</ele>
        <time>2022-09-28T07:08:59.000Z</time>
      </trkpt>
      <trkpt lat="49.81147" lon="4.80051">
        <ele>174</ele>
        <time>2022-09-28T07:09:00.000Z</time>
      </trkpt>
      <trkpt lat="49.81146" lon="4.80055">
        <ele>175</ele>
        <time>2022-09-28T07:09:01.000Z</time>
      </trkpt>
      <trkpt lat="49.81146" lon="4.8006">
        <ele>175</ele>
        <time>2022-09-28T07:09:02.000Z</time>
      </trkpt>
      <trkpt lat="49.81145" lon="4.80065">
        <ele>175</ele>
        <time>2022-09-28T07:09:03.000Z</time>
      </trkpt>
      <trkpt lat="49.81145" lon="4.80069">
        <ele>175</ele>
        <time>2022-09-28T07:09:04.000Z</time>
      </trkpt>
      <trkpt lat="49.81145" lon="4.80074">
        <ele>175</ele>
        <time>2022-09-28T07:09:05.000Z</time>
      </trkpt>
      <trkpt lat="49.81144" lon="4.80079">
        <ele>175</ele>
        <time>2022-09-28T07:09:06.000Z</time>
      </trkpt>
      <trkpt lat="49.81144" lon="4.80084">
        <ele>175</ele>
        <time>2022-09-28T07:09:07.000Z</time>
      </trkpt>
      <trkpt lat="49.81144" lon="4.80088">
        <ele>175</ele>
        <time>2022-09-28T07:09:08.000Z</time>
      </trkpt>
      <trkpt lat="49.81144" lon="4.80092">
        <ele>175</ele>
        <time>2022-09-28T07:09:09.000Z</time>
      </trkpt>
      <trkpt lat="49.81143" lon="4.80096">
        <ele>176</ele>
        <time>2022-09-28T07:09:10.000Z</time>
      </trkpt>
      <trkpt lat="49.81143" lon="4.80099">
        <ele>176</ele>
        <time>2022-09-28T07:09:11.000Z</time>
      </trkpt>
      <trkpt lat="49.81142" lon="4.80103">
        <ele>176</ele>
        <time>2022-09-28T07:09:12.000Z</time>
      </trkpt>
      <trkpt lat="49.81142" lon="4.80107">
        <ele>176</ele>
        <time>2022-09-28T07:09:13.000Z</time>
      </trkpt>
      <trkpt lat="49.81141" lon="4.80111">
        <ele>176</ele>
        <time>2022-09-28T07:09:14.000Z</time>
      </trkpt>
      <trkpt lat="49.81141" lon="4.80115">
        <ele>176</ele>
        <time>2022-09-28T07:09:15.000Z</time>
      </trkpt>
      <trkpt lat="49.8114" lon="4.8012">
        <ele>176</ele>
        <time>2022-09-28T07:09:16.000Z</time>
      </trkpt>
      <trkpt lat="49.8114" lon="4.80124">
        <ele>176</ele>
        <time>2022-09-28T07:09:17.000Z</time>
      </trkpt>
      <trkpt lat="49.81139" lon="4.80128">
        <ele>176</ele>
        <time>2022-09-28T07:09:18.000Z</time>
      </trkpt>
      <trkpt lat="49.81139" lon="4.80132">
        <ele>177</ele>
        <time>2022-09-28T07:09:19.000Z</time>
      </trkpt>
      <trkpt lat="49.8114" lon="4.80137">
        <ele>177</ele>
        <time>2022-09-28T07:09:20.000Z</time>
      </trkpt>
      <trkpt lat="49.8114" lon="4.80141">
        <ele>177</ele>
        <time>2022-09-28T07:09:21.000Z</time>
      </trkpt>
      <trkpt lat="49.81139" lon="4.80145">
        <ele>177</ele>
        <time>2022-09-28T07:09:22.000Z</time>
      </trkpt>
      <trkpt lat="49.81138" lon="4.80149">
        <ele>177</ele>
        <time>2022-09-28T07:09:23.000Z</time>
      </trkpt>
      <trkpt lat="49.81137" lon="4.80151">
        <ele>177</ele>
        <time>2022-09-28T07:09:24.000Z</time>
      </trkpt>
      <trkpt lat="49.81137" lon="4.80154">
        <ele>178</ele>
        <time>2022-09-28T07:09:25.000Z</time>
      </trkpt>
      <trkpt lat="49.81137" lon="4.80157">
        <ele>178</ele>
        <time>2022-09-28T07:09:26.000Z</time>
      </trkpt>
      <trkpt lat="49.81136" lon="4.80161">
        <ele>178</ele>
        <time>2022-09-28T07:09:27.000Z</time>
      </trkpt>
      <trkpt lat="49.81136" lon="4.80164">
        <ele>178</ele>
        <time>2022-09-28T07:09:28.000Z</time>
      </trkpt>
      <trkpt lat="49.81136" lon="4.80168">
        <ele>178</ele>
        <time>2022-09-28T07:09:29.000Z</time>
      </trkpt>
      <trkpt lat="49.81136" lon="4.80172">
        <ele>179</ele>
        <time>2022-09-28T07:09:30.000Z</time>
      </trkpt>
      <trkpt lat="49.81135" lon="4.80175">
        <ele>179</ele>
        <time>2022-09-28T07:09:31.000Z</time>
      </trkpt>
      <trkpt lat="49.81135" lon="4.80179">
        <ele>179</ele>
        <time>2022-09-28T07:09:32.000Z</time>
      </trkpt>
      <trkpt lat="49.81135" lon="4.80182">
        <ele>179</ele>
        <time>2022-09-28T07:09:33.000Z</time>
      </trkpt>
      <trkpt lat="49.81134" lon="4.80186">
        <ele>179</ele>
        <time>2022-09-28T07:09:34.000Z</time>
      </trkpt>
      <trkpt lat="49.81134" lon="4.8019">
        <ele>179</ele>
        <time>2022-09-28T07:09:35.000Z</time>
      </trkpt>
      <trkpt lat="49.81134" lon="4.80194">
        <ele>179</ele>
        <time>2022-09-28T07:09:36.000Z</time>
      </trkpt>
      <trkpt lat="49.81135" lon="4.80197">
        <ele>180</ele>
        <time>2022-09-28T07:09:37.000Z</time>
      </trkpt>
      <trkpt lat="49.81135" lon="4.80201">
        <ele>180</ele>
        <time>2022-09-28T07:09:38.000Z</time>
      </trkpt>
      <trkpt lat="49.81134" lon="4.80205">
        <ele>180</ele>
        <time>2022-09-28T07:09:39.000Z</time>
      </trkpt>
      <trkpt lat="49.81134" lon="4.80208">
        <ele>180</ele>
        <time>2022-09-28T07:09:40.000Z</time>
      </trkpt>
      <trkpt lat="49.81134" lon="4.80212">
        <ele>180</ele>
        <time>2022-09-28T07:09:41.000Z</time>
      </trkpt>
      <trkpt lat="49.81134" lon="4.80215">
        <ele>180</ele>
        <time>2022-09-28T07:09:42.000Z</time>
      </trkpt>
      <trkpt lat="49.81134" lon="4.80218">
        <ele>180</ele>
        <time>2022-09-28T07:09:43.000Z</time>
      </trkpt>
      <trkpt lat="49.81134" lon="4.80222">
        <ele>180</ele>
        <time>2022-09-28T07:09:44.000Z</time>
      </trkpt>
      <trkpt lat="49.81134" lon="4.80225">
        <ele>181</ele>
        <time>2022-09-28T07:09:45.000Z</time>
      </trkpt>
      <trkpt lat="49.81134" lon="4.8023">
        <ele>181</ele>
        <time>2022-09-28T07:09:46.000Z</time>
      </trkpt>
      <trkpt lat="49.81134" lon="4.80234">
        <ele>181</ele>
        <time>2022-09-28T07:09:47.000Z</time>
      </trkpt>
      <trkpt lat="49.81134" lon="4.80238">
        <ele>181</ele>
        <time>2022-09-28T07:09:48.000Z</time>
      </trkpt>
      <trkpt lat="49.81134" lon="4.80242">
        <ele>181</ele>
        <time>2022-09-28T07:09:49.000Z</time>
      </trkpt>
      <trkpt lat="49.81134" lon="4.80246">
        <ele>181</ele>
        <time>2022-09-28T07:09:50.000Z</time>
      </trkpt>
      <trkpt lat="49.81134" lon="4.8025">
        <ele>181</ele>
        <time>2022-09-28T07:09:51.000Z</time>
      </trkpt>
      <trkpt lat="49.81134" lon="4.80254">
        <ele>182</ele>
        <time>2022-09-28T07:09:52.000Z</time>
      </trkpt>
      <trkpt lat="49.81134" lon="4.80257">
        <ele>182</ele>
        <time>2022-09-28T07:09:53.000Z</time>
      </trkpt>
      <trkpt lat="49.81135" lon="4.8026">
        <ele>182</ele>
        <time>2022-09-28T07:09:54.000Z</time>
      </trkpt>
      <trkpt lat="49.81135" lon="4.80263">
        <ele>182</ele>
        <time>2022-09-28T07:09:55.000Z</time>
      </trkpt>
      <trkpt lat="49.81135" lon="4.80265">
        <ele>182</ele>
        <time>2022-09-28T07:09:56.000Z</time>
      </trkpt>
      <trkpt lat="49.81135" lon="4.80268">
        <ele>183</ele>
        <time>2022-09-28T07:09:57.000Z</time>
      </trkpt>
      <trkpt lat="49.81135" lon="4.80272">
        <ele>183</ele>
        <time>2022-09-28T07:09:58.000Z</time>
      </trkpt>
      <trkpt lat="49.81135" lon="4.80276">
        <ele>183</ele>
        <time>2022-09-28T07:09:59.000Z</time>
      </trkpt>
      <trkpt lat="49.81135" lon="4.80281">
        <ele>183</ele>
        <time>2022-09-28T07:10:00.000Z</time>
      </trkpt>
      <trkpt lat="49.81136" lon="4.80286">
        <ele>183</ele>
        <time>2022-09-28T07:10:01.000Z</time>
      </trkpt>
      <trkpt lat="49.81137" lon="4.8029">
        <ele>184</ele>
        <time>2022-09-28T07:10:02.000Z</time>
      </trkpt>
      <trkpt lat="49.81137" lon="4.80295">
        <ele>184</ele>
        <time>2022-09-28T07:10:03.000Z</time>
      </trkpt>
      <trkpt lat="49.81137" lon="4.80298">
        <ele>184</ele>
        <time>2022-09-28T07:10:04.000Z</time>
      </trkpt>
      <trkpt lat="49.81138" lon="4.80302">
        <ele>184</ele>
        <time>2022-09-28T07:10:05.000Z</time>
      </trkpt>
      <trkpt lat="49.81138" lon="4.80305">
        <ele>185</ele>
        <time>2022-09-28T07:10:06.000Z</time>
      </trkpt>
      <trkpt lat="49.81139" lon="4.80309">
        <ele>185</ele>
        <time>2022-09-28T07:10:07.000Z</time>
      </trkpt>
      <trkpt lat="49.81139" lon="4.80313">
        <ele>185</ele>
        <time>2022-09-28T07:10:08.000Z</time>
      </trkpt>
      <trkpt lat="49.8114" lon="4.80317">
        <ele>185</ele>
        <time>2022-09-28T07:10:09.000Z</time>
      </trkpt>
      <trkpt lat="49.8114" lon="4.80322">
        <ele>185</ele>
        <time>2022-09-28T07:10:10.000Z</time>
      </trkpt>
      <trkpt lat="49.81141" lon="4.80326">
        <ele>186</ele>
        <time>2022-09-28T07:10:11.000Z</time>
      </trkpt>
      <trkpt lat="49.81142" lon="4.8033">
        <ele>186</ele>
        <time>2022-09-28T07:10:12.000Z</time>
      </trkpt>
      <trkpt lat="49.81144" lon="4.80333">
        <ele>186</ele>
        <time>2022-09-28T07:10:13.000Z</time>
      </trkpt>
      <trkpt lat="49.81145" lon="4.80335">
        <ele>186</ele>
        <time>2022-09-28T07:10:14.000Z</time>
      </trkpt>
      <trkpt lat="49.81146" lon="4.80337">
        <ele>186</ele>
        <time>2022-09-28T07:10:15.000Z</time>
      </trkpt>
      <trkpt lat="49.81148" lon="4.80339">
        <ele>186</ele>
        <time>2022-09-28T07:10:16.000Z</time>
      </trkpt>
      <trkpt lat="49.81149" lon="4.8034">
        <ele>187</ele>
        <time>2022-09-28T07:10:17.000Z</time>
      </trkpt>
      <trkpt lat="49.8115" lon="4.80341">
        <ele>187</ele>
        <time>2022-09-28T07:10:18.000Z</time>
      </trkpt>
      <trkpt lat="49.81152" lon="4.80343">
        <ele>187</ele>
        <time>2022-09-28T07:10:19.000Z</time>
      </trkpt>
      <trkpt lat="49.81153" lon="4.80344">
        <ele>188</ele>
        <time>2022-09-28T07:10:20.000Z</time>
      </trkpt>
      <trkpt lat="49.81155" lon="4.80344">
        <ele>188</ele>
        <time>2022-09-28T07:10:21.000Z</time>
      </trkpt>
      <trkpt lat="49.81157" lon="4.80343">
        <ele>188</ele>
        <time>2022-09-28T07:10:22.000Z</time>
      </trkpt>
      <trkpt lat="49.81159" lon="4.80342">
        <ele>188</ele>
        <time>2022-09-28T07:10:23.000Z</time>
      </trkpt>
      <trkpt lat="49.81161" lon="4.80339">
        <ele>189</ele>
        <time>2022-09-28T07:10:24.000Z</time>
      </trkpt>
      <trkpt lat="49.81163" lon="4.80337">
        <ele>189</ele>
        <time>2022-09-28T07:10:25.000Z</time>
      </trkpt>
      <trkpt lat="49.81165" lon="4.80334">
        <ele>189</ele>
        <time>2022-09-28T07:10:26.000Z</time>
      </trkpt>
      <trkpt lat="49.81166" lon="4.8033">
        <ele>190</ele>
        <time>2022-09-28T07:10:27.000Z</time>
      </trkpt>
      <trkpt lat="49.81168" lon="4.80327">
        <ele>190</ele>
        <time>2022-09-28T07:10:28.000Z</time>
      </trkpt>
      <trkpt lat="49.8117" lon="4.80325">
        <ele>190</ele>
        <time>2022-09-28T07:10:29.000Z</time>
      </trkpt>
      <trkpt lat="49.81172" lon="4.80321">
        <ele>191</ele>
        <time>2022-09-28T07:10:30.000Z</time>
      </trkpt>
      <trkpt lat="49.81174" lon="4.80317">
        <ele>191</ele>
        <time>2022-09-28T07:10:31.000Z</time>
      </trkpt>
      <trkpt lat="49.81175" lon="4.80314">
        <ele>191</ele>
        <time>2022-09-28T07:10:32.000Z</time>
      </trkpt>
      <trkpt lat="49.81177" lon="4.8031">
        <ele>191</ele>
        <time>2022-09-28T07:10:33.000Z</time>
      </trkpt>
      <trkpt lat="49.81178" lon="4.80304">
        <ele>192</ele>
        <time>2022-09-28T07:10:34.000Z</time>
      </trkpt>
      <trkpt lat="49.81179" lon="4.80299">
        <ele>192</ele>
        <time>2022-09-28T07:10:35.000Z</time>
      </trkpt>
      <trkpt lat="49.81181" lon="4.80292">
        <ele>192</ele>
        <time>2022-09-28T07:10:36.000Z</time>
      </trkpt>
      <trkpt lat="49.81182" lon="4.80287">
        <ele>192</ele>
        <time>2022-09-28T07:10:37.000Z</time>
      </trkpt>
      <trkpt lat="49.81184" lon="4.80282">
        <ele>193</ele>
        <time>2022-09-28T07:10:38.000Z</time>
      </trkpt>
      <trkpt lat="49.81186" lon="4.80277">
        <ele>193</ele>
        <time>2022-09-28T07:10:39.000Z</time>
      </trkpt>
      <trkpt lat="49.81188" lon="4.80271">
        <ele>193</ele>
        <time>2022-09-28T07:10:40.000Z</time>
      </trkpt>
      <trkpt lat="49.8119" lon="4.80267">
        <ele>193</ele>
        <time>2022-09-28T07:10:41.000Z</time>
      </trkpt>
      <trkpt lat="49.81192" lon="4.80262">
        <ele>194</ele>
        <time>2022-09-28T07:10:42.000Z</time>
      </trkpt>
      <trkpt lat="49.81194" lon="4.80256">
        <ele>194</ele>
        <time>2022-09-28T07:10:43.000Z</time>
      </trkpt>
      <trkpt lat="49.81196" lon="4.8025">
        <ele>194</ele>
        <time>2022-09-28T07:10:44.000Z</time>
      </trkpt>
      <trkpt lat="49.81198" lon="4.80244">
        <ele>194</ele>
        <time>2022-09-28T07:10:45.000Z</time>
      </trkpt>
      <trkpt lat="49.812" lon="4.80238">
        <ele>195</ele>
        <time>2022-09-28T07:10:46.000Z</time>
      </trkpt>
      <trkpt lat="49.81202" lon="4.80232">
        <ele>195</ele>
        <time>2022-09-28T07:10:47.000Z</time>
      </trkpt>
      <trkpt lat="49.81205" lon="4.80225">
        <ele>195</ele>
        <time>2022-09-28T07:10:48.000Z</time>
      </trkpt>
      <trkpt lat="49.81207" lon="4.8022">
        <ele>196</ele>
        <time>2022-09-28T07:10:49.000Z</time>
      </trkpt>
      <trkpt lat="49.81209" lon="4.80214">
        <ele>196</ele>
        <time>2022-09-28T07:10:50.000Z</time>
      </trkpt>
      <trkpt lat="49.81212" lon="4.80208">
        <ele>196</ele>
        <time>2022-09-28T07:10:51.000Z</time>
      </trkpt>
      <trkpt lat="49.81215" lon="4.80203">
        <ele>196</ele>
        <time>2022-09-28T07:10:52.000Z</time>
      </trkpt>
      <trkpt lat="49.81217" lon="4.80197">
        <ele>197</ele>
        <time>2022-09-28T07:10:53.000Z</time>
      </trkpt>
      <trkpt lat="49.8122" lon="4.80191">
        <ele>197</ele>
        <time>2022-09-28T07:10:54.000Z</time>
      </trkpt>
      <trkpt lat="49.81222" lon="4.80185">
        <ele>197</ele>
        <time>2022-09-28T07:10:55.000Z</time>
      </trkpt>
      <trkpt lat="49.81225" lon="4.80179">
        <ele>197</ele>
        <time>2022-09-28T07:10:56.000Z</time>
      </trkpt>
      <trkpt lat="49.81226" lon="4.80174">
        <ele>197</ele>
        <time>2022-09-28T07:10:57.000Z</time>
      </trkpt>
      <trkpt lat="49.81228" lon="4.80168">
        <ele>197</ele>
        <time>2022-09-28T07:10:58.000Z</time>
      </trkpt>
      <trkpt lat="49.8123" lon="4.80162">
        <ele>197</ele>
        <time>2022-09-28T07:10:59.000Z</time>
      </trkpt>
      <trkpt lat="49.81232" lon="4.80155">
        <ele>196</ele>
        <time>2022-09-28T07:11:00.000Z</time>
      </trkpt>
      <trkpt lat="49.81234" lon="4.80149">
        <ele>196</ele>
        <time>2022-09-28T07:11:01.000Z</time>
      </trkpt>
      <trkpt lat="49.81237" lon="4.80142">
        <ele>196</ele>
        <time>2022-09-28T07:11:02.000Z</time>
      </trkpt>
      <trkpt lat="49.81239" lon="4.80137">
        <ele>197</ele>
        <time>2022-09-28T07:11:03.000Z</time>
      </trkpt>
      <trkpt lat="49.81242" lon="4.80131">
        <ele>197</ele>
        <time>2022-09-28T07:11:04.000Z</time>
      </trkpt>
      <trkpt lat="49.81244" lon="4.80125">
        <ele>197</ele>
        <time>2022-09-28T07:11:05.000Z</time>
      </trkpt>
      <trkpt lat="49.81247" lon="4.80119">
        <ele>197</ele>
        <time>2022-09-28T07:11:06.000Z</time>
      </trkpt>
      <trkpt lat="49.81249" lon="4.80112">
        <ele>197</ele>
        <time>2022-09-28T07:11:07.000Z</time>
      </trkpt>
      <trkpt lat="49.81251" lon="4.80105">
        <ele>197</ele>
        <time>2022-09-28T07:11:08.000Z</time>
      </trkpt>
      <trkpt lat="49.81253" lon="4.80099">
        <ele>197</ele>
        <time>2022-09-28T07:11:09.000Z</time>
      </trkpt>
      <trkpt lat="49.81255" lon="4.80093">
        <ele>197</ele>
        <time>2022-09-28T07:11:10.000Z</time>
      </trkpt>
      <trkpt lat="49.81258" lon="4.80087">
        <ele>197</ele>
        <time>2022-09-28T07:11:11.000Z</time>
      </trkpt>
      <trkpt lat="49.8126" lon="4.8008">
        <ele>197</ele>
        <time>2022-09-28T07:11:12.000Z</time>
      </trkpt>
      <trkpt lat="49.81262" lon="4.80074">
        <ele>197</ele>
        <time>2022-09-28T07:11:13.000Z</time>
      </trkpt>
      <trkpt lat="49.81264" lon="4.80068">
        <ele>197</ele>
        <time>2022-09-28T07:11:14.000Z</time>
      </trkpt>
      <trkpt lat="49.81266" lon="4.80061">
        <ele>197</ele>
        <time>2022-09-28T07:11:15.000Z</time>
      </trkpt>
      <trkpt lat="49.81269" lon="4.80055">
        <ele>197</ele>
        <time>2022-09-28T07:11:16.000Z</time>
      </trkpt>
      <trkpt lat="49.81271" lon="4.80048">
        <ele>197</ele>
        <time>2022-09-28T07:11:17.000Z</time>
      </trkpt>
      <trkpt lat="49.81274" lon="4.80042">
        <ele>197</ele>
        <time>2022-09-28T07:11:18.000Z</time>
      </trkpt>
      <trkpt lat="49.81277" lon="4.80036">
        <ele>197</ele>
        <time>2022-09-28T07:11:19.000Z</time>
      </trkpt>
      <trkpt lat="49.8128" lon="4.80031">
        <ele>197</ele>
        <time>2022-09-28T07:11:20.000Z</time>
      </trkpt>
      <trkpt lat="49.81282" lon="4.80026">
        <ele>197</ele>
        <time>2022-09-28T07:11:21.000Z</time>
      </trkpt>
      <trkpt lat="49.81284" lon="4.80021">
        <ele>197</ele>
        <time>2022-09-28T07:11:22.000Z</time>
      </trkpt>
      <trkpt lat="49.81287" lon="4.80015">
        <ele>197</ele>
        <time>2022-09-28T07:11:23.000Z</time>
      </trkpt>
      <trkpt lat="49.81289" lon="4.8001">
        <ele>197</ele>
        <time>2022-09-28T07:11:24.000Z</time>
      </trkpt>
      <trkpt lat="49.81292" lon="4.80005">
        <ele>197</ele>
        <time>2022-09-28T07:11:25.000Z</time>
      </trkpt>
      <trkpt lat="49.81294" lon="4.8">
        <ele>197</ele>
        <time>2022-09-28T07:11:26.000Z</time>
      </trkpt>
      <trkpt lat="49.81297" lon="4.79995">
        <ele>197</ele>
        <time>2022-09-28T07:11:27.000Z</time>
      </trkpt>
      <trkpt lat="49.81299" lon="4.79989">
        <ele>197</ele>
        <time>2022-09-28T07:11:28.000Z</time>
      </trkpt>
      <trkpt lat="49.81302" lon="4.79984">
        <ele>197</ele>
        <time>2022-09-28T07:11:29.000Z</time>
      </trkpt>
      <trkpt lat="49.81304" lon="4.79979">
        <ele>197</ele>
        <time>2022-09-28T07:11:30.000Z</time>
      </trkpt>
      <trkpt lat="49.81306" lon="4.79974">
        <ele>197</ele>
        <time>2022-09-28T07:11:31.000Z</time>
      </trkpt>
      <trkpt lat="49.8131" lon="4.79968">
        <ele>197</ele>
        <time>2022-09-28T07:11:32.000Z</time>
      </trkpt>
      <trkpt lat="49.81313" lon="4.79963">
        <ele>197</ele>
        <time>2022-09-28T07:11:33.000Z</time>
      </trkpt>
      <trkpt lat="49.81316" lon="4.79959">
        <ele>197</ele>
        <time>2022-09-28T07:11:34.000Z</time>
      </trkpt>
      <trkpt lat="49.81319" lon="4.79953">
        <ele>197</ele>
        <time>2022-09-28T07:11:35.000Z</time>
      </trkpt>
      <trkpt lat="49.81322" lon="4.79947">
        <ele>197</ele>
        <time>2022-09-28T07:11:36.000Z</time>
      </trkpt>
      <trkpt lat="49.81325" lon="4.7994">
        <ele>197</ele>
        <time>2022-09-28T07:11:37.000Z</time>
      </trkpt>
      <trkpt lat="49.81328" lon="4.79934">
        <ele>198</ele>
        <time>2022-09-28T07:11:38.000Z</time>
      </trkpt>
      <trkpt lat="49.81331" lon="4.79928">
        <ele>198</ele>
        <time>2022-09-28T07:11:39.000Z</time>
      </trkpt>
      <trkpt lat="49.81334" lon="4.79921">
        <ele>198</ele>
        <time>2022-09-28T07:11:40.000Z</time>
      </trkpt>
      <trkpt lat="49.81337" lon="4.79914">
        <ele>198</ele>
        <time>2022-09-28T07:11:41.000Z</time>
      </trkpt>
      <trkpt lat="49.81339" lon="4.79908">
        <ele>198</ele>
        <time>2022-09-28T07:11:42.000Z</time>
      </trkpt>
      <trkpt lat="49.81341" lon="4.79901">
        <ele>198</ele>
        <time>2022-09-28T07:11:43.000Z</time>
      </trkpt>
      <trkpt lat="49.81343" lon="4.79895">
        <ele>198</ele>
        <time>2022-09-28T07:11:44.000Z</time>
      </trkpt>
      <trkpt lat="49.81345" lon="4.79889">
        <ele>198</ele>
        <time>2022-09-28T07:11:45.000Z</time>
      </trkpt>
      <trkpt lat="49.81347" lon="4.79882">
        <ele>199</ele>
        <time>2022-09-28T07:11:46.000Z</time>
      </trkpt>
      <trkpt lat="49.81349" lon="4.79874">
        <ele>199</ele>
        <time>2022-09-28T07:11:47.000Z</time>
      </trkpt>
      <trkpt lat="49.81351" lon="4.79868">
        <ele>199</ele>
        <time>2022-09-28T07:11:48.000Z</time>
      </trkpt>
      <trkpt lat="49.81354" lon="4.79861">
        <ele>199</ele>
        <time>2022-09-28T07:11:49.000Z</time>
      </trkpt>
      <trkpt lat="49.81356" lon="4.79855">
        <ele>199</ele>
        <time>2022-09-28T07:11:50.000Z</time>
      </trkpt>
      <trkpt lat="49.81358" lon="4.79848">
        <ele>199</ele>
        <time>2022-09-28T07:11:51.000Z</time>
      </trkpt>
      <trkpt lat="49.8136" lon="4.79842">
        <ele>199</ele>
        <time>2022-09-28T07:11:52.000Z</time>
      </trkpt>
      <trkpt lat="49.81363" lon="4.79834">
        <ele>199</ele>
        <time>2022-09-28T07:11:53.000Z</time>
      </trkpt>
      <trkpt lat="49.81365" lon="4.79828">
        <ele>199</ele>
        <time>2022-09-28T07:11:54.000Z</time>
      </trkpt>
      <trkpt lat="49.81368" lon="4.79821">
        <ele>199</ele>
        <time>2022-09-28T07:11:55.000Z</time>
      </trkpt>
      <trkpt lat="49.81371" lon="4.79814">
        <ele>199</ele>
        <time>2022-09-28T07:11:56.000Z</time>
      </trkpt>
      <trkpt lat="49.81374" lon="4.79807">
        <ele>199</ele>
        <time>2022-09-28T07:11:57.000Z</time>
      </trkpt>
      <trkpt lat="49.81377" lon="4.79801">
        <ele>199</ele>
        <time>2022-09-28T07:11:58.000Z</time>
      </trkpt>
      <trkpt lat="49.81379" lon="4.79794">
        <ele>199</ele>
        <time>2022-09-28T07:11:59.000Z</time>
      </trkpt>
      <trkpt lat="49.81381" lon="4.79787">
        <ele>200</ele>
        <time>2022-09-28T07:12:00.000Z</time>
      </trkpt>
      <trkpt lat="49.81383" lon="4.7978">
        <ele>200</ele>
        <time>2022-09-28T07:12:01.000Z</time>
      </trkpt>
      <trkpt lat="49.81385" lon="4.79772">
        <ele>199</ele>
        <time>2022-09-28T07:12:02.000Z</time>
      </trkpt>
      <trkpt lat="49.81388" lon="4.79764">
        <ele>199</ele>
        <time>2022-09-28T07:12:03.000Z</time>
      </trkpt>
      <trkpt lat="49.8139" lon="4.79756">
        <ele>199</ele>
        <time>2022-09-28T07:12:04.000Z</time>
      </trkpt>
      <trkpt lat="49.81393" lon="4.79748">
        <ele>199</ele>
        <time>2022-09-28T07:12:05.000Z</time>
      </trkpt>
      <trkpt lat="49.81395" lon="4.79741">
        <ele>199</ele>
        <time>2022-09-28T07:12:06.000Z</time>
      </trkpt>
      <trkpt lat="49.81397" lon="4.79733">
        <ele>199</ele>
        <time>2022-09-28T07:12:07.000Z</time>
      </trkpt>
      <trkpt lat="49.81399" lon="4.79727">
        <ele>199</ele>
        <time>2022-09-28T07:12:08.000Z</time>
      </trkpt>
      <trkpt lat="49.814" lon="4.7972">
        <ele>199</ele>
        <time>2022-09-28T07:12:09.000Z</time>
      </trkpt>
      <trkpt lat="49.81402" lon="4.79713">
        <ele>199</ele>
        <time>2022-09-28T07:12:10.000Z</time>
      </trkpt>
      <trkpt lat="49.81405" lon="4.79706">
        <ele>199</ele>
        <time>2022-09-28T07:12:11.000Z</time>
      </trkpt>
      <trkpt lat="49.81407" lon="4.797">
        <ele>199</ele>
        <time>2022-09-28T07:12:12.000Z</time>
      </trkpt>
      <trkpt lat="49.81409" lon="4.79694">
        <ele>199</ele>
        <time>2022-09-28T07:12:13.000Z</time>
      </trkpt>
      <trkpt lat="49.81411" lon="4.79689">
        <ele>199</ele>
        <time>2022-09-28T07:12:14.000Z</time>
      </trkpt>
      <trkpt lat="49.81414" lon="4.79684">
        <ele>199</ele>
        <time>2022-09-28T07:12:15.000Z</time>
      </trkpt>
      <trkpt lat="49.81416" lon="4.79678">
        <ele>199</ele>
        <time>2022-09-28T07:12:16.000Z</time>
      </trkpt>
      <trkpt lat="49.81417" lon="4.79672">
        <ele>199</ele>
        <time>2022-09-28T07:12:17.000Z</time>
      </trkpt>
      <trkpt lat="49.81418" lon="4.79666">
        <ele>199</ele>
        <time>2022-09-28T07:12:18.000Z</time>
      </trkpt>
      <trkpt lat="49.81419" lon="4.7966">
        <ele>199</ele>
        <time>2022-09-28T07:12:19.000Z</time>
      </trkpt>
      <trkpt lat="49.8142" lon="4.79654">
        <ele>199</ele>
        <time>2022-09-28T07:12:20.000Z</time>
      </trkpt>
      <trkpt lat="49.81422" lon="4.79647">
        <ele>199</ele>
        <time>2022-09-28T07:12:21.000Z</time>
      </trkpt>
      <trkpt lat="49.81423" lon="4.7964">
        <ele>199</ele>
        <time>2022-09-28T07:12:22.000Z</time>
      </trkpt>
      <trkpt lat="49.81424" lon="4.79632">
        <ele>199</ele>
        <time>2022-09-28T07:12:23.000Z</time>
      </trkpt>
      <trkpt lat="49.81425" lon="4.79624">
        <ele>199</ele>
        <time>2022-09-28T07:12:24.000Z</time>
      </trkpt>
      <trkpt lat="49.81426" lon="4.79617">
        <ele>199</ele>
        <time>2022-09-28T07:12:25.000Z</time>
      </trkpt>
      <trkpt lat="49.81427" lon="4.7961">
        <ele>199</ele>
        <time>2022-09-28T07:12:26.000Z</time>
      </trkpt>
      <trkpt lat="49.81428" lon="4.79604">
        <ele>199</ele>
        <time>2022-09-28T07:12:27.000Z</time>
      </trkpt>
      <trkpt lat="49.81429" lon="4.79598">
        <ele>199</ele>
        <time>2022-09-28T07:12:28.000Z</time>
      </trkpt>
      <trkpt lat="49.8143" lon="4.79592">
        <ele>199</ele>
        <time>2022-09-28T07:12:29.000Z</time>
      </trkpt>
      <trkpt lat="49.81431" lon="4.79585">
        <ele>199</ele>
        <time>2022-09-28T07:12:30.000Z</time>
      </trkpt>
      <trkpt lat="49.81432" lon="4.79577">
        <ele>199</ele>
        <time>2022-09-28T07:12:31.000Z</time>
      </trkpt>
      <trkpt lat="49.81432" lon="4.79569">
        <ele>199</ele>
        <time>2022-09-28T07:12:32.000Z</time>
      </trkpt>
      <trkpt lat="49.81433" lon="4.79562">
        <ele>199</ele>
        <time>2022-09-28T07:12:33.000Z</time>
      </trkpt>
      <trkpt lat="49.81434" lon="4.79554">
        <ele>199</ele>
        <time>2022-09-28T07:12:34.000Z</time>
      </trkpt>
      <trkpt lat="49.81435" lon="4.79546">
        <ele>199</ele>
        <time>2022-09-28T07:12:35.000Z</time>
      </trkpt>
      <trkpt lat="49.81435" lon="4.79539">
        <ele>199</ele>
        <time>2022-09-28T07:12:36.000Z</time>
      </trkpt>
      <trkpt lat="49.81435" lon="4.7953">
        <ele>199</ele>
        <time>2022-09-28T07:12:37.000Z</time>
      </trkpt>
      <trkpt lat="49.81436" lon="4.79523">
        <ele>199</ele>
        <time>2022-09-28T07:12:38.000Z</time>
      </trkpt>
      <trkpt lat="49.81436" lon="4.79515">
        <ele>199</ele>
        <time>2022-09-28T07:12:39.000Z</time>
      </trkpt>
      <trkpt lat="49.81437" lon="4.79507">
        <ele>199</ele>
        <time>2022-09-28T07:12:40.000Z</time>
      </trkpt>
      <trkpt lat="49.81437" lon="4.795">
        <ele>199</ele>
        <time>2022-09-28T07:12:41.000Z</time>
      </trkpt>
      <trkpt lat="49.81437" lon="4.79493">
        <ele>199</ele>
        <time>2022-09-28T07:12:42.000Z</time>
      </trkpt>
      <trkpt lat="49.81437" lon="4.79486">
        <ele>199</ele>
        <time>2022-09-28T07:12:43.000Z</time>
      </trkpt>
      <trkpt lat="49.81437" lon="4.79479">
        <ele>200</ele>
        <time>2022-09-28T07:12:44.000Z</time>
      </trkpt>
      <trkpt lat="49.81438" lon="4.79473">
        <ele>200</ele>
        <time>2022-09-28T07:12:45.000Z</time>
      </trkpt>
      <trkpt lat="49.81439" lon="4.79466">
        <ele>200</ele>
        <time>2022-09-28T07:12:46.000Z</time>
      </trkpt>
      <trkpt lat="49.81439" lon="4.79459">
        <ele>200</ele>
        <time>2022-09-28T07:12:47.000Z</time>
      </trkpt>
      <trkpt lat="49.81439" lon="4.79452">
        <ele>200</ele>
        <time>2022-09-28T07:12:48.000Z</time>
      </trkpt>
      <trkpt lat="49.8144" lon="4.79445">
        <ele>200</ele>
        <time>2022-09-28T07:12:49.000Z</time>
      </trkpt>
      <trkpt lat="49.8144" lon="4.79438">
        <ele>199</ele>
        <time>2022-09-28T07:12:50.000Z</time>
      </trkpt>
      <trkpt lat="49.81441" lon="4.7943">
        <ele>199</ele>
        <time>2022-09-28T07:12:51.000Z</time>
      </trkpt>
      <trkpt lat="49.81442" lon="4.79423">
        <ele>199</ele>
        <time>2022-09-28T07:12:52.000Z</time>
      </trkpt>
      <trkpt lat="49.81443" lon="4.79416">
        <ele>199</ele>
        <time>2022-09-28T07:12:53.000Z</time>
      </trkpt>
      <trkpt lat="49.81445" lon="4.79409">
        <ele>199</ele>
        <time>2022-09-28T07:12:54.000Z</time>
      </trkpt>
      <trkpt lat="49.81447" lon="4.79404">
        <ele>199</ele>
        <time>2022-09-28T07:12:55.000Z</time>
      </trkpt>
      <trkpt lat="49.81449" lon="4.79399">
        <ele>200</ele>
        <time>2022-09-28T07:12:56.000Z</time>
      </trkpt>
      <trkpt lat="49.81451" lon="4.79393">
        <ele>200</ele>
        <time>2022-09-28T07:12:57.000Z</time>
      </trkpt>
      <trkpt lat="49.81452" lon="4.79388">
        <ele>200</ele>
        <time>2022-09-28T07:12:58.000Z</time>
      </trkpt>
      <trkpt lat="49.81453" lon="4.79383">
        <ele>200</ele>
        <time>2022-09-28T07:12:59.000Z</time>
      </trkpt>
      <trkpt lat="49.81453" lon="4.79378">
        <ele>200</ele>
        <time>2022-09-28T07:13:00.000Z</time>
      </trkpt>
      <trkpt lat="49.81453" lon="4.79372">
        <ele>200</ele>
        <time>2022-09-28T07:13:01.000Z</time>
      </trkpt>
      <trkpt lat="49.81453" lon="4.79365">
        <ele>200</ele>
        <time>2022-09-28T07:13:02.000Z</time>
      </trkpt>
      <trkpt lat="49.81452" lon="4.79358">
        <ele>200</ele>
        <time>2022-09-28T07:13:03.000Z</time>
      </trkpt>
      <trkpt lat="49.81453" lon="4.7935">
        <ele>200</ele>
        <time>2022-09-28T07:13:04.000Z</time>
      </trkpt>
      <trkpt lat="49.81453" lon="4.79343">
        <ele>200</ele>
        <time>2022-09-28T07:13:05.000Z</time>
      </trkpt>
      <trkpt lat="49.81454" lon="4.79336">
        <ele>200</ele>
        <time>2022-09-28T07:13:06.000Z</time>
      </trkpt>
      <trkpt lat="49.81454" lon="4.7933">
        <ele>200</ele>
        <time>2022-09-28T07:13:07.000Z</time>
      </trkpt>
      <trkpt lat="49.81455" lon="4.79324">
        <ele>200</ele>
        <time>2022-09-28T07:13:08.000Z</time>
      </trkpt>
      <trkpt lat="49.81457" lon="4.79318">
        <ele>200</ele>
        <time>2022-09-28T07:13:09.000Z</time>
      </trkpt>
      <trkpt lat="49.81458" lon="4.7931">
        <ele>200</ele>
        <time>2022-09-28T07:13:10.000Z</time>
      </trkpt>
      <trkpt lat="49.81459" lon="4.79302">
        <ele>200</ele>
        <time>2022-09-28T07:13:11.000Z</time>
      </trkpt>
      <trkpt lat="49.8146" lon="4.79295">
        <ele>200</ele>
        <time>2022-09-28T07:13:12.000Z</time>
      </trkpt>
      <trkpt lat="49.81461" lon="4.79287">
        <ele>200</ele>
        <time>2022-09-28T07:13:13.000Z</time>
      </trkpt>
      <trkpt lat="49.81462" lon="4.79278">
        <ele>200</ele>
        <time>2022-09-28T07:13:14.000Z</time>
      </trkpt>
      <trkpt lat="49.81463" lon="4.7927">
        <ele>200</ele>
        <time>2022-09-28T07:13:15.000Z</time>
      </trkpt>
      <trkpt lat="49.81464" lon="4.79262">
        <ele>200</ele>
        <time>2022-09-28T07:13:16.000Z</time>
      </trkpt>
      <trkpt lat="49.81466" lon="4.79254">
        <ele>200</ele>
        <time>2022-09-28T07:13:17.000Z</time>
      </trkpt>
      <trkpt lat="49.81467" lon="4.79246">
        <ele>199</ele>
        <time>2022-09-28T07:13:18.000Z</time>
      </trkpt>
      <trkpt lat="49.81468" lon="4.79239">
        <ele>199</ele>
        <time>2022-09-28T07:13:19.000Z</time>
      </trkpt>
      <trkpt lat="49.81469" lon="4.79231">
        <ele>199</ele>
        <time>2022-09-28T07:13:20.000Z</time>
      </trkpt>
      <trkpt lat="49.8147" lon="4.79224">
        <ele>199</ele>
        <time>2022-09-28T07:13:21.000Z</time>
      </trkpt>
      <trkpt lat="49.81471" lon="4.79217">
        <ele>199</ele>
        <time>2022-09-28T07:13:22.000Z</time>
      </trkpt>
      <trkpt lat="49.81472" lon="4.79209">
        <ele>199</ele>
        <time>2022-09-28T07:13:23.000Z</time>
      </trkpt>
      <trkpt lat="49.81472" lon="4.79201">
        <ele>199</ele>
        <time>2022-09-28T07:13:24.000Z</time>
      </trkpt>
      <trkpt lat="49.81472" lon="4.79192">
        <ele>199</ele>
        <time>2022-09-28T07:13:25.000Z</time>
      </trkpt>
      <trkpt lat="49.81471" lon="4.79184">
        <ele>199</ele>
        <time>2022-09-28T07:13:26.000Z</time>
      </trkpt>
      <trkpt lat="49.81471" lon="4.79175">
        <ele>199</ele>
        <time>2022-09-28T07:13:27.000Z</time>
      </trkpt>
      <trkpt lat="49.81471" lon="4.79165">
        <ele>199</ele>
        <time>2022-09-28T07:13:28.000Z</time>
      </trkpt>
      <trkpt lat="49.81472" lon="4.79155">
        <ele>199</ele>
        <time>2022-09-28T07:13:29.000Z</time>
      </trkpt>
      <trkpt lat="49.81472" lon="4.79146">
        <ele>198</ele>
        <time>2022-09-28T07:13:30.000Z</time>
      </trkpt>
      <trkpt lat="49.81473" lon="4.79136">
        <ele>198</ele>
        <time>2022-09-28T07:13:31.000Z</time>
      </trkpt>
      <trkpt lat="49.81472" lon="4.79126">
        <ele>198</ele>
        <time>2022-09-28T07:13:32.000Z</time>
      </trkpt>
      <trkpt lat="49.81473" lon="4.79116">
        <ele>198</ele>
        <time>2022-09-28T07:13:33.000Z</time>
      </trkpt>
      <trkpt lat="49.81474" lon="4.79107">
        <ele>198</ele>
        <time>2022-09-28T07:13:34.000Z</time>
      </trkpt>
      <trkpt lat="49.81474" lon="4.79098">
        <ele>198</ele>
        <time>2022-09-28T07:13:35.000Z</time>
      </trkpt>
      <trkpt lat="49.81476" lon="4.79088">
        <ele>198</ele>
        <time>2022-09-28T07:13:36.000Z</time>
      </trkpt>
      <trkpt lat="49.81477" lon="4.7908">
        <ele>198</ele>
        <time>2022-09-28T07:13:37.000Z</time>
      </trkpt>
      <trkpt lat="49.81479" lon="4.79072">
        <ele>197</ele>
        <time>2022-09-28T07:13:38.000Z</time>
      </trkpt>
      <trkpt lat="49.81481" lon="4.79065">
        <ele>197</ele>
        <time>2022-09-28T07:13:39.000Z</time>
      </trkpt>
      <trkpt lat="49.81483" lon="4.79058">
        <ele>197</ele>
        <time>2022-09-28T07:13:40.000Z</time>
      </trkpt>
      <trkpt lat="49.81484" lon="4.79051">
        <ele>197</ele>
        <time>2022-09-28T07:13:41.000Z</time>
      </trkpt>
      <trkpt lat="49.81486" lon="4.79044">
        <ele>197</ele>
        <time>2022-09-28T07:13:42.000Z</time>
      </trkpt>
      <trkpt lat="49.81487" lon="4.79036">
        <ele>197</ele>
        <time>2022-09-28T07:13:43.000Z</time>
      </trkpt>
      <trkpt lat="49.81489" lon="4.79027">
        <ele>197</ele>
        <time>2022-09-28T07:13:44.000Z</time>
      </trkpt>
      <trkpt lat="49.8149" lon="4.79018">
        <ele>197</ele>
        <time>2022-09-28T07:13:45.000Z</time>
      </trkpt>
      <trkpt lat="49.81491" lon="4.79011">
        <ele>196</ele>
        <time>2022-09-28T07:13:46.000Z</time>
      </trkpt>
      <trkpt lat="49.81493" lon="4.79002">
        <ele>196</ele>
        <time>2022-09-28T07:13:47.000Z</time>
      </trkpt>
      <trkpt lat="49.81495" lon="4.78993">
        <ele>196</ele>
        <time>2022-09-28T07:13:48.000Z</time>
      </trkpt>
      <trkpt lat="49.81497" lon="4.78985">
        <ele>196</ele>
        <time>2022-09-28T07:13:49.000Z</time>
      </trkpt>
      <trkpt lat="49.81498" lon="4.78977">
        <ele>196</ele>
        <time>2022-09-28T07:13:50.000Z</time>
      </trkpt>
      <trkpt lat="49.81499" lon="4.78969">
        <ele>196</ele>
        <time>2022-09-28T07:13:51.000Z</time>
      </trkpt>
      <trkpt lat="49.815" lon="4.78961">
        <ele>196</ele>
        <time>2022-09-28T07:13:52.000Z</time>
      </trkpt>
      <trkpt lat="49.81501" lon="4.78954">
        <ele>195</ele>
        <time>2022-09-28T07:13:53.000Z</time>
      </trkpt>
      <trkpt lat="49.81501" lon="4.78946">
        <ele>195</ele>
        <time>2022-09-28T07:13:54.000Z</time>
      </trkpt>
      <trkpt lat="49.81502" lon="4.78938">
        <ele>195</ele>
        <time>2022-09-28T07:13:55.000Z</time>
      </trkpt>
      <trkpt lat="49.81503" lon="4.78929">
        <ele>195</ele>
        <time>2022-09-28T07:13:56.000Z</time>
      </trkpt>
      <trkpt lat="49.81505" lon="4.78921">
        <ele>195</ele>
        <time>2022-09-28T07:13:57.000Z</time>
      </trkpt>
      <trkpt lat="49.81506" lon="4.78912">
        <ele>195</ele>
        <time>2022-09-28T07:13:58.000Z</time>
      </trkpt>
      <trkpt lat="49.81507" lon="4.78904">
        <ele>194</ele>
        <time>2022-09-28T07:13:59.000Z</time>
      </trkpt>
      <trkpt lat="49.81509" lon="4.78896">
        <ele>194</ele>
        <time>2022-09-28T07:14:00.000Z</time>
      </trkpt>
      <trkpt lat="49.81511" lon="4.78888">
        <ele>194</ele>
        <time>2022-09-28T07:14:01.000Z</time>
      </trkpt>
      <trkpt lat="49.81513" lon="4.7888">
        <ele>194</ele>
        <time>2022-09-28T07:14:02.000Z</time>
      </trkpt>
      <trkpt lat="49.81515" lon="4.78872">
        <ele>194</ele>
        <time>2022-09-28T07:14:03.000Z</time>
      </trkpt>
      <trkpt lat="49.81516" lon="4.78865">
        <ele>194</ele>
        <time>2022-09-28T07:14:04.000Z</time>
      </trkpt>
      <trkpt lat="49.81518" lon="4.78858">
        <ele>194</ele>
        <time>2022-09-28T07:14:05.000Z</time>
      </trkpt>
      <trkpt lat="49.81519" lon="4.78851">
        <ele>194</ele>
        <time>2022-09-28T07:14:06.000Z</time>
      </trkpt>
      <trkpt lat="49.8152" lon="4.78843">
        <ele>194</ele>
        <time>2022-09-28T07:14:07.000Z</time>
      </trkpt>
      <trkpt lat="49.81521" lon="4.78835">
        <ele>194</ele>
        <time>2022-09-28T07:14:08.000Z</time>
      </trkpt>
      <trkpt lat="49.81523" lon="4.78827">
        <ele>194</ele>
        <time>2022-09-28T07:14:09.000Z</time>
      </trkpt>
      <trkpt lat="49.81525" lon="4.7882">
        <ele>193</ele>
        <time>2022-09-28T07:14:10.000Z</time>
      </trkpt>
      <trkpt lat="49.81528" lon="4.78813">
        <ele>193</ele>
        <time>2022-09-28T07:14:11.000Z</time>
      </trkpt>
      <trkpt lat="49.81531" lon="4.78807">
        <ele>193</ele>
        <time>2022-09-28T07:14:12.000Z</time>
      </trkpt>
      <trkpt lat="49.81535" lon="4.788">
        <ele>192</ele>
        <time>2022-09-28T07:14:13.000Z</time>
      </trkpt>
      <trkpt lat="49.81538" lon="4.78793">
        <ele>192</ele>
        <time>2022-09-28T07:14:14.000Z</time>
      </trkpt>
      <trkpt lat="49.8154" lon="4.78786">
        <ele>192</ele>
        <time>2022-09-28T07:14:15.000Z</time>
      </trkpt>
      <trkpt lat="49.81542" lon="4.7878">
        <ele>192</ele>
        <time>2022-09-28T07:14:16.000Z</time>
      </trkpt>
      <trkpt lat="49.81544" lon="4.78773">
        <ele>191</ele>
        <time>2022-09-28T07:14:17.000Z</time>
      </trkpt>
      <trkpt lat="49.81546" lon="4.78765">
        <ele>191</ele>
        <time>2022-09-28T07:14:18.000Z</time>
      </trkpt>
      <trkpt lat="49.81547" lon="4.78758">
        <ele>191</ele>
        <time>2022-09-28T07:14:19.000Z</time>
      </trkpt>
      <trkpt lat="49.81549" lon="4.78751">
        <ele>191</ele>
        <time>2022-09-28T07:14:20.000Z</time>
      </trkpt>
      <trkpt lat="49.81552" lon="4.78745">
        <ele>191</ele>
        <time>2022-09-28T07:14:21.000Z</time>
      </trkpt>
      <trkpt lat="49.81554" lon="4.78739">
        <ele>190</ele>
        <time>2022-09-28T07:14:22.000Z</time>
      </trkpt>
      <trkpt lat="49.81556" lon="4.78735">
        <ele>190</ele>
        <time>2022-09-28T07:14:23.000Z</time>
      </trkpt>
      <trkpt lat="49.81559" lon="4.78733">
        <ele>190</ele>
        <time>2022-09-28T07:14:24.000Z</time>
      </trkpt>
      <trkpt lat="49.81561" lon="4.7873">
        <ele>190</ele>
        <time>2022-09-28T07:14:25.000Z</time>
      </trkpt>
      <trkpt lat="49.81562" lon="4.78727">
        <ele>190</ele>
        <time>2022-09-28T07:14:26.000Z</time>
      </trkpt>
      <trkpt lat="49.81564" lon="4.78723">
        <ele>191</ele>
        <time>2022-09-28T07:14:27.000Z</time>
      </trkpt>
      <trkpt lat="49.81566" lon="4.7872">
        <ele>191</ele>
        <time>2022-09-28T07:14:28.000Z</time>
      </trkpt>
      <trkpt lat="49.81568" lon="4.78716">
        <ele>191</ele>
        <time>2022-09-28T07:14:29.000Z</time>
      </trkpt>
      <trkpt lat="49.81569" lon="4.78712">
        <ele>191</ele>
        <time>2022-09-28T07:14:30.000Z</time>
      </trkpt>
      <trkpt lat="49.81571" lon="4.78708">
        <ele>191</ele>
        <time>2022-09-28T07:14:31.000Z</time>
      </trkpt>
      <trkpt lat="49.81573" lon="4.78705">
        <ele>191</ele>
        <time>2022-09-28T07:14:32.000Z</time>
      </trkpt>
      <trkpt lat="49.81575" lon="4.78701">
        <ele>191</ele>
        <time>2022-09-28T07:14:33.000Z</time>
      </trkpt>
      <trkpt lat="49.81577" lon="4.78698">
        <ele>191</ele>
        <time>2022-09-28T07:14:34.000Z</time>
      </trkpt>
      <trkpt lat="49.81579" lon="4.78694">
        <ele>191</ele>
        <time>2022-09-28T07:14:35.000Z</time>
      </trkpt>
      <trkpt lat="49.81581" lon="4.7869">
        <ele>191</ele>
        <time>2022-09-28T07:14:36.000Z</time>
      </trkpt>
      <trkpt lat="49.81583" lon="4.78686">
        <ele>191</ele>
        <time>2022-09-28T07:14:37.000Z</time>
      </trkpt>
      <trkpt lat="49.81584" lon="4.78682">
        <ele>191</ele>
        <time>2022-09-28T07:14:38.000Z</time>
      </trkpt>
      <trkpt lat="49.81587" lon="4.78679">
        <ele>191</ele>
        <time>2022-09-28T07:14:39.000Z</time>
      </trkpt>
      <trkpt lat="49.81589" lon="4.78678">
        <ele>191</ele>
        <time>2022-09-28T07:14:40.000Z</time>
      </trkpt>
      <trkpt lat="49.81591" lon="4.78677">
        <ele>191</ele>
        <time>2022-09-28T07:14:41.000Z</time>
      </trkpt>
      <trkpt lat="49.81594" lon="4.78676">
        <ele>191</ele>
        <time>2022-09-28T07:14:42.000Z</time>
      </trkpt>
      <trkpt lat="49.81597" lon="4.78675">
        <ele>191</ele>
        <time>2022-09-28T07:14:43.000Z</time>
      </trkpt>
      <trkpt lat="49.81601" lon="4.78675">
        <ele>191</ele>
        <time>2022-09-28T07:14:44.000Z</time>
      </trkpt>
      <trkpt lat="49.81605" lon="4.78675">
        <ele>191</ele>
        <time>2022-09-28T07:14:45.000Z</time>
      </trkpt>
      <trkpt lat="49.81609" lon="4.78677">
        <ele>191</ele>
        <time>2022-09-28T07:14:46.000Z</time>
      </trkpt>
      <trkpt lat="49.81613" lon="4.78679">
        <ele>191</ele>
        <time>2022-09-28T07:14:47.000Z</time>
      </trkpt>
      <trkpt lat="49.81617" lon="4.78682">
        <ele>191</ele>
        <time>2022-09-28T07:14:48.000Z</time>
      </trkpt>
      <trkpt lat="49.81621" lon="4.78684">
        <ele>191</ele>
        <time>2022-09-28T07:14:49.000Z</time>
      </trkpt>
      <trkpt lat="49.81625" lon="4.78685">
        <ele>191</ele>
        <time>2022-09-28T07:14:50.000Z</time>
      </trkpt>
      <trkpt lat="49.81629" lon="4.78685">
        <ele>191</ele>
        <time>2022-09-28T07:14:51.000Z</time>
      </trkpt>
      <trkpt lat="49.81633" lon="4.78686">
        <ele>191</ele>
        <time>2022-09-28T07:14:52.000Z</time>
      </trkpt>
      <trkpt lat="49.81638" lon="4.78687">
        <ele>191</ele>
        <time>2022-09-28T07:14:53.000Z</time>
      </trkpt>
      <trkpt lat="49.81642" lon="4.7869">
        <ele>191</ele>
        <time>2022-09-28T07:14:54.000Z</time>
      </trkpt>
      <trkpt lat="49.81646" lon="4.78693">
        <ele>191</ele>
        <time>2022-09-28T07:14:55.000Z</time>
      </trkpt>
      <trkpt lat="49.8165" lon="4.78695">
        <ele>191</ele>
        <time>2022-09-28T07:14:56.000Z</time>
      </trkpt>
      <trkpt lat="49.81654" lon="4.78697">
        <ele>191</ele>
        <time>2022-09-28T07:14:57.000Z</time>
      </trkpt>
      <trkpt lat="49.81658" lon="4.78699">
        <ele>191</ele>
        <time>2022-09-28T07:14:58.000Z</time>
      </trkpt>
      <trkpt lat="49.81662" lon="4.787">
        <ele>191</ele>
        <time>2022-09-28T07:14:59.000Z</time>
      </trkpt>
      <trkpt lat="49.81666" lon="4.78702">
        <ele>191</ele>
        <time>2022-09-28T07:15:00.000Z</time>
      </trkpt>
      <trkpt lat="49.8167" lon="4.78704">
        <ele>191</ele>
        <time>2022-09-28T07:15:01.000Z</time>
      </trkpt>
      <trkpt lat="49.81675" lon="4.78705">
        <ele>191</ele>
        <time>2022-09-28T07:15:02.000Z</time>
      </trkpt>
      <trkpt lat="49.81678" lon="4.78707">
        <ele>191</ele>
        <time>2022-09-28T07:15:03.000Z</time>
      </trkpt>
      <trkpt lat="49.81682" lon="4.78709">
        <ele>191</ele>
        <time>2022-09-28T07:15:04.000Z</time>
      </trkpt>
      <trkpt lat="49.81686" lon="4.78711">
        <ele>191</ele>
        <time>2022-09-28T07:15:05.000Z</time>
      </trkpt>
      <trkpt lat="49.8169" lon="4.78714">
        <ele>191</ele>
        <time>2022-09-28T07:15:06.000Z</time>
      </trkpt>
      <trkpt lat="49.81694" lon="4.78717">
        <ele>191</ele>
        <time>2022-09-28T07:15:07.000Z</time>
      </trkpt>
      <trkpt lat="49.81698" lon="4.7872">
        <ele>191</ele>
        <time>2022-09-28T07:15:08.000Z</time>
      </trkpt>
      <trkpt lat="49.81703" lon="4.78722">
        <ele>191</ele>
        <time>2022-09-28T07:15:09.000Z</time>
      </trkpt>
      <trkpt lat="49.81707" lon="4.78725">
        <ele>191</ele>
        <time>2022-09-28T07:15:10.000Z</time>
      </trkpt>
      <trkpt lat="49.81711" lon="4.78728">
        <ele>191</ele>
        <time>2022-09-28T07:15:11.000Z</time>
      </trkpt>
      <trkpt lat="49.81716" lon="4.78731">
        <ele>191</ele>
        <time>2022-09-28T07:15:12.000Z</time>
      </trkpt>
      <trkpt lat="49.8172" lon="4.78735">
        <ele>191</ele>
        <time>2022-09-28T07:15:13.000Z</time>
      </trkpt>
      <trkpt lat="49.81724" lon="4.78738">
        <ele>191</ele>
        <time>2022-09-28T07:15:14.000Z</time>
      </trkpt>
      <trkpt lat="49.81729" lon="4.7874">
        <ele>191</ele>
        <time>2022-09-28T07:15:15.000Z</time>
      </trkpt>
      <trkpt lat="49.81733" lon="4.78743">
        <ele>190</ele>
        <time>2022-09-28T07:15:16.000Z</time>
      </trkpt>
      <trkpt lat="49.81737" lon="4.78747">
        <ele>190</ele>
        <time>2022-09-28T07:15:17.000Z</time>
      </trkpt>
      <trkpt lat="49.81741" lon="4.78751">
        <ele>190</ele>
        <time>2022-09-28T07:15:18.000Z</time>
      </trkpt>
      <trkpt lat="49.81746" lon="4.78755">
        <ele>190</ele>
        <time>2022-09-28T07:15:19.000Z</time>
      </trkpt>
      <trkpt lat="49.8175" lon="4.78759">
        <ele>190</ele>
        <time>2022-09-28T07:15:20.000Z</time>
      </trkpt>
      <trkpt lat="49.81755" lon="4.78763">
        <ele>190</ele>
        <time>2022-09-28T07:15:21.000Z</time>
      </trkpt>
      <trkpt lat="49.81759" lon="4.78765">
        <ele>189</ele>
        <time>2022-09-28T07:15:22.000Z</time>
      </trkpt>
      <trkpt lat="49.81763" lon="4.78765">
        <ele>189</ele>
        <time>2022-09-28T07:15:23.000Z</time>
      </trkpt>
      <trkpt lat="49.81767" lon="4.78765">
        <ele>189</ele>
        <time>2022-09-28T07:15:24.000Z</time>
      </trkpt>
      <trkpt lat="49.8177" lon="4.78763">
        <ele>189</ele>
        <time>2022-09-28T07:15:25.000Z</time>
      </trkpt>
      <trkpt lat="49.81773" lon="4.78762">
        <ele>189</ele>
        <time>2022-09-28T07:15:26.000Z</time>
      </trkpt>
      <trkpt lat="49.81775" lon="4.7876">
        <ele>188</ele>
        <time>2022-09-28T07:15:27.000Z</time>
      </trkpt>
      <trkpt lat="49.81776" lon="4.78758">
        <ele>188</ele>
        <time>2022-09-28T07:15:28.000Z</time>
      </trkpt>
      <trkpt lat="49.81774" lon="4.78754">
        <ele>187</ele>
        <time>2022-09-28T07:15:29.000Z</time>
      </trkpt>
      <trkpt lat="49.81771" lon="4.78751">
        <ele>187</ele>
        <time>2022-09-28T07:15:30.000Z</time>
      </trkpt>
      <trkpt lat="49.81766" lon="4.78747">
        <ele>186</ele>
        <time>2022-09-28T07:15:31.000Z</time>
      </trkpt>
      <trkpt lat="49.81762" lon="4.78742">
        <ele>186</ele>
        <time>2022-09-28T07:15:32.000Z</time>
      </trkpt>
      <trkpt lat="49.81757" lon="4.78737">
        <ele>185</ele>
        <time>2022-09-28T07:15:33.000Z</time>
      </trkpt>
      <trkpt lat="49.81752" lon="4.78732">
        <ele>185</ele>
        <time>2022-09-28T07:15:34.000Z</time>
      </trkpt>
      <trkpt lat="49.81747" lon="4.78728">
        <ele>184</ele>
        <time>2022-09-28T07:15:35.000Z</time>
      </trkpt>
      <trkpt lat="49.81742" lon="4.78723">
        <ele>184</ele>
        <time>2022-09-28T07:15:36.000Z</time>
      </trkpt>
      <trkpt lat="49.81737" lon="4.78718">
        <ele>184</ele>
        <time>2022-09-28T07:15:37.000Z</time>
      </trkpt>
      <trkpt lat="49.81732" lon="4.78712">
        <ele>183</ele>
        <time>2022-09-28T07:15:38.000Z</time>
      </trkpt>
      <trkpt lat="49.81727" lon="4.78708">
        <ele>183</ele>
        <time>2022-09-28T07:15:39.000Z</time>
      </trkpt>
      <trkpt lat="49.81722" lon="4.78703">
        <ele>183</ele>
        <time>2022-09-28T07:15:40.000Z</time>
      </trkpt>
      <trkpt lat="49.81717" lon="4.78698">
        <ele>182</ele>
        <time>2022-09-28T07:15:41.000Z</time>
      </trkpt>
      <trkpt lat="49.81711" lon="4.78694">
        <ele>182</ele>
        <time>2022-09-28T07:15:42.000Z</time>
      </trkpt>
      <trkpt lat="49.81706" lon="4.78689">
        <ele>182</ele>
        <time>2022-09-28T07:15:43.000Z</time>
      </trkpt>
      <trkpt lat="49.81702" lon="4.78684">
        <ele>182</ele>
        <time>2022-09-28T07:15:44.000Z</time>
      </trkpt>
      <trkpt lat="49.81697" lon="4.7868">
        <ele>181</ele>
        <time>2022-09-28T07:15:45.000Z</time>
      </trkpt>
      <trkpt lat="49.81693" lon="4.78676">
        <ele>181</ele>
        <time>2022-09-28T07:15:46.000Z</time>
      </trkpt>
      <trkpt lat="49.81688" lon="4.78672">
        <ele>181</ele>
        <time>2022-09-28T07:15:47.000Z</time>
      </trkpt>
      <trkpt lat="49.81683" lon="4.78667">
        <ele>181</ele>
        <time>2022-09-28T07:15:48.000Z</time>
      </trkpt>
      <trkpt lat="49.81678" lon="4.78662">
        <ele>181</ele>
        <time>2022-09-28T07:15:49.000Z</time>
      </trkpt>
      <trkpt lat="49.81673" lon="4.78658">
        <ele>180</ele>
        <time>2022-09-28T07:15:50.000Z</time>
      </trkpt>
      <trkpt lat="49.81667" lon="4.78654">
        <ele>180</ele>
        <time>2022-09-28T07:15:51.000Z</time>
      </trkpt>
      <trkpt lat="49.81662" lon="4.78651">
        <ele>180</ele>
        <time>2022-09-28T07:15:52.000Z</time>
      </trkpt>
      <trkpt lat="49.81656" lon="4.78647">
        <ele>180</ele>
        <time>2022-09-28T07:15:53.000Z</time>
      </trkpt>
      <trkpt lat="49.8165" lon="4.78644">
        <ele>179</ele>
        <time>2022-09-28T07:15:54.000Z</time>
      </trkpt>
      <trkpt lat="49.81645" lon="4.78641">
        <ele>179</ele>
        <time>2022-09-28T07:15:55.000Z</time>
      </trkpt>
      <trkpt lat="49.81639" lon="4.78638">
        <ele>179</ele>
        <time>2022-09-28T07:15:56.000Z</time>
      </trkpt>
      <trkpt lat="49.81634" lon="4.78635">
        <ele>179</ele>
        <time>2022-09-28T07:15:57.000Z</time>
      </trkpt>
      <trkpt lat="49.81629" lon="4.78633">
        <ele>179</ele>
        <time>2022-09-28T07:15:58.000Z</time>
      </trkpt>
      <trkpt lat="49.81624" lon="4.78631">
        <ele>178</ele>
        <time>2022-09-28T07:15:59.000Z</time>
      </trkpt>
      <trkpt lat="49.81619" lon="4.78628">
        <ele>178</ele>
        <time>2022-09-28T07:16:00.000Z</time>
      </trkpt>
      <trkpt lat="49.81614" lon="4.78626">
        <ele>178</ele>
        <time>2022-09-28T07:16:01.000Z</time>
      </trkpt>
      <trkpt lat="49.81609" lon="4.78624">
        <ele>178</ele>
        <time>2022-09-28T07:16:02.000Z</time>
      </trkpt>
      <trkpt lat="49.81604" lon="4.78621">
        <ele>178</ele>
        <time>2022-09-28T07:16:03.000Z</time>
      </trkpt>
      <trkpt lat="49.81599" lon="4.78619">
        <ele>178</ele>
        <time>2022-09-28T07:16:04.000Z</time>
      </trkpt>
      <trkpt lat="49.81594" lon="4.78618">
        <ele>177</ele>
        <time>2022-09-28T07:16:05.000Z</time>
      </trkpt>
      <trkpt lat="49.81588" lon="4.78617">
        <ele>177</ele>
        <time>2022-09-28T07:16:06.000Z</time>
      </trkpt>
      <trkpt lat="49.81583" lon="4.78617">
        <ele>177</ele>
        <time>2022-09-28T07:16:07.000Z</time>
      </trkpt>
      <trkpt lat="49.81577" lon="4.78619">
        <ele>177</ele>
        <time>2022-09-28T07:16:08.000Z</time>
      </trkpt>
      <trkpt lat="49.81572" lon="4.78622">
        <ele>177</ele>
        <time>2022-09-28T07:16:09.000Z</time>
      </trkpt>
      <trkpt lat="49.81567" lon="4.78626">
        <ele>177</ele>
        <time>2022-09-28T07:16:10.000Z</time>
      </trkpt>
      <trkpt lat="49.81562" lon="4.78631">
        <ele>177</ele>
        <time>2022-09-28T07:16:11.000Z</time>
      </trkpt>
      <trkpt lat="49.81557" lon="4.78636">
        <ele>177</ele>
        <time>2022-09-28T07:16:12.000Z</time>
      </trkpt>
      <trkpt lat="49.81552" lon="4.7864">
        <ele>177</ele>
        <time>2022-09-28T07:16:13.000Z</time>
      </trkpt>
      <trkpt lat="49.81547" lon="4.78645">
        <ele>177</ele>
        <time>2022-09-28T07:16:14.000Z</time>
      </trkpt>
      <trkpt lat="49.81542" lon="4.78649">
        <ele>177</ele>
        <time>2022-09-28T07:16:15.000Z</time>
      </trkpt>
      <trkpt lat="49.81537" lon="4.78654">
        <ele>177</ele>
        <time>2022-09-28T07:16:16.000Z</time>
      </trkpt>
      <trkpt lat="49.81533" lon="4.78659">
        <ele>177</ele>
        <time>2022-09-28T07:16:17.000Z</time>
      </trkpt>
      <trkpt lat="49.81528" lon="4.78664">
        <ele>176</ele>
        <time>2022-09-28T07:16:18.000Z</time>
      </trkpt>
      <trkpt lat="49.81524" lon="4.78669">
        <ele>176</ele>
        <time>2022-09-28T07:16:19.000Z</time>
      </trkpt>
      <trkpt lat="49.81519" lon="4.78674">
        <ele>176</ele>
        <time>2022-09-28T07:16:20.000Z</time>
      </trkpt>
      <trkpt lat="49.81514" lon="4.78679">
        <ele>176</ele>
        <time>2022-09-28T07:16:21.000Z</time>
      </trkpt>
      <trkpt lat="49.8151" lon="4.78684">
        <ele>176</ele>
        <time>2022-09-28T07:16:22.000Z</time>
      </trkpt>
      <trkpt lat="49.81506" lon="4.78689">
        <ele>176</ele>
        <time>2022-09-28T07:16:23.000Z</time>
      </trkpt>
      <trkpt lat="49.81501" lon="4.78694">
        <ele>176</ele>
        <time>2022-09-28T07:16:24.000Z</time>
      </trkpt>
      <trkpt lat="49.81496" lon="4.78696">
        <ele>176</ele>
        <time>2022-09-28T07:16:25.000Z</time>
      </trkpt>
      <trkpt lat="49.81492" lon="4.78696">
        <ele>176</ele>
        <time>2022-09-28T07:16:26.000Z</time>
      </trkpt>
      <trkpt lat="49.81488" lon="4.78694">
        <ele>176</ele>
        <time>2022-09-28T07:16:27.000Z</time>
      </trkpt>
      <trkpt lat="49.81483" lon="4.78689">
        <ele>175</ele>
        <time>2022-09-28T07:16:28.000Z</time>
      </trkpt>
      <trkpt lat="49.8148" lon="4.78681">
        <ele>175</ele>
        <time>2022-09-28T07:16:29.000Z</time>
      </trkpt>
      <trkpt lat="49.81476" lon="4.78671">
        <ele>175</ele>
        <time>2022-09-28T07:16:30.000Z</time>
      </trkpt>
      <trkpt lat="49.81474" lon="4.78661">
        <ele>175</ele>
        <time>2022-09-28T07:16:31.000Z</time>
      </trkpt>
      <trkpt lat="49.81473" lon="4.7865">
        <ele>174</ele>
        <time>2022-09-28T07:16:32.000Z</time>
      </trkpt>
      <trkpt lat="49.81473" lon="4.78639">
        <ele>174</ele>
        <time>2022-09-28T07:16:33.000Z</time>
      </trkpt>
      <trkpt lat="49.81473" lon="4.78628">
        <ele>174</ele>
        <time>2022-09-28T07:16:34.000Z</time>
      </trkpt>
      <trkpt lat="49.81474" lon="4.78618">
        <ele>174</ele>
        <time>2022-09-28T07:16:35.000Z</time>
      </trkpt>
      <trkpt lat="49.81475" lon="4.78607">
        <ele>173</ele>
        <time>2022-09-28T07:16:36.000Z</time>
      </trkpt>
      <trkpt lat="49.81478" lon="4.78597">
        <ele>173</ele>
        <time>2022-09-28T07:16:37.000Z</time>
      </trkpt>
      <trkpt lat="49.81481" lon="4.78588">
        <ele>173</ele>
        <time>2022-09-28T07:16:38.000Z</time>
      </trkpt>
      <trkpt lat="49.81483" lon="4.7858">
        <ele>172</ele>
        <time>2022-09-28T07:16:39.000Z</time>
      </trkpt>
      <trkpt lat="49.81487" lon="4.78572">
        <ele>172</ele>
        <time>2022-09-28T07:16:40.000Z</time>
      </trkpt>
      <trkpt lat="49.81491" lon="4.78564">
        <ele>172</ele>
        <time>2022-09-28T07:16:41.000Z</time>
      </trkpt>
      <trkpt lat="49.81494" lon="4.78556">
        <ele>171</ele>
        <time>2022-09-28T07:16:42.000Z</time>
      </trkpt>
      <trkpt lat="49.81498" lon="4.78548">
        <ele>171</ele>
        <time>2022-09-28T07:16:43.000Z</time>
      </trkpt>
      <trkpt lat="49.81502" lon="4.78541">
        <ele>171</ele>
        <time>2022-09-28T07:16:44.000Z</time>
      </trkpt>
      <trkpt lat="49.81508" lon="4.78534">
        <ele>170</ele>
        <time>2022-09-28T07:16:45.000Z</time>
      </trkpt>
      <trkpt lat="49.81513" lon="4.78527">
        <ele>170</ele>
        <time>2022-09-28T07:16:46.000Z</time>
      </trkpt>
      <trkpt lat="49.81518" lon="4.7852">
        <ele>170</ele>
        <time>2022-09-28T07:16:47.000Z</time>
      </trkpt>
      <trkpt lat="49.81522" lon="4.78513">
        <ele>169</ele>
        <time>2022-09-28T07:16:48.000Z</time>
      </trkpt>
      <trkpt lat="49.81526" lon="4.78506">
        <ele>169</ele>
        <time>2022-09-28T07:16:49.000Z</time>
      </trkpt>
      <trkpt lat="49.8153" lon="4.78499">
        <ele>169</ele>
        <time>2022-09-28T07:16:50.000Z</time>
      </trkpt>
      <trkpt lat="49.81533" lon="4.78493">
        <ele>169</ele>
        <time>2022-09-28T07:16:51.000Z</time>
      </trkpt>
      <trkpt lat="49.81536" lon="4.78487">
        <ele>169</ele>
        <time>2022-09-28T07:16:52.000Z</time>
      </trkpt>
      <trkpt lat="49.81538" lon="4.78479">
        <ele>169</ele>
        <time>2022-09-28T07:16:53.000Z</time>
      </trkpt>
      <trkpt lat="49.81539" lon="4.7847">
        <ele>169</ele>
        <time>2022-09-28T07:16:54.000Z</time>
      </trkpt>
      <trkpt lat="49.8154" lon="4.78461">
        <ele>168</ele>
        <time>2022-09-28T07:16:55.000Z</time>
      </trkpt>
      <trkpt lat="49.8154" lon="4.78451">
        <ele>168</ele>
        <time>2022-09-28T07:16:56.000Z</time>
      </trkpt>
      <trkpt lat="49.81541" lon="4.78442">
        <ele>168</ele>
        <time>2022-09-28T07:16:57.000Z</time>
      </trkpt>
      <trkpt lat="49.81541" lon="4.78432">
        <ele>168</ele>
        <time>2022-09-28T07:16:58.000Z</time>
      </trkpt>
      <trkpt lat="49.8154" lon="4.78423">
        <ele>168</ele>
        <time>2022-09-28T07:16:59.000Z</time>
      </trkpt>
      <trkpt lat="49.8154" lon="4.78413">
        <ele>168</ele>
        <time>2022-09-28T07:17:00.000Z</time>
      </trkpt>
      <trkpt lat="49.81541" lon="4.78404">
        <ele>168</ele>
        <time>2022-09-28T07:17:01.000Z</time>
      </trkpt>
      <trkpt lat="49.81541" lon="4.78395">
        <ele>168</ele>
        <time>2022-09-28T07:17:02.000Z</time>
      </trkpt>
      <trkpt lat="49.81542" lon="4.78387">
        <ele>168</ele>
        <time>2022-09-28T07:17:03.000Z</time>
      </trkpt>
      <trkpt lat="49.81542" lon="4.78378">
        <ele>168</ele>
        <time>2022-09-28T07:17:04.000Z</time>
      </trkpt>
      <trkpt lat="49.81543" lon="4.7837">
        <ele>168</ele>
        <time>2022-09-28T07:17:05.000Z</time>
      </trkpt>
      <trkpt lat="49.81544" lon="4.78362">
        <ele>168</ele>
        <time>2022-09-28T07:17:06.000Z</time>
      </trkpt>
      <trkpt lat="49.81545" lon="4.78354">
        <ele>168</ele>
        <time>2022-09-28T07:17:07.000Z</time>
      </trkpt>
      <trkpt lat="49.81548" lon="4.78347">
        <ele>168</ele>
        <time>2022-09-28T07:17:08.000Z</time>
      </trkpt>
      <trkpt lat="49.81551" lon="4.78342">
        <ele>168</ele>
        <time>2022-09-28T07:17:09.000Z</time>
      </trkpt>
      <trkpt lat="49.81553" lon="4.78337">
        <ele>168</ele>
        <time>2022-09-28T07:17:10.000Z</time>
      </trkpt>
      <trkpt lat="49.81556" lon="4.78333">
        <ele>168</ele>
        <time>2022-09-28T07:17:11.000Z</time>
      </trkpt>
      <trkpt lat="49.81558" lon="4.78329">
        <ele>168</ele>
        <time>2022-09-28T07:17:12.000Z</time>
      </trkpt>
      <trkpt lat="49.81561" lon="4.78325">
        <ele>168</ele>
        <time>2022-09-28T07:17:13.000Z</time>
      </trkpt>
      <trkpt lat="49.81564" lon="4.78321">
        <ele>168</ele>
        <time>2022-09-28T07:17:14.000Z</time>
      </trkpt>
      <trkpt lat="49.81566" lon="4.78316">
        <ele>168</ele>
        <time>2022-09-28T07:17:15.000Z</time>
      </trkpt>
      <trkpt lat="49.81568" lon="4.78311">
        <ele>168</ele>
        <time>2022-09-28T07:17:16.000Z</time>
      </trkpt>
      <trkpt lat="49.8157" lon="4.78305">
        <ele>167</ele>
        <time>2022-09-28T07:17:17.000Z</time>
      </trkpt>
      <trkpt lat="49.81571" lon="4.783">
        <ele>167</ele>
        <time>2022-09-28T07:17:18.000Z</time>
      </trkpt>
      <trkpt lat="49.81572" lon="4.78294">
        <ele>167</ele>
        <time>2022-09-28T07:17:19.000Z</time>
      </trkpt>
      <trkpt lat="49.81574" lon="4.78289">
        <ele>167</ele>
        <time>2022-09-28T07:17:20.000Z</time>
      </trkpt>
      <trkpt lat="49.81576" lon="4.78285">
        <ele>167</ele>
        <time>2022-09-28T07:17:21.000Z</time>
      </trkpt>
      <trkpt lat="49.81578" lon="4.78284">
        <ele>167</ele>
        <time>2022-09-28T07:17:22.000Z</time>
      </trkpt>
      <trkpt lat="49.81579" lon="4.78285">
        <ele>167</ele>
        <time>2022-09-28T07:17:23.000Z</time>
      </trkpt>
      <trkpt lat="49.81581" lon="4.78287">
        <ele>167</ele>
        <time>2022-09-28T07:17:24.000Z</time>
      </trkpt>
      <trkpt lat="49.81583" lon="4.7829">
        <ele>167</ele>
        <time>2022-09-28T07:17:25.000Z</time>
      </trkpt>
      <trkpt lat="49.81584" lon="4.78293">
        <ele>167</ele>
        <time>2022-09-28T07:17:26.000Z</time>
      </trkpt>
      <trkpt lat="49.81585" lon="4.78296">
        <ele>167</ele>
        <time>2022-09-28T07:17:27.000Z</time>
      </trkpt>
      <trkpt lat="49.81586" lon="4.783">
        <ele>167</ele>
        <time>2022-09-28T07:17:28.000Z</time>
      </trkpt>
      <trkpt lat="49.81586" lon="4.78303">
        <ele>167</ele>
        <time>2022-09-28T07:17:29.000Z</time>
      </trkpt>
      <trkpt lat="49.81587" lon="4.78307">
        <ele>167</ele>
        <time>2022-09-28T07:17:30.000Z</time>
      </trkpt>
      <trkpt lat="49.81586" lon="4.78309">
        <ele>168</ele>
        <time>2022-09-28T07:17:31.000Z</time>
      </trkpt>
      <trkpt lat="49.81585" lon="4.7831">
        <ele>168</ele>
        <time>2022-09-28T07:17:32.000Z</time>
      </trkpt>
      <trkpt lat="49.81583" lon="4.78311">
        <ele>168</ele>
        <time>2022-09-28T07:17:33.000Z</time>
      </trkpt>
      <trkpt lat="49.8158" lon="4.78311">
        <ele>168</ele>
        <time>2022-09-28T07:17:34.000Z</time>
      </trkpt>
      <trkpt lat="49.81578" lon="4.78312">
        <ele>168</ele>
        <time>2022-09-28T07:17:35.000Z</time>
      </trkpt>
      <trkpt lat="49.81577" lon="4.78313">
        <ele>168</ele>
        <time>2022-09-28T07:17:36.000Z</time>
      </trkpt>
      <trkpt lat="49.81574" lon="4.78315">
        <ele>168</ele>
        <time>2022-09-28T07:17:37.000Z</time>
      </trkpt>
      <trkpt lat="49.81571" lon="4.78316">
        <ele>168</ele>
        <time>2022-09-28T07:17:38.000Z</time>
      </trkpt>
      <trkpt lat="49.81568" lon="4.78319">
        <ele>168</ele>
        <time>2022-09-28T07:17:39.000Z</time>
      </trkpt>
      <trkpt lat="49.81567" lon="4.78322">
        <ele>168</ele>
        <time>2022-09-28T07:17:40.000Z</time>
      </trkpt>
      <trkpt lat="49.81567" lon="4.78323">
        <ele>168</ele>
        <time>2022-09-28T07:17:41.000Z</time>
      </trkpt>
      <trkpt lat="49.81568" lon="4.78323">
        <ele>168</ele>
        <time>2022-09-28T07:17:42.000Z</time>
      </trkpt>
      <trkpt lat="49.81569" lon="4.78321">
        <ele>168</ele>
        <time>2022-09-28T07:17:43.000Z</time>
      </trkpt>
      <trkpt lat="49.81569" lon="4.78318">
        <ele>168</ele>
        <time>2022-09-28T07:17:44.000Z</time>
      </trkpt>
      <trkpt lat="49.8157" lon="4.78316">
        <ele>167</ele>
        <time>2022-09-28T07:17:45.000Z</time>
      </trkpt>
      <trkpt lat="49.8157" lon="4.78313">
        <ele>167</ele>
        <time>2022-09-28T07:17:46.000Z</time>
      </trkpt>
      <trkpt lat="49.8157" lon="4.78309">
        <ele>167</ele>
        <time>2022-09-28T07:17:47.000Z</time>
      </trkpt>
      <trkpt lat="49.81571" lon="4.78305">
        <ele>167</ele>
        <time>2022-09-28T07:17:48.000Z</time>
      </trkpt>
      <trkpt lat="49.81572" lon="4.783">
        <ele>167</ele>
        <time>2022-09-28T07:17:49.000Z</time>
      </trkpt>
      <trkpt lat="49.81573" lon="4.78296">
        <ele>167</ele>
        <time>2022-09-28T07:17:50.000Z</time>
      </trkpt>
      <trkpt lat="49.81574" lon="4.78291">
        <ele>167</ele>
        <time>2022-09-28T07:17:51.000Z</time>
      </trkpt>
      <trkpt lat="49.81576" lon="4.78287">
        <ele>167</ele>
        <time>2022-09-28T07:17:52.000Z</time>
      </trkpt>
      <trkpt lat="49.81577" lon="4.78283">
        <ele>167</ele>
        <time>2022-09-28T07:17:53.000Z</time>
      </trkpt>
      <trkpt lat="49.81579" lon="4.78282">
        <ele>167</ele>
        <time>2022-09-28T07:17:54.000Z</time>
      </trkpt>
      <trkpt lat="49.81582" lon="4.78282">
        <ele>167</ele>
        <time>2022-09-28T07:17:55.000Z</time>
      </trkpt>
      <trkpt lat="49.81584" lon="4.78283">
        <ele>167</ele>
        <time>2022-09-28T07:17:56.000Z</time>
      </trkpt>
      <trkpt lat="49.81586" lon="4.78286">
        <ele>167</ele>
        <time>2022-09-28T07:17:57.000Z</time>
      </trkpt>
      <trkpt lat="49.81587" lon="4.78288">
        <ele>167</ele>
        <time>2022-09-28T07:17:58.000Z</time>
      </trkpt>
      <trkpt lat="49.81588" lon="4.78292">
        <ele>167</ele>
        <time>2022-09-28T07:17:59.000Z</time>
      </trkpt>
      <trkpt lat="49.81588" lon="4.78296">
        <ele>167</ele>
        <time>2022-09-28T07:18:00.000Z</time>
      </trkpt>
      <trkpt lat="49.81588" lon="4.78299">
        <ele>167</ele>
        <time>2022-09-28T07:18:01.000Z</time>
      </trkpt>
      <trkpt lat="49.81588" lon="4.78303">
        <ele>167</ele>
        <time>2022-09-28T07:18:02.000Z</time>
      </trkpt>
      <trkpt lat="49.81587" lon="4.78305">
        <ele>167</ele>
        <time>2022-09-28T07:18:03.000Z</time>
      </trkpt>
      <trkpt lat="49.81586" lon="4.78308">
        <ele>167</ele>
        <time>2022-09-28T07:18:04.000Z</time>
      </trkpt>
      <trkpt lat="49.81584" lon="4.7831">
        <ele>167</ele>
        <time>2022-09-28T07:18:05.000Z</time>
      </trkpt>
      <trkpt lat="49.81583" lon="4.78311">
        <ele>167</ele>
        <time>2022-09-28T07:18:06.000Z</time>
      </trkpt>
      <trkpt lat="49.81581" lon="4.78312">
        <ele>167</ele>
        <time>2022-09-28T07:18:07.000Z</time>
      </trkpt>
      <trkpt lat="49.81579" lon="4.78313">
        <ele>167</ele>
        <time>2022-09-28T07:18:08.000Z</time>
      </trkpt>
      <trkpt lat="49.81577" lon="4.78315">
        <ele>167</ele>
        <time>2022-09-28T07:18:09.000Z</time>
      </trkpt>
      <trkpt lat="49.81574" lon="4.78316">
        <ele>167</ele>
        <time>2022-09-28T07:18:10.000Z</time>
      </trkpt>
      <trkpt lat="49.81571" lon="4.78319">
        <ele>167</ele>
        <time>2022-09-28T07:18:11.000Z</time>
      </trkpt>
      <trkpt lat="49.81568" lon="4.78321">
        <ele>167</ele>
        <time>2022-09-28T07:18:12.000Z</time>
      </trkpt>
      <trkpt lat="49.81567" lon="4.78324">
        <ele>167</ele>
        <time>2022-09-28T07:18:13.000Z</time>
      </trkpt>
      <trkpt lat="49.81568" lon="4.78325">
        <ele>167</ele>
        <time>2022-09-28T07:18:14.000Z</time>
      </trkpt>
      <trkpt lat="49.81569" lon="4.78325">
        <ele>167</ele>
        <time>2022-09-28T07:18:15.000Z</time>
      </trkpt>
      <trkpt lat="49.8157" lon="4.78324">
        <ele>167</ele>
        <time>2022-09-28T07:18:16.000Z</time>
      </trkpt>
      <trkpt lat="49.81571" lon="4.78322">
        <ele>167</ele>
        <time>2022-09-28T07:18:17.000Z</time>
      </trkpt>
      <trkpt lat="49.81572" lon="4.78319">
        <ele>167</ele>
        <time>2022-09-28T07:18:18.000Z</time>
      </trkpt>
      <trkpt lat="49.81572" lon="4.78315">
        <ele>167</ele>
        <time>2022-09-28T07:18:19.000Z</time>
      </trkpt>
      <trkpt lat="49.81573" lon="4.7831">
        <ele>167</ele>
        <time>2022-09-28T07:18:20.000Z</time>
      </trkpt>
      <trkpt lat="49.81574" lon="4.78306">
        <ele>167</ele>
        <time>2022-09-28T07:18:21.000Z</time>
      </trkpt>
      <trkpt lat="49.81575" lon="4.783">
        <ele>167</ele>
        <time>2022-09-28T07:18:22.000Z</time>
      </trkpt>
      <trkpt lat="49.81576" lon="4.78296">
        <ele>167</ele>
        <time>2022-09-28T07:18:23.000Z</time>
      </trkpt>
      <trkpt lat="49.81577" lon="4.78291">
        <ele>167</ele>
        <time>2022-09-28T07:18:24.000Z</time>
      </trkpt>
      <trkpt lat="49.81578" lon="4.78288">
        <ele>167</ele>
        <time>2022-09-28T07:18:25.000Z</time>
      </trkpt>
      <trkpt lat="49.81581" lon="4.78287">
        <ele>167</ele>
        <time>2022-09-28T07:18:26.000Z</time>
      </trkpt>
      <trkpt lat="49.81583" lon="4.78287">
        <ele>167</ele>
        <time>2022-09-28T07:18:27.000Z</time>
      </trkpt>
      <trkpt lat="49.81584" lon="4.78288">
        <ele>167</ele>
        <time>2022-09-28T07:18:28.000Z</time>
      </trkpt>
      <trkpt lat="49.81586" lon="4.78291">
        <ele>167</ele>
        <time>2022-09-28T07:18:29.000Z</time>
      </trkpt>
      <trkpt lat="49.81587" lon="4.78294">
        <ele>167</ele>
        <time>2022-09-28T07:18:30.000Z</time>
      </trkpt>
      <trkpt lat="49.81588" lon="4.78296">
        <ele>167</ele>
        <time>2022-09-28T07:18:31.000Z</time>
      </trkpt>
      <trkpt lat="49.81588" lon="4.78299">
        <ele>168</ele>
        <time>2022-09-28T07:18:32.000Z</time>
      </trkpt>
      <trkpt lat="49.81588" lon="4.78303">
        <ele>168</ele>
        <time>2022-09-28T07:18:33.000Z</time>
      </trkpt>
      <trkpt lat="49.81588" lon="4.78306">
        <ele>168</ele>
        <time>2022-09-28T07:18:34.000Z</time>
      </trkpt>
      <trkpt lat="49.81587" lon="4.78309">
        <ele>168</ele>
        <time>2022-09-28T07:18:35.000Z</time>
      </trkpt>
      <trkpt lat="49.81585" lon="4.7831">
        <ele>168</ele>
        <time>2022-09-28T07:18:36.000Z</time>
      </trkpt>
      <trkpt lat="49.81584" lon="4.78311">
        <ele>169</ele>
        <time>2022-09-28T07:18:37.000Z</time>
      </trkpt>
      <trkpt lat="49.81582" lon="4.78312">
        <ele>169</ele>
        <time>2022-09-28T07:18:38.000Z</time>
      </trkpt>
      <trkpt lat="49.8158" lon="4.78313">
        <ele>169</ele>
        <time>2022-09-28T07:18:39.000Z</time>
      </trkpt>
      <trkpt lat="49.81577" lon="4.78315">
        <ele>169</ele>
        <time>2022-09-28T07:18:40.000Z</time>
      </trkpt>
      <trkpt lat="49.81575" lon="4.78316">
        <ele>169</ele>
        <time>2022-09-28T07:18:41.000Z</time>
      </trkpt>
      <trkpt lat="49.81573" lon="4.78316">
        <ele>169</ele>
        <time>2022-09-28T07:18:42.000Z</time>
      </trkpt>
      <trkpt lat="49.81569" lon="4.78318">
        <ele>169</ele>
        <time>2022-09-28T07:18:43.000Z</time>
      </trkpt>
      <trkpt lat="49.81568" lon="4.7832">
        <ele>169</ele>
        <time>2022-09-28T07:18:44.000Z</time>
      </trkpt>
      <trkpt lat="49.81567" lon="4.78322">
        <ele>169</ele>
        <time>2022-09-28T07:18:45.000Z</time>
      </trkpt>
      <trkpt lat="49.81568" lon="4.78323">
        <ele>169</ele>
        <time>2022-09-28T07:18:46.000Z</time>
      </trkpt>
      <trkpt lat="49.81569" lon="4.78323">
        <ele>169</ele>
        <time>2022-09-28T07:18:47.000Z</time>
      </trkpt>
      <trkpt lat="49.8157" lon="4.78321">
        <ele>169</ele>
        <time>2022-09-28T07:18:48.000Z</time>
      </trkpt>
      <trkpt lat="49.81571" lon="4.78319">
        <ele>169</ele>
        <time>2022-09-28T07:18:49.000Z</time>
      </trkpt>
      <trkpt lat="49.81572" lon="4.78316">
        <ele>169</ele>
        <time>2022-09-28T07:18:50.000Z</time>
      </trkpt>
      <trkpt lat="49.81572" lon="4.78311">
        <ele>169</ele>
        <time>2022-09-28T07:18:51.000Z</time>
      </trkpt>
      <trkpt lat="49.81573" lon="4.78307">
        <ele>169</ele>
        <time>2022-09-28T07:18:52.000Z</time>
      </trkpt>
      <trkpt lat="49.81574" lon="4.78302">
        <ele>169</ele>
        <time>2022-09-28T07:18:53.000Z</time>
      </trkpt>
      <trkpt lat="49.81576" lon="4.78297">
        <ele>169</ele>
        <time>2022-09-28T07:18:54.000Z</time>
      </trkpt>
      <trkpt lat="49.81576" lon="4.78292">
        <ele>168</ele>
        <time>2022-09-28T07:18:55.000Z</time>
      </trkpt>
      <trkpt lat="49.81578" lon="4.78289">
        <ele>168</ele>
        <time>2022-09-28T07:18:56.000Z</time>
      </trkpt>
      <trkpt lat="49.81579" lon="4.78286">
        <ele>168</ele>
        <time>2022-09-28T07:18:57.000Z</time>
      </trkpt>
      <trkpt lat="49.81582" lon="4.78285">
        <ele>168</ele>
        <time>2022-09-28T07:18:58.000Z</time>
      </trkpt>
      <trkpt lat="49.81584" lon="4.78285">
        <ele>168</ele>
        <time>2022-09-28T07:18:59.000Z</time>
      </trkpt>
      <trkpt lat="49.81586" lon="4.78286">
        <ele>168</ele>
        <time>2022-09-28T07:19:00.000Z</time>
      </trkpt>
      <trkpt lat="49.81587" lon="4.78289">
        <ele>168</ele>
        <time>2022-09-28T07:19:01.000Z</time>
      </trkpt>
      <trkpt lat="49.81589" lon="4.78291">
        <ele>168</ele>
        <time>2022-09-28T07:19:02.000Z</time>
      </trkpt>
      <trkpt lat="49.81589" lon="4.78294">
        <ele>168</ele>
        <time>2022-09-28T07:19:03.000Z</time>
      </trkpt>
      <trkpt lat="49.81588" lon="4.78297">
        <ele>168</ele>
        <time>2022-09-28T07:19:04.000Z</time>
      </trkpt>
      <trkpt lat="49.81587" lon="4.783">
        <ele>168</ele>
        <time>2022-09-28T07:19:05.000Z</time>
      </trkpt>
      <trkpt lat="49.81586" lon="4.78302">
        <ele>168</ele>
        <time>2022-09-28T07:19:06.000Z</time>
      </trkpt>
      <trkpt lat="49.81585" lon="4.78305">
        <ele>168</ele>
        <time>2022-09-28T07:19:07.000Z</time>
      </trkpt>
      <trkpt lat="49.81583" lon="4.78308">
        <ele>168</ele>
        <time>2022-09-28T07:19:08.000Z</time>
      </trkpt>
      <trkpt lat="49.81582" lon="4.7831">
        <ele>168</ele>
        <time>2022-09-28T07:19:09.000Z</time>
      </trkpt>
      <trkpt lat="49.81582" lon="4.78311">
        <ele>168</ele>
        <time>2022-09-28T07:19:10.000Z</time>
      </trkpt>
      <trkpt lat="49.81582" lon="4.78311">
        <ele>168</ele>
        <time>2022-09-28T07:19:11.000Z</time>
      </trkpt>
      <trkpt lat="49.81582" lon="4.78311">
        <ele>168</ele>
        <time>2022-09-28T07:19:12.000Z</time>
      </trkpt>
      <trkpt lat="49.81582" lon="4.78311">
        <ele>168</ele>
        <time>2022-09-28T07:19:13.000Z</time>
      </trkpt>
      <trkpt lat="49.81581" lon="4.78312">
        <ele>168</ele>
        <time>2022-09-28T07:19:14.000Z</time>
      </trkpt>
      <trkpt lat="49.81581" lon="4.78312">
        <ele>168</ele>
        <time>2022-09-28T07:19:15.000Z</time>
      </trkpt>
      <trkpt lat="49.81581" lon="4.78312">
        <ele>168</ele>
        <time>2022-09-28T07:19:16.000Z</time>
      </trkpt>
      <trkpt lat="49.8158" lon="4.78312">
        <ele>169</ele>
        <time>2022-09-28T07:19:17.000Z</time>
      </trkpt>
      <trkpt lat="49.8158" lon="4.78313">
        <ele>169</ele>
        <time>2022-09-28T07:19:18.000Z</time>
      </trkpt>
      <trkpt lat="49.81579" lon="4.78314">
        <ele>169</ele>
        <time>2022-09-28T07:19:19.000Z</time>
      </trkpt>
      <trkpt lat="49.81578" lon="4.78314">
        <ele>169</ele>
        <time>2022-09-28T07:19:20.000Z</time>
      </trkpt>
      <trkpt lat="49.81577" lon="4.78314">
        <ele>169</ele>
        <time>2022-09-28T07:19:21.000Z</time>
      </trkpt>
      <trkpt lat="49.81577" lon="4.78315">
        <ele>169</ele>
        <time>2022-09-28T07:19:22.000Z</time>
      </trkpt>
      <trkpt lat="49.81577" lon="4.78315">
        <ele>169</ele>
        <time>2022-09-28T07:19:23.000Z</time>
      </trkpt>
      <trkpt lat="49.81577" lon="4.78315">
        <ele>169</ele>
        <time>2022-09-28T07:19:24.000Z</time>
      </trkpt>
      <trkpt lat="49.81577" lon="4.78316">
        <ele>169</ele>
        <time>2022-09-28T07:19:25.000Z</time>
      </trkpt>
      <trkpt lat="49.81577" lon="4.78316">
        <ele>169</ele>
        <time>2022-09-28T07:19:26.000Z</time>
      </trkpt>
      <trkpt lat="49.81576" lon="4.78316">
        <ele>170</ele>
        <time>2022-09-28T07:19:27.000Z</time>
      </trkpt>
      <trkpt lat="49.81576" lon="4.78316">
        <ele>170</ele>
        <time>2022-09-28T07:19:28.000Z</time>
      </trkpt>
      <trkpt lat="49.81576" lon="4.78316">
        <ele>170</ele>
        <time>2022-09-28T07:19:29.000Z</time>
      </trkpt>
      <trkpt lat="49.81576" lon="4.78315">
        <ele>170</ele>
        <time>2022-09-28T07:19:30.000Z</time>
      </trkpt>
      <trkpt lat="49.81576" lon="4.78314">
        <ele>170</ele>
        <time>2022-09-28T07:19:31.000Z</time>
      </trkpt>
      <trkpt lat="49.81576" lon="4.78313">
        <ele>170</ele>
        <time>2022-09-28T07:19:32.000Z</time>
      </trkpt>
      <trkpt lat="49.81576" lon="4.78313">
        <ele>170</ele>
        <time>2022-09-28T07:19:33.000Z</time>
      </trkpt>
      <trkpt lat="49.81578" lon="4.78313">
        <ele>170</ele>
        <time>2022-09-28T07:19:34.000Z</time>
      </trkpt>
      <trkpt lat="49.81578" lon="4.78313">
        <ele>170</ele>
        <time>2022-09-28T07:19:35.000Z</time>
      </trkpt>
      <trkpt lat="49.81579" lon="4.78313">
        <ele>170</ele>
        <time>2022-09-28T07:19:36.000Z</time>
      </trkpt>
      <trkpt lat="49.81579" lon="4.78313">
        <ele>170</ele>
        <time>2022-09-28T07:19:37.000Z</time>
      </trkpt>
      <trkpt lat="49.8158" lon="4.78313">
        <ele>170</ele>
        <time>2022-09-28T07:19:38.000Z</time>
      </trkpt>
      <trkpt lat="49.81582" lon="4.78313">
        <ele>170</ele>
        <time>2022-09-28T07:19:39.000Z</time>
      </trkpt>
      <trkpt lat="49.81584" lon="4.78315">
        <ele>170</ele>
        <time>2022-09-28T07:19:40.000Z</time>
      </trkpt>
      <trkpt lat="49.81587" lon="4.78317">
        <ele>170</ele>
        <time>2022-09-28T07:19:41.000Z</time>
      </trkpt>
      <trkpt lat="49.81589" lon="4.7832">
        <ele>170</ele>
        <time>2022-09-28T07:19:42.000Z</time>
      </trkpt>
      <trkpt lat="49.81591" lon="4.78324">
        <ele>170</ele>
        <time>2022-09-28T07:19:43.000Z</time>
      </trkpt>
      <trkpt lat="49.81593" lon="4.78327">
        <ele>170</ele>
        <time>2022-09-28T07:19:44.000Z</time>
      </trkpt>
      <trkpt lat="49.81595" lon="4.78331">
        <ele>170</ele>
        <time>2022-09-28T07:19:45.000Z</time>
      </trkpt>
      <trkpt lat="49.81597" lon="4.78336">
        <ele>170</ele>
        <time>2022-09-28T07:19:46.000Z</time>
      </trkpt>
      <trkpt lat="49.81599" lon="4.7834">
        <ele>170</ele>
        <time>2022-09-28T07:19:47.000Z</time>
      </trkpt>
      <trkpt lat="49.81602" lon="4.78345">
        <ele>170</ele>
        <time>2022-09-28T07:19:48.000Z</time>
      </trkpt>
      <trkpt lat="49.81604" lon="4.7835">
        <ele>169</ele>
        <time>2022-09-28T07:19:49.000Z</time>
      </trkpt>
      <trkpt lat="49.81607" lon="4.78355">
        <ele>169</ele>
        <time>2022-09-28T07:19:50.000Z</time>
      </trkpt>
      <trkpt lat="49.8161" lon="4.78361">
        <ele>169</ele>
        <time>2022-09-28T07:19:51.000Z</time>
      </trkpt>
      <trkpt lat="49.81614" lon="4.78367">
        <ele>169</ele>
        <time>2022-09-28T07:19:52.000Z</time>
      </trkpt>
      <trkpt lat="49.81617" lon="4.78373">
        <ele>169</ele>
        <time>2022-09-28T07:19:53.000Z</time>
      </trkpt>
      <trkpt lat="49.8162" lon="4.78379">
        <ele>169</ele>
        <time>2022-09-28T07:19:54.000Z</time>
      </trkpt>
      <trkpt lat="49.81623" lon="4.78385">
        <ele>169</ele>
        <time>2022-09-28T07:19:55.000Z</time>
      </trkpt>
      <trkpt lat="49.81626" lon="4.7839">
        <ele>169</ele>
        <time>2022-09-28T07:19:56.000Z</time>
      </trkpt>
      <trkpt lat="49.81629" lon="4.78396">
        <ele>169</ele>
        <time>2022-09-28T07:19:57.000Z</time>
      </trkpt>
      <trkpt lat="49.81633" lon="4.78402">
        <ele>169</ele>
        <time>2022-09-28T07:19:58.000Z</time>
      </trkpt>
      <trkpt lat="49.81636" lon="4.78407">
        <ele>169</ele>
        <time>2022-09-28T07:19:59.000Z</time>
      </trkpt>
      <trkpt lat="49.8164" lon="4.78412">
        <ele>169</ele>
        <time>2022-09-28T07:20:00.000Z</time>
      </trkpt>
      <trkpt lat="49.81644" lon="4.78417">
        <ele>170</ele>
        <time>2022-09-28T07:20:01.000Z</time>
      </trkpt>
      <trkpt lat="49.81647" lon="4.78422">
        <ele>170</ele>
        <time>2022-09-28T07:20:02.000Z</time>
      </trkpt>
      <trkpt lat="49.81652" lon="4.78427">
        <ele>170</ele>
        <time>2022-09-28T07:20:03.000Z</time>
      </trkpt>
      <trkpt lat="49.81656" lon="4.78431">
        <ele>170</ele>
        <time>2022-09-28T07:20:04.000Z</time>
      </trkpt>
      <trkpt lat="49.8166" lon="4.78435">
        <ele>170</ele>
        <time>2022-09-28T07:20:05.000Z</time>
      </trkpt>
      <trkpt lat="49.81665" lon="4.78439">
        <ele>170</ele>
        <time>2022-09-28T07:20:06.000Z</time>
      </trkpt>
      <trkpt lat="49.8167" lon="4.78443">
        <ele>170</ele>
        <time>2022-09-28T07:20:07.000Z</time>
      </trkpt>
      <trkpt lat="49.81674" lon="4.78448">
        <ele>170</ele>
        <time>2022-09-28T07:20:08.000Z</time>
      </trkpt>
      <trkpt lat="49.81679" lon="4.78452">
        <ele>170</ele>
        <time>2022-09-28T07:20:09.000Z</time>
      </trkpt>
      <trkpt lat="49.81683" lon="4.78456">
        <ele>169</ele>
        <time>2022-09-28T07:20:10.000Z</time>
      </trkpt>
      <trkpt lat="49.81687" lon="4.7846">
        <ele>169</ele>
        <time>2022-09-28T07:20:11.000Z</time>
      </trkpt>
      <trkpt lat="49.81691" lon="4.78464">
        <ele>170</ele>
        <time>2022-09-28T07:20:12.000Z</time>
      </trkpt>
      <trkpt lat="49.81695" lon="4.78469">
        <ele>170</ele>
        <time>2022-09-28T07:20:13.000Z</time>
      </trkpt>
      <trkpt lat="49.81699" lon="4.78473">
        <ele>170</ele>
        <time>2022-09-28T07:20:14.000Z</time>
      </trkpt>
      <trkpt lat="49.81703" lon="4.78478">
        <ele>170</ele>
        <time>2022-09-28T07:20:15.000Z</time>
      </trkpt>
      <trkpt lat="49.81707" lon="4.78483">
        <ele>170</ele>
        <time>2022-09-28T07:20:16.000Z</time>
      </trkpt>
      <trkpt lat="49.81711" lon="4.78487">
        <ele>170</ele>
        <time>2022-09-28T07:20:17.000Z</time>
      </trkpt>
      <trkpt lat="49.81715" lon="4.78492">
        <ele>170</ele>
        <time>2022-09-28T07:20:18.000Z</time>
      </trkpt>
      <trkpt lat="49.8172" lon="4.78496">
        <ele>170</ele>
        <time>2022-09-28T07:20:19.000Z</time>
      </trkpt>
      <trkpt lat="49.81724" lon="4.78499">
        <ele>170</ele>
        <time>2022-09-28T07:20:20.000Z</time>
      </trkpt>
      <trkpt lat="49.81728" lon="4.78503">
        <ele>170</ele>
        <time>2022-09-28T07:20:21.000Z</time>
      </trkpt>
      <trkpt lat="49.81732" lon="4.78506">
        <ele>171</ele>
        <time>2022-09-28T07:20:22.000Z</time>
      </trkpt>
      <trkpt lat="49.81736" lon="4.78509">
        <ele>171</ele>
        <time>2022-09-28T07:20:23.000Z</time>
      </trkpt>
      <trkpt lat="49.8174" lon="4.78511">
        <ele>171</ele>
        <time>2022-09-28T07:20:24.000Z</time>
      </trkpt>
      <trkpt lat="49.81743" lon="4.78514">
        <ele>171</ele>
        <time>2022-09-28T07:20:25.000Z</time>
      </trkpt>
      <trkpt lat="49.81747" lon="4.78516">
        <ele>171</ele>
        <time>2022-09-28T07:20:26.000Z</time>
      </trkpt>
      <trkpt lat="49.8175" lon="4.78518">
        <ele>171</ele>
        <time>2022-09-28T07:20:27.000Z</time>
      </trkpt>
      <trkpt lat="49.81753" lon="4.7852">
        <ele>171</ele>
        <time>2022-09-28T07:20:28.000Z</time>
      </trkpt>
      <trkpt lat="49.81756" lon="4.78522">
        <ele>171</ele>
        <time>2022-09-28T07:20:29.000Z</time>
      </trkpt>
      <trkpt lat="49.81759" lon="4.78524">
        <ele>171</ele>
        <time>2022-09-28T07:20:30.000Z</time>
      </trkpt>
      <trkpt lat="49.81763" lon="4.78525">
        <ele>171</ele>
        <time>2022-09-28T07:20:31.000Z</time>
      </trkpt>
      <trkpt lat="49.81766" lon="4.78527">
        <ele>172</ele>
        <time>2022-09-28T07:20:32.000Z</time>
      </trkpt>
      <trkpt lat="49.81769" lon="4.7853">
        <ele>172</ele>
        <time>2022-09-28T07:20:33.000Z</time>
      </trkpt>
      <trkpt lat="49.81772" lon="4.78532">
        <ele>172</ele>
        <time>2022-09-28T07:20:34.000Z</time>
      </trkpt>
      <trkpt lat="49.81776" lon="4.78535">
        <ele>172</ele>
        <time>2022-09-28T07:20:35.000Z</time>
      </trkpt>
      <trkpt lat="49.81779" lon="4.78537">
        <ele>173</ele>
        <time>2022-09-28T07:20:36.000Z</time>
      </trkpt>
      <trkpt lat="49.81783" lon="4.78539">
        <ele>173</ele>
        <time>2022-09-28T07:20:37.000Z</time>
      </trkpt>
      <trkpt lat="49.81787" lon="4.78542">
        <ele>173</ele>
        <time>2022-09-28T07:20:38.000Z</time>
      </trkpt>
      <trkpt lat="49.8179" lon="4.78544">
        <ele>173</ele>
        <time>2022-09-28T07:20:39.000Z</time>
      </trkpt>
      <trkpt lat="49.81794" lon="4.78545">
        <ele>174</ele>
        <time>2022-09-28T07:20:40.000Z</time>
      </trkpt>
      <trkpt lat="49.81798" lon="4.78548">
        <ele>174</ele>
        <time>2022-09-28T07:20:41.000Z</time>
      </trkpt>
      <trkpt lat="49.81802" lon="4.78551">
        <ele>174</ele>
        <time>2022-09-28T07:20:42.000Z</time>
      </trkpt>
      <trkpt lat="49.81805" lon="4.78555">
        <ele>174</ele>
        <time>2022-09-28T07:20:43.000Z</time>
      </trkpt>
      <trkpt lat="49.81809" lon="4.78558">
        <ele>175</ele>
        <time>2022-09-28T07:20:44.000Z</time>
      </trkpt>
      <trkpt lat="49.81812" lon="4.78562">
        <ele>175</ele>
        <time>2022-09-28T07:20:45.000Z</time>
      </trkpt>
      <trkpt lat="49.81816" lon="4.78565">
        <ele>175</ele>
        <time>2022-09-28T07:20:46.000Z</time>
      </trkpt>
      <trkpt lat="49.8182" lon="4.78569">
        <ele>175</ele>
        <time>2022-09-28T07:20:47.000Z</time>
      </trkpt>
      <trkpt lat="49.81824" lon="4.78572">
        <ele>176</ele>
        <time>2022-09-28T07:20:48.000Z</time>
      </trkpt>
      <trkpt lat="49.81827" lon="4.78576">
        <ele>176</ele>
        <time>2022-09-28T07:20:49.000Z</time>
      </trkpt>
      <trkpt lat="49.81831" lon="4.78579">
        <ele>176</ele>
        <time>2022-09-28T07:20:50.000Z</time>
      </trkpt>
      <trkpt lat="49.81834" lon="4.78583">
        <ele>176</ele>
        <time>2022-09-28T07:20:51.000Z</time>
      </trkpt>
      <trkpt lat="49.81837" lon="4.78586">
        <ele>177</ele>
        <time>2022-09-28T07:20:52.000Z</time>
      </trkpt>
      <trkpt lat="49.81841" lon="4.7859">
        <ele>177</ele>
        <time>2022-09-28T07:20:53.000Z</time>
      </trkpt>
      <trkpt lat="49.81844" lon="4.78594">
        <ele>177</ele>
        <time>2022-09-28T07:20:54.000Z</time>
      </trkpt>
      <trkpt lat="49.81847" lon="4.78597">
        <ele>177</ele>
        <time>2022-09-28T07:20:55.000Z</time>
      </trkpt>
      <trkpt lat="49.81851" lon="4.78601">
        <ele>177</ele>
        <time>2022-09-28T07:20:56.000Z</time>
      </trkpt>
      <trkpt lat="49.81855" lon="4.78605">
        <ele>178</ele>
        <time>2022-09-28T07:20:57.000Z</time>
      </trkpt>
      <trkpt lat="49.81858" lon="4.78608">
        <ele>178</ele>
        <time>2022-09-28T07:20:58.000Z</time>
      </trkpt>
      <trkpt lat="49.81861" lon="4.78612">
        <ele>178</ele>
        <time>2022-09-28T07:20:59.000Z</time>
      </trkpt>
      <trkpt lat="49.81865" lon="4.78616">
        <ele>178</ele>
        <time>2022-09-28T07:21:00.000Z</time>
      </trkpt>
      <trkpt lat="49.81868" lon="4.7862">
        <ele>179</ele>
        <time>2022-09-28T07:21:01.000Z</time>
      </trkpt>
      <trkpt lat="49.81871" lon="4.78624">
        <ele>179</ele>
        <time>2022-09-28T07:21:02.000Z</time>
      </trkpt>
      <trkpt lat="49.81874" lon="4.78628">
        <ele>179</ele>
        <time>2022-09-28T07:21:03.000Z</time>
      </trkpt>
      <trkpt lat="49.81878" lon="4.78631">
        <ele>179</ele>
        <time>2022-09-28T07:21:04.000Z</time>
      </trkpt>
      <trkpt lat="49.81881" lon="4.78635">
        <ele>179</ele>
        <time>2022-09-28T07:21:05.000Z</time>
      </trkpt>
      <trkpt lat="49.81885" lon="4.7864">
        <ele>179</ele>
        <time>2022-09-28T07:21:06.000Z</time>
      </trkpt>
      <trkpt lat="49.81888" lon="4.78644">
        <ele>179</ele>
        <time>2022-09-28T07:21:07.000Z</time>
      </trkpt>
      <trkpt lat="49.81892" lon="4.78648">
        <ele>179</ele>
        <time>2022-09-28T07:21:08.000Z</time>
      </trkpt>
      <trkpt lat="49.81895" lon="4.78652">
        <ele>180</ele>
        <time>2022-09-28T07:21:09.000Z</time>
      </trkpt>
      <trkpt lat="49.81899" lon="4.78656">
        <ele>180</ele>
        <time>2022-09-28T07:21:10.000Z</time>
      </trkpt>
      <trkpt lat="49.81903" lon="4.7866">
        <ele>180</ele>
        <time>2022-09-28T07:21:11.000Z</time>
      </trkpt>
      <trkpt lat="49.81906" lon="4.78664">
        <ele>180</ele>
        <time>2022-09-28T07:21:12.000Z</time>
      </trkpt>
      <trkpt lat="49.8191" lon="4.78668">
        <ele>180</ele>
        <time>2022-09-28T07:21:13.000Z</time>
      </trkpt>
      <trkpt lat="49.81913" lon="4.78672">
        <ele>180</ele>
        <time>2022-09-28T07:21:14.000Z</time>
      </trkpt>
      <trkpt lat="49.81917" lon="4.78676">
        <ele>180</ele>
        <time>2022-09-28T07:21:15.000Z</time>
      </trkpt>
      <trkpt lat="49.8192" lon="4.78679">
        <ele>181</ele>
        <time>2022-09-28T07:21:16.000Z</time>
      </trkpt>
      <trkpt lat="49.81924" lon="4.78683">
        <ele>181</ele>
        <time>2022-09-28T07:21:17.000Z</time>
      </trkpt>
      <trkpt lat="49.81928" lon="4.78687">
        <ele>181</ele>
        <time>2022-09-28T07:21:18.000Z</time>
      </trkpt>
      <trkpt lat="49.81932" lon="4.7869">
        <ele>181</ele>
        <time>2022-09-28T07:21:19.000Z</time>
      </trkpt>
      <trkpt lat="49.81936" lon="4.78693">
        <ele>181</ele>
        <time>2022-09-28T07:21:20.000Z</time>
      </trkpt>
      <trkpt lat="49.8194" lon="4.78697">
        <ele>181</ele>
        <time>2022-09-28T07:21:21.000Z</time>
      </trkpt>
      <trkpt lat="49.81943" lon="4.78701">
        <ele>181</ele>
        <time>2022-09-28T07:21:22.000Z</time>
      </trkpt>
      <trkpt lat="49.81947" lon="4.78704">
        <ele>182</ele>
        <time>2022-09-28T07:21:23.000Z</time>
      </trkpt>
      <trkpt lat="49.8195" lon="4.78707">
        <ele>182</ele>
        <time>2022-09-28T07:21:24.000Z</time>
      </trkpt>
      <trkpt lat="49.81954" lon="4.7871">
        <ele>182</ele>
        <time>2022-09-28T07:21:25.000Z</time>
      </trkpt>
      <trkpt lat="49.81957" lon="4.78712">
        <ele>182</ele>
        <time>2022-09-28T07:21:26.000Z</time>
      </trkpt>
      <trkpt lat="49.8196" lon="4.78715">
        <ele>182</ele>
        <time>2022-09-28T07:21:27.000Z</time>
      </trkpt>
      <trkpt lat="49.81963" lon="4.78718">
        <ele>183</ele>
        <time>2022-09-28T07:21:28.000Z</time>
      </trkpt>
      <trkpt lat="49.81967" lon="4.78721">
        <ele>183</ele>
        <time>2022-09-28T07:21:29.000Z</time>
      </trkpt>
      <trkpt lat="49.81971" lon="4.78724">
        <ele>183</ele>
        <time>2022-09-28T07:21:30.000Z</time>
      </trkpt>
      <trkpt lat="49.81975" lon="4.78727">
        <ele>183</ele>
        <time>2022-09-28T07:21:31.000Z</time>
      </trkpt>
      <trkpt lat="49.81979" lon="4.78731">
        <ele>183</ele>
        <time>2022-09-28T07:21:32.000Z</time>
      </trkpt>
      <trkpt lat="49.81982" lon="4.78734">
        <ele>184</ele>
        <time>2022-09-28T07:21:33.000Z</time>
      </trkpt>
      <trkpt lat="49.81986" lon="4.78737">
        <ele>184</ele>
        <time>2022-09-28T07:21:34.000Z</time>
      </trkpt>
      <trkpt lat="49.81989" lon="4.78739">
        <ele>184</ele>
        <time>2022-09-28T07:21:35.000Z</time>
      </trkpt>
      <trkpt lat="49.81992" lon="4.78742">
        <ele>184</ele>
        <time>2022-09-28T07:21:36.000Z</time>
      </trkpt>
      <trkpt lat="49.81996" lon="4.78745">
        <ele>184</ele>
        <time>2022-09-28T07:21:37.000Z</time>
      </trkpt>
      <trkpt lat="49.81999" lon="4.78748">
        <ele>184</ele>
        <time>2022-09-28T07:21:38.000Z</time>
      </trkpt>
      <trkpt lat="49.82003" lon="4.78751">
        <ele>185</ele>
        <time>2022-09-28T07:21:39.000Z</time>
      </trkpt>
      <trkpt lat="49.82007" lon="4.78754">
        <ele>185</ele>
        <time>2022-09-28T07:21:40.000Z</time>
      </trkpt>
      <trkpt lat="49.8201" lon="4.78756">
        <ele>185</ele>
        <time>2022-09-28T07:21:41.000Z</time>
      </trkpt>
      <trkpt lat="49.82014" lon="4.78759">
        <ele>185</ele>
        <time>2022-09-28T07:21:42.000Z</time>
      </trkpt>
      <trkpt lat="49.82018" lon="4.78762">
        <ele>185</ele>
        <time>2022-09-28T07:21:43.000Z</time>
      </trkpt>
      <trkpt lat="49.82022" lon="4.78766">
        <ele>186</ele>
        <time>2022-09-28T07:21:44.000Z</time>
      </trkpt>
      <trkpt lat="49.82025" lon="4.78768">
        <ele>186</ele>
        <time>2022-09-28T07:21:45.000Z</time>
      </trkpt>
      <trkpt lat="49.82029" lon="4.78771">
        <ele>186</ele>
        <time>2022-09-28T07:21:46.000Z</time>
      </trkpt>
      <trkpt lat="49.82033" lon="4.78774">
        <ele>186</ele>
        <time>2022-09-28T07:21:47.000Z</time>
      </trkpt>
      <trkpt lat="49.82036" lon="4.78777">
        <ele>186</ele>
        <time>2022-09-28T07:21:48.000Z</time>
      </trkpt>
      <trkpt lat="49.8204" lon="4.7878">
        <ele>187</ele>
        <time>2022-09-28T07:21:49.000Z</time>
      </trkpt>
      <trkpt lat="49.82044" lon="4.78783">
        <ele>187</ele>
        <time>2022-09-28T07:21:50.000Z</time>
      </trkpt>
      <trkpt lat="49.82048" lon="4.78786">
        <ele>187</ele>
        <time>2022-09-28T07:21:51.000Z</time>
      </trkpt>
      <trkpt lat="49.82052" lon="4.78789">
        <ele>187</ele>
        <time>2022-09-28T07:21:52.000Z</time>
      </trkpt>
      <trkpt lat="49.82056" lon="4.78792">
        <ele>187</ele>
        <time>2022-09-28T07:21:53.000Z</time>
      </trkpt>
      <trkpt lat="49.8206" lon="4.78796">
        <ele>187</ele>
        <time>2022-09-28T07:21:54.000Z</time>
      </trkpt>
      <trkpt lat="49.82063" lon="4.788">
        <ele>187</ele>
        <time>2022-09-28T07:21:55.000Z</time>
      </trkpt>
      <trkpt lat="49.82067" lon="4.78804">
        <ele>187</ele>
        <time>2022-09-28T07:21:56.000Z</time>
      </trkpt>
      <trkpt lat="49.8207" lon="4.78808">
        <ele>187</ele>
        <time>2022-09-28T07:21:57.000Z</time>
      </trkpt>
      <trkpt lat="49.82074" lon="4.78813">
        <ele>187</ele>
        <time>2022-09-28T07:21:58.000Z</time>
      </trkpt>
      <trkpt lat="49.82077" lon="4.78817">
        <ele>188</ele>
        <time>2022-09-28T07:21:59.000Z</time>
      </trkpt>
      <trkpt lat="49.8208" lon="4.78822">
        <ele>188</ele>
        <time>2022-09-28T07:22:00.000Z</time>
      </trkpt>
      <trkpt lat="49.82083" lon="4.78827">
        <ele>188</ele>
        <time>2022-09-28T07:22:01.000Z</time>
      </trkpt>
      <trkpt lat="49.82086" lon="4.78832">
        <ele>188</ele>
        <time>2022-09-28T07:22:02.000Z</time>
      </trkpt>
      <trkpt lat="49.82089" lon="4.78838">
        <ele>188</ele>
        <time>2022-09-28T07:22:03.000Z</time>
      </trkpt>
      <trkpt lat="49.82091" lon="4.78843">
        <ele>188</ele>
        <time>2022-09-28T07:22:04.000Z</time>
      </trkpt>
      <trkpt lat="49.82093" lon="4.78849">
        <ele>188</ele>
        <time>2022-09-28T07:22:05.000Z</time>
      </trkpt>
      <trkpt lat="49.82096" lon="4.78854">
        <ele>188</ele>
        <time>2022-09-28T07:22:06.000Z</time>
      </trkpt>
      <trkpt lat="49.82098" lon="4.78859">
        <ele>188</ele>
        <time>2022-09-28T07:22:07.000Z</time>
      </trkpt>
      <trkpt lat="49.821" lon="4.78865">
        <ele>188</ele>
        <time>2022-09-28T07:22:08.000Z</time>
      </trkpt>
      <trkpt lat="49.82102" lon="4.78871">
        <ele>188</ele>
        <time>2022-09-28T07:22:09.000Z</time>
      </trkpt>
      <trkpt lat="49.82104" lon="4.78877">
        <ele>188</ele>
        <time>2022-09-28T07:22:10.000Z</time>
      </trkpt>
      <trkpt lat="49.82107" lon="4.78883">
        <ele>188</ele>
        <time>2022-09-28T07:22:11.000Z</time>
      </trkpt>
      <trkpt lat="49.82109" lon="4.78889">
        <ele>188</ele>
        <time>2022-09-28T07:22:12.000Z</time>
      </trkpt>
      <trkpt lat="49.82111" lon="4.78894">
        <ele>188</ele>
        <time>2022-09-28T07:22:13.000Z</time>
      </trkpt>
      <trkpt lat="49.82114" lon="4.78899">
        <ele>188</ele>
        <time>2022-09-28T07:22:14.000Z</time>
      </trkpt>
      <trkpt lat="49.82116" lon="4.78904">
        <ele>188</ele>
        <time>2022-09-28T07:22:15.000Z</time>
      </trkpt>
      <trkpt lat="49.82119" lon="4.7891">
        <ele>188</ele>
        <time>2022-09-28T07:22:16.000Z</time>
      </trkpt>
      <trkpt lat="49.82121" lon="4.78914">
        <ele>188</ele>
        <time>2022-09-28T07:22:17.000Z</time>
      </trkpt>
      <trkpt lat="49.82124" lon="4.78919">
        <ele>188</ele>
        <time>2022-09-28T07:22:18.000Z</time>
      </trkpt>
      <trkpt lat="49.82126" lon="4.78923">
        <ele>188</ele>
        <time>2022-09-28T07:22:19.000Z</time>
      </trkpt>
      <trkpt lat="49.82128" lon="4.78927">
        <ele>188</ele>
        <time>2022-09-28T07:22:20.000Z</time>
      </trkpt>
      <trkpt lat="49.82131" lon="4.78931">
        <ele>188</ele>
        <time>2022-09-28T07:22:21.000Z</time>
      </trkpt>
      <trkpt lat="49.82134" lon="4.78935">
        <ele>188</ele>
        <time>2022-09-28T07:22:22.000Z</time>
      </trkpt>
      <trkpt lat="49.82136" lon="4.7894">
        <ele>188</ele>
        <time>2022-09-28T07:22:23.000Z</time>
      </trkpt>
      <trkpt lat="49.82139" lon="4.78945">
        <ele>188</ele>
        <time>2022-09-28T07:22:24.000Z</time>
      </trkpt>
      <trkpt lat="49.82142" lon="4.78949">
        <ele>188</ele>
        <time>2022-09-28T07:22:25.000Z</time>
      </trkpt>
      <trkpt lat="49.82145" lon="4.78954">
        <ele>188</ele>
        <time>2022-09-28T07:22:26.000Z</time>
      </trkpt>
      <trkpt lat="49.82148" lon="4.78959">
        <ele>188</ele>
        <time>2022-09-28T07:22:27.000Z</time>
      </trkpt>
      <trkpt lat="49.82152" lon="4.78964">
        <ele>189</ele>
        <time>2022-09-28T07:22:28.000Z</time>
      </trkpt>
      <trkpt lat="49.82155" lon="4.78969">
        <ele>189</ele>
        <time>2022-09-28T07:22:29.000Z</time>
      </trkpt>
      <trkpt lat="49.82159" lon="4.78974">
        <ele>189</ele>
        <time>2022-09-28T07:22:30.000Z</time>
      </trkpt>
      <trkpt lat="49.82162" lon="4.7898">
        <ele>189</ele>
        <time>2022-09-28T07:22:31.000Z</time>
      </trkpt>
      <trkpt lat="49.82166" lon="4.78984">
        <ele>189</ele>
        <time>2022-09-28T07:22:32.000Z</time>
      </trkpt>
      <trkpt lat="49.8217" lon="4.78989">
        <ele>189</ele>
        <time>2022-09-28T07:22:33.000Z</time>
      </trkpt>
      <trkpt lat="49.82174" lon="4.78993">
        <ele>189</ele>
        <time>2022-09-28T07:22:34.000Z</time>
      </trkpt>
      <trkpt lat="49.82178" lon="4.78997">
        <ele>189</ele>
        <time>2022-09-28T07:22:35.000Z</time>
      </trkpt>
      <trkpt lat="49.82182" lon="4.79">
        <ele>189</ele>
        <time>2022-09-28T07:22:36.000Z</time>
      </trkpt>
      <trkpt lat="49.82187" lon="4.79002">
        <ele>190</ele>
        <time>2022-09-28T07:22:37.000Z</time>
      </trkpt>
      <trkpt lat="49.82192" lon="4.79004">
        <ele>190</ele>
        <time>2022-09-28T07:22:38.000Z</time>
      </trkpt>
      <trkpt lat="49.82197" lon="4.79005">
        <ele>190</ele>
        <time>2022-09-28T07:22:39.000Z</time>
      </trkpt>
      <trkpt lat="49.82202" lon="4.79007">
        <ele>190</ele>
        <time>2022-09-28T07:22:40.000Z</time>
      </trkpt>
      <trkpt lat="49.82207" lon="4.79008">
        <ele>190</ele>
        <time>2022-09-28T07:22:41.000Z</time>
      </trkpt>
      <trkpt lat="49.82212" lon="4.79009">
        <ele>190</ele>
        <time>2022-09-28T07:22:42.000Z</time>
      </trkpt>
      <trkpt lat="49.82218" lon="4.79009">
        <ele>190</ele>
        <time>2022-09-28T07:22:43.000Z</time>
      </trkpt>
      <trkpt lat="49.82223" lon="4.7901">
        <ele>190</ele>
        <time>2022-09-28T07:22:44.000Z</time>
      </trkpt>
      <trkpt lat="49.82228" lon="4.79011">
        <ele>190</ele>
        <time>2022-09-28T07:22:45.000Z</time>
      </trkpt>
      <trkpt lat="49.82234" lon="4.79012">
        <ele>190</ele>
        <time>2022-09-28T07:22:46.000Z</time>
      </trkpt>
      <trkpt lat="49.8224" lon="4.79012">
        <ele>189</ele>
        <time>2022-09-28T07:22:47.000Z</time>
      </trkpt>
      <trkpt lat="49.82245" lon="4.79013">
        <ele>189</ele>
        <time>2022-09-28T07:22:48.000Z</time>
      </trkpt>
      <trkpt lat="49.8225" lon="4.79015">
        <ele>189</ele>
        <time>2022-09-28T07:22:49.000Z</time>
      </trkpt>
      <trkpt lat="49.82255" lon="4.79017">
        <ele>189</ele>
        <time>2022-09-28T07:22:50.000Z</time>
      </trkpt>
      <trkpt lat="49.8226" lon="4.79018">
        <ele>189</ele>
        <time>2022-09-28T07:22:51.000Z</time>
      </trkpt>
      <trkpt lat="49.82264" lon="4.7902">
        <ele>189</ele>
        <time>2022-09-28T07:22:52.000Z</time>
      </trkpt>
      <trkpt lat="49.82269" lon="4.79021">
        <ele>189</ele>
        <time>2022-09-28T07:22:53.000Z</time>
      </trkpt>
      <trkpt lat="49.82273" lon="4.79023">
        <ele>189</ele>
        <time>2022-09-28T07:22:54.000Z</time>
      </trkpt>
      <trkpt lat="49.82278" lon="4.79025">
        <ele>189</ele>
        <time>2022-09-28T07:22:55.000Z</time>
      </trkpt>
      <trkpt lat="49.82282" lon="4.79027">
        <ele>189</ele>
        <time>2022-09-28T07:22:56.000Z</time>
      </trkpt>
      <trkpt lat="49.82286" lon="4.79029">
        <ele>189</ele>
        <time>2022-09-28T07:22:57.000Z</time>
      </trkpt>
      <trkpt lat="49.8229" lon="4.7903">
        <ele>189</ele>
        <time>2022-09-28T07:22:58.000Z</time>
      </trkpt>
      <trkpt lat="49.82295" lon="4.79031">
        <ele>189</ele>
        <time>2022-09-28T07:22:59.000Z</time>
      </trkpt>
      <trkpt lat="49.82299" lon="4.79033">
        <ele>189</ele>
        <time>2022-09-28T07:23:00.000Z</time>
      </trkpt>
      <trkpt lat="49.82304" lon="4.79034">
        <ele>190</ele>
        <time>2022-09-28T07:23:01.000Z</time>
      </trkpt>
      <trkpt lat="49.82309" lon="4.79036">
        <ele>190</ele>
        <time>2022-09-28T07:23:02.000Z</time>
      </trkpt>
      <trkpt lat="49.82313" lon="4.79038">
        <ele>190</ele>
        <time>2022-09-28T07:23:03.000Z</time>
      </trkpt>
      <trkpt lat="49.82318" lon="4.7904">
        <ele>190</ele>
        <time>2022-09-28T07:23:04.000Z</time>
      </trkpt>
      <trkpt lat="49.82323" lon="4.79041">
        <ele>190</ele>
        <time>2022-09-28T07:23:05.000Z</time>
      </trkpt>
      <trkpt lat="49.82328" lon="4.79043">
        <ele>190</ele>
        <time>2022-09-28T07:23:06.000Z</time>
      </trkpt>
      <trkpt lat="49.82333" lon="4.79044">
        <ele>190</ele>
        <time>2022-09-28T07:23:07.000Z</time>
      </trkpt>
      <trkpt lat="49.82337" lon="4.79045">
        <ele>190</ele>
        <time>2022-09-28T07:23:08.000Z</time>
      </trkpt>
      <trkpt lat="49.82342" lon="4.79046">
        <ele>190</ele>
        <time>2022-09-28T07:23:09.000Z</time>
      </trkpt>
      <trkpt lat="49.82348" lon="4.79046">
        <ele>190</ele>
        <time>2022-09-28T07:23:10.000Z</time>
      </trkpt>
      <trkpt lat="49.82353" lon="4.79045">
        <ele>190</ele>
        <time>2022-09-28T07:23:11.000Z</time>
      </trkpt>
      <trkpt lat="49.82358" lon="4.79045">
        <ele>190</ele>
        <time>2022-09-28T07:23:12.000Z</time>
      </trkpt>
      <trkpt lat="49.82363" lon="4.79046">
        <ele>190</ele>
        <time>2022-09-28T07:23:13.000Z</time>
      </trkpt>
      <trkpt lat="49.82368" lon="4.79045">
        <ele>190</ele>
        <time>2022-09-28T07:23:14.000Z</time>
      </trkpt>
      <trkpt lat="49.82373" lon="4.79046">
        <ele>190</ele>
        <time>2022-09-28T07:23:15.000Z</time>
      </trkpt>
      <trkpt lat="49.82377" lon="4.79046">
        <ele>190</ele>
        <time>2022-09-28T07:23:16.000Z</time>
      </trkpt>
      <trkpt lat="49.82382" lon="4.79046">
        <ele>190</ele>
        <time>2022-09-28T07:23:17.000Z</time>
      </trkpt>
      <trkpt lat="49.82386" lon="4.79047">
        <ele>190</ele>
        <time>2022-09-28T07:23:18.000Z</time>
      </trkpt>
      <trkpt lat="49.82391" lon="4.79047">
        <ele>190</ele>
        <time>2022-09-28T07:23:19.000Z</time>
      </trkpt>
      <trkpt lat="49.82395" lon="4.79048">
        <ele>190</ele>
        <time>2022-09-28T07:23:20.000Z</time>
      </trkpt>
      <trkpt lat="49.82399" lon="4.79049">
        <ele>190</ele>
        <time>2022-09-28T07:23:21.000Z</time>
      </trkpt>
      <trkpt lat="49.82402" lon="4.79051">
        <ele>191</ele>
        <time>2022-09-28T07:23:22.000Z</time>
      </trkpt>
      <trkpt lat="49.82406" lon="4.79053">
        <ele>191</ele>
        <time>2022-09-28T07:23:23.000Z</time>
      </trkpt>
      <trkpt lat="49.82411" lon="4.79055">
        <ele>191</ele>
        <time>2022-09-28T07:23:24.000Z</time>
      </trkpt>
      <trkpt lat="49.82415" lon="4.79058">
        <ele>191</ele>
        <time>2022-09-28T07:23:25.000Z</time>
      </trkpt>
      <trkpt lat="49.8242" lon="4.7906">
        <ele>191</ele>
        <time>2022-09-28T07:23:26.000Z</time>
      </trkpt>
      <trkpt lat="49.82424" lon="4.79062">
        <ele>191</ele>
        <time>2022-09-28T07:23:27.000Z</time>
      </trkpt>
      <trkpt lat="49.82429" lon="4.79064">
        <ele>191</ele>
        <time>2022-09-28T07:23:28.000Z</time>
      </trkpt>
      <trkpt lat="49.82434" lon="4.79065">
        <ele>191</ele>
        <time>2022-09-28T07:23:29.000Z</time>
      </trkpt>
      <trkpt lat="49.82438" lon="4.79066">
        <ele>191</ele>
        <time>2022-09-28T07:23:30.000Z</time>
      </trkpt>
      <trkpt lat="49.82443" lon="4.79067">
        <ele>192</ele>
        <time>2022-09-28T07:23:31.000Z</time>
      </trkpt>
      <trkpt lat="49.82448" lon="4.79068">
        <ele>192</ele>
        <time>2022-09-28T07:23:32.000Z</time>
      </trkpt>
      <trkpt lat="49.82453" lon="4.79068">
        <ele>191</ele>
        <time>2022-09-28T07:23:33.000Z</time>
      </trkpt>
      <trkpt lat="49.82458" lon="4.79067">
        <ele>191</ele>
        <time>2022-09-28T07:23:34.000Z</time>
      </trkpt>
      <trkpt lat="49.82463" lon="4.79066">
        <ele>192</ele>
        <time>2022-09-28T07:23:35.000Z</time>
      </trkpt>
      <trkpt lat="49.82468" lon="4.79064">
        <ele>192</ele>
        <time>2022-09-28T07:23:36.000Z</time>
      </trkpt>
      <trkpt lat="49.82473" lon="4.79062">
        <ele>192</ele>
        <time>2022-09-28T07:23:37.000Z</time>
      </trkpt>
      <trkpt lat="49.82479" lon="4.79062">
        <ele>192</ele>
        <time>2022-09-28T07:23:38.000Z</time>
      </trkpt>
      <trkpt lat="49.82484" lon="4.79061">
        <ele>192</ele>
        <time>2022-09-28T07:23:39.000Z</time>
      </trkpt>
      <trkpt lat="49.82489" lon="4.7906">
        <ele>192</ele>
        <time>2022-09-28T07:23:40.000Z</time>
      </trkpt>
      <trkpt lat="49.82494" lon="4.7906">
        <ele>193</ele>
        <time>2022-09-28T07:23:41.000Z</time>
      </trkpt>
      <trkpt lat="49.82499" lon="4.79061">
        <ele>193</ele>
        <time>2022-09-28T07:23:42.000Z</time>
      </trkpt>
      <trkpt lat="49.82503" lon="4.79061">
        <ele>193</ele>
        <time>2022-09-28T07:23:43.000Z</time>
      </trkpt>
      <trkpt lat="49.82508" lon="4.79062">
        <ele>193</ele>
        <time>2022-09-28T07:23:44.000Z</time>
      </trkpt>
      <trkpt lat="49.82512" lon="4.79064">
        <ele>193</ele>
        <time>2022-09-28T07:23:45.000Z</time>
      </trkpt>
      <trkpt lat="49.82517" lon="4.79065">
        <ele>193</ele>
        <time>2022-09-28T07:23:46.000Z</time>
      </trkpt>
      <trkpt lat="49.82521" lon="4.79066">
        <ele>194</ele>
        <time>2022-09-28T07:23:47.000Z</time>
      </trkpt>
      <trkpt lat="49.82525" lon="4.79067">
        <ele>194</ele>
        <time>2022-09-28T07:23:48.000Z</time>
      </trkpt>
      <trkpt lat="49.8253" lon="4.79068">
        <ele>194</ele>
        <time>2022-09-28T07:23:49.000Z</time>
      </trkpt>
      <trkpt lat="49.82535" lon="4.79069">
        <ele>194</ele>
        <time>2022-09-28T07:23:50.000Z</time>
      </trkpt>
      <trkpt lat="49.8254" lon="4.7907">
        <ele>194</ele>
        <time>2022-09-28T07:23:51.000Z</time>
      </trkpt>
      <trkpt lat="49.82545" lon="4.79071">
        <ele>195</ele>
        <time>2022-09-28T07:23:52.000Z</time>
      </trkpt>
      <trkpt lat="49.82549" lon="4.79072">
        <ele>195</ele>
        <time>2022-09-28T07:23:53.000Z</time>
      </trkpt>
      <trkpt lat="49.82555" lon="4.79074">
        <ele>195</ele>
        <time>2022-09-28T07:23:54.000Z</time>
      </trkpt>
      <trkpt lat="49.8256" lon="4.79075">
        <ele>196</ele>
        <time>2022-09-28T07:23:55.000Z</time>
      </trkpt>
      <trkpt lat="49.82565" lon="4.79077">
        <ele>196</ele>
        <time>2022-09-28T07:23:56.000Z</time>
      </trkpt>
      <trkpt lat="49.82569" lon="4.79079">
        <ele>196</ele>
        <time>2022-09-28T07:23:57.000Z</time>
      </trkpt>
      <trkpt lat="49.82574" lon="4.79081">
        <ele>197</ele>
        <time>2022-09-28T07:23:58.000Z</time>
      </trkpt>
      <trkpt lat="49.82579" lon="4.79082">
        <ele>197</ele>
        <time>2022-09-28T07:23:59.000Z</time>
      </trkpt>
      <trkpt lat="49.82584" lon="4.79083">
        <ele>197</ele>
        <time>2022-09-28T07:24:00.000Z</time>
      </trkpt>
      <trkpt lat="49.82589" lon="4.79085">
        <ele>197</ele>
        <time>2022-09-28T07:24:01.000Z</time>
      </trkpt>
      <trkpt lat="49.82594" lon="4.79086">
        <ele>198</ele>
        <time>2022-09-28T07:24:02.000Z</time>
      </trkpt>
      <trkpt lat="49.82599" lon="4.79088">
        <ele>198</ele>
        <time>2022-09-28T07:24:03.000Z</time>
      </trkpt>
      <trkpt lat="49.82603" lon="4.7909">
        <ele>198</ele>
        <time>2022-09-28T07:24:04.000Z</time>
      </trkpt>
      <trkpt lat="49.82608" lon="4.79091">
        <ele>198</ele>
        <time>2022-09-28T07:24:05.000Z</time>
      </trkpt>
      <trkpt lat="49.82613" lon="4.79094">
        <ele>198</ele>
        <time>2022-09-28T07:24:06.000Z</time>
      </trkpt>
      <trkpt lat="49.82617" lon="4.79096">
        <ele>198</ele>
        <time>2022-09-28T07:24:07.000Z</time>
      </trkpt>
      <trkpt lat="49.82622" lon="4.79098">
        <ele>198</ele>
        <time>2022-09-28T07:24:08.000Z</time>
      </trkpt>
      <trkpt lat="49.82626" lon="4.791">
        <ele>198</ele>
        <time>2022-09-28T07:24:09.000Z</time>
      </trkpt>
      <trkpt lat="49.82629" lon="4.79102">
        <ele>199</ele>
        <time>2022-09-28T07:24:10.000Z</time>
      </trkpt>
      <trkpt lat="49.82633" lon="4.79104">
        <ele>199</ele>
        <time>2022-09-28T07:24:11.000Z</time>
      </trkpt>
      <trkpt lat="49.82636" lon="4.79106">
        <ele>199</ele>
        <time>2022-09-28T07:24:12.000Z</time>
      </trkpt>
      <trkpt lat="49.8264" lon="4.79108">
        <ele>199</ele>
        <time>2022-09-28T07:24:13.000Z</time>
      </trkpt>
      <trkpt lat="49.82645" lon="4.7911">
        <ele>199</ele>
        <time>2022-09-28T07:24:14.000Z</time>
      </trkpt>
      <trkpt lat="49.82649" lon="4.79111">
        <ele>199</ele>
        <time>2022-09-28T07:24:15.000Z</time>
      </trkpt>
      <trkpt lat="49.82653" lon="4.79111">
        <ele>200</ele>
        <time>2022-09-28T07:24:16.000Z</time>
      </trkpt>
      <trkpt lat="49.82657" lon="4.79112">
        <ele>200</ele>
        <time>2022-09-28T07:24:17.000Z</time>
      </trkpt>
      <trkpt lat="49.82661" lon="4.79112">
        <ele>200</ele>
        <time>2022-09-28T07:24:18.000Z</time>
      </trkpt>
      <trkpt lat="49.82665" lon="4.79112">
        <ele>200</ele>
        <time>2022-09-28T07:24:19.000Z</time>
      </trkpt>
      <trkpt lat="49.82669" lon="4.79112">
        <ele>200</ele>
        <time>2022-09-28T07:24:20.000Z</time>
      </trkpt>
      <trkpt lat="49.82673" lon="4.79112">
        <ele>200</ele>
        <time>2022-09-28T07:24:21.000Z</time>
      </trkpt>
      <trkpt lat="49.82676" lon="4.79113">
        <ele>200</ele>
        <time>2022-09-28T07:24:22.000Z</time>
      </trkpt>
      <trkpt lat="49.82681" lon="4.79113">
        <ele>200</ele>
        <time>2022-09-28T07:24:23.000Z</time>
      </trkpt>
      <trkpt lat="49.82685" lon="4.79113">
        <ele>199</ele>
        <time>2022-09-28T07:24:24.000Z</time>
      </trkpt>
      <trkpt lat="49.8269" lon="4.79114">
        <ele>199</ele>
        <time>2022-09-28T07:24:25.000Z</time>
      </trkpt>
      <trkpt lat="49.82695" lon="4.79116">
        <ele>199</ele>
        <time>2022-09-28T07:24:26.000Z</time>
      </trkpt>
      <trkpt lat="49.827" lon="4.79117">
        <ele>199</ele>
        <time>2022-09-28T07:24:27.000Z</time>
      </trkpt>
      <trkpt lat="49.82704" lon="4.7912">
        <ele>199</ele>
        <time>2022-09-28T07:24:28.000Z</time>
      </trkpt>
      <trkpt lat="49.82708" lon="4.79123">
        <ele>199</ele>
        <time>2022-09-28T07:24:29.000Z</time>
      </trkpt>
      <trkpt lat="49.82712" lon="4.79126">
        <ele>199</ele>
        <time>2022-09-28T07:24:30.000Z</time>
      </trkpt>
      <trkpt lat="49.82716" lon="4.79129">
        <ele>199</ele>
        <time>2022-09-28T07:24:31.000Z</time>
      </trkpt>
      <trkpt lat="49.82721" lon="4.79132">
        <ele>199</ele>
        <time>2022-09-28T07:24:32.000Z</time>
      </trkpt>
      <trkpt lat="49.82725" lon="4.79135">
        <ele>199</ele>
        <time>2022-09-28T07:24:33.000Z</time>
      </trkpt>
      <trkpt lat="49.8273" lon="4.79139">
        <ele>199</ele>
        <time>2022-09-28T07:24:34.000Z</time>
      </trkpt>
      <trkpt lat="49.82734" lon="4.79142">
        <ele>199</ele>
        <time>2022-09-28T07:24:35.000Z</time>
      </trkpt>
      <trkpt lat="49.82739" lon="4.79146">
        <ele>199</ele>
        <time>2022-09-28T07:24:36.000Z</time>
      </trkpt>
      <trkpt lat="49.82743" lon="4.7915">
        <ele>199</ele>
        <time>2022-09-28T07:24:37.000Z</time>
      </trkpt>
      <trkpt lat="49.82747" lon="4.79154">
        <ele>199</ele>
        <time>2022-09-28T07:24:38.000Z</time>
      </trkpt>
      <trkpt lat="49.82751" lon="4.79158">
        <ele>199</ele>
        <time>2022-09-28T07:24:39.000Z</time>
      </trkpt>
      <trkpt lat="49.82755" lon="4.79162">
        <ele>199</ele>
        <time>2022-09-28T07:24:40.000Z</time>
      </trkpt>
      <trkpt lat="49.8276" lon="4.79165">
        <ele>199</ele>
        <time>2022-09-28T07:24:41.000Z</time>
      </trkpt>
      <trkpt lat="49.82764" lon="4.79169">
        <ele>199</ele>
        <time>2022-09-28T07:24:42.000Z</time>
      </trkpt>
      <trkpt lat="49.82768" lon="4.79174">
        <ele>199</ele>
        <time>2022-09-28T07:24:43.000Z</time>
      </trkpt>
      <trkpt lat="49.82772" lon="4.79178">
        <ele>199</ele>
        <time>2022-09-28T07:24:44.000Z</time>
      </trkpt>
      <trkpt lat="49.82776" lon="4.79183">
        <ele>198</ele>
        <time>2022-09-28T07:24:45.000Z</time>
      </trkpt>
      <trkpt lat="49.8278" lon="4.79188">
        <ele>198</ele>
        <time>2022-09-28T07:24:46.000Z</time>
      </trkpt>
      <trkpt lat="49.82784" lon="4.79193">
        <ele>198</ele>
        <time>2022-09-28T07:24:47.000Z</time>
      </trkpt>
      <trkpt lat="49.82787" lon="4.79199">
        <ele>198</ele>
        <time>2022-09-28T07:24:48.000Z</time>
      </trkpt>
      <trkpt lat="49.8279" lon="4.79204">
        <ele>198</ele>
        <time>2022-09-28T07:24:49.000Z</time>
      </trkpt>
      <trkpt lat="49.82793" lon="4.7921">
        <ele>198</ele>
        <time>2022-09-28T07:24:50.000Z</time>
      </trkpt>
      <trkpt lat="49.82796" lon="4.79216">
        <ele>198</ele>
        <time>2022-09-28T07:24:51.000Z</time>
      </trkpt>
      <trkpt lat="49.82799" lon="4.79222">
        <ele>198</ele>
        <time>2022-09-28T07:24:52.000Z</time>
      </trkpt>
      <trkpt lat="49.82802" lon="4.79227">
        <ele>198</ele>
        <time>2022-09-28T07:24:53.000Z</time>
      </trkpt>
      <trkpt lat="49.82805" lon="4.79233">
        <ele>198</ele>
        <time>2022-09-28T07:24:54.000Z</time>
      </trkpt>
      <trkpt lat="49.82808" lon="4.79239">
        <ele>198</ele>
        <time>2022-09-28T07:24:55.000Z</time>
      </trkpt>
      <trkpt lat="49.82811" lon="4.79245">
        <ele>198</ele>
        <time>2022-09-28T07:24:56.000Z</time>
      </trkpt>
      <trkpt lat="49.82814" lon="4.7925">
        <ele>197</ele>
        <time>2022-09-28T07:24:57.000Z</time>
      </trkpt>
      <trkpt lat="49.82817" lon="4.79255">
        <ele>197</ele>
        <time>2022-09-28T07:24:58.000Z</time>
      </trkpt>
      <trkpt lat="49.8282" lon="4.7926">
        <ele>197</ele>
        <time>2022-09-28T07:24:59.000Z</time>
      </trkpt>
      <trkpt lat="49.82824" lon="4.79265">
        <ele>197</ele>
        <time>2022-09-28T07:25:00.000Z</time>
      </trkpt>
      <trkpt lat="49.82828" lon="4.79269">
        <ele>197</ele>
        <time>2022-09-28T07:25:01.000Z</time>
      </trkpt>
      <trkpt lat="49.82832" lon="4.79273">
        <ele>197</ele>
        <time>2022-09-28T07:25:02.000Z</time>
      </trkpt>
      <trkpt lat="49.82836" lon="4.79277">
        <ele>197</ele>
        <time>2022-09-28T07:25:03.000Z</time>
      </trkpt>
      <trkpt lat="49.8284" lon="4.79281">
        <ele>197</ele>
        <time>2022-09-28T07:25:04.000Z</time>
      </trkpt>
      <trkpt lat="49.82845" lon="4.79285">
        <ele>197</ele>
        <time>2022-09-28T07:25:05.000Z</time>
      </trkpt>
      <trkpt lat="49.82849" lon="4.79289">
        <ele>196</ele>
        <time>2022-09-28T07:25:06.000Z</time>
      </trkpt>
      <trkpt lat="49.82853" lon="4.79293">
        <ele>196</ele>
        <time>2022-09-28T07:25:07.000Z</time>
      </trkpt>
      <trkpt lat="49.82857" lon="4.79298">
        <ele>196</ele>
        <time>2022-09-28T07:25:08.000Z</time>
      </trkpt>
      <trkpt lat="49.82861" lon="4.79304">
        <ele>196</ele>
        <time>2022-09-28T07:25:09.000Z</time>
      </trkpt>
      <trkpt lat="49.82865" lon="4.79309">
        <ele>196</ele>
        <time>2022-09-28T07:25:10.000Z</time>
      </trkpt>
      <trkpt lat="49.82868" lon="4.79314">
        <ele>196</ele>
        <time>2022-09-28T07:25:11.000Z</time>
      </trkpt>
      <trkpt lat="49.82871" lon="4.7932">
        <ele>196</ele>
        <time>2022-09-28T07:25:12.000Z</time>
      </trkpt>
      <trkpt lat="49.82873" lon="4.79324">
        <ele>196</ele>
        <time>2022-09-28T07:25:13.000Z</time>
      </trkpt>
      <trkpt lat="49.82875" lon="4.79329">
        <ele>196</ele>
        <time>2022-09-28T07:25:14.000Z</time>
      </trkpt>
      <trkpt lat="49.82878" lon="4.79333">
        <ele>196</ele>
        <time>2022-09-28T07:25:15.000Z</time>
      </trkpt>
      <trkpt lat="49.8288" lon="4.79337">
        <ele>196</ele>
        <time>2022-09-28T07:25:16.000Z</time>
      </trkpt>
      <trkpt lat="49.82882" lon="4.79341">
        <ele>196</ele>
        <time>2022-09-28T07:25:17.000Z</time>
      </trkpt>
      <trkpt lat="49.82884" lon="4.79345">
        <ele>196</ele>
        <time>2022-09-28T07:25:18.000Z</time>
      </trkpt>
      <trkpt lat="49.82886" lon="4.7935">
        <ele>196</ele>
        <time>2022-09-28T07:25:19.000Z</time>
      </trkpt>
      <trkpt lat="49.82889" lon="4.79354">
        <ele>196</ele>
        <time>2022-09-28T07:25:20.000Z</time>
      </trkpt>
      <trkpt lat="49.82891" lon="4.79359">
        <ele>196</ele>
        <time>2022-09-28T07:25:21.000Z</time>
      </trkpt>
      <trkpt lat="49.82893" lon="4.79363">
        <ele>197</ele>
        <time>2022-09-28T07:25:22.000Z</time>
      </trkpt>
      <trkpt lat="49.82895" lon="4.79369">
        <ele>197</ele>
        <time>2022-09-28T07:25:23.000Z</time>
      </trkpt>
      <trkpt lat="49.82897" lon="4.79373">
        <ele>197</ele>
        <time>2022-09-28T07:25:24.000Z</time>
      </trkpt>
      <trkpt lat="49.82899" lon="4.79378">
        <ele>197</ele>
        <time>2022-09-28T07:25:25.000Z</time>
      </trkpt>
      <trkpt lat="49.82901" lon="4.79384">
        <ele>197</ele>
        <time>2022-09-28T07:25:26.000Z</time>
      </trkpt>
      <trkpt lat="49.82903" lon="4.79389">
        <ele>197</ele>
        <time>2022-09-28T07:25:27.000Z</time>
      </trkpt>
      <trkpt lat="49.82905" lon="4.79395">
        <ele>197</ele>
        <time>2022-09-28T07:25:28.000Z</time>
      </trkpt>
      <trkpt lat="49.82906" lon="4.79401">
        <ele>197</ele>
        <time>2022-09-28T07:25:29.000Z</time>
      </trkpt>
      <trkpt lat="49.82908" lon="4.79407">
        <ele>197</ele>
        <time>2022-09-28T07:25:30.000Z</time>
      </trkpt>
      <trkpt lat="49.8291" lon="4.79412">
        <ele>197</ele>
        <time>2022-09-28T07:25:31.000Z</time>
      </trkpt>
      <trkpt lat="49.82911" lon="4.79417">
        <ele>197</ele>
        <time>2022-09-28T07:25:32.000Z</time>
      </trkpt>
      <trkpt lat="49.82913" lon="4.79423">
        <ele>197</ele>
        <time>2022-09-28T07:25:33.000Z</time>
      </trkpt>
      <trkpt lat="49.82915" lon="4.79427">
        <ele>197</ele>
        <time>2022-09-28T07:25:34.000Z</time>
      </trkpt>
      <trkpt lat="49.82918" lon="4.79432">
        <ele>197</ele>
        <time>2022-09-28T07:25:35.000Z</time>
      </trkpt>
      <trkpt lat="49.8292" lon="4.79437">
        <ele>197</ele>
        <time>2022-09-28T07:25:36.000Z</time>
      </trkpt>
      <trkpt lat="49.82922" lon="4.79441">
        <ele>197</ele>
        <time>2022-09-28T07:25:37.000Z</time>
      </trkpt>
      <trkpt lat="49.82925" lon="4.79445">
        <ele>197</ele>
        <time>2022-09-28T07:25:38.000Z</time>
      </trkpt>
      <trkpt lat="49.82927" lon="4.79449">
        <ele>198</ele>
        <time>2022-09-28T07:25:39.000Z</time>
      </trkpt>
      <trkpt lat="49.82929" lon="4.79453">
        <ele>198</ele>
        <time>2022-09-28T07:25:40.000Z</time>
      </trkpt>
      <trkpt lat="49.82932" lon="4.79456">
        <ele>198</ele>
        <time>2022-09-28T07:25:41.000Z</time>
      </trkpt>
      <trkpt lat="49.82933" lon="4.79458">
        <ele>198</ele>
        <time>2022-09-28T07:25:42.000Z</time>
      </trkpt>
      <trkpt lat="49.82935" lon="4.79461">
        <ele>198</ele>
        <time>2022-09-28T07:25:43.000Z</time>
      </trkpt>
      <trkpt lat="49.82937" lon="4.79463">
        <ele>198</ele>
        <time>2022-09-28T07:25:44.000Z</time>
      </trkpt>
      <trkpt lat="49.82939" lon="4.79464">
        <ele>198</ele>
        <time>2022-09-28T07:25:45.000Z</time>
      </trkpt>
      <trkpt lat="49.82941" lon="4.79466">
        <ele>199</ele>
        <time>2022-09-28T07:25:46.000Z</time>
      </trkpt>
      <trkpt lat="49.82943" lon="4.79466">
        <ele>199</ele>
        <time>2022-09-28T07:25:47.000Z</time>
      </trkpt>
      <trkpt lat="49.82946" lon="4.79468">
        <ele>199</ele>
        <time>2022-09-28T07:25:48.000Z</time>
      </trkpt>
      <trkpt lat="49.82948" lon="4.79469">
        <ele>199</ele>
        <time>2022-09-28T07:25:49.000Z</time>
      </trkpt>
      <trkpt lat="49.82952" lon="4.79469">
        <ele>199</ele>
        <time>2022-09-28T07:25:50.000Z</time>
      </trkpt>
      <trkpt lat="49.82955" lon="4.7947">
        <ele>200</ele>
        <time>2022-09-28T07:25:51.000Z</time>
      </trkpt>
      <trkpt lat="49.82959" lon="4.79472">
        <ele>200</ele>
        <time>2022-09-28T07:25:52.000Z</time>
      </trkpt>
      <trkpt lat="49.82963" lon="4.79473">
        <ele>200</ele>
        <time>2022-09-28T07:25:53.000Z</time>
      </trkpt>
      <trkpt lat="49.82967" lon="4.79474">
        <ele>200</ele>
        <time>2022-09-28T07:25:54.000Z</time>
      </trkpt>
      <trkpt lat="49.82971" lon="4.79475">
        <ele>201</ele>
        <time>2022-09-28T07:25:55.000Z</time>
      </trkpt>
      <trkpt lat="49.82976" lon="4.79477">
        <ele>201</ele>
        <time>2022-09-28T07:25:56.000Z</time>
      </trkpt>
      <trkpt lat="49.82979" lon="4.79479">
        <ele>201</ele>
        <time>2022-09-28T07:25:57.000Z</time>
      </trkpt>
      <trkpt lat="49.82983" lon="4.79479">
        <ele>201</ele>
        <time>2022-09-28T07:25:58.000Z</time>
      </trkpt>
      <trkpt lat="49.82987" lon="4.79479">
        <ele>202</ele>
        <time>2022-09-28T07:25:59.000Z</time>
      </trkpt>
      <trkpt lat="49.8299" lon="4.79479">
        <ele>202</ele>
        <time>2022-09-28T07:26:00.000Z</time>
      </trkpt>
      <trkpt lat="49.82993" lon="4.7948">
        <ele>202</ele>
        <time>2022-09-28T07:26:01.000Z</time>
      </trkpt>
      <trkpt lat="49.82996" lon="4.79481">
        <ele>203</ele>
        <time>2022-09-28T07:26:02.000Z</time>
      </trkpt>
      <trkpt lat="49.82998" lon="4.79482">
        <ele>203</ele>
        <time>2022-09-28T07:26:03.000Z</time>
      </trkpt>
      <trkpt lat="49.83" lon="4.79482">
        <ele>203</ele>
        <time>2022-09-28T07:26:04.000Z</time>
      </trkpt>
      <trkpt lat="49.83002" lon="4.79482">
        <ele>204</ele>
        <time>2022-09-28T07:26:05.000Z</time>
      </trkpt>
      <trkpt lat="49.83004" lon="4.79482">
        <ele>204</ele>
        <time>2022-09-28T07:26:06.000Z</time>
      </trkpt>
      <trkpt lat="49.83006" lon="4.79482">
        <ele>205</ele>
        <time>2022-09-28T07:26:07.000Z</time>
      </trkpt>
      <trkpt lat="49.83008" lon="4.79482">
        <ele>205</ele>
        <time>2022-09-28T07:26:08.000Z</time>
      </trkpt>
      <trkpt lat="49.8301" lon="4.79482">
        <ele>206</ele>
        <time>2022-09-28T07:26:09.000Z</time>
      </trkpt>
      <trkpt lat="49.83012" lon="4.79482">
        <ele>206</ele>
        <time>2022-09-28T07:26:10.000Z</time>
      </trkpt>
      <trkpt lat="49.83013" lon="4.79482">
        <ele>207</ele>
        <time>2022-09-28T07:26:11.000Z</time>
      </trkpt>
      <trkpt lat="49.83015" lon="4.79482">
        <ele>208</ele>
        <time>2022-09-28T07:26:12.000Z</time>
      </trkpt>
      <trkpt lat="49.83017" lon="4.79482">
        <ele>208</ele>
        <time>2022-09-28T07:26:13.000Z</time>
      </trkpt>
      <trkpt lat="49.8302" lon="4.79483">
        <ele>209</ele>
        <time>2022-09-28T07:26:14.000Z</time>
      </trkpt>
      <trkpt lat="49.83022" lon="4.79483">
        <ele>209</ele>
        <time>2022-09-28T07:26:15.000Z</time>
      </trkpt>
      <trkpt lat="49.83024" lon="4.79484">
        <ele>210</ele>
        <time>2022-09-28T07:26:16.000Z</time>
      </trkpt>
      <trkpt lat="49.83026" lon="4.79484">
        <ele>211</ele>
        <time>2022-09-28T07:26:17.000Z</time>
      </trkpt>
      <trkpt lat="49.83029" lon="4.79485">
        <ele>211</ele>
        <time>2022-09-28T07:26:18.000Z</time>
      </trkpt>
      <trkpt lat="49.83031" lon="4.79485">
        <ele>212</ele>
        <time>2022-09-28T07:26:19.000Z</time>
      </trkpt>
      <trkpt lat="49.83032" lon="4.79486">
        <ele>212</ele>
        <time>2022-09-28T07:26:20.000Z</time>
      </trkpt>
      <trkpt lat="49.83034" lon="4.79487">
        <ele>213</ele>
        <time>2022-09-28T07:26:21.000Z</time>
      </trkpt>
      <trkpt lat="49.83035" lon="4.79487">
        <ele>214</ele>
        <time>2022-09-28T07:26:22.000Z</time>
      </trkpt>
      <trkpt lat="49.83037" lon="4.79487">
        <ele>214</ele>
        <time>2022-09-28T07:26:23.000Z</time>
      </trkpt>
      <trkpt lat="49.83038" lon="4.79487">
        <ele>215</ele>
        <time>2022-09-28T07:26:24.000Z</time>
      </trkpt>
      <trkpt lat="49.83039" lon="4.79487">
        <ele>215</ele>
        <time>2022-09-28T07:26:25.000Z</time>
      </trkpt>
      <trkpt lat="49.83041" lon="4.79487">
        <ele>216</ele>
        <time>2022-09-28T07:26:26.000Z</time>
      </trkpt>
      <trkpt lat="49.83042" lon="4.79487">
        <ele>216</ele>
        <time>2022-09-28T07:26:27.000Z</time>
      </trkpt>
      <trkpt lat="49.83044" lon="4.79487">
        <ele>217</ele>
        <time>2022-09-28T07:26:28.000Z</time>
      </trkpt>
      <trkpt lat="49.83046" lon="4.79487">
        <ele>217</ele>
        <time>2022-09-28T07:26:29.000Z</time>
      </trkpt>
      <trkpt lat="49.83047" lon="4.79487">
        <ele>218</ele>
        <time>2022-09-28T07:26:30.000Z</time>
      </trkpt>
      <trkpt lat="49.83048" lon="4.79487">
        <ele>218</ele>
        <time>2022-09-28T07:26:31.000Z</time>
      </trkpt>
      <trkpt lat="49.8305" lon="4.79486">
        <ele>219</ele>
        <time>2022-09-28T07:26:32.000Z</time>
      </trkpt>
      <trkpt lat="49.83051" lon="4.79486">
        <ele>219</ele>
        <time>2022-09-28T07:26:33.000Z</time>
      </trkpt>
      <trkpt lat="49.83053" lon="4.79485">
        <ele>220</ele>
        <time>2022-09-28T07:26:34.000Z</time>
      </trkpt>
      <trkpt lat="49.83054" lon="4.79485">
        <ele>220</ele>
        <time>2022-09-28T07:26:35.000Z</time>
      </trkpt>
      <trkpt lat="49.83056" lon="4.79485">
        <ele>221</ele>
        <time>2022-09-28T07:26:36.000Z</time>
      </trkpt>
      <trkpt lat="49.83058" lon="4.79485">
        <ele>221</ele>
        <time>2022-09-28T07:26:37.000Z</time>
      </trkpt>
      <trkpt lat="49.8306" lon="4.79484">
        <ele>222</ele>
        <time>2022-09-28T07:26:38.000Z</time>
      </trkpt>
      <trkpt lat="49.83062" lon="4.79483">
        <ele>222</ele>
        <time>2022-09-28T07:26:39.000Z</time>
      </trkpt>
      <trkpt lat="49.83064" lon="4.79482">
        <ele>223</ele>
        <time>2022-09-28T07:26:40.000Z</time>
      </trkpt>
      <trkpt lat="49.83066" lon="4.7948">
        <ele>224</ele>
        <time>2022-09-28T07:26:41.000Z</time>
      </trkpt>
      <trkpt lat="49.83067" lon="4.79478">
        <ele>224</ele>
        <time>2022-09-28T07:26:42.000Z</time>
      </trkpt>
      <trkpt lat="49.83069" lon="4.79475">
        <ele>225</ele>
        <time>2022-09-28T07:26:43.000Z</time>
      </trkpt>
      <trkpt lat="49.8307" lon="4.79472">
        <ele>225</ele>
        <time>2022-09-28T07:26:44.000Z</time>
      </trkpt>
      <trkpt lat="49.8307" lon="4.7947">
        <ele>226</ele>
        <time>2022-09-28T07:26:45.000Z</time>
      </trkpt>
      <trkpt lat="49.83069" lon="4.79468">
        <ele>226</ele>
        <time>2022-09-28T07:26:46.000Z</time>
      </trkpt>
      <trkpt lat="49.83068" lon="4.79466">
        <ele>227</ele>
        <time>2022-09-28T07:26:47.000Z</time>
      </trkpt>
      <trkpt lat="49.83066" lon="4.79464">
        <ele>227</ele>
        <time>2022-09-28T07:26:48.000Z</time>
      </trkpt>
      <trkpt lat="49.83064" lon="4.79463">
        <ele>227</ele>
        <time>2022-09-28T07:26:49.000Z</time>
      </trkpt>
      <trkpt lat="49.83062" lon="4.79462">
        <ele>227</ele>
        <time>2022-09-28T07:26:50.000Z</time>
      </trkpt>
      <trkpt lat="49.8306" lon="4.79462">
        <ele>228</ele>
        <time>2022-09-28T07:26:51.000Z</time>
      </trkpt>
      <trkpt lat="49.83057" lon="4.79463">
        <ele>228</ele>
        <time>2022-09-28T07:26:52.000Z</time>
      </trkpt>
      <trkpt lat="49.83055" lon="4.79463">
        <ele>228</ele>
        <time>2022-09-28T07:26:53.000Z</time>
      </trkpt>
      <trkpt lat="49.83052" lon="4.79463">
        <ele>228</ele>
        <time>2022-09-28T07:26:54.000Z</time>
      </trkpt>
      <trkpt lat="49.8305" lon="4.79463">
        <ele>228</ele>
        <time>2022-09-28T07:26:55.000Z</time>
      </trkpt>
      <trkpt lat="49.83047" lon="4.79462">
        <ele>228</ele>
        <time>2022-09-28T07:26:56.000Z</time>
      </trkpt>
      <trkpt lat="49.83045" lon="4.79461">
        <ele>228</ele>
        <time>2022-09-28T07:26:57.000Z</time>
      </trkpt>
      <trkpt lat="49.83042" lon="4.7946">
        <ele>228</ele>
        <time>2022-09-28T07:26:58.000Z</time>
      </trkpt>
      <trkpt lat="49.8304" lon="4.79458">
        <ele>228</ele>
        <time>2022-09-28T07:26:59.000Z</time>
      </trkpt>
      <trkpt lat="49.83038" lon="4.79456">
        <ele>228</ele>
        <time>2022-09-28T07:27:00.000Z</time>
      </trkpt>
      <trkpt lat="49.83036" lon="4.79455">
        <ele>228</ele>
        <time>2022-09-28T07:27:01.000Z</time>
      </trkpt>
      <trkpt lat="49.83034" lon="4.79453">
        <ele>228</ele>
        <time>2022-09-28T07:27:02.000Z</time>
      </trkpt>
      <trkpt lat="49.83033" lon="4.79451">
        <ele>228</ele>
        <time>2022-09-28T07:27:03.000Z</time>
      </trkpt>
      <trkpt lat="49.83031" lon="4.7945">
        <ele>228</ele>
        <time>2022-09-28T07:27:04.000Z</time>
      </trkpt>
      <trkpt lat="49.8303" lon="4.79448">
        <ele>228</ele>
        <time>2022-09-28T07:27:05.000Z</time>
      </trkpt>
      <trkpt lat="49.83028" lon="4.79447">
        <ele>228</ele>
        <time>2022-09-28T07:27:06.000Z</time>
      </trkpt>
      <trkpt lat="49.83026" lon="4.79445">
        <ele>228</ele>
        <time>2022-09-28T07:27:07.000Z</time>
      </trkpt>
      <trkpt lat="49.83025" lon="4.79444">
        <ele>227</ele>
        <time>2022-09-28T07:27:08.000Z</time>
      </trkpt>
      <trkpt lat="49.83023" lon="4.79442">
        <ele>227</ele>
        <time>2022-09-28T07:27:09.000Z</time>
      </trkpt>
      <trkpt lat="49.83022" lon="4.7944">
        <ele>227</ele>
        <time>2022-09-28T07:27:10.000Z</time>
      </trkpt>
      <trkpt lat="49.8302" lon="4.79438">
        <ele>227</ele>
        <time>2022-09-28T07:27:11.000Z</time>
      </trkpt>
      <trkpt lat="49.83019" lon="4.79437">
        <ele>227</ele>
        <time>2022-09-28T07:27:12.000Z</time>
      </trkpt>
      <trkpt lat="49.83017" lon="4.79435">
        <ele>226</ele>
        <time>2022-09-28T07:27:13.000Z</time>
      </trkpt>
      <trkpt lat="49.83016" lon="4.79433">
        <ele>226</ele>
        <time>2022-09-28T07:27:14.000Z</time>
      </trkpt>
      <trkpt lat="49.83015" lon="4.79431">
        <ele>226</ele>
        <time>2022-09-28T07:27:15.000Z</time>
      </trkpt>
      <trkpt lat="49.83014" lon="4.79429">
        <ele>226</ele>
        <time>2022-09-28T07:27:16.000Z</time>
      </trkpt>
      <trkpt lat="49.83012" lon="4.79426">
        <ele>225</ele>
        <time>2022-09-28T07:27:17.000Z</time>
      </trkpt>
      <trkpt lat="49.83011" lon="4.79424">
        <ele>225</ele>
        <time>2022-09-28T07:27:18.000Z</time>
      </trkpt>
      <trkpt lat="49.83009" lon="4.79421">
        <ele>225</ele>
        <time>2022-09-28T07:27:19.000Z</time>
      </trkpt>
      <trkpt lat="49.83008" lon="4.79419">
        <ele>224</ele>
        <time>2022-09-28T07:27:20.000Z</time>
      </trkpt>
      <trkpt lat="49.83006" lon="4.79416">
        <ele>224</ele>
        <time>2022-09-28T07:27:21.000Z</time>
      </trkpt>
      <trkpt lat="49.83005" lon="4.79414">
        <ele>224</ele>
        <time>2022-09-28T07:27:22.000Z</time>
      </trkpt>
      <trkpt lat="49.83003" lon="4.79411">
        <ele>223</ele>
        <time>2022-09-28T07:27:23.000Z</time>
      </trkpt>
      <trkpt lat="49.83001" lon="4.79409">
        <ele>223</ele>
        <time>2022-09-28T07:27:24.000Z</time>
      </trkpt>
      <trkpt lat="49.82999" lon="4.79407">
        <ele>223</ele>
        <time>2022-09-28T07:27:25.000Z</time>
      </trkpt>
      <trkpt lat="49.82998" lon="4.79405">
        <ele>223</ele>
        <time>2022-09-28T07:27:26.000Z</time>
      </trkpt>
      <trkpt lat="49.82996" lon="4.79403">
        <ele>223</ele>
        <time>2022-09-28T07:27:27.000Z</time>
      </trkpt>
      <trkpt lat="49.82994" lon="4.79401">
        <ele>223</ele>
        <time>2022-09-28T07:27:28.000Z</time>
      </trkpt>
      <trkpt lat="49.82992" lon="4.79399">
        <ele>223</ele>
        <time>2022-09-28T07:27:29.000Z</time>
      </trkpt>
      <trkpt lat="49.82991" lon="4.79397">
        <ele>223</ele>
        <time>2022-09-28T07:27:30.000Z</time>
      </trkpt>
      <trkpt lat="49.82989" lon="4.79394">
        <ele>223</ele>
        <time>2022-09-28T07:27:31.000Z</time>
      </trkpt>
      <trkpt lat="49.82987" lon="4.79392">
        <ele>223</ele>
        <time>2022-09-28T07:27:32.000Z</time>
      </trkpt>
      <trkpt lat="49.82986" lon="4.7939">
        <ele>223</ele>
        <time>2022-09-28T07:27:33.000Z</time>
      </trkpt>
      <trkpt lat="49.82984" lon="4.79387">
        <ele>223</ele>
        <time>2022-09-28T07:27:34.000Z</time>
      </trkpt>
      <trkpt lat="49.82982" lon="4.79385">
        <ele>223</ele>
        <time>2022-09-28T07:27:35.000Z</time>
      </trkpt>
      <trkpt lat="49.8298" lon="4.79383">
        <ele>223</ele>
        <time>2022-09-28T07:27:36.000Z</time>
      </trkpt>
      <trkpt lat="49.82978" lon="4.79381">
        <ele>223</ele>
        <time>2022-09-28T07:27:37.000Z</time>
      </trkpt>
      <trkpt lat="49.82976" lon="4.79379">
        <ele>223</ele>
        <time>2022-09-28T07:27:38.000Z</time>
      </trkpt>
      <trkpt lat="49.82975" lon="4.79377">
        <ele>223</ele>
        <time>2022-09-28T07:27:39.000Z</time>
      </trkpt>
      <trkpt lat="49.82973" lon="4.79375">
        <ele>223</ele>
        <time>2022-09-28T07:27:40.000Z</time>
      </trkpt>
      <trkpt lat="49.82971" lon="4.79373">
        <ele>223</ele>
        <time>2022-09-28T07:27:41.000Z</time>
      </trkpt>
      <trkpt lat="49.82969" lon="4.79371">
        <ele>223</ele>
        <time>2022-09-28T07:27:42.000Z</time>
      </trkpt>
      <trkpt lat="49.82967" lon="4.79369">
        <ele>223</ele>
        <time>2022-09-28T07:27:43.000Z</time>
      </trkpt>
      <trkpt lat="49.82966" lon="4.79367">
        <ele>223</ele>
        <time>2022-09-28T07:27:44.000Z</time>
      </trkpt>
      <trkpt lat="49.82964" lon="4.79364">
        <ele>223</ele>
        <time>2022-09-28T07:27:45.000Z</time>
      </trkpt>
      <trkpt lat="49.82962" lon="4.79362">
        <ele>224</ele>
        <time>2022-09-28T07:27:46.000Z</time>
      </trkpt>
      <trkpt lat="49.82961" lon="4.7936">
        <ele>224</ele>
        <time>2022-09-28T07:27:47.000Z</time>
      </trkpt>
      <trkpt lat="49.82959" lon="4.79358">
        <ele>224</ele>
        <time>2022-09-28T07:27:48.000Z</time>
      </trkpt>
      <trkpt lat="49.82957" lon="4.79355">
        <ele>224</ele>
        <time>2022-09-28T07:27:49.000Z</time>
      </trkpt>
      <trkpt lat="49.82956" lon="4.79353">
        <ele>224</ele>
        <time>2022-09-28T07:27:50.000Z</time>
      </trkpt>
      <trkpt lat="49.82954" lon="4.79351">
        <ele>224</ele>
        <time>2022-09-28T07:27:51.000Z</time>
      </trkpt>
      <trkpt lat="49.82953" lon="4.79348">
        <ele>224</ele>
        <time>2022-09-28T07:27:52.000Z</time>
      </trkpt>
      <trkpt lat="49.82951" lon="4.79346">
        <ele>225</ele>
        <time>2022-09-28T07:27:53.000Z</time>
      </trkpt>
      <trkpt lat="49.8295" lon="4.79343">
        <ele>225</ele>
        <time>2022-09-28T07:27:54.000Z</time>
      </trkpt>
      <trkpt lat="49.82949" lon="4.7934">
        <ele>225</ele>
        <time>2022-09-28T07:27:55.000Z</time>
      </trkpt>
      <trkpt lat="49.82948" lon="4.79338">
        <ele>225</ele>
        <time>2022-09-28T07:27:56.000Z</time>
      </trkpt>
      <trkpt lat="49.82947" lon="4.79335">
        <ele>225</ele>
        <time>2022-09-28T07:27:57.000Z</time>
      </trkpt>
      <trkpt lat="49.82946" lon="4.79332">
        <ele>225</ele>
        <time>2022-09-28T07:27:58.000Z</time>
      </trkpt>
      <trkpt lat="49.82945" lon="4.79329">
        <ele>226</ele>
        <time>2022-09-28T07:27:59.000Z</time>
      </trkpt>
      <trkpt lat="49.82945" lon="4.79325">
        <ele>226</ele>
        <time>2022-09-28T07:28:00.000Z</time>
      </trkpt>
      <trkpt lat="49.82944" lon="4.79323">
        <ele>226</ele>
        <time>2022-09-28T07:28:01.000Z</time>
      </trkpt>
      <trkpt lat="49.82943" lon="4.7932">
        <ele>226</ele>
        <time>2022-09-28T07:28:02.000Z</time>
      </trkpt>
      <trkpt lat="49.82942" lon="4.79317">
        <ele>226</ele>
        <time>2022-09-28T07:28:03.000Z</time>
      </trkpt>
      <trkpt lat="49.82941" lon="4.79314">
        <ele>226</ele>
        <time>2022-09-28T07:28:04.000Z</time>
      </trkpt>
      <trkpt lat="49.82941" lon="4.79311">
        <ele>226</ele>
        <time>2022-09-28T07:28:05.000Z</time>
      </trkpt>
      <trkpt lat="49.8294" lon="4.79308">
        <ele>226</ele>
        <time>2022-09-28T07:28:06.000Z</time>
      </trkpt>
      <trkpt lat="49.8294" lon="4.79305">
        <ele>226</ele>
        <time>2022-09-28T07:28:07.000Z</time>
      </trkpt>
      <trkpt lat="49.8294" lon="4.79303">
        <ele>227</ele>
        <time>2022-09-28T07:28:08.000Z</time>
      </trkpt>
      <trkpt lat="49.82939" lon="4.793">
        <ele>227</ele>
        <time>2022-09-28T07:28:09.000Z</time>
      </trkpt>
      <trkpt lat="49.82939" lon="4.79298">
        <ele>227</ele>
        <time>2022-09-28T07:28:10.000Z</time>
      </trkpt>
      <trkpt lat="49.82939" lon="4.79295">
        <ele>227</ele>
        <time>2022-09-28T07:28:11.000Z</time>
      </trkpt>
      <trkpt lat="49.82939" lon="4.79292">
        <ele>227</ele>
        <time>2022-09-28T07:28:12.000Z</time>
      </trkpt>
      <trkpt lat="49.82938" lon="4.79289">
        <ele>227</ele>
        <time>2022-09-28T07:28:13.000Z</time>
      </trkpt>
      <trkpt lat="49.82938" lon="4.79286">
        <ele>228</ele>
        <time>2022-09-28T07:28:14.000Z</time>
      </trkpt>
      <trkpt lat="49.82938" lon="4.79283">
        <ele>228</ele>
        <time>2022-09-28T07:28:15.000Z</time>
      </trkpt>
      <trkpt lat="49.82938" lon="4.7928">
        <ele>228</ele>
        <time>2022-09-28T07:28:16.000Z</time>
      </trkpt>
      <trkpt lat="49.82938" lon="4.79277">
        <ele>228</ele>
        <time>2022-09-28T07:28:17.000Z</time>
      </trkpt>
      <trkpt lat="49.82938" lon="4.79273">
        <ele>228</ele>
        <time>2022-09-28T07:28:18.000Z</time>
      </trkpt>
      <trkpt lat="49.82938" lon="4.7927">
        <ele>229</ele>
        <time>2022-09-28T07:28:19.000Z</time>
      </trkpt>
      <trkpt lat="49.82939" lon="4.79266">
        <ele>229</ele>
        <time>2022-09-28T07:28:20.000Z</time>
      </trkpt>
      <trkpt lat="49.82939" lon="4.79262">
        <ele>229</ele>
        <time>2022-09-28T07:28:21.000Z</time>
      </trkpt>
      <trkpt lat="49.8294" lon="4.79258">
        <ele>229</ele>
        <time>2022-09-28T07:28:22.000Z</time>
      </trkpt>
      <trkpt lat="49.8294" lon="4.79254">
        <ele>230</ele>
        <time>2022-09-28T07:28:23.000Z</time>
      </trkpt>
      <trkpt lat="49.8294" lon="4.79251">
        <ele>230</ele>
        <time>2022-09-28T07:28:24.000Z</time>
      </trkpt>
      <trkpt lat="49.82941" lon="4.79247">
        <ele>231</ele>
        <time>2022-09-28T07:28:25.000Z</time>
      </trkpt>
      <trkpt lat="49.82942" lon="4.79244">
        <ele>231</ele>
        <time>2022-09-28T07:28:26.000Z</time>
      </trkpt>
      <trkpt lat="49.82942" lon="4.7924">
        <ele>231</ele>
        <time>2022-09-28T07:28:27.000Z</time>
      </trkpt>
      <trkpt lat="49.82942" lon="4.79236">
        <ele>232</ele>
        <time>2022-09-28T07:28:28.000Z</time>
      </trkpt>
      <trkpt lat="49.82942" lon="4.79232">
        <ele>232</ele>
        <time>2022-09-28T07:28:29.000Z</time>
      </trkpt>
      <trkpt lat="49.82942" lon="4.79228">
        <ele>232</ele>
        <time>2022-09-28T07:28:30.000Z</time>
      </trkpt>
      <trkpt lat="49.82942" lon="4.79224">
        <ele>233</ele>
        <time>2022-09-28T07:28:31.000Z</time>
      </trkpt>
      <trkpt lat="49.82942" lon="4.7922">
        <ele>233</ele>
        <time>2022-09-28T07:28:32.000Z</time>
      </trkpt>
      <trkpt lat="49.82943" lon="4.79217">
        <ele>233</ele>
        <time>2022-09-28T07:28:33.000Z</time>
      </trkpt>
      <trkpt lat="49.82943" lon="4.79214">
        <ele>233</ele>
        <time>2022-09-28T07:28:34.000Z</time>
      </trkpt>
      <trkpt lat="49.82944" lon="4.79211">
        <ele>234</ele>
        <time>2022-09-28T07:28:35.000Z</time>
      </trkpt>
      <trkpt lat="49.82944" lon="4.79209">
        <ele>234</ele>
        <time>2022-09-28T07:28:36.000Z</time>
      </trkpt>
      <trkpt lat="49.82945" lon="4.79206">
        <ele>234</ele>
        <time>2022-09-28T07:28:37.000Z</time>
      </trkpt>
      <trkpt lat="49.82946" lon="4.79204">
        <ele>235</ele>
        <time>2022-09-28T07:28:38.000Z</time>
      </trkpt>
      <trkpt lat="49.82946" lon="4.79201">
        <ele>235</ele>
        <time>2022-09-28T07:28:39.000Z</time>
      </trkpt>
      <trkpt lat="49.82947" lon="4.79199">
        <ele>235</ele>
        <time>2022-09-28T07:28:40.000Z</time>
      </trkpt>
      <trkpt lat="49.82948" lon="4.79196">
        <ele>236</ele>
        <time>2022-09-28T07:28:41.000Z</time>
      </trkpt>
      <trkpt lat="49.82949" lon="4.79194">
        <ele>236</ele>
        <time>2022-09-28T07:28:42.000Z</time>
      </trkpt>
      <trkpt lat="49.82949" lon="4.79191">
        <ele>237</ele>
        <time>2022-09-28T07:28:43.000Z</time>
      </trkpt>
      <trkpt lat="49.8295" lon="4.79188">
        <ele>237</ele>
        <time>2022-09-28T07:28:44.000Z</time>
      </trkpt>
      <trkpt lat="49.8295" lon="4.79185">
        <ele>237</ele>
        <time>2022-09-28T07:28:45.000Z</time>
      </trkpt>
      <trkpt lat="49.8295" lon="4.79181">
        <ele>238</ele>
        <time>2022-09-28T07:28:46.000Z</time>
      </trkpt>
      <trkpt lat="49.82951" lon="4.79177">
        <ele>238</ele>
        <time>2022-09-28T07:28:47.000Z</time>
      </trkpt>
      <trkpt lat="49.82951" lon="4.79174">
        <ele>239</ele>
        <time>2022-09-28T07:28:48.000Z</time>
      </trkpt>
      <trkpt lat="49.82951" lon="4.7917">
        <ele>239</ele>
        <time>2022-09-28T07:28:49.000Z</time>
      </trkpt>
      <trkpt lat="49.82951" lon="4.79166">
        <ele>239</ele>
        <time>2022-09-28T07:28:50.000Z</time>
      </trkpt>
      <trkpt lat="49.8295" lon="4.79162">
        <ele>240</ele>
        <time>2022-09-28T07:28:51.000Z</time>
      </trkpt>
      <trkpt lat="49.8295" lon="4.79158">
        <ele>240</ele>
        <time>2022-09-28T07:28:52.000Z</time>
      </trkpt>
      <trkpt lat="49.82949" lon="4.79154">
        <ele>241</ele>
        <time>2022-09-28T07:28:53.000Z</time>
      </trkpt>
      <trkpt lat="49.82948" lon="4.7915">
        <ele>241</ele>
        <time>2022-09-28T07:28:54.000Z</time>
      </trkpt>
      <trkpt lat="49.82947" lon="4.79146">
        <ele>241</ele>
        <time>2022-09-28T07:28:55.000Z</time>
      </trkpt>
      <trkpt lat="49.82946" lon="4.79143">
        <ele>242</ele>
        <time>2022-09-28T07:28:56.000Z</time>
      </trkpt>
      <trkpt lat="49.82945" lon="4.79139">
        <ele>242</ele>
        <time>2022-09-28T07:28:57.000Z</time>
      </trkpt>
      <trkpt lat="49.82944" lon="4.79136">
        <ele>242</ele>
        <time>2022-09-28T07:28:58.000Z</time>
      </trkpt>
      <trkpt lat="49.82943" lon="4.79134">
        <ele>242</ele>
        <time>2022-09-28T07:28:59.000Z</time>
      </trkpt>
      <trkpt lat="49.82942" lon="4.79131">
        <ele>242</ele>
        <time>2022-09-28T07:29:00.000Z</time>
      </trkpt>
      <trkpt lat="49.82941" lon="4.79128">
        <ele>242</ele>
        <time>2022-09-28T07:29:01.000Z</time>
      </trkpt>
      <trkpt lat="49.82939" lon="4.79125">
        <ele>242</ele>
        <time>2022-09-28T07:29:02.000Z</time>
      </trkpt>
      <trkpt lat="49.82938" lon="4.79122">
        <ele>243</ele>
        <time>2022-09-28T07:29:03.000Z</time>
      </trkpt>
      <trkpt lat="49.82937" lon="4.79118">
        <ele>243</ele>
        <time>2022-09-28T07:29:04.000Z</time>
      </trkpt>
      <trkpt lat="49.82935" lon="4.79115">
        <ele>243</ele>
        <time>2022-09-28T07:29:05.000Z</time>
      </trkpt>
      <trkpt lat="49.82934" lon="4.79112">
        <ele>243</ele>
        <time>2022-09-28T07:29:06.000Z</time>
      </trkpt>
      <trkpt lat="49.82933" lon="4.79108">
        <ele>243</ele>
        <time>2022-09-28T07:29:07.000Z</time>
      </trkpt>
      <trkpt lat="49.82932" lon="4.79105">
        <ele>243</ele>
        <time>2022-09-28T07:29:08.000Z</time>
      </trkpt>
      <trkpt lat="49.8293" lon="4.79101">
        <ele>243</ele>
        <time>2022-09-28T07:29:09.000Z</time>
      </trkpt>
      <trkpt lat="49.82929" lon="4.79098">
        <ele>243</ele>
        <time>2022-09-28T07:29:10.000Z</time>
      </trkpt>
      <trkpt lat="49.82927" lon="4.79095">
        <ele>243</ele>
        <time>2022-09-28T07:29:11.000Z</time>
      </trkpt>
      <trkpt lat="49.82925" lon="4.79092">
        <ele>243</ele>
        <time>2022-09-28T07:29:12.000Z</time>
      </trkpt>
      <trkpt lat="49.82923" lon="4.79089">
        <ele>243</ele>
        <time>2022-09-28T07:29:13.000Z</time>
      </trkpt>
      <trkpt lat="49.82921" lon="4.79086">
        <ele>243</ele>
        <time>2022-09-28T07:29:14.000Z</time>
      </trkpt>
      <trkpt lat="49.82919" lon="4.79083">
        <ele>243</ele>
        <time>2022-09-28T07:29:15.000Z</time>
      </trkpt>
      <trkpt lat="49.82916" lon="4.79081">
        <ele>243</ele>
        <time>2022-09-28T07:29:16.000Z</time>
      </trkpt>
      <trkpt lat="49.82914" lon="4.79079">
        <ele>243</ele>
        <time>2022-09-28T07:29:17.000Z</time>
      </trkpt>
      <trkpt lat="49.82911" lon="4.79076">
        <ele>243</ele>
        <time>2022-09-28T07:29:18.000Z</time>
      </trkpt>
      <trkpt lat="49.82908" lon="4.79073">
        <ele>244</ele>
        <time>2022-09-28T07:29:19.000Z</time>
      </trkpt>
      <trkpt lat="49.82905" lon="4.79071">
        <ele>244</ele>
        <time>2022-09-28T07:29:20.000Z</time>
      </trkpt>
      <trkpt lat="49.82902" lon="4.79069">
        <ele>244</ele>
        <time>2022-09-28T07:29:21.000Z</time>
      </trkpt>
      <trkpt lat="49.82899" lon="4.79066">
        <ele>244</ele>
        <time>2022-09-28T07:29:22.000Z</time>
      </trkpt>
      <trkpt lat="49.82896" lon="4.79064">
        <ele>244</ele>
        <time>2022-09-28T07:29:23.000Z</time>
      </trkpt>
      <trkpt lat="49.82894" lon="4.79062">
        <ele>245</ele>
        <time>2022-09-28T07:29:24.000Z</time>
      </trkpt>
      <trkpt lat="49.82891" lon="4.79059">
        <ele>245</ele>
        <time>2022-09-28T07:29:25.000Z</time>
      </trkpt>
      <trkpt lat="49.82889" lon="4.79057">
        <ele>245</ele>
        <time>2022-09-28T07:29:26.000Z</time>
      </trkpt>
      <trkpt lat="49.82887" lon="4.79055">
        <ele>245</ele>
        <time>2022-09-28T07:29:27.000Z</time>
      </trkpt>
      <trkpt lat="49.82885" lon="4.79053">
        <ele>245</ele>
        <time>2022-09-28T07:29:28.000Z</time>
      </trkpt>
      <trkpt lat="49.82882" lon="4.79051">
        <ele>246</ele>
        <time>2022-09-28T07:29:29.000Z</time>
      </trkpt>
      <trkpt lat="49.8288" lon="4.79049">
        <ele>246</ele>
        <time>2022-09-28T07:29:30.000Z</time>
      </trkpt>
      <trkpt lat="49.82878" lon="4.79047">
        <ele>246</ele>
        <time>2022-09-28T07:29:31.000Z</time>
      </trkpt>
      <trkpt lat="49.82876" lon="4.79046">
        <ele>246</ele>
        <time>2022-09-28T07:29:32.000Z</time>
      </trkpt>
      <trkpt lat="49.82874" lon="4.79044">
        <ele>246</ele>
        <time>2022-09-28T07:29:33.000Z</time>
      </trkpt>
      <trkpt lat="49.82872" lon="4.79041">
        <ele>247</ele>
        <time>2022-09-28T07:29:34.000Z</time>
      </trkpt>
      <trkpt lat="49.8287" lon="4.79039">
        <ele>247</ele>
        <time>2022-09-28T07:29:35.000Z</time>
      </trkpt>
      <trkpt lat="49.82869" lon="4.79036">
        <ele>247</ele>
        <time>2022-09-28T07:29:36.000Z</time>
      </trkpt>
      <trkpt lat="49.82867" lon="4.79034">
        <ele>247</ele>
        <time>2022-09-28T07:29:37.000Z</time>
      </trkpt>
      <trkpt lat="49.82865" lon="4.79032">
        <ele>248</ele>
        <time>2022-09-28T07:29:38.000Z</time>
      </trkpt>
      <trkpt lat="49.82864" lon="4.7903">
        <ele>248</ele>
        <time>2022-09-28T07:29:39.000Z</time>
      </trkpt>
      <trkpt lat="49.82862" lon="4.79027">
        <ele>248</ele>
        <time>2022-09-28T07:29:40.000Z</time>
      </trkpt>
      <trkpt lat="49.82861" lon="4.79025">
        <ele>248</ele>
        <time>2022-09-28T07:29:41.000Z</time>
      </trkpt>
      <trkpt lat="49.82859" lon="4.79022">
        <ele>248</ele>
        <time>2022-09-28T07:29:42.000Z</time>
      </trkpt>
      <trkpt lat="49.82858" lon="4.7902">
        <ele>248</ele>
        <time>2022-09-28T07:29:43.000Z</time>
      </trkpt>
      <trkpt lat="49.82856" lon="4.79017">
        <ele>248</ele>
        <time>2022-09-28T07:29:44.000Z</time>
      </trkpt>
      <trkpt lat="49.82855" lon="4.79015">
        <ele>248</ele>
        <time>2022-09-28T07:29:45.000Z</time>
      </trkpt>
      <trkpt lat="49.82853" lon="4.79013">
        <ele>248</ele>
        <time>2022-09-28T07:29:46.000Z</time>
      </trkpt>
      <trkpt lat="49.82852" lon="4.7901">
        <ele>249</ele>
        <time>2022-09-28T07:29:47.000Z</time>
      </trkpt>
      <trkpt lat="49.82851" lon="4.79007">
        <ele>249</ele>
        <time>2022-09-28T07:29:48.000Z</time>
      </trkpt>
      <trkpt lat="49.82851" lon="4.79005">
        <ele>249</ele>
        <time>2022-09-28T07:29:49.000Z</time>
      </trkpt>
      <trkpt lat="49.8285" lon="4.79002">
        <ele>249</ele>
        <time>2022-09-28T07:29:50.000Z</time>
      </trkpt>
      <trkpt lat="49.8285" lon="4.78999">
        <ele>249</ele>
        <time>2022-09-28T07:29:51.000Z</time>
      </trkpt>
      <trkpt lat="49.8285" lon="4.78996">
        <ele>249</ele>
        <time>2022-09-28T07:29:52.000Z</time>
      </trkpt>
      <trkpt lat="49.8285" lon="4.78992">
        <ele>249</ele>
        <time>2022-09-28T07:29:53.000Z</time>
      </trkpt>
      <trkpt lat="49.8285" lon="4.78989">
        <ele>250</ele>
        <time>2022-09-28T07:29:54.000Z</time>
      </trkpt>
      <trkpt lat="49.82851" lon="4.78986">
        <ele>250</ele>
        <time>2022-09-28T07:29:55.000Z</time>
      </trkpt>
      <trkpt lat="49.82852" lon="4.78984">
        <ele>250</ele>
        <time>2022-09-28T07:29:56.000Z</time>
      </trkpt>
      <trkpt lat="49.82853" lon="4.78981">
        <ele>250</ele>
        <time>2022-09-28T07:29:57.000Z</time>
      </trkpt>
      <trkpt lat="49.82854" lon="4.78979">
        <ele>251</ele>
        <time>2022-09-28T07:29:58.000Z</time>
      </trkpt>
      <trkpt lat="49.82856" lon="4.78977">
        <ele>251</ele>
        <time>2022-09-28T07:29:59.000Z</time>
      </trkpt>
      <trkpt lat="49.82857" lon="4.78975">
        <ele>252</ele>
        <time>2022-09-28T07:30:00.000Z</time>
      </trkpt>
      <trkpt lat="49.82858" lon="4.78974">
        <ele>252</ele>
        <time>2022-09-28T07:30:01.000Z</time>
      </trkpt>
      <trkpt lat="49.8286" lon="4.78973">
        <ele>252</ele>
        <time>2022-09-28T07:30:02.000Z</time>
      </trkpt>
      <trkpt lat="49.82862" lon="4.78972">
        <ele>253</ele>
        <time>2022-09-28T07:30:03.000Z</time>
      </trkpt>
      <trkpt lat="49.82864" lon="4.78972">
        <ele>253</ele>
        <time>2022-09-28T07:30:04.000Z</time>
      </trkpt>
      <trkpt lat="49.82866" lon="4.78972">
        <ele>254</ele>
        <time>2022-09-28T07:30:05.000Z</time>
      </trkpt>
      <trkpt lat="49.82867" lon="4.78973">
        <ele>254</ele>
        <time>2022-09-28T07:30:06.000Z</time>
      </trkpt>
      <trkpt lat="49.82869" lon="4.78974">
        <ele>254</ele>
        <time>2022-09-28T07:30:07.000Z</time>
      </trkpt>
      <trkpt lat="49.82871" lon="4.78975">
        <ele>255</ele>
        <time>2022-09-28T07:30:08.000Z</time>
      </trkpt>
      <trkpt lat="49.82872" lon="4.78976">
        <ele>255</ele>
        <time>2022-09-28T07:30:09.000Z</time>
      </trkpt>
      <trkpt lat="49.82874" lon="4.78977">
        <ele>255</ele>
        <time>2022-09-28T07:30:10.000Z</time>
      </trkpt>
      <trkpt lat="49.82876" lon="4.78978">
        <ele>256</ele>
        <time>2022-09-28T07:30:11.000Z</time>
      </trkpt>
      <trkpt lat="49.82877" lon="4.7898">
        <ele>256</ele>
        <time>2022-09-28T07:30:12.000Z</time>
      </trkpt>
      <trkpt lat="49.82878" lon="4.78983">
        <ele>256</ele>
        <time>2022-09-28T07:30:13.000Z</time>
      </trkpt>
      <trkpt lat="49.8288" lon="4.78984">
        <ele>256</ele>
        <time>2022-09-28T07:30:14.000Z</time>
      </trkpt>
      <trkpt lat="49.82882" lon="4.78987">
        <ele>257</ele>
        <time>2022-09-28T07:30:15.000Z</time>
      </trkpt>
      <trkpt lat="49.82884" lon="4.78988">
        <ele>257</ele>
        <time>2022-09-28T07:30:16.000Z</time>
      </trkpt>
      <trkpt lat="49.82886" lon="4.7899">
        <ele>257</ele>
        <time>2022-09-28T07:30:17.000Z</time>
      </trkpt>
      <trkpt lat="49.82888" lon="4.78992">
        <ele>257</ele>
        <time>2022-09-28T07:30:18.000Z</time>
      </trkpt>
      <trkpt lat="49.82891" lon="4.78995">
        <ele>257</ele>
        <time>2022-09-28T07:30:19.000Z</time>
      </trkpt>
      <trkpt lat="49.82893" lon="4.78997">
        <ele>257</ele>
        <time>2022-09-28T07:30:20.000Z</time>
      </trkpt>
      <trkpt lat="49.82895" lon="4.78999">
        <ele>257</ele>
        <time>2022-09-28T07:30:21.000Z</time>
      </trkpt>
      <trkpt lat="49.82897" lon="4.79">
        <ele>257</ele>
        <time>2022-09-28T07:30:22.000Z</time>
      </trkpt>
      <trkpt lat="49.82899" lon="4.79002">
        <ele>257</ele>
        <time>2022-09-28T07:30:23.000Z</time>
      </trkpt>
      <trkpt lat="49.82901" lon="4.79003">
        <ele>257</ele>
        <time>2022-09-28T07:30:24.000Z</time>
      </trkpt>
      <trkpt lat="49.82903" lon="4.79005">
        <ele>258</ele>
        <time>2022-09-28T07:30:25.000Z</time>
      </trkpt>
      <trkpt lat="49.82905" lon="4.79006">
        <ele>257</ele>
        <time>2022-09-28T07:30:26.000Z</time>
      </trkpt>
      <trkpt lat="49.82907" lon="4.79008">
        <ele>257</ele>
        <time>2022-09-28T07:30:27.000Z</time>
      </trkpt>
      <trkpt lat="49.82909" lon="4.79009">
        <ele>257</ele>
        <time>2022-09-28T07:30:28.000Z</time>
      </trkpt>
      <trkpt lat="49.8291" lon="4.79011">
        <ele>257</ele>
        <time>2022-09-28T07:30:29.000Z</time>
      </trkpt>
      <trkpt lat="49.82912" lon="4.79014">
        <ele>257</ele>
        <time>2022-09-28T07:30:30.000Z</time>
      </trkpt>
      <trkpt lat="49.82914" lon="4.79016">
        <ele>258</ele>
        <time>2022-09-28T07:30:31.000Z</time>
      </trkpt>
      <trkpt lat="49.82916" lon="4.79017">
        <ele>257</ele>
        <time>2022-09-28T07:30:32.000Z</time>
      </trkpt>
      <trkpt lat="49.82919" lon="4.79018">
        <ele>257</ele>
        <time>2022-09-28T07:30:33.000Z</time>
      </trkpt>
      <trkpt lat="49.82922" lon="4.7902">
        <ele>257</ele>
        <time>2022-09-28T07:30:34.000Z</time>
      </trkpt>
      <trkpt lat="49.82924" lon="4.79022">
        <ele>257</ele>
        <time>2022-09-28T07:30:35.000Z</time>
      </trkpt>
      <trkpt lat="49.82926" lon="4.79024">
        <ele>257</ele>
        <time>2022-09-28T07:30:36.000Z</time>
      </trkpt>
      <trkpt lat="49.82928" lon="4.79025">
        <ele>257</ele>
        <time>2022-09-28T07:30:37.000Z</time>
      </trkpt>
      <trkpt lat="49.82929" lon="4.79027">
        <ele>257</ele>
        <time>2022-09-28T07:30:38.000Z</time>
      </trkpt>
      <trkpt lat="49.8293" lon="4.79029">
        <ele>258</ele>
        <time>2022-09-28T07:30:39.000Z</time>
      </trkpt>
      <trkpt lat="49.82932" lon="4.79031">
        <ele>258</ele>
        <time>2022-09-28T07:30:40.000Z</time>
      </trkpt>
      <trkpt lat="49.82933" lon="4.79033">
        <ele>258</ele>
        <time>2022-09-28T07:30:41.000Z</time>
      </trkpt>
      <trkpt lat="49.82935" lon="4.79035">
        <ele>258</ele>
        <time>2022-09-28T07:30:42.000Z</time>
      </trkpt>
      <trkpt lat="49.82937" lon="4.79037">
        <ele>258</ele>
        <time>2022-09-28T07:30:43.000Z</time>
      </trkpt>
      <trkpt lat="49.82939" lon="4.79039">
        <ele>258</ele>
        <time>2022-09-28T07:30:44.000Z</time>
      </trkpt>
      <trkpt lat="49.82941" lon="4.79041">
        <ele>258</ele>
        <time>2022-09-28T07:30:45.000Z</time>
      </trkpt>
      <trkpt lat="49.82943" lon="4.79043">
        <ele>259</ele>
        <time>2022-09-28T07:30:46.000Z</time>
      </trkpt>
      <trkpt lat="49.82944" lon="4.79045">
        <ele>259</ele>
        <time>2022-09-28T07:30:47.000Z</time>
      </trkpt>
      <trkpt lat="49.82946" lon="4.79047">
        <ele>259</ele>
        <time>2022-09-28T07:30:48.000Z</time>
      </trkpt>
      <trkpt lat="49.82948" lon="4.7905">
        <ele>259</ele>
        <time>2022-09-28T07:30:49.000Z</time>
      </trkpt>
      <trkpt lat="49.82949" lon="4.79053">
        <ele>259</ele>
        <time>2022-09-28T07:30:50.000Z</time>
      </trkpt>
      <trkpt lat="49.82951" lon="4.79055">
        <ele>260</ele>
        <time>2022-09-28T07:30:51.000Z</time>
      </trkpt>
      <trkpt lat="49.82953" lon="4.79057">
        <ele>260</ele>
        <time>2022-09-28T07:30:52.000Z</time>
      </trkpt>
      <trkpt lat="49.82955" lon="4.79059">
        <ele>260</ele>
        <time>2022-09-28T07:30:53.000Z</time>
      </trkpt>
      <trkpt lat="49.82957" lon="4.79061">
        <ele>260</ele>
        <time>2022-09-28T07:30:54.000Z</time>
      </trkpt>
      <trkpt lat="49.82959" lon="4.79063">
        <ele>260</ele>
        <time>2022-09-28T07:30:55.000Z</time>
      </trkpt>
      <trkpt lat="49.82961" lon="4.79065">
        <ele>260</ele>
        <time>2022-09-28T07:30:56.000Z</time>
      </trkpt>
      <trkpt lat="49.82963" lon="4.79067">
        <ele>260</ele>
        <time>2022-09-28T07:30:57.000Z</time>
      </trkpt>
      <trkpt lat="49.82965" lon="4.79069">
        <ele>261</ele>
        <time>2022-09-28T07:30:58.000Z</time>
      </trkpt>
      <trkpt lat="49.82968" lon="4.79071">
        <ele>261</ele>
        <time>2022-09-28T07:30:59.000Z</time>
      </trkpt>
      <trkpt lat="49.8297" lon="4.79073">
        <ele>261</ele>
        <time>2022-09-28T07:31:00.000Z</time>
      </trkpt>
      <trkpt lat="49.82971" lon="4.79075">
        <ele>261</ele>
        <time>2022-09-28T07:31:01.000Z</time>
      </trkpt>
      <trkpt lat="49.82973" lon="4.79077">
        <ele>261</ele>
        <time>2022-09-28T07:31:02.000Z</time>
      </trkpt>
      <trkpt lat="49.82975" lon="4.79079">
        <ele>261</ele>
        <time>2022-09-28T07:31:03.000Z</time>
      </trkpt>
      <trkpt lat="49.82977" lon="4.7908">
        <ele>261</ele>
        <time>2022-09-28T07:31:04.000Z</time>
      </trkpt>
      <trkpt lat="49.82979" lon="4.79082">
        <ele>261</ele>
        <time>2022-09-28T07:31:05.000Z</time>
      </trkpt>
      <trkpt lat="49.82981" lon="4.79084">
        <ele>261</ele>
        <time>2022-09-28T07:31:06.000Z</time>
      </trkpt>
      <trkpt lat="49.82983" lon="4.79085">
        <ele>262</ele>
        <time>2022-09-28T07:31:07.000Z</time>
      </trkpt>
      <trkpt lat="49.82984" lon="4.79087">
        <ele>262</ele>
        <time>2022-09-28T07:31:08.000Z</time>
      </trkpt>
      <trkpt lat="49.82986" lon="4.79089">
        <ele>262</ele>
        <time>2022-09-28T07:31:09.000Z</time>
      </trkpt>
      <trkpt lat="49.82987" lon="4.79091">
        <ele>262</ele>
        <time>2022-09-28T07:31:10.000Z</time>
      </trkpt>
      <trkpt lat="49.82989" lon="4.79092">
        <ele>262</ele>
        <time>2022-09-28T07:31:11.000Z</time>
      </trkpt>
      <trkpt lat="49.82991" lon="4.79093">
        <ele>263</ele>
        <time>2022-09-28T07:31:12.000Z</time>
      </trkpt>
      <trkpt lat="49.82992" lon="4.79095">
        <ele>263</ele>
        <time>2022-09-28T07:31:13.000Z</time>
      </trkpt>
      <trkpt lat="49.82993" lon="4.79096">
        <ele>263</ele>
        <time>2022-09-28T07:31:14.000Z</time>
      </trkpt>
      <trkpt lat="49.82995" lon="4.79098">
        <ele>263</ele>
        <time>2022-09-28T07:31:15.000Z</time>
      </trkpt>
      <trkpt lat="49.82997" lon="4.79099">
        <ele>263</ele>
        <time>2022-09-28T07:31:16.000Z</time>
      </trkpt>
      <trkpt lat="49.82998" lon="4.791">
        <ele>264</ele>
        <time>2022-09-28T07:31:17.000Z</time>
      </trkpt>
      <trkpt lat="49.83001" lon="4.79101">
        <ele>264</ele>
        <time>2022-09-28T07:31:18.000Z</time>
      </trkpt>
      <trkpt lat="49.83002" lon="4.79102">
        <ele>264</ele>
        <time>2022-09-28T07:31:19.000Z</time>
      </trkpt>
      <trkpt lat="49.83004" lon="4.79102">
        <ele>264</ele>
        <time>2022-09-28T07:31:20.000Z</time>
      </trkpt>
      <trkpt lat="49.83006" lon="4.79103">
        <ele>265</ele>
        <time>2022-09-28T07:31:21.000Z</time>
      </trkpt>
      <trkpt lat="49.83009" lon="4.79103">
        <ele>265</ele>
        <time>2022-09-28T07:31:22.000Z</time>
      </trkpt>
      <trkpt lat="49.83011" lon="4.79103">
        <ele>265</ele>
        <time>2022-09-28T07:31:23.000Z</time>
      </trkpt>
      <trkpt lat="49.83013" lon="4.79103">
        <ele>266</ele>
        <time>2022-09-28T07:31:24.000Z</time>
      </trkpt>
      <trkpt lat="49.83016" lon="4.79103">
        <ele>266</ele>
        <time>2022-09-28T07:31:25.000Z</time>
      </trkpt>
      <trkpt lat="49.83018" lon="4.79104">
        <ele>267</ele>
        <time>2022-09-28T07:31:26.000Z</time>
      </trkpt>
      <trkpt lat="49.83021" lon="4.79105">
        <ele>267</ele>
        <time>2022-09-28T07:31:27.000Z</time>
      </trkpt>
      <trkpt lat="49.83024" lon="4.79106">
        <ele>267</ele>
        <time>2022-09-28T07:31:28.000Z</time>
      </trkpt>
      <trkpt lat="49.83026" lon="4.79107">
        <ele>268</ele>
        <time>2022-09-28T07:31:29.000Z</time>
      </trkpt>
      <trkpt lat="49.83029" lon="4.79109">
        <ele>268</ele>
        <time>2022-09-28T07:31:30.000Z</time>
      </trkpt>
      <trkpt lat="49.83031" lon="4.79111">
        <ele>268</ele>
        <time>2022-09-28T07:31:31.000Z</time>
      </trkpt>
      <trkpt lat="49.83034" lon="4.79113">
        <ele>269</ele>
        <time>2022-09-28T07:31:32.000Z</time>
      </trkpt>
      <trkpt lat="49.83036" lon="4.79116">
        <ele>269</ele>
        <time>2022-09-28T07:31:33.000Z</time>
      </trkpt>
      <trkpt lat="49.83039" lon="4.79119">
        <ele>269</ele>
        <time>2022-09-28T07:31:34.000Z</time>
      </trkpt>
      <trkpt lat="49.83041" lon="4.79122">
        <ele>269</ele>
        <time>2022-09-28T07:31:35.000Z</time>
      </trkpt>
      <trkpt lat="49.83043" lon="4.79125">
        <ele>270</ele>
        <time>2022-09-28T07:31:36.000Z</time>
      </trkpt>
      <trkpt lat="49.83045" lon="4.79128">
        <ele>270</ele>
        <time>2022-09-28T07:31:37.000Z</time>
      </trkpt>
      <trkpt lat="49.83047" lon="4.79132">
        <ele>270</ele>
        <time>2022-09-28T07:31:38.000Z</time>
      </trkpt>
      <trkpt lat="49.83048" lon="4.79135">
        <ele>271</ele>
        <time>2022-09-28T07:31:39.000Z</time>
      </trkpt>
      <trkpt lat="49.8305" lon="4.79139">
        <ele>271</ele>
        <time>2022-09-28T07:31:40.000Z</time>
      </trkpt>
      <trkpt lat="49.83052" lon="4.79143">
        <ele>271</ele>
        <time>2022-09-28T07:31:41.000Z</time>
      </trkpt>
      <trkpt lat="49.83054" lon="4.79146">
        <ele>271</ele>
        <time>2022-09-28T07:31:42.000Z</time>
      </trkpt>
      <trkpt lat="49.83055" lon="4.7915">
        <ele>271</ele>
        <time>2022-09-28T07:31:43.000Z</time>
      </trkpt>
      <trkpt lat="49.83057" lon="4.79154">
        <ele>271</ele>
        <time>2022-09-28T07:31:44.000Z</time>
      </trkpt>
      <trkpt lat="49.83058" lon="4.79158">
        <ele>272</ele>
        <time>2022-09-28T07:31:45.000Z</time>
      </trkpt>
      <trkpt lat="49.83059" lon="4.79162">
        <ele>272</ele>
        <time>2022-09-28T07:31:46.000Z</time>
      </trkpt>
      <trkpt lat="49.83059" lon="4.79165">
        <ele>272</ele>
        <time>2022-09-28T07:31:47.000Z</time>
      </trkpt>
      <trkpt lat="49.83061" lon="4.79169">
        <ele>272</ele>
        <time>2022-09-28T07:31:48.000Z</time>
      </trkpt>
      <trkpt lat="49.83062" lon="4.79172">
        <ele>272</ele>
        <time>2022-09-28T07:31:49.000Z</time>
      </trkpt>
      <trkpt lat="49.83063" lon="4.79175">
        <ele>273</ele>
        <time>2022-09-28T07:31:50.000Z</time>
      </trkpt>
      <trkpt lat="49.83064" lon="4.79179">
        <ele>273</ele>
        <time>2022-09-28T07:31:51.000Z</time>
      </trkpt>
      <trkpt lat="49.83066" lon="4.79183">
        <ele>273</ele>
        <time>2022-09-28T07:31:52.000Z</time>
      </trkpt>
      <trkpt lat="49.83067" lon="4.79186">
        <ele>273</ele>
        <time>2022-09-28T07:31:53.000Z</time>
      </trkpt>
      <trkpt lat="49.83068" lon="4.79189">
        <ele>274</ele>
        <time>2022-09-28T07:31:54.000Z</time>
      </trkpt>
      <trkpt lat="49.8307" lon="4.79192">
        <ele>274</ele>
        <time>2022-09-28T07:31:55.000Z</time>
      </trkpt>
      <trkpt lat="49.83071" lon="4.79195">
        <ele>274</ele>
        <time>2022-09-28T07:31:56.000Z</time>
      </trkpt>
      <trkpt lat="49.83073" lon="4.79198">
        <ele>274</ele>
        <time>2022-09-28T07:31:57.000Z</time>
      </trkpt>
      <trkpt lat="49.83074" lon="4.79201">
        <ele>274</ele>
        <time>2022-09-28T07:31:58.000Z</time>
      </trkpt>
      <trkpt lat="49.83075" lon="4.79205">
        <ele>275</ele>
        <time>2022-09-28T07:31:59.000Z</time>
      </trkpt>
      <trkpt lat="49.83077" lon="4.79208">
        <ele>275</ele>
        <time>2022-09-28T07:32:00.000Z</time>
      </trkpt>
      <trkpt lat="49.83079" lon="4.79211">
        <ele>275</ele>
        <time>2022-09-28T07:32:01.000Z</time>
      </trkpt>
      <trkpt lat="49.83081" lon="4.79213">
        <ele>276</ele>
        <time>2022-09-28T07:32:02.000Z</time>
      </trkpt>
      <trkpt lat="49.83083" lon="4.79214">
        <ele>276</ele>
        <time>2022-09-28T07:32:03.000Z</time>
      </trkpt>
      <trkpt lat="49.83085" lon="4.79215">
        <ele>276</ele>
        <time>2022-09-28T07:32:04.000Z</time>
      </trkpt>
      <trkpt lat="49.83088" lon="4.79215">
        <ele>277</ele>
        <time>2022-09-28T07:32:05.000Z</time>
      </trkpt>
      <trkpt lat="49.83089" lon="4.79215">
        <ele>277</ele>
        <time>2022-09-28T07:32:06.000Z</time>
      </trkpt>
      <trkpt lat="49.83092" lon="4.79214">
        <ele>277</ele>
        <time>2022-09-28T07:32:07.000Z</time>
      </trkpt>
      <trkpt lat="49.83094" lon="4.79213">
        <ele>277</ele>
        <time>2022-09-28T07:32:08.000Z</time>
      </trkpt>
      <trkpt lat="49.83096" lon="4.79212">
        <ele>278</ele>
        <time>2022-09-28T07:32:09.000Z</time>
      </trkpt>
      <trkpt lat="49.83099" lon="4.79212">
        <ele>278</ele>
        <time>2022-09-28T07:32:10.000Z</time>
      </trkpt>
      <trkpt lat="49.83102" lon="4.79211">
        <ele>278</ele>
        <time>2022-09-28T07:32:11.000Z</time>
      </trkpt>
      <trkpt lat="49.83104" lon="4.79211">
        <ele>279</ele>
        <time>2022-09-28T07:32:12.000Z</time>
      </trkpt>
      <trkpt lat="49.83107" lon="4.7921">
        <ele>279</ele>
        <time>2022-09-28T07:32:13.000Z</time>
      </trkpt>
      <trkpt lat="49.83111" lon="4.7921">
        <ele>279</ele>
        <time>2022-09-28T07:32:14.000Z</time>
      </trkpt>
      <trkpt lat="49.83113" lon="4.79211">
        <ele>279</ele>
        <time>2022-09-28T07:32:15.000Z</time>
      </trkpt>
      <trkpt lat="49.83116" lon="4.79212">
        <ele>280</ele>
        <time>2022-09-28T07:32:16.000Z</time>
      </trkpt>
      <trkpt lat="49.83119" lon="4.79213">
        <ele>280</ele>
        <time>2022-09-28T07:32:17.000Z</time>
      </trkpt>
      <trkpt lat="49.83122" lon="4.79214">
        <ele>280</ele>
        <time>2022-09-28T07:32:18.000Z</time>
      </trkpt>
      <trkpt lat="49.83124" lon="4.79215">
        <ele>281</ele>
        <time>2022-09-28T07:32:19.000Z</time>
      </trkpt>
      <trkpt lat="49.83127" lon="4.79216">
        <ele>281</ele>
        <time>2022-09-28T07:32:20.000Z</time>
      </trkpt>
      <trkpt lat="49.83129" lon="4.79217">
        <ele>281</ele>
        <time>2022-09-28T07:32:21.000Z</time>
      </trkpt>
      <trkpt lat="49.83132" lon="4.79218">
        <ele>281</ele>
        <time>2022-09-28T07:32:22.000Z</time>
      </trkpt>
      <trkpt lat="49.83133" lon="4.79219">
        <ele>282</ele>
        <time>2022-09-28T07:32:23.000Z</time>
      </trkpt>
      <trkpt lat="49.83135" lon="4.7922">
        <ele>282</ele>
        <time>2022-09-28T07:32:24.000Z</time>
      </trkpt>
      <trkpt lat="49.83137" lon="4.79221">
        <ele>282</ele>
        <time>2022-09-28T07:32:25.000Z</time>
      </trkpt>
      <trkpt lat="49.8314" lon="4.79221">
        <ele>282</ele>
        <time>2022-09-28T07:32:26.000Z</time>
      </trkpt>
      <trkpt lat="49.83142" lon="4.79222">
        <ele>282</ele>
        <time>2022-09-28T07:32:27.000Z</time>
      </trkpt>
      <trkpt lat="49.83145" lon="4.79222">
        <ele>282</ele>
        <time>2022-09-28T07:32:28.000Z</time>
      </trkpt>
      <trkpt lat="49.83147" lon="4.79222">
        <ele>282</ele>
        <time>2022-09-28T07:32:29.000Z</time>
      </trkpt>
      <trkpt lat="49.8315" lon="4.79223">
        <ele>283</ele>
        <time>2022-09-28T07:32:30.000Z</time>
      </trkpt>
      <trkpt lat="49.83153" lon="4.79223">
        <ele>283</ele>
        <time>2022-09-28T07:32:31.000Z</time>
      </trkpt>
      <trkpt lat="49.83155" lon="4.79223">
        <ele>283</ele>
        <time>2022-09-28T07:32:32.000Z</time>
      </trkpt>
      <trkpt lat="49.83158" lon="4.79223">
        <ele>283</ele>
        <time>2022-09-28T07:32:33.000Z</time>
      </trkpt>
      <trkpt lat="49.83161" lon="4.79223">
        <ele>284</ele>
        <time>2022-09-28T07:32:34.000Z</time>
      </trkpt>
      <trkpt lat="49.83163" lon="4.79223">
        <ele>284</ele>
        <time>2022-09-28T07:32:35.000Z</time>
      </trkpt>
      <trkpt lat="49.83166" lon="4.79222">
        <ele>284</ele>
        <time>2022-09-28T07:32:36.000Z</time>
      </trkpt>
      <trkpt lat="49.83169" lon="4.79221">
        <ele>285</ele>
        <time>2022-09-28T07:32:37.000Z</time>
      </trkpt>
      <trkpt lat="49.83171" lon="4.7922">
        <ele>285</ele>
        <time>2022-09-28T07:32:38.000Z</time>
      </trkpt>
      <trkpt lat="49.83174" lon="4.7922">
        <ele>285</ele>
        <time>2022-09-28T07:32:39.000Z</time>
      </trkpt>
      <trkpt lat="49.83176" lon="4.79218">
        <ele>286</ele>
        <time>2022-09-28T07:32:40.000Z</time>
      </trkpt>
      <trkpt lat="49.83179" lon="4.79217">
        <ele>286</ele>
        <time>2022-09-28T07:32:41.000Z</time>
      </trkpt>
      <trkpt lat="49.83181" lon="4.79216">
        <ele>286</ele>
        <time>2022-09-28T07:32:42.000Z</time>
      </trkpt>
      <trkpt lat="49.83183" lon="4.79213">
        <ele>286</ele>
        <time>2022-09-28T07:32:43.000Z</time>
      </trkpt>
      <trkpt lat="49.83186" lon="4.79211">
        <ele>287</ele>
        <time>2022-09-28T07:32:44.000Z</time>
      </trkpt>
      <trkpt lat="49.83188" lon="4.79209">
        <ele>287</ele>
        <time>2022-09-28T07:32:45.000Z</time>
      </trkpt>
      <trkpt lat="49.83189" lon="4.79206">
        <ele>287</ele>
        <time>2022-09-28T07:32:46.000Z</time>
      </trkpt>
      <trkpt lat="49.83191" lon="4.79203">
        <ele>287</ele>
        <time>2022-09-28T07:32:47.000Z</time>
      </trkpt>
      <trkpt lat="49.83193" lon="4.792">
        <ele>287</ele>
        <time>2022-09-28T07:32:48.000Z</time>
      </trkpt>
      <trkpt lat="49.83195" lon="4.79198">
        <ele>287</ele>
        <time>2022-09-28T07:32:49.000Z</time>
      </trkpt>
      <trkpt lat="49.83196" lon="4.79194">
        <ele>288</ele>
        <time>2022-09-28T07:32:50.000Z</time>
      </trkpt>
      <trkpt lat="49.83197" lon="4.79191">
        <ele>288</ele>
        <time>2022-09-28T07:32:51.000Z</time>
      </trkpt>
      <trkpt lat="49.83198" lon="4.79187">
        <ele>288</ele>
        <time>2022-09-28T07:32:52.000Z</time>
      </trkpt>
      <trkpt lat="49.83199" lon="4.79183">
        <ele>288</ele>
        <time>2022-09-28T07:32:53.000Z</time>
      </trkpt>
      <trkpt lat="49.832" lon="4.7918">
        <ele>288</ele>
        <time>2022-09-28T07:32:54.000Z</time>
      </trkpt>
      <trkpt lat="49.83201" lon="4.79177">
        <ele>288</ele>
        <time>2022-09-28T07:32:55.000Z</time>
      </trkpt>
      <trkpt lat="49.83202" lon="4.79173">
        <ele>289</ele>
        <time>2022-09-28T07:32:56.000Z</time>
      </trkpt>
      <trkpt lat="49.83204" lon="4.7917">
        <ele>289</ele>
        <time>2022-09-28T07:32:57.000Z</time>
      </trkpt>
      <trkpt lat="49.83204" lon="4.79167">
        <ele>289</ele>
        <time>2022-09-28T07:32:58.000Z</time>
      </trkpt>
      <trkpt lat="49.83205" lon="4.79163">
        <ele>289</ele>
        <time>2022-09-28T07:32:59.000Z</time>
      </trkpt>
      <trkpt lat="49.83205" lon="4.7916">
        <ele>290</ele>
        <time>2022-09-28T07:33:00.000Z</time>
      </trkpt>
      <trkpt lat="49.83206" lon="4.79157">
        <ele>290</ele>
        <time>2022-09-28T07:33:01.000Z</time>
      </trkpt>
      <trkpt lat="49.83207" lon="4.79154">
        <ele>290</ele>
        <time>2022-09-28T07:33:02.000Z</time>
      </trkpt>
      <trkpt lat="49.83209" lon="4.79151">
        <ele>291</ele>
        <time>2022-09-28T07:33:03.000Z</time>
      </trkpt>
      <trkpt lat="49.8321" lon="4.79148">
        <ele>291</ele>
        <time>2022-09-28T07:33:04.000Z</time>
      </trkpt>
      <trkpt lat="49.83211" lon="4.79144">
        <ele>291</ele>
        <time>2022-09-28T07:33:05.000Z</time>
      </trkpt>
      <trkpt lat="49.83212" lon="4.7914">
        <ele>291</ele>
        <time>2022-09-28T07:33:06.000Z</time>
      </trkpt>
      <trkpt lat="49.83213" lon="4.79136">
        <ele>292</ele>
        <time>2022-09-28T07:33:07.000Z</time>
      </trkpt>
      <trkpt lat="49.83213" lon="4.79132">
        <ele>292</ele>
        <time>2022-09-28T07:33:08.000Z</time>
      </trkpt>
      <trkpt lat="49.83215" lon="4.79129">
        <ele>293</ele>
        <time>2022-09-28T07:33:09.000Z</time>
      </trkpt>
      <trkpt lat="49.83217" lon="4.79125">
        <ele>293</ele>
        <time>2022-09-28T07:33:10.000Z</time>
      </trkpt>
      <trkpt lat="49.83219" lon="4.79121">
        <ele>293</ele>
        <time>2022-09-28T07:33:11.000Z</time>
      </trkpt>
      <trkpt lat="49.8322" lon="4.79118">
        <ele>293</ele>
        <time>2022-09-28T07:33:12.000Z</time>
      </trkpt>
      <trkpt lat="49.83221" lon="4.79114">
        <ele>294</ele>
        <time>2022-09-28T07:33:13.000Z</time>
      </trkpt>
      <trkpt lat="49.83222" lon="4.7911">
        <ele>294</ele>
        <time>2022-09-28T07:33:14.000Z</time>
      </trkpt>
      <trkpt lat="49.83223" lon="4.79107">
        <ele>294</ele>
        <time>2022-09-28T07:33:15.000Z</time>
      </trkpt>
      <trkpt lat="49.83224" lon="4.79104">
        <ele>295</ele>
        <time>2022-09-28T07:33:16.000Z</time>
      </trkpt>
      <trkpt lat="49.83225" lon="4.79102">
        <ele>295</ele>
        <time>2022-09-28T07:33:17.000Z</time>
      </trkpt>
      <trkpt lat="49.83227" lon="4.79099">
        <ele>295</ele>
        <time>2022-09-28T07:33:18.000Z</time>
      </trkpt>
      <trkpt lat="49.83229" lon="4.79096">
        <ele>295</ele>
        <time>2022-09-28T07:33:19.000Z</time>
      </trkpt>
      <trkpt lat="49.83231" lon="4.79094">
        <ele>296</ele>
        <time>2022-09-28T07:33:20.000Z</time>
      </trkpt>
      <trkpt lat="49.83233" lon="4.79092">
        <ele>296</ele>
        <time>2022-09-28T07:33:21.000Z</time>
      </trkpt>
      <trkpt lat="49.83236" lon="4.79089">
        <ele>297</ele>
        <time>2022-09-28T07:33:22.000Z</time>
      </trkpt>
      <trkpt lat="49.83238" lon="4.79088">
        <ele>297</ele>
        <time>2022-09-28T07:33:23.000Z</time>
      </trkpt>
      <trkpt lat="49.83241" lon="4.79086">
        <ele>297</ele>
        <time>2022-09-28T07:33:24.000Z</time>
      </trkpt>
      <trkpt lat="49.83244" lon="4.79085">
        <ele>298</ele>
        <time>2022-09-28T07:33:25.000Z</time>
      </trkpt>
      <trkpt lat="49.83247" lon="4.79084">
        <ele>298</ele>
        <time>2022-09-28T07:33:26.000Z</time>
      </trkpt>
      <trkpt lat="49.8325" lon="4.79084">
        <ele>298</ele>
        <time>2022-09-28T07:33:27.000Z</time>
      </trkpt>
      <trkpt lat="49.83254" lon="4.79084">
        <ele>298</ele>
        <time>2022-09-28T07:33:28.000Z</time>
      </trkpt>
      <trkpt lat="49.83258" lon="4.79084">
        <ele>299</ele>
        <time>2022-09-28T07:33:29.000Z</time>
      </trkpt>
      <trkpt lat="49.83261" lon="4.79085">
        <ele>299</ele>
        <time>2022-09-28T07:33:30.000Z</time>
      </trkpt>
      <trkpt lat="49.83264" lon="4.79086">
        <ele>299</ele>
        <time>2022-09-28T07:33:31.000Z</time>
      </trkpt>
      <trkpt lat="49.83268" lon="4.79087">
        <ele>299</ele>
        <time>2022-09-28T07:33:32.000Z</time>
      </trkpt>
      <trkpt lat="49.83272" lon="4.79087">
        <ele>300</ele>
        <time>2022-09-28T07:33:33.000Z</time>
      </trkpt>
      <trkpt lat="49.83277" lon="4.79088">
        <ele>300</ele>
        <time>2022-09-28T07:33:34.000Z</time>
      </trkpt>
      <trkpt lat="49.83281" lon="4.79088">
        <ele>300</ele>
        <time>2022-09-28T07:33:35.000Z</time>
      </trkpt>
      <trkpt lat="49.83285" lon="4.79087">
        <ele>300</ele>
        <time>2022-09-28T07:33:36.000Z</time>
      </trkpt>
      <trkpt lat="49.83289" lon="4.79086">
        <ele>300</ele>
        <time>2022-09-28T07:33:37.000Z</time>
      </trkpt>
      <trkpt lat="49.83294" lon="4.79084">
        <ele>300</ele>
        <time>2022-09-28T07:33:38.000Z</time>
      </trkpt>
      <trkpt lat="49.83299" lon="4.79083">
        <ele>300</ele>
        <time>2022-09-28T07:33:39.000Z</time>
      </trkpt>
      <trkpt lat="49.83304" lon="4.7908">
        <ele>300</ele>
        <time>2022-09-28T07:33:40.000Z</time>
      </trkpt>
      <trkpt lat="49.8331" lon="4.79076">
        <ele>300</ele>
        <time>2022-09-28T07:33:41.000Z</time>
      </trkpt>
      <trkpt lat="49.83315" lon="4.79071">
        <ele>300</ele>
        <time>2022-09-28T07:33:42.000Z</time>
      </trkpt>
      <trkpt lat="49.83319" lon="4.79065">
        <ele>300</ele>
        <time>2022-09-28T07:33:43.000Z</time>
      </trkpt>
      <trkpt lat="49.83324" lon="4.79059">
        <ele>300</ele>
        <time>2022-09-28T07:33:44.000Z</time>
      </trkpt>
      <trkpt lat="49.83328" lon="4.79051">
        <ele>300</ele>
        <time>2022-09-28T07:33:45.000Z</time>
      </trkpt>
      <trkpt lat="49.83332" lon="4.79043">
        <ele>300</ele>
        <time>2022-09-28T07:33:46.000Z</time>
      </trkpt>
      <trkpt lat="49.83336" lon="4.79035">
        <ele>300</ele>
        <time>2022-09-28T07:33:47.000Z</time>
      </trkpt>
      <trkpt lat="49.83339" lon="4.79026">
        <ele>300</ele>
        <time>2022-09-28T07:33:48.000Z</time>
      </trkpt>
      <trkpt lat="49.83342" lon="4.79017">
        <ele>299</ele>
        <time>2022-09-28T07:33:49.000Z</time>
      </trkpt>
      <trkpt lat="49.83346" lon="4.79009">
        <ele>299</ele>
        <time>2022-09-28T07:33:50.000Z</time>
      </trkpt>
      <trkpt lat="49.8335" lon="4.79001">
        <ele>299</ele>
        <time>2022-09-28T07:33:51.000Z</time>
      </trkpt>
      <trkpt lat="49.83354" lon="4.78994">
        <ele>299</ele>
        <time>2022-09-28T07:33:52.000Z</time>
      </trkpt>
      <trkpt lat="49.83359" lon="4.78986">
        <ele>299</ele>
        <time>2022-09-28T07:33:53.000Z</time>
      </trkpt>
      <trkpt lat="49.83362" lon="4.78978">
        <ele>298</ele>
        <time>2022-09-28T07:33:54.000Z</time>
      </trkpt>
      <trkpt lat="49.83366" lon="4.78971">
        <ele>298</ele>
        <time>2022-09-28T07:33:55.000Z</time>
      </trkpt>
      <trkpt lat="49.83369" lon="4.78963">
        <ele>298</ele>
        <time>2022-09-28T07:33:56.000Z</time>
      </trkpt>
      <trkpt lat="49.83372" lon="4.78957">
        <ele>298</ele>
        <time>2022-09-28T07:33:57.000Z</time>
      </trkpt>
      <trkpt lat="49.83375" lon="4.78951">
        <ele>298</ele>
        <time>2022-09-28T07:33:58.000Z</time>
      </trkpt>
      <trkpt lat="49.83378" lon="4.78945">
        <ele>297</ele>
        <time>2022-09-28T07:33:59.000Z</time>
      </trkpt>
      <trkpt lat="49.83382" lon="4.78939">
        <ele>297</ele>
        <time>2022-09-28T07:34:00.000Z</time>
      </trkpt>
      <trkpt lat="49.83386" lon="4.78934">
        <ele>297</ele>
        <time>2022-09-28T07:34:01.000Z</time>
      </trkpt>
      <trkpt lat="49.8339" lon="4.7893">
        <ele>297</ele>
        <time>2022-09-28T07:34:02.000Z</time>
      </trkpt>
      <trkpt lat="49.83393" lon="4.78926">
        <ele>297</ele>
        <time>2022-09-28T07:34:03.000Z</time>
      </trkpt>
      <trkpt lat="49.83396" lon="4.78922">
        <ele>297</ele>
        <time>2022-09-28T07:34:04.000Z</time>
      </trkpt>
      <trkpt lat="49.83399" lon="4.78918">
        <ele>298</ele>
        <time>2022-09-28T07:34:05.000Z</time>
      </trkpt>
      <trkpt lat="49.83402" lon="4.78915">
        <ele>298</ele>
        <time>2022-09-28T07:34:06.000Z</time>
      </trkpt>
      <trkpt lat="49.83405" lon="4.78912">
        <ele>298</ele>
        <time>2022-09-28T07:34:07.000Z</time>
      </trkpt>
      <trkpt lat="49.83409" lon="4.7891">
        <ele>298</ele>
        <time>2022-09-28T07:34:08.000Z</time>
      </trkpt>
      <trkpt lat="49.83412" lon="4.78908">
        <ele>298</ele>
        <time>2022-09-28T07:34:09.000Z</time>
      </trkpt>
      <trkpt lat="49.83415" lon="4.78906">
        <ele>299</ele>
        <time>2022-09-28T07:34:10.000Z</time>
      </trkpt>
      <trkpt lat="49.83418" lon="4.78904">
        <ele>299</ele>
        <time>2022-09-28T07:34:11.000Z</time>
      </trkpt>
      <trkpt lat="49.83421" lon="4.78902">
        <ele>299</ele>
        <time>2022-09-28T07:34:12.000Z</time>
      </trkpt>
      <trkpt lat="49.83424" lon="4.78901">
        <ele>300</ele>
        <time>2022-09-28T07:34:13.000Z</time>
      </trkpt>
      <trkpt lat="49.83427" lon="4.789">
        <ele>300</ele>
        <time>2022-09-28T07:34:14.000Z</time>
      </trkpt>
      <trkpt lat="49.8343" lon="4.789">
        <ele>300</ele>
        <time>2022-09-28T07:34:15.000Z</time>
      </trkpt>
      <trkpt lat="49.83432" lon="4.789">
        <ele>300</ele>
        <time>2022-09-28T07:34:16.000Z</time>
      </trkpt>
      <trkpt lat="49.83435" lon="4.78898">
        <ele>300</ele>
        <time>2022-09-28T07:34:17.000Z</time>
      </trkpt>
      <trkpt lat="49.83439" lon="4.78897">
        <ele>301</ele>
        <time>2022-09-28T07:34:18.000Z</time>
      </trkpt>
      <trkpt lat="49.83442" lon="4.78896">
        <ele>301</ele>
        <time>2022-09-28T07:34:19.000Z</time>
      </trkpt>
      <trkpt lat="49.83444" lon="4.78896">
        <ele>301</ele>
        <time>2022-09-28T07:34:20.000Z</time>
      </trkpt>
      <trkpt lat="49.83447" lon="4.78895">
        <ele>301</ele>
        <time>2022-09-28T07:34:21.000Z</time>
      </trkpt>
      <trkpt lat="49.8345" lon="4.78894">
        <ele>302</ele>
        <time>2022-09-28T07:34:22.000Z</time>
      </trkpt>
      <trkpt lat="49.83452" lon="4.78894">
        <ele>302</ele>
        <time>2022-09-28T07:34:23.000Z</time>
      </trkpt>
      <trkpt lat="49.83455" lon="4.78894">
        <ele>302</ele>
        <time>2022-09-28T07:34:24.000Z</time>
      </trkpt>
      <trkpt lat="49.83457" lon="4.78894">
        <ele>302</ele>
        <time>2022-09-28T07:34:25.000Z</time>
      </trkpt>
      <trkpt lat="49.8346" lon="4.78892">
        <ele>302</ele>
        <time>2022-09-28T07:34:26.000Z</time>
      </trkpt>
      <trkpt lat="49.83462" lon="4.7889">
        <ele>303</ele>
        <time>2022-09-28T07:34:27.000Z</time>
      </trkpt>
      <trkpt lat="49.83463" lon="4.78886">
        <ele>303</ele>
        <time>2022-09-28T07:34:28.000Z</time>
      </trkpt>
      <trkpt lat="49.83465" lon="4.78882">
        <ele>303</ele>
        <time>2022-09-28T07:34:29.000Z</time>
      </trkpt>
      <trkpt lat="49.83467" lon="4.78878">
        <ele>303</ele>
        <time>2022-09-28T07:34:30.000Z</time>
      </trkpt>
      <trkpt lat="49.83468" lon="4.78873">
        <ele>303</ele>
        <time>2022-09-28T07:34:31.000Z</time>
      </trkpt>
      <trkpt lat="49.8347" lon="4.78869">
        <ele>303</ele>
        <time>2022-09-28T07:34:32.000Z</time>
      </trkpt>
      <trkpt lat="49.83471" lon="4.78865">
        <ele>303</ele>
        <time>2022-09-28T07:34:33.000Z</time>
      </trkpt>
      <trkpt lat="49.83472" lon="4.7886">
        <ele>303</ele>
        <time>2022-09-28T07:34:34.000Z</time>
      </trkpt>
      <trkpt lat="49.83472" lon="4.78856">
        <ele>303</ele>
        <time>2022-09-28T07:34:35.000Z</time>
      </trkpt>
      <trkpt lat="49.83472" lon="4.78851">
        <ele>303</ele>
        <time>2022-09-28T07:34:36.000Z</time>
      </trkpt>
      <trkpt lat="49.83472" lon="4.78846">
        <ele>303</ele>
        <time>2022-09-28T07:34:37.000Z</time>
      </trkpt>
      <trkpt lat="49.83471" lon="4.78841">
        <ele>303</ele>
        <time>2022-09-28T07:34:38.000Z</time>
      </trkpt>
      <trkpt lat="49.83471" lon="4.78836">
        <ele>303</ele>
        <time>2022-09-28T07:34:39.000Z</time>
      </trkpt>
      <trkpt lat="49.83472" lon="4.78831">
        <ele>302</ele>
        <time>2022-09-28T07:34:40.000Z</time>
      </trkpt>
      <trkpt lat="49.83473" lon="4.78826">
        <ele>302</ele>
        <time>2022-09-28T07:34:41.000Z</time>
      </trkpt>
      <trkpt lat="49.83475" lon="4.78822">
        <ele>302</ele>
        <time>2022-09-28T07:34:42.000Z</time>
      </trkpt>
      <trkpt lat="49.83477" lon="4.78819">
        <ele>302</ele>
        <time>2022-09-28T07:34:43.000Z</time>
      </trkpt>
      <trkpt lat="49.8348" lon="4.78815">
        <ele>302</ele>
        <time>2022-09-28T07:34:44.000Z</time>
      </trkpt>
      <trkpt lat="49.83484" lon="4.78812">
        <ele>302</ele>
        <time>2022-09-28T07:34:45.000Z</time>
      </trkpt>
      <trkpt lat="49.83488" lon="4.7881">
        <ele>302</ele>
        <time>2022-09-28T07:34:46.000Z</time>
      </trkpt>
      <trkpt lat="49.83492" lon="4.78807">
        <ele>302</ele>
        <time>2022-09-28T07:34:47.000Z</time>
      </trkpt>
      <trkpt lat="49.83496" lon="4.78804">
        <ele>302</ele>
        <time>2022-09-28T07:34:48.000Z</time>
      </trkpt>
      <trkpt lat="49.835" lon="4.78801">
        <ele>302</ele>
        <time>2022-09-28T07:34:49.000Z</time>
      </trkpt>
      <trkpt lat="49.83503" lon="4.78797">
        <ele>302</ele>
        <time>2022-09-28T07:34:50.000Z</time>
      </trkpt>
      <trkpt lat="49.83507" lon="4.78794">
        <ele>302</ele>
        <time>2022-09-28T07:34:51.000Z</time>
      </trkpt>
      <trkpt lat="49.8351" lon="4.78791">
        <ele>302</ele>
        <time>2022-09-28T07:34:52.000Z</time>
      </trkpt>
      <trkpt lat="49.83512" lon="4.78788">
        <ele>302</ele>
        <time>2022-09-28T07:34:53.000Z</time>
      </trkpt>
      <trkpt lat="49.83514" lon="4.78784">
        <ele>302</ele>
        <time>2022-09-28T07:34:54.000Z</time>
      </trkpt>
      <trkpt lat="49.83516" lon="4.7878">
        <ele>302</ele>
        <time>2022-09-28T07:34:55.000Z</time>
      </trkpt>
      <trkpt lat="49.83518" lon="4.78777">
        <ele>302</ele>
        <time>2022-09-28T07:34:56.000Z</time>
      </trkpt>
      <trkpt lat="49.83519" lon="4.78773">
        <ele>301</ele>
        <time>2022-09-28T07:34:57.000Z</time>
      </trkpt>
      <trkpt lat="49.83521" lon="4.78771">
        <ele>301</ele>
        <time>2022-09-28T07:34:58.000Z</time>
      </trkpt>
      <trkpt lat="49.83521" lon="4.7877">
        <ele>301</ele>
        <time>2022-09-28T07:34:59.000Z</time>
      </trkpt>
      <trkpt lat="49.83522" lon="4.7877">
        <ele>301</ele>
        <time>2022-09-28T07:35:00.000Z</time>
      </trkpt>
      <trkpt lat="49.83523" lon="4.78771">
        <ele>301</ele>
        <time>2022-09-28T07:35:01.000Z</time>
      </trkpt>
      <trkpt lat="49.83524" lon="4.78772">
        <ele>301</ele>
        <time>2022-09-28T07:35:02.000Z</time>
      </trkpt>
      <trkpt lat="49.83525" lon="4.78772">
        <ele>300</ele>
        <time>2022-09-28T07:35:03.000Z</time>
      </trkpt>
      <trkpt lat="49.83525" lon="4.78771">
        <ele>300</ele>
        <time>2022-09-28T07:35:04.000Z</time>
      </trkpt>
      <trkpt lat="49.83526" lon="4.78771">
        <ele>300</ele>
        <time>2022-09-28T07:35:05.000Z</time>
      </trkpt>
      <trkpt lat="49.83527" lon="4.7877">
        <ele>300</ele>
        <time>2022-09-28T07:35:06.000Z</time>
      </trkpt>
      <trkpt lat="49.83529" lon="4.78769">
        <ele>300</ele>
        <time>2022-09-28T07:35:07.000Z</time>
      </trkpt>
      <trkpt lat="49.83531" lon="4.78768">
        <ele>300</ele>
        <time>2022-09-28T07:35:08.000Z</time>
      </trkpt>
      <trkpt lat="49.83533" lon="4.78768">
        <ele>300</ele>
        <time>2022-09-28T07:35:09.000Z</time>
      </trkpt>
      <trkpt lat="49.83535" lon="4.78767">
        <ele>300</ele>
        <time>2022-09-28T07:35:10.000Z</time>
      </trkpt>
      <trkpt lat="49.83536" lon="4.78766">
        <ele>300</ele>
        <time>2022-09-28T07:35:11.000Z</time>
      </trkpt>
      <trkpt lat="49.83538" lon="4.78766">
        <ele>300</ele>
        <time>2022-09-28T07:35:12.000Z</time>
      </trkpt>
      <trkpt lat="49.8354" lon="4.78766">
        <ele>300</ele>
        <time>2022-09-28T07:35:13.000Z</time>
      </trkpt>
      <trkpt lat="49.83542" lon="4.78766">
        <ele>299</ele>
        <time>2022-09-28T07:35:14.000Z</time>
      </trkpt>
      <trkpt lat="49.83544" lon="4.78765">
        <ele>299</ele>
        <time>2022-09-28T07:35:15.000Z</time>
      </trkpt>
      <trkpt lat="49.83546" lon="4.78764">
        <ele>299</ele>
        <time>2022-09-28T07:35:16.000Z</time>
      </trkpt>
      <trkpt lat="49.83548" lon="4.78763">
        <ele>299</ele>
        <time>2022-09-28T07:35:17.000Z</time>
      </trkpt>
      <trkpt lat="49.8355" lon="4.78762">
        <ele>299</ele>
        <time>2022-09-28T07:35:18.000Z</time>
      </trkpt>
      <trkpt lat="49.83552" lon="4.7876">
        <ele>299</ele>
        <time>2022-09-28T07:35:19.000Z</time>
      </trkpt>
      <trkpt lat="49.83555" lon="4.78759">
        <ele>299</ele>
        <time>2022-09-28T07:35:20.000Z</time>
      </trkpt>
      <trkpt lat="49.83557" lon="4.78757">
        <ele>299</ele>
        <time>2022-09-28T07:35:21.000Z</time>
      </trkpt>
      <trkpt lat="49.8356" lon="4.78755">
        <ele>299</ele>
        <time>2022-09-28T07:35:22.000Z</time>
      </trkpt>
      <trkpt lat="49.83562" lon="4.78754">
        <ele>299</ele>
        <time>2022-09-28T07:35:23.000Z</time>
      </trkpt>
      <trkpt lat="49.83564" lon="4.78752">
        <ele>299</ele>
        <time>2022-09-28T07:35:24.000Z</time>
      </trkpt>
      <trkpt lat="49.83566" lon="4.78751">
        <ele>300</ele>
        <time>2022-09-28T07:35:25.000Z</time>
      </trkpt>
      <trkpt lat="49.83568" lon="4.7875">
        <ele>300</ele>
        <time>2022-09-28T07:35:26.000Z</time>
      </trkpt>
      <trkpt lat="49.8357" lon="4.78749">
        <ele>300</ele>
        <time>2022-09-28T07:35:27.000Z</time>
      </trkpt>
      <trkpt lat="49.83572" lon="4.78747">
        <ele>300</ele>
        <time>2022-09-28T07:35:28.000Z</time>
      </trkpt>
      <trkpt lat="49.83574" lon="4.78746">
        <ele>300</ele>
        <time>2022-09-28T07:35:29.000Z</time>
      </trkpt>
      <trkpt lat="49.83576" lon="4.78745">
        <ele>300</ele>
        <time>2022-09-28T07:35:30.000Z</time>
      </trkpt>
      <trkpt lat="49.83578" lon="4.78744">
        <ele>300</ele>
        <time>2022-09-28T07:35:31.000Z</time>
      </trkpt>
      <trkpt lat="49.8358" lon="4.78742">
        <ele>300</ele>
        <time>2022-09-28T07:35:32.000Z</time>
      </trkpt>
      <trkpt lat="49.83582" lon="4.78741">
        <ele>300</ele>
        <time>2022-09-28T07:35:33.000Z</time>
      </trkpt>
      <trkpt lat="49.83585" lon="4.7874">
        <ele>300</ele>
        <time>2022-09-28T07:35:34.000Z</time>
      </trkpt>
      <trkpt lat="49.83587" lon="4.78739">
        <ele>300</ele>
        <time>2022-09-28T07:35:35.000Z</time>
      </trkpt>
      <trkpt lat="49.8359" lon="4.78738">
        <ele>300</ele>
        <time>2022-09-28T07:35:36.000Z</time>
      </trkpt>
      <trkpt lat="49.83592" lon="4.78736">
        <ele>300</ele>
        <time>2022-09-28T07:35:37.000Z</time>
      </trkpt>
      <trkpt lat="49.83595" lon="4.78736">
        <ele>300</ele>
        <time>2022-09-28T07:35:38.000Z</time>
      </trkpt>
      <trkpt lat="49.83598" lon="4.78735">
        <ele>300</ele>
        <time>2022-09-28T07:35:39.000Z</time>
      </trkpt>
      <trkpt lat="49.836" lon="4.78734">
        <ele>300</ele>
        <time>2022-09-28T07:35:40.000Z</time>
      </trkpt>
      <trkpt lat="49.83603" lon="4.78734">
        <ele>300</ele>
        <time>2022-09-28T07:35:41.000Z</time>
      </trkpt>
      <trkpt lat="49.83606" lon="4.78733">
        <ele>300</ele>
        <time>2022-09-28T07:35:42.000Z</time>
      </trkpt>
      <trkpt lat="49.83609" lon="4.78733">
        <ele>300</ele>
        <time>2022-09-28T07:35:43.000Z</time>
      </trkpt>
      <trkpt lat="49.83611" lon="4.78733">
        <ele>300</ele>
        <time>2022-09-28T07:35:44.000Z</time>
      </trkpt>
      <trkpt lat="49.83614" lon="4.78732">
        <ele>301</ele>
        <time>2022-09-28T07:35:45.000Z</time>
      </trkpt>
      <trkpt lat="49.83616" lon="4.78732">
        <ele>301</ele>
        <time>2022-09-28T07:35:46.000Z</time>
      </trkpt>
      <trkpt lat="49.83619" lon="4.78733">
        <ele>301</ele>
        <time>2022-09-28T07:35:47.000Z</time>
      </trkpt>
      <trkpt lat="49.83622" lon="4.78733">
        <ele>301</ele>
        <time>2022-09-28T07:35:48.000Z</time>
      </trkpt>
      <trkpt lat="49.83624" lon="4.78733">
        <ele>301</ele>
        <time>2022-09-28T07:35:49.000Z</time>
      </trkpt>
      <trkpt lat="49.83626" lon="4.78734">
        <ele>301</ele>
        <time>2022-09-28T07:35:50.000Z</time>
      </trkpt>
      <trkpt lat="49.83628" lon="4.78734">
        <ele>301</ele>
        <time>2022-09-28T07:35:51.000Z</time>
      </trkpt>
      <trkpt lat="49.8363" lon="4.78735">
        <ele>301</ele>
        <time>2022-09-28T07:35:52.000Z</time>
      </trkpt>
      <trkpt lat="49.83632" lon="4.78735">
        <ele>301</ele>
        <time>2022-09-28T07:35:53.000Z</time>
      </trkpt>
      <trkpt lat="49.83634" lon="4.78736">
        <ele>301</ele>
        <time>2022-09-28T07:35:54.000Z</time>
      </trkpt>
      <trkpt lat="49.83636" lon="4.78736">
        <ele>301</ele>
        <time>2022-09-28T07:35:55.000Z</time>
      </trkpt>
      <trkpt lat="49.83638" lon="4.78737">
        <ele>301</ele>
        <time>2022-09-28T07:35:56.000Z</time>
      </trkpt>
      <trkpt lat="49.8364" lon="4.78737">
        <ele>302</ele>
        <time>2022-09-28T07:35:57.000Z</time>
      </trkpt>
      <trkpt lat="49.83642" lon="4.78738">
        <ele>302</ele>
        <time>2022-09-28T07:35:58.000Z</time>
      </trkpt>
      <trkpt lat="49.83644" lon="4.78738">
        <ele>302</ele>
        <time>2022-09-28T07:35:59.000Z</time>
      </trkpt>
      <trkpt lat="49.83646" lon="4.78739">
        <ele>302</ele>
        <time>2022-09-28T07:36:00.000Z</time>
      </trkpt>
      <trkpt lat="49.83648" lon="4.7874">
        <ele>302</ele>
        <time>2022-09-28T07:36:01.000Z</time>
      </trkpt>
      <trkpt lat="49.8365" lon="4.7874">
        <ele>302</ele>
        <time>2022-09-28T07:36:02.000Z</time>
      </trkpt>
      <trkpt lat="49.83653" lon="4.78741">
        <ele>303</ele>
        <time>2022-09-28T07:36:03.000Z</time>
      </trkpt>
      <trkpt lat="49.83655" lon="4.78741">
        <ele>303</ele>
        <time>2022-09-28T07:36:04.000Z</time>
      </trkpt>
      <trkpt lat="49.83657" lon="4.78742">
        <ele>303</ele>
        <time>2022-09-28T07:36:05.000Z</time>
      </trkpt>
      <trkpt lat="49.83659" lon="4.78743">
        <ele>303</ele>
        <time>2022-09-28T07:36:06.000Z</time>
      </trkpt>
      <trkpt lat="49.83661" lon="4.78744">
        <ele>303</ele>
        <time>2022-09-28T07:36:07.000Z</time>
      </trkpt>
      <trkpt lat="49.83663" lon="4.78745">
        <ele>303</ele>
        <time>2022-09-28T07:36:08.000Z</time>
      </trkpt>
      <trkpt lat="49.83666" lon="4.78746">
        <ele>303</ele>
        <time>2022-09-28T07:36:09.000Z</time>
      </trkpt>
      <trkpt lat="49.83668" lon="4.78748">
        <ele>304</ele>
        <time>2022-09-28T07:36:10.000Z</time>
      </trkpt>
      <trkpt lat="49.8367" lon="4.78749">
        <ele>304</ele>
        <time>2022-09-28T07:36:11.000Z</time>
      </trkpt>
      <trkpt lat="49.83672" lon="4.7875">
        <ele>304</ele>
        <time>2022-09-28T07:36:12.000Z</time>
      </trkpt>
      <trkpt lat="49.83674" lon="4.78751">
        <ele>304</ele>
        <time>2022-09-28T07:36:13.000Z</time>
      </trkpt>
      <trkpt lat="49.83677" lon="4.78752">
        <ele>304</ele>
        <time>2022-09-28T07:36:14.000Z</time>
      </trkpt>
      <trkpt lat="49.83679" lon="4.78754">
        <ele>304</ele>
        <time>2022-09-28T07:36:15.000Z</time>
      </trkpt>
      <trkpt lat="49.83681" lon="4.78756">
        <ele>305</ele>
        <time>2022-09-28T07:36:16.000Z</time>
      </trkpt>
      <trkpt lat="49.83684" lon="4.78758">
        <ele>305</ele>
        <time>2022-09-28T07:36:17.000Z</time>
      </trkpt>
      <trkpt lat="49.83686" lon="4.7876">
        <ele>305</ele>
        <time>2022-09-28T07:36:18.000Z</time>
      </trkpt>
      <trkpt lat="49.83689" lon="4.78763">
        <ele>305</ele>
        <time>2022-09-28T07:36:19.000Z</time>
      </trkpt>
      <trkpt lat="49.83691" lon="4.78765">
        <ele>305</ele>
        <time>2022-09-28T07:36:20.000Z</time>
      </trkpt>
      <trkpt lat="49.83694" lon="4.78767">
        <ele>305</ele>
        <time>2022-09-28T07:36:21.000Z</time>
      </trkpt>
      <trkpt lat="49.83696" lon="4.78769">
        <ele>305</ele>
        <time>2022-09-28T07:36:22.000Z</time>
      </trkpt>
      <trkpt lat="49.83698" lon="4.78771">
        <ele>306</ele>
        <time>2022-09-28T07:36:23.000Z</time>
      </trkpt>
      <trkpt lat="49.837" lon="4.78772">
        <ele>306</ele>
        <time>2022-09-28T07:36:24.000Z</time>
      </trkpt>
      <trkpt lat="49.83702" lon="4.78773">
        <ele>306</ele>
        <time>2022-09-28T07:36:25.000Z</time>
      </trkpt>
      <trkpt lat="49.83704" lon="4.78774">
        <ele>306</ele>
        <time>2022-09-28T07:36:26.000Z</time>
      </trkpt>
      <trkpt lat="49.83706" lon="4.78775">
        <ele>306</ele>
        <time>2022-09-28T07:36:27.000Z</time>
      </trkpt>
      <trkpt lat="49.83708" lon="4.78776">
        <ele>307</ele>
        <time>2022-09-28T07:36:28.000Z</time>
      </trkpt>
      <trkpt lat="49.8371" lon="4.78777">
        <ele>307</ele>
        <time>2022-09-28T07:36:29.000Z</time>
      </trkpt>
      <trkpt lat="49.83712" lon="4.78778">
        <ele>307</ele>
        <time>2022-09-28T07:36:30.000Z</time>
      </trkpt>
      <trkpt lat="49.83714" lon="4.78779">
        <ele>307</ele>
        <time>2022-09-28T07:36:31.000Z</time>
      </trkpt>
      <trkpt lat="49.83716" lon="4.7878">
        <ele>307</ele>
        <time>2022-09-28T07:36:32.000Z</time>
      </trkpt>
      <trkpt lat="49.83718" lon="4.78781">
        <ele>308</ele>
        <time>2022-09-28T07:36:33.000Z</time>
      </trkpt>
      <trkpt lat="49.8372" lon="4.78782">
        <ele>308</ele>
        <time>2022-09-28T07:36:34.000Z</time>
      </trkpt>
      <trkpt lat="49.83722" lon="4.78782">
        <ele>308</ele>
        <time>2022-09-28T07:36:35.000Z</time>
      </trkpt>
      <trkpt lat="49.83724" lon="4.78783">
        <ele>308</ele>
        <time>2022-09-28T07:36:36.000Z</time>
      </trkpt>
      <trkpt lat="49.83726" lon="4.78783">
        <ele>308</ele>
        <time>2022-09-28T07:36:37.000Z</time>
      </trkpt>
      <trkpt lat="49.83728" lon="4.78784">
        <ele>308</ele>
        <time>2022-09-28T07:36:38.000Z</time>
      </trkpt>
      <trkpt lat="49.8373" lon="4.78784">
        <ele>309</ele>
        <time>2022-09-28T07:36:39.000Z</time>
      </trkpt>
      <trkpt lat="49.83732" lon="4.78785">
        <ele>309</ele>
        <time>2022-09-28T07:36:40.000Z</time>
      </trkpt>
      <trkpt lat="49.83734" lon="4.78786">
        <ele>309</ele>
        <time>2022-09-28T07:36:41.000Z</time>
      </trkpt>
      <trkpt lat="49.83736" lon="4.78786">
        <ele>309</ele>
        <time>2022-09-28T07:36:42.000Z</time>
      </trkpt>
      <trkpt lat="49.83738" lon="4.78787">
        <ele>309</ele>
        <time>2022-09-28T07:36:43.000Z</time>
      </trkpt>
      <trkpt lat="49.8374" lon="4.78788">
        <ele>309</ele>
        <time>2022-09-28T07:36:44.000Z</time>
      </trkpt>
      <trkpt lat="49.83743" lon="4.78789">
        <ele>310</ele>
        <time>2022-09-28T07:36:45.000Z</time>
      </trkpt>
      <trkpt lat="49.83745" lon="4.78791">
        <ele>310</ele>
        <time>2022-09-28T07:36:46.000Z</time>
      </trkpt>
      <trkpt lat="49.83747" lon="4.78793">
        <ele>310</ele>
        <time>2022-09-28T07:36:47.000Z</time>
      </trkpt>
      <trkpt lat="49.83749" lon="4.78796">
        <ele>310</ele>
        <time>2022-09-28T07:36:48.000Z</time>
      </trkpt>
      <trkpt lat="49.83751" lon="4.78798">
        <ele>310</ele>
        <time>2022-09-28T07:36:49.000Z</time>
      </trkpt>
      <trkpt lat="49.83753" lon="4.78801">
        <ele>310</ele>
        <time>2022-09-28T07:36:50.000Z</time>
      </trkpt>
      <trkpt lat="49.83756" lon="4.78804">
        <ele>310</ele>
        <time>2022-09-28T07:36:51.000Z</time>
      </trkpt>
      <trkpt lat="49.83758" lon="4.78806">
        <ele>311</ele>
        <time>2022-09-28T07:36:52.000Z</time>
      </trkpt>
      <trkpt lat="49.8376" lon="4.78809">
        <ele>311</ele>
        <time>2022-09-28T07:36:53.000Z</time>
      </trkpt>
      <trkpt lat="49.83763" lon="4.78811">
        <ele>311</ele>
        <time>2022-09-28T07:36:54.000Z</time>
      </trkpt>
      <trkpt lat="49.83765" lon="4.78814">
        <ele>311</ele>
        <time>2022-09-28T07:36:55.000Z</time>
      </trkpt>
      <trkpt lat="49.83768" lon="4.78817">
        <ele>311</ele>
        <time>2022-09-28T07:36:56.000Z</time>
      </trkpt>
      <trkpt lat="49.83771" lon="4.7882">
        <ele>311</ele>
        <time>2022-09-28T07:36:57.000Z</time>
      </trkpt>
      <trkpt lat="49.83774" lon="4.78822">
        <ele>311</ele>
        <time>2022-09-28T07:36:58.000Z</time>
      </trkpt>
      <trkpt lat="49.83777" lon="4.78823">
        <ele>311</ele>
        <time>2022-09-28T07:36:59.000Z</time>
      </trkpt>
      <trkpt lat="49.8378" lon="4.78824">
        <ele>311</ele>
        <time>2022-09-28T07:37:00.000Z</time>
      </trkpt>
      <trkpt lat="49.83782" lon="4.78824">
        <ele>311</ele>
        <time>2022-09-28T07:37:01.000Z</time>
      </trkpt>
      <trkpt lat="49.83784" lon="4.78824">
        <ele>311</ele>
        <time>2022-09-28T07:37:02.000Z</time>
      </trkpt>
      <trkpt lat="49.83786" lon="4.78825">
        <ele>311</ele>
        <time>2022-09-28T07:37:03.000Z</time>
      </trkpt>
      <trkpt lat="49.83788" lon="4.78825">
        <ele>311</ele>
        <time>2022-09-28T07:37:04.000Z</time>
      </trkpt>
      <trkpt lat="49.8379" lon="4.78825">
        <ele>311</ele>
        <time>2022-09-28T07:37:05.000Z</time>
      </trkpt>
      <trkpt lat="49.83792" lon="4.78826">
        <ele>312</ele>
        <time>2022-09-28T07:37:06.000Z</time>
      </trkpt>
      <trkpt lat="49.83794" lon="4.78826">
        <ele>312</ele>
        <time>2022-09-28T07:37:07.000Z</time>
      </trkpt>
      <trkpt lat="49.83797" lon="4.78826">
        <ele>312</ele>
        <time>2022-09-28T07:37:08.000Z</time>
      </trkpt>
      <trkpt lat="49.83799" lon="4.78826">
        <ele>312</ele>
        <time>2022-09-28T07:37:09.000Z</time>
      </trkpt>
      <trkpt lat="49.83801" lon="4.78827">
        <ele>312</ele>
        <time>2022-09-28T07:37:10.000Z</time>
      </trkpt>
      <trkpt lat="49.83802" lon="4.78827">
        <ele>313</ele>
        <time>2022-09-28T07:37:11.000Z</time>
      </trkpt>
      <trkpt lat="49.83804" lon="4.78827">
        <ele>313</ele>
        <time>2022-09-28T07:37:12.000Z</time>
      </trkpt>
      <trkpt lat="49.83806" lon="4.78827">
        <ele>313</ele>
        <time>2022-09-28T07:37:13.000Z</time>
      </trkpt>
      <trkpt lat="49.83808" lon="4.78827">
        <ele>313</ele>
        <time>2022-09-28T07:37:14.000Z</time>
      </trkpt>
      <trkpt lat="49.8381" lon="4.78828">
        <ele>314</ele>
        <time>2022-09-28T07:37:15.000Z</time>
      </trkpt>
      <trkpt lat="49.83811" lon="4.78828">
        <ele>314</ele>
        <time>2022-09-28T07:37:16.000Z</time>
      </trkpt>
      <trkpt lat="49.83813" lon="4.78828">
        <ele>314</ele>
        <time>2022-09-28T07:37:17.000Z</time>
      </trkpt>
      <trkpt lat="49.83815" lon="4.78829">
        <ele>314</ele>
        <time>2022-09-28T07:37:18.000Z</time>
      </trkpt>
      <trkpt lat="49.83816" lon="4.78829">
        <ele>315</ele>
        <time>2022-09-28T07:37:19.000Z</time>
      </trkpt>
      <trkpt lat="49.83817" lon="4.78829">
        <ele>315</ele>
        <time>2022-09-28T07:37:20.000Z</time>
      </trkpt>
      <trkpt lat="49.83817" lon="4.78829">
        <ele>315</ele>
        <time>2022-09-28T07:37:21.000Z</time>
      </trkpt>
      <trkpt lat="49.83818" lon="4.78829">
        <ele>315</ele>
        <time>2022-09-28T07:37:22.000Z</time>
      </trkpt>
      <trkpt lat="49.8382" lon="4.78829">
        <ele>315</ele>
        <time>2022-09-28T07:37:23.000Z</time>
      </trkpt>
      <trkpt lat="49.83821" lon="4.7883">
        <ele>316</ele>
        <time>2022-09-28T07:37:24.000Z</time>
      </trkpt>
      <trkpt lat="49.83822" lon="4.7883">
        <ele>316</ele>
        <time>2022-09-28T07:37:25.000Z</time>
      </trkpt>
      <trkpt lat="49.83824" lon="4.78831">
        <ele>316</ele>
        <time>2022-09-28T07:37:26.000Z</time>
      </trkpt>
      <trkpt lat="49.83826" lon="4.78831">
        <ele>316</ele>
        <time>2022-09-28T07:37:27.000Z</time>
      </trkpt>
      <trkpt lat="49.83828" lon="4.78832">
        <ele>317</ele>
        <time>2022-09-28T07:37:28.000Z</time>
      </trkpt>
      <trkpt lat="49.83829" lon="4.78832">
        <ele>317</ele>
        <time>2022-09-28T07:37:29.000Z</time>
      </trkpt>
      <trkpt lat="49.83831" lon="4.78833">
        <ele>317</ele>
        <time>2022-09-28T07:37:30.000Z</time>
      </trkpt>
      <trkpt lat="49.83833" lon="4.78833">
        <ele>317</ele>
        <time>2022-09-28T07:37:31.000Z</time>
      </trkpt>
      <trkpt lat="49.83835" lon="4.78833">
        <ele>317</ele>
        <time>2022-09-28T07:37:32.000Z</time>
      </trkpt>
      <trkpt lat="49.83837" lon="4.78834">
        <ele>318</ele>
        <time>2022-09-28T07:37:33.000Z</time>
      </trkpt>
      <trkpt lat="49.83839" lon="4.78834">
        <ele>318</ele>
        <time>2022-09-28T07:37:34.000Z</time>
      </trkpt>
      <trkpt lat="49.83841" lon="4.78834">
        <ele>318</ele>
        <time>2022-09-28T07:37:35.000Z</time>
      </trkpt>
      <trkpt lat="49.83843" lon="4.78835">
        <ele>318</ele>
        <time>2022-09-28T07:37:36.000Z</time>
      </trkpt>
      <trkpt lat="49.83845" lon="4.78835">
        <ele>318</ele>
        <time>2022-09-28T07:37:37.000Z</time>
      </trkpt>
      <trkpt lat="49.83847" lon="4.78835">
        <ele>319</ele>
        <time>2022-09-28T07:37:38.000Z</time>
      </trkpt>
      <trkpt lat="49.83849" lon="4.78835">
        <ele>319</ele>
        <time>2022-09-28T07:37:39.000Z</time>
      </trkpt>
      <trkpt lat="49.83851" lon="4.78836">
        <ele>319</ele>
        <time>2022-09-28T07:37:40.000Z</time>
      </trkpt>
      <trkpt lat="49.83853" lon="4.78836">
        <ele>319</ele>
        <time>2022-09-28T07:37:41.000Z</time>
      </trkpt>
      <trkpt lat="49.83854" lon="4.78837">
        <ele>319</ele>
        <time>2022-09-28T07:37:42.000Z</time>
      </trkpt>
      <trkpt lat="49.83856" lon="4.78837">
        <ele>320</ele>
        <time>2022-09-28T07:37:43.000Z</time>
      </trkpt>
      <trkpt lat="49.83858" lon="4.78837">
        <ele>320</ele>
        <time>2022-09-28T07:37:44.000Z</time>
      </trkpt>
      <trkpt lat="49.8386" lon="4.78837">
        <ele>320</ele>
        <time>2022-09-28T07:37:45.000Z</time>
      </trkpt>
      <trkpt lat="49.83862" lon="4.78838">
        <ele>320</ele>
        <time>2022-09-28T07:37:46.000Z</time>
      </trkpt>
      <trkpt lat="49.83864" lon="4.78838">
        <ele>321</ele>
        <time>2022-09-28T07:37:47.000Z</time>
      </trkpt>
      <trkpt lat="49.83866" lon="4.78839">
        <ele>321</ele>
        <time>2022-09-28T07:37:48.000Z</time>
      </trkpt>
      <trkpt lat="49.83868" lon="4.78839">
        <ele>321</ele>
        <time>2022-09-28T07:37:49.000Z</time>
      </trkpt>
      <trkpt lat="49.8387" lon="4.7884">
        <ele>321</ele>
        <time>2022-09-28T07:37:50.000Z</time>
      </trkpt>
      <trkpt lat="49.83872" lon="4.7884">
        <ele>322</ele>
        <time>2022-09-28T07:37:51.000Z</time>
      </trkpt>
      <trkpt lat="49.83874" lon="4.78841">
        <ele>322</ele>
        <time>2022-09-28T07:37:52.000Z</time>
      </trkpt>
      <trkpt lat="49.83876" lon="4.78841">
        <ele>322</ele>
        <time>2022-09-28T07:37:53.000Z</time>
      </trkpt>
      <trkpt lat="49.83878" lon="4.78841">
        <ele>322</ele>
        <time>2022-09-28T07:37:54.000Z</time>
      </trkpt>
      <trkpt lat="49.8388" lon="4.78842">
        <ele>322</ele>
        <time>2022-09-28T07:37:55.000Z</time>
      </trkpt>
      <trkpt lat="49.83882" lon="4.78842">
        <ele>323</ele>
        <time>2022-09-28T07:37:56.000Z</time>
      </trkpt>
      <trkpt lat="49.83884" lon="4.78842">
        <ele>323</ele>
        <time>2022-09-28T07:37:57.000Z</time>
      </trkpt>
      <trkpt lat="49.83887" lon="4.78843">
        <ele>323</ele>
        <time>2022-09-28T07:37:58.000Z</time>
      </trkpt>
      <trkpt lat="49.83889" lon="4.78843">
        <ele>323</ele>
        <time>2022-09-28T07:37:59.000Z</time>
      </trkpt>
      <trkpt lat="49.83891" lon="4.78844">
        <ele>323</ele>
        <time>2022-09-28T07:38:00.000Z</time>
      </trkpt>
      <trkpt lat="49.83893" lon="4.78844">
        <ele>324</ele>
        <time>2022-09-28T07:38:01.000Z</time>
      </trkpt>
      <trkpt lat="49.83895" lon="4.78844">
        <ele>324</ele>
        <time>2022-09-28T07:38:02.000Z</time>
      </trkpt>
      <trkpt lat="49.83897" lon="4.78845">
        <ele>324</ele>
        <time>2022-09-28T07:38:03.000Z</time>
      </trkpt>
      <trkpt lat="49.83899" lon="4.78845">
        <ele>324</ele>
        <time>2022-09-28T07:38:04.000Z</time>
      </trkpt>
      <trkpt lat="49.83901" lon="4.78845">
        <ele>324</ele>
        <time>2022-09-28T07:38:05.000Z</time>
      </trkpt>
      <trkpt lat="49.83902" lon="4.78846">
        <ele>325</ele>
        <time>2022-09-28T07:38:06.000Z</time>
      </trkpt>
      <trkpt lat="49.83904" lon="4.78846">
        <ele>325</ele>
        <time>2022-09-28T07:38:07.000Z</time>
      </trkpt>
      <trkpt lat="49.83906" lon="4.78847">
        <ele>325</ele>
        <time>2022-09-28T07:38:08.000Z</time>
      </trkpt>
      <trkpt lat="49.83908" lon="4.78847">
        <ele>325</ele>
        <time>2022-09-28T07:38:09.000Z</time>
      </trkpt>
      <trkpt lat="49.8391" lon="4.78847">
        <ele>325</ele>
        <time>2022-09-28T07:38:10.000Z</time>
      </trkpt>
      <trkpt lat="49.83912" lon="4.78847">
        <ele>326</ele>
        <time>2022-09-28T07:38:11.000Z</time>
      </trkpt>
      <trkpt lat="49.83914" lon="4.78847">
        <ele>326</ele>
        <time>2022-09-28T07:38:12.000Z</time>
      </trkpt>
      <trkpt lat="49.83916" lon="4.78847">
        <ele>326</ele>
        <time>2022-09-28T07:38:13.000Z</time>
      </trkpt>
      <trkpt lat="49.83918" lon="4.78848">
        <ele>327</ele>
        <time>2022-09-28T07:38:14.000Z</time>
      </trkpt>
      <trkpt lat="49.8392" lon="4.78848">
        <ele>327</ele>
        <time>2022-09-28T07:38:15.000Z</time>
      </trkpt>
      <trkpt lat="49.83922" lon="4.78849">
        <ele>327</ele>
        <time>2022-09-28T07:38:16.000Z</time>
      </trkpt>
      <trkpt lat="49.83924" lon="4.78849">
        <ele>328</ele>
        <time>2022-09-28T07:38:17.000Z</time>
      </trkpt>
      <trkpt lat="49.83927" lon="4.78849">
        <ele>328</ele>
        <time>2022-09-28T07:38:18.000Z</time>
      </trkpt>
      <trkpt lat="49.83928" lon="4.78849">
        <ele>328</ele>
        <time>2022-09-28T07:38:19.000Z</time>
      </trkpt>
      <trkpt lat="49.8393" lon="4.78849">
        <ele>329</ele>
        <time>2022-09-28T07:38:20.000Z</time>
      </trkpt>
      <trkpt lat="49.83932" lon="4.78849">
        <ele>329</ele>
        <time>2022-09-28T07:38:21.000Z</time>
      </trkpt>
      <trkpt lat="49.83934" lon="4.78849">
        <ele>329</ele>
        <time>2022-09-28T07:38:22.000Z</time>
      </trkpt>
      <trkpt lat="49.83936" lon="4.7885">
        <ele>330</ele>
        <time>2022-09-28T07:38:23.000Z</time>
      </trkpt>
      <trkpt lat="49.83937" lon="4.78851">
        <ele>330</ele>
        <time>2022-09-28T07:38:24.000Z</time>
      </trkpt>
      <trkpt lat="49.83939" lon="4.78851">
        <ele>330</ele>
        <time>2022-09-28T07:38:25.000Z</time>
      </trkpt>
      <trkpt lat="49.83941" lon="4.78852">
        <ele>331</ele>
        <time>2022-09-28T07:38:26.000Z</time>
      </trkpt>
      <trkpt lat="49.83942" lon="4.78852">
        <ele>331</ele>
        <time>2022-09-28T07:38:27.000Z</time>
      </trkpt>
      <trkpt lat="49.83944" lon="4.78852">
        <ele>331</ele>
        <time>2022-09-28T07:38:28.000Z</time>
      </trkpt>
      <trkpt lat="49.83946" lon="4.78853">
        <ele>332</ele>
        <time>2022-09-28T07:38:29.000Z</time>
      </trkpt>
      <trkpt lat="49.83948" lon="4.78853">
        <ele>332</ele>
        <time>2022-09-28T07:38:30.000Z</time>
      </trkpt>
      <trkpt lat="49.8395" lon="4.78854">
        <ele>332</ele>
        <time>2022-09-28T07:38:31.000Z</time>
      </trkpt>
      <trkpt lat="49.83951" lon="4.78854">
        <ele>333</ele>
        <time>2022-09-28T07:38:32.000Z</time>
      </trkpt>
      <trkpt lat="49.83953" lon="4.78853">
        <ele>333</ele>
        <time>2022-09-28T07:38:33.000Z</time>
      </trkpt>
      <trkpt lat="49.83953" lon="4.78853">
        <ele>333</ele>
        <time>2022-09-28T07:38:34.000Z</time>
      </trkpt>
      <trkpt lat="49.83954" lon="4.78853">
        <ele>333</ele>
        <time>2022-09-28T07:38:35.000Z</time>
      </trkpt>
      <trkpt lat="49.83954" lon="4.78854">
        <ele>333</ele>
        <time>2022-09-28T07:38:36.000Z</time>
      </trkpt>
      <trkpt lat="49.83955" lon="4.78854">
        <ele>334</ele>
        <time>2022-09-28T07:38:37.000Z</time>
      </trkpt>
      <trkpt lat="49.83956" lon="4.78854">
        <ele>334</ele>
        <time>2022-09-28T07:38:38.000Z</time>
      </trkpt>
      <trkpt lat="49.83957" lon="4.78855">
        <ele>334</ele>
        <time>2022-09-28T07:38:39.000Z</time>
      </trkpt>
      <trkpt lat="49.83959" lon="4.78855">
        <ele>335</ele>
        <time>2022-09-28T07:38:40.000Z</time>
      </trkpt>
      <trkpt lat="49.83961" lon="4.78856">
        <ele>335</ele>
        <time>2022-09-28T07:38:41.000Z</time>
      </trkpt>
      <trkpt lat="49.83963" lon="4.78856">
        <ele>335</ele>
        <time>2022-09-28T07:38:42.000Z</time>
      </trkpt>
      <trkpt lat="49.83965" lon="4.78856">
        <ele>335</ele>
        <time>2022-09-28T07:38:43.000Z</time>
      </trkpt>
      <trkpt lat="49.83967" lon="4.78857">
        <ele>336</ele>
        <time>2022-09-28T07:38:44.000Z</time>
      </trkpt>
      <trkpt lat="49.83969" lon="4.78857">
        <ele>336</ele>
        <time>2022-09-28T07:38:45.000Z</time>
      </trkpt>
      <trkpt lat="49.8397" lon="4.78857">
        <ele>336</ele>
        <time>2022-09-28T07:38:46.000Z</time>
      </trkpt>
      <trkpt lat="49.83972" lon="4.78858">
        <ele>336</ele>
        <time>2022-09-28T07:38:47.000Z</time>
      </trkpt>
      <trkpt lat="49.83974" lon="4.78858">
        <ele>337</ele>
        <time>2022-09-28T07:38:48.000Z</time>
      </trkpt>
      <trkpt lat="49.83976" lon="4.78858">
        <ele>337</ele>
        <time>2022-09-28T07:38:49.000Z</time>
      </trkpt>
      <trkpt lat="49.83978" lon="4.78859">
        <ele>337</ele>
        <time>2022-09-28T07:38:50.000Z</time>
      </trkpt>
      <trkpt lat="49.8398" lon="4.78859">
        <ele>338</ele>
        <time>2022-09-28T07:38:51.000Z</time>
      </trkpt>
      <trkpt lat="49.83982" lon="4.7886">
        <ele>338</ele>
        <time>2022-09-28T07:38:52.000Z</time>
      </trkpt>
      <trkpt lat="49.83984" lon="4.7886">
        <ele>338</ele>
        <time>2022-09-28T07:38:53.000Z</time>
      </trkpt>
      <trkpt lat="49.83986" lon="4.78861">
        <ele>338</ele>
        <time>2022-09-28T07:38:54.000Z</time>
      </trkpt>
      <trkpt lat="49.83988" lon="4.78861">
        <ele>339</ele>
        <time>2022-09-28T07:38:55.000Z</time>
      </trkpt>
      <trkpt lat="49.8399" lon="4.78861">
        <ele>339</ele>
        <time>2022-09-28T07:38:56.000Z</time>
      </trkpt>
      <trkpt lat="49.83992" lon="4.78861">
        <ele>339</ele>
        <time>2022-09-28T07:38:57.000Z</time>
      </trkpt>
      <trkpt lat="49.83994" lon="4.78862">
        <ele>340</ele>
        <time>2022-09-28T07:38:58.000Z</time>
      </trkpt>
      <trkpt lat="49.83996" lon="4.78862">
        <ele>340</ele>
        <time>2022-09-28T07:38:59.000Z</time>
      </trkpt>
      <trkpt lat="49.83998" lon="4.78862">
        <ele>340</ele>
        <time>2022-09-28T07:39:00.000Z</time>
      </trkpt>
      <trkpt lat="49.84" lon="4.78863">
        <ele>341</ele>
        <time>2022-09-28T07:39:01.000Z</time>
      </trkpt>
      <trkpt lat="49.84002" lon="4.78863">
        <ele>341</ele>
        <time>2022-09-28T07:39:02.000Z</time>
      </trkpt>
      <trkpt lat="49.84004" lon="4.78863">
        <ele>341</ele>
        <time>2022-09-28T07:39:03.000Z</time>
      </trkpt>
      <trkpt lat="49.84006" lon="4.78864">
        <ele>341</ele>
        <time>2022-09-28T07:39:04.000Z</time>
      </trkpt>
      <trkpt lat="49.84008" lon="4.78864">
        <ele>341</ele>
        <time>2022-09-28T07:39:05.000Z</time>
      </trkpt>
      <trkpt lat="49.8401" lon="4.78865">
        <ele>342</ele>
        <time>2022-09-28T07:39:06.000Z</time>
      </trkpt>
      <trkpt lat="49.84012" lon="4.78866">
        <ele>342</ele>
        <time>2022-09-28T07:39:07.000Z</time>
      </trkpt>
      <trkpt lat="49.84014" lon="4.78866">
        <ele>342</ele>
        <time>2022-09-28T07:39:08.000Z</time>
      </trkpt>
      <trkpt lat="49.84015" lon="4.78867">
        <ele>342</ele>
        <time>2022-09-28T07:39:09.000Z</time>
      </trkpt>
      <trkpt lat="49.84017" lon="4.78867">
        <ele>342</ele>
        <time>2022-09-28T07:39:10.000Z</time>
      </trkpt>
      <trkpt lat="49.84019" lon="4.78867">
        <ele>343</ele>
        <time>2022-09-28T07:39:11.000Z</time>
      </trkpt>
      <trkpt lat="49.84021" lon="4.78867">
        <ele>343</ele>
        <time>2022-09-28T07:39:12.000Z</time>
      </trkpt>
      <trkpt lat="49.84023" lon="4.78867">
        <ele>343</ele>
        <time>2022-09-28T07:39:13.000Z</time>
      </trkpt>
      <trkpt lat="49.84025" lon="4.78867">
        <ele>343</ele>
        <time>2022-09-28T07:39:14.000Z</time>
      </trkpt>
      <trkpt lat="49.84027" lon="4.78867">
        <ele>343</ele>
        <time>2022-09-28T07:39:15.000Z</time>
      </trkpt>
      <trkpt lat="49.84029" lon="4.78868">
        <ele>343</ele>
        <time>2022-09-28T07:39:16.000Z</time>
      </trkpt>
      <trkpt lat="49.84031" lon="4.78869">
        <ele>343</ele>
        <time>2022-09-28T07:39:17.000Z</time>
      </trkpt>
      <trkpt lat="49.84033" lon="4.7887">
        <ele>343</ele>
        <time>2022-09-28T07:39:18.000Z</time>
      </trkpt>
      <trkpt lat="49.84035" lon="4.78871">
        <ele>343</ele>
        <time>2022-09-28T07:39:19.000Z</time>
      </trkpt>
      <trkpt lat="49.84037" lon="4.78872">
        <ele>344</ele>
        <time>2022-09-28T07:39:20.000Z</time>
      </trkpt>
      <trkpt lat="49.84039" lon="4.78873">
        <ele>344</ele>
        <time>2022-09-28T07:39:21.000Z</time>
      </trkpt>
      <trkpt lat="49.84041" lon="4.78874">
        <ele>344</ele>
        <time>2022-09-28T07:39:22.000Z</time>
      </trkpt>
      <trkpt lat="49.84043" lon="4.78876">
        <ele>344</ele>
        <time>2022-09-28T07:39:23.000Z</time>
      </trkpt>
      <trkpt lat="49.84044" lon="4.78878">
        <ele>345</ele>
        <time>2022-09-28T07:39:24.000Z</time>
      </trkpt>
      <trkpt lat="49.84045" lon="4.7888">
        <ele>345</ele>
        <time>2022-09-28T07:39:25.000Z</time>
      </trkpt>
      <trkpt lat="49.84046" lon="4.78883">
        <ele>345</ele>
        <time>2022-09-28T07:39:26.000Z</time>
      </trkpt>
      <trkpt lat="49.84047" lon="4.78885">
        <ele>345</ele>
        <time>2022-09-28T07:39:27.000Z</time>
      </trkpt>
      <trkpt lat="49.84047" lon="4.78888">
        <ele>345</ele>
        <time>2022-09-28T07:39:28.000Z</time>
      </trkpt>
      <trkpt lat="49.84049" lon="4.78889">
        <ele>345</ele>
        <time>2022-09-28T07:39:29.000Z</time>
      </trkpt>
      <trkpt lat="49.84051" lon="4.7889">
        <ele>345</ele>
        <time>2022-09-28T07:39:30.000Z</time>
      </trkpt>
      <trkpt lat="49.84053" lon="4.7889">
        <ele>345</ele>
        <time>2022-09-28T07:39:31.000Z</time>
      </trkpt>
      <trkpt lat="49.84055" lon="4.7889">
        <ele>345</ele>
        <time>2022-09-28T07:39:32.000Z</time>
      </trkpt>
      <trkpt lat="49.84057" lon="4.7889">
        <ele>345</ele>
        <time>2022-09-28T07:39:33.000Z</time>
      </trkpt>
      <trkpt lat="49.84059" lon="4.7889">
        <ele>345</ele>
        <time>2022-09-28T07:39:34.000Z</time>
      </trkpt>
      <trkpt lat="49.84061" lon="4.78889">
        <ele>345</ele>
        <time>2022-09-28T07:39:35.000Z</time>
      </trkpt>
      <trkpt lat="49.84064" lon="4.78889">
        <ele>345</ele>
        <time>2022-09-28T07:39:36.000Z</time>
      </trkpt>
      <trkpt lat="49.84066" lon="4.78889">
        <ele>345</ele>
        <time>2022-09-28T07:39:37.000Z</time>
      </trkpt>
      <trkpt lat="49.84069" lon="4.7889">
        <ele>346</ele>
        <time>2022-09-28T07:39:38.000Z</time>
      </trkpt>
      <trkpt lat="49.84071" lon="4.78891">
        <ele>346</ele>
        <time>2022-09-28T07:39:39.000Z</time>
      </trkpt>
      <trkpt lat="49.84074" lon="4.78892">
        <ele>346</ele>
        <time>2022-09-28T07:39:40.000Z</time>
      </trkpt>
      <trkpt lat="49.84076" lon="4.78893">
        <ele>346</ele>
        <time>2022-09-28T07:39:41.000Z</time>
      </trkpt>
      <trkpt lat="49.84079" lon="4.78894">
        <ele>346</ele>
        <time>2022-09-28T07:39:42.000Z</time>
      </trkpt>
      <trkpt lat="49.84081" lon="4.78896">
        <ele>346</ele>
        <time>2022-09-28T07:39:43.000Z</time>
      </trkpt>
      <trkpt lat="49.84083" lon="4.78897">
        <ele>346</ele>
        <time>2022-09-28T07:39:44.000Z</time>
      </trkpt>
      <trkpt lat="49.84086" lon="4.78898">
        <ele>346</ele>
        <time>2022-09-28T07:39:45.000Z</time>
      </trkpt>
      <trkpt lat="49.84088" lon="4.789">
        <ele>347</ele>
        <time>2022-09-28T07:39:46.000Z</time>
      </trkpt>
      <trkpt lat="49.84091" lon="4.78901">
        <ele>347</ele>
        <time>2022-09-28T07:39:47.000Z</time>
      </trkpt>
      <trkpt lat="49.84094" lon="4.78902">
        <ele>347</ele>
        <time>2022-09-28T07:39:48.000Z</time>
      </trkpt>
      <trkpt lat="49.84096" lon="4.78903">
        <ele>347</ele>
        <time>2022-09-28T07:39:49.000Z</time>
      </trkpt>
      <trkpt lat="49.84099" lon="4.78904">
        <ele>347</ele>
        <time>2022-09-28T07:39:50.000Z</time>
      </trkpt>
      <trkpt lat="49.84102" lon="4.78904">
        <ele>347</ele>
        <time>2022-09-28T07:39:51.000Z</time>
      </trkpt>
      <trkpt lat="49.84105" lon="4.78905">
        <ele>348</ele>
        <time>2022-09-28T07:39:52.000Z</time>
      </trkpt>
      <trkpt lat="49.84107" lon="4.78906">
        <ele>348</ele>
        <time>2022-09-28T07:39:53.000Z</time>
      </trkpt>
      <trkpt lat="49.8411" lon="4.78907">
        <ele>348</ele>
        <time>2022-09-28T07:39:54.000Z</time>
      </trkpt>
      <trkpt lat="49.84113" lon="4.78907">
        <ele>348</ele>
        <time>2022-09-28T07:39:55.000Z</time>
      </trkpt>
      <trkpt lat="49.84116" lon="4.78908">
        <ele>348</ele>
        <time>2022-09-28T07:39:56.000Z</time>
      </trkpt>
      <trkpt lat="49.84118" lon="4.78909">
        <ele>348</ele>
        <time>2022-09-28T07:39:57.000Z</time>
      </trkpt>
      <trkpt lat="49.84121" lon="4.78909">
        <ele>348</ele>
        <time>2022-09-28T07:39:58.000Z</time>
      </trkpt>
      <trkpt lat="49.84124" lon="4.7891">
        <ele>349</ele>
        <time>2022-09-28T07:39:59.000Z</time>
      </trkpt>
      <trkpt lat="49.84127" lon="4.78911">
        <ele>349</ele>
        <time>2022-09-28T07:40:00.000Z</time>
      </trkpt>
      <trkpt lat="49.8413" lon="4.78912">
        <ele>349</ele>
        <time>2022-09-28T07:40:01.000Z</time>
      </trkpt>
      <trkpt lat="49.84132" lon="4.78913">
        <ele>349</ele>
        <time>2022-09-28T07:40:02.000Z</time>
      </trkpt>
      <trkpt lat="49.84135" lon="4.78914">
        <ele>349</ele>
        <time>2022-09-28T07:40:03.000Z</time>
      </trkpt>
      <trkpt lat="49.84138" lon="4.78915">
        <ele>350</ele>
        <time>2022-09-28T07:40:04.000Z</time>
      </trkpt>
      <trkpt lat="49.84141" lon="4.78916">
        <ele>350</ele>
        <time>2022-09-28T07:40:05.000Z</time>
      </trkpt>
      <trkpt lat="49.84144" lon="4.78917">
        <ele>350</ele>
        <time>2022-09-28T07:40:06.000Z</time>
      </trkpt>
      <trkpt lat="49.84147" lon="4.78918">
        <ele>350</ele>
        <time>2022-09-28T07:40:07.000Z</time>
      </trkpt>
      <trkpt lat="49.8415" lon="4.78919">
        <ele>350</ele>
        <time>2022-09-28T07:40:08.000Z</time>
      </trkpt>
      <trkpt lat="49.84153" lon="4.7892">
        <ele>351</ele>
        <time>2022-09-28T07:40:09.000Z</time>
      </trkpt>
      <trkpt lat="49.84155" lon="4.78921">
        <ele>351</ele>
        <time>2022-09-28T07:40:10.000Z</time>
      </trkpt>
      <trkpt lat="49.84158" lon="4.78923">
        <ele>351</ele>
        <time>2022-09-28T07:40:11.000Z</time>
      </trkpt>
      <trkpt lat="49.8416" lon="4.78925">
        <ele>351</ele>
        <time>2022-09-28T07:40:12.000Z</time>
      </trkpt>
      <trkpt lat="49.84163" lon="4.78926">
        <ele>351</ele>
        <time>2022-09-28T07:40:13.000Z</time>
      </trkpt>
      <trkpt lat="49.84165" lon="4.78928">
        <ele>351</ele>
        <time>2022-09-28T07:40:14.000Z</time>
      </trkpt>
      <trkpt lat="49.84167" lon="4.78929">
        <ele>351</ele>
        <time>2022-09-28T07:40:15.000Z</time>
      </trkpt>
      <trkpt lat="49.84169" lon="4.78931">
        <ele>352</ele>
        <time>2022-09-28T07:40:16.000Z</time>
      </trkpt>
      <trkpt lat="49.84171" lon="4.78932">
        <ele>352</ele>
        <time>2022-09-28T07:40:17.000Z</time>
      </trkpt>
      <trkpt lat="49.84173" lon="4.78934">
        <ele>352</ele>
        <time>2022-09-28T07:40:18.000Z</time>
      </trkpt>
      <trkpt lat="49.84174" lon="4.78935">
        <ele>352</ele>
        <time>2022-09-28T07:40:19.000Z</time>
      </trkpt>
      <trkpt lat="49.84176" lon="4.78937">
        <ele>353</ele>
        <time>2022-09-28T07:40:20.000Z</time>
      </trkpt>
      <trkpt lat="49.84178" lon="4.78938">
        <ele>353</ele>
        <time>2022-09-28T07:40:21.000Z</time>
      </trkpt>
      <trkpt lat="49.8418" lon="4.78939">
        <ele>353</ele>
        <time>2022-09-28T07:40:22.000Z</time>
      </trkpt>
      <trkpt lat="49.84183" lon="4.7894">
        <ele>353</ele>
        <time>2022-09-28T07:40:23.000Z</time>
      </trkpt>
      <trkpt lat="49.84186" lon="4.7894">
        <ele>354</ele>
        <time>2022-09-28T07:40:24.000Z</time>
      </trkpt>
      <trkpt lat="49.84188" lon="4.78941">
        <ele>354</ele>
        <time>2022-09-28T07:40:25.000Z</time>
      </trkpt>
      <trkpt lat="49.84191" lon="4.78942">
        <ele>354</ele>
        <time>2022-09-28T07:40:26.000Z</time>
      </trkpt>
      <trkpt lat="49.84193" lon="4.78943">
        <ele>354</ele>
        <time>2022-09-28T07:40:27.000Z</time>
      </trkpt>
      <trkpt lat="49.84196" lon="4.78944">
        <ele>355</ele>
        <time>2022-09-28T07:40:28.000Z</time>
      </trkpt>
      <trkpt lat="49.84198" lon="4.78945">
        <ele>355</ele>
        <time>2022-09-28T07:40:29.000Z</time>
      </trkpt>
      <trkpt lat="49.84201" lon="4.78947">
        <ele>356</ele>
        <time>2022-09-28T07:40:30.000Z</time>
      </trkpt>
      <trkpt lat="49.84203" lon="4.78948">
        <ele>356</ele>
        <time>2022-09-28T07:40:31.000Z</time>
      </trkpt>
      <trkpt lat="49.84206" lon="4.78949">
        <ele>356</ele>
        <time>2022-09-28T07:40:32.000Z</time>
      </trkpt>
      <trkpt lat="49.84209" lon="4.78951">
        <ele>357</ele>
        <time>2022-09-28T07:40:33.000Z</time>
      </trkpt>
      <trkpt lat="49.84211" lon="4.78952">
        <ele>357</ele>
        <time>2022-09-28T07:40:34.000Z</time>
      </trkpt>
      <trkpt lat="49.84214" lon="4.78954">
        <ele>358</ele>
        <time>2022-09-28T07:40:35.000Z</time>
      </trkpt>
      <trkpt lat="49.84216" lon="4.78956">
        <ele>358</ele>
        <time>2022-09-28T07:40:36.000Z</time>
      </trkpt>
      <trkpt lat="49.84218" lon="4.78959">
        <ele>359</ele>
        <time>2022-09-28T07:40:37.000Z</time>
      </trkpt>
      <trkpt lat="49.8422" lon="4.78962">
        <ele>359</ele>
        <time>2022-09-28T07:40:38.000Z</time>
      </trkpt>
      <trkpt lat="49.84223" lon="4.78964">
        <ele>360</ele>
        <time>2022-09-28T07:40:39.000Z</time>
      </trkpt>
      <trkpt lat="49.84225" lon="4.78966">
        <ele>360</ele>
        <time>2022-09-28T07:40:40.000Z</time>
      </trkpt>
      <trkpt lat="49.84228" lon="4.78968">
        <ele>361</ele>
        <time>2022-09-28T07:40:41.000Z</time>
      </trkpt>
      <trkpt lat="49.8423" lon="4.78971">
        <ele>361</ele>
        <time>2022-09-28T07:40:42.000Z</time>
      </trkpt>
      <trkpt lat="49.84233" lon="4.78973">
        <ele>361</ele>
        <time>2022-09-28T07:40:43.000Z</time>
      </trkpt>
      <trkpt lat="49.84235" lon="4.78975">
        <ele>362</ele>
        <time>2022-09-28T07:40:44.000Z</time>
      </trkpt>
      <trkpt lat="49.84238" lon="4.78977">
        <ele>362</ele>
        <time>2022-09-28T07:40:45.000Z</time>
      </trkpt>
      <trkpt lat="49.8424" lon="4.78979">
        <ele>362</ele>
        <time>2022-09-28T07:40:46.000Z</time>
      </trkpt>
      <trkpt lat="49.84242" lon="4.78981">
        <ele>362</ele>
        <time>2022-09-28T07:40:47.000Z</time>
      </trkpt>
      <trkpt lat="49.84244" lon="4.78983">
        <ele>363</ele>
        <time>2022-09-28T07:40:48.000Z</time>
      </trkpt>
      <trkpt lat="49.84246" lon="4.78986">
        <ele>363</ele>
        <time>2022-09-28T07:40:49.000Z</time>
      </trkpt>
      <trkpt lat="49.84248" lon="4.78988">
        <ele>363</ele>
        <time>2022-09-28T07:40:50.000Z</time>
      </trkpt>
      <trkpt lat="49.8425" lon="4.78991">
        <ele>363</ele>
        <time>2022-09-28T07:40:51.000Z</time>
      </trkpt>
      <trkpt lat="49.84253" lon="4.78994">
        <ele>364</ele>
        <time>2022-09-28T07:40:52.000Z</time>
      </trkpt>
      <trkpt lat="49.84255" lon="4.78997">
        <ele>364</ele>
        <time>2022-09-28T07:40:53.000Z</time>
      </trkpt>
      <trkpt lat="49.84257" lon="4.79">
        <ele>364</ele>
        <time>2022-09-28T07:40:54.000Z</time>
      </trkpt>
      <trkpt lat="49.84259" lon="4.79003">
        <ele>364</ele>
        <time>2022-09-28T07:40:55.000Z</time>
      </trkpt>
      <trkpt lat="49.84262" lon="4.79006">
        <ele>364</ele>
        <time>2022-09-28T07:40:56.000Z</time>
      </trkpt>
      <trkpt lat="49.84264" lon="4.79009">
        <ele>364</ele>
        <time>2022-09-28T07:40:57.000Z</time>
      </trkpt>
      <trkpt lat="49.84266" lon="4.79012">
        <ele>364</ele>
        <time>2022-09-28T07:40:58.000Z</time>
      </trkpt>
      <trkpt lat="49.84267" lon="4.79015">
        <ele>365</ele>
        <time>2022-09-28T07:40:59.000Z</time>
      </trkpt>
      <trkpt lat="49.84269" lon="4.79018">
        <ele>365</ele>
        <time>2022-09-28T07:41:00.000Z</time>
      </trkpt>
      <trkpt lat="49.84272" lon="4.7902">
        <ele>365</ele>
        <time>2022-09-28T07:41:01.000Z</time>
      </trkpt>
      <trkpt lat="49.84274" lon="4.79023">
        <ele>365</ele>
        <time>2022-09-28T07:41:02.000Z</time>
      </trkpt>
      <trkpt lat="49.84276" lon="4.79026">
        <ele>365</ele>
        <time>2022-09-28T07:41:03.000Z</time>
      </trkpt>
      <trkpt lat="49.84278" lon="4.79028">
        <ele>365</ele>
        <time>2022-09-28T07:41:04.000Z</time>
      </trkpt>
      <trkpt lat="49.84281" lon="4.79031">
        <ele>365</ele>
        <time>2022-09-28T07:41:05.000Z</time>
      </trkpt>
      <trkpt lat="49.84283" lon="4.79034">
        <ele>366</ele>
        <time>2022-09-28T07:41:06.000Z</time>
      </trkpt>
      <trkpt lat="49.84286" lon="4.79037">
        <ele>366</ele>
        <time>2022-09-28T07:41:07.000Z</time>
      </trkpt>
      <trkpt lat="49.84288" lon="4.79039">
        <ele>366</ele>
        <time>2022-09-28T07:41:08.000Z</time>
      </trkpt>
      <trkpt lat="49.84291" lon="4.79042">
        <ele>366</ele>
        <time>2022-09-28T07:41:09.000Z</time>
      </trkpt>
      <trkpt lat="49.84294" lon="4.79045">
        <ele>366</ele>
        <time>2022-09-28T07:41:10.000Z</time>
      </trkpt>
      <trkpt lat="49.84296" lon="4.79048">
        <ele>366</ele>
        <time>2022-09-28T07:41:11.000Z</time>
      </trkpt>
      <trkpt lat="49.84299" lon="4.7905">
        <ele>367</ele>
        <time>2022-09-28T07:41:12.000Z</time>
      </trkpt>
      <trkpt lat="49.84301" lon="4.79052">
        <ele>367</ele>
        <time>2022-09-28T07:41:13.000Z</time>
      </trkpt>
      <trkpt lat="49.84304" lon="4.79054">
        <ele>367</ele>
        <time>2022-09-28T07:41:14.000Z</time>
      </trkpt>
      <trkpt lat="49.84307" lon="4.79056">
        <ele>367</ele>
        <time>2022-09-28T07:41:15.000Z</time>
      </trkpt>
      <trkpt lat="49.84309" lon="4.79058">
        <ele>368</ele>
        <time>2022-09-28T07:41:16.000Z</time>
      </trkpt>
      <trkpt lat="49.84311" lon="4.7906">
        <ele>368</ele>
        <time>2022-09-28T07:41:17.000Z</time>
      </trkpt>
      <trkpt lat="49.84314" lon="4.79062">
        <ele>368</ele>
        <time>2022-09-28T07:41:18.000Z</time>
      </trkpt>
      <trkpt lat="49.84316" lon="4.79063">
        <ele>368</ele>
        <time>2022-09-28T07:41:19.000Z</time>
      </trkpt>
      <trkpt lat="49.84317" lon="4.79065">
        <ele>369</ele>
        <time>2022-09-28T07:41:20.000Z</time>
      </trkpt>
      <trkpt lat="49.84319" lon="4.79066">
        <ele>369</ele>
        <time>2022-09-28T07:41:21.000Z</time>
      </trkpt>
      <trkpt lat="49.84321" lon="4.79067">
        <ele>369</ele>
        <time>2022-09-28T07:41:22.000Z</time>
      </trkpt>
      <trkpt lat="49.84323" lon="4.79068">
        <ele>369</ele>
        <time>2022-09-28T07:41:23.000Z</time>
      </trkpt>
      <trkpt lat="49.84325" lon="4.79069">
        <ele>370</ele>
        <time>2022-09-28T07:41:24.000Z</time>
      </trkpt>
      <trkpt lat="49.84327" lon="4.79071">
        <ele>370</ele>
        <time>2022-09-28T07:41:25.000Z</time>
      </trkpt>
      <trkpt lat="49.8433" lon="4.79073">
        <ele>370</ele>
        <time>2022-09-28T07:41:26.000Z</time>
      </trkpt>
      <trkpt lat="49.84333" lon="4.79075">
        <ele>370</ele>
        <time>2022-09-28T07:41:27.000Z</time>
      </trkpt>
      <trkpt lat="49.84336" lon="4.79077">
        <ele>371</ele>
        <time>2022-09-28T07:41:28.000Z</time>
      </trkpt>
      <trkpt lat="49.84338" lon="4.79079">
        <ele>371</ele>
        <time>2022-09-28T07:41:29.000Z</time>
      </trkpt>
      <trkpt lat="49.84341" lon="4.7908">
        <ele>371</ele>
        <time>2022-09-28T07:41:30.000Z</time>
      </trkpt>
      <trkpt lat="49.84344" lon="4.79081">
        <ele>372</ele>
        <time>2022-09-28T07:41:31.000Z</time>
      </trkpt>
      <trkpt lat="49.84346" lon="4.79084">
        <ele>372</ele>
        <time>2022-09-28T07:41:32.000Z</time>
      </trkpt>
      <trkpt lat="49.84348" lon="4.79086">
        <ele>372</ele>
        <time>2022-09-28T07:41:33.000Z</time>
      </trkpt>
      <trkpt lat="49.84351" lon="4.79088">
        <ele>373</ele>
        <time>2022-09-28T07:41:34.000Z</time>
      </trkpt>
      <trkpt lat="49.84353" lon="4.7909">
        <ele>373</ele>
        <time>2022-09-28T07:41:35.000Z</time>
      </trkpt>
      <trkpt lat="49.84356" lon="4.79092">
        <ele>373</ele>
        <time>2022-09-28T07:41:36.000Z</time>
      </trkpt>
      <trkpt lat="49.84358" lon="4.79093">
        <ele>374</ele>
        <time>2022-09-28T07:41:37.000Z</time>
      </trkpt>
      <trkpt lat="49.84361" lon="4.79095">
        <ele>374</ele>
        <time>2022-09-28T07:41:38.000Z</time>
      </trkpt>
      <trkpt lat="49.84363" lon="4.79096">
        <ele>374</ele>
        <time>2022-09-28T07:41:39.000Z</time>
      </trkpt>
      <trkpt lat="49.84365" lon="4.79098">
        <ele>374</ele>
        <time>2022-09-28T07:41:40.000Z</time>
      </trkpt>
      <trkpt lat="49.84368" lon="4.791">
        <ele>375</ele>
        <time>2022-09-28T07:41:41.000Z</time>
      </trkpt>
      <trkpt lat="49.8437" lon="4.79101">
        <ele>375</ele>
        <time>2022-09-28T07:41:42.000Z</time>
      </trkpt>
      <trkpt lat="49.84373" lon="4.79103">
        <ele>375</ele>
        <time>2022-09-28T07:41:43.000Z</time>
      </trkpt>
      <trkpt lat="49.84375" lon="4.79104">
        <ele>376</ele>
        <time>2022-09-28T07:41:44.000Z</time>
      </trkpt>
      <trkpt lat="49.84378" lon="4.79106">
        <ele>376</ele>
        <time>2022-09-28T07:41:45.000Z</time>
      </trkpt>
      <trkpt lat="49.84381" lon="4.79108">
        <ele>376</ele>
        <time>2022-09-28T07:41:46.000Z</time>
      </trkpt>
      <trkpt lat="49.84383" lon="4.7911">
        <ele>377</ele>
        <time>2022-09-28T07:41:47.000Z</time>
      </trkpt>
      <trkpt lat="49.84386" lon="4.79114">
        <ele>377</ele>
        <time>2022-09-28T07:41:48.000Z</time>
      </trkpt>
      <trkpt lat="49.84389" lon="4.79117">
        <ele>377</ele>
        <time>2022-09-28T07:41:49.000Z</time>
      </trkpt>
      <trkpt lat="49.84391" lon="4.7912">
        <ele>377</ele>
        <time>2022-09-28T07:41:50.000Z</time>
      </trkpt>
      <trkpt lat="49.84394" lon="4.79124">
        <ele>377</ele>
        <time>2022-09-28T07:41:51.000Z</time>
      </trkpt>
      <trkpt lat="49.84396" lon="4.79127">
        <ele>377</ele>
        <time>2022-09-28T07:41:52.000Z</time>
      </trkpt>
      <trkpt lat="49.84399" lon="4.79131">
        <ele>377</ele>
        <time>2022-09-28T07:41:53.000Z</time>
      </trkpt>
      <trkpt lat="49.84401" lon="4.79135">
        <ele>377</ele>
        <time>2022-09-28T07:41:54.000Z</time>
      </trkpt>
      <trkpt lat="49.84403" lon="4.79139">
        <ele>377</ele>
        <time>2022-09-28T07:41:55.000Z</time>
      </trkpt>
      <trkpt lat="49.84405" lon="4.79143">
        <ele>377</ele>
        <time>2022-09-28T07:41:56.000Z</time>
      </trkpt>
      <trkpt lat="49.84407" lon="4.79147">
        <ele>377</ele>
        <time>2022-09-28T07:41:57.000Z</time>
      </trkpt>
      <trkpt lat="49.84409" lon="4.79151">
        <ele>377</ele>
        <time>2022-09-28T07:41:58.000Z</time>
      </trkpt>
      <trkpt lat="49.84411" lon="4.79154">
        <ele>377</ele>
        <time>2022-09-28T07:41:59.000Z</time>
      </trkpt>
      <trkpt lat="49.84413" lon="4.79158">
        <ele>377</ele>
        <time>2022-09-28T07:42:00.000Z</time>
      </trkpt>
      <trkpt lat="49.84415" lon="4.79161">
        <ele>377</ele>
        <time>2022-09-28T07:42:01.000Z</time>
      </trkpt>
      <trkpt lat="49.84418" lon="4.79164">
        <ele>376</ele>
        <time>2022-09-28T07:42:02.000Z</time>
      </trkpt>
      <trkpt lat="49.8442" lon="4.79168">
        <ele>376</ele>
        <time>2022-09-28T07:42:03.000Z</time>
      </trkpt>
      <trkpt lat="49.84422" lon="4.79171">
        <ele>376</ele>
        <time>2022-09-28T07:42:04.000Z</time>
      </trkpt>
      <trkpt lat="49.84424" lon="4.79175">
        <ele>376</ele>
        <time>2022-09-28T07:42:05.000Z</time>
      </trkpt>
      <trkpt lat="49.84427" lon="4.79178">
        <ele>376</ele>
        <time>2022-09-28T07:42:06.000Z</time>
      </trkpt>
      <trkpt lat="49.84429" lon="4.79182">
        <ele>376</ele>
        <time>2022-09-28T07:42:07.000Z</time>
      </trkpt>
      <trkpt lat="49.84431" lon="4.79186">
        <ele>376</ele>
        <time>2022-09-28T07:42:08.000Z</time>
      </trkpt>
      <trkpt lat="49.84433" lon="4.79189">
        <ele>376</ele>
        <time>2022-09-28T07:42:09.000Z</time>
      </trkpt>
      <trkpt lat="49.84435" lon="4.79193">
        <ele>376</ele>
        <time>2022-09-28T07:42:10.000Z</time>
      </trkpt>
      <trkpt lat="49.84437" lon="4.79197">
        <ele>376</ele>
        <time>2022-09-28T07:42:11.000Z</time>
      </trkpt>
      <trkpt lat="49.84439" lon="4.79202">
        <ele>375</ele>
        <time>2022-09-28T07:42:12.000Z</time>
      </trkpt>
      <trkpt lat="49.8444" lon="4.79206">
        <ele>375</ele>
        <time>2022-09-28T07:42:13.000Z</time>
      </trkpt>
      <trkpt lat="49.84441" lon="4.7921">
        <ele>375</ele>
        <time>2022-09-28T07:42:14.000Z</time>
      </trkpt>
      <trkpt lat="49.84441" lon="4.79215">
        <ele>375</ele>
        <time>2022-09-28T07:42:15.000Z</time>
      </trkpt>
      <trkpt lat="49.84442" lon="4.79219">
        <ele>375</ele>
        <time>2022-09-28T07:42:16.000Z</time>
      </trkpt>
      <trkpt lat="49.84443" lon="4.79224">
        <ele>375</ele>
        <time>2022-09-28T07:42:17.000Z</time>
      </trkpt>
      <trkpt lat="49.84444" lon="4.79229">
        <ele>375</ele>
        <time>2022-09-28T07:42:18.000Z</time>
      </trkpt>
      <trkpt lat="49.84445" lon="4.79234">
        <ele>375</ele>
        <time>2022-09-28T07:42:19.000Z</time>
      </trkpt>
      <trkpt lat="49.84445" lon="4.79238">
        <ele>376</ele>
        <time>2022-09-28T07:42:20.000Z</time>
      </trkpt>
      <trkpt lat="49.84446" lon="4.79243">
        <ele>376</ele>
        <time>2022-09-28T07:42:21.000Z</time>
      </trkpt>
      <trkpt lat="49.84447" lon="4.79248">
        <ele>376</ele>
        <time>2022-09-28T07:42:22.000Z</time>
      </trkpt>
      <trkpt lat="49.84448" lon="4.79253">
        <ele>376</ele>
        <time>2022-09-28T07:42:23.000Z</time>
      </trkpt>
      <trkpt lat="49.84449" lon="4.79258">
        <ele>376</ele>
        <time>2022-09-28T07:42:24.000Z</time>
      </trkpt>
      <trkpt lat="49.8445" lon="4.79263">
        <ele>376</ele>
        <time>2022-09-28T07:42:25.000Z</time>
      </trkpt>
      <trkpt lat="49.84451" lon="4.79268">
        <ele>376</ele>
        <time>2022-09-28T07:42:26.000Z</time>
      </trkpt>
      <trkpt lat="49.84452" lon="4.79273">
        <ele>376</ele>
        <time>2022-09-28T07:42:27.000Z</time>
      </trkpt>
      <trkpt lat="49.84453" lon="4.79278">
        <ele>376</ele>
        <time>2022-09-28T07:42:28.000Z</time>
      </trkpt>
      <trkpt lat="49.84455" lon="4.79283">
        <ele>376</ele>
        <time>2022-09-28T07:42:29.000Z</time>
      </trkpt>
      <trkpt lat="49.84456" lon="4.79288">
        <ele>376</ele>
        <time>2022-09-28T07:42:30.000Z</time>
      </trkpt>
      <trkpt lat="49.84458" lon="4.79292">
        <ele>376</ele>
        <time>2022-09-28T07:42:31.000Z</time>
      </trkpt>
      <trkpt lat="49.84459" lon="4.79297">
        <ele>376</ele>
        <time>2022-09-28T07:42:32.000Z</time>
      </trkpt>
      <trkpt lat="49.8446" lon="4.79301">
        <ele>376</ele>
        <time>2022-09-28T07:42:33.000Z</time>
      </trkpt>
      <trkpt lat="49.84461" lon="4.79304">
        <ele>376</ele>
        <time>2022-09-28T07:42:34.000Z</time>
      </trkpt>
      <trkpt lat="49.84461" lon="4.79309">
        <ele>377</ele>
        <time>2022-09-28T07:42:35.000Z</time>
      </trkpt>
      <trkpt lat="49.84462" lon="4.79314">
        <ele>377</ele>
        <time>2022-09-28T07:42:36.000Z</time>
      </trkpt>
      <trkpt lat="49.84463" lon="4.79317">
        <ele>377</ele>
        <time>2022-09-28T07:42:37.000Z</time>
      </trkpt>
      <trkpt lat="49.84465" lon="4.79322">
        <ele>377</ele>
        <time>2022-09-28T07:42:38.000Z</time>
      </trkpt>
      <trkpt lat="49.84466" lon="4.79326">
        <ele>377</ele>
        <time>2022-09-28T07:42:39.000Z</time>
      </trkpt>
      <trkpt lat="49.84467" lon="4.7933">
        <ele>377</ele>
        <time>2022-09-28T07:42:40.000Z</time>
      </trkpt>
      <trkpt lat="49.84467" lon="4.79335">
        <ele>377</ele>
        <time>2022-09-28T07:42:41.000Z</time>
      </trkpt>
      <trkpt lat="49.84469" lon="4.79339">
        <ele>377</ele>
        <time>2022-09-28T07:42:42.000Z</time>
      </trkpt>
      <trkpt lat="49.84469" lon="4.79344">
        <ele>377</ele>
        <time>2022-09-28T07:42:43.000Z</time>
      </trkpt>
      <trkpt lat="49.8447" lon="4.79349">
        <ele>377</ele>
        <time>2022-09-28T07:42:44.000Z</time>
      </trkpt>
      <trkpt lat="49.84472" lon="4.79354">
        <ele>377</ele>
        <time>2022-09-28T07:42:45.000Z</time>
      </trkpt>
      <trkpt lat="49.84473" lon="4.79359">
        <ele>377</ele>
        <time>2022-09-28T07:42:46.000Z</time>
      </trkpt>
      <trkpt lat="49.84474" lon="4.79365">
        <ele>377</ele>
        <time>2022-09-28T07:42:47.000Z</time>
      </trkpt>
      <trkpt lat="49.84475" lon="4.7937">
        <ele>377</ele>
        <time>2022-09-28T07:42:48.000Z</time>
      </trkpt>
      <trkpt lat="49.84476" lon="4.79375">
        <ele>377</ele>
        <time>2022-09-28T07:42:49.000Z</time>
      </trkpt>
      <trkpt lat="49.84477" lon="4.79381">
        <ele>377</ele>
        <time>2022-09-28T07:42:50.000Z</time>
      </trkpt>
      <trkpt lat="49.84477" lon="4.79386">
        <ele>377</ele>
        <time>2022-09-28T07:42:51.000Z</time>
      </trkpt>
      <trkpt lat="49.84478" lon="4.79392">
        <ele>377</ele>
        <time>2022-09-28T07:42:52.000Z</time>
      </trkpt>
      <trkpt lat="49.84478" lon="4.79397">
        <ele>377</ele>
        <time>2022-09-28T07:42:53.000Z</time>
      </trkpt>
      <trkpt lat="49.84478" lon="4.79403">
        <ele>377</ele>
        <time>2022-09-28T07:42:54.000Z</time>
      </trkpt>
      <trkpt lat="49.84477" lon="4.79409">
        <ele>378</ele>
        <time>2022-09-28T07:42:55.000Z</time>
      </trkpt>
      <trkpt lat="49.84477" lon="4.79415">
        <ele>378</ele>
        <time>2022-09-28T07:42:56.000Z</time>
      </trkpt>
      <trkpt lat="49.84477" lon="4.7942">
        <ele>378</ele>
        <time>2022-09-28T07:42:57.000Z</time>
      </trkpt>
      <trkpt lat="49.84477" lon="4.79426">
        <ele>378</ele>
        <time>2022-09-28T07:42:58.000Z</time>
      </trkpt>
      <trkpt lat="49.84476" lon="4.79432">
        <ele>378</ele>
        <time>2022-09-28T07:42:59.000Z</time>
      </trkpt>
      <trkpt lat="49.84476" lon="4.79438">
        <ele>378</ele>
        <time>2022-09-28T07:43:00.000Z</time>
      </trkpt>
      <trkpt lat="49.84476" lon="4.79445">
        <ele>378</ele>
        <time>2022-09-28T07:43:01.000Z</time>
      </trkpt>
      <trkpt lat="49.84475" lon="4.79452">
        <ele>379</ele>
        <time>2022-09-28T07:43:02.000Z</time>
      </trkpt>
      <trkpt lat="49.84474" lon="4.79458">
        <ele>379</ele>
        <time>2022-09-28T07:43:03.000Z</time>
      </trkpt>
      <trkpt lat="49.84472" lon="4.79463">
        <ele>379</ele>
        <time>2022-09-28T07:43:04.000Z</time>
      </trkpt>
      <trkpt lat="49.84469" lon="4.79468">
        <ele>379</ele>
        <time>2022-09-28T07:43:05.000Z</time>
      </trkpt>
      <trkpt lat="49.84467" lon="4.79473">
        <ele>380</ele>
        <time>2022-09-28T07:43:06.000Z</time>
      </trkpt>
      <trkpt lat="49.84465" lon="4.79478">
        <ele>380</ele>
        <time>2022-09-28T07:43:07.000Z</time>
      </trkpt>
      <trkpt lat="49.84465" lon="4.79482">
        <ele>380</ele>
        <time>2022-09-28T07:43:08.000Z</time>
      </trkpt>
      <trkpt lat="49.84465" lon="4.79486">
        <ele>380</ele>
        <time>2022-09-28T07:43:09.000Z</time>
      </trkpt>
      <trkpt lat="49.84465" lon="4.79491">
        <ele>380</ele>
        <time>2022-09-28T07:43:10.000Z</time>
      </trkpt>
      <trkpt lat="49.84466" lon="4.79495">
        <ele>380</ele>
        <time>2022-09-28T07:43:11.000Z</time>
      </trkpt>
      <trkpt lat="49.84466" lon="4.79498">
        <ele>380</ele>
        <time>2022-09-28T07:43:12.000Z</time>
      </trkpt>
      <trkpt lat="49.84466" lon="4.79501">
        <ele>381</ele>
        <time>2022-09-28T07:43:13.000Z</time>
      </trkpt>
      <trkpt lat="49.84466" lon="4.79506">
        <ele>381</ele>
        <time>2022-09-28T07:43:14.000Z</time>
      </trkpt>
      <trkpt lat="49.84466" lon="4.79512">
        <ele>381</ele>
        <time>2022-09-28T07:43:15.000Z</time>
      </trkpt>
      <trkpt lat="49.84467" lon="4.79518">
        <ele>381</ele>
        <time>2022-09-28T07:43:16.000Z</time>
      </trkpt>
      <trkpt lat="49.84468" lon="4.79524">
        <ele>381</ele>
        <time>2022-09-28T07:43:17.000Z</time>
      </trkpt>
      <trkpt lat="49.84468" lon="4.7953">
        <ele>381</ele>
        <time>2022-09-28T07:43:18.000Z</time>
      </trkpt>
      <trkpt lat="49.84468" lon="4.79536">
        <ele>381</ele>
        <time>2022-09-28T07:43:19.000Z</time>
      </trkpt>
      <trkpt lat="49.84468" lon="4.79542">
        <ele>381</ele>
        <time>2022-09-28T07:43:20.000Z</time>
      </trkpt>
      <trkpt lat="49.84466" lon="4.79548">
        <ele>381</ele>
        <time>2022-09-28T07:43:21.000Z</time>
      </trkpt>
      <trkpt lat="49.84465" lon="4.79555">
        <ele>381</ele>
        <time>2022-09-28T07:43:22.000Z</time>
      </trkpt>
      <trkpt lat="49.84463" lon="4.79561">
        <ele>381</ele>
        <time>2022-09-28T07:43:23.000Z</time>
      </trkpt>
      <trkpt lat="49.84462" lon="4.79567">
        <ele>381</ele>
        <time>2022-09-28T07:43:24.000Z</time>
      </trkpt>
      <trkpt lat="49.84462" lon="4.79573">
        <ele>381</ele>
        <time>2022-09-28T07:43:25.000Z</time>
      </trkpt>
      <trkpt lat="49.84462" lon="4.79579">
        <ele>381</ele>
        <time>2022-09-28T07:43:26.000Z</time>
      </trkpt>
      <trkpt lat="49.84462" lon="4.79585">
        <ele>381</ele>
        <time>2022-09-28T07:43:27.000Z</time>
      </trkpt>
      <trkpt lat="49.84461" lon="4.7959">
        <ele>381</ele>
        <time>2022-09-28T07:43:28.000Z</time>
      </trkpt>
      <trkpt lat="49.8446" lon="4.79595">
        <ele>382</ele>
        <time>2022-09-28T07:43:29.000Z</time>
      </trkpt>
      <trkpt lat="49.84458" lon="4.796">
        <ele>382</ele>
        <time>2022-09-28T07:43:30.000Z</time>
      </trkpt>
      <trkpt lat="49.84457" lon="4.79606">
        <ele>382</ele>
        <time>2022-09-28T07:43:31.000Z</time>
      </trkpt>
      <trkpt lat="49.84456" lon="4.79612">
        <ele>382</ele>
        <time>2022-09-28T07:43:32.000Z</time>
      </trkpt>
      <trkpt lat="49.84455" lon="4.79618">
        <ele>382</ele>
        <time>2022-09-28T07:43:33.000Z</time>
      </trkpt>
      <trkpt lat="49.84455" lon="4.79623">
        <ele>381</ele>
        <time>2022-09-28T07:43:34.000Z</time>
      </trkpt>
      <trkpt lat="49.84456" lon="4.79627">
        <ele>381</ele>
        <time>2022-09-28T07:43:35.000Z</time>
      </trkpt>
      <trkpt lat="49.84458" lon="4.7963">
        <ele>381</ele>
        <time>2022-09-28T07:43:36.000Z</time>
      </trkpt>
      <trkpt lat="49.8446" lon="4.79631">
        <ele>381</ele>
        <time>2022-09-28T07:43:37.000Z</time>
      </trkpt>
      <trkpt lat="49.84462" lon="4.79632">
        <ele>381</ele>
        <time>2022-09-28T07:43:38.000Z</time>
      </trkpt>
      <trkpt lat="49.84465" lon="4.79632">
        <ele>381</ele>
        <time>2022-09-28T07:43:39.000Z</time>
      </trkpt>
      <trkpt lat="49.84468" lon="4.79632">
        <ele>381</ele>
        <time>2022-09-28T07:43:40.000Z</time>
      </trkpt>
      <trkpt lat="49.84472" lon="4.79632">
        <ele>381</ele>
        <time>2022-09-28T07:43:41.000Z</time>
      </trkpt>
      <trkpt lat="49.84475" lon="4.79633">
        <ele>381</ele>
        <time>2022-09-28T07:43:42.000Z</time>
      </trkpt>
      <trkpt lat="49.84478" lon="4.79633">
        <ele>381</ele>
        <time>2022-09-28T07:43:43.000Z</time>
      </trkpt>
      <trkpt lat="49.8448" lon="4.79632">
        <ele>382</ele>
        <time>2022-09-28T07:43:44.000Z</time>
      </trkpt>
      <trkpt lat="49.84484" lon="4.79632">
        <ele>382</ele>
        <time>2022-09-28T07:43:45.000Z</time>
      </trkpt>
      <trkpt lat="49.84487" lon="4.79634">
        <ele>382</ele>
        <time>2022-09-28T07:43:46.000Z</time>
      </trkpt>
      <trkpt lat="49.8449" lon="4.79637">
        <ele>382</ele>
        <time>2022-09-28T07:43:47.000Z</time>
      </trkpt>
      <trkpt lat="49.84493" lon="4.79641">
        <ele>382</ele>
        <time>2022-09-28T07:43:48.000Z</time>
      </trkpt>
      <trkpt lat="49.84495" lon="4.79646">
        <ele>382</ele>
        <time>2022-09-28T07:43:49.000Z</time>
      </trkpt>
      <trkpt lat="49.84496" lon="4.79651">
        <ele>382</ele>
        <time>2022-09-28T07:43:50.000Z</time>
      </trkpt>
      <trkpt lat="49.84497" lon="4.79656">
        <ele>382</ele>
        <time>2022-09-28T07:43:51.000Z</time>
      </trkpt>
      <trkpt lat="49.84498" lon="4.79661">
        <ele>382</ele>
        <time>2022-09-28T07:43:52.000Z</time>
      </trkpt>
      <trkpt lat="49.84498" lon="4.79666">
        <ele>382</ele>
        <time>2022-09-28T07:43:53.000Z</time>
      </trkpt>
      <trkpt lat="49.84499" lon="4.79671">
        <ele>383</ele>
        <time>2022-09-28T07:43:54.000Z</time>
      </trkpt>
      <trkpt lat="49.845" lon="4.79677">
        <ele>383</ele>
        <time>2022-09-28T07:43:55.000Z</time>
      </trkpt>
      <trkpt lat="49.845" lon="4.79682">
        <ele>383</ele>
        <time>2022-09-28T07:43:56.000Z</time>
      </trkpt>
      <trkpt lat="49.84501" lon="4.79688">
        <ele>383</ele>
        <time>2022-09-28T07:43:57.000Z</time>
      </trkpt>
      <trkpt lat="49.84501" lon="4.79692">
        <ele>383</ele>
        <time>2022-09-28T07:43:58.000Z</time>
      </trkpt>
      <trkpt lat="49.84502" lon="4.79698">
        <ele>383</ele>
        <time>2022-09-28T07:43:59.000Z</time>
      </trkpt>
      <trkpt lat="49.84502" lon="4.79703">
        <ele>383</ele>
        <time>2022-09-28T07:44:00.000Z</time>
      </trkpt>
      <trkpt lat="49.84502" lon="4.79709">
        <ele>383</ele>
        <time>2022-09-28T07:44:01.000Z</time>
      </trkpt>
      <trkpt lat="49.84503" lon="4.79714">
        <ele>384</ele>
        <time>2022-09-28T07:44:02.000Z</time>
      </trkpt>
      <trkpt lat="49.84503" lon="4.7972">
        <ele>384</ele>
        <time>2022-09-28T07:44:03.000Z</time>
      </trkpt>
      <trkpt lat="49.84504" lon="4.79726">
        <ele>384</ele>
        <time>2022-09-28T07:44:04.000Z</time>
      </trkpt>
      <trkpt lat="49.84505" lon="4.79731">
        <ele>384</ele>
        <time>2022-09-28T07:44:05.000Z</time>
      </trkpt>
      <trkpt lat="49.84507" lon="4.79736">
        <ele>384</ele>
        <time>2022-09-28T07:44:06.000Z</time>
      </trkpt>
      <trkpt lat="49.84508" lon="4.79742">
        <ele>384</ele>
        <time>2022-09-28T07:44:07.000Z</time>
      </trkpt>
      <trkpt lat="49.84508" lon="4.79748">
        <ele>384</ele>
        <time>2022-09-28T07:44:08.000Z</time>
      </trkpt>
      <trkpt lat="49.84508" lon="4.79753">
        <ele>383</ele>
        <time>2022-09-28T07:44:09.000Z</time>
      </trkpt>
      <trkpt lat="49.84508" lon="4.79759">
        <ele>383</ele>
        <time>2022-09-28T07:44:10.000Z</time>
      </trkpt>
      <trkpt lat="49.84508" lon="4.79765">
        <ele>383</ele>
        <time>2022-09-28T07:44:11.000Z</time>
      </trkpt>
      <trkpt lat="49.84509" lon="4.7977">
        <ele>383</ele>
        <time>2022-09-28T07:44:12.000Z</time>
      </trkpt>
      <trkpt lat="49.84509" lon="4.79776">
        <ele>384</ele>
        <time>2022-09-28T07:44:13.000Z</time>
      </trkpt>
      <trkpt lat="49.84509" lon="4.79781">
        <ele>383</ele>
        <time>2022-09-28T07:44:14.000Z</time>
      </trkpt>
      <trkpt lat="49.8451" lon="4.79787">
        <ele>383</ele>
        <time>2022-09-28T07:44:15.000Z</time>
      </trkpt>
      <trkpt lat="49.8451" lon="4.79792">
        <ele>383</ele>
        <time>2022-09-28T07:44:16.000Z</time>
      </trkpt>
      <trkpt lat="49.8451" lon="4.79798">
        <ele>383</ele>
        <time>2022-09-28T07:44:17.000Z</time>
      </trkpt>
      <trkpt lat="49.84511" lon="4.79804">
        <ele>384</ele>
        <time>2022-09-28T07:44:18.000Z</time>
      </trkpt>
      <trkpt lat="49.84511" lon="4.79811">
        <ele>384</ele>
        <time>2022-09-28T07:44:19.000Z</time>
      </trkpt>
      <trkpt lat="49.84511" lon="4.79816">
        <ele>384</ele>
        <time>2022-09-28T07:44:20.000Z</time>
      </trkpt>
      <trkpt lat="49.84512" lon="4.79822">
        <ele>384</ele>
        <time>2022-09-28T07:44:21.000Z</time>
      </trkpt>
      <trkpt lat="49.84512" lon="4.79827">
        <ele>384</ele>
        <time>2022-09-28T07:44:22.000Z</time>
      </trkpt>
      <trkpt lat="49.84512" lon="4.79833">
        <ele>384</ele>
        <time>2022-09-28T07:44:23.000Z</time>
      </trkpt>
      <trkpt lat="49.84513" lon="4.79838">
        <ele>384</ele>
        <time>2022-09-28T07:44:24.000Z</time>
      </trkpt>
      <trkpt lat="49.84513" lon="4.79844">
        <ele>384</ele>
        <time>2022-09-28T07:44:25.000Z</time>
      </trkpt>
      <trkpt lat="49.84514" lon="4.79849">
        <ele>384</ele>
        <time>2022-09-28T07:44:26.000Z</time>
      </trkpt>
      <trkpt lat="49.84515" lon="4.79854">
        <ele>384</ele>
        <time>2022-09-28T07:44:27.000Z</time>
      </trkpt>
      <trkpt lat="49.84516" lon="4.79858">
        <ele>384</ele>
        <time>2022-09-28T07:44:28.000Z</time>
      </trkpt>
      <trkpt lat="49.84516" lon="4.79863">
        <ele>384</ele>
        <time>2022-09-28T07:44:29.000Z</time>
      </trkpt>
      <trkpt lat="49.84517" lon="4.79868">
        <ele>384</ele>
        <time>2022-09-28T07:44:30.000Z</time>
      </trkpt>
      <trkpt lat="49.84518" lon="4.79872">
        <ele>385</ele>
        <time>2022-09-28T07:44:31.000Z</time>
      </trkpt>
      <trkpt lat="49.84519" lon="4.79877">
        <ele>385</ele>
        <time>2022-09-28T07:44:32.000Z</time>
      </trkpt>
      <trkpt lat="49.8452" lon="4.79882">
        <ele>385</ele>
        <time>2022-09-28T07:44:33.000Z</time>
      </trkpt>
      <trkpt lat="49.8452" lon="4.79887">
        <ele>385</ele>
        <time>2022-09-28T07:44:34.000Z</time>
      </trkpt>
      <trkpt lat="49.84521" lon="4.79892">
        <ele>385</ele>
        <time>2022-09-28T07:44:35.000Z</time>
      </trkpt>
      <trkpt lat="49.84523" lon="4.79898">
        <ele>385</ele>
        <time>2022-09-28T07:44:36.000Z</time>
      </trkpt>
      <trkpt lat="49.84523" lon="4.79903">
        <ele>385</ele>
        <time>2022-09-28T07:44:37.000Z</time>
      </trkpt>
      <trkpt lat="49.84524" lon="4.79909">
        <ele>385</ele>
        <time>2022-09-28T07:44:38.000Z</time>
      </trkpt>
      <trkpt lat="49.84525" lon="4.79915">
        <ele>385</ele>
        <time>2022-09-28T07:44:39.000Z</time>
      </trkpt>
      <trkpt lat="49.84527" lon="4.7992">
        <ele>386</ele>
        <time>2022-09-28T07:44:40.000Z</time>
      </trkpt>
      <trkpt lat="49.84529" lon="4.79925">
        <ele>386</ele>
        <time>2022-09-28T07:44:41.000Z</time>
      </trkpt>
      <trkpt lat="49.84532" lon="4.79929">
        <ele>386</ele>
        <time>2022-09-28T07:44:42.000Z</time>
      </trkpt>
      <trkpt lat="49.84535" lon="4.79933">
        <ele>386</ele>
        <time>2022-09-28T07:44:43.000Z</time>
      </trkpt>
      <trkpt lat="49.84537" lon="4.79938">
        <ele>386</ele>
        <time>2022-09-28T07:44:44.000Z</time>
      </trkpt>
      <trkpt lat="49.84539" lon="4.79942">
        <ele>387</ele>
        <time>2022-09-28T07:44:45.000Z</time>
      </trkpt>
      <trkpt lat="49.84541" lon="4.79946">
        <ele>387</ele>
        <time>2022-09-28T07:44:46.000Z</time>
      </trkpt>
      <trkpt lat="49.84543" lon="4.79951">
        <ele>387</ele>
        <time>2022-09-28T07:44:47.000Z</time>
      </trkpt>
      <trkpt lat="49.84544" lon="4.79957">
        <ele>387</ele>
        <time>2022-09-28T07:44:48.000Z</time>
      </trkpt>
      <trkpt lat="49.84546" lon="4.79962">
        <ele>387</ele>
        <time>2022-09-28T07:44:49.000Z</time>
      </trkpt>
      <trkpt lat="49.84548" lon="4.79967">
        <ele>387</ele>
        <time>2022-09-28T07:44:50.000Z</time>
      </trkpt>
      <trkpt lat="49.84549" lon="4.79973">
        <ele>388</ele>
        <time>2022-09-28T07:44:51.000Z</time>
      </trkpt>
      <trkpt lat="49.8455" lon="4.79978">
        <ele>388</ele>
        <time>2022-09-28T07:44:52.000Z</time>
      </trkpt>
      <trkpt lat="49.84552" lon="4.79983">
        <ele>388</ele>
        <time>2022-09-28T07:44:53.000Z</time>
      </trkpt>
      <trkpt lat="49.84553" lon="4.79989">
        <ele>388</ele>
        <time>2022-09-28T07:44:54.000Z</time>
      </trkpt>
      <trkpt lat="49.84555" lon="4.79994">
        <ele>389</ele>
        <time>2022-09-28T07:44:55.000Z</time>
      </trkpt>
      <trkpt lat="49.84556" lon="4.79999">
        <ele>389</ele>
        <time>2022-09-28T07:44:56.000Z</time>
      </trkpt>
      <trkpt lat="49.84557" lon="4.80004">
        <ele>389</ele>
        <time>2022-09-28T07:44:57.000Z</time>
      </trkpt>
      <trkpt lat="49.84558" lon="4.80009">
        <ele>389</ele>
        <time>2022-09-28T07:44:58.000Z</time>
      </trkpt>
      <trkpt lat="49.8456" lon="4.80013">
        <ele>390</ele>
        <time>2022-09-28T07:44:59.000Z</time>
      </trkpt>
      <trkpt lat="49.84562" lon="4.80018">
        <ele>390</ele>
        <time>2022-09-28T07:45:00.000Z</time>
      </trkpt>
      <trkpt lat="49.84563" lon="4.80023">
        <ele>390</ele>
        <time>2022-09-28T07:45:01.000Z</time>
      </trkpt>
      <trkpt lat="49.84566" lon="4.80027">
        <ele>390</ele>
        <time>2022-09-28T07:45:02.000Z</time>
      </trkpt>
      <trkpt lat="49.84568" lon="4.80032">
        <ele>390</ele>
        <time>2022-09-28T07:45:03.000Z</time>
      </trkpt>
      <trkpt lat="49.8457" lon="4.80036">
        <ele>390</ele>
        <time>2022-09-28T07:45:04.000Z</time>
      </trkpt>
      <trkpt lat="49.84572" lon="4.8004">
        <ele>391</ele>
        <time>2022-09-28T07:45:05.000Z</time>
      </trkpt>
      <trkpt lat="49.84573" lon="4.80045">
        <ele>391</ele>
        <time>2022-09-28T07:45:06.000Z</time>
      </trkpt>
      <trkpt lat="49.84575" lon="4.8005">
        <ele>391</ele>
        <time>2022-09-28T07:45:07.000Z</time>
      </trkpt>
      <trkpt lat="49.84577" lon="4.80055">
        <ele>391</ele>
        <time>2022-09-28T07:45:08.000Z</time>
      </trkpt>
      <trkpt lat="49.8458" lon="4.8006">
        <ele>391</ele>
        <time>2022-09-28T07:45:09.000Z</time>
      </trkpt>
      <trkpt lat="49.84581" lon="4.80065">
        <ele>391</ele>
        <time>2022-09-28T07:45:10.000Z</time>
      </trkpt>
      <trkpt lat="49.84582" lon="4.8007">
        <ele>391</ele>
        <time>2022-09-28T07:45:11.000Z</time>
      </trkpt>
      <trkpt lat="49.84584" lon="4.80074">
        <ele>391</ele>
        <time>2022-09-28T07:45:12.000Z</time>
      </trkpt>
      <trkpt lat="49.84585" lon="4.80079">
        <ele>391</ele>
        <time>2022-09-28T07:45:13.000Z</time>
      </trkpt>
      <trkpt lat="49.84587" lon="4.80084">
        <ele>391</ele>
        <time>2022-09-28T07:45:14.000Z</time>
      </trkpt>
      <trkpt lat="49.84589" lon="4.80089">
        <ele>391</ele>
        <time>2022-09-28T07:45:15.000Z</time>
      </trkpt>
      <trkpt lat="49.84591" lon="4.80094">
        <ele>391</ele>
        <time>2022-09-28T07:45:16.000Z</time>
      </trkpt>
      <trkpt lat="49.84592" lon="4.80099">
        <ele>391</ele>
        <time>2022-09-28T07:45:17.000Z</time>
      </trkpt>
      <trkpt lat="49.84594" lon="4.80104">
        <ele>391</ele>
        <time>2022-09-28T07:45:18.000Z</time>
      </trkpt>
      <trkpt lat="49.84595" lon="4.8011">
        <ele>391</ele>
        <time>2022-09-28T07:45:19.000Z</time>
      </trkpt>
      <trkpt lat="49.84595" lon="4.80115">
        <ele>391</ele>
        <time>2022-09-28T07:45:20.000Z</time>
      </trkpt>
      <trkpt lat="49.84597" lon="4.8012">
        <ele>391</ele>
        <time>2022-09-28T07:45:21.000Z</time>
      </trkpt>
      <trkpt lat="49.84599" lon="4.80125">
        <ele>391</ele>
        <time>2022-09-28T07:45:22.000Z</time>
      </trkpt>
      <trkpt lat="49.84601" lon="4.8013">
        <ele>391</ele>
        <time>2022-09-28T07:45:23.000Z</time>
      </trkpt>
      <trkpt lat="49.84603" lon="4.80135">
        <ele>391</ele>
        <time>2022-09-28T07:45:24.000Z</time>
      </trkpt>
      <trkpt lat="49.84605" lon="4.8014">
        <ele>392</ele>
        <time>2022-09-28T07:45:25.000Z</time>
      </trkpt>
      <trkpt lat="49.84607" lon="4.80145">
        <ele>392</ele>
        <time>2022-09-28T07:45:26.000Z</time>
      </trkpt>
      <trkpt lat="49.84608" lon="4.8015">
        <ele>392</ele>
        <time>2022-09-28T07:45:27.000Z</time>
      </trkpt>
      <trkpt lat="49.84608" lon="4.80156">
        <ele>392</ele>
        <time>2022-09-28T07:45:28.000Z</time>
      </trkpt>
      <trkpt lat="49.84609" lon="4.80162">
        <ele>392</ele>
        <time>2022-09-28T07:45:29.000Z</time>
      </trkpt>
      <trkpt lat="49.84609" lon="4.80167">
        <ele>392</ele>
        <time>2022-09-28T07:45:30.000Z</time>
      </trkpt>
      <trkpt lat="49.8461" lon="4.80173">
        <ele>392</ele>
        <time>2022-09-28T07:45:31.000Z</time>
      </trkpt>
      <trkpt lat="49.84611" lon="4.80178">
        <ele>392</ele>
        <time>2022-09-28T07:45:32.000Z</time>
      </trkpt>
      <trkpt lat="49.84612" lon="4.80183">
        <ele>392</ele>
        <time>2022-09-28T07:45:33.000Z</time>
      </trkpt>
      <trkpt lat="49.84614" lon="4.80189">
        <ele>392</ele>
        <time>2022-09-28T07:45:34.000Z</time>
      </trkpt>
      <trkpt lat="49.84615" lon="4.80195">
        <ele>393</ele>
        <time>2022-09-28T07:45:35.000Z</time>
      </trkpt>
      <trkpt lat="49.84616" lon="4.802">
        <ele>393</ele>
        <time>2022-09-28T07:45:36.000Z</time>
      </trkpt>
      <trkpt lat="49.84617" lon="4.80206">
        <ele>393</ele>
        <time>2022-09-28T07:45:37.000Z</time>
      </trkpt>
      <trkpt lat="49.84618" lon="4.8021">
        <ele>393</ele>
        <time>2022-09-28T07:45:38.000Z</time>
      </trkpt>
      <trkpt lat="49.8462" lon="4.80214">
        <ele>393</ele>
        <time>2022-09-28T07:45:39.000Z</time>
      </trkpt>
      <trkpt lat="49.84623" lon="4.80219">
        <ele>393</ele>
        <time>2022-09-28T07:45:40.000Z</time>
      </trkpt>
      <trkpt lat="49.84624" lon="4.80225">
        <ele>393</ele>
        <time>2022-09-28T07:45:41.000Z</time>
      </trkpt>
      <trkpt lat="49.84626" lon="4.8023">
        <ele>393</ele>
        <time>2022-09-28T07:45:42.000Z</time>
      </trkpt>
      <trkpt lat="49.84628" lon="4.80235">
        <ele>393</ele>
        <time>2022-09-28T07:45:43.000Z</time>
      </trkpt>
      <trkpt lat="49.84631" lon="4.8024">
        <ele>393</ele>
        <time>2022-09-28T07:45:44.000Z</time>
      </trkpt>
      <trkpt lat="49.84633" lon="4.80245">
        <ele>392</ele>
        <time>2022-09-28T07:45:45.000Z</time>
      </trkpt>
      <trkpt lat="49.84635" lon="4.80249">
        <ele>392</ele>
        <time>2022-09-28T07:45:46.000Z</time>
      </trkpt>
      <trkpt lat="49.84637" lon="4.80253">
        <ele>393</ele>
        <time>2022-09-28T07:45:47.000Z</time>
      </trkpt>
      <trkpt lat="49.84639" lon="4.80257">
        <ele>393</ele>
        <time>2022-09-28T07:45:48.000Z</time>
      </trkpt>
      <trkpt lat="49.8464" lon="4.80262">
        <ele>393</ele>
        <time>2022-09-28T07:45:49.000Z</time>
      </trkpt>
      <trkpt lat="49.84642" lon="4.80267">
        <ele>393</ele>
        <time>2022-09-28T07:45:50.000Z</time>
      </trkpt>
      <trkpt lat="49.84644" lon="4.80272">
        <ele>392</ele>
        <time>2022-09-28T07:45:51.000Z</time>
      </trkpt>
      <trkpt lat="49.84646" lon="4.80277">
        <ele>392</ele>
        <time>2022-09-28T07:45:52.000Z</time>
      </trkpt>
      <trkpt lat="49.84648" lon="4.80282">
        <ele>392</ele>
        <time>2022-09-28T07:45:53.000Z</time>
      </trkpt>
      <trkpt lat="49.8465" lon="4.80288">
        <ele>392</ele>
        <time>2022-09-28T07:45:54.000Z</time>
      </trkpt>
      <trkpt lat="49.84652" lon="4.80293">
        <ele>392</ele>
        <time>2022-09-28T07:45:55.000Z</time>
      </trkpt>
      <trkpt lat="49.84654" lon="4.80299">
        <ele>392</ele>
        <time>2022-09-28T07:45:56.000Z</time>
      </trkpt>
      <trkpt lat="49.84656" lon="4.80305">
        <ele>392</ele>
        <time>2022-09-28T07:45:57.000Z</time>
      </trkpt>
      <trkpt lat="49.84657" lon="4.80309">
        <ele>392</ele>
        <time>2022-09-28T07:45:58.000Z</time>
      </trkpt>
      <trkpt lat="49.84659" lon="4.80315">
        <ele>392</ele>
        <time>2022-09-28T07:45:59.000Z</time>
      </trkpt>
      <trkpt lat="49.8466" lon="4.8032">
        <ele>392</ele>
        <time>2022-09-28T07:46:00.000Z</time>
      </trkpt>
      <trkpt lat="49.84662" lon="4.80326">
        <ele>392</ele>
        <time>2022-09-28T07:46:01.000Z</time>
      </trkpt>
      <trkpt lat="49.84665" lon="4.80331">
        <ele>392</ele>
        <time>2022-09-28T07:46:02.000Z</time>
      </trkpt>
      <trkpt lat="49.84666" lon="4.80337">
        <ele>392</ele>
        <time>2022-09-28T07:46:03.000Z</time>
      </trkpt>
      <trkpt lat="49.84668" lon="4.80343">
        <ele>392</ele>
        <time>2022-09-28T07:46:04.000Z</time>
      </trkpt>
      <trkpt lat="49.8467" lon="4.80349">
        <ele>392</ele>
        <time>2022-09-28T07:46:05.000Z</time>
      </trkpt>
      <trkpt lat="49.84673" lon="4.80355">
        <ele>392</ele>
        <time>2022-09-28T07:46:06.000Z</time>
      </trkpt>
      <trkpt lat="49.84676" lon="4.80361">
        <ele>392</ele>
        <time>2022-09-28T07:46:07.000Z</time>
      </trkpt>
      <trkpt lat="49.84678" lon="4.80368">
        <ele>392</ele>
        <time>2022-09-28T07:46:08.000Z</time>
      </trkpt>
      <trkpt lat="49.84681" lon="4.80375">
        <ele>392</ele>
        <time>2022-09-28T07:46:09.000Z</time>
      </trkpt>
      <trkpt lat="49.84683" lon="4.80383">
        <ele>392</ele>
        <time>2022-09-28T07:46:10.000Z</time>
      </trkpt>
      <trkpt lat="49.84685" lon="4.8039">
        <ele>392</ele>
        <time>2022-09-28T07:46:11.000Z</time>
      </trkpt>
      <trkpt lat="49.84688" lon="4.80397">
        <ele>392</ele>
        <time>2022-09-28T07:46:12.000Z</time>
      </trkpt>
      <trkpt lat="49.84691" lon="4.80404">
        <ele>392</ele>
        <time>2022-09-28T07:46:13.000Z</time>
      </trkpt>
      <trkpt lat="49.84694" lon="4.80409">
        <ele>392</ele>
        <time>2022-09-28T07:46:14.000Z</time>
      </trkpt>
      <trkpt lat="49.84696" lon="4.80416">
        <ele>392</ele>
        <time>2022-09-28T07:46:15.000Z</time>
      </trkpt>
      <trkpt lat="49.84698" lon="4.80423">
        <ele>392</ele>
        <time>2022-09-28T07:46:16.000Z</time>
      </trkpt>
      <trkpt lat="49.847" lon="4.80429">
        <ele>392</ele>
        <time>2022-09-28T07:46:17.000Z</time>
      </trkpt>
      <trkpt lat="49.84701" lon="4.80435">
        <ele>392</ele>
        <time>2022-09-28T07:46:18.000Z</time>
      </trkpt>
      <trkpt lat="49.84703" lon="4.80442">
        <ele>392</ele>
        <time>2022-09-28T07:46:19.000Z</time>
      </trkpt>
      <trkpt lat="49.84706" lon="4.80448">
        <ele>392</ele>
        <time>2022-09-28T07:46:20.000Z</time>
      </trkpt>
      <trkpt lat="49.84709" lon="4.80454">
        <ele>392</ele>
        <time>2022-09-28T07:46:21.000Z</time>
      </trkpt>
      <trkpt lat="49.84712" lon="4.8046">
        <ele>392</ele>
        <time>2022-09-28T07:46:22.000Z</time>
      </trkpt>
      <trkpt lat="49.84713" lon="4.80466">
        <ele>392</ele>
        <time>2022-09-28T07:46:23.000Z</time>
      </trkpt>
      <trkpt lat="49.84716" lon="4.80472">
        <ele>392</ele>
        <time>2022-09-28T07:46:24.000Z</time>
      </trkpt>
      <trkpt lat="49.84718" lon="4.80478">
        <ele>392</ele>
        <time>2022-09-28T07:46:25.000Z</time>
      </trkpt>
      <trkpt lat="49.8472" lon="4.80484">
        <ele>392</ele>
        <time>2022-09-28T07:46:26.000Z</time>
      </trkpt>
      <trkpt lat="49.84721" lon="4.8049">
        <ele>392</ele>
        <time>2022-09-28T07:46:27.000Z</time>
      </trkpt>
      <trkpt lat="49.84724" lon="4.80496">
        <ele>392</ele>
        <time>2022-09-28T07:46:28.000Z</time>
      </trkpt>
      <trkpt lat="49.84727" lon="4.80502">
        <ele>392</ele>
        <time>2022-09-28T07:46:29.000Z</time>
      </trkpt>
      <trkpt lat="49.8473" lon="4.80508">
        <ele>391</ele>
        <time>2022-09-28T07:46:30.000Z</time>
      </trkpt>
      <trkpt lat="49.84733" lon="4.80515">
        <ele>391</ele>
        <time>2022-09-28T07:46:31.000Z</time>
      </trkpt>
      <trkpt lat="49.84735" lon="4.80521">
        <ele>391</ele>
        <time>2022-09-28T07:46:32.000Z</time>
      </trkpt>
      <trkpt lat="49.84739" lon="4.80527">
        <ele>391</ele>
        <time>2022-09-28T07:46:33.000Z</time>
      </trkpt>
      <trkpt lat="49.84742" lon="4.80534">
        <ele>390</ele>
        <time>2022-09-28T07:46:34.000Z</time>
      </trkpt>
      <trkpt lat="49.84744" lon="4.8054">
        <ele>390</ele>
        <time>2022-09-28T07:46:35.000Z</time>
      </trkpt>
      <trkpt lat="49.84746" lon="4.80545">
        <ele>390</ele>
        <time>2022-09-28T07:46:36.000Z</time>
      </trkpt>
      <trkpt lat="49.84748" lon="4.80548">
        <ele>390</ele>
        <time>2022-09-28T07:46:37.000Z</time>
      </trkpt>
      <trkpt lat="49.84749" lon="4.80551">
        <ele>389</ele>
        <time>2022-09-28T07:46:38.000Z</time>
      </trkpt>
      <trkpt lat="49.8475" lon="4.80552">
        <ele>389</ele>
        <time>2022-09-28T07:46:39.000Z</time>
      </trkpt>
      <trkpt lat="49.84752" lon="4.80554">
        <ele>389</ele>
        <time>2022-09-28T07:46:40.000Z</time>
      </trkpt>
      <trkpt lat="49.84753" lon="4.80555">
        <ele>389</ele>
        <time>2022-09-28T07:46:41.000Z</time>
      </trkpt>
      <trkpt lat="49.84753" lon="4.80558">
        <ele>389</ele>
        <time>2022-09-28T07:46:42.000Z</time>
      </trkpt>
      <trkpt lat="49.84753" lon="4.8056">
        <ele>389</ele>
        <time>2022-09-28T07:46:43.000Z</time>
      </trkpt>
      <trkpt lat="49.84752" lon="4.80563">
        <ele>389</ele>
        <time>2022-09-28T07:46:44.000Z</time>
      </trkpt>
      <trkpt lat="49.84751" lon="4.80566">
        <ele>389</ele>
        <time>2022-09-28T07:46:45.000Z</time>
      </trkpt>
      <trkpt lat="49.84751" lon="4.80571">
        <ele>388</ele>
        <time>2022-09-28T07:46:46.000Z</time>
      </trkpt>
      <trkpt lat="49.84751" lon="4.80577">
        <ele>388</ele>
        <time>2022-09-28T07:46:47.000Z</time>
      </trkpt>
      <trkpt lat="49.84752" lon="4.80582">
        <ele>388</ele>
        <time>2022-09-28T07:46:48.000Z</time>
      </trkpt>
      <trkpt lat="49.84753" lon="4.80586">
        <ele>388</ele>
        <time>2022-09-28T07:46:49.000Z</time>
      </trkpt>
      <trkpt lat="49.84755" lon="4.80589">
        <ele>388</ele>
        <time>2022-09-28T07:46:50.000Z</time>
      </trkpt>
      <trkpt lat="49.84759" lon="4.80591">
        <ele>388</ele>
        <time>2022-09-28T07:46:51.000Z</time>
      </trkpt>
      <trkpt lat="49.84762" lon="4.80594">
        <ele>388</ele>
        <time>2022-09-28T07:46:52.000Z</time>
      </trkpt>
      <trkpt lat="49.84764" lon="4.80597">
        <ele>387</ele>
        <time>2022-09-28T07:46:53.000Z</time>
      </trkpt>
      <trkpt lat="49.84767" lon="4.80601">
        <ele>387</ele>
        <time>2022-09-28T07:46:54.000Z</time>
      </trkpt>
      <trkpt lat="49.8477" lon="4.80605">
        <ele>387</ele>
        <time>2022-09-28T07:46:55.000Z</time>
      </trkpt>
      <trkpt lat="49.84771" lon="4.8061">
        <ele>387</ele>
        <time>2022-09-28T07:46:56.000Z</time>
      </trkpt>
      <trkpt lat="49.84772" lon="4.80614">
        <ele>387</ele>
        <time>2022-09-28T07:46:57.000Z</time>
      </trkpt>
      <trkpt lat="49.84774" lon="4.80616">
        <ele>387</ele>
        <time>2022-09-28T07:46:58.000Z</time>
      </trkpt>
      <trkpt lat="49.84776" lon="4.80616">
        <ele>387</ele>
        <time>2022-09-28T07:46:59.000Z</time>
      </trkpt>
      <trkpt lat="49.84778" lon="4.80616">
        <ele>386</ele>
        <time>2022-09-28T07:47:00.000Z</time>
      </trkpt>
      <trkpt lat="49.84781" lon="4.80617">
        <ele>386</ele>
        <time>2022-09-28T07:47:01.000Z</time>
      </trkpt>
      <trkpt lat="49.84784" lon="4.80619">
        <ele>386</ele>
        <time>2022-09-28T07:47:02.000Z</time>
      </trkpt>
      <trkpt lat="49.84787" lon="4.80621">
        <ele>386</ele>
        <time>2022-09-28T07:47:03.000Z</time>
      </trkpt>
      <trkpt lat="49.84791" lon="4.80624">
        <ele>386</ele>
        <time>2022-09-28T07:47:04.000Z</time>
      </trkpt>
      <trkpt lat="49.84794" lon="4.80626">
        <ele>386</ele>
        <time>2022-09-28T07:47:05.000Z</time>
      </trkpt>
      <trkpt lat="49.84799" lon="4.80629">
        <ele>386</ele>
        <time>2022-09-28T07:47:06.000Z</time>
      </trkpt>
      <trkpt lat="49.84803" lon="4.80633">
        <ele>386</ele>
        <time>2022-09-28T07:47:07.000Z</time>
      </trkpt>
      <trkpt lat="49.84808" lon="4.80636">
        <ele>386</ele>
        <time>2022-09-28T07:47:08.000Z</time>
      </trkpt>
      <trkpt lat="49.84814" lon="4.8064">
        <ele>385</ele>
        <time>2022-09-28T07:47:09.000Z</time>
      </trkpt>
      <trkpt lat="49.84819" lon="4.80644">
        <ele>385</ele>
        <time>2022-09-28T07:47:10.000Z</time>
      </trkpt>
      <trkpt lat="49.84825" lon="4.80648">
        <ele>385</ele>
        <time>2022-09-28T07:47:11.000Z</time>
      </trkpt>
      <trkpt lat="49.84831" lon="4.80653">
        <ele>384</ele>
        <time>2022-09-28T07:47:12.000Z</time>
      </trkpt>
      <trkpt lat="49.84837" lon="4.80657">
        <ele>384</ele>
        <time>2022-09-28T07:47:13.000Z</time>
      </trkpt>
      <trkpt lat="49.84842" lon="4.80661">
        <ele>383</ele>
        <time>2022-09-28T07:47:14.000Z</time>
      </trkpt>
      <trkpt lat="49.84847" lon="4.80665">
        <ele>383</ele>
        <time>2022-09-28T07:47:15.000Z</time>
      </trkpt>
      <trkpt lat="49.84853" lon="4.80669">
        <ele>383</ele>
        <time>2022-09-28T07:47:16.000Z</time>
      </trkpt>
      <trkpt lat="49.84858" lon="4.80673">
        <ele>383</ele>
        <time>2022-09-28T07:47:17.000Z</time>
      </trkpt>
      <trkpt lat="49.84864" lon="4.80676">
        <ele>382</ele>
        <time>2022-09-28T07:47:18.000Z</time>
      </trkpt>
      <trkpt lat="49.8487" lon="4.80681">
        <ele>382</ele>
        <time>2022-09-28T07:47:19.000Z</time>
      </trkpt>
      <trkpt lat="49.84876" lon="4.80685">
        <ele>382</ele>
        <time>2022-09-28T07:47:20.000Z</time>
      </trkpt>
      <trkpt lat="49.84881" lon="4.80688">
        <ele>382</ele>
        <time>2022-09-28T07:47:21.000Z</time>
      </trkpt>
      <trkpt lat="49.84887" lon="4.8069">
        <ele>382</ele>
        <time>2022-09-28T07:47:22.000Z</time>
      </trkpt>
      <trkpt lat="49.84892" lon="4.80692">
        <ele>382</ele>
        <time>2022-09-28T07:47:23.000Z</time>
      </trkpt>
      <trkpt lat="49.84897" lon="4.80693">
        <ele>382</ele>
        <time>2022-09-28T07:47:24.000Z</time>
      </trkpt>
      <trkpt lat="49.84901" lon="4.80693">
        <ele>382</ele>
        <time>2022-09-28T07:47:25.000Z</time>
      </trkpt>
      <trkpt lat="49.84905" lon="4.80695">
        <ele>382</ele>
        <time>2022-09-28T07:47:26.000Z</time>
      </trkpt>
      <trkpt lat="49.8491" lon="4.80697">
        <ele>382</ele>
        <time>2022-09-28T07:47:27.000Z</time>
      </trkpt>
      <trkpt lat="49.84915" lon="4.80699">
        <ele>382</ele>
        <time>2022-09-28T07:47:28.000Z</time>
      </trkpt>
      <trkpt lat="49.8492" lon="4.80701">
        <ele>381</ele>
        <time>2022-09-28T07:47:29.000Z</time>
      </trkpt>
      <trkpt lat="49.84924" lon="4.80702">
        <ele>381</ele>
        <time>2022-09-28T07:47:30.000Z</time>
      </trkpt>
      <trkpt lat="49.84928" lon="4.80704">
        <ele>381</ele>
        <time>2022-09-28T07:47:31.000Z</time>
      </trkpt>
      <trkpt lat="49.84931" lon="4.80705">
        <ele>381</ele>
        <time>2022-09-28T07:47:32.000Z</time>
      </trkpt>
      <trkpt lat="49.84934" lon="4.80706">
        <ele>380</ele>
        <time>2022-09-28T07:47:33.000Z</time>
      </trkpt>
      <trkpt lat="49.84937" lon="4.80707">
        <ele>380</ele>
        <time>2022-09-28T07:47:34.000Z</time>
      </trkpt>
      <trkpt lat="49.8494" lon="4.80709">
        <ele>379</ele>
        <time>2022-09-28T07:47:35.000Z</time>
      </trkpt>
      <trkpt lat="49.84943" lon="4.80709">
        <ele>379</ele>
        <time>2022-09-28T07:47:36.000Z</time>
      </trkpt>
      <trkpt lat="49.84946" lon="4.8071">
        <ele>379</ele>
        <time>2022-09-28T07:47:37.000Z</time>
      </trkpt>
      <trkpt lat="49.84949" lon="4.80712">
        <ele>378</ele>
        <time>2022-09-28T07:47:38.000Z</time>
      </trkpt>
      <trkpt lat="49.84952" lon="4.80714">
        <ele>378</ele>
        <time>2022-09-28T07:47:39.000Z</time>
      </trkpt>
      <trkpt lat="49.84956" lon="4.80716">
        <ele>378</ele>
        <time>2022-09-28T07:47:40.000Z</time>
      </trkpt>
      <trkpt lat="49.84959" lon="4.80718">
        <ele>377</ele>
        <time>2022-09-28T07:47:41.000Z</time>
      </trkpt>
      <trkpt lat="49.84963" lon="4.80721">
        <ele>377</ele>
        <time>2022-09-28T07:47:42.000Z</time>
      </trkpt>
      <trkpt lat="49.84966" lon="4.80724">
        <ele>377</ele>
        <time>2022-09-28T07:47:43.000Z</time>
      </trkpt>
      <trkpt lat="49.8497" lon="4.80727">
        <ele>376</ele>
        <time>2022-09-28T07:47:44.000Z</time>
      </trkpt>
      <trkpt lat="49.84974" lon="4.8073">
        <ele>376</ele>
        <time>2022-09-28T07:47:45.000Z</time>
      </trkpt>
      <trkpt lat="49.84977" lon="4.80732">
        <ele>376</ele>
        <time>2022-09-28T07:47:46.000Z</time>
      </trkpt>
      <trkpt lat="49.84981" lon="4.80736">
        <ele>376</ele>
        <time>2022-09-28T07:47:47.000Z</time>
      </trkpt>
      <trkpt lat="49.84984" lon="4.80739">
        <ele>375</ele>
        <time>2022-09-28T07:47:48.000Z</time>
      </trkpt>
      <trkpt lat="49.84986" lon="4.80741">
        <ele>375</ele>
        <time>2022-09-28T07:47:49.000Z</time>
      </trkpt>
      <trkpt lat="49.84988" lon="4.80742">
        <ele>375</ele>
        <time>2022-09-28T07:47:50.000Z</time>
      </trkpt>
      <trkpt lat="49.84989" lon="4.80743">
        <ele>375</ele>
        <time>2022-09-28T07:47:51.000Z</time>
      </trkpt>
      <trkpt lat="49.84991" lon="4.80743">
        <ele>374</ele>
        <time>2022-09-28T07:47:52.000Z</time>
      </trkpt>
      <trkpt lat="49.84993" lon="4.80742">
        <ele>374</ele>
        <time>2022-09-28T07:47:53.000Z</time>
      </trkpt>
      <trkpt lat="49.84994" lon="4.80741">
        <ele>374</ele>
        <time>2022-09-28T07:47:54.000Z</time>
      </trkpt>
      <trkpt lat="49.84995" lon="4.8074">
        <ele>374</ele>
        <time>2022-09-28T07:47:55.000Z</time>
      </trkpt>
      <trkpt lat="49.84996" lon="4.80737">
        <ele>374</ele>
        <time>2022-09-28T07:47:56.000Z</time>
      </trkpt>
      <trkpt lat="49.84996" lon="4.80733">
        <ele>373</ele>
        <time>2022-09-28T07:47:57.000Z</time>
      </trkpt>
      <trkpt lat="49.84997" lon="4.8073">
        <ele>373</ele>
        <time>2022-09-28T07:47:58.000Z</time>
      </trkpt>
      <trkpt lat="49.84998" lon="4.80725">
        <ele>373</ele>
        <time>2022-09-28T07:47:59.000Z</time>
      </trkpt>
      <trkpt lat="49.84998" lon="4.8072">
        <ele>373</ele>
        <time>2022-09-28T07:48:00.000Z</time>
      </trkpt>
      <trkpt lat="49.84999" lon="4.80715">
        <ele>373</ele>
        <time>2022-09-28T07:48:01.000Z</time>
      </trkpt>
      <trkpt lat="49.84998" lon="4.80709">
        <ele>373</ele>
        <time>2022-09-28T07:48:02.000Z</time>
      </trkpt>
      <trkpt lat="49.84998" lon="4.80704">
        <ele>372</ele>
        <time>2022-09-28T07:48:03.000Z</time>
      </trkpt>
      <trkpt lat="49.84998" lon="4.80698">
        <ele>372</ele>
        <time>2022-09-28T07:48:04.000Z</time>
      </trkpt>
      <trkpt lat="49.84998" lon="4.80693">
        <ele>372</ele>
        <time>2022-09-28T07:48:05.000Z</time>
      </trkpt>
      <trkpt lat="49.84998" lon="4.80688">
        <ele>371</ele>
        <time>2022-09-28T07:48:06.000Z</time>
      </trkpt>
      <trkpt lat="49.84998" lon="4.80683">
        <ele>371</ele>
        <time>2022-09-28T07:48:07.000Z</time>
      </trkpt>
      <trkpt lat="49.84998" lon="4.80677">
        <ele>371</ele>
        <time>2022-09-28T07:48:08.000Z</time>
      </trkpt>
      <trkpt lat="49.84999" lon="4.80673">
        <ele>370</ele>
        <time>2022-09-28T07:48:09.000Z</time>
      </trkpt>
      <trkpt lat="49.84999" lon="4.80669">
        <ele>370</ele>
        <time>2022-09-28T07:48:10.000Z</time>
      </trkpt>
      <trkpt lat="49.84999" lon="4.80664">
        <ele>369</ele>
        <time>2022-09-28T07:48:11.000Z</time>
      </trkpt>
      <trkpt lat="49.85" lon="4.80658">
        <ele>369</ele>
        <time>2022-09-28T07:48:12.000Z</time>
      </trkpt>
      <trkpt lat="49.85" lon="4.80654">
        <ele>368</ele>
        <time>2022-09-28T07:48:13.000Z</time>
      </trkpt>
      <trkpt lat="49.85001" lon="4.80649">
        <ele>368</ele>
        <time>2022-09-28T07:48:14.000Z</time>
      </trkpt>
      <trkpt lat="49.85002" lon="4.80644">
        <ele>367</ele>
        <time>2022-09-28T07:48:15.000Z</time>
      </trkpt>
      <trkpt lat="49.85003" lon="4.8064">
        <ele>367</ele>
        <time>2022-09-28T07:48:16.000Z</time>
      </trkpt>
      <trkpt lat="49.85003" lon="4.80635">
        <ele>366</ele>
        <time>2022-09-28T07:48:17.000Z</time>
      </trkpt>
      <trkpt lat="49.85003" lon="4.80629">
        <ele>366</ele>
        <time>2022-09-28T07:48:18.000Z</time>
      </trkpt>
      <trkpt lat="49.85003" lon="4.80623">
        <ele>366</ele>
        <time>2022-09-28T07:48:19.000Z</time>
      </trkpt>
      <trkpt lat="49.85002" lon="4.80617">
        <ele>365</ele>
        <time>2022-09-28T07:48:20.000Z</time>
      </trkpt>
      <trkpt lat="49.85002" lon="4.80611">
        <ele>365</ele>
        <time>2022-09-28T07:48:21.000Z</time>
      </trkpt>
      <trkpt lat="49.85001" lon="4.80605">
        <ele>365</ele>
        <time>2022-09-28T07:48:22.000Z</time>
      </trkpt>
      <trkpt lat="49.85" lon="4.80599">
        <ele>364</ele>
        <time>2022-09-28T07:48:23.000Z</time>
      </trkpt>
      <trkpt lat="49.84998" lon="4.80593">
        <ele>364</ele>
        <time>2022-09-28T07:48:24.000Z</time>
      </trkpt>
      <trkpt lat="49.84997" lon="4.80587">
        <ele>363</ele>
        <time>2022-09-28T07:48:25.000Z</time>
      </trkpt>
      <trkpt lat="49.84996" lon="4.80583">
        <ele>363</ele>
        <time>2022-09-28T07:48:26.000Z</time>
      </trkpt>
      <trkpt lat="49.84995" lon="4.80579">
        <ele>362</ele>
        <time>2022-09-28T07:48:27.000Z</time>
      </trkpt>
      <trkpt lat="49.84995" lon="4.80575">
        <ele>362</ele>
        <time>2022-09-28T07:48:28.000Z</time>
      </trkpt>
      <trkpt lat="49.84995" lon="4.80572">
        <ele>362</ele>
        <time>2022-09-28T07:48:29.000Z</time>
      </trkpt>
      <trkpt lat="49.84995" lon="4.80568">
        <ele>361</ele>
        <time>2022-09-28T07:48:30.000Z</time>
      </trkpt>
      <trkpt lat="49.84995" lon="4.80564">
        <ele>361</ele>
        <time>2022-09-28T07:48:31.000Z</time>
      </trkpt>
      <trkpt lat="49.84995" lon="4.80559">
        <ele>361</ele>
        <time>2022-09-28T07:48:32.000Z</time>
      </trkpt>
      <trkpt lat="49.84995" lon="4.80553">
        <ele>360</ele>
        <time>2022-09-28T07:48:33.000Z</time>
      </trkpt>
      <trkpt lat="49.84995" lon="4.80546">
        <ele>360</ele>
        <time>2022-09-28T07:48:34.000Z</time>
      </trkpt>
      <trkpt lat="49.84995" lon="4.8054">
        <ele>360</ele>
        <time>2022-09-28T07:48:35.000Z</time>
      </trkpt>
      <trkpt lat="49.84995" lon="4.80536">
        <ele>359</ele>
        <time>2022-09-28T07:48:36.000Z</time>
      </trkpt>
      <trkpt lat="49.84994" lon="4.80533">
        <ele>359</ele>
        <time>2022-09-28T07:48:37.000Z</time>
      </trkpt>
      <trkpt lat="49.84994" lon="4.8053">
        <ele>359</ele>
        <time>2022-09-28T07:48:38.000Z</time>
      </trkpt>
      <trkpt lat="49.84994" lon="4.80526">
        <ele>358</ele>
        <time>2022-09-28T07:48:39.000Z</time>
      </trkpt>
      <trkpt lat="49.84993" lon="4.80521">
        <ele>358</ele>
        <time>2022-09-28T07:48:40.000Z</time>
      </trkpt>
      <trkpt lat="49.84992" lon="4.80517">
        <ele>358</ele>
        <time>2022-09-28T07:48:41.000Z</time>
      </trkpt>
      <trkpt lat="49.8499" lon="4.80513">
        <ele>358</ele>
        <time>2022-09-28T07:48:42.000Z</time>
      </trkpt>
      <trkpt lat="49.84989" lon="4.80511">
        <ele>358</ele>
        <time>2022-09-28T07:48:43.000Z</time>
      </trkpt>
      <trkpt lat="49.84987" lon="4.80509">
        <ele>357</ele>
        <time>2022-09-28T07:48:44.000Z</time>
      </trkpt>
      <trkpt lat="49.84985" lon="4.80509">
        <ele>357</ele>
        <time>2022-09-28T07:48:45.000Z</time>
      </trkpt>
      <trkpt lat="49.84983" lon="4.80508">
        <ele>357</ele>
        <time>2022-09-28T07:48:46.000Z</time>
      </trkpt>
      <trkpt lat="49.84982" lon="4.80508">
        <ele>357</ele>
        <time>2022-09-28T07:48:47.000Z</time>
      </trkpt>
      <trkpt lat="49.8498" lon="4.80508">
        <ele>357</ele>
        <time>2022-09-28T07:48:48.000Z</time>
      </trkpt>
      <trkpt lat="49.84978" lon="4.80508">
        <ele>357</ele>
        <time>2022-09-28T07:48:49.000Z</time>
      </trkpt>
      <trkpt lat="49.84976" lon="4.80508">
        <ele>357</ele>
        <time>2022-09-28T07:48:50.000Z</time>
      </trkpt>
      <trkpt lat="49.84974" lon="4.80508">
        <ele>356</ele>
        <time>2022-09-28T07:48:51.000Z</time>
      </trkpt>
      <trkpt lat="49.84972" lon="4.80507">
        <ele>356</ele>
        <time>2022-09-28T07:48:52.000Z</time>
      </trkpt>
      <trkpt lat="49.8497" lon="4.80507">
        <ele>356</ele>
        <time>2022-09-28T07:48:53.000Z</time>
      </trkpt>
      <trkpt lat="49.84969" lon="4.80507">
        <ele>356</ele>
        <time>2022-09-28T07:48:54.000Z</time>
      </trkpt>
      <trkpt lat="49.84967" lon="4.80506">
        <ele>356</ele>
        <time>2022-09-28T07:48:55.000Z</time>
      </trkpt>
      <trkpt lat="49.84966" lon="4.80506">
        <ele>355</ele>
        <time>2022-09-28T07:48:56.000Z</time>
      </trkpt>
      <trkpt lat="49.84964" lon="4.80505">
        <ele>355</ele>
        <time>2022-09-28T07:48:57.000Z</time>
      </trkpt>
      <trkpt lat="49.84962" lon="4.80505">
        <ele>355</ele>
        <time>2022-09-28T07:48:58.000Z</time>
      </trkpt>
      <trkpt lat="49.84961" lon="4.80505">
        <ele>355</ele>
        <time>2022-09-28T07:48:59.000Z</time>
      </trkpt>
      <trkpt lat="49.84959" lon="4.80505">
        <ele>355</ele>
        <time>2022-09-28T07:49:00.000Z</time>
      </trkpt>
      <trkpt lat="49.84957" lon="4.80505">
        <ele>355</ele>
        <time>2022-09-28T07:49:01.000Z</time>
      </trkpt>
      <trkpt lat="49.84955" lon="4.80505">
        <ele>355</ele>
        <time>2022-09-28T07:49:02.000Z</time>
      </trkpt>
      <trkpt lat="49.84953" lon="4.80505">
        <ele>355</ele>
        <time>2022-09-28T07:49:03.000Z</time>
      </trkpt>
      <trkpt lat="49.84951" lon="4.80504">
        <ele>355</ele>
        <time>2022-09-28T07:49:04.000Z</time>
      </trkpt>
      <trkpt lat="49.8495" lon="4.80503">
        <ele>355</ele>
        <time>2022-09-28T07:49:05.000Z</time>
      </trkpt>
      <trkpt lat="49.84948" lon="4.80503">
        <ele>355</ele>
        <time>2022-09-28T07:49:06.000Z</time>
      </trkpt>
      <trkpt lat="49.84946" lon="4.80502">
        <ele>355</ele>
        <time>2022-09-28T07:49:07.000Z</time>
      </trkpt>
      <trkpt lat="49.84945" lon="4.80502">
        <ele>355</ele>
        <time>2022-09-28T07:49:08.000Z</time>
      </trkpt>
      <trkpt lat="49.84943" lon="4.80502">
        <ele>355</ele>
        <time>2022-09-28T07:49:09.000Z</time>
      </trkpt>
      <trkpt lat="49.84941" lon="4.80502">
        <ele>355</ele>
        <time>2022-09-28T07:49:10.000Z</time>
      </trkpt>
      <trkpt lat="49.84939" lon="4.80502">
        <ele>355</ele>
        <time>2022-09-28T07:49:11.000Z</time>
      </trkpt>
      <trkpt lat="49.84937" lon="4.80501">
        <ele>355</ele>
        <time>2022-09-28T07:49:12.000Z</time>
      </trkpt>
      <trkpt lat="49.84935" lon="4.80501">
        <ele>356</ele>
        <time>2022-09-28T07:49:13.000Z</time>
      </trkpt>
      <trkpt lat="49.84933" lon="4.805">
        <ele>356</ele>
        <time>2022-09-28T07:49:14.000Z</time>
      </trkpt>
      <trkpt lat="49.8493" lon="4.80499">
        <ele>356</ele>
        <time>2022-09-28T07:49:15.000Z</time>
      </trkpt>
      <trkpt lat="49.84927" lon="4.80499">
        <ele>356</ele>
        <time>2022-09-28T07:49:16.000Z</time>
      </trkpt>
      <trkpt lat="49.84925" lon="4.80498">
        <ele>356</ele>
        <time>2022-09-28T07:49:17.000Z</time>
      </trkpt>
      <trkpt lat="49.84923" lon="4.80498">
        <ele>356</ele>
        <time>2022-09-28T07:49:18.000Z</time>
      </trkpt>
      <trkpt lat="49.84921" lon="4.80497">
        <ele>356</ele>
        <time>2022-09-28T07:49:19.000Z</time>
      </trkpt>
      <trkpt lat="49.8492" lon="4.80497">
        <ele>356</ele>
        <time>2022-09-28T07:49:20.000Z</time>
      </trkpt>
      <trkpt lat="49.84918" lon="4.80497">
        <ele>356</ele>
        <time>2022-09-28T07:49:21.000Z</time>
      </trkpt>
      <trkpt lat="49.84916" lon="4.80497">
        <ele>356</ele>
        <time>2022-09-28T07:49:22.000Z</time>
      </trkpt>
      <trkpt lat="49.84914" lon="4.80497">
        <ele>356</ele>
        <time>2022-09-28T07:49:23.000Z</time>
      </trkpt>
      <trkpt lat="49.84912" lon="4.80496">
        <ele>356</ele>
        <time>2022-09-28T07:49:24.000Z</time>
      </trkpt>
      <trkpt lat="49.8491" lon="4.80496">
        <ele>356</ele>
        <time>2022-09-28T07:49:25.000Z</time>
      </trkpt>
      <trkpt lat="49.84908" lon="4.80496">
        <ele>356</ele>
        <time>2022-09-28T07:49:26.000Z</time>
      </trkpt>
      <trkpt lat="49.84905" lon="4.80495">
        <ele>356</ele>
        <time>2022-09-28T07:49:27.000Z</time>
      </trkpt>
      <trkpt lat="49.84903" lon="4.80495">
        <ele>357</ele>
        <time>2022-09-28T07:49:28.000Z</time>
      </trkpt>
      <trkpt lat="49.84901" lon="4.80494">
        <ele>357</ele>
        <time>2022-09-28T07:49:29.000Z</time>
      </trkpt>
      <trkpt lat="49.84899" lon="4.80493">
        <ele>357</ele>
        <time>2022-09-28T07:49:30.000Z</time>
      </trkpt>
      <trkpt lat="49.84897" lon="4.80493">
        <ele>357</ele>
        <time>2022-09-28T07:49:31.000Z</time>
      </trkpt>
      <trkpt lat="49.84895" lon="4.80493">
        <ele>357</ele>
        <time>2022-09-28T07:49:32.000Z</time>
      </trkpt>
      <trkpt lat="49.84893" lon="4.80493">
        <ele>357</ele>
        <time>2022-09-28T07:49:33.000Z</time>
      </trkpt>
      <trkpt lat="49.84891" lon="4.80492">
        <ele>357</ele>
        <time>2022-09-28T07:49:34.000Z</time>
      </trkpt>
      <trkpt lat="49.84889" lon="4.80492">
        <ele>358</ele>
        <time>2022-09-28T07:49:35.000Z</time>
      </trkpt>
      <trkpt lat="49.84887" lon="4.80492">
        <ele>358</ele>
        <time>2022-09-28T07:49:36.000Z</time>
      </trkpt>
      <trkpt lat="49.84885" lon="4.80492">
        <ele>358</ele>
        <time>2022-09-28T07:49:37.000Z</time>
      </trkpt>
      <trkpt lat="49.84883" lon="4.80492">
        <ele>358</ele>
        <time>2022-09-28T07:49:38.000Z</time>
      </trkpt>
      <trkpt lat="49.84881" lon="4.80492">
        <ele>358</ele>
        <time>2022-09-28T07:49:39.000Z</time>
      </trkpt>
      <trkpt lat="49.84879" lon="4.80492">
        <ele>358</ele>
        <time>2022-09-28T07:49:40.000Z</time>
      </trkpt>
      <trkpt lat="49.84877" lon="4.80492">
        <ele>359</ele>
        <time>2022-09-28T07:49:41.000Z</time>
      </trkpt>
      <trkpt lat="49.84874" lon="4.80491">
        <ele>359</ele>
        <time>2022-09-28T07:49:42.000Z</time>
      </trkpt>
      <trkpt lat="49.84872" lon="4.80491">
        <ele>359</ele>
        <time>2022-09-28T07:49:43.000Z</time>
      </trkpt>
      <trkpt lat="49.8487" lon="4.8049">
        <ele>359</ele>
        <time>2022-09-28T07:49:44.000Z</time>
      </trkpt>
      <trkpt lat="49.84867" lon="4.8049">
        <ele>360</ele>
        <time>2022-09-28T07:49:45.000Z</time>
      </trkpt>
      <trkpt lat="49.84865" lon="4.8049">
        <ele>360</ele>
        <time>2022-09-28T07:49:46.000Z</time>
      </trkpt>
      <trkpt lat="49.84864" lon="4.8049">
        <ele>360</ele>
        <time>2022-09-28T07:49:47.000Z</time>
      </trkpt>
      <trkpt lat="49.84863" lon="4.80489">
        <ele>360</ele>
        <time>2022-09-28T07:49:48.000Z</time>
      </trkpt>
      <trkpt lat="49.84862" lon="4.80489">
        <ele>361</ele>
        <time>2022-09-28T07:49:49.000Z</time>
      </trkpt>
      <trkpt lat="49.84861" lon="4.80489">
        <ele>361</ele>
        <time>2022-09-28T07:49:50.000Z</time>
      </trkpt>
      <trkpt lat="49.84859" lon="4.80489">
        <ele>361</ele>
        <time>2022-09-28T07:49:51.000Z</time>
      </trkpt>
      <trkpt lat="49.84858" lon="4.80488">
        <ele>361</ele>
        <time>2022-09-28T07:49:52.000Z</time>
      </trkpt>
      <trkpt lat="49.84857" lon="4.80487">
        <ele>362</ele>
        <time>2022-09-28T07:49:53.000Z</time>
      </trkpt>
      <trkpt lat="49.84856" lon="4.80487">
        <ele>362</ele>
        <time>2022-09-28T07:49:54.000Z</time>
      </trkpt>
      <trkpt lat="49.84855" lon="4.80487">
        <ele>362</ele>
        <time>2022-09-28T07:49:55.000Z</time>
      </trkpt>
      <trkpt lat="49.84854" lon="4.80486">
        <ele>362</ele>
        <time>2022-09-28T07:49:56.000Z</time>
      </trkpt>
      <trkpt lat="49.84853" lon="4.80486">
        <ele>363</ele>
        <time>2022-09-28T07:49:57.000Z</time>
      </trkpt>
      <trkpt lat="49.84851" lon="4.80485">
        <ele>363</ele>
        <time>2022-09-28T07:49:58.000Z</time>
      </trkpt>
      <trkpt lat="49.8485" lon="4.80485">
        <ele>363</ele>
        <time>2022-09-28T07:49:59.000Z</time>
      </trkpt>
      <trkpt lat="49.84849" lon="4.80484">
        <ele>363</ele>
        <time>2022-09-28T07:50:00.000Z</time>
      </trkpt>
      <trkpt lat="49.84848" lon="4.80484">
        <ele>364</ele>
        <time>2022-09-28T07:50:01.000Z</time>
      </trkpt>
      <trkpt lat="49.84847" lon="4.80483">
        <ele>364</ele>
        <time>2022-09-28T07:50:02.000Z</time>
      </trkpt>
      <trkpt lat="49.84846" lon="4.80483">
        <ele>364</ele>
        <time>2022-09-28T07:50:03.000Z</time>
      </trkpt>
      <trkpt lat="49.84845" lon="4.80483">
        <ele>364</ele>
        <time>2022-09-28T07:50:04.000Z</time>
      </trkpt>
      <trkpt lat="49.84844" lon="4.80483">
        <ele>365</ele>
        <time>2022-09-28T07:50:05.000Z</time>
      </trkpt>
      <trkpt lat="49.84842" lon="4.80482">
        <ele>365</ele>
        <time>2022-09-28T07:50:06.000Z</time>
      </trkpt>
      <trkpt lat="49.84841" lon="4.80482">
        <ele>365</ele>
        <time>2022-09-28T07:50:07.000Z</time>
      </trkpt>
      <trkpt lat="49.8484" lon="4.80481">
        <ele>366</ele>
        <time>2022-09-28T07:50:08.000Z</time>
      </trkpt>
      <trkpt lat="49.84838" lon="4.80481">
        <ele>366</ele>
        <time>2022-09-28T07:50:09.000Z</time>
      </trkpt>
      <trkpt lat="49.84837" lon="4.8048">
        <ele>367</ele>
        <time>2022-09-28T07:50:10.000Z</time>
      </trkpt>
      <trkpt lat="49.84836" lon="4.8048">
        <ele>367</ele>
        <time>2022-09-28T07:50:11.000Z</time>
      </trkpt>
      <trkpt lat="49.84835" lon="4.8048">
        <ele>367</ele>
        <time>2022-09-28T07:50:12.000Z</time>
      </trkpt>
      <trkpt lat="49.84834" lon="4.8048">
        <ele>368</ele>
        <time>2022-09-28T07:50:13.000Z</time>
      </trkpt>
      <trkpt lat="49.84833" lon="4.8048">
        <ele>368</ele>
        <time>2022-09-28T07:50:14.000Z</time>
      </trkpt>
      <trkpt lat="49.84831" lon="4.8048">
        <ele>369</ele>
        <time>2022-09-28T07:50:15.000Z</time>
      </trkpt>
      <trkpt lat="49.84831" lon="4.8048">
        <ele>369</ele>
        <time>2022-09-28T07:50:16.000Z</time>
      </trkpt>
      <trkpt lat="49.8483" lon="4.8048">
        <ele>369</ele>
        <time>2022-09-28T07:50:17.000Z</time>
      </trkpt>
      <trkpt lat="49.8483" lon="4.8048">
        <ele>369</ele>
        <time>2022-09-28T07:50:18.000Z</time>
      </trkpt>
      <trkpt lat="49.84829" lon="4.8048">
        <ele>370</ele>
        <time>2022-09-28T07:50:19.000Z</time>
      </trkpt>
      <trkpt lat="49.84829" lon="4.8048">
        <ele>370</ele>
        <time>2022-09-28T07:50:20.000Z</time>
      </trkpt>
      <trkpt lat="49.84828" lon="4.8048">
        <ele>370</ele>
        <time>2022-09-28T07:50:21.000Z</time>
      </trkpt>
      <trkpt lat="49.84828" lon="4.8048">
        <ele>370</ele>
        <time>2022-09-28T07:50:22.000Z</time>
      </trkpt>
      <trkpt lat="49.84828" lon="4.8048">
        <ele>371</ele>
        <time>2022-09-28T07:50:23.000Z</time>
      </trkpt>
      <trkpt lat="49.84828" lon="4.8048">
        <ele>371</ele>
        <time>2022-09-28T07:50:24.000Z</time>
      </trkpt>
      <trkpt lat="49.84828" lon="4.8048">
        <ele>371</ele>
        <time>2022-09-28T07:50:25.000Z</time>
      </trkpt>
      <trkpt lat="49.84827" lon="4.8048">
        <ele>371</ele>
        <time>2022-09-28T07:50:26.000Z</time>
      </trkpt>
      <trkpt lat="49.84827" lon="4.8048">
        <ele>371</ele>
        <time>2022-09-28T07:50:27.000Z</time>
      </trkpt>
      <trkpt lat="49.84826" lon="4.8048">
        <ele>371</ele>
        <time>2022-09-28T07:50:28.000Z</time>
      </trkpt>
      <trkpt lat="49.84826" lon="4.8048">
        <ele>371</ele>
        <time>2022-09-28T07:50:29.000Z</time>
      </trkpt>
      <trkpt lat="49.84825" lon="4.8048">
        <ele>372</ele>
        <time>2022-09-28T07:50:30.000Z</time>
      </trkpt>
      <trkpt lat="49.84825" lon="4.8048">
        <ele>372</ele>
        <time>2022-09-28T07:50:31.000Z</time>
      </trkpt>
      <trkpt lat="49.84825" lon="4.8048">
        <ele>372</ele>
        <time>2022-09-28T07:50:32.000Z</time>
      </trkpt>
      <trkpt lat="49.84825" lon="4.8048">
        <ele>372</ele>
        <time>2022-09-28T07:50:33.000Z</time>
      </trkpt>
      <trkpt lat="49.84824" lon="4.8048">
        <ele>372</ele>
        <time>2022-09-28T07:50:34.000Z</time>
      </trkpt>
      <trkpt lat="49.84824" lon="4.80479">
        <ele>372</ele>
        <time>2022-09-28T07:50:35.000Z</time>
      </trkpt>
      <trkpt lat="49.84824" lon="4.80479">
        <ele>373</ele>
        <time>2022-09-28T07:50:36.000Z</time>
      </trkpt>
      <trkpt lat="49.84824" lon="4.80478">
        <ele>373</ele>
        <time>2022-09-28T07:50:37.000Z</time>
      </trkpt>
      <trkpt lat="49.84824" lon="4.80478">
        <ele>373</ele>
        <time>2022-09-28T07:50:38.000Z</time>
      </trkpt>
      <trkpt lat="49.84823" lon="4.80478">
        <ele>373</ele>
        <time>2022-09-28T07:50:39.000Z</time>
      </trkpt>
      <trkpt lat="49.84823" lon="4.80478">
        <ele>373</ele>
        <time>2022-09-28T07:50:40.000Z</time>
      </trkpt>
      <trkpt lat="49.84823" lon="4.80478">
        <ele>374</ele>
        <time>2022-09-28T07:50:41.000Z</time>
      </trkpt>
      <trkpt lat="49.84824" lon="4.80478">
        <ele>374</ele>
        <time>2022-09-28T07:50:42.000Z</time>
      </trkpt>
      <trkpt lat="49.84824" lon="4.80478">
        <ele>374</ele>
        <time>2022-09-28T07:50:43.000Z</time>
      </trkpt>
      <trkpt lat="49.84824" lon="4.80478">
        <ele>374</ele>
        <time>2022-09-28T07:50:44.000Z</time>
      </trkpt>
      <trkpt lat="49.84824" lon="4.80478">
        <ele>374</ele>
        <time>2022-09-28T07:50:45.000Z</time>
      </trkpt>
      <trkpt lat="49.84824" lon="4.80478">
        <ele>374</ele>
        <time>2022-09-28T07:50:46.000Z</time>
      </trkpt>
      <trkpt lat="49.84824" lon="4.80478">
        <ele>375</ele>
        <time>2022-09-28T07:50:47.000Z</time>
      </trkpt>
      <trkpt lat="49.84824" lon="4.80478">
        <ele>375</ele>
        <time>2022-09-28T07:50:48.000Z</time>
      </trkpt>
      <trkpt lat="49.84824" lon="4.80478">
        <ele>375</ele>
        <time>2022-09-28T07:50:49.000Z</time>
      </trkpt>
      <trkpt lat="49.84824" lon="4.80478">
        <ele>375</ele>
        <time>2022-09-28T07:50:50.000Z</time>
      </trkpt>
      <trkpt lat="49.84825" lon="4.80478">
        <ele>375</ele>
        <time>2022-09-28T07:50:51.000Z</time>
      </trkpt>
      <trkpt lat="49.84825" lon="4.80477">
        <ele>375</ele>
        <time>2022-09-28T07:50:52.000Z</time>
      </trkpt>
      <trkpt lat="49.84826" lon="4.80477">
        <ele>375</ele>
        <time>2022-09-28T07:50:53.000Z</time>
      </trkpt>
      <trkpt lat="49.84827" lon="4.80478">
        <ele>375</ele>
        <time>2022-09-28T07:50:54.000Z</time>
      </trkpt>
      <trkpt lat="49.84828" lon="4.80479">
        <ele>375</ele>
        <time>2022-09-28T07:50:55.000Z</time>
      </trkpt>
      <trkpt lat="49.84828" lon="4.80479">
        <ele>375</ele>
        <time>2022-09-28T07:50:56.000Z</time>
      </trkpt>
      <trkpt lat="49.84828" lon="4.80479">
        <ele>375</ele>
        <time>2022-09-28T07:50:57.000Z</time>
      </trkpt>
      <trkpt lat="49.84827" lon="4.80478">
        <ele>375</ele>
        <time>2022-09-28T07:50:58.000Z</time>
      </trkpt>
      <trkpt lat="49.84828" lon="4.80478">
        <ele>375</ele>
        <time>2022-09-28T07:50:59.000Z</time>
      </trkpt>
      <trkpt lat="49.84828" lon="4.80478">
        <ele>375</ele>
        <time>2022-09-28T07:51:00.000Z</time>
      </trkpt>
      <trkpt lat="49.84828" lon="4.80478">
        <ele>375</ele>
        <time>2022-09-28T07:51:01.000Z</time>
      </trkpt>
      <trkpt lat="49.8483" lon="4.80478">
        <ele>375</ele>
        <time>2022-09-28T07:51:02.000Z</time>
      </trkpt>
      <trkpt lat="49.84833" lon="4.80479">
        <ele>375</ele>
        <time>2022-09-28T07:51:03.000Z</time>
      </trkpt>
      <trkpt lat="49.84837" lon="4.8048">
        <ele>375</ele>
        <time>2022-09-28T07:51:04.000Z</time>
      </trkpt>
      <trkpt lat="49.84841" lon="4.80481">
        <ele>375</ele>
        <time>2022-09-28T07:51:05.000Z</time>
      </trkpt>
      <trkpt lat="49.84844" lon="4.80482">
        <ele>375</ele>
        <time>2022-09-28T07:51:06.000Z</time>
      </trkpt>
      <trkpt lat="49.84848" lon="4.80483">
        <ele>375</ele>
        <time>2022-09-28T07:51:07.000Z</time>
      </trkpt>
      <trkpt lat="49.84852" lon="4.80484">
        <ele>375</ele>
        <time>2022-09-28T07:51:08.000Z</time>
      </trkpt>
      <trkpt lat="49.84856" lon="4.80485">
        <ele>375</ele>
        <time>2022-09-28T07:51:09.000Z</time>
      </trkpt>
      <trkpt lat="49.8486" lon="4.80485">
        <ele>374</ele>
        <time>2022-09-28T07:51:10.000Z</time>
      </trkpt>
      <trkpt lat="49.84864" lon="4.80485">
        <ele>374</ele>
        <time>2022-09-28T07:51:11.000Z</time>
      </trkpt>
      <trkpt lat="49.84868" lon="4.80485">
        <ele>374</ele>
        <time>2022-09-28T07:51:12.000Z</time>
      </trkpt>
      <trkpt lat="49.84872" lon="4.80485">
        <ele>374</ele>
        <time>2022-09-28T07:51:13.000Z</time>
      </trkpt>
      <trkpt lat="49.84875" lon="4.80486">
        <ele>374</ele>
        <time>2022-09-28T07:51:14.000Z</time>
      </trkpt>
      <trkpt lat="49.8488" lon="4.80487">
        <ele>374</ele>
        <time>2022-09-28T07:51:15.000Z</time>
      </trkpt>
      <trkpt lat="49.84884" lon="4.80488">
        <ele>373</ele>
        <time>2022-09-28T07:51:16.000Z</time>
      </trkpt>
      <trkpt lat="49.84888" lon="4.80489">
        <ele>373</ele>
        <time>2022-09-28T07:51:17.000Z</time>
      </trkpt>
      <trkpt lat="49.84893" lon="4.80491">
        <ele>373</ele>
        <time>2022-09-28T07:51:18.000Z</time>
      </trkpt>
      <trkpt lat="49.84897" lon="4.80493">
        <ele>373</ele>
        <time>2022-09-28T07:51:19.000Z</time>
      </trkpt>
      <trkpt lat="49.84902" lon="4.80493">
        <ele>372</ele>
        <time>2022-09-28T07:51:20.000Z</time>
      </trkpt>
      <trkpt lat="49.84908" lon="4.80493">
        <ele>372</ele>
        <time>2022-09-28T07:51:21.000Z</time>
      </trkpt>
      <trkpt lat="49.84913" lon="4.80493">
        <ele>372</ele>
        <time>2022-09-28T07:51:22.000Z</time>
      </trkpt>
      <trkpt lat="49.84918" lon="4.80493">
        <ele>372</ele>
        <time>2022-09-28T07:51:23.000Z</time>
      </trkpt>
      <trkpt lat="49.84923" lon="4.80493">
        <ele>372</ele>
        <time>2022-09-28T07:51:24.000Z</time>
      </trkpt>
      <trkpt lat="49.84928" lon="4.80494">
        <ele>371</ele>
        <time>2022-09-28T07:51:25.000Z</time>
      </trkpt>
      <trkpt lat="49.84932" lon="4.80495">
        <ele>371</ele>
        <time>2022-09-28T07:51:26.000Z</time>
      </trkpt>
      <trkpt lat="49.84936" lon="4.80496">
        <ele>371</ele>
        <time>2022-09-28T07:51:27.000Z</time>
      </trkpt>
      <trkpt lat="49.84941" lon="4.80498">
        <ele>371</ele>
        <time>2022-09-28T07:51:28.000Z</time>
      </trkpt>
      <trkpt lat="49.84945" lon="4.80499">
        <ele>371</ele>
        <time>2022-09-28T07:51:29.000Z</time>
      </trkpt>
      <trkpt lat="49.84949" lon="4.80499">
        <ele>371</ele>
        <time>2022-09-28T07:51:30.000Z</time>
      </trkpt>
      <trkpt lat="49.84954" lon="4.80499">
        <ele>370</ele>
        <time>2022-09-28T07:51:31.000Z</time>
      </trkpt>
      <trkpt lat="49.84957" lon="4.80498">
        <ele>370</ele>
        <time>2022-09-28T07:51:32.000Z</time>
      </trkpt>
      <trkpt lat="49.84962" lon="4.80497">
        <ele>370</ele>
        <time>2022-09-28T07:51:33.000Z</time>
      </trkpt>
      <trkpt lat="49.84966" lon="4.80497">
        <ele>370</ele>
        <time>2022-09-28T07:51:34.000Z</time>
      </trkpt>
      <trkpt lat="49.84971" lon="4.80496">
        <ele>369</ele>
        <time>2022-09-28T07:51:35.000Z</time>
      </trkpt>
      <trkpt lat="49.84975" lon="4.80494">
        <ele>369</ele>
        <time>2022-09-28T07:51:36.000Z</time>
      </trkpt>
      <trkpt lat="49.84979" lon="4.80493">
        <ele>368</ele>
        <time>2022-09-28T07:51:37.000Z</time>
      </trkpt>
      <trkpt lat="49.84982" lon="4.80492">
        <ele>368</ele>
        <time>2022-09-28T07:51:38.000Z</time>
      </trkpt>
      <trkpt lat="49.84984" lon="4.80492">
        <ele>367</ele>
        <time>2022-09-28T07:51:39.000Z</time>
      </trkpt>
      <trkpt lat="49.84986" lon="4.80493">
        <ele>367</ele>
        <time>2022-09-28T07:51:40.000Z</time>
      </trkpt>
      <trkpt lat="49.84988" lon="4.80495">
        <ele>366</ele>
        <time>2022-09-28T07:51:41.000Z</time>
      </trkpt>
      <trkpt lat="49.84991" lon="4.80498">
        <ele>366</ele>
        <time>2022-09-28T07:51:42.000Z</time>
      </trkpt>
      <trkpt lat="49.84993" lon="4.80501">
        <ele>365</ele>
        <time>2022-09-28T07:51:43.000Z</time>
      </trkpt>
      <trkpt lat="49.84994" lon="4.80503">
        <ele>365</ele>
        <time>2022-09-28T07:51:44.000Z</time>
      </trkpt>
      <trkpt lat="49.84995" lon="4.80506">
        <ele>364</ele>
        <time>2022-09-28T07:51:45.000Z</time>
      </trkpt>
      <trkpt lat="49.84996" lon="4.80506">
        <ele>364</ele>
        <time>2022-09-28T07:51:46.000Z</time>
      </trkpt>
      <trkpt lat="49.84996" lon="4.80506">
        <ele>364</ele>
        <time>2022-09-28T07:51:47.000Z</time>
      </trkpt>
      <trkpt lat="49.84997" lon="4.80506">
        <ele>363</ele>
        <time>2022-09-28T07:51:48.000Z</time>
      </trkpt>
      <trkpt lat="49.84997" lon="4.80506">
        <ele>363</ele>
        <time>2022-09-28T07:51:49.000Z</time>
      </trkpt>
      <trkpt lat="49.84998" lon="4.80507">
        <ele>363</ele>
        <time>2022-09-28T07:51:50.000Z</time>
      </trkpt>
      <trkpt lat="49.84998" lon="4.80508">
        <ele>362</ele>
        <time>2022-09-28T07:51:51.000Z</time>
      </trkpt>
      <trkpt lat="49.84998" lon="4.80508">
        <ele>362</ele>
        <time>2022-09-28T07:51:52.000Z</time>
      </trkpt>
      <trkpt lat="49.84998" lon="4.80508">
        <ele>362</ele>
        <time>2022-09-28T07:51:53.000Z</time>
      </trkpt>
      <trkpt lat="49.84998" lon="4.80508">
        <ele>361</ele>
        <time>2022-09-28T07:51:54.000Z</time>
      </trkpt>
      <trkpt lat="49.84998" lon="4.80509">
        <ele>361</ele>
        <time>2022-09-28T07:51:55.000Z</time>
      </trkpt>
      <trkpt lat="49.84998" lon="4.8051">
        <ele>361</ele>
        <time>2022-09-28T07:51:56.000Z</time>
      </trkpt>
      <trkpt lat="49.84998" lon="4.8051">
        <ele>361</ele>
        <time>2022-09-28T07:51:57.000Z</time>
      </trkpt>
      <trkpt lat="49.84998" lon="4.80511">
        <ele>361</ele>
        <time>2022-09-28T07:51:58.000Z</time>
      </trkpt>
      <trkpt lat="49.84998" lon="4.80511">
        <ele>360</ele>
        <time>2022-09-28T07:51:59.000Z</time>
      </trkpt>
      <trkpt lat="49.84998" lon="4.80511">
        <ele>360</ele>
        <time>2022-09-28T07:52:00.000Z</time>
      </trkpt>
      <trkpt lat="49.84998" lon="4.80512">
        <ele>360</ele>
        <time>2022-09-28T07:52:01.000Z</time>
      </trkpt>
      <trkpt lat="49.84998" lon="4.80512">
        <ele>360</ele>
        <time>2022-09-28T07:52:02.000Z</time>
      </trkpt>
      <trkpt lat="49.84998" lon="4.80512">
        <ele>360</ele>
        <time>2022-09-28T07:52:03.000Z</time>
      </trkpt>
      <trkpt lat="49.84997" lon="4.80513">
        <ele>359</ele>
        <time>2022-09-28T07:52:04.000Z</time>
      </trkpt>
      <trkpt lat="49.84997" lon="4.80513">
        <ele>359</ele>
        <time>2022-09-28T07:52:05.000Z</time>
      </trkpt>
      <trkpt lat="49.84997" lon="4.80513">
        <ele>359</ele>
        <time>2022-09-28T07:52:06.000Z</time>
      </trkpt>
      <trkpt lat="49.84997" lon="4.80514">
        <ele>359</ele>
        <time>2022-09-28T07:52:07.000Z</time>
      </trkpt>
      <trkpt lat="49.84997" lon="4.80514">
        <ele>359</ele>
        <time>2022-09-28T07:52:08.000Z</time>
      </trkpt>
      <trkpt lat="49.84997" lon="4.80514">
        <ele>359</ele>
        <time>2022-09-28T07:52:09.000Z</time>
      </trkpt>
      <trkpt lat="49.84997" lon="4.80514">
        <ele>358</ele>
        <time>2022-09-28T07:52:10.000Z</time>
      </trkpt>
      <trkpt lat="49.84997" lon="4.80515">
        <ele>358</ele>
        <time>2022-09-28T07:52:11.000Z</time>
      </trkpt>
      <trkpt lat="49.84997" lon="4.80515">
        <ele>358</ele>
        <time>2022-09-28T07:52:12.000Z</time>
      </trkpt>
      <trkpt lat="49.84996" lon="4.80515">
        <ele>358</ele>
        <time>2022-09-28T07:52:13.000Z</time>
      </trkpt>
      <trkpt lat="49.84996" lon="4.80515">
        <ele>358</ele>
        <time>2022-09-28T07:52:14.000Z</time>
      </trkpt>
      <trkpt lat="49.84996" lon="4.80515">
        <ele>358</ele>
        <time>2022-09-28T07:52:15.000Z</time>
      </trkpt>
      <trkpt lat="49.84996" lon="4.80515">
        <ele>358</ele>
        <time>2022-09-28T07:52:16.000Z</time>
      </trkpt>
      <trkpt lat="49.84996" lon="4.80515">
        <ele>358</ele>
        <time>2022-09-28T07:52:17.000Z</time>
      </trkpt>
      <trkpt lat="49.84996" lon="4.80516">
        <ele>357</ele>
        <time>2022-09-28T07:52:18.000Z</time>
      </trkpt>
      <trkpt lat="49.84996" lon="4.80516">
        <ele>357</ele>
        <time>2022-09-28T07:52:19.000Z</time>
      </trkpt>
      <trkpt lat="49.84996" lon="4.80516">
        <ele>357</ele>
        <time>2022-09-28T07:52:20.000Z</time>
      </trkpt>
      <trkpt lat="49.84996" lon="4.80516">
        <ele>357</ele>
        <time>2022-09-28T07:52:21.000Z</time>
      </trkpt>
      <trkpt lat="49.84996" lon="4.80516">
        <ele>357</ele>
        <time>2022-09-28T07:52:22.000Z</time>
      </trkpt>
      <trkpt lat="49.84996" lon="4.80516">
        <ele>357</ele>
        <time>2022-09-28T07:52:23.000Z</time>
      </trkpt>
      <trkpt lat="49.84996" lon="4.80516">
        <ele>357</ele>
        <time>2022-09-28T07:52:24.000Z</time>
      </trkpt>
      <trkpt lat="49.84996" lon="4.80516">
        <ele>357</ele>
        <time>2022-09-28T07:52:25.000Z</time>
      </trkpt>
      <trkpt lat="49.84996" lon="4.80516">
        <ele>357</ele>
        <time>2022-09-28T07:52:26.000Z</time>
      </trkpt>
      <trkpt lat="49.84996" lon="4.80516">
        <ele>357</ele>
        <time>2022-09-28T07:52:27.000Z</time>
      </trkpt>
      <trkpt lat="49.84996" lon="4.80516">
        <ele>357</ele>
        <time>2022-09-28T07:52:28.000Z</time>
      </trkpt>
      <trkpt lat="49.84996" lon="4.80516">
        <ele>357</ele>
        <time>2022-09-28T07:52:29.000Z</time>
      </trkpt>
      <trkpt lat="49.84995" lon="4.80516">
        <ele>357</ele>
        <time>2022-09-28T07:52:30.000Z</time>
      </trkpt>
      <trkpt lat="49.84995" lon="4.80516">
        <ele>357</ele>
        <time>2022-09-28T07:52:31.000Z</time>
      </trkpt>
      <trkpt lat="49.84995" lon="4.80516">
        <ele>357</ele>
        <time>2022-09-28T07:52:32.000Z</time>
      </trkpt>
      <trkpt lat="49.84995" lon="4.80516">
        <ele>357</ele>
        <time>2022-09-28T07:52:33.000Z</time>
      </trkpt>
      <trkpt lat="49.84995" lon="4.80516">
        <ele>357</ele>
        <time>2022-09-28T07:52:34.000Z</time>
      </trkpt>
      <trkpt lat="49.84994" lon="4.80516">
        <ele>357</ele>
        <time>2022-09-28T07:52:35.000Z</time>
      </trkpt>
      <trkpt lat="49.84994" lon="4.80517">
        <ele>357</ele>
        <time>2022-09-28T07:52:36.000Z</time>
      </trkpt>
      <trkpt lat="49.84994" lon="4.80516">
        <ele>357</ele>
        <time>2022-09-28T07:52:37.000Z</time>
      </trkpt>
      <trkpt lat="49.84995" lon="4.80516">
        <ele>357</ele>
        <time>2022-09-28T07:52:38.000Z</time>
      </trkpt>
      <trkpt lat="49.84995" lon="4.80516">
        <ele>357</ele>
        <time>2022-09-28T07:52:39.000Z</time>
      </trkpt>
      <trkpt lat="49.84995" lon="4.80515">
        <ele>357</ele>
        <time>2022-09-28T07:52:40.000Z</time>
      </trkpt>
      <trkpt lat="49.84995" lon="4.80514">
        <ele>357</ele>
        <time>2022-09-28T07:52:41.000Z</time>
      </trkpt>
      <trkpt lat="49.84996" lon="4.80511">
        <ele>357</ele>
        <time>2022-09-28T07:52:42.000Z</time>
      </trkpt>
      <trkpt lat="49.84996" lon="4.80509">
        <ele>356</ele>
        <time>2022-09-28T07:52:43.000Z</time>
      </trkpt>
      <trkpt lat="49.84996" lon="4.80505">
        <ele>356</ele>
        <time>2022-09-28T07:52:44.000Z</time>
      </trkpt>
      <trkpt lat="49.84996" lon="4.805">
        <ele>356</ele>
        <time>2022-09-28T07:52:45.000Z</time>
      </trkpt>
      <trkpt lat="49.84996" lon="4.80494">
        <ele>356</ele>
        <time>2022-09-28T07:52:46.000Z</time>
      </trkpt>
      <trkpt lat="49.84995" lon="4.8049">
        <ele>356</ele>
        <time>2022-09-28T07:52:47.000Z</time>
      </trkpt>
      <trkpt lat="49.84996" lon="4.80485">
        <ele>356</ele>
        <time>2022-09-28T07:52:48.000Z</time>
      </trkpt>
      <trkpt lat="49.84996" lon="4.8048">
        <ele>356</ele>
        <time>2022-09-28T07:52:49.000Z</time>
      </trkpt>
      <trkpt lat="49.84998" lon="4.80476">
        <ele>355</ele>
        <time>2022-09-28T07:52:50.000Z</time>
      </trkpt>
      <trkpt lat="49.84999" lon="4.80473">
        <ele>355</ele>
        <time>2022-09-28T07:52:51.000Z</time>
      </trkpt>
      <trkpt lat="49.84999" lon="4.8047">
        <ele>355</ele>
        <time>2022-09-28T07:52:52.000Z</time>
      </trkpt>
      <trkpt lat="49.85" lon="4.80469">
        <ele>355</ele>
        <time>2022-09-28T07:52:53.000Z</time>
      </trkpt>
      <trkpt lat="49.85" lon="4.80468">
        <ele>355</ele>
        <time>2022-09-28T07:52:54.000Z</time>
      </trkpt>
      <trkpt lat="49.85001" lon="4.80467">
        <ele>354</ele>
        <time>2022-09-28T07:52:55.000Z</time>
      </trkpt>
      <trkpt lat="49.85001" lon="4.80466">
        <ele>354</ele>
        <time>2022-09-28T07:52:56.000Z</time>
      </trkpt>
      <trkpt lat="49.85001" lon="4.80465">
        <ele>354</ele>
        <time>2022-09-28T07:52:57.000Z</time>
      </trkpt>
      <trkpt lat="49.85001" lon="4.80462">
        <ele>354</ele>
        <time>2022-09-28T07:52:58.000Z</time>
      </trkpt>
      <trkpt lat="49.85002" lon="4.80459">
        <ele>354</ele>
        <time>2022-09-28T07:52:59.000Z</time>
      </trkpt>
      <trkpt lat="49.85002" lon="4.80455">
        <ele>354</ele>
        <time>2022-09-28T07:53:00.000Z</time>
      </trkpt>
      <trkpt lat="49.85002" lon="4.80451">
        <ele>353</ele>
        <time>2022-09-28T07:53:01.000Z</time>
      </trkpt>
      <trkpt lat="49.85002" lon="4.80447">
        <ele>353</ele>
        <time>2022-09-28T07:53:02.000Z</time>
      </trkpt>
      <trkpt lat="49.85002" lon="4.80442">
        <ele>353</ele>
        <time>2022-09-28T07:53:03.000Z</time>
      </trkpt>
      <trkpt lat="49.85003" lon="4.80437">
        <ele>353</ele>
        <time>2022-09-28T07:53:04.000Z</time>
      </trkpt>
      <trkpt lat="49.85003" lon="4.80432">
        <ele>353</ele>
        <time>2022-09-28T07:53:05.000Z</time>
      </trkpt>
      <trkpt lat="49.85003" lon="4.80426">
        <ele>352</ele>
        <time>2022-09-28T07:53:06.000Z</time>
      </trkpt>
      <trkpt lat="49.85004" lon="4.8042">
        <ele>352</ele>
        <time>2022-09-28T07:53:07.000Z</time>
      </trkpt>
      <trkpt lat="49.85004" lon="4.80415">
        <ele>352</ele>
        <time>2022-09-28T07:53:08.000Z</time>
      </trkpt>
      <trkpt lat="49.85004" lon="4.80409">
        <ele>352</ele>
        <time>2022-09-28T07:53:09.000Z</time>
      </trkpt>
      <trkpt lat="49.85004" lon="4.80404">
        <ele>351</ele>
        <time>2022-09-28T07:53:10.000Z</time>
      </trkpt>
      <trkpt lat="49.85005" lon="4.80399">
        <ele>351</ele>
        <time>2022-09-28T07:53:11.000Z</time>
      </trkpt>
      <trkpt lat="49.85005" lon="4.80394">
        <ele>350</ele>
        <time>2022-09-28T07:53:12.000Z</time>
      </trkpt>
      <trkpt lat="49.85005" lon="4.80388">
        <ele>350</ele>
        <time>2022-09-28T07:53:13.000Z</time>
      </trkpt>
      <trkpt lat="49.85006" lon="4.80383">
        <ele>350</ele>
        <time>2022-09-28T07:53:14.000Z</time>
      </trkpt>
      <trkpt lat="49.85007" lon="4.80379">
        <ele>349</ele>
        <time>2022-09-28T07:53:15.000Z</time>
      </trkpt>
      <trkpt lat="49.85007" lon="4.80376">
        <ele>349</ele>
        <time>2022-09-28T07:53:16.000Z</time>
      </trkpt>
      <trkpt lat="49.85008" lon="4.80373">
        <ele>348</ele>
        <time>2022-09-28T07:53:17.000Z</time>
      </trkpt>
      <trkpt lat="49.85008" lon="4.80369">
        <ele>348</ele>
        <time>2022-09-28T07:53:18.000Z</time>
      </trkpt>
      <trkpt lat="49.85008" lon="4.80366">
        <ele>348</ele>
        <time>2022-09-28T07:53:19.000Z</time>
      </trkpt>
      <trkpt lat="49.85008" lon="4.80363">
        <ele>347</ele>
        <time>2022-09-28T07:53:20.000Z</time>
      </trkpt>
      <trkpt lat="49.85009" lon="4.80361">
        <ele>347</ele>
        <time>2022-09-28T07:53:21.000Z</time>
      </trkpt>
      <trkpt lat="49.85009" lon="4.8036">
        <ele>346</ele>
        <time>2022-09-28T07:53:22.000Z</time>
      </trkpt>
      <trkpt lat="49.85009" lon="4.80359">
        <ele>346</ele>
        <time>2022-09-28T07:53:23.000Z</time>
      </trkpt>
      <trkpt lat="49.8501" lon="4.80358">
        <ele>346</ele>
        <time>2022-09-28T07:53:24.000Z</time>
      </trkpt>
      <trkpt lat="49.8501" lon="4.80357">
        <ele>346</ele>
        <time>2022-09-28T07:53:25.000Z</time>
      </trkpt>
      <trkpt lat="49.85011" lon="4.80354">
        <ele>345</ele>
        <time>2022-09-28T07:53:26.000Z</time>
      </trkpt>
      <trkpt lat="49.85012" lon="4.80351">
        <ele>345</ele>
        <time>2022-09-28T07:53:27.000Z</time>
      </trkpt>
      <trkpt lat="49.85013" lon="4.80348">
        <ele>345</ele>
        <time>2022-09-28T07:53:28.000Z</time>
      </trkpt>
      <trkpt lat="49.85015" lon="4.80344">
        <ele>344</ele>
        <time>2022-09-28T07:53:29.000Z</time>
      </trkpt>
      <trkpt lat="49.85016" lon="4.80342">
        <ele>344</ele>
        <time>2022-09-28T07:53:30.000Z</time>
      </trkpt>
      <trkpt lat="49.85016" lon="4.80341">
        <ele>343</ele>
        <time>2022-09-28T07:53:31.000Z</time>
      </trkpt>
      <trkpt lat="49.85016" lon="4.8034">
        <ele>343</ele>
        <time>2022-09-28T07:53:32.000Z</time>
      </trkpt>
      <trkpt lat="49.85017" lon="4.80339">
        <ele>342</ele>
        <time>2022-09-28T07:53:33.000Z</time>
      </trkpt>
      <trkpt lat="49.85017" lon="4.80338">
        <ele>342</ele>
        <time>2022-09-28T07:53:34.000Z</time>
      </trkpt>
      <trkpt lat="49.85017" lon="4.80337">
        <ele>342</ele>
        <time>2022-09-28T07:53:35.000Z</time>
      </trkpt>
      <trkpt lat="49.85018" lon="4.80335">
        <ele>341</ele>
        <time>2022-09-28T07:53:36.000Z</time>
      </trkpt>
      <trkpt lat="49.85018" lon="4.80333">
        <ele>341</ele>
        <time>2022-09-28T07:53:37.000Z</time>
      </trkpt>
      <trkpt lat="49.85019" lon="4.80331">
        <ele>340</ele>
        <time>2022-09-28T07:53:38.000Z</time>
      </trkpt>
      <trkpt lat="49.85019" lon="4.80329">
        <ele>340</ele>
        <time>2022-09-28T07:53:39.000Z</time>
      </trkpt>
      <trkpt lat="49.85019" lon="4.80327">
        <ele>339</ele>
        <time>2022-09-28T07:53:40.000Z</time>
      </trkpt>
      <trkpt lat="49.85019" lon="4.80326">
        <ele>339</ele>
        <time>2022-09-28T07:53:41.000Z</time>
      </trkpt>
      <trkpt lat="49.85019" lon="4.80325">
        <ele>339</ele>
        <time>2022-09-28T07:53:42.000Z</time>
      </trkpt>
      <trkpt lat="49.8502" lon="4.80323">
        <ele>338</ele>
        <time>2022-09-28T07:53:43.000Z</time>
      </trkpt>
      <trkpt lat="49.8502" lon="4.80322">
        <ele>338</ele>
        <time>2022-09-28T07:53:44.000Z</time>
      </trkpt>
      <trkpt lat="49.8502" lon="4.8032">
        <ele>337</ele>
        <time>2022-09-28T07:53:45.000Z</time>
      </trkpt>
      <trkpt lat="49.85019" lon="4.80319">
        <ele>337</ele>
        <time>2022-09-28T07:53:46.000Z</time>
      </trkpt>
      <trkpt lat="49.85019" lon="4.80317">
        <ele>337</ele>
        <time>2022-09-28T07:53:47.000Z</time>
      </trkpt>
      <trkpt lat="49.85019" lon="4.80315">
        <ele>336</ele>
        <time>2022-09-28T07:53:48.000Z</time>
      </trkpt>
      <trkpt lat="49.85019" lon="4.80314">
        <ele>336</ele>
        <time>2022-09-28T07:53:49.000Z</time>
      </trkpt>
      <trkpt lat="49.85019" lon="4.80313">
        <ele>336</ele>
        <time>2022-09-28T07:53:50.000Z</time>
      </trkpt>
      <trkpt lat="49.85018" lon="4.80312">
        <ele>336</ele>
        <time>2022-09-28T07:53:51.000Z</time>
      </trkpt>
      <trkpt lat="49.85018" lon="4.80311">
        <ele>335</ele>
        <time>2022-09-28T07:53:52.000Z</time>
      </trkpt>
      <trkpt lat="49.85018" lon="4.80311">
        <ele>335</ele>
        <time>2022-09-28T07:53:53.000Z</time>
      </trkpt>
      <trkpt lat="49.85018" lon="4.80311">
        <ele>335</ele>
        <time>2022-09-28T07:53:54.000Z</time>
      </trkpt>
      <trkpt lat="49.85018" lon="4.8031">
        <ele>335</ele>
        <time>2022-09-28T07:53:55.000Z</time>
      </trkpt>
      <trkpt lat="49.85018" lon="4.8031">
        <ele>335</ele>
        <time>2022-09-28T07:53:56.000Z</time>
      </trkpt>
      <trkpt lat="49.85017" lon="4.80308">
        <ele>335</ele>
        <time>2022-09-28T07:53:57.000Z</time>
      </trkpt>
      <trkpt lat="49.85017" lon="4.80308">
        <ele>335</ele>
        <time>2022-09-28T07:53:58.000Z</time>
      </trkpt>
      <trkpt lat="49.85016" lon="4.80307">
        <ele>335</ele>
        <time>2022-09-28T07:53:59.000Z</time>
      </trkpt>
      <trkpt lat="49.85016" lon="4.80306">
        <ele>335</ele>
        <time>2022-09-28T07:54:00.000Z</time>
      </trkpt>
      <trkpt lat="49.85015" lon="4.80304">
        <ele>335</ele>
        <time>2022-09-28T07:54:01.000Z</time>
      </trkpt>
      <trkpt lat="49.85015" lon="4.80303">
        <ele>334</ele>
        <time>2022-09-28T07:54:02.000Z</time>
      </trkpt>
      <trkpt lat="49.85015" lon="4.80302">
        <ele>334</ele>
        <time>2022-09-28T07:54:03.000Z</time>
      </trkpt>
      <trkpt lat="49.85015" lon="4.80301">
        <ele>334</ele>
        <time>2022-09-28T07:54:04.000Z</time>
      </trkpt>
      <trkpt lat="49.85015" lon="4.80301">
        <ele>334</ele>
        <time>2022-09-28T07:54:05.000Z</time>
      </trkpt>
      <trkpt lat="49.85015" lon="4.803">
        <ele>334</ele>
        <time>2022-09-28T07:54:06.000Z</time>
      </trkpt>
      <trkpt lat="49.85014" lon="4.803">
        <ele>334</ele>
        <time>2022-09-28T07:54:07.000Z</time>
      </trkpt>
      <trkpt lat="49.85014" lon="4.803">
        <ele>334</ele>
        <time>2022-09-28T07:54:08.000Z</time>
      </trkpt>
      <trkpt lat="49.85014" lon="4.803">
        <ele>334</ele>
        <time>2022-09-28T07:54:09.000Z</time>
      </trkpt>
      <trkpt lat="49.85013" lon="4.80299">
        <ele>334</ele>
        <time>2022-09-28T07:54:10.000Z</time>
      </trkpt>
      <trkpt lat="49.85013" lon="4.80299">
        <ele>334</ele>
        <time>2022-09-28T07:54:11.000Z</time>
      </trkpt>
      <trkpt lat="49.85013" lon="4.80298">
        <ele>334</ele>
        <time>2022-09-28T07:54:12.000Z</time>
      </trkpt>
      <trkpt lat="49.85013" lon="4.80298">
        <ele>333</ele>
        <time>2022-09-28T07:54:13.000Z</time>
      </trkpt>
      <trkpt lat="49.85013" lon="4.80297">
        <ele>333</ele>
        <time>2022-09-28T07:54:14.000Z</time>
      </trkpt>
      <trkpt lat="49.85013" lon="4.80297">
        <ele>333</ele>
        <time>2022-09-28T07:54:15.000Z</time>
      </trkpt>
      <trkpt lat="49.85013" lon="4.80297">
        <ele>333</ele>
        <time>2022-09-28T07:54:16.000Z</time>
      </trkpt>
      <trkpt lat="49.85013" lon="4.80297">
        <ele>333</ele>
        <time>2022-09-28T07:54:17.000Z</time>
      </trkpt>
      <trkpt lat="49.85012" lon="4.80296">
        <ele>333</ele>
        <time>2022-09-28T07:54:18.000Z</time>
      </trkpt>
      <trkpt lat="49.85012" lon="4.80296">
        <ele>332</ele>
        <time>2022-09-28T07:54:19.000Z</time>
      </trkpt>
      <trkpt lat="49.85013" lon="4.80296">
        <ele>332</ele>
        <time>2022-09-28T07:54:20.000Z</time>
      </trkpt>
      <trkpt lat="49.85013" lon="4.80296">
        <ele>332</ele>
        <time>2022-09-28T07:54:21.000Z</time>
      </trkpt>
      <trkpt lat="49.85013" lon="4.80296">
        <ele>332</ele>
        <time>2022-09-28T07:54:22.000Z</time>
      </trkpt>
      <trkpt lat="49.85013" lon="4.80295">
        <ele>332</ele>
        <time>2022-09-28T07:54:23.000Z</time>
      </trkpt>
      <trkpt lat="49.85013" lon="4.80295">
        <ele>332</ele>
        <time>2022-09-28T07:54:24.000Z</time>
      </trkpt>
      <trkpt lat="49.85013" lon="4.80294">
        <ele>332</ele>
        <time>2022-09-28T07:54:25.000Z</time>
      </trkpt>
      <trkpt lat="49.85013" lon="4.80294">
        <ele>332</ele>
        <time>2022-09-28T07:54:26.000Z</time>
      </trkpt>
      <trkpt lat="49.85013" lon="4.80293">
        <ele>332</ele>
        <time>2022-09-28T07:54:27.000Z</time>
      </trkpt>
      <trkpt lat="49.85014" lon="4.80293">
        <ele>332</ele>
        <time>2022-09-28T07:54:28.000Z</time>
      </trkpt>
      <trkpt lat="49.85014" lon="4.80292">
        <ele>332</ele>
        <time>2022-09-28T07:54:29.000Z</time>
      </trkpt>
      <trkpt lat="49.85014" lon="4.80292">
        <ele>332</ele>
        <time>2022-09-28T07:54:30.000Z</time>
      </trkpt>
      <trkpt lat="49.85014" lon="4.80292">
        <ele>332</ele>
        <time>2022-09-28T07:54:31.000Z</time>
      </trkpt>
      <trkpt lat="49.85014" lon="4.80291">
        <ele>332</ele>
        <time>2022-09-28T07:54:32.000Z</time>
      </trkpt>
      <trkpt lat="49.85014" lon="4.80291">
        <ele>332</ele>
        <time>2022-09-28T07:54:33.000Z</time>
      </trkpt>
      <trkpt lat="49.85014" lon="4.8029">
        <ele>332</ele>
        <time>2022-09-28T07:54:34.000Z</time>
      </trkpt>
      <trkpt lat="49.85014" lon="4.8029">
        <ele>332</ele>
        <time>2022-09-28T07:54:35.000Z</time>
      </trkpt>
      <trkpt lat="49.85014" lon="4.80289">
        <ele>332</ele>
        <time>2022-09-28T07:54:36.000Z</time>
      </trkpt>
      <trkpt lat="49.85014" lon="4.80289">
        <ele>332</ele>
        <time>2022-09-28T07:54:37.000Z</time>
      </trkpt>
      <trkpt lat="49.85014" lon="4.80288">
        <ele>332</ele>
        <time>2022-09-28T07:54:38.000Z</time>
      </trkpt>
      <trkpt lat="49.85014" lon="4.80288">
        <ele>332</ele>
        <time>2022-09-28T07:54:39.000Z</time>
      </trkpt>
      <trkpt lat="49.85014" lon="4.80288">
        <ele>332</ele>
        <time>2022-09-28T07:54:40.000Z</time>
      </trkpt>
      <trkpt lat="49.85014" lon="4.80288">
        <ele>332</ele>
        <time>2022-09-28T07:54:41.000Z</time>
      </trkpt>
      <trkpt lat="49.85014" lon="4.80287">
        <ele>332</ele>
        <time>2022-09-28T07:54:42.000Z</time>
      </trkpt>
      <trkpt lat="49.85015" lon="4.80287">
        <ele>332</ele>
        <time>2022-09-28T07:54:43.000Z</time>
      </trkpt>
      <trkpt lat="49.85015" lon="4.80287">
        <ele>332</ele>
        <time>2022-09-28T07:54:44.000Z</time>
      </trkpt>
      <trkpt lat="49.85015" lon="4.80286">
        <ele>332</ele>
        <time>2022-09-28T07:54:45.000Z</time>
      </trkpt>
      <trkpt lat="49.85014" lon="4.80286">
        <ele>331</ele>
        <time>2022-09-28T07:54:46.000Z</time>
      </trkpt>
      <trkpt lat="49.85014" lon="4.80284">
        <ele>331</ele>
        <time>2022-09-28T07:54:47.000Z</time>
      </trkpt>
      <trkpt lat="49.85013" lon="4.80283">
        <ele>331</ele>
        <time>2022-09-28T07:54:48.000Z</time>
      </trkpt>
      <trkpt lat="49.85013" lon="4.80281">
        <ele>331</ele>
        <time>2022-09-28T07:54:49.000Z</time>
      </trkpt>
      <trkpt lat="49.85012" lon="4.8028">
        <ele>331</ele>
        <time>2022-09-28T07:54:50.000Z</time>
      </trkpt>
      <trkpt lat="49.85012" lon="4.80279">
        <ele>331</ele>
        <time>2022-09-28T07:54:51.000Z</time>
      </trkpt>
      <trkpt lat="49.85011" lon="4.80278">
        <ele>331</ele>
        <time>2022-09-28T07:54:52.000Z</time>
      </trkpt>
      <trkpt lat="49.85011" lon="4.80277">
        <ele>331</ele>
        <time>2022-09-28T07:54:53.000Z</time>
      </trkpt>
      <trkpt lat="49.8501" lon="4.80275">
        <ele>331</ele>
        <time>2022-09-28T07:54:54.000Z</time>
      </trkpt>
      <trkpt lat="49.85009" lon="4.80274">
        <ele>331</ele>
        <time>2022-09-28T07:54:55.000Z</time>
      </trkpt>
      <trkpt lat="49.85009" lon="4.80273">
        <ele>331</ele>
        <time>2022-09-28T07:54:56.000Z</time>
      </trkpt>
      <trkpt lat="49.85008" lon="4.80272">
        <ele>331</ele>
        <time>2022-09-28T07:54:57.000Z</time>
      </trkpt>
      <trkpt lat="49.85008" lon="4.80272">
        <ele>331</ele>
        <time>2022-09-28T07:54:58.000Z</time>
      </trkpt>
      <trkpt lat="49.85008" lon="4.80272">
        <ele>331</ele>
        <time>2022-09-28T07:54:59.000Z</time>
      </trkpt>
      <trkpt lat="49.85008" lon="4.80272">
        <ele>331</ele>
        <time>2022-09-28T07:55:00.000Z</time>
      </trkpt>
      <trkpt lat="49.85007" lon="4.8027">
        <ele>331</ele>
        <time>2022-09-28T07:55:01.000Z</time>
      </trkpt>
      <trkpt lat="49.85006" lon="4.80268">
        <ele>331</ele>
        <time>2022-09-28T07:55:02.000Z</time>
      </trkpt>
      <trkpt lat="49.85006" lon="4.80266">
        <ele>331</ele>
        <time>2022-09-28T07:55:03.000Z</time>
      </trkpt>
      <trkpt lat="49.85005" lon="4.80263">
        <ele>331</ele>
        <time>2022-09-28T07:55:04.000Z</time>
      </trkpt>
      <trkpt lat="49.85004" lon="4.80261">
        <ele>330</ele>
        <time>2022-09-28T07:55:05.000Z</time>
      </trkpt>
      <trkpt lat="49.85003" lon="4.80257">
        <ele>330</ele>
        <time>2022-09-28T07:55:06.000Z</time>
      </trkpt>
      <trkpt lat="49.85003" lon="4.80254">
        <ele>330</ele>
        <time>2022-09-28T07:55:07.000Z</time>
      </trkpt>
      <trkpt lat="49.85003" lon="4.8025">
        <ele>330</ele>
        <time>2022-09-28T07:55:08.000Z</time>
      </trkpt>
      <trkpt lat="49.85003" lon="4.80246">
        <ele>330</ele>
        <time>2022-09-28T07:55:09.000Z</time>
      </trkpt>
      <trkpt lat="49.85003" lon="4.80242">
        <ele>329</ele>
        <time>2022-09-28T07:55:10.000Z</time>
      </trkpt>
      <trkpt lat="49.85003" lon="4.80238">
        <ele>329</ele>
        <time>2022-09-28T07:55:11.000Z</time>
      </trkpt>
      <trkpt lat="49.85003" lon="4.80234">
        <ele>329</ele>
        <time>2022-09-28T07:55:12.000Z</time>
      </trkpt>
      <trkpt lat="49.85004" lon="4.80231">
        <ele>329</ele>
        <time>2022-09-28T07:55:13.000Z</time>
      </trkpt>
      <trkpt lat="49.85004" lon="4.80227">
        <ele>329</ele>
        <time>2022-09-28T07:55:14.000Z</time>
      </trkpt>
      <trkpt lat="49.85005" lon="4.80223">
        <ele>329</ele>
        <time>2022-09-28T07:55:15.000Z</time>
      </trkpt>
      <trkpt lat="49.85005" lon="4.80218">
        <ele>329</ele>
        <time>2022-09-28T07:55:16.000Z</time>
      </trkpt>
      <trkpt lat="49.85005" lon="4.80214">
        <ele>329</ele>
        <time>2022-09-28T07:55:17.000Z</time>
      </trkpt>
      <trkpt lat="49.85005" lon="4.80209">
        <ele>329</ele>
        <time>2022-09-28T07:55:18.000Z</time>
      </trkpt>
      <trkpt lat="49.85006" lon="4.80205">
        <ele>329</ele>
        <time>2022-09-28T07:55:19.000Z</time>
      </trkpt>
      <trkpt lat="49.85006" lon="4.80201">
        <ele>329</ele>
        <time>2022-09-28T07:55:20.000Z</time>
      </trkpt>
      <trkpt lat="49.85007" lon="4.80197">
        <ele>329</ele>
        <time>2022-09-28T07:55:21.000Z</time>
      </trkpt>
      <trkpt lat="49.85008" lon="4.80193">
        <ele>329</ele>
        <time>2022-09-28T07:55:22.000Z</time>
      </trkpt>
      <trkpt lat="49.85009" lon="4.80189">
        <ele>329</ele>
        <time>2022-09-28T07:55:23.000Z</time>
      </trkpt>
      <trkpt lat="49.8501" lon="4.80187">
        <ele>329</ele>
        <time>2022-09-28T07:55:24.000Z</time>
      </trkpt>
      <trkpt lat="49.85011" lon="4.80185">
        <ele>330</ele>
        <time>2022-09-28T07:55:25.000Z</time>
      </trkpt>
      <trkpt lat="49.85011" lon="4.80183">
        <ele>330</ele>
        <time>2022-09-28T07:55:26.000Z</time>
      </trkpt>
      <trkpt lat="49.85012" lon="4.8018">
        <ele>330</ele>
        <time>2022-09-28T07:55:27.000Z</time>
      </trkpt>
      <trkpt lat="49.85013" lon="4.80178">
        <ele>330</ele>
        <time>2022-09-28T07:55:28.000Z</time>
      </trkpt>
      <trkpt lat="49.85014" lon="4.80176">
        <ele>330</ele>
        <time>2022-09-28T07:55:29.000Z</time>
      </trkpt>
      <trkpt lat="49.85015" lon="4.80174">
        <ele>330</ele>
        <time>2022-09-28T07:55:30.000Z</time>
      </trkpt>
      <trkpt lat="49.85016" lon="4.80173">
        <ele>330</ele>
        <time>2022-09-28T07:55:31.000Z</time>
      </trkpt>
      <trkpt lat="49.85017" lon="4.80171">
        <ele>330</ele>
        <time>2022-09-28T07:55:32.000Z</time>
      </trkpt>
      <trkpt lat="49.85018" lon="4.8017">
        <ele>331</ele>
        <time>2022-09-28T07:55:33.000Z</time>
      </trkpt>
      <trkpt lat="49.85018" lon="4.80168">
        <ele>331</ele>
        <time>2022-09-28T07:55:34.000Z</time>
      </trkpt>
      <trkpt lat="49.85019" lon="4.80166">
        <ele>331</ele>
        <time>2022-09-28T07:55:35.000Z</time>
      </trkpt>
      <trkpt lat="49.8502" lon="4.80165">
        <ele>331</ele>
        <time>2022-09-28T07:55:36.000Z</time>
      </trkpt>
      <trkpt lat="49.85022" lon="4.80164">
        <ele>331</ele>
        <time>2022-09-28T07:55:37.000Z</time>
      </trkpt>
      <trkpt lat="49.85023" lon="4.80163">
        <ele>331</ele>
        <time>2022-09-28T07:55:38.000Z</time>
      </trkpt>
      <trkpt lat="49.85025" lon="4.80161">
        <ele>331</ele>
        <time>2022-09-28T07:55:39.000Z</time>
      </trkpt>
      <trkpt lat="49.85026" lon="4.80159">
        <ele>331</ele>
        <time>2022-09-28T07:55:40.000Z</time>
      </trkpt>
      <trkpt lat="49.85028" lon="4.80157">
        <ele>331</ele>
        <time>2022-09-28T07:55:41.000Z</time>
      </trkpt>
      <trkpt lat="49.8503" lon="4.80155">
        <ele>331</ele>
        <time>2022-09-28T07:55:42.000Z</time>
      </trkpt>
      <trkpt lat="49.85032" lon="4.80153">
        <ele>331</ele>
        <time>2022-09-28T07:55:43.000Z</time>
      </trkpt>
      <trkpt lat="49.85034" lon="4.80151">
        <ele>331</ele>
        <time>2022-09-28T07:55:44.000Z</time>
      </trkpt>
      <trkpt lat="49.85036" lon="4.8015">
        <ele>331</ele>
        <time>2022-09-28T07:55:45.000Z</time>
      </trkpt>
      <trkpt lat="49.85038" lon="4.80149">
        <ele>331</ele>
        <time>2022-09-28T07:55:46.000Z</time>
      </trkpt>
      <trkpt lat="49.8504" lon="4.80147">
        <ele>331</ele>
        <time>2022-09-28T07:55:47.000Z</time>
      </trkpt>
      <trkpt lat="49.85041" lon="4.80145">
        <ele>331</ele>
        <time>2022-09-28T07:55:48.000Z</time>
      </trkpt>
      <trkpt lat="49.85043" lon="4.80143">
        <ele>331</ele>
        <time>2022-09-28T07:55:49.000Z</time>
      </trkpt>
      <trkpt lat="49.85045" lon="4.80141">
        <ele>331</ele>
        <time>2022-09-28T07:55:50.000Z</time>
      </trkpt>
      <trkpt lat="49.85047" lon="4.80139">
        <ele>332</ele>
        <time>2022-09-28T07:55:51.000Z</time>
      </trkpt>
      <trkpt lat="49.85049" lon="4.80137">
        <ele>332</ele>
        <time>2022-09-28T07:55:52.000Z</time>
      </trkpt>
      <trkpt lat="49.85051" lon="4.80134">
        <ele>332</ele>
        <time>2022-09-28T07:55:53.000Z</time>
      </trkpt>
      <trkpt lat="49.85053" lon="4.80132">
        <ele>332</ele>
        <time>2022-09-28T07:55:54.000Z</time>
      </trkpt>
      <trkpt lat="49.85055" lon="4.8013">
        <ele>332</ele>
        <time>2022-09-28T07:55:55.000Z</time>
      </trkpt>
      <trkpt lat="49.85057" lon="4.80127">
        <ele>332</ele>
        <time>2022-09-28T07:55:56.000Z</time>
      </trkpt>
      <trkpt lat="49.85059" lon="4.80124">
        <ele>332</ele>
        <time>2022-09-28T07:55:57.000Z</time>
      </trkpt>
      <trkpt lat="49.85062" lon="4.80122">
        <ele>332</ele>
        <time>2022-09-28T07:55:58.000Z</time>
      </trkpt>
      <trkpt lat="49.85064" lon="4.80119">
        <ele>332</ele>
        <time>2022-09-28T07:55:59.000Z</time>
      </trkpt>
      <trkpt lat="49.85065" lon="4.80117">
        <ele>332</ele>
        <time>2022-09-28T07:56:00.000Z</time>
      </trkpt>
      <trkpt lat="49.85068" lon="4.80115">
        <ele>332</ele>
        <time>2022-09-28T07:56:01.000Z</time>
      </trkpt>
      <trkpt lat="49.8507" lon="4.80114">
        <ele>332</ele>
        <time>2022-09-28T07:56:02.000Z</time>
      </trkpt>
      <trkpt lat="49.85072" lon="4.80112">
        <ele>332</ele>
        <time>2022-09-28T07:56:03.000Z</time>
      </trkpt>
      <trkpt lat="49.85074" lon="4.80111">
        <ele>332</ele>
        <time>2022-09-28T07:56:04.000Z</time>
      </trkpt>
      <trkpt lat="49.85077" lon="4.80109">
        <ele>332</ele>
        <time>2022-09-28T07:56:05.000Z</time>
      </trkpt>
      <trkpt lat="49.85079" lon="4.80108">
        <ele>332</ele>
        <time>2022-09-28T07:56:06.000Z</time>
      </trkpt>
      <trkpt lat="49.85081" lon="4.80107">
        <ele>332</ele>
        <time>2022-09-28T07:56:07.000Z</time>
      </trkpt>
      <trkpt lat="49.85083" lon="4.80106">
        <ele>332</ele>
        <time>2022-09-28T07:56:08.000Z</time>
      </trkpt>
      <trkpt lat="49.85084" lon="4.80106">
        <ele>332</ele>
        <time>2022-09-28T07:56:09.000Z</time>
      </trkpt>
      <trkpt lat="49.85086" lon="4.80104">
        <ele>332</ele>
        <time>2022-09-28T07:56:10.000Z</time>
      </trkpt>
      <trkpt lat="49.85088" lon="4.80102">
        <ele>332</ele>
        <time>2022-09-28T07:56:11.000Z</time>
      </trkpt>
      <trkpt lat="49.85092" lon="4.801">
        <ele>332</ele>
        <time>2022-09-28T07:56:12.000Z</time>
      </trkpt>
      <trkpt lat="49.85095" lon="4.80098">
        <ele>332</ele>
        <time>2022-09-28T07:56:13.000Z</time>
      </trkpt>
      <trkpt lat="49.85099" lon="4.80095">
        <ele>332</ele>
        <time>2022-09-28T07:56:14.000Z</time>
      </trkpt>
      <trkpt lat="49.85103" lon="4.80092">
        <ele>332</ele>
        <time>2022-09-28T07:56:15.000Z</time>
      </trkpt>
      <trkpt lat="49.85107" lon="4.80089">
        <ele>332</ele>
        <time>2022-09-28T07:56:16.000Z</time>
      </trkpt>
      <trkpt lat="49.85111" lon="4.80086">
        <ele>332</ele>
        <time>2022-09-28T07:56:17.000Z</time>
      </trkpt>
      <trkpt lat="49.85115" lon="4.80082">
        <ele>332</ele>
        <time>2022-09-28T07:56:18.000Z</time>
      </trkpt>
      <trkpt lat="49.85119" lon="4.8008">
        <ele>332</ele>
        <time>2022-09-28T07:56:19.000Z</time>
      </trkpt>
      <trkpt lat="49.85122" lon="4.80079">
        <ele>332</ele>
        <time>2022-09-28T07:56:20.000Z</time>
      </trkpt>
      <trkpt lat="49.85126" lon="4.80077">
        <ele>332</ele>
        <time>2022-09-28T07:56:21.000Z</time>
      </trkpt>
      <trkpt lat="49.8513" lon="4.80075">
        <ele>332</ele>
        <time>2022-09-28T07:56:22.000Z</time>
      </trkpt>
      <trkpt lat="49.85135" lon="4.80072">
        <ele>332</ele>
        <time>2022-09-28T07:56:23.000Z</time>
      </trkpt>
      <trkpt lat="49.8514" lon="4.80067">
        <ele>331</ele>
        <time>2022-09-28T07:56:24.000Z</time>
      </trkpt>
      <trkpt lat="49.85144" lon="4.80063">
        <ele>331</ele>
        <time>2022-09-28T07:56:25.000Z</time>
      </trkpt>
      <trkpt lat="49.85149" lon="4.80058">
        <ele>331</ele>
        <time>2022-09-28T07:56:26.000Z</time>
      </trkpt>
      <trkpt lat="49.85153" lon="4.80054">
        <ele>331</ele>
        <time>2022-09-28T07:56:27.000Z</time>
      </trkpt>
      <trkpt lat="49.85157" lon="4.8005">
        <ele>331</ele>
        <time>2022-09-28T07:56:28.000Z</time>
      </trkpt>
      <trkpt lat="49.85161" lon="4.80046">
        <ele>330</ele>
        <time>2022-09-28T07:56:29.000Z</time>
      </trkpt>
      <trkpt lat="49.85166" lon="4.80043">
        <ele>330</ele>
        <time>2022-09-28T07:56:30.000Z</time>
      </trkpt>
      <trkpt lat="49.8517" lon="4.8004">
        <ele>330</ele>
        <time>2022-09-28T07:56:31.000Z</time>
      </trkpt>
      <trkpt lat="49.85173" lon="4.80037">
        <ele>330</ele>
        <time>2022-09-28T07:56:32.000Z</time>
      </trkpt>
      <trkpt lat="49.85175" lon="4.80034">
        <ele>330</ele>
        <time>2022-09-28T07:56:33.000Z</time>
      </trkpt>
      <trkpt lat="49.85178" lon="4.80032">
        <ele>329</ele>
        <time>2022-09-28T07:56:34.000Z</time>
      </trkpt>
      <trkpt lat="49.8518" lon="4.80029">
        <ele>329</ele>
        <time>2022-09-28T07:56:35.000Z</time>
      </trkpt>
      <trkpt lat="49.85183" lon="4.80027">
        <ele>329</ele>
        <time>2022-09-28T07:56:36.000Z</time>
      </trkpt>
      <trkpt lat="49.85187" lon="4.80024">
        <ele>329</ele>
        <time>2022-09-28T07:56:37.000Z</time>
      </trkpt>
      <trkpt lat="49.85191" lon="4.8002">
        <ele>329</ele>
        <time>2022-09-28T07:56:38.000Z</time>
      </trkpt>
      <trkpt lat="49.85194" lon="4.80017">
        <ele>328</ele>
        <time>2022-09-28T07:56:39.000Z</time>
      </trkpt>
      <trkpt lat="49.85197" lon="4.80013">
        <ele>328</ele>
        <time>2022-09-28T07:56:40.000Z</time>
      </trkpt>
      <trkpt lat="49.85201" lon="4.80009">
        <ele>328</ele>
        <time>2022-09-28T07:56:41.000Z</time>
      </trkpt>
      <trkpt lat="49.85204" lon="4.80004">
        <ele>327</ele>
        <time>2022-09-28T07:56:42.000Z</time>
      </trkpt>
      <trkpt lat="49.85209" lon="4.79999">
        <ele>327</ele>
        <time>2022-09-28T07:56:43.000Z</time>
      </trkpt>
      <trkpt lat="49.85213" lon="4.79994">
        <ele>327</ele>
        <time>2022-09-28T07:56:44.000Z</time>
      </trkpt>
      <trkpt lat="49.85216" lon="4.79987">
        <ele>327</ele>
        <time>2022-09-28T07:56:45.000Z</time>
      </trkpt>
      <trkpt lat="49.85219" lon="4.79981">
        <ele>326</ele>
        <time>2022-09-28T07:56:46.000Z</time>
      </trkpt>
      <trkpt lat="49.85222" lon="4.79975">
        <ele>326</ele>
        <time>2022-09-28T07:56:47.000Z</time>
      </trkpt>
      <trkpt lat="49.85225" lon="4.79968">
        <ele>326</ele>
        <time>2022-09-28T07:56:48.000Z</time>
      </trkpt>
      <trkpt lat="49.85228" lon="4.79963">
        <ele>326</ele>
        <time>2022-09-28T07:56:49.000Z</time>
      </trkpt>
      <trkpt lat="49.8523" lon="4.79957">
        <ele>326</ele>
        <time>2022-09-28T07:56:50.000Z</time>
      </trkpt>
      <trkpt lat="49.85233" lon="4.79952">
        <ele>325</ele>
        <time>2022-09-28T07:56:51.000Z</time>
      </trkpt>
      <trkpt lat="49.85235" lon="4.79946">
        <ele>325</ele>
        <time>2022-09-28T07:56:52.000Z</time>
      </trkpt>
      <trkpt lat="49.85236" lon="4.7994">
        <ele>325</ele>
        <time>2022-09-28T07:56:53.000Z</time>
      </trkpt>
      <trkpt lat="49.85238" lon="4.79935">
        <ele>325</ele>
        <time>2022-09-28T07:56:54.000Z</time>
      </trkpt>
      <trkpt lat="49.85239" lon="4.79929">
        <ele>325</ele>
        <time>2022-09-28T07:56:55.000Z</time>
      </trkpt>
      <trkpt lat="49.85241" lon="4.79923">
        <ele>325</ele>
        <time>2022-09-28T07:56:56.000Z</time>
      </trkpt>
      <trkpt lat="49.85242" lon="4.79916">
        <ele>325</ele>
        <time>2022-09-28T07:56:57.000Z</time>
      </trkpt>
      <trkpt lat="49.85243" lon="4.7991">
        <ele>325</ele>
        <time>2022-09-28T07:56:58.000Z</time>
      </trkpt>
      <trkpt lat="49.85244" lon="4.79904">
        <ele>325</ele>
        <time>2022-09-28T07:56:59.000Z</time>
      </trkpt>
      <trkpt lat="49.85244" lon="4.79896">
        <ele>324</ele>
        <time>2022-09-28T07:57:00.000Z</time>
      </trkpt>
      <trkpt lat="49.85245" lon="4.79888">
        <ele>324</ele>
        <time>2022-09-28T07:57:01.000Z</time>
      </trkpt>
      <trkpt lat="49.85246" lon="4.7988">
        <ele>324</ele>
        <time>2022-09-28T07:57:02.000Z</time>
      </trkpt>
      <trkpt lat="49.85247" lon="4.79872">
        <ele>324</ele>
        <time>2022-09-28T07:57:03.000Z</time>
      </trkpt>
      <trkpt lat="49.85247" lon="4.79864">
        <ele>324</ele>
        <time>2022-09-28T07:57:04.000Z</time>
      </trkpt>
      <trkpt lat="49.85247" lon="4.79856">
        <ele>323</ele>
        <time>2022-09-28T07:57:05.000Z</time>
      </trkpt>
      <trkpt lat="49.85247" lon="4.79849">
        <ele>323</ele>
        <time>2022-09-28T07:57:06.000Z</time>
      </trkpt>
      <trkpt lat="49.85247" lon="4.79842">
        <ele>323</ele>
        <time>2022-09-28T07:57:07.000Z</time>
      </trkpt>
      <trkpt lat="49.85247" lon="4.79836">
        <ele>323</ele>
        <time>2022-09-28T07:57:08.000Z</time>
      </trkpt>
      <trkpt lat="49.85245" lon="4.7983">
        <ele>322</ele>
        <time>2022-09-28T07:57:09.000Z</time>
      </trkpt>
      <trkpt lat="49.85243" lon="4.79824">
        <ele>322</ele>
        <time>2022-09-28T07:57:10.000Z</time>
      </trkpt>
      <trkpt lat="49.85241" lon="4.79819">
        <ele>322</ele>
        <time>2022-09-28T07:57:11.000Z</time>
      </trkpt>
      <trkpt lat="49.85238" lon="4.79814">
        <ele>322</ele>
        <time>2022-09-28T07:57:12.000Z</time>
      </trkpt>
      <trkpt lat="49.85235" lon="4.79809">
        <ele>321</ele>
        <time>2022-09-28T07:57:13.000Z</time>
      </trkpt>
      <trkpt lat="49.85232" lon="4.79805">
        <ele>321</ele>
        <time>2022-09-28T07:57:14.000Z</time>
      </trkpt>
      <trkpt lat="49.85229" lon="4.79801">
        <ele>321</ele>
        <time>2022-09-28T07:57:15.000Z</time>
      </trkpt>
      <trkpt lat="49.85226" lon="4.79797">
        <ele>320</ele>
        <time>2022-09-28T07:57:16.000Z</time>
      </trkpt>
      <trkpt lat="49.85223" lon="4.79793">
        <ele>320</ele>
        <time>2022-09-28T07:57:17.000Z</time>
      </trkpt>
      <trkpt lat="49.85219" lon="4.79788">
        <ele>320</ele>
        <time>2022-09-28T07:57:18.000Z</time>
      </trkpt>
      <trkpt lat="49.85216" lon="4.79783">
        <ele>320</ele>
        <time>2022-09-28T07:57:19.000Z</time>
      </trkpt>
      <trkpt lat="49.85212" lon="4.79777">
        <ele>320</ele>
        <time>2022-09-28T07:57:20.000Z</time>
      </trkpt>
      <trkpt lat="49.85209" lon="4.79772">
        <ele>320</ele>
        <time>2022-09-28T07:57:21.000Z</time>
      </trkpt>
      <trkpt lat="49.85205" lon="4.79767">
        <ele>320</ele>
        <time>2022-09-28T07:57:22.000Z</time>
      </trkpt>
      <trkpt lat="49.85201" lon="4.79761">
        <ele>319</ele>
        <time>2022-09-28T07:57:23.000Z</time>
      </trkpt>
      <trkpt lat="49.85197" lon="4.79755">
        <ele>319</ele>
        <time>2022-09-28T07:57:24.000Z</time>
      </trkpt>
      <trkpt lat="49.85193" lon="4.79749">
        <ele>319</ele>
        <time>2022-09-28T07:57:25.000Z</time>
      </trkpt>
      <trkpt lat="49.85189" lon="4.79743">
        <ele>318</ele>
        <time>2022-09-28T07:57:26.000Z</time>
      </trkpt>
      <trkpt lat="49.85185" lon="4.79736">
        <ele>318</ele>
        <time>2022-09-28T07:57:27.000Z</time>
      </trkpt>
      <trkpt lat="49.85181" lon="4.7973">
        <ele>318</ele>
        <time>2022-09-28T07:57:28.000Z</time>
      </trkpt>
      <trkpt lat="49.85176" lon="4.79725">
        <ele>317</ele>
        <time>2022-09-28T07:57:29.000Z</time>
      </trkpt>
      <trkpt lat="49.85171" lon="4.79719">
        <ele>317</ele>
        <time>2022-09-28T07:57:30.000Z</time>
      </trkpt>
      <trkpt lat="49.85167" lon="4.79714">
        <ele>316</ele>
        <time>2022-09-28T07:57:31.000Z</time>
      </trkpt>
      <trkpt lat="49.85162" lon="4.79709">
        <ele>316</ele>
        <time>2022-09-28T07:57:32.000Z</time>
      </trkpt>
      <trkpt lat="49.85157" lon="4.79706">
        <ele>316</ele>
        <time>2022-09-28T07:57:33.000Z</time>
      </trkpt>
      <trkpt lat="49.85153" lon="4.79703">
        <ele>315</ele>
        <time>2022-09-28T07:57:34.000Z</time>
      </trkpt>
      <trkpt lat="49.8515" lon="4.797">
        <ele>315</ele>
        <time>2022-09-28T07:57:35.000Z</time>
      </trkpt>
      <trkpt lat="49.85147" lon="4.79697">
        <ele>315</ele>
        <time>2022-09-28T07:57:36.000Z</time>
      </trkpt>
      <trkpt lat="49.85143" lon="4.79693">
        <ele>314</ele>
        <time>2022-09-28T07:57:37.000Z</time>
      </trkpt>
      <trkpt lat="49.85139" lon="4.7969">
        <ele>314</ele>
        <time>2022-09-28T07:57:38.000Z</time>
      </trkpt>
      <trkpt lat="49.85135" lon="4.79688">
        <ele>314</ele>
        <time>2022-09-28T07:57:39.000Z</time>
      </trkpt>
      <trkpt lat="49.85131" lon="4.79687">
        <ele>313</ele>
        <time>2022-09-28T07:57:40.000Z</time>
      </trkpt>
      <trkpt lat="49.85128" lon="4.79686">
        <ele>313</ele>
        <time>2022-09-28T07:57:41.000Z</time>
      </trkpt>
      <trkpt lat="49.85125" lon="4.79685">
        <ele>313</ele>
        <time>2022-09-28T07:57:42.000Z</time>
      </trkpt>
      <trkpt lat="49.85122" lon="4.79685">
        <ele>313</ele>
        <time>2022-09-28T07:57:43.000Z</time>
      </trkpt>
      <trkpt lat="49.85119" lon="4.79685">
        <ele>312</ele>
        <time>2022-09-28T07:57:44.000Z</time>
      </trkpt>
      <trkpt lat="49.85115" lon="4.79685">
        <ele>312</ele>
        <time>2022-09-28T07:57:45.000Z</time>
      </trkpt>
      <trkpt lat="49.85113" lon="4.79685">
        <ele>312</ele>
        <time>2022-09-28T07:57:46.000Z</time>
      </trkpt>
      <trkpt lat="49.8511" lon="4.79685">
        <ele>312</ele>
        <time>2022-09-28T07:57:47.000Z</time>
      </trkpt>
      <trkpt lat="49.85106" lon="4.79685">
        <ele>312</ele>
        <time>2022-09-28T07:57:48.000Z</time>
      </trkpt>
      <trkpt lat="49.85103" lon="4.79685">
        <ele>312</ele>
        <time>2022-09-28T07:57:49.000Z</time>
      </trkpt>
      <trkpt lat="49.85099" lon="4.79684">
        <ele>312</ele>
        <time>2022-09-28T07:57:50.000Z</time>
      </trkpt>
      <trkpt lat="49.85096" lon="4.79684">
        <ele>311</ele>
        <time>2022-09-28T07:57:51.000Z</time>
      </trkpt>
      <trkpt lat="49.85092" lon="4.79684">
        <ele>311</ele>
        <time>2022-09-28T07:57:52.000Z</time>
      </trkpt>
      <trkpt lat="49.85089" lon="4.79684">
        <ele>311</ele>
        <time>2022-09-28T07:57:53.000Z</time>
      </trkpt>
      <trkpt lat="49.85085" lon="4.79682">
        <ele>312</ele>
        <time>2022-09-28T07:57:54.000Z</time>
      </trkpt>
      <trkpt lat="49.85082" lon="4.79681">
        <ele>312</ele>
        <time>2022-09-28T07:57:55.000Z</time>
      </trkpt>
      <trkpt lat="49.85079" lon="4.7968">
        <ele>312</ele>
        <time>2022-09-28T07:57:56.000Z</time>
      </trkpt>
      <trkpt lat="49.85075" lon="4.79678">
        <ele>312</ele>
        <time>2022-09-28T07:57:57.000Z</time>
      </trkpt>
      <trkpt lat="49.85071" lon="4.79677">
        <ele>312</ele>
        <time>2022-09-28T07:57:58.000Z</time>
      </trkpt>
      <trkpt lat="49.85068" lon="4.79674">
        <ele>312</ele>
        <time>2022-09-28T07:57:59.000Z</time>
      </trkpt>
      <trkpt lat="49.85065" lon="4.7967">
        <ele>312</ele>
        <time>2022-09-28T07:58:00.000Z</time>
      </trkpt>
      <trkpt lat="49.85063" lon="4.79666">
        <ele>312</ele>
        <time>2022-09-28T07:58:01.000Z</time>
      </trkpt>
      <trkpt lat="49.85062" lon="4.79661">
        <ele>312</ele>
        <time>2022-09-28T07:58:02.000Z</time>
      </trkpt>
      <trkpt lat="49.85062" lon="4.79657">
        <ele>312</ele>
        <time>2022-09-28T07:58:03.000Z</time>
      </trkpt>
      <trkpt lat="49.85061" lon="4.79654">
        <ele>312</ele>
        <time>2022-09-28T07:58:04.000Z</time>
      </trkpt>
      <trkpt lat="49.85061" lon="4.79651">
        <ele>312</ele>
        <time>2022-09-28T07:58:05.000Z</time>
      </trkpt>
      <trkpt lat="49.85062" lon="4.79648">
        <ele>312</ele>
        <time>2022-09-28T07:58:06.000Z</time>
      </trkpt>
      <trkpt lat="49.85062" lon="4.79645">
        <ele>312</ele>
        <time>2022-09-28T07:58:07.000Z</time>
      </trkpt>
      <trkpt lat="49.85062" lon="4.79642">
        <ele>312</ele>
        <time>2022-09-28T07:58:08.000Z</time>
      </trkpt>
      <trkpt lat="49.85062" lon="4.79639">
        <ele>311</ele>
        <time>2022-09-28T07:58:09.000Z</time>
      </trkpt>
      <trkpt lat="49.85062" lon="4.79635">
        <ele>311</ele>
        <time>2022-09-28T07:58:10.000Z</time>
      </trkpt>
      <trkpt lat="49.85062" lon="4.79632">
        <ele>311</ele>
        <time>2022-09-28T07:58:11.000Z</time>
      </trkpt>
      <trkpt lat="49.85062" lon="4.7963">
        <ele>311</ele>
        <time>2022-09-28T07:58:12.000Z</time>
      </trkpt>
      <trkpt lat="49.85062" lon="4.79628">
        <ele>311</ele>
        <time>2022-09-28T07:58:13.000Z</time>
      </trkpt>
      <trkpt lat="49.85063" lon="4.79625">
        <ele>311</ele>
        <time>2022-09-28T07:58:14.000Z</time>
      </trkpt>
      <trkpt lat="49.85063" lon="4.7962">
        <ele>311</ele>
        <time>2022-09-28T07:58:15.000Z</time>
      </trkpt>
      <trkpt lat="49.85063" lon="4.79616">
        <ele>311</ele>
        <time>2022-09-28T07:58:16.000Z</time>
      </trkpt>
      <trkpt lat="49.85063" lon="4.79611">
        <ele>311</ele>
        <time>2022-09-28T07:58:17.000Z</time>
      </trkpt>
      <trkpt lat="49.85063" lon="4.79605">
        <ele>311</ele>
        <time>2022-09-28T07:58:18.000Z</time>
      </trkpt>
      <trkpt lat="49.85064" lon="4.796">
        <ele>311</ele>
        <time>2022-09-28T07:58:19.000Z</time>
      </trkpt>
      <trkpt lat="49.85065" lon="4.79596">
        <ele>311</ele>
        <time>2022-09-28T07:58:20.000Z</time>
      </trkpt>
      <trkpt lat="49.85065" lon="4.79591">
        <ele>311</ele>
        <time>2022-09-28T07:58:21.000Z</time>
      </trkpt>
      <trkpt lat="49.85065" lon="4.79586">
        <ele>311</ele>
        <time>2022-09-28T07:58:22.000Z</time>
      </trkpt>
      <trkpt lat="49.85065" lon="4.79581">
        <ele>311</ele>
        <time>2022-09-28T07:58:23.000Z</time>
      </trkpt>
      <trkpt lat="49.85065" lon="4.79577">
        <ele>311</ele>
        <time>2022-09-28T07:58:24.000Z</time>
      </trkpt>
      <trkpt lat="49.85064" lon="4.79573">
        <ele>311</ele>
        <time>2022-09-28T07:58:25.000Z</time>
      </trkpt>
      <trkpt lat="49.85063" lon="4.79569">
        <ele>311</ele>
        <time>2022-09-28T07:58:26.000Z</time>
      </trkpt>
      <trkpt lat="49.85061" lon="4.79565">
        <ele>312</ele>
        <time>2022-09-28T07:58:27.000Z</time>
      </trkpt>
      <trkpt lat="49.85059" lon="4.79561">
        <ele>312</ele>
        <time>2022-09-28T07:58:28.000Z</time>
      </trkpt>
      <trkpt lat="49.85057" lon="4.79558">
        <ele>312</ele>
        <time>2022-09-28T07:58:29.000Z</time>
      </trkpt>
      <trkpt lat="49.85055" lon="4.79554">
        <ele>312</ele>
        <time>2022-09-28T07:58:30.000Z</time>
      </trkpt>
      <trkpt lat="49.85053" lon="4.79551">
        <ele>312</ele>
        <time>2022-09-28T07:58:31.000Z</time>
      </trkpt>
      <trkpt lat="49.85052" lon="4.79547">
        <ele>312</ele>
        <time>2022-09-28T07:58:32.000Z</time>
      </trkpt>
      <trkpt lat="49.85051" lon="4.79543">
        <ele>312</ele>
        <time>2022-09-28T07:58:33.000Z</time>
      </trkpt>
      <trkpt lat="49.85051" lon="4.79539">
        <ele>312</ele>
        <time>2022-09-28T07:58:34.000Z</time>
      </trkpt>
      <trkpt lat="49.8505" lon="4.79535">
        <ele>312</ele>
        <time>2022-09-28T07:58:35.000Z</time>
      </trkpt>
      <trkpt lat="49.8505" lon="4.7953">
        <ele>312</ele>
        <time>2022-09-28T07:58:36.000Z</time>
      </trkpt>
      <trkpt lat="49.85051" lon="4.79525">
        <ele>311</ele>
        <time>2022-09-28T07:58:37.000Z</time>
      </trkpt>
      <trkpt lat="49.85052" lon="4.7952">
        <ele>311</ele>
        <time>2022-09-28T07:58:38.000Z</time>
      </trkpt>
      <trkpt lat="49.85053" lon="4.79515">
        <ele>311</ele>
        <time>2022-09-28T07:58:39.000Z</time>
      </trkpt>
      <trkpt lat="49.85054" lon="4.79511">
        <ele>311</ele>
        <time>2022-09-28T07:58:40.000Z</time>
      </trkpt>
      <trkpt lat="49.85055" lon="4.79506">
        <ele>311</ele>
        <time>2022-09-28T07:58:41.000Z</time>
      </trkpt>
      <trkpt lat="49.85057" lon="4.79502">
        <ele>311</ele>
        <time>2022-09-28T07:58:42.000Z</time>
      </trkpt>
      <trkpt lat="49.85058" lon="4.79497">
        <ele>311</ele>
        <time>2022-09-28T07:58:43.000Z</time>
      </trkpt>
      <trkpt lat="49.85059" lon="4.79493">
        <ele>311</ele>
        <time>2022-09-28T07:58:44.000Z</time>
      </trkpt>
      <trkpt lat="49.8506" lon="4.79489">
        <ele>310</ele>
        <time>2022-09-28T07:58:45.000Z</time>
      </trkpt>
      <trkpt lat="49.85062" lon="4.79484">
        <ele>310</ele>
        <time>2022-09-28T07:58:46.000Z</time>
      </trkpt>
      <trkpt lat="49.85064" lon="4.79479">
        <ele>310</ele>
        <time>2022-09-28T07:58:47.000Z</time>
      </trkpt>
      <trkpt lat="49.85065" lon="4.79474">
        <ele>310</ele>
        <time>2022-09-28T07:58:48.000Z</time>
      </trkpt>
      <trkpt lat="49.85067" lon="4.79469">
        <ele>309</ele>
        <time>2022-09-28T07:58:49.000Z</time>
      </trkpt>
      <trkpt lat="49.85069" lon="4.79463">
        <ele>309</ele>
        <time>2022-09-28T07:58:50.000Z</time>
      </trkpt>
      <trkpt lat="49.85071" lon="4.79457">
        <ele>309</ele>
        <time>2022-09-28T07:58:51.000Z</time>
      </trkpt>
      <trkpt lat="49.85072" lon="4.79451">
        <ele>308</ele>
        <time>2022-09-28T07:58:52.000Z</time>
      </trkpt>
      <trkpt lat="49.85074" lon="4.79446">
        <ele>308</ele>
        <time>2022-09-28T07:58:53.000Z</time>
      </trkpt>
      <trkpt lat="49.85076" lon="4.79441">
        <ele>308</ele>
        <time>2022-09-28T07:58:54.000Z</time>
      </trkpt>
      <trkpt lat="49.85077" lon="4.79436">
        <ele>308</ele>
        <time>2022-09-28T07:58:55.000Z</time>
      </trkpt>
      <trkpt lat="49.85078" lon="4.79431">
        <ele>307</ele>
        <time>2022-09-28T07:58:56.000Z</time>
      </trkpt>
      <trkpt lat="49.8508" lon="4.79426">
        <ele>307</ele>
        <time>2022-09-28T07:58:57.000Z</time>
      </trkpt>
      <trkpt lat="49.85081" lon="4.7942">
        <ele>307</ele>
        <time>2022-09-28T07:58:58.000Z</time>
      </trkpt>
      <trkpt lat="49.85083" lon="4.79415">
        <ele>307</ele>
        <time>2022-09-28T07:58:59.000Z</time>
      </trkpt>
      <trkpt lat="49.85084" lon="4.79409">
        <ele>307</ele>
        <time>2022-09-28T07:59:00.000Z</time>
      </trkpt>
      <trkpt lat="49.85086" lon="4.79404">
        <ele>307</ele>
        <time>2022-09-28T07:59:01.000Z</time>
      </trkpt>
      <trkpt lat="49.85087" lon="4.79399">
        <ele>307</ele>
        <time>2022-09-28T07:59:02.000Z</time>
      </trkpt>
      <trkpt lat="49.85088" lon="4.79394">
        <ele>307</ele>
        <time>2022-09-28T07:59:03.000Z</time>
      </trkpt>
      <trkpt lat="49.8509" lon="4.7939">
        <ele>307</ele>
        <time>2022-09-28T07:59:04.000Z</time>
      </trkpt>
      <trkpt lat="49.8509" lon="4.79385">
        <ele>307</ele>
        <time>2022-09-28T07:59:05.000Z</time>
      </trkpt>
      <trkpt lat="49.85091" lon="4.79379">
        <ele>307</ele>
        <time>2022-09-28T07:59:06.000Z</time>
      </trkpt>
      <trkpt lat="49.85093" lon="4.79374">
        <ele>306</ele>
        <time>2022-09-28T07:59:07.000Z</time>
      </trkpt>
      <trkpt lat="49.85094" lon="4.79368">
        <ele>306</ele>
        <time>2022-09-28T07:59:08.000Z</time>
      </trkpt>
      <trkpt lat="49.85097" lon="4.79362">
        <ele>306</ele>
        <time>2022-09-28T07:59:09.000Z</time>
      </trkpt>
      <trkpt lat="49.85099" lon="4.79355">
        <ele>306</ele>
        <time>2022-09-28T07:59:10.000Z</time>
      </trkpt>
      <trkpt lat="49.85101" lon="4.79349">
        <ele>306</ele>
        <time>2022-09-28T07:59:11.000Z</time>
      </trkpt>
      <trkpt lat="49.85104" lon="4.79343">
        <ele>306</ele>
        <time>2022-09-28T07:59:12.000Z</time>
      </trkpt>
      <trkpt lat="49.85106" lon="4.79339">
        <ele>306</ele>
        <time>2022-09-28T07:59:13.000Z</time>
      </trkpt>
      <trkpt lat="49.85109" lon="4.79335">
        <ele>306</ele>
        <time>2022-09-28T07:59:14.000Z</time>
      </trkpt>
      <trkpt lat="49.85112" lon="4.79333">
        <ele>306</ele>
        <time>2022-09-28T07:59:15.000Z</time>
      </trkpt>
      <trkpt lat="49.85115" lon="4.79331">
        <ele>306</ele>
        <time>2022-09-28T07:59:16.000Z</time>
      </trkpt>
      <trkpt lat="49.85119" lon="4.7933">
        <ele>305</ele>
        <time>2022-09-28T07:59:17.000Z</time>
      </trkpt>
      <trkpt lat="49.85122" lon="4.79329">
        <ele>305</ele>
        <time>2022-09-28T07:59:18.000Z</time>
      </trkpt>
      <trkpt lat="49.85126" lon="4.79327">
        <ele>305</ele>
        <time>2022-09-28T07:59:19.000Z</time>
      </trkpt>
      <trkpt lat="49.85131" lon="4.79325">
        <ele>305</ele>
        <time>2022-09-28T07:59:20.000Z</time>
      </trkpt>
      <trkpt lat="49.85136" lon="4.79323">
        <ele>305</ele>
        <time>2022-09-28T07:59:21.000Z</time>
      </trkpt>
      <trkpt lat="49.8514" lon="4.79322">
        <ele>305</ele>
        <time>2022-09-28T07:59:22.000Z</time>
      </trkpt>
      <trkpt lat="49.85145" lon="4.7932">
        <ele>305</ele>
        <time>2022-09-28T07:59:23.000Z</time>
      </trkpt>
      <trkpt lat="49.85148" lon="4.79318">
        <ele>305</ele>
        <time>2022-09-28T07:59:24.000Z</time>
      </trkpt>
      <trkpt lat="49.85152" lon="4.79316">
        <ele>305</ele>
        <time>2022-09-28T07:59:25.000Z</time>
      </trkpt>
      <trkpt lat="49.85155" lon="4.79314">
        <ele>305</ele>
        <time>2022-09-28T07:59:26.000Z</time>
      </trkpt>
      <trkpt lat="49.85158" lon="4.79311">
        <ele>305</ele>
        <time>2022-09-28T07:59:27.000Z</time>
      </trkpt>
      <trkpt lat="49.85163" lon="4.79306">
        <ele>304</ele>
        <time>2022-09-28T07:59:28.000Z</time>
      </trkpt>
      <trkpt lat="49.85168" lon="4.79303">
        <ele>304</ele>
        <time>2022-09-28T07:59:29.000Z</time>
      </trkpt>
      <trkpt lat="49.85172" lon="4.79298">
        <ele>304</ele>
        <time>2022-09-28T07:59:30.000Z</time>
      </trkpt>
      <trkpt lat="49.85175" lon="4.79293">
        <ele>304</ele>
        <time>2022-09-28T07:59:31.000Z</time>
      </trkpt>
      <trkpt lat="49.85178" lon="4.79288">
        <ele>304</ele>
        <time>2022-09-28T07:59:32.000Z</time>
      </trkpt>
      <trkpt lat="49.85181" lon="4.79281">
        <ele>303</ele>
        <time>2022-09-28T07:59:33.000Z</time>
      </trkpt>
      <trkpt lat="49.85183" lon="4.79273">
        <ele>303</ele>
        <time>2022-09-28T07:59:34.000Z</time>
      </trkpt>
      <trkpt lat="49.85185" lon="4.79265">
        <ele>303</ele>
        <time>2022-09-28T07:59:35.000Z</time>
      </trkpt>
      <trkpt lat="49.85187" lon="4.79258">
        <ele>303</ele>
        <time>2022-09-28T07:59:36.000Z</time>
      </trkpt>
      <trkpt lat="49.85188" lon="4.7925">
        <ele>303</ele>
        <time>2022-09-28T07:59:37.000Z</time>
      </trkpt>
      <trkpt lat="49.85188" lon="4.79243">
        <ele>303</ele>
        <time>2022-09-28T07:59:38.000Z</time>
      </trkpt>
      <trkpt lat="49.85189" lon="4.79236">
        <ele>302</ele>
        <time>2022-09-28T07:59:39.000Z</time>
      </trkpt>
      <trkpt lat="49.8519" lon="4.79229">
        <ele>302</ele>
        <time>2022-09-28T07:59:40.000Z</time>
      </trkpt>
      <trkpt lat="49.85192" lon="4.79222">
        <ele>302</ele>
        <time>2022-09-28T07:59:41.000Z</time>
      </trkpt>
      <trkpt lat="49.85193" lon="4.79214">
        <ele>302</ele>
        <time>2022-09-28T07:59:42.000Z</time>
      </trkpt>
      <trkpt lat="49.85196" lon="4.79207">
        <ele>302</ele>
        <time>2022-09-28T07:59:43.000Z</time>
      </trkpt>
      <trkpt lat="49.85197" lon="4.792">
        <ele>302</ele>
        <time>2022-09-28T07:59:44.000Z</time>
      </trkpt>
      <trkpt lat="49.85198" lon="4.79193">
        <ele>302</ele>
        <time>2022-09-28T07:59:45.000Z</time>
      </trkpt>
      <trkpt lat="49.85199" lon="4.79187">
        <ele>302</ele>
        <time>2022-09-28T07:59:46.000Z</time>
      </trkpt>
      <trkpt lat="49.852" lon="4.79182">
        <ele>302</ele>
        <time>2022-09-28T07:59:47.000Z</time>
      </trkpt>
      <trkpt lat="49.85202" lon="4.79178">
        <ele>302</ele>
        <time>2022-09-28T07:59:48.000Z</time>
      </trkpt>
      <trkpt lat="49.85204" lon="4.79173">
        <ele>302</ele>
        <time>2022-09-28T07:59:49.000Z</time>
      </trkpt>
      <trkpt lat="49.85207" lon="4.7917">
        <ele>302</ele>
        <time>2022-09-28T07:59:50.000Z</time>
      </trkpt>
      <trkpt lat="49.85209" lon="4.79167">
        <ele>302</ele>
        <time>2022-09-28T07:59:51.000Z</time>
      </trkpt>
      <trkpt lat="49.85211" lon="4.79165">
        <ele>302</ele>
        <time>2022-09-28T07:59:52.000Z</time>
      </trkpt>
      <trkpt lat="49.85213" lon="4.79163">
        <ele>302</ele>
        <time>2022-09-28T07:59:53.000Z</time>
      </trkpt>
      <trkpt lat="49.85215" lon="4.79162">
        <ele>302</ele>
        <time>2022-09-28T07:59:54.000Z</time>
      </trkpt>
      <trkpt lat="49.85217" lon="4.7916">
        <ele>302</ele>
        <time>2022-09-28T07:59:55.000Z</time>
      </trkpt>
      <trkpt lat="49.85219" lon="4.79159">
        <ele>301</ele>
        <time>2022-09-28T07:59:56.000Z</time>
      </trkpt>
      <trkpt lat="49.85221" lon="4.79158">
        <ele>301</ele>
        <time>2022-09-28T07:59:57.000Z</time>
      </trkpt>
      <trkpt lat="49.85222" lon="4.79157">
        <ele>301</ele>
        <time>2022-09-28T07:59:58.000Z</time>
      </trkpt>
      <trkpt lat="49.85223" lon="4.79156">
        <ele>301</ele>
        <time>2022-09-28T07:59:59.000Z</time>
      </trkpt>
      <trkpt lat="49.85224" lon="4.79156">
        <ele>301</ele>
        <time>2022-09-28T08:00:00.000Z</time>
      </trkpt>
      <trkpt lat="49.85226" lon="4.79156">
        <ele>301</ele>
        <time>2022-09-28T08:00:01.000Z</time>
      </trkpt>
      <trkpt lat="49.85227" lon="4.79156">
        <ele>301</ele>
        <time>2022-09-28T08:00:02.000Z</time>
      </trkpt>
      <trkpt lat="49.85229" lon="4.79156">
        <ele>300</ele>
        <time>2022-09-28T08:00:03.000Z</time>
      </trkpt>
      <trkpt lat="49.85231" lon="4.79156">
        <ele>300</ele>
        <time>2022-09-28T08:00:04.000Z</time>
      </trkpt>
      <trkpt lat="49.85233" lon="4.79155">
        <ele>300</ele>
        <time>2022-09-28T08:00:05.000Z</time>
      </trkpt>
      <trkpt lat="49.85235" lon="4.79155">
        <ele>300</ele>
        <time>2022-09-28T08:00:06.000Z</time>
      </trkpt>
      <trkpt lat="49.85238" lon="4.79155">
        <ele>300</ele>
        <time>2022-09-28T08:00:07.000Z</time>
      </trkpt>
      <trkpt lat="49.8524" lon="4.79154">
        <ele>300</ele>
        <time>2022-09-28T08:00:08.000Z</time>
      </trkpt>
      <trkpt lat="49.85242" lon="4.79154">
        <ele>300</ele>
        <time>2022-09-28T08:00:09.000Z</time>
      </trkpt>
      <trkpt lat="49.85244" lon="4.79153">
        <ele>300</ele>
        <time>2022-09-28T08:00:10.000Z</time>
      </trkpt>
      <trkpt lat="49.85246" lon="4.79151">
        <ele>300</ele>
        <time>2022-09-28T08:00:11.000Z</time>
      </trkpt>
      <trkpt lat="49.85247" lon="4.7915">
        <ele>300</ele>
        <time>2022-09-28T08:00:12.000Z</time>
      </trkpt>
      <trkpt lat="49.85249" lon="4.79148">
        <ele>300</ele>
        <time>2022-09-28T08:00:13.000Z</time>
      </trkpt>
      <trkpt lat="49.8525" lon="4.79146">
        <ele>300</ele>
        <time>2022-09-28T08:00:14.000Z</time>
      </trkpt>
      <trkpt lat="49.85251" lon="4.79144">
        <ele>299</ele>
        <time>2022-09-28T08:00:15.000Z</time>
      </trkpt>
      <trkpt lat="49.85252" lon="4.79141">
        <ele>299</ele>
        <time>2022-09-28T08:00:16.000Z</time>
      </trkpt>
      <trkpt lat="49.85253" lon="4.79139">
        <ele>299</ele>
        <time>2022-09-28T08:00:17.000Z</time>
      </trkpt>
      <trkpt lat="49.85253" lon="4.79137">
        <ele>299</ele>
        <time>2022-09-28T08:00:18.000Z</time>
      </trkpt>
      <trkpt lat="49.85254" lon="4.79134">
        <ele>299</ele>
        <time>2022-09-28T08:00:19.000Z</time>
      </trkpt>
      <trkpt lat="49.85254" lon="4.79132">
        <ele>299</ele>
        <time>2022-09-28T08:00:20.000Z</time>
      </trkpt>
      <trkpt lat="49.85254" lon="4.79129">
        <ele>299</ele>
        <time>2022-09-28T08:00:21.000Z</time>
      </trkpt>
      <trkpt lat="49.85254" lon="4.79125">
        <ele>299</ele>
        <time>2022-09-28T08:00:22.000Z</time>
      </trkpt>
      <trkpt lat="49.85254" lon="4.79122">
        <ele>299</ele>
        <time>2022-09-28T08:00:23.000Z</time>
      </trkpt>
      <trkpt lat="49.85254" lon="4.79117">
        <ele>299</ele>
        <time>2022-09-28T08:00:24.000Z</time>
      </trkpt>
      <trkpt lat="49.85254" lon="4.79113">
        <ele>299</ele>
        <time>2022-09-28T08:00:25.000Z</time>
      </trkpt>
      <trkpt lat="49.85254" lon="4.79108">
        <ele>299</ele>
        <time>2022-09-28T08:00:26.000Z</time>
      </trkpt>
      <trkpt lat="49.85255" lon="4.79103">
        <ele>299</ele>
        <time>2022-09-28T08:00:27.000Z</time>
      </trkpt>
      <trkpt lat="49.85255" lon="4.79098">
        <ele>299</ele>
        <time>2022-09-28T08:00:28.000Z</time>
      </trkpt>
      <trkpt lat="49.85256" lon="4.79094">
        <ele>299</ele>
        <time>2022-09-28T08:00:29.000Z</time>
      </trkpt>
      <trkpt lat="49.85257" lon="4.7909">
        <ele>299</ele>
        <time>2022-09-28T08:00:30.000Z</time>
      </trkpt>
      <trkpt lat="49.85257" lon="4.79087">
        <ele>299</ele>
        <time>2022-09-28T08:00:31.000Z</time>
      </trkpt>
      <trkpt lat="49.85258" lon="4.79083">
        <ele>299</ele>
        <time>2022-09-28T08:00:32.000Z</time>
      </trkpt>
      <trkpt lat="49.85258" lon="4.79078">
        <ele>299</ele>
        <time>2022-09-28T08:00:33.000Z</time>
      </trkpt>
      <trkpt lat="49.85258" lon="4.79074">
        <ele>299</ele>
        <time>2022-09-28T08:00:34.000Z</time>
      </trkpt>
      <trkpt lat="49.85258" lon="4.79069">
        <ele>299</ele>
        <time>2022-09-28T08:00:35.000Z</time>
      </trkpt>
      <trkpt lat="49.85259" lon="4.79064">
        <ele>299</ele>
        <time>2022-09-28T08:00:36.000Z</time>
      </trkpt>
      <trkpt lat="49.85259" lon="4.7906">
        <ele>299</ele>
        <time>2022-09-28T08:00:37.000Z</time>
      </trkpt>
      <trkpt lat="49.85259" lon="4.79055">
        <ele>299</ele>
        <time>2022-09-28T08:00:38.000Z</time>
      </trkpt>
      <trkpt lat="49.85258" lon="4.7905">
        <ele>299</ele>
        <time>2022-09-28T08:00:39.000Z</time>
      </trkpt>
      <trkpt lat="49.85258" lon="4.79045">
        <ele>299</ele>
        <time>2022-09-28T08:00:40.000Z</time>
      </trkpt>
      <trkpt lat="49.85258" lon="4.79041">
        <ele>300</ele>
        <time>2022-09-28T08:00:41.000Z</time>
      </trkpt>
      <trkpt lat="49.85257" lon="4.79037">
        <ele>300</ele>
        <time>2022-09-28T08:00:42.000Z</time>
      </trkpt>
      <trkpt lat="49.85257" lon="4.79033">
        <ele>300</ele>
        <time>2022-09-28T08:00:43.000Z</time>
      </trkpt>
      <trkpt lat="49.85257" lon="4.79031">
        <ele>300</ele>
        <time>2022-09-28T08:00:44.000Z</time>
      </trkpt>
      <trkpt lat="49.85257" lon="4.79028">
        <ele>300</ele>
        <time>2022-09-28T08:00:45.000Z</time>
      </trkpt>
      <trkpt lat="49.85257" lon="4.79026">
        <ele>300</ele>
        <time>2022-09-28T08:00:46.000Z</time>
      </trkpt>
      <trkpt lat="49.85257" lon="4.79024">
        <ele>300</ele>
        <time>2022-09-28T08:00:47.000Z</time>
      </trkpt>
      <trkpt lat="49.85257" lon="4.79022">
        <ele>300</ele>
        <time>2022-09-28T08:00:48.000Z</time>
      </trkpt>
      <trkpt lat="49.85256" lon="4.7902">
        <ele>300</ele>
        <time>2022-09-28T08:00:49.000Z</time>
      </trkpt>
      <trkpt lat="49.85255" lon="4.79016">
        <ele>300</ele>
        <time>2022-09-28T08:00:50.000Z</time>
      </trkpt>
      <trkpt lat="49.85254" lon="4.79013">
        <ele>301</ele>
        <time>2022-09-28T08:00:51.000Z</time>
      </trkpt>
      <trkpt lat="49.85254" lon="4.79009">
        <ele>301</ele>
        <time>2022-09-28T08:00:52.000Z</time>
      </trkpt>
      <trkpt lat="49.85253" lon="4.79005">
        <ele>301</ele>
        <time>2022-09-28T08:00:53.000Z</time>
      </trkpt>
      <trkpt lat="49.85253" lon="4.79001">
        <ele>301</ele>
        <time>2022-09-28T08:00:54.000Z</time>
      </trkpt>
      <trkpt lat="49.85253" lon="4.78997">
        <ele>301</ele>
        <time>2022-09-28T08:00:55.000Z</time>
      </trkpt>
      <trkpt lat="49.85253" lon="4.78993">
        <ele>301</ele>
        <time>2022-09-28T08:00:56.000Z</time>
      </trkpt>
      <trkpt lat="49.85253" lon="4.78989">
        <ele>301</ele>
        <time>2022-09-28T08:00:57.000Z</time>
      </trkpt>
      <trkpt lat="49.85253" lon="4.78986">
        <ele>302</ele>
        <time>2022-09-28T08:00:58.000Z</time>
      </trkpt>
      <trkpt lat="49.85253" lon="4.78982">
        <ele>302</ele>
        <time>2022-09-28T08:00:59.000Z</time>
      </trkpt>
      <trkpt lat="49.85253" lon="4.78978">
        <ele>302</ele>
        <time>2022-09-28T08:01:00.000Z</time>
      </trkpt>
      <trkpt lat="49.85253" lon="4.78974">
        <ele>302</ele>
        <time>2022-09-28T08:01:01.000Z</time>
      </trkpt>
      <trkpt lat="49.85253" lon="4.7897">
        <ele>302</ele>
        <time>2022-09-28T08:01:02.000Z</time>
      </trkpt>
      <trkpt lat="49.85254" lon="4.78966">
        <ele>302</ele>
        <time>2022-09-28T08:01:03.000Z</time>
      </trkpt>
      <trkpt lat="49.85254" lon="4.78962">
        <ele>302</ele>
        <time>2022-09-28T08:01:04.000Z</time>
      </trkpt>
      <trkpt lat="49.85254" lon="4.78958">
        <ele>302</ele>
        <time>2022-09-28T08:01:05.000Z</time>
      </trkpt>
      <trkpt lat="49.85254" lon="4.78954">
        <ele>302</ele>
        <time>2022-09-28T08:01:06.000Z</time>
      </trkpt>
      <trkpt lat="49.85254" lon="4.78951">
        <ele>302</ele>
        <time>2022-09-28T08:01:07.000Z</time>
      </trkpt>
      <trkpt lat="49.85255" lon="4.78947">
        <ele>303</ele>
        <time>2022-09-28T08:01:08.000Z</time>
      </trkpt>
      <trkpt lat="49.85255" lon="4.78943">
        <ele>303</ele>
        <time>2022-09-28T08:01:09.000Z</time>
      </trkpt>
      <trkpt lat="49.85255" lon="4.78939">
        <ele>303</ele>
        <time>2022-09-28T08:01:10.000Z</time>
      </trkpt>
      <trkpt lat="49.85255" lon="4.78936">
        <ele>303</ele>
        <time>2022-09-28T08:01:11.000Z</time>
      </trkpt>
      <trkpt lat="49.85255" lon="4.78932">
        <ele>304</ele>
        <time>2022-09-28T08:01:12.000Z</time>
      </trkpt>
      <trkpt lat="49.85255" lon="4.78929">
        <ele>304</ele>
        <time>2022-09-28T08:01:13.000Z</time>
      </trkpt>
      <trkpt lat="49.85256" lon="4.78925">
        <ele>304</ele>
        <time>2022-09-28T08:01:14.000Z</time>
      </trkpt>
      <trkpt lat="49.85256" lon="4.78922">
        <ele>304</ele>
        <time>2022-09-28T08:01:15.000Z</time>
      </trkpt>
      <trkpt lat="49.85257" lon="4.78919">
        <ele>305</ele>
        <time>2022-09-28T08:01:16.000Z</time>
      </trkpt>
      <trkpt lat="49.85257" lon="4.78916">
        <ele>305</ele>
        <time>2022-09-28T08:01:17.000Z</time>
      </trkpt>
      <trkpt lat="49.85257" lon="4.78913">
        <ele>305</ele>
        <time>2022-09-28T08:01:18.000Z</time>
      </trkpt>
      <trkpt lat="49.85258" lon="4.7891">
        <ele>306</ele>
        <time>2022-09-28T08:01:19.000Z</time>
      </trkpt>
      <trkpt lat="49.85258" lon="4.78907">
        <ele>306</ele>
        <time>2022-09-28T08:01:20.000Z</time>
      </trkpt>
      <trkpt lat="49.85258" lon="4.78904">
        <ele>306</ele>
        <time>2022-09-28T08:01:21.000Z</time>
      </trkpt>
      <trkpt lat="49.85259" lon="4.78901">
        <ele>306</ele>
        <time>2022-09-28T08:01:22.000Z</time>
      </trkpt>
      <trkpt lat="49.8526" lon="4.78897">
        <ele>307</ele>
        <time>2022-09-28T08:01:23.000Z</time>
      </trkpt>
      <trkpt lat="49.8526" lon="4.78894">
        <ele>307</ele>
        <time>2022-09-28T08:01:24.000Z</time>
      </trkpt>
      <trkpt lat="49.8526" lon="4.7889">
        <ele>307</ele>
        <time>2022-09-28T08:01:25.000Z</time>
      </trkpt>
      <trkpt lat="49.8526" lon="4.78887">
        <ele>307</ele>
        <time>2022-09-28T08:01:26.000Z</time>
      </trkpt>
      <trkpt lat="49.8526" lon="4.78883">
        <ele>308</ele>
        <time>2022-09-28T08:01:27.000Z</time>
      </trkpt>
      <trkpt lat="49.8526" lon="4.7888">
        <ele>308</ele>
        <time>2022-09-28T08:01:28.000Z</time>
      </trkpt>
      <trkpt lat="49.85261" lon="4.78877">
        <ele>308</ele>
        <time>2022-09-28T08:01:29.000Z</time>
      </trkpt>
      <trkpt lat="49.85261" lon="4.78874">
        <ele>308</ele>
        <time>2022-09-28T08:01:30.000Z</time>
      </trkpt>
      <trkpt lat="49.85262" lon="4.78871">
        <ele>309</ele>
        <time>2022-09-28T08:01:31.000Z</time>
      </trkpt>
      <trkpt lat="49.85263" lon="4.78869">
        <ele>309</ele>
        <time>2022-09-28T08:01:32.000Z</time>
      </trkpt>
      <trkpt lat="49.85264" lon="4.78866">
        <ele>309</ele>
        <time>2022-09-28T08:01:33.000Z</time>
      </trkpt>
      <trkpt lat="49.85265" lon="4.78863">
        <ele>309</ele>
        <time>2022-09-28T08:01:34.000Z</time>
      </trkpt>
      <trkpt lat="49.85266" lon="4.7886">
        <ele>309</ele>
        <time>2022-09-28T08:01:35.000Z</time>
      </trkpt>
      <trkpt lat="49.85267" lon="4.78857">
        <ele>310</ele>
        <time>2022-09-28T08:01:36.000Z</time>
      </trkpt>
      <trkpt lat="49.85268" lon="4.78853">
        <ele>310</ele>
        <time>2022-09-28T08:01:37.000Z</time>
      </trkpt>
      <trkpt lat="49.85269" lon="4.7885">
        <ele>310</ele>
        <time>2022-09-28T08:01:38.000Z</time>
      </trkpt>
      <trkpt lat="49.8527" lon="4.78846">
        <ele>310</ele>
        <time>2022-09-28T08:01:39.000Z</time>
      </trkpt>
      <trkpt lat="49.85272" lon="4.78844">
        <ele>311</ele>
        <time>2022-09-28T08:01:40.000Z</time>
      </trkpt>
      <trkpt lat="49.85273" lon="4.78841">
        <ele>311</ele>
        <time>2022-09-28T08:01:41.000Z</time>
      </trkpt>
      <trkpt lat="49.85275" lon="4.78838">
        <ele>311</ele>
        <time>2022-09-28T08:01:42.000Z</time>
      </trkpt>
      <trkpt lat="49.85276" lon="4.78835">
        <ele>311</ele>
        <time>2022-09-28T08:01:43.000Z</time>
      </trkpt>
      <trkpt lat="49.85277" lon="4.78833">
        <ele>312</ele>
        <time>2022-09-28T08:01:44.000Z</time>
      </trkpt>
      <trkpt lat="49.85278" lon="4.78829">
        <ele>312</ele>
        <time>2022-09-28T08:01:45.000Z</time>
      </trkpt>
      <trkpt lat="49.85279" lon="4.78826">
        <ele>312</ele>
        <time>2022-09-28T08:01:46.000Z</time>
      </trkpt>
      <trkpt lat="49.85279" lon="4.78822">
        <ele>312</ele>
        <time>2022-09-28T08:01:47.000Z</time>
      </trkpt>
      <trkpt lat="49.85281" lon="4.78819">
        <ele>313</ele>
        <time>2022-09-28T08:01:48.000Z</time>
      </trkpt>
      <trkpt lat="49.85282" lon="4.78816">
        <ele>313</ele>
        <time>2022-09-28T08:01:49.000Z</time>
      </trkpt>
      <trkpt lat="49.85284" lon="4.78812">
        <ele>313</ele>
        <time>2022-09-28T08:01:50.000Z</time>
      </trkpt>
      <trkpt lat="49.85285" lon="4.78809">
        <ele>314</ele>
        <time>2022-09-28T08:01:51.000Z</time>
      </trkpt>
      <trkpt lat="49.85286" lon="4.78805">
        <ele>314</ele>
        <time>2022-09-28T08:01:52.000Z</time>
      </trkpt>
      <trkpt lat="49.85287" lon="4.78802">
        <ele>315</ele>
        <time>2022-09-28T08:01:53.000Z</time>
      </trkpt>
      <trkpt lat="49.85288" lon="4.78798">
        <ele>315</ele>
        <time>2022-09-28T08:01:54.000Z</time>
      </trkpt>
      <trkpt lat="49.85289" lon="4.78794">
        <ele>315</ele>
        <time>2022-09-28T08:01:55.000Z</time>
      </trkpt>
      <trkpt lat="49.8529" lon="4.78791">
        <ele>316</ele>
        <time>2022-09-28T08:01:56.000Z</time>
      </trkpt>
      <trkpt lat="49.85291" lon="4.78788">
        <ele>316</ele>
        <time>2022-09-28T08:01:57.000Z</time>
      </trkpt>
      <trkpt lat="49.85292" lon="4.78785">
        <ele>316</ele>
        <time>2022-09-28T08:01:58.000Z</time>
      </trkpt>
      <trkpt lat="49.85293" lon="4.78783">
        <ele>317</ele>
        <time>2022-09-28T08:01:59.000Z</time>
      </trkpt>
      <trkpt lat="49.85294" lon="4.7878">
        <ele>317</ele>
        <time>2022-09-28T08:02:00.000Z</time>
      </trkpt>
      <trkpt lat="49.85296" lon="4.78777">
        <ele>317</ele>
        <time>2022-09-28T08:02:01.000Z</time>
      </trkpt>
      <trkpt lat="49.85297" lon="4.78774">
        <ele>318</ele>
        <time>2022-09-28T08:02:02.000Z</time>
      </trkpt>
      <trkpt lat="49.85298" lon="4.78771">
        <ele>318</ele>
        <time>2022-09-28T08:02:03.000Z</time>
      </trkpt>
      <trkpt lat="49.85299" lon="4.78768">
        <ele>318</ele>
        <time>2022-09-28T08:02:04.000Z</time>
      </trkpt>
      <trkpt lat="49.85299" lon="4.78765">
        <ele>318</ele>
        <time>2022-09-28T08:02:05.000Z</time>
      </trkpt>
      <trkpt lat="49.853" lon="4.78762">
        <ele>319</ele>
        <time>2022-09-28T08:02:06.000Z</time>
      </trkpt>
      <trkpt lat="49.85301" lon="4.78761">
        <ele>319</ele>
        <time>2022-09-28T08:02:07.000Z</time>
      </trkpt>
      <trkpt lat="49.85301" lon="4.78759">
        <ele>319</ele>
        <time>2022-09-28T08:02:08.000Z</time>
      </trkpt>
      <trkpt lat="49.85301" lon="4.78759">
        <ele>319</ele>
        <time>2022-09-28T08:02:09.000Z</time>
      </trkpt>
      <trkpt lat="49.85301" lon="4.78758">
        <ele>319</ele>
        <time>2022-09-28T08:02:10.000Z</time>
      </trkpt>
      <trkpt lat="49.853" lon="4.78758">
        <ele>319</ele>
        <time>2022-09-28T08:02:11.000Z</time>
      </trkpt>
      <trkpt lat="49.853" lon="4.78758">
        <ele>319</ele>
        <time>2022-09-28T08:02:12.000Z</time>
      </trkpt>
      <trkpt lat="49.853" lon="4.78758">
        <ele>319</ele>
        <time>2022-09-28T08:02:13.000Z</time>
      </trkpt>
      <trkpt lat="49.85301" lon="4.78757">
        <ele>320</ele>
        <time>2022-09-28T08:02:14.000Z</time>
      </trkpt>
      <trkpt lat="49.85301" lon="4.78756">
        <ele>320</ele>
        <time>2022-09-28T08:02:15.000Z</time>
      </trkpt>
      <trkpt lat="49.85301" lon="4.78755">
        <ele>320</ele>
        <time>2022-09-28T08:02:16.000Z</time>
      </trkpt>
      <trkpt lat="49.85301" lon="4.78755">
        <ele>320</ele>
        <time>2022-09-28T08:02:17.000Z</time>
      </trkpt>
      <trkpt lat="49.85301" lon="4.78754">
        <ele>320</ele>
        <time>2022-09-28T08:02:18.000Z</time>
      </trkpt>
      <trkpt lat="49.85301" lon="4.78755">
        <ele>320</ele>
        <time>2022-09-28T08:02:19.000Z</time>
      </trkpt>
      <trkpt lat="49.85301" lon="4.78756">
        <ele>320</ele>
        <time>2022-09-28T08:02:20.000Z</time>
      </trkpt>
      <trkpt lat="49.85301" lon="4.78756">
        <ele>320</ele>
        <time>2022-09-28T08:02:21.000Z</time>
      </trkpt>
      <trkpt lat="49.85301" lon="4.78755">
        <ele>320</ele>
        <time>2022-09-28T08:02:22.000Z</time>
      </trkpt>
      <trkpt lat="49.85302" lon="4.78755">
        <ele>320</ele>
        <time>2022-09-28T08:02:23.000Z</time>
      </trkpt>
      <trkpt lat="49.85302" lon="4.78756">
        <ele>320</ele>
        <time>2022-09-28T08:02:24.000Z</time>
      </trkpt>
      <trkpt lat="49.85302" lon="4.78756">
        <ele>320</ele>
        <time>2022-09-28T08:02:25.000Z</time>
      </trkpt>
      <trkpt lat="49.85301" lon="4.78758">
        <ele>320</ele>
        <time>2022-09-28T08:02:26.000Z</time>
      </trkpt>
      <trkpt lat="49.85301" lon="4.78758">
        <ele>320</ele>
        <time>2022-09-28T08:02:27.000Z</time>
      </trkpt>
      <trkpt lat="49.85301" lon="4.7876">
        <ele>320</ele>
        <time>2022-09-28T08:02:28.000Z</time>
      </trkpt>
      <trkpt lat="49.853" lon="4.7876">
        <ele>320</ele>
        <time>2022-09-28T08:02:29.000Z</time>
      </trkpt>
      <trkpt lat="49.85299" lon="4.78761">
        <ele>320</ele>
        <time>2022-09-28T08:02:30.000Z</time>
      </trkpt>
      <trkpt lat="49.85299" lon="4.7876">
        <ele>320</ele>
        <time>2022-09-28T08:02:31.000Z</time>
      </trkpt>
      <trkpt lat="49.85299" lon="4.7876">
        <ele>320</ele>
        <time>2022-09-28T08:02:32.000Z</time>
      </trkpt>
      <trkpt lat="49.853" lon="4.78759">
        <ele>320</ele>
        <time>2022-09-28T08:02:33.000Z</time>
      </trkpt>
      <trkpt lat="49.85301" lon="4.78759">
        <ele>320</ele>
        <time>2022-09-28T08:02:34.000Z</time>
      </trkpt>
      <trkpt lat="49.85301" lon="4.78758">
        <ele>320</ele>
        <time>2022-09-28T08:02:35.000Z</time>
      </trkpt>
      <trkpt lat="49.85302" lon="4.78757">
        <ele>320</ele>
        <time>2022-09-28T08:02:36.000Z</time>
      </trkpt>
      <trkpt lat="49.85301" lon="4.78757">
        <ele>319</ele>
        <time>2022-09-28T08:02:37.000Z</time>
      </trkpt>
      <trkpt lat="49.85301" lon="4.78756">
        <ele>319</ele>
        <time>2022-09-28T08:02:38.000Z</time>
      </trkpt>
      <trkpt lat="49.85301" lon="4.78756">
        <ele>319</ele>
        <time>2022-09-28T08:02:39.000Z</time>
      </trkpt>
      <trkpt lat="49.85301" lon="4.78756">
        <ele>319</ele>
        <time>2022-09-28T08:02:40.000Z</time>
      </trkpt>
      <trkpt lat="49.85301" lon="4.78756">
        <ele>319</ele>
        <time>2022-09-28T08:02:41.000Z</time>
      </trkpt>
      <trkpt lat="49.85301" lon="4.78756">
        <ele>319</ele>
        <time>2022-09-28T08:02:42.000Z</time>
      </trkpt>
      <trkpt lat="49.85301" lon="4.78756">
        <ele>319</ele>
        <time>2022-09-28T08:02:43.000Z</time>
      </trkpt>
      <trkpt lat="49.85301" lon="4.78756">
        <ele>319</ele>
        <time>2022-09-28T08:02:44.000Z</time>
      </trkpt>
      <trkpt lat="49.85301" lon="4.78756">
        <ele>319</ele>
        <time>2022-09-28T08:02:45.000Z</time>
      </trkpt>
      <trkpt lat="49.85301" lon="4.78755">
        <ele>319</ele>
        <time>2022-09-28T08:02:46.000Z</time>
      </trkpt>
      <trkpt lat="49.85301" lon="4.78755">
        <ele>319</ele>
        <time>2022-09-28T08:02:47.000Z</time>
      </trkpt>
      <trkpt lat="49.85301" lon="4.78755">
        <ele>319</ele>
        <time>2022-09-28T08:02:48.000Z</time>
      </trkpt>
      <trkpt lat="49.85301" lon="4.78755">
        <ele>319</ele>
        <time>2022-09-28T08:02:49.000Z</time>
      </trkpt>
      <trkpt lat="49.85301" lon="4.78755">
        <ele>319</ele>
        <time>2022-09-28T08:02:50.000Z</time>
      </trkpt>
      <trkpt lat="49.85302" lon="4.78754">
        <ele>319</ele>
        <time>2022-09-28T08:02:51.000Z</time>
      </trkpt>
      <trkpt lat="49.85302" lon="4.78754">
        <ele>319</ele>
        <time>2022-09-28T08:02:52.000Z</time>
      </trkpt>
      <trkpt lat="49.85302" lon="4.78754">
        <ele>319</ele>
        <time>2022-09-28T08:02:53.000Z</time>
      </trkpt>
      <trkpt lat="49.85302" lon="4.78754">
        <ele>319</ele>
        <time>2022-09-28T08:02:54.000Z</time>
      </trkpt>
      <trkpt lat="49.85302" lon="4.78754">
        <ele>319</ele>
        <time>2022-09-28T08:02:55.000Z</time>
      </trkpt>
      <trkpt lat="49.85302" lon="4.78754">
        <ele>319</ele>
        <time>2022-09-28T08:02:56.000Z</time>
      </trkpt>
      <trkpt lat="49.85302" lon="4.78753">
        <ele>319</ele>
        <time>2022-09-28T08:02:57.000Z</time>
      </trkpt>
      <trkpt lat="49.85302" lon="4.78753">
        <ele>319</ele>
        <time>2022-09-28T08:02:58.000Z</time>
      </trkpt>
      <trkpt lat="49.85302" lon="4.78753">
        <ele>319</ele>
        <time>2022-09-28T08:02:59.000Z</time>
      </trkpt>
      <trkpt lat="49.85302" lon="4.78753">
        <ele>319</ele>
        <time>2022-09-28T08:03:00.000Z</time>
      </trkpt>
      <trkpt lat="49.85302" lon="4.78753">
        <ele>319</ele>
        <time>2022-09-28T08:03:01.000Z</time>
      </trkpt>
      <trkpt lat="49.85302" lon="4.78753">
        <ele>319</ele>
        <time>2022-09-28T08:03:02.000Z</time>
      </trkpt>
      <trkpt lat="49.85302" lon="4.78753">
        <ele>319</ele>
        <time>2022-09-28T08:03:03.000Z</time>
      </trkpt>
      <trkpt lat="49.85302" lon="4.78753">
        <ele>319</ele>
        <time>2022-09-28T08:03:04.000Z</time>
      </trkpt>
      <trkpt lat="49.85302" lon="4.78753">
        <ele>319</ele>
        <time>2022-09-28T08:03:05.000Z</time>
      </trkpt>
      <trkpt lat="49.85302" lon="4.78753">
        <ele>319</ele>
        <time>2022-09-28T08:03:06.000Z</time>
      </trkpt>
      <trkpt lat="49.85302" lon="4.78753">
        <ele>319</ele>
        <time>2022-09-28T08:03:07.000Z</time>
      </trkpt>
      <trkpt lat="49.85302" lon="4.78753">
        <ele>319</ele>
        <time>2022-09-28T08:03:08.000Z</time>
      </trkpt>
      <trkpt lat="49.85302" lon="4.78753">
        <ele>319</ele>
        <time>2022-09-28T08:03:09.000Z</time>
      </trkpt>
      <trkpt lat="49.85301" lon="4.78753">
        <ele>319</ele>
        <time>2022-09-28T08:03:10.000Z</time>
      </trkpt>
      <trkpt lat="49.85301" lon="4.78753">
        <ele>319</ele>
        <time>2022-09-28T08:03:11.000Z</time>
      </trkpt>
      <trkpt lat="49.85301" lon="4.78753">
        <ele>319</ele>
        <time>2022-09-28T08:03:12.000Z</time>
      </trkpt>
      <trkpt lat="49.85301" lon="4.78753">
        <ele>319</ele>
        <time>2022-09-28T08:03:13.000Z</time>
      </trkpt>
      <trkpt lat="49.85301" lon="4.78753">
        <ele>319</ele>
        <time>2022-09-28T08:03:14.000Z</time>
      </trkpt>
      <trkpt lat="49.85301" lon="4.78753">
        <ele>319</ele>
        <time>2022-09-28T08:03:15.000Z</time>
      </trkpt>
      <trkpt lat="49.85301" lon="4.78753">
        <ele>319</ele>
        <time>2022-09-28T08:03:16.000Z</time>
      </trkpt>
      <trkpt lat="49.85301" lon="4.78753">
        <ele>319</ele>
        <time>2022-09-28T08:03:17.000Z</time>
      </trkpt>
      <trkpt lat="49.85301" lon="4.78753">
        <ele>319</ele>
        <time>2022-09-28T08:03:18.000Z</time>
      </trkpt>
      <trkpt lat="49.85301" lon="4.78752">
        <ele>319</ele>
        <time>2022-09-28T08:03:19.000Z</time>
      </trkpt>
      <trkpt lat="49.85301" lon="4.78752">
        <ele>319</ele>
        <time>2022-09-28T08:03:20.000Z</time>
      </trkpt>
      <trkpt lat="49.85301" lon="4.78752">
        <ele>319</ele>
        <time>2022-09-28T08:03:21.000Z</time>
      </trkpt>
      <trkpt lat="49.85301" lon="4.78752">
        <ele>319</ele>
        <time>2022-09-28T08:03:22.000Z</time>
      </trkpt>
      <trkpt lat="49.85301" lon="4.78752">
        <ele>319</ele>
        <time>2022-09-28T08:03:23.000Z</time>
      </trkpt>
      <trkpt lat="49.85301" lon="4.78752">
        <ele>319</ele>
        <time>2022-09-28T08:03:24.000Z</time>
      </trkpt>
      <trkpt lat="49.85301" lon="4.78752">
        <ele>319</ele>
        <time>2022-09-28T08:03:25.000Z</time>
      </trkpt>
      <trkpt lat="49.85301" lon="4.78752">
        <ele>319</ele>
        <time>2022-09-28T08:03:26.000Z</time>
      </trkpt>
      <trkpt lat="49.85301" lon="4.78752">
        <ele>319</ele>
        <time>2022-09-28T08:03:27.000Z</time>
      </trkpt>
      <trkpt lat="49.85301" lon="4.78752">
        <ele>319</ele>
        <time>2022-09-28T08:03:28.000Z</time>
      </trkpt>
      <trkpt lat="49.85301" lon="4.78752">
        <ele>319</ele>
        <time>2022-09-28T08:03:29.000Z</time>
      </trkpt>
      <trkpt lat="49.85301" lon="4.78752">
        <ele>319</ele>
        <time>2022-09-28T08:03:30.000Z</time>
      </trkpt>
      <trkpt lat="49.85301" lon="4.78751">
        <ele>319</ele>
        <time>2022-09-28T08:03:31.000Z</time>
      </trkpt>
      <trkpt lat="49.85301" lon="4.78751">
        <ele>319</ele>
        <time>2022-09-28T08:03:32.000Z</time>
      </trkpt>
      <trkpt lat="49.85301" lon="4.78751">
        <ele>319</ele>
        <time>2022-09-28T08:03:33.000Z</time>
      </trkpt>
      <trkpt lat="49.85301" lon="4.78751">
        <ele>319</ele>
        <time>2022-09-28T08:03:34.000Z</time>
      </trkpt>
      <trkpt lat="49.85301" lon="4.7875">
        <ele>319</ele>
        <time>2022-09-28T08:03:35.000Z</time>
      </trkpt>
      <trkpt lat="49.85301" lon="4.7875">
        <ele>320</ele>
        <time>2022-09-28T08:03:36.000Z</time>
      </trkpt>
      <trkpt lat="49.85301" lon="4.7875">
        <ele>320</ele>
        <time>2022-09-28T08:03:37.000Z</time>
      </trkpt>
      <trkpt lat="49.85301" lon="4.78749">
        <ele>320</ele>
        <time>2022-09-28T08:03:38.000Z</time>
      </trkpt>
      <trkpt lat="49.85301" lon="4.78749">
        <ele>320</ele>
        <time>2022-09-28T08:03:39.000Z</time>
      </trkpt>
      <trkpt lat="49.85301" lon="4.78749">
        <ele>320</ele>
        <time>2022-09-28T08:03:40.000Z</time>
      </trkpt>
      <trkpt lat="49.85301" lon="4.78749">
        <ele>320</ele>
        <time>2022-09-28T08:03:41.000Z</time>
      </trkpt>
      <trkpt lat="49.85301" lon="4.78749">
        <ele>320</ele>
        <time>2022-09-28T08:03:42.000Z</time>
      </trkpt>
      <trkpt lat="49.85301" lon="4.78749">
        <ele>320</ele>
        <time>2022-09-28T08:03:43.000Z</time>
      </trkpt>
      <trkpt lat="49.85301" lon="4.78749">
        <ele>320</ele>
        <time>2022-09-28T08:03:44.000Z</time>
      </trkpt>
      <trkpt lat="49.85301" lon="4.78749">
        <ele>320</ele>
        <time>2022-09-28T08:03:45.000Z</time>
      </trkpt>
      <trkpt lat="49.85301" lon="4.78749">
        <ele>320</ele>
        <time>2022-09-28T08:03:46.000Z</time>
      </trkpt>
      <trkpt lat="49.85301" lon="4.78749">
        <ele>320</ele>
        <time>2022-09-28T08:03:47.000Z</time>
      </trkpt>
      <trkpt lat="49.85301" lon="4.78749">
        <ele>320</ele>
        <time>2022-09-28T08:03:48.000Z</time>
      </trkpt>
      <trkpt lat="49.85301" lon="4.78749">
        <ele>320</ele>
        <time>2022-09-28T08:03:49.000Z</time>
      </trkpt>
      <trkpt lat="49.85302" lon="4.78749">
        <ele>320</ele>
        <time>2022-09-28T08:03:50.000Z</time>
      </trkpt>
      <trkpt lat="49.85301" lon="4.78749">
        <ele>320</ele>
        <time>2022-09-28T08:03:51.000Z</time>
      </trkpt>
      <trkpt lat="49.85301" lon="4.78749">
        <ele>320</ele>
        <time>2022-09-28T08:03:52.000Z</time>
      </trkpt>
      <trkpt lat="49.85301" lon="4.78749">
        <ele>320</ele>
        <time>2022-09-28T08:03:53.000Z</time>
      </trkpt>
      <trkpt lat="49.85301" lon="4.78749">
        <ele>319</ele>
        <time>2022-09-28T08:03:54.000Z</time>
      </trkpt>
      <trkpt lat="49.85301" lon="4.78749">
        <ele>319</ele>
        <time>2022-09-28T08:03:55.000Z</time>
      </trkpt>
      <trkpt lat="49.85301" lon="4.78749">
        <ele>319</ele>
        <time>2022-09-28T08:03:56.000Z</time>
      </trkpt>
      <trkpt lat="49.85301" lon="4.78749">
        <ele>319</ele>
        <time>2022-09-28T08:03:57.000Z</time>
      </trkpt>
      <trkpt lat="49.85301" lon="4.78749">
        <ele>319</ele>
        <time>2022-09-28T08:03:58.000Z</time>
      </trkpt>
      <trkpt lat="49.85301" lon="4.78749">
        <ele>319</ele>
        <time>2022-09-28T08:03:59.000Z</time>
      </trkpt>
      <trkpt lat="49.85301" lon="4.78749">
        <ele>319</ele>
        <time>2022-09-28T08:04:00.000Z</time>
      </trkpt>
      <trkpt lat="49.85301" lon="4.78749">
        <ele>319</ele>
        <time>2022-09-28T08:04:01.000Z</time>
      </trkpt>
      <trkpt lat="49.85301" lon="4.78749">
        <ele>319</ele>
        <time>2022-09-28T08:04:02.000Z</time>
      </trkpt>
      <trkpt lat="49.85301" lon="4.7875">
        <ele>319</ele>
        <time>2022-09-28T08:04:03.000Z</time>
      </trkpt>
      <trkpt lat="49.85301" lon="4.7875">
        <ele>319</ele>
        <time>2022-09-28T08:04:04.000Z</time>
      </trkpt>
      <trkpt lat="49.85301" lon="4.7875">
        <ele>319</ele>
        <time>2022-09-28T08:04:05.000Z</time>
      </trkpt>
      <trkpt lat="49.85301" lon="4.7875">
        <ele>319</ele>
        <time>2022-09-28T08:04:06.000Z</time>
      </trkpt>
      <trkpt lat="49.85301" lon="4.7875">
        <ele>319</ele>
        <time>2022-09-28T08:04:07.000Z</time>
      </trkpt>
      <trkpt lat="49.85301" lon="4.7875">
        <ele>319</ele>
        <time>2022-09-28T08:04:08.000Z</time>
      </trkpt>
      <trkpt lat="49.85301" lon="4.7875">
        <ele>319</ele>
        <time>2022-09-28T08:04:09.000Z</time>
      </trkpt>
      <trkpt lat="49.85301" lon="4.7875">
        <ele>319</ele>
        <time>2022-09-28T08:04:10.000Z</time>
      </trkpt>
      <trkpt lat="49.85301" lon="4.7875">
        <ele>319</ele>
        <time>2022-09-28T08:04:11.000Z</time>
      </trkpt>
      <trkpt lat="49.85302" lon="4.78751">
        <ele>319</ele>
        <time>2022-09-28T08:04:12.000Z</time>
      </trkpt>
      <trkpt lat="49.85303" lon="4.78751">
        <ele>319</ele>
        <time>2022-09-28T08:04:13.000Z</time>
      </trkpt>
      <trkpt lat="49.85303" lon="4.7875">
        <ele>319</ele>
        <time>2022-09-28T08:04:14.000Z</time>
      </trkpt>
      <trkpt lat="49.85304" lon="4.7875">
        <ele>319</ele>
        <time>2022-09-28T08:04:15.000Z</time>
      </trkpt>
      <trkpt lat="49.85305" lon="4.78749">
        <ele>319</ele>
        <time>2022-09-28T08:04:16.000Z</time>
      </trkpt>
      <trkpt lat="49.85305" lon="4.78747">
        <ele>319</ele>
        <time>2022-09-28T08:04:17.000Z</time>
      </trkpt>
      <trkpt lat="49.85306" lon="4.78745">
        <ele>319</ele>
        <time>2022-09-28T08:04:18.000Z</time>
      </trkpt>
      <trkpt lat="49.85307" lon="4.78742">
        <ele>319</ele>
        <time>2022-09-28T08:04:19.000Z</time>
      </trkpt>
      <trkpt lat="49.85307" lon="4.78741">
        <ele>319</ele>
        <time>2022-09-28T08:04:20.000Z</time>
      </trkpt>
      <trkpt lat="49.85307" lon="4.78741">
        <ele>319</ele>
        <time>2022-09-28T08:04:21.000Z</time>
      </trkpt>
      <trkpt lat="49.85307" lon="4.78741">
        <ele>319</ele>
        <time>2022-09-28T08:04:22.000Z</time>
      </trkpt>
      <trkpt lat="49.85306" lon="4.78741">
        <ele>319</ele>
        <time>2022-09-28T08:04:23.000Z</time>
      </trkpt>
      <trkpt lat="49.85306" lon="4.78741">
        <ele>319</ele>
        <time>2022-09-28T08:04:24.000Z</time>
      </trkpt>
      <trkpt lat="49.85306" lon="4.78741">
        <ele>319</ele>
        <time>2022-09-28T08:04:25.000Z</time>
      </trkpt>
      <trkpt lat="49.85307" lon="4.78741">
        <ele>319</ele>
        <time>2022-09-28T08:04:26.000Z</time>
      </trkpt>
      <trkpt lat="49.85307" lon="4.78741">
        <ele>319</ele>
        <time>2022-09-28T08:04:27.000Z</time>
      </trkpt>
      <trkpt lat="49.85307" lon="4.7874">
        <ele>319</ele>
        <time>2022-09-28T08:04:28.000Z</time>
      </trkpt>
      <trkpt lat="49.85307" lon="4.78739">
        <ele>319</ele>
        <time>2022-09-28T08:04:29.000Z</time>
      </trkpt>
      <trkpt lat="49.85308" lon="4.78737">
        <ele>319</ele>
        <time>2022-09-28T08:04:30.000Z</time>
      </trkpt>
      <trkpt lat="49.85309" lon="4.78736">
        <ele>319</ele>
        <time>2022-09-28T08:04:31.000Z</time>
      </trkpt>
      <trkpt lat="49.8531" lon="4.78733">
        <ele>319</ele>
        <time>2022-09-28T08:04:32.000Z</time>
      </trkpt>
      <trkpt lat="49.85312" lon="4.78731">
        <ele>319</ele>
        <time>2022-09-28T08:04:33.000Z</time>
      </trkpt>
      <trkpt lat="49.85313" lon="4.78728">
        <ele>319</ele>
        <time>2022-09-28T08:04:34.000Z</time>
      </trkpt>
      <trkpt lat="49.85314" lon="4.78725">
        <ele>319</ele>
        <time>2022-09-28T08:04:35.000Z</time>
      </trkpt>
      <trkpt lat="49.85316" lon="4.78723">
        <ele>319</ele>
        <time>2022-09-28T08:04:36.000Z</time>
      </trkpt>
      <trkpt lat="49.85317" lon="4.7872">
        <ele>319</ele>
        <time>2022-09-28T08:04:37.000Z</time>
      </trkpt>
      <trkpt lat="49.85318" lon="4.78719">
        <ele>319</ele>
        <time>2022-09-28T08:04:38.000Z</time>
      </trkpt>
      <trkpt lat="49.85319" lon="4.78717">
        <ele>319</ele>
        <time>2022-09-28T08:04:39.000Z</time>
      </trkpt>
      <trkpt lat="49.8532" lon="4.78715">
        <ele>319</ele>
        <time>2022-09-28T08:04:40.000Z</time>
      </trkpt>
      <trkpt lat="49.85321" lon="4.78713">
        <ele>319</ele>
        <time>2022-09-28T08:04:41.000Z</time>
      </trkpt>
      <trkpt lat="49.85322" lon="4.7871">
        <ele>319</ele>
        <time>2022-09-28T08:04:42.000Z</time>
      </trkpt>
      <trkpt lat="49.85323" lon="4.78708">
        <ele>320</ele>
        <time>2022-09-28T08:04:43.000Z</time>
      </trkpt>
      <trkpt lat="49.85324" lon="4.78705">
        <ele>320</ele>
        <time>2022-09-28T08:04:44.000Z</time>
      </trkpt>
      <trkpt lat="49.85326" lon="4.78702">
        <ele>320</ele>
        <time>2022-09-28T08:04:45.000Z</time>
      </trkpt>
      <trkpt lat="49.85328" lon="4.787">
        <ele>320</ele>
        <time>2022-09-28T08:04:46.000Z</time>
      </trkpt>
      <trkpt lat="49.8533" lon="4.78697">
        <ele>320</ele>
        <time>2022-09-28T08:04:47.000Z</time>
      </trkpt>
      <trkpt lat="49.85332" lon="4.78696">
        <ele>320</ele>
        <time>2022-09-28T08:04:48.000Z</time>
      </trkpt>
      <trkpt lat="49.85334" lon="4.78695">
        <ele>320</ele>
        <time>2022-09-28T08:04:49.000Z</time>
      </trkpt>
      <trkpt lat="49.85335" lon="4.78694">
        <ele>320</ele>
        <time>2022-09-28T08:04:50.000Z</time>
      </trkpt>
      <trkpt lat="49.85335" lon="4.78692">
        <ele>320</ele>
        <time>2022-09-28T08:04:51.000Z</time>
      </trkpt>
      <trkpt lat="49.85334" lon="4.78691">
        <ele>321</ele>
        <time>2022-09-28T08:04:52.000Z</time>
      </trkpt>
      <trkpt lat="49.85332" lon="4.78691">
        <ele>321</ele>
        <time>2022-09-28T08:04:53.000Z</time>
      </trkpt>
      <trkpt lat="49.8533" lon="4.78691">
        <ele>321</ele>
        <time>2022-09-28T08:04:54.000Z</time>
      </trkpt>
      <trkpt lat="49.85327" lon="4.78692">
        <ele>321</ele>
        <time>2022-09-28T08:04:55.000Z</time>
      </trkpt>
      <trkpt lat="49.85324" lon="4.78693">
        <ele>321</ele>
        <time>2022-09-28T08:04:56.000Z</time>
      </trkpt>
      <trkpt lat="49.85321" lon="4.78693">
        <ele>321</ele>
        <time>2022-09-28T08:04:57.000Z</time>
      </trkpt>
      <trkpt lat="49.85318" lon="4.78693">
        <ele>321</ele>
        <time>2022-09-28T08:04:58.000Z</time>
      </trkpt>
      <trkpt lat="49.85315" lon="4.78693">
        <ele>322</ele>
        <time>2022-09-28T08:04:59.000Z</time>
      </trkpt>
      <trkpt lat="49.85312" lon="4.78694">
        <ele>322</ele>
        <time>2022-09-28T08:05:00.000Z</time>
      </trkpt>
      <trkpt lat="49.85309" lon="4.78695">
        <ele>322</ele>
        <time>2022-09-28T08:05:01.000Z</time>
      </trkpt>
      <trkpt lat="49.85306" lon="4.78697">
        <ele>322</ele>
        <time>2022-09-28T08:05:02.000Z</time>
      </trkpt>
      <trkpt lat="49.85303" lon="4.78699">
        <ele>322</ele>
        <time>2022-09-28T08:05:03.000Z</time>
      </trkpt>
      <trkpt lat="49.85299" lon="4.787">
        <ele>322</ele>
        <time>2022-09-28T08:05:04.000Z</time>
      </trkpt>
      <trkpt lat="49.85296" lon="4.78701">
        <ele>322</ele>
        <time>2022-09-28T08:05:05.000Z</time>
      </trkpt>
      <trkpt lat="49.85293" lon="4.78703">
        <ele>322</ele>
        <time>2022-09-28T08:05:06.000Z</time>
      </trkpt>
      <trkpt lat="49.85289" lon="4.78705">
        <ele>323</ele>
        <time>2022-09-28T08:05:07.000Z</time>
      </trkpt>
      <trkpt lat="49.85286" lon="4.78708">
        <ele>323</ele>
        <time>2022-09-28T08:05:08.000Z</time>
      </trkpt>
      <trkpt lat="49.85282" lon="4.7871">
        <ele>323</ele>
        <time>2022-09-28T08:05:09.000Z</time>
      </trkpt>
      <trkpt lat="49.85279" lon="4.78713">
        <ele>323</ele>
        <time>2022-09-28T08:05:10.000Z</time>
      </trkpt>
      <trkpt lat="49.85276" lon="4.78716">
        <ele>324</ele>
        <time>2022-09-28T08:05:11.000Z</time>
      </trkpt>
      <trkpt lat="49.85274" lon="4.78719">
        <ele>324</ele>
        <time>2022-09-28T08:05:12.000Z</time>
      </trkpt>
      <trkpt lat="49.85271" lon="4.78723">
        <ele>324</ele>
        <time>2022-09-28T08:05:13.000Z</time>
      </trkpt>
      <trkpt lat="49.85267" lon="4.78726">
        <ele>324</ele>
        <time>2022-09-28T08:05:14.000Z</time>
      </trkpt>
      <trkpt lat="49.85264" lon="4.78729">
        <ele>325</ele>
        <time>2022-09-28T08:05:15.000Z</time>
      </trkpt>
      <trkpt lat="49.85261" lon="4.78732">
        <ele>325</ele>
        <time>2022-09-28T08:05:16.000Z</time>
      </trkpt>
      <trkpt lat="49.85258" lon="4.78736">
        <ele>325</ele>
        <time>2022-09-28T08:05:17.000Z</time>
      </trkpt>
      <trkpt lat="49.85255" lon="4.78739">
        <ele>325</ele>
        <time>2022-09-28T08:05:18.000Z</time>
      </trkpt>
      <trkpt lat="49.85252" lon="4.78741">
        <ele>325</ele>
        <time>2022-09-28T08:05:19.000Z</time>
      </trkpt>
      <trkpt lat="49.85249" lon="4.78743">
        <ele>326</ele>
        <time>2022-09-28T08:05:20.000Z</time>
      </trkpt>
      <trkpt lat="49.85247" lon="4.78745">
        <ele>326</ele>
        <time>2022-09-28T08:05:21.000Z</time>
      </trkpt>
      <trkpt lat="49.85244" lon="4.78748">
        <ele>326</ele>
        <time>2022-09-28T08:05:22.000Z</time>
      </trkpt>
      <trkpt lat="49.85241" lon="4.7875">
        <ele>326</ele>
        <time>2022-09-28T08:05:23.000Z</time>
      </trkpt>
      <trkpt lat="49.85238" lon="4.78752">
        <ele>326</ele>
        <time>2022-09-28T08:05:24.000Z</time>
      </trkpt>
      <trkpt lat="49.85235" lon="4.78755">
        <ele>327</ele>
        <time>2022-09-28T08:05:25.000Z</time>
      </trkpt>
      <trkpt lat="49.85232" lon="4.78757">
        <ele>327</ele>
        <time>2022-09-28T08:05:26.000Z</time>
      </trkpt>
      <trkpt lat="49.85229" lon="4.7876">
        <ele>327</ele>
        <time>2022-09-28T08:05:27.000Z</time>
      </trkpt>
      <trkpt lat="49.85226" lon="4.78763">
        <ele>327</ele>
        <time>2022-09-28T08:05:28.000Z</time>
      </trkpt>
      <trkpt lat="49.85223" lon="4.78766">
        <ele>328</ele>
        <time>2022-09-28T08:05:29.000Z</time>
      </trkpt>
      <trkpt lat="49.85219" lon="4.78769">
        <ele>328</ele>
        <time>2022-09-28T08:05:30.000Z</time>
      </trkpt>
      <trkpt lat="49.85216" lon="4.78772">
        <ele>328</ele>
        <time>2022-09-28T08:05:31.000Z</time>
      </trkpt>
      <trkpt lat="49.85213" lon="4.78775">
        <ele>328</ele>
        <time>2022-09-28T08:05:32.000Z</time>
      </trkpt>
      <trkpt lat="49.8521" lon="4.78777">
        <ele>328</ele>
        <time>2022-09-28T08:05:33.000Z</time>
      </trkpt>
      <trkpt lat="49.85207" lon="4.7878">
        <ele>329</ele>
        <time>2022-09-28T08:05:34.000Z</time>
      </trkpt>
      <trkpt lat="49.85204" lon="4.78783">
        <ele>329</ele>
        <time>2022-09-28T08:05:35.000Z</time>
      </trkpt>
      <trkpt lat="49.85202" lon="4.78785">
        <ele>329</ele>
        <time>2022-09-28T08:05:36.000Z</time>
      </trkpt>
      <trkpt lat="49.852" lon="4.78788">
        <ele>329</ele>
        <time>2022-09-28T08:05:37.000Z</time>
      </trkpt>
      <trkpt lat="49.85197" lon="4.78791">
        <ele>329</ele>
        <time>2022-09-28T08:05:38.000Z</time>
      </trkpt>
      <trkpt lat="49.85194" lon="4.78793">
        <ele>329</ele>
        <time>2022-09-28T08:05:39.000Z</time>
      </trkpt>
      <trkpt lat="49.85191" lon="4.78796">
        <ele>329</ele>
        <time>2022-09-28T08:05:40.000Z</time>
      </trkpt>
      <trkpt lat="49.85188" lon="4.78798">
        <ele>329</ele>
        <time>2022-09-28T08:05:41.000Z</time>
      </trkpt>
      <trkpt lat="49.85185" lon="4.78801">
        <ele>329</ele>
        <time>2022-09-28T08:05:42.000Z</time>
      </trkpt>
      <trkpt lat="49.85182" lon="4.78804">
        <ele>329</ele>
        <time>2022-09-28T08:05:43.000Z</time>
      </trkpt>
      <trkpt lat="49.85179" lon="4.78806">
        <ele>329</ele>
        <time>2022-09-28T08:05:44.000Z</time>
      </trkpt>
      <trkpt lat="49.85176" lon="4.78807">
        <ele>330</ele>
        <time>2022-09-28T08:05:45.000Z</time>
      </trkpt>
      <trkpt lat="49.85174" lon="4.78805">
        <ele>330</ele>
        <time>2022-09-28T08:05:46.000Z</time>
      </trkpt>
      <trkpt lat="49.85172" lon="4.78803">
        <ele>330</ele>
        <time>2022-09-28T08:05:47.000Z</time>
      </trkpt>
      <trkpt lat="49.8517" lon="4.788">
        <ele>330</ele>
        <time>2022-09-28T08:05:48.000Z</time>
      </trkpt>
      <trkpt lat="49.85168" lon="4.78798">
        <ele>330</ele>
        <time>2022-09-28T08:05:49.000Z</time>
      </trkpt>
      <trkpt lat="49.85166" lon="4.78794">
        <ele>330</ele>
        <time>2022-09-28T08:05:50.000Z</time>
      </trkpt>
      <trkpt lat="49.85164" lon="4.78792">
        <ele>330</ele>
        <time>2022-09-28T08:05:51.000Z</time>
      </trkpt>
      <trkpt lat="49.85162" lon="4.78788">
        <ele>331</ele>
        <time>2022-09-28T08:05:52.000Z</time>
      </trkpt>
      <trkpt lat="49.8516" lon="4.78785">
        <ele>331</ele>
        <time>2022-09-28T08:05:53.000Z</time>
      </trkpt>
      <trkpt lat="49.85158" lon="4.78783">
        <ele>331</ele>
        <time>2022-09-28T08:05:54.000Z</time>
      </trkpt>
      <trkpt lat="49.85156" lon="4.78779">
        <ele>331</ele>
        <time>2022-09-28T08:05:55.000Z</time>
      </trkpt>
      <trkpt lat="49.85155" lon="4.78777">
        <ele>331</ele>
        <time>2022-09-28T08:05:56.000Z</time>
      </trkpt>
      <trkpt lat="49.85154" lon="4.78774">
        <ele>332</ele>
        <time>2022-09-28T08:05:57.000Z</time>
      </trkpt>
      <trkpt lat="49.85153" lon="4.78773">
        <ele>332</ele>
        <time>2022-09-28T08:05:58.000Z</time>
      </trkpt>
      <trkpt lat="49.85151" lon="4.78771">
        <ele>332</ele>
        <time>2022-09-28T08:05:59.000Z</time>
      </trkpt>
      <trkpt lat="49.8515" lon="4.78769">
        <ele>332</ele>
        <time>2022-09-28T08:06:00.000Z</time>
      </trkpt>
      <trkpt lat="49.85148" lon="4.78766">
        <ele>332</ele>
        <time>2022-09-28T08:06:01.000Z</time>
      </trkpt>
      <trkpt lat="49.85147" lon="4.78764">
        <ele>332</ele>
        <time>2022-09-28T08:06:02.000Z</time>
      </trkpt>
      <trkpt lat="49.85144" lon="4.78761">
        <ele>332</ele>
        <time>2022-09-28T08:06:03.000Z</time>
      </trkpt>
      <trkpt lat="49.85142" lon="4.78757">
        <ele>332</ele>
        <time>2022-09-28T08:06:04.000Z</time>
      </trkpt>
      <trkpt lat="49.8514" lon="4.78754">
        <ele>333</ele>
        <time>2022-09-28T08:06:05.000Z</time>
      </trkpt>
      <trkpt lat="49.85138" lon="4.78752">
        <ele>333</ele>
        <time>2022-09-28T08:06:06.000Z</time>
      </trkpt>
      <trkpt lat="49.85135" lon="4.78749">
        <ele>333</ele>
        <time>2022-09-28T08:06:07.000Z</time>
      </trkpt>
      <trkpt lat="49.85133" lon="4.78746">
        <ele>333</ele>
        <time>2022-09-28T08:06:08.000Z</time>
      </trkpt>
      <trkpt lat="49.85131" lon="4.78743">
        <ele>333</ele>
        <time>2022-09-28T08:06:09.000Z</time>
      </trkpt>
      <trkpt lat="49.85129" lon="4.78741">
        <ele>333</ele>
        <time>2022-09-28T08:06:10.000Z</time>
      </trkpt>
      <trkpt lat="49.85127" lon="4.78738">
        <ele>333</ele>
        <time>2022-09-28T08:06:11.000Z</time>
      </trkpt>
      <trkpt lat="49.85125" lon="4.78736">
        <ele>333</ele>
        <time>2022-09-28T08:06:12.000Z</time>
      </trkpt>
      <trkpt lat="49.85123" lon="4.78733">
        <ele>333</ele>
        <time>2022-09-28T08:06:13.000Z</time>
      </trkpt>
      <trkpt lat="49.8512" lon="4.7873">
        <ele>333</ele>
        <time>2022-09-28T08:06:14.000Z</time>
      </trkpt>
      <trkpt lat="49.85118" lon="4.78727">
        <ele>333</ele>
        <time>2022-09-28T08:06:15.000Z</time>
      </trkpt>
      <trkpt lat="49.85116" lon="4.78724">
        <ele>333</ele>
        <time>2022-09-28T08:06:16.000Z</time>
      </trkpt>
      <trkpt lat="49.85115" lon="4.7872">
        <ele>333</ele>
        <time>2022-09-28T08:06:17.000Z</time>
      </trkpt>
      <trkpt lat="49.85115" lon="4.78718">
        <ele>333</ele>
        <time>2022-09-28T08:06:18.000Z</time>
      </trkpt>
      <trkpt lat="49.85116" lon="4.78714">
        <ele>333</ele>
        <time>2022-09-28T08:06:19.000Z</time>
      </trkpt>
      <trkpt lat="49.85117" lon="4.7871">
        <ele>333</ele>
        <time>2022-09-28T08:06:20.000Z</time>
      </trkpt>
      <trkpt lat="49.85118" lon="4.78706">
        <ele>333</ele>
        <time>2022-09-28T08:06:21.000Z</time>
      </trkpt>
      <trkpt lat="49.8512" lon="4.78702">
        <ele>333</ele>
        <time>2022-09-28T08:06:22.000Z</time>
      </trkpt>
      <trkpt lat="49.85122" lon="4.78697">
        <ele>333</ele>
        <time>2022-09-28T08:06:23.000Z</time>
      </trkpt>
      <trkpt lat="49.85125" lon="4.78693">
        <ele>333</ele>
        <time>2022-09-28T08:06:24.000Z</time>
      </trkpt>
      <trkpt lat="49.85127" lon="4.78689">
        <ele>333</ele>
        <time>2022-09-28T08:06:25.000Z</time>
      </trkpt>
      <trkpt lat="49.8513" lon="4.78685">
        <ele>333</ele>
        <time>2022-09-28T08:06:26.000Z</time>
      </trkpt>
      <trkpt lat="49.85133" lon="4.78682">
        <ele>333</ele>
        <time>2022-09-28T08:06:27.000Z</time>
      </trkpt>
      <trkpt lat="49.85136" lon="4.78678">
        <ele>334</ele>
        <time>2022-09-28T08:06:28.000Z</time>
      </trkpt>
      <trkpt lat="49.85139" lon="4.78674">
        <ele>334</ele>
        <time>2022-09-28T08:06:29.000Z</time>
      </trkpt>
      <trkpt lat="49.85143" lon="4.7867">
        <ele>334</ele>
        <time>2022-09-28T08:06:30.000Z</time>
      </trkpt>
      <trkpt lat="49.85146" lon="4.78666">
        <ele>334</ele>
        <time>2022-09-28T08:06:31.000Z</time>
      </trkpt>
      <trkpt lat="49.85149" lon="4.78661">
        <ele>334</ele>
        <time>2022-09-28T08:06:32.000Z</time>
      </trkpt>
      <trkpt lat="49.85152" lon="4.78656">
        <ele>334</ele>
        <time>2022-09-28T08:06:33.000Z</time>
      </trkpt>
      <trkpt lat="49.85155" lon="4.78651">
        <ele>334</ele>
        <time>2022-09-28T08:06:34.000Z</time>
      </trkpt>
      <trkpt lat="49.85157" lon="4.78647">
        <ele>334</ele>
        <time>2022-09-28T08:06:35.000Z</time>
      </trkpt>
      <trkpt lat="49.8516" lon="4.78641">
        <ele>334</ele>
        <time>2022-09-28T08:06:36.000Z</time>
      </trkpt>
      <trkpt lat="49.85163" lon="4.78637">
        <ele>334</ele>
        <time>2022-09-28T08:06:37.000Z</time>
      </trkpt>
      <trkpt lat="49.85167" lon="4.78632">
        <ele>334</ele>
        <time>2022-09-28T08:06:38.000Z</time>
      </trkpt>
      <trkpt lat="49.8517" lon="4.78628">
        <ele>334</ele>
        <time>2022-09-28T08:06:39.000Z</time>
      </trkpt>
      <trkpt lat="49.85174" lon="4.78623">
        <ele>334</ele>
        <time>2022-09-28T08:06:40.000Z</time>
      </trkpt>
      <trkpt lat="49.85178" lon="4.78617">
        <ele>334</ele>
        <time>2022-09-28T08:06:41.000Z</time>
      </trkpt>
      <trkpt lat="49.85182" lon="4.78612">
        <ele>334</ele>
        <time>2022-09-28T08:06:42.000Z</time>
      </trkpt>
      <trkpt lat="49.85187" lon="4.78607">
        <ele>334</ele>
        <time>2022-09-28T08:06:43.000Z</time>
      </trkpt>
      <trkpt lat="49.8519" lon="4.78602">
        <ele>334</ele>
        <time>2022-09-28T08:06:44.000Z</time>
      </trkpt>
      <trkpt lat="49.85194" lon="4.78596">
        <ele>333</ele>
        <time>2022-09-28T08:06:45.000Z</time>
      </trkpt>
      <trkpt lat="49.85197" lon="4.7859">
        <ele>333</ele>
        <time>2022-09-28T08:06:46.000Z</time>
      </trkpt>
      <trkpt lat="49.85201" lon="4.78585">
        <ele>333</ele>
        <time>2022-09-28T08:06:47.000Z</time>
      </trkpt>
      <trkpt lat="49.85206" lon="4.7858">
        <ele>333</ele>
        <time>2022-09-28T08:06:48.000Z</time>
      </trkpt>
      <trkpt lat="49.8521" lon="4.78574">
        <ele>333</ele>
        <time>2022-09-28T08:06:49.000Z</time>
      </trkpt>
      <trkpt lat="49.85215" lon="4.78569">
        <ele>333</ele>
        <time>2022-09-28T08:06:50.000Z</time>
      </trkpt>
      <trkpt lat="49.85219" lon="4.78563">
        <ele>333</ele>
        <time>2022-09-28T08:06:51.000Z</time>
      </trkpt>
      <trkpt lat="49.85224" lon="4.78558">
        <ele>333</ele>
        <time>2022-09-28T08:06:52.000Z</time>
      </trkpt>
      <trkpt lat="49.85228" lon="4.78553">
        <ele>333</ele>
        <time>2022-09-28T08:06:53.000Z</time>
      </trkpt>
      <trkpt lat="49.85232" lon="4.78546">
        <ele>333</ele>
        <time>2022-09-28T08:06:54.000Z</time>
      </trkpt>
      <trkpt lat="49.85235" lon="4.78539">
        <ele>333</ele>
        <time>2022-09-28T08:06:55.000Z</time>
      </trkpt>
      <trkpt lat="49.85239" lon="4.78534">
        <ele>333</ele>
        <time>2022-09-28T08:06:56.000Z</time>
      </trkpt>
      <trkpt lat="49.85242" lon="4.7853">
        <ele>333</ele>
        <time>2022-09-28T08:06:57.000Z</time>
      </trkpt>
      <trkpt lat="49.85246" lon="4.78525">
        <ele>334</ele>
        <time>2022-09-28T08:06:58.000Z</time>
      </trkpt>
      <trkpt lat="49.8525" lon="4.78521">
        <ele>334</ele>
        <time>2022-09-28T08:06:59.000Z</time>
      </trkpt>
      <trkpt lat="49.85253" lon="4.78517">
        <ele>334</ele>
        <time>2022-09-28T08:07:00.000Z</time>
      </trkpt>
      <trkpt lat="49.85256" lon="4.78513">
        <ele>334</ele>
        <time>2022-09-28T08:07:01.000Z</time>
      </trkpt>
      <trkpt lat="49.85259" lon="4.78508">
        <ele>334</ele>
        <time>2022-09-28T08:07:02.000Z</time>
      </trkpt>
      <trkpt lat="49.85262" lon="4.78502">
        <ele>334</ele>
        <time>2022-09-28T08:07:03.000Z</time>
      </trkpt>
      <trkpt lat="49.85265" lon="4.78497">
        <ele>334</ele>
        <time>2022-09-28T08:07:04.000Z</time>
      </trkpt>
      <trkpt lat="49.85268" lon="4.78492">
        <ele>334</ele>
        <time>2022-09-28T08:07:05.000Z</time>
      </trkpt>
      <trkpt lat="49.85272" lon="4.78487">
        <ele>334</ele>
        <time>2022-09-28T08:07:06.000Z</time>
      </trkpt>
      <trkpt lat="49.85275" lon="4.78481">
        <ele>334</ele>
        <time>2022-09-28T08:07:07.000Z</time>
      </trkpt>
      <trkpt lat="49.85278" lon="4.78475">
        <ele>334</ele>
        <time>2022-09-28T08:07:08.000Z</time>
      </trkpt>
      <trkpt lat="49.85281" lon="4.78467">
        <ele>334</ele>
        <time>2022-09-28T08:07:09.000Z</time>
      </trkpt>
      <trkpt lat="49.85284" lon="4.7846">
        <ele>334</ele>
        <time>2022-09-28T08:07:10.000Z</time>
      </trkpt>
      <trkpt lat="49.85288" lon="4.78454">
        <ele>334</ele>
        <time>2022-09-28T08:07:11.000Z</time>
      </trkpt>
      <trkpt lat="49.85292" lon="4.78447">
        <ele>334</ele>
        <time>2022-09-28T08:07:12.000Z</time>
      </trkpt>
      <trkpt lat="49.85295" lon="4.78441">
        <ele>334</ele>
        <time>2022-09-28T08:07:13.000Z</time>
      </trkpt>
      <trkpt lat="49.85298" lon="4.78434">
        <ele>334</ele>
        <time>2022-09-28T08:07:14.000Z</time>
      </trkpt>
      <trkpt lat="49.853" lon="4.78427">
        <ele>334</ele>
        <time>2022-09-28T08:07:15.000Z</time>
      </trkpt>
      <trkpt lat="49.85303" lon="4.78419">
        <ele>333</ele>
        <time>2022-09-28T08:07:16.000Z</time>
      </trkpt>
      <trkpt lat="49.85307" lon="4.78412">
        <ele>333</ele>
        <time>2022-09-28T08:07:17.000Z</time>
      </trkpt>
      <trkpt lat="49.85311" lon="4.78405">
        <ele>333</ele>
        <time>2022-09-28T08:07:18.000Z</time>
      </trkpt>
      <trkpt lat="49.85316" lon="4.78397">
        <ele>333</ele>
        <time>2022-09-28T08:07:19.000Z</time>
      </trkpt>
      <trkpt lat="49.85321" lon="4.7839">
        <ele>333</ele>
        <time>2022-09-28T08:07:20.000Z</time>
      </trkpt>
      <trkpt lat="49.85326" lon="4.78383">
        <ele>332</ele>
        <time>2022-09-28T08:07:21.000Z</time>
      </trkpt>
      <trkpt lat="49.8533" lon="4.78375">
        <ele>332</ele>
        <time>2022-09-28T08:07:22.000Z</time>
      </trkpt>
      <trkpt lat="49.85335" lon="4.78369">
        <ele>332</ele>
        <time>2022-09-28T08:07:23.000Z</time>
      </trkpt>
      <trkpt lat="49.85339" lon="4.78363">
        <ele>331</ele>
        <time>2022-09-28T08:07:24.000Z</time>
      </trkpt>
      <trkpt lat="49.85342" lon="4.78358">
        <ele>331</ele>
        <time>2022-09-28T08:07:25.000Z</time>
      </trkpt>
      <trkpt lat="49.85344" lon="4.78353">
        <ele>331</ele>
        <time>2022-09-28T08:07:26.000Z</time>
      </trkpt>
      <trkpt lat="49.85347" lon="4.78347">
        <ele>330</ele>
        <time>2022-09-28T08:07:27.000Z</time>
      </trkpt>
      <trkpt lat="49.85351" lon="4.7834">
        <ele>330</ele>
        <time>2022-09-28T08:07:28.000Z</time>
      </trkpt>
      <trkpt lat="49.85355" lon="4.78334">
        <ele>329</ele>
        <time>2022-09-28T08:07:29.000Z</time>
      </trkpt>
      <trkpt lat="49.8536" lon="4.78327">
        <ele>329</ele>
        <time>2022-09-28T08:07:30.000Z</time>
      </trkpt>
      <trkpt lat="49.85364" lon="4.7832">
        <ele>328</ele>
        <time>2022-09-28T08:07:31.000Z</time>
      </trkpt>
      <trkpt lat="49.85369" lon="4.78314">
        <ele>328</ele>
        <time>2022-09-28T08:07:32.000Z</time>
      </trkpt>
      <trkpt lat="49.85375" lon="4.78306">
        <ele>327</ele>
        <time>2022-09-28T08:07:33.000Z</time>
      </trkpt>
      <trkpt lat="49.8538" lon="4.78298">
        <ele>327</ele>
        <time>2022-09-28T08:07:34.000Z</time>
      </trkpt>
      <trkpt lat="49.85385" lon="4.78291">
        <ele>326</ele>
        <time>2022-09-28T08:07:35.000Z</time>
      </trkpt>
      <trkpt lat="49.8539" lon="4.78285">
        <ele>326</ele>
        <time>2022-09-28T08:07:36.000Z</time>
      </trkpt>
      <trkpt lat="49.85395" lon="4.78278">
        <ele>325</ele>
        <time>2022-09-28T08:07:37.000Z</time>
      </trkpt>
      <trkpt lat="49.854" lon="4.78272">
        <ele>325</ele>
        <time>2022-09-28T08:07:38.000Z</time>
      </trkpt>
      <trkpt lat="49.85405" lon="4.78266">
        <ele>324</ele>
        <time>2022-09-28T08:07:39.000Z</time>
      </trkpt>
      <trkpt lat="49.85409" lon="4.7826">
        <ele>324</ele>
        <time>2022-09-28T08:07:40.000Z</time>
      </trkpt>
      <trkpt lat="49.85414" lon="4.78255">
        <ele>323</ele>
        <time>2022-09-28T08:07:41.000Z</time>
      </trkpt>
      <trkpt lat="49.85419" lon="4.78249">
        <ele>323</ele>
        <time>2022-09-28T08:07:42.000Z</time>
      </trkpt>
      <trkpt lat="49.85425" lon="4.78243">
        <ele>322</ele>
        <time>2022-09-28T08:07:43.000Z</time>
      </trkpt>
      <trkpt lat="49.8543" lon="4.78238">
        <ele>322</ele>
        <time>2022-09-28T08:07:44.000Z</time>
      </trkpt>
      <trkpt lat="49.85435" lon="4.78232">
        <ele>321</ele>
        <time>2022-09-28T08:07:45.000Z</time>
      </trkpt>
      <trkpt lat="49.8544" lon="4.78226">
        <ele>321</ele>
        <time>2022-09-28T08:07:46.000Z</time>
      </trkpt>
      <trkpt lat="49.85445" lon="4.7822">
        <ele>321</ele>
        <time>2022-09-28T08:07:47.000Z</time>
      </trkpt>
      <trkpt lat="49.8545" lon="4.78213">
        <ele>320</ele>
        <time>2022-09-28T08:07:48.000Z</time>
      </trkpt>
      <trkpt lat="49.85455" lon="4.78207">
        <ele>320</ele>
        <time>2022-09-28T08:07:49.000Z</time>
      </trkpt>
      <trkpt lat="49.85459" lon="4.782">
        <ele>319</ele>
        <time>2022-09-28T08:07:50.000Z</time>
      </trkpt>
      <trkpt lat="49.85463" lon="4.78195">
        <ele>319</ele>
        <time>2022-09-28T08:07:51.000Z</time>
      </trkpt>
      <trkpt lat="49.85467" lon="4.78187">
        <ele>318</ele>
        <time>2022-09-28T08:07:52.000Z</time>
      </trkpt>
      <trkpt lat="49.85469" lon="4.78181">
        <ele>318</ele>
        <time>2022-09-28T08:07:53.000Z</time>
      </trkpt>
      <trkpt lat="49.85472" lon="4.78173">
        <ele>317</ele>
        <time>2022-09-28T08:07:54.000Z</time>
      </trkpt>
      <trkpt lat="49.85474" lon="4.78166">
        <ele>317</ele>
        <time>2022-09-28T08:07:55.000Z</time>
      </trkpt>
      <trkpt lat="49.85477" lon="4.78158">
        <ele>316</ele>
        <time>2022-09-28T08:07:56.000Z</time>
      </trkpt>
      <trkpt lat="49.8548" lon="4.7815">
        <ele>316</ele>
        <time>2022-09-28T08:07:57.000Z</time>
      </trkpt>
      <trkpt lat="49.85484" lon="4.78142">
        <ele>316</ele>
        <time>2022-09-28T08:07:58.000Z</time>
      </trkpt>
      <trkpt lat="49.85487" lon="4.78134">
        <ele>315</ele>
        <time>2022-09-28T08:07:59.000Z</time>
      </trkpt>
      <trkpt lat="49.8549" lon="4.78127">
        <ele>315</ele>
        <time>2022-09-28T08:08:00.000Z</time>
      </trkpt>
      <trkpt lat="49.85493" lon="4.7812">
        <ele>315</ele>
        <time>2022-09-28T08:08:01.000Z</time>
      </trkpt>
      <trkpt lat="49.85497" lon="4.78113">
        <ele>314</ele>
        <time>2022-09-28T08:08:02.000Z</time>
      </trkpt>
      <trkpt lat="49.85501" lon="4.78106">
        <ele>314</ele>
        <time>2022-09-28T08:08:03.000Z</time>
      </trkpt>
      <trkpt lat="49.85505" lon="4.78099">
        <ele>313</ele>
        <time>2022-09-28T08:08:04.000Z</time>
      </trkpt>
      <trkpt lat="49.85508" lon="4.78093">
        <ele>313</ele>
        <time>2022-09-28T08:08:05.000Z</time>
      </trkpt>
      <trkpt lat="49.85511" lon="4.78087">
        <ele>313</ele>
        <time>2022-09-28T08:08:06.000Z</time>
      </trkpt>
      <trkpt lat="49.85514" lon="4.78081">
        <ele>313</ele>
        <time>2022-09-28T08:08:07.000Z</time>
      </trkpt>
      <trkpt lat="49.85517" lon="4.78074">
        <ele>312</ele>
        <time>2022-09-28T08:08:08.000Z</time>
      </trkpt>
      <trkpt lat="49.85519" lon="4.78067">
        <ele>312</ele>
        <time>2022-09-28T08:08:09.000Z</time>
      </trkpt>
      <trkpt lat="49.85521" lon="4.7806">
        <ele>312</ele>
        <time>2022-09-28T08:08:10.000Z</time>
      </trkpt>
      <trkpt lat="49.85522" lon="4.78053">
        <ele>312</ele>
        <time>2022-09-28T08:08:11.000Z</time>
      </trkpt>
      <trkpt lat="49.85524" lon="4.78046">
        <ele>312</ele>
        <time>2022-09-28T08:08:12.000Z</time>
      </trkpt>
      <trkpt lat="49.85527" lon="4.7804">
        <ele>311</ele>
        <time>2022-09-28T08:08:13.000Z</time>
      </trkpt>
      <trkpt lat="49.85529" lon="4.78034">
        <ele>311</ele>
        <time>2022-09-28T08:08:14.000Z</time>
      </trkpt>
      <trkpt lat="49.8553" lon="4.78028">
        <ele>311</ele>
        <time>2022-09-28T08:08:15.000Z</time>
      </trkpt>
      <trkpt lat="49.85531" lon="4.78021">
        <ele>311</ele>
        <time>2022-09-28T08:08:16.000Z</time>
      </trkpt>
      <trkpt lat="49.85533" lon="4.78015">
        <ele>311</ele>
        <time>2022-09-28T08:08:17.000Z</time>
      </trkpt>
      <trkpt lat="49.85534" lon="4.78009">
        <ele>310</ele>
        <time>2022-09-28T08:08:18.000Z</time>
      </trkpt>
      <trkpt lat="49.85535" lon="4.78003">
        <ele>310</ele>
        <time>2022-09-28T08:08:19.000Z</time>
      </trkpt>
      <trkpt lat="49.85537" lon="4.77996">
        <ele>310</ele>
        <time>2022-09-28T08:08:20.000Z</time>
      </trkpt>
      <trkpt lat="49.8554" lon="4.77991">
        <ele>310</ele>
        <time>2022-09-28T08:08:21.000Z</time>
      </trkpt>
      <trkpt lat="49.85542" lon="4.77985">
        <ele>309</ele>
        <time>2022-09-28T08:08:22.000Z</time>
      </trkpt>
      <trkpt lat="49.85544" lon="4.7798">
        <ele>309</ele>
        <time>2022-09-28T08:08:23.000Z</time>
      </trkpt>
      <trkpt lat="49.85546" lon="4.77974">
        <ele>309</ele>
        <time>2022-09-28T08:08:24.000Z</time>
      </trkpt>
      <trkpt lat="49.85548" lon="4.77968">
        <ele>309</ele>
        <time>2022-09-28T08:08:25.000Z</time>
      </trkpt>
      <trkpt lat="49.85549" lon="4.77962">
        <ele>309</ele>
        <time>2022-09-28T08:08:26.000Z</time>
      </trkpt>
      <trkpt lat="49.8555" lon="4.77956">
        <ele>309</ele>
        <time>2022-09-28T08:08:27.000Z</time>
      </trkpt>
      <trkpt lat="49.85552" lon="4.7795">
        <ele>309</ele>
        <time>2022-09-28T08:08:28.000Z</time>
      </trkpt>
      <trkpt lat="49.85554" lon="4.77943">
        <ele>309</ele>
        <time>2022-09-28T08:08:29.000Z</time>
      </trkpt>
      <trkpt lat="49.85555" lon="4.77936">
        <ele>309</ele>
        <time>2022-09-28T08:08:30.000Z</time>
      </trkpt>
      <trkpt lat="49.85556" lon="4.7793">
        <ele>309</ele>
        <time>2022-09-28T08:08:31.000Z</time>
      </trkpt>
      <trkpt lat="49.85558" lon="4.77922">
        <ele>309</ele>
        <time>2022-09-28T08:08:32.000Z</time>
      </trkpt>
      <trkpt lat="49.8556" lon="4.77915">
        <ele>309</ele>
        <time>2022-09-28T08:08:33.000Z</time>
      </trkpt>
      <trkpt lat="49.85562" lon="4.77909">
        <ele>309</ele>
        <time>2022-09-28T08:08:34.000Z</time>
      </trkpt>
      <trkpt lat="49.85564" lon="4.77902">
        <ele>309</ele>
        <time>2022-09-28T08:08:35.000Z</time>
      </trkpt>
      <trkpt lat="49.85565" lon="4.77896">
        <ele>309</ele>
        <time>2022-09-28T08:08:36.000Z</time>
      </trkpt>
      <trkpt lat="49.85566" lon="4.77891">
        <ele>308</ele>
        <time>2022-09-28T08:08:37.000Z</time>
      </trkpt>
      <trkpt lat="49.85568" lon="4.77886">
        <ele>308</ele>
        <time>2022-09-28T08:08:38.000Z</time>
      </trkpt>
      <trkpt lat="49.85569" lon="4.77881">
        <ele>308</ele>
        <time>2022-09-28T08:08:39.000Z</time>
      </trkpt>
      <trkpt lat="49.85572" lon="4.77876">
        <ele>308</ele>
        <time>2022-09-28T08:08:40.000Z</time>
      </trkpt>
      <trkpt lat="49.85575" lon="4.77871">
        <ele>308</ele>
        <time>2022-09-28T08:08:41.000Z</time>
      </trkpt>
      <trkpt lat="49.85578" lon="4.77867">
        <ele>308</ele>
        <time>2022-09-28T08:08:42.000Z</time>
      </trkpt>
      <trkpt lat="49.85582" lon="4.77863">
        <ele>308</ele>
        <time>2022-09-28T08:08:43.000Z</time>
      </trkpt>
      <trkpt lat="49.85585" lon="4.77859">
        <ele>308</ele>
        <time>2022-09-28T08:08:44.000Z</time>
      </trkpt>
      <trkpt lat="49.85589" lon="4.77855">
        <ele>308</ele>
        <time>2022-09-28T08:08:45.000Z</time>
      </trkpt>
      <trkpt lat="49.85593" lon="4.77851">
        <ele>308</ele>
        <time>2022-09-28T08:08:46.000Z</time>
      </trkpt>
      <trkpt lat="49.85597" lon="4.77847">
        <ele>308</ele>
        <time>2022-09-28T08:08:47.000Z</time>
      </trkpt>
      <trkpt lat="49.85601" lon="4.77844">
        <ele>308</ele>
        <time>2022-09-28T08:08:48.000Z</time>
      </trkpt>
      <trkpt lat="49.85604" lon="4.7784">
        <ele>308</ele>
        <time>2022-09-28T08:08:49.000Z</time>
      </trkpt>
      <trkpt lat="49.85608" lon="4.77836">
        <ele>308</ele>
        <time>2022-09-28T08:08:50.000Z</time>
      </trkpt>
      <trkpt lat="49.85612" lon="4.77833">
        <ele>308</ele>
        <time>2022-09-28T08:08:51.000Z</time>
      </trkpt>
      <trkpt lat="49.85615" lon="4.7783">
        <ele>308</ele>
        <time>2022-09-28T08:08:52.000Z</time>
      </trkpt>
      <trkpt lat="49.85618" lon="4.77827">
        <ele>308</ele>
        <time>2022-09-28T08:08:53.000Z</time>
      </trkpt>
      <trkpt lat="49.85622" lon="4.77824">
        <ele>308</ele>
        <time>2022-09-28T08:08:54.000Z</time>
      </trkpt>
      <trkpt lat="49.85625" lon="4.77821">
        <ele>308</ele>
        <time>2022-09-28T08:08:55.000Z</time>
      </trkpt>
      <trkpt lat="49.85629" lon="4.77818">
        <ele>308</ele>
        <time>2022-09-28T08:08:56.000Z</time>
      </trkpt>
      <trkpt lat="49.85632" lon="4.77814">
        <ele>308</ele>
        <time>2022-09-28T08:08:57.000Z</time>
      </trkpt>
      <trkpt lat="49.85635" lon="4.77811">
        <ele>307</ele>
        <time>2022-09-28T08:08:58.000Z</time>
      </trkpt>
      <trkpt lat="49.85638" lon="4.77808">
        <ele>307</ele>
        <time>2022-09-28T08:08:59.000Z</time>
      </trkpt>
      <trkpt lat="49.85641" lon="4.77805">
        <ele>307</ele>
        <time>2022-09-28T08:09:00.000Z</time>
      </trkpt>
      <trkpt lat="49.85644" lon="4.77803">
        <ele>307</ele>
        <time>2022-09-28T08:09:01.000Z</time>
      </trkpt>
      <trkpt lat="49.85648" lon="4.77803">
        <ele>307</ele>
        <time>2022-09-28T08:09:02.000Z</time>
      </trkpt>
      <trkpt lat="49.85651" lon="4.77803">
        <ele>307</ele>
        <time>2022-09-28T08:09:03.000Z</time>
      </trkpt>
      <trkpt lat="49.85654" lon="4.77803">
        <ele>307</ele>
        <time>2022-09-28T08:09:04.000Z</time>
      </trkpt>
      <trkpt lat="49.85657" lon="4.77802">
        <ele>307</ele>
        <time>2022-09-28T08:09:05.000Z</time>
      </trkpt>
      <trkpt lat="49.8566" lon="4.77802">
        <ele>307</ele>
        <time>2022-09-28T08:09:06.000Z</time>
      </trkpt>
      <trkpt lat="49.85663" lon="4.77803">
        <ele>307</ele>
        <time>2022-09-28T08:09:07.000Z</time>
      </trkpt>
      <trkpt lat="49.85666" lon="4.77803">
        <ele>307</ele>
        <time>2022-09-28T08:09:08.000Z</time>
      </trkpt>
      <trkpt lat="49.85668" lon="4.77804">
        <ele>307</ele>
        <time>2022-09-28T08:09:09.000Z</time>
      </trkpt>
      <trkpt lat="49.8567" lon="4.77805">
        <ele>307</ele>
        <time>2022-09-28T08:09:10.000Z</time>
      </trkpt>
      <trkpt lat="49.85672" lon="4.77804">
        <ele>306</ele>
        <time>2022-09-28T08:09:11.000Z</time>
      </trkpt>
      <trkpt lat="49.85673" lon="4.77804">
        <ele>306</ele>
        <time>2022-09-28T08:09:12.000Z</time>
      </trkpt>
      <trkpt lat="49.85676" lon="4.77804">
        <ele>306</ele>
        <time>2022-09-28T08:09:13.000Z</time>
      </trkpt>
      <trkpt lat="49.85679" lon="4.77804">
        <ele>306</ele>
        <time>2022-09-28T08:09:14.000Z</time>
      </trkpt>
      <trkpt lat="49.85682" lon="4.77803">
        <ele>306</ele>
        <time>2022-09-28T08:09:15.000Z</time>
      </trkpt>
      <trkpt lat="49.85685" lon="4.77802">
        <ele>306</ele>
        <time>2022-09-28T08:09:16.000Z</time>
      </trkpt>
      <trkpt lat="49.85688" lon="4.77802">
        <ele>306</ele>
        <time>2022-09-28T08:09:17.000Z</time>
      </trkpt>
      <trkpt lat="49.85691" lon="4.77802">
        <ele>306</ele>
        <time>2022-09-28T08:09:18.000Z</time>
      </trkpt>
      <trkpt lat="49.85694" lon="4.77802">
        <ele>306</ele>
        <time>2022-09-28T08:09:19.000Z</time>
      </trkpt>
      <trkpt lat="49.85697" lon="4.77801">
        <ele>306</ele>
        <time>2022-09-28T08:09:20.000Z</time>
      </trkpt>
      <trkpt lat="49.857" lon="4.77799">
        <ele>306</ele>
        <time>2022-09-28T08:09:21.000Z</time>
      </trkpt>
      <trkpt lat="49.85703" lon="4.77796">
        <ele>306</ele>
        <time>2022-09-28T08:09:22.000Z</time>
      </trkpt>
      <trkpt lat="49.85708" lon="4.77793">
        <ele>306</ele>
        <time>2022-09-28T08:09:23.000Z</time>
      </trkpt>
      <trkpt lat="49.85713" lon="4.77791">
        <ele>306</ele>
        <time>2022-09-28T08:09:24.000Z</time>
      </trkpt>
      <trkpt lat="49.85717" lon="4.7779">
        <ele>305</ele>
        <time>2022-09-28T08:09:25.000Z</time>
      </trkpt>
      <trkpt lat="49.85723" lon="4.77788">
        <ele>305</ele>
        <time>2022-09-28T08:09:26.000Z</time>
      </trkpt>
      <trkpt lat="49.85728" lon="4.77786">
        <ele>305</ele>
        <time>2022-09-28T08:09:27.000Z</time>
      </trkpt>
      <trkpt lat="49.85733" lon="4.77784">
        <ele>305</ele>
        <time>2022-09-28T08:09:28.000Z</time>
      </trkpt>
      <trkpt lat="49.85738" lon="4.7778">
        <ele>305</ele>
        <time>2022-09-28T08:09:29.000Z</time>
      </trkpt>
      <trkpt lat="49.85742" lon="4.77776">
        <ele>304</ele>
        <time>2022-09-28T08:09:30.000Z</time>
      </trkpt>
      <trkpt lat="49.85746" lon="4.77772">
        <ele>304</ele>
        <time>2022-09-28T08:09:31.000Z</time>
      </trkpt>
      <trkpt lat="49.85751" lon="4.77768">
        <ele>304</ele>
        <time>2022-09-28T08:09:32.000Z</time>
      </trkpt>
      <trkpt lat="49.85755" lon="4.77765">
        <ele>304</ele>
        <time>2022-09-28T08:09:33.000Z</time>
      </trkpt>
      <trkpt lat="49.85759" lon="4.77764">
        <ele>303</ele>
        <time>2022-09-28T08:09:34.000Z</time>
      </trkpt>
      <trkpt lat="49.85762" lon="4.77765">
        <ele>303</ele>
        <time>2022-09-28T08:09:35.000Z</time>
      </trkpt>
      <trkpt lat="49.85765" lon="4.77768">
        <ele>303</ele>
        <time>2022-09-28T08:09:36.000Z</time>
      </trkpt>
      <trkpt lat="49.85767" lon="4.77772">
        <ele>302</ele>
        <time>2022-09-28T08:09:37.000Z</time>
      </trkpt>
      <trkpt lat="49.85768" lon="4.77776">
        <ele>302</ele>
        <time>2022-09-28T08:09:38.000Z</time>
      </trkpt>
      <trkpt lat="49.85768" lon="4.77781">
        <ele>302</ele>
        <time>2022-09-28T08:09:39.000Z</time>
      </trkpt>
      <trkpt lat="49.85769" lon="4.77784">
        <ele>301</ele>
        <time>2022-09-28T08:09:40.000Z</time>
      </trkpt>
      <trkpt lat="49.8577" lon="4.77786">
        <ele>301</ele>
        <time>2022-09-28T08:09:41.000Z</time>
      </trkpt>
      <trkpt lat="49.85771" lon="4.77786">
        <ele>301</ele>
        <time>2022-09-28T08:09:42.000Z</time>
      </trkpt>
      <trkpt lat="49.85771" lon="4.77786">
        <ele>301</ele>
        <time>2022-09-28T08:09:43.000Z</time>
      </trkpt>
      <trkpt lat="49.85772" lon="4.77786">
        <ele>301</ele>
        <time>2022-09-28T08:09:44.000Z</time>
      </trkpt>
      <trkpt lat="49.85773" lon="4.77787">
        <ele>301</ele>
        <time>2022-09-28T08:09:45.000Z</time>
      </trkpt>
      <trkpt lat="49.85775" lon="4.77788">
        <ele>300</ele>
        <time>2022-09-28T08:09:46.000Z</time>
      </trkpt>
      <trkpt lat="49.85776" lon="4.7779">
        <ele>300</ele>
        <time>2022-09-28T08:09:47.000Z</time>
      </trkpt>
      <trkpt lat="49.85778" lon="4.77793">
        <ele>300</ele>
        <time>2022-09-28T08:09:48.000Z</time>
      </trkpt>
      <trkpt lat="49.85779" lon="4.77795">
        <ele>300</ele>
        <time>2022-09-28T08:09:49.000Z</time>
      </trkpt>
      <trkpt lat="49.8578" lon="4.77799">
        <ele>300</ele>
        <time>2022-09-28T08:09:50.000Z</time>
      </trkpt>
      <trkpt lat="49.85781" lon="4.77804">
        <ele>300</ele>
        <time>2022-09-28T08:09:51.000Z</time>
      </trkpt>
      <trkpt lat="49.85782" lon="4.77809">
        <ele>300</ele>
        <time>2022-09-28T08:09:52.000Z</time>
      </trkpt>
      <trkpt lat="49.85783" lon="4.77814">
        <ele>300</ele>
        <time>2022-09-28T08:09:53.000Z</time>
      </trkpt>
      <trkpt lat="49.85786" lon="4.7782">
        <ele>299</ele>
        <time>2022-09-28T08:09:54.000Z</time>
      </trkpt>
      <trkpt lat="49.85787" lon="4.77826">
        <ele>299</ele>
        <time>2022-09-28T08:09:55.000Z</time>
      </trkpt>
      <trkpt lat="49.85789" lon="4.77833">
        <ele>299</ele>
        <time>2022-09-28T08:09:56.000Z</time>
      </trkpt>
      <trkpt lat="49.85792" lon="4.77839">
        <ele>299</ele>
        <time>2022-09-28T08:09:57.000Z</time>
      </trkpt>
      <trkpt lat="49.85794" lon="4.77845">
        <ele>299</ele>
        <time>2022-09-28T08:09:58.000Z</time>
      </trkpt>
      <trkpt lat="49.85796" lon="4.77849">
        <ele>298</ele>
        <time>2022-09-28T08:09:59.000Z</time>
      </trkpt>
      <trkpt lat="49.85797" lon="4.77853">
        <ele>298</ele>
        <time>2022-09-28T08:10:00.000Z</time>
      </trkpt>
      <trkpt lat="49.85797" lon="4.77858">
        <ele>298</ele>
        <time>2022-09-28T08:10:01.000Z</time>
      </trkpt>
      <trkpt lat="49.85798" lon="4.77862">
        <ele>298</ele>
        <time>2022-09-28T08:10:02.000Z</time>
      </trkpt>
      <trkpt lat="49.858" lon="4.77867">
        <ele>298</ele>
        <time>2022-09-28T08:10:03.000Z</time>
      </trkpt>
      <trkpt lat="49.85801" lon="4.77871">
        <ele>297</ele>
        <time>2022-09-28T08:10:04.000Z</time>
      </trkpt>
      <trkpt lat="49.85803" lon="4.77876">
        <ele>297</ele>
        <time>2022-09-28T08:10:05.000Z</time>
      </trkpt>
      <trkpt lat="49.85804" lon="4.77881">
        <ele>297</ele>
        <time>2022-09-28T08:10:06.000Z</time>
      </trkpt>
      <trkpt lat="49.85806" lon="4.77884">
        <ele>297</ele>
        <time>2022-09-28T08:10:07.000Z</time>
      </trkpt>
      <trkpt lat="49.85807" lon="4.77888">
        <ele>296</ele>
        <time>2022-09-28T08:10:08.000Z</time>
      </trkpt>
      <trkpt lat="49.85809" lon="4.77892">
        <ele>296</ele>
        <time>2022-09-28T08:10:09.000Z</time>
      </trkpt>
      <trkpt lat="49.85809" lon="4.77895">
        <ele>296</ele>
        <time>2022-09-28T08:10:10.000Z</time>
      </trkpt>
      <trkpt lat="49.8581" lon="4.779">
        <ele>296</ele>
        <time>2022-09-28T08:10:11.000Z</time>
      </trkpt>
      <trkpt lat="49.85811" lon="4.77904">
        <ele>295</ele>
        <time>2022-09-28T08:10:12.000Z</time>
      </trkpt>
      <trkpt lat="49.85813" lon="4.77908">
        <ele>295</ele>
        <time>2022-09-28T08:10:13.000Z</time>
      </trkpt>
      <trkpt lat="49.85815" lon="4.77912">
        <ele>295</ele>
        <time>2022-09-28T08:10:14.000Z</time>
      </trkpt>
      <trkpt lat="49.85815" lon="4.77917">
        <ele>295</ele>
        <time>2022-09-28T08:10:15.000Z</time>
      </trkpt>
      <trkpt lat="49.85814" lon="4.77921">
        <ele>294</ele>
        <time>2022-09-28T08:10:16.000Z</time>
      </trkpt>
      <trkpt lat="49.85814" lon="4.77926">
        <ele>294</ele>
        <time>2022-09-28T08:10:17.000Z</time>
      </trkpt>
      <trkpt lat="49.85814" lon="4.77929">
        <ele>294</ele>
        <time>2022-09-28T08:10:18.000Z</time>
      </trkpt>
      <trkpt lat="49.85814" lon="4.77932">
        <ele>293</ele>
        <time>2022-09-28T08:10:19.000Z</time>
      </trkpt>
      <trkpt lat="49.85814" lon="4.77934">
        <ele>293</ele>
        <time>2022-09-28T08:10:20.000Z</time>
      </trkpt>
      <trkpt lat="49.85814" lon="4.77935">
        <ele>293</ele>
        <time>2022-09-28T08:10:21.000Z</time>
      </trkpt>
      <trkpt lat="49.85814" lon="4.77936">
        <ele>293</ele>
        <time>2022-09-28T08:10:22.000Z</time>
      </trkpt>
      <trkpt lat="49.85814" lon="4.77937">
        <ele>292</ele>
        <time>2022-09-28T08:10:23.000Z</time>
      </trkpt>
      <trkpt lat="49.85814" lon="4.77937">
        <ele>292</ele>
        <time>2022-09-28T08:10:24.000Z</time>
      </trkpt>
      <trkpt lat="49.85814" lon="4.77939">
        <ele>292</ele>
        <time>2022-09-28T08:10:25.000Z</time>
      </trkpt>
      <trkpt lat="49.85814" lon="4.7794">
        <ele>291</ele>
        <time>2022-09-28T08:10:26.000Z</time>
      </trkpt>
      <trkpt lat="49.85814" lon="4.77941">
        <ele>291</ele>
        <time>2022-09-28T08:10:27.000Z</time>
      </trkpt>
      <trkpt lat="49.85814" lon="4.77942">
        <ele>291</ele>
        <time>2022-09-28T08:10:28.000Z</time>
      </trkpt>
      <trkpt lat="49.85815" lon="4.77943">
        <ele>290</ele>
        <time>2022-09-28T08:10:29.000Z</time>
      </trkpt>
      <trkpt lat="49.85816" lon="4.77945">
        <ele>290</ele>
        <time>2022-09-28T08:10:30.000Z</time>
      </trkpt>
      <trkpt lat="49.85816" lon="4.77946">
        <ele>290</ele>
        <time>2022-09-28T08:10:31.000Z</time>
      </trkpt>
      <trkpt lat="49.85816" lon="4.77946">
        <ele>289</ele>
        <time>2022-09-28T08:10:32.000Z</time>
      </trkpt>
      <trkpt lat="49.85816" lon="4.77946">
        <ele>289</ele>
        <time>2022-09-28T08:10:33.000Z</time>
      </trkpt>
      <trkpt lat="49.85816" lon="4.77946">
        <ele>289</ele>
        <time>2022-09-28T08:10:34.000Z</time>
      </trkpt>
      <trkpt lat="49.85816" lon="4.77946">
        <ele>289</ele>
        <time>2022-09-28T08:10:35.000Z</time>
      </trkpt>
      <trkpt lat="49.85816" lon="4.77947">
        <ele>288</ele>
        <time>2022-09-28T08:10:36.000Z</time>
      </trkpt>
      <trkpt lat="49.85815" lon="4.77948">
        <ele>288</ele>
        <time>2022-09-28T08:10:37.000Z</time>
      </trkpt>
      <trkpt lat="49.85815" lon="4.77949">
        <ele>288</ele>
        <time>2022-09-28T08:10:38.000Z</time>
      </trkpt>
      <trkpt lat="49.85814" lon="4.7795">
        <ele>288</ele>
        <time>2022-09-28T08:10:39.000Z</time>
      </trkpt>
      <trkpt lat="49.85814" lon="4.77951">
        <ele>287</ele>
        <time>2022-09-28T08:10:40.000Z</time>
      </trkpt>
      <trkpt lat="49.85814" lon="4.77951">
        <ele>287</ele>
        <time>2022-09-28T08:10:41.000Z</time>
      </trkpt>
      <trkpt lat="49.85814" lon="4.77951">
        <ele>287</ele>
        <time>2022-09-28T08:10:42.000Z</time>
      </trkpt>
      <trkpt lat="49.85814" lon="4.77951">
        <ele>287</ele>
        <time>2022-09-28T08:10:43.000Z</time>
      </trkpt>
      <trkpt lat="49.85813" lon="4.77951">
        <ele>287</ele>
        <time>2022-09-28T08:10:44.000Z</time>
      </trkpt>
      <trkpt lat="49.85813" lon="4.77951">
        <ele>286</ele>
        <time>2022-09-28T08:10:45.000Z</time>
      </trkpt>
      <trkpt lat="49.85813" lon="4.77952">
        <ele>286</ele>
        <time>2022-09-28T08:10:46.000Z</time>
      </trkpt>
      <trkpt lat="49.85813" lon="4.77952">
        <ele>286</ele>
        <time>2022-09-28T08:10:47.000Z</time>
      </trkpt>
      <trkpt lat="49.85812" lon="4.77952">
        <ele>286</ele>
        <time>2022-09-28T08:10:48.000Z</time>
      </trkpt>
      <trkpt lat="49.85812" lon="4.77952">
        <ele>286</ele>
        <time>2022-09-28T08:10:49.000Z</time>
      </trkpt>
      <trkpt lat="49.85812" lon="4.77953">
        <ele>285</ele>
        <time>2022-09-28T08:10:50.000Z</time>
      </trkpt>
      <trkpt lat="49.85811" lon="4.77954">
        <ele>285</ele>
        <time>2022-09-28T08:10:51.000Z</time>
      </trkpt>
      <trkpt lat="49.85811" lon="4.77955">
        <ele>285</ele>
        <time>2022-09-28T08:10:52.000Z</time>
      </trkpt>
      <trkpt lat="49.85811" lon="4.77955">
        <ele>285</ele>
        <time>2022-09-28T08:10:53.000Z</time>
      </trkpt>
      <trkpt lat="49.8581" lon="4.77955">
        <ele>285</ele>
        <time>2022-09-28T08:10:54.000Z</time>
      </trkpt>
      <trkpt lat="49.8581" lon="4.77955">
        <ele>285</ele>
        <time>2022-09-28T08:10:55.000Z</time>
      </trkpt>
      <trkpt lat="49.8581" lon="4.77955">
        <ele>285</ele>
        <time>2022-09-28T08:10:56.000Z</time>
      </trkpt>
      <trkpt lat="49.8581" lon="4.77956">
        <ele>284</ele>
        <time>2022-09-28T08:10:57.000Z</time>
      </trkpt>
      <trkpt lat="49.8581" lon="4.77957">
        <ele>284</ele>
        <time>2022-09-28T08:10:58.000Z</time>
      </trkpt>
      <trkpt lat="49.85809" lon="4.77958">
        <ele>284</ele>
        <time>2022-09-28T08:10:59.000Z</time>
      </trkpt>
      <trkpt lat="49.85809" lon="4.7796">
        <ele>284</ele>
        <time>2022-09-28T08:11:00.000Z</time>
      </trkpt>
      <trkpt lat="49.85808" lon="4.77961">
        <ele>284</ele>
        <time>2022-09-28T08:11:01.000Z</time>
      </trkpt>
      <trkpt lat="49.85806" lon="4.77963">
        <ele>284</ele>
        <time>2022-09-28T08:11:02.000Z</time>
      </trkpt>
      <trkpt lat="49.85805" lon="4.77964">
        <ele>284</ele>
        <time>2022-09-28T08:11:03.000Z</time>
      </trkpt>
      <trkpt lat="49.85804" lon="4.77966">
        <ele>283</ele>
        <time>2022-09-28T08:11:04.000Z</time>
      </trkpt>
      <trkpt lat="49.85803" lon="4.77968">
        <ele>283</ele>
        <time>2022-09-28T08:11:05.000Z</time>
      </trkpt>
      <trkpt lat="49.85803" lon="4.77969">
        <ele>283</ele>
        <time>2022-09-28T08:11:06.000Z</time>
      </trkpt>
      <trkpt lat="49.85803" lon="4.77971">
        <ele>283</ele>
        <time>2022-09-28T08:11:07.000Z</time>
      </trkpt>
      <trkpt lat="49.85803" lon="4.77971">
        <ele>282</ele>
        <time>2022-09-28T08:11:08.000Z</time>
      </trkpt>
      <trkpt lat="49.85803" lon="4.77971">
        <ele>282</ele>
        <time>2022-09-28T08:11:09.000Z</time>
      </trkpt>
      <trkpt lat="49.85803" lon="4.77971">
        <ele>282</ele>
        <time>2022-09-28T08:11:10.000Z</time>
      </trkpt>
      <trkpt lat="49.85803" lon="4.77972">
        <ele>282</ele>
        <time>2022-09-28T08:11:11.000Z</time>
      </trkpt>
      <trkpt lat="49.85803" lon="4.77973">
        <ele>282</ele>
        <time>2022-09-28T08:11:12.000Z</time>
      </trkpt>
      <trkpt lat="49.85804" lon="4.77973">
        <ele>282</ele>
        <time>2022-09-28T08:11:13.000Z</time>
      </trkpt>
      <trkpt lat="49.85804" lon="4.77973">
        <ele>281</ele>
        <time>2022-09-28T08:11:14.000Z</time>
      </trkpt>
      <trkpt lat="49.85805" lon="4.77974">
        <ele>281</ele>
        <time>2022-09-28T08:11:15.000Z</time>
      </trkpt>
      <trkpt lat="49.85805" lon="4.77974">
        <ele>281</ele>
        <time>2022-09-28T08:11:16.000Z</time>
      </trkpt>
      <trkpt lat="49.85805" lon="4.77976">
        <ele>281</ele>
        <time>2022-09-28T08:11:17.000Z</time>
      </trkpt>
      <trkpt lat="49.85805" lon="4.77977">
        <ele>281</ele>
        <time>2022-09-28T08:11:18.000Z</time>
      </trkpt>
      <trkpt lat="49.85806" lon="4.77979">
        <ele>280</ele>
        <time>2022-09-28T08:11:19.000Z</time>
      </trkpt>
      <trkpt lat="49.85806" lon="4.77979">
        <ele>280</ele>
        <time>2022-09-28T08:11:20.000Z</time>
      </trkpt>
      <trkpt lat="49.85806" lon="4.77979">
        <ele>280</ele>
        <time>2022-09-28T08:11:21.000Z</time>
      </trkpt>
      <trkpt lat="49.85807" lon="4.7798">
        <ele>280</ele>
        <time>2022-09-28T08:11:22.000Z</time>
      </trkpt>
      <trkpt lat="49.85808" lon="4.7798">
        <ele>280</ele>
        <time>2022-09-28T08:11:23.000Z</time>
      </trkpt>
      <trkpt lat="49.85809" lon="4.77979">
        <ele>279</ele>
        <time>2022-09-28T08:11:24.000Z</time>
      </trkpt>
      <trkpt lat="49.8581" lon="4.77979">
        <ele>279</ele>
        <time>2022-09-28T08:11:25.000Z</time>
      </trkpt>
      <trkpt lat="49.85812" lon="4.77979">
        <ele>279</ele>
        <time>2022-09-28T08:11:26.000Z</time>
      </trkpt>
      <trkpt lat="49.85815" lon="4.77981">
        <ele>279</ele>
        <time>2022-09-28T08:11:27.000Z</time>
      </trkpt>
      <trkpt lat="49.85815" lon="4.77983">
        <ele>278</ele>
        <time>2022-09-28T08:11:28.000Z</time>
      </trkpt>
      <trkpt lat="49.85815" lon="4.77984">
        <ele>278</ele>
        <time>2022-09-28T08:11:29.000Z</time>
      </trkpt>
      <trkpt lat="49.85815" lon="4.77984">
        <ele>278</ele>
        <time>2022-09-28T08:11:30.000Z</time>
      </trkpt>
      <trkpt lat="49.85815" lon="4.77985">
        <ele>278</ele>
        <time>2022-09-28T08:11:31.000Z</time>
      </trkpt>
      <trkpt lat="49.85815" lon="4.77985">
        <ele>278</ele>
        <time>2022-09-28T08:11:32.000Z</time>
      </trkpt>
      <trkpt lat="49.85815" lon="4.77986">
        <ele>277</ele>
        <time>2022-09-28T08:11:33.000Z</time>
      </trkpt>
      <trkpt lat="49.85814" lon="4.77986">
        <ele>277</ele>
        <time>2022-09-28T08:11:34.000Z</time>
      </trkpt>
      <trkpt lat="49.85814" lon="4.77987">
        <ele>277</ele>
        <time>2022-09-28T08:11:35.000Z</time>
      </trkpt>
      <trkpt lat="49.85814" lon="4.77988">
        <ele>276</ele>
        <time>2022-09-28T08:11:36.000Z</time>
      </trkpt>
      <trkpt lat="49.85814" lon="4.77988">
        <ele>276</ele>
        <time>2022-09-28T08:11:37.000Z</time>
      </trkpt>
      <trkpt lat="49.85814" lon="4.77987">
        <ele>276</ele>
        <time>2022-09-28T08:11:38.000Z</time>
      </trkpt>
      <trkpt lat="49.85814" lon="4.77987">
        <ele>276</ele>
        <time>2022-09-28T08:11:39.000Z</time>
      </trkpt>
      <trkpt lat="49.85814" lon="4.77987">
        <ele>276</ele>
        <time>2022-09-28T08:11:40.000Z</time>
      </trkpt>
      <trkpt lat="49.85814" lon="4.77987">
        <ele>276</ele>
        <time>2022-09-28T08:11:41.000Z</time>
      </trkpt>
      <trkpt lat="49.85814" lon="4.77988">
        <ele>276</ele>
        <time>2022-09-28T08:11:42.000Z</time>
      </trkpt>
      <trkpt lat="49.85813" lon="4.7799">
        <ele>276</ele>
        <time>2022-09-28T08:11:43.000Z</time>
      </trkpt>
      <trkpt lat="49.85812" lon="4.77993">
        <ele>275</ele>
        <time>2022-09-28T08:11:44.000Z</time>
      </trkpt>
      <trkpt lat="49.85811" lon="4.77996">
        <ele>275</ele>
        <time>2022-09-28T08:11:45.000Z</time>
      </trkpt>
      <trkpt lat="49.85811" lon="4.77999">
        <ele>275</ele>
        <time>2022-09-28T08:11:46.000Z</time>
      </trkpt>
      <trkpt lat="49.8581" lon="4.78001">
        <ele>275</ele>
        <time>2022-09-28T08:11:47.000Z</time>
      </trkpt>
      <trkpt lat="49.85809" lon="4.78004">
        <ele>275</ele>
        <time>2022-09-28T08:11:48.000Z</time>
      </trkpt>
      <trkpt lat="49.85807" lon="4.78005">
        <ele>275</ele>
        <time>2022-09-28T08:11:49.000Z</time>
      </trkpt>
      <trkpt lat="49.85806" lon="4.78007">
        <ele>275</ele>
        <time>2022-09-28T08:11:50.000Z</time>
      </trkpt>
      <trkpt lat="49.85805" lon="4.78009">
        <ele>275</ele>
        <time>2022-09-28T08:11:51.000Z</time>
      </trkpt>
      <trkpt lat="49.85804" lon="4.78011">
        <ele>274</ele>
        <time>2022-09-28T08:11:52.000Z</time>
      </trkpt>
      <trkpt lat="49.85802" lon="4.78014">
        <ele>274</ele>
        <time>2022-09-28T08:11:53.000Z</time>
      </trkpt>
      <trkpt lat="49.85802" lon="4.78018">
        <ele>274</ele>
        <time>2022-09-28T08:11:54.000Z</time>
      </trkpt>
      <trkpt lat="49.85801" lon="4.78022">
        <ele>274</ele>
        <time>2022-09-28T08:11:55.000Z</time>
      </trkpt>
      <trkpt lat="49.858" lon="4.78026">
        <ele>273</ele>
        <time>2022-09-28T08:11:56.000Z</time>
      </trkpt>
      <trkpt lat="49.85798" lon="4.7803">
        <ele>273</ele>
        <time>2022-09-28T08:11:57.000Z</time>
      </trkpt>
      <trkpt lat="49.85797" lon="4.78032">
        <ele>273</ele>
        <time>2022-09-28T08:11:58.000Z</time>
      </trkpt>
      <trkpt lat="49.85796" lon="4.78035">
        <ele>272</ele>
        <time>2022-09-28T08:11:59.000Z</time>
      </trkpt>
      <trkpt lat="49.85795" lon="4.78039">
        <ele>272</ele>
        <time>2022-09-28T08:12:00.000Z</time>
      </trkpt>
      <trkpt lat="49.85794" lon="4.78042">
        <ele>271</ele>
        <time>2022-09-28T08:12:01.000Z</time>
      </trkpt>
      <trkpt lat="49.85792" lon="4.78045">
        <ele>271</ele>
        <time>2022-09-28T08:12:02.000Z</time>
      </trkpt>
      <trkpt lat="49.8579" lon="4.78049">
        <ele>271</ele>
        <time>2022-09-28T08:12:03.000Z</time>
      </trkpt>
      <trkpt lat="49.85787" lon="4.78053">
        <ele>270</ele>
        <time>2022-09-28T08:12:04.000Z</time>
      </trkpt>
      <trkpt lat="49.85785" lon="4.78057">
        <ele>270</ele>
        <time>2022-09-28T08:12:05.000Z</time>
      </trkpt>
      <trkpt lat="49.85782" lon="4.7806">
        <ele>270</ele>
        <time>2022-09-28T08:12:06.000Z</time>
      </trkpt>
      <trkpt lat="49.85779" lon="4.78063">
        <ele>269</ele>
        <time>2022-09-28T08:12:07.000Z</time>
      </trkpt>
      <trkpt lat="49.85776" lon="4.78065">
        <ele>269</ele>
        <time>2022-09-28T08:12:08.000Z</time>
      </trkpt>
      <trkpt lat="49.85774" lon="4.78068">
        <ele>269</ele>
        <time>2022-09-28T08:12:09.000Z</time>
      </trkpt>
      <trkpt lat="49.85772" lon="4.78071">
        <ele>268</ele>
        <time>2022-09-28T08:12:10.000Z</time>
      </trkpt>
      <trkpt lat="49.8577" lon="4.78074">
        <ele>268</ele>
        <time>2022-09-28T08:12:11.000Z</time>
      </trkpt>
      <trkpt lat="49.85769" lon="4.78076">
        <ele>267</ele>
        <time>2022-09-28T08:12:12.000Z</time>
      </trkpt>
      <trkpt lat="49.85768" lon="4.78078">
        <ele>267</ele>
        <time>2022-09-28T08:12:13.000Z</time>
      </trkpt>
      <trkpt lat="49.85767" lon="4.7808">
        <ele>267</ele>
        <time>2022-09-28T08:12:14.000Z</time>
      </trkpt>
      <trkpt lat="49.85766" lon="4.78083">
        <ele>266</ele>
        <time>2022-09-28T08:12:15.000Z</time>
      </trkpt>
      <trkpt lat="49.85765" lon="4.78085">
        <ele>266</ele>
        <time>2022-09-28T08:12:16.000Z</time>
      </trkpt>
      <trkpt lat="49.85765" lon="4.78087">
        <ele>265</ele>
        <time>2022-09-28T08:12:17.000Z</time>
      </trkpt>
      <trkpt lat="49.85765" lon="4.78089">
        <ele>265</ele>
        <time>2022-09-28T08:12:18.000Z</time>
      </trkpt>
      <trkpt lat="49.85764" lon="4.7809">
        <ele>264</ele>
        <time>2022-09-28T08:12:19.000Z</time>
      </trkpt>
      <trkpt lat="49.85763" lon="4.78092">
        <ele>264</ele>
        <time>2022-09-28T08:12:20.000Z</time>
      </trkpt>
      <trkpt lat="49.85761" lon="4.78093">
        <ele>263</ele>
        <time>2022-09-28T08:12:21.000Z</time>
      </trkpt>
      <trkpt lat="49.8576" lon="4.78094">
        <ele>263</ele>
        <time>2022-09-28T08:12:22.000Z</time>
      </trkpt>
      <trkpt lat="49.85759" lon="4.78096">
        <ele>262</ele>
        <time>2022-09-28T08:12:23.000Z</time>
      </trkpt>
      <trkpt lat="49.85758" lon="4.78097">
        <ele>262</ele>
        <time>2022-09-28T08:12:24.000Z</time>
      </trkpt>
      <trkpt lat="49.85756" lon="4.78099">
        <ele>261</ele>
        <time>2022-09-28T08:12:25.000Z</time>
      </trkpt>
      <trkpt lat="49.85755" lon="4.78101">
        <ele>261</ele>
        <time>2022-09-28T08:12:26.000Z</time>
      </trkpt>
      <trkpt lat="49.85754" lon="4.78103">
        <ele>261</ele>
        <time>2022-09-28T08:12:27.000Z</time>
      </trkpt>
      <trkpt lat="49.85753" lon="4.78105">
        <ele>260</ele>
        <time>2022-09-28T08:12:28.000Z</time>
      </trkpt>
      <trkpt lat="49.85752" lon="4.78106">
        <ele>260</ele>
        <time>2022-09-28T08:12:29.000Z</time>
      </trkpt>
      <trkpt lat="49.85752" lon="4.78109">
        <ele>260</ele>
        <time>2022-09-28T08:12:30.000Z</time>
      </trkpt>
      <trkpt lat="49.85752" lon="4.78109">
        <ele>259</ele>
        <time>2022-09-28T08:12:31.000Z</time>
      </trkpt>
      <trkpt lat="49.85752" lon="4.7811">
        <ele>259</ele>
        <time>2022-09-28T08:12:32.000Z</time>
      </trkpt>
      <trkpt lat="49.85752" lon="4.78111">
        <ele>259</ele>
        <time>2022-09-28T08:12:33.000Z</time>
      </trkpt>
      <trkpt lat="49.85752" lon="4.78112">
        <ele>258</ele>
        <time>2022-09-28T08:12:34.000Z</time>
      </trkpt>
      <trkpt lat="49.85752" lon="4.78113">
        <ele>258</ele>
        <time>2022-09-28T08:12:35.000Z</time>
      </trkpt>
      <trkpt lat="49.85751" lon="4.78115">
        <ele>258</ele>
        <time>2022-09-28T08:12:36.000Z</time>
      </trkpt>
      <trkpt lat="49.85751" lon="4.78117">
        <ele>257</ele>
        <time>2022-09-28T08:12:37.000Z</time>
      </trkpt>
      <trkpt lat="49.85751" lon="4.78118">
        <ele>257</ele>
        <time>2022-09-28T08:12:38.000Z</time>
      </trkpt>
      <trkpt lat="49.85751" lon="4.7812">
        <ele>257</ele>
        <time>2022-09-28T08:12:39.000Z</time>
      </trkpt>
      <trkpt lat="49.85751" lon="4.78122">
        <ele>257</ele>
        <time>2022-09-28T08:12:40.000Z</time>
      </trkpt>
      <trkpt lat="49.85751" lon="4.78124">
        <ele>256</ele>
        <time>2022-09-28T08:12:41.000Z</time>
      </trkpt>
      <trkpt lat="49.85752" lon="4.78125">
        <ele>256</ele>
        <time>2022-09-28T08:12:42.000Z</time>
      </trkpt>
      <trkpt lat="49.85753" lon="4.78126">
        <ele>256</ele>
        <time>2022-09-28T08:12:43.000Z</time>
      </trkpt>
      <trkpt lat="49.85754" lon="4.78127">
        <ele>255</ele>
        <time>2022-09-28T08:12:44.000Z</time>
      </trkpt>
      <trkpt lat="49.85755" lon="4.78129">
        <ele>255</ele>
        <time>2022-09-28T08:12:45.000Z</time>
      </trkpt>
      <trkpt lat="49.85756" lon="4.78131">
        <ele>255</ele>
        <time>2022-09-28T08:12:46.000Z</time>
      </trkpt>
      <trkpt lat="49.85756" lon="4.78132">
        <ele>255</ele>
        <time>2022-09-28T08:12:47.000Z</time>
      </trkpt>
      <trkpt lat="49.85757" lon="4.78134">
        <ele>254</ele>
        <time>2022-09-28T08:12:48.000Z</time>
      </trkpt>
      <trkpt lat="49.85757" lon="4.78134">
        <ele>254</ele>
        <time>2022-09-28T08:12:49.000Z</time>
      </trkpt>
      <trkpt lat="49.85757" lon="4.78135">
        <ele>254</ele>
        <time>2022-09-28T08:12:50.000Z</time>
      </trkpt>
      <trkpt lat="49.85757" lon="4.78138">
        <ele>254</ele>
        <time>2022-09-28T08:12:51.000Z</time>
      </trkpt>
      <trkpt lat="49.85757" lon="4.78141">
        <ele>253</ele>
        <time>2022-09-28T08:12:52.000Z</time>
      </trkpt>
      <trkpt lat="49.85756" lon="4.78146">
        <ele>253</ele>
        <time>2022-09-28T08:12:53.000Z</time>
      </trkpt>
      <trkpt lat="49.85754" lon="4.7815">
        <ele>253</ele>
        <time>2022-09-28T08:12:54.000Z</time>
      </trkpt>
      <trkpt lat="49.85753" lon="4.78154">
        <ele>252</ele>
        <time>2022-09-28T08:12:55.000Z</time>
      </trkpt>
      <trkpt lat="49.85752" lon="4.7816">
        <ele>252</ele>
        <time>2022-09-28T08:12:56.000Z</time>
      </trkpt>
      <trkpt lat="49.85752" lon="4.78166">
        <ele>251</ele>
        <time>2022-09-28T08:12:57.000Z</time>
      </trkpt>
      <trkpt lat="49.85752" lon="4.78171">
        <ele>250</ele>
        <time>2022-09-28T08:12:58.000Z</time>
      </trkpt>
      <trkpt lat="49.85753" lon="4.78174">
        <ele>250</ele>
        <time>2022-09-28T08:12:59.000Z</time>
      </trkpt>
      <trkpt lat="49.85755" lon="4.78176">
        <ele>249</ele>
        <time>2022-09-28T08:13:00.000Z</time>
      </trkpt>
      <trkpt lat="49.85757" lon="4.78177">
        <ele>249</ele>
        <time>2022-09-28T08:13:01.000Z</time>
      </trkpt>
      <trkpt lat="49.85759" lon="4.78178">
        <ele>248</ele>
        <time>2022-09-28T08:13:02.000Z</time>
      </trkpt>
      <trkpt lat="49.85761" lon="4.78179">
        <ele>248</ele>
        <time>2022-09-28T08:13:03.000Z</time>
      </trkpt>
      <trkpt lat="49.85763" lon="4.78181">
        <ele>247</ele>
        <time>2022-09-28T08:13:04.000Z</time>
      </trkpt>
      <trkpt lat="49.85765" lon="4.78182">
        <ele>247</ele>
        <time>2022-09-28T08:13:05.000Z</time>
      </trkpt>
      <trkpt lat="49.85767" lon="4.78183">
        <ele>246</ele>
        <time>2022-09-28T08:13:06.000Z</time>
      </trkpt>
      <trkpt lat="49.8577" lon="4.78183">
        <ele>246</ele>
        <time>2022-09-28T08:13:07.000Z</time>
      </trkpt>
      <trkpt lat="49.85773" lon="4.78183">
        <ele>245</ele>
        <time>2022-09-28T08:13:08.000Z</time>
      </trkpt>
      <trkpt lat="49.85775" lon="4.78184">
        <ele>245</ele>
        <time>2022-09-28T08:13:09.000Z</time>
      </trkpt>
      <trkpt lat="49.85778" lon="4.78185">
        <ele>245</ele>
        <time>2022-09-28T08:13:10.000Z</time>
      </trkpt>
      <trkpt lat="49.8578" lon="4.78186">
        <ele>244</ele>
        <time>2022-09-28T08:13:11.000Z</time>
      </trkpt>
      <trkpt lat="49.85782" lon="4.78187">
        <ele>244</ele>
        <time>2022-09-28T08:13:12.000Z</time>
      </trkpt>
      <trkpt lat="49.85784" lon="4.78189">
        <ele>243</ele>
        <time>2022-09-28T08:13:13.000Z</time>
      </trkpt>
      <trkpt lat="49.85786" lon="4.78192">
        <ele>243</ele>
        <time>2022-09-28T08:13:14.000Z</time>
      </trkpt>
      <trkpt lat="49.85788" lon="4.78194">
        <ele>242</ele>
        <time>2022-09-28T08:13:15.000Z</time>
      </trkpt>
      <trkpt lat="49.85789" lon="4.78197">
        <ele>242</ele>
        <time>2022-09-28T08:13:16.000Z</time>
      </trkpt>
      <trkpt lat="49.85791" lon="4.782">
        <ele>241</ele>
        <time>2022-09-28T08:13:17.000Z</time>
      </trkpt>
      <trkpt lat="49.85793" lon="4.78202">
        <ele>241</ele>
        <time>2022-09-28T08:13:18.000Z</time>
      </trkpt>
      <trkpt lat="49.85794" lon="4.78203">
        <ele>241</ele>
        <time>2022-09-28T08:13:19.000Z</time>
      </trkpt>
      <trkpt lat="49.85795" lon="4.78203">
        <ele>240</ele>
        <time>2022-09-28T08:13:20.000Z</time>
      </trkpt>
      <trkpt lat="49.85796" lon="4.78203">
        <ele>240</ele>
        <time>2022-09-28T08:13:21.000Z</time>
      </trkpt>
      <trkpt lat="49.85796" lon="4.78204">
        <ele>240</ele>
        <time>2022-09-28T08:13:22.000Z</time>
      </trkpt>
      <trkpt lat="49.85797" lon="4.78204">
        <ele>239</ele>
        <time>2022-09-28T08:13:23.000Z</time>
      </trkpt>
      <trkpt lat="49.85797" lon="4.78205">
        <ele>239</ele>
        <time>2022-09-28T08:13:24.000Z</time>
      </trkpt>
      <trkpt lat="49.85797" lon="4.78205">
        <ele>239</ele>
        <time>2022-09-28T08:13:25.000Z</time>
      </trkpt>
      <trkpt lat="49.85798" lon="4.78204">
        <ele>239</ele>
        <time>2022-09-28T08:13:26.000Z</time>
      </trkpt>
      <trkpt lat="49.85798" lon="4.78204">
        <ele>238</ele>
        <time>2022-09-28T08:13:27.000Z</time>
      </trkpt>
      <trkpt lat="49.85798" lon="4.78205">
        <ele>238</ele>
        <time>2022-09-28T08:13:28.000Z</time>
      </trkpt>
      <trkpt lat="49.85798" lon="4.78205">
        <ele>238</ele>
        <time>2022-09-28T08:13:29.000Z</time>
      </trkpt>
      <trkpt lat="49.85798" lon="4.78205">
        <ele>238</ele>
        <time>2022-09-28T08:13:30.000Z</time>
      </trkpt>
      <trkpt lat="49.85798" lon="4.78205">
        <ele>238</ele>
        <time>2022-09-28T08:13:31.000Z</time>
      </trkpt>
      <trkpt lat="49.85798" lon="4.78206">
        <ele>237</ele>
        <time>2022-09-28T08:13:32.000Z</time>
      </trkpt>
      <trkpt lat="49.85798" lon="4.78208">
        <ele>237</ele>
        <time>2022-09-28T08:13:33.000Z</time>
      </trkpt>
      <trkpt lat="49.85799" lon="4.7821">
        <ele>237</ele>
        <time>2022-09-28T08:13:34.000Z</time>
      </trkpt>
      <trkpt lat="49.858" lon="4.78212">
        <ele>237</ele>
        <time>2022-09-28T08:13:35.000Z</time>
      </trkpt>
      <trkpt lat="49.85801" lon="4.78215">
        <ele>237</ele>
        <time>2022-09-28T08:13:36.000Z</time>
      </trkpt>
      <trkpt lat="49.85803" lon="4.78217">
        <ele>236</ele>
        <time>2022-09-28T08:13:37.000Z</time>
      </trkpt>
      <trkpt lat="49.85805" lon="4.7822">
        <ele>236</ele>
        <time>2022-09-28T08:13:38.000Z</time>
      </trkpt>
      <trkpt lat="49.85807" lon="4.78223">
        <ele>236</ele>
        <time>2022-09-28T08:13:39.000Z</time>
      </trkpt>
      <trkpt lat="49.8581" lon="4.78226">
        <ele>235</ele>
        <time>2022-09-28T08:13:40.000Z</time>
      </trkpt>
      <trkpt lat="49.85812" lon="4.78229">
        <ele>235</ele>
        <time>2022-09-28T08:13:41.000Z</time>
      </trkpt>
      <trkpt lat="49.85815" lon="4.78233">
        <ele>235</ele>
        <time>2022-09-28T08:13:42.000Z</time>
      </trkpt>
      <trkpt lat="49.85817" lon="4.78236">
        <ele>234</ele>
        <time>2022-09-28T08:13:43.000Z</time>
      </trkpt>
      <trkpt lat="49.8582" lon="4.7824">
        <ele>234</ele>
        <time>2022-09-28T08:13:44.000Z</time>
      </trkpt>
      <trkpt lat="49.85822" lon="4.78245">
        <ele>233</ele>
        <time>2022-09-28T08:13:45.000Z</time>
      </trkpt>
      <trkpt lat="49.85824" lon="4.78249">
        <ele>233</ele>
        <time>2022-09-28T08:13:46.000Z</time>
      </trkpt>
      <trkpt lat="49.85826" lon="4.78253">
        <ele>232</ele>
        <time>2022-09-28T08:13:47.000Z</time>
      </trkpt>
      <trkpt lat="49.85828" lon="4.78256">
        <ele>231</ele>
        <time>2022-09-28T08:13:48.000Z</time>
      </trkpt>
      <trkpt lat="49.8583" lon="4.78259">
        <ele>231</ele>
        <time>2022-09-28T08:13:49.000Z</time>
      </trkpt>
      <trkpt lat="49.85832" lon="4.78262">
        <ele>230</ele>
        <time>2022-09-28T08:13:50.000Z</time>
      </trkpt>
      <trkpt lat="49.85834" lon="4.78263">
        <ele>230</ele>
        <time>2022-09-28T08:13:51.000Z</time>
      </trkpt>
      <trkpt lat="49.85837" lon="4.78265">
        <ele>229</ele>
        <time>2022-09-28T08:13:52.000Z</time>
      </trkpt>
      <trkpt lat="49.85839" lon="4.78266">
        <ele>228</ele>
        <time>2022-09-28T08:13:53.000Z</time>
      </trkpt>
      <trkpt lat="49.85841" lon="4.78268">
        <ele>227</ele>
        <time>2022-09-28T08:13:54.000Z</time>
      </trkpt>
      <trkpt lat="49.85843" lon="4.7827">
        <ele>227</ele>
        <time>2022-09-28T08:13:55.000Z</time>
      </trkpt>
      <trkpt lat="49.85844" lon="4.78272">
        <ele>226</ele>
        <time>2022-09-28T08:13:56.000Z</time>
      </trkpt>
      <trkpt lat="49.85845" lon="4.78273">
        <ele>225</ele>
        <time>2022-09-28T08:13:57.000Z</time>
      </trkpt>
      <trkpt lat="49.85846" lon="4.78273">
        <ele>225</ele>
        <time>2022-09-28T08:13:58.000Z</time>
      </trkpt>
      <trkpt lat="49.85848" lon="4.78275">
        <ele>224</ele>
        <time>2022-09-28T08:13:59.000Z</time>
      </trkpt>
      <trkpt lat="49.85849" lon="4.78278">
        <ele>223</ele>
        <time>2022-09-28T08:14:00.000Z</time>
      </trkpt>
      <trkpt lat="49.85851" lon="4.7828">
        <ele>222</ele>
        <time>2022-09-28T08:14:01.000Z</time>
      </trkpt>
      <trkpt lat="49.85852" lon="4.78282">
        <ele>222</ele>
        <time>2022-09-28T08:14:02.000Z</time>
      </trkpt>
      <trkpt lat="49.85854" lon="4.78284">
        <ele>221</ele>
        <time>2022-09-28T08:14:03.000Z</time>
      </trkpt>
      <trkpt lat="49.85855" lon="4.78286">
        <ele>220</ele>
        <time>2022-09-28T08:14:04.000Z</time>
      </trkpt>
      <trkpt lat="49.85856" lon="4.78286">
        <ele>220</ele>
        <time>2022-09-28T08:14:05.000Z</time>
      </trkpt>
      <trkpt lat="49.85857" lon="4.78286">
        <ele>219</ele>
        <time>2022-09-28T08:14:06.000Z</time>
      </trkpt>
      <trkpt lat="49.85857" lon="4.78286">
        <ele>219</ele>
        <time>2022-09-28T08:14:07.000Z</time>
      </trkpt>
      <trkpt lat="49.85857" lon="4.78286">
        <ele>218</ele>
        <time>2022-09-28T08:14:08.000Z</time>
      </trkpt>
      <trkpt lat="49.85857" lon="4.78287">
        <ele>218</ele>
        <time>2022-09-28T08:14:09.000Z</time>
      </trkpt>
      <trkpt lat="49.85858" lon="4.78288">
        <ele>217</ele>
        <time>2022-09-28T08:14:10.000Z</time>
      </trkpt>
      <trkpt lat="49.85859" lon="4.78288">
        <ele>216</ele>
        <time>2022-09-28T08:14:11.000Z</time>
      </trkpt>
      <trkpt lat="49.85859" lon="4.78288">
        <ele>216</ele>
        <time>2022-09-28T08:14:12.000Z</time>
      </trkpt>
      <trkpt lat="49.85859" lon="4.78288">
        <ele>215</ele>
        <time>2022-09-28T08:14:13.000Z</time>
      </trkpt>
      <trkpt lat="49.8586" lon="4.78289">
        <ele>215</ele>
        <time>2022-09-28T08:14:14.000Z</time>
      </trkpt>
      <trkpt lat="49.85861" lon="4.7829">
        <ele>214</ele>
        <time>2022-09-28T08:14:15.000Z</time>
      </trkpt>
      <trkpt lat="49.85863" lon="4.78292">
        <ele>214</ele>
        <time>2022-09-28T08:14:16.000Z</time>
      </trkpt>
      <trkpt lat="49.85864" lon="4.78294">
        <ele>213</ele>
        <time>2022-09-28T08:14:17.000Z</time>
      </trkpt>
      <trkpt lat="49.85867" lon="4.78296">
        <ele>213</ele>
        <time>2022-09-28T08:14:18.000Z</time>
      </trkpt>
      <trkpt lat="49.85869" lon="4.78298">
        <ele>212</ele>
        <time>2022-09-28T08:14:19.000Z</time>
      </trkpt>
      <trkpt lat="49.85872" lon="4.78301">
        <ele>212</ele>
        <time>2022-09-28T08:14:20.000Z</time>
      </trkpt>
      <trkpt lat="49.85874" lon="4.78304">
        <ele>212</ele>
        <time>2022-09-28T08:14:21.000Z</time>
      </trkpt>
      <trkpt lat="49.85876" lon="4.78306">
        <ele>211</ele>
        <time>2022-09-28T08:14:22.000Z</time>
      </trkpt>
      <trkpt lat="49.85879" lon="4.78309">
        <ele>211</ele>
        <time>2022-09-28T08:14:23.000Z</time>
      </trkpt>
      <trkpt lat="49.85882" lon="4.78313">
        <ele>210</ele>
        <time>2022-09-28T08:14:24.000Z</time>
      </trkpt>
      <trkpt lat="49.85885" lon="4.78317">
        <ele>210</ele>
        <time>2022-09-28T08:14:25.000Z</time>
      </trkpt>
      <trkpt lat="49.85888" lon="4.7832">
        <ele>209</ele>
        <time>2022-09-28T08:14:26.000Z</time>
      </trkpt>
      <trkpt lat="49.85891" lon="4.78323">
        <ele>209</ele>
        <time>2022-09-28T08:14:27.000Z</time>
      </trkpt>
      <trkpt lat="49.85893" lon="4.78326">
        <ele>209</ele>
        <time>2022-09-28T08:14:28.000Z</time>
      </trkpt>
      <trkpt lat="49.85896" lon="4.78329">
        <ele>208</ele>
        <time>2022-09-28T08:14:29.000Z</time>
      </trkpt>
      <trkpt lat="49.85898" lon="4.78333">
        <ele>207</ele>
        <time>2022-09-28T08:14:30.000Z</time>
      </trkpt>
      <trkpt lat="49.85901" lon="4.78337">
        <ele>207</ele>
        <time>2022-09-28T08:14:31.000Z</time>
      </trkpt>
      <trkpt lat="49.85904" lon="4.78341">
        <ele>206</ele>
        <time>2022-09-28T08:14:32.000Z</time>
      </trkpt>
      <trkpt lat="49.85908" lon="4.78346">
        <ele>206</ele>
        <time>2022-09-28T08:14:33.000Z</time>
      </trkpt>
      <trkpt lat="49.85912" lon="4.7835">
        <ele>205</ele>
        <time>2022-09-28T08:14:34.000Z</time>
      </trkpt>
      <trkpt lat="49.85916" lon="4.78354">
        <ele>204</ele>
        <time>2022-09-28T08:14:35.000Z</time>
      </trkpt>
      <trkpt lat="49.8592" lon="4.78359">
        <ele>203</ele>
        <time>2022-09-28T08:14:36.000Z</time>
      </trkpt>
      <trkpt lat="49.85924" lon="4.78363">
        <ele>203</ele>
        <time>2022-09-28T08:14:37.000Z</time>
      </trkpt>
      <trkpt lat="49.85927" lon="4.78368">
        <ele>202</ele>
        <time>2022-09-28T08:14:38.000Z</time>
      </trkpt>
      <trkpt lat="49.85931" lon="4.78373">
        <ele>201</ele>
        <time>2022-09-28T08:14:39.000Z</time>
      </trkpt>
      <trkpt lat="49.85934" lon="4.78379">
        <ele>200</ele>
        <time>2022-09-28T08:14:40.000Z</time>
      </trkpt>
      <trkpt lat="49.85937" lon="4.78385">
        <ele>199</ele>
        <time>2022-09-28T08:14:41.000Z</time>
      </trkpt>
      <trkpt lat="49.85941" lon="4.78391">
        <ele>198</ele>
        <time>2022-09-28T08:14:42.000Z</time>
      </trkpt>
      <trkpt lat="49.85944" lon="4.78397">
        <ele>197</ele>
        <time>2022-09-28T08:14:43.000Z</time>
      </trkpt>
      <trkpt lat="49.85947" lon="4.78403">
        <ele>196</ele>
        <time>2022-09-28T08:14:44.000Z</time>
      </trkpt>
      <trkpt lat="49.8595" lon="4.78408">
        <ele>195</ele>
        <time>2022-09-28T08:14:45.000Z</time>
      </trkpt>
      <trkpt lat="49.85954" lon="4.78414">
        <ele>194</ele>
        <time>2022-09-28T08:14:46.000Z</time>
      </trkpt>
      <trkpt lat="49.85956" lon="4.78419">
        <ele>193</ele>
        <time>2022-09-28T08:14:47.000Z</time>
      </trkpt>
      <trkpt lat="49.85958" lon="4.78421">
        <ele>192</ele>
        <time>2022-09-28T08:14:48.000Z</time>
      </trkpt>
      <trkpt lat="49.8596" lon="4.78422">
        <ele>191</ele>
        <time>2022-09-28T08:14:49.000Z</time>
      </trkpt>
      <trkpt lat="49.85963" lon="4.78421">
        <ele>189</ele>
        <time>2022-09-28T08:14:50.000Z</time>
      </trkpt>
      <trkpt lat="49.85965" lon="4.7842">
        <ele>188</ele>
        <time>2022-09-28T08:14:51.000Z</time>
      </trkpt>
      <trkpt lat="49.85968" lon="4.78418">
        <ele>187</ele>
        <time>2022-09-28T08:14:52.000Z</time>
      </trkpt>
      <trkpt lat="49.85971" lon="4.78415">
        <ele>186</ele>
        <time>2022-09-28T08:14:53.000Z</time>
      </trkpt>
      <trkpt lat="49.85973" lon="4.78411">
        <ele>185</ele>
        <time>2022-09-28T08:14:54.000Z</time>
      </trkpt>
      <trkpt lat="49.85976" lon="4.78408">
        <ele>183</ele>
        <time>2022-09-28T08:14:55.000Z</time>
      </trkpt>
      <trkpt lat="49.85978" lon="4.78405">
        <ele>182</ele>
        <time>2022-09-28T08:14:56.000Z</time>
      </trkpt>
      <trkpt lat="49.85981" lon="4.78401">
        <ele>181</ele>
        <time>2022-09-28T08:14:57.000Z</time>
      </trkpt>
      <trkpt lat="49.85984" lon="4.78396">
        <ele>180</ele>
        <time>2022-09-28T08:14:58.000Z</time>
      </trkpt>
      <trkpt lat="49.85987" lon="4.78391">
        <ele>179</ele>
        <time>2022-09-28T08:14:59.000Z</time>
      </trkpt>
      <trkpt lat="49.85991" lon="4.78385">
        <ele>178</ele>
        <time>2022-09-28T08:15:00.000Z</time>
      </trkpt>
      <trkpt lat="49.85996" lon="4.7838">
        <ele>177</ele>
        <time>2022-09-28T08:15:01.000Z</time>
      </trkpt>
      <trkpt lat="49.86002" lon="4.78375">
        <ele>176</ele>
        <time>2022-09-28T08:15:02.000Z</time>
      </trkpt>
      <trkpt lat="49.86008" lon="4.78369">
        <ele>175</ele>
        <time>2022-09-28T08:15:03.000Z</time>
      </trkpt>
      <trkpt lat="49.86015" lon="4.78364">
        <ele>174</ele>
        <time>2022-09-28T08:15:04.000Z</time>
      </trkpt>
      <trkpt lat="49.86022" lon="4.78359">
        <ele>173</ele>
        <time>2022-09-28T08:15:05.000Z</time>
      </trkpt>
      <trkpt lat="49.86028" lon="4.78354">
        <ele>173</ele>
        <time>2022-09-28T08:15:06.000Z</time>
      </trkpt>
      <trkpt lat="49.86034" lon="4.78348">
        <ele>172</ele>
        <time>2022-09-28T08:15:07.000Z</time>
      </trkpt>
      <trkpt lat="49.8604" lon="4.78342">
        <ele>171</ele>
        <time>2022-09-28T08:15:08.000Z</time>
      </trkpt>
      <trkpt lat="49.86045" lon="4.78336">
        <ele>170</ele>
        <time>2022-09-28T08:15:09.000Z</time>
      </trkpt>
      <trkpt lat="49.86051" lon="4.7833">
        <ele>170</ele>
        <time>2022-09-28T08:15:10.000Z</time>
      </trkpt>
      <trkpt lat="49.86056" lon="4.78324">
        <ele>169</ele>
        <time>2022-09-28T08:15:11.000Z</time>
      </trkpt>
      <trkpt lat="49.86062" lon="4.78317">
        <ele>169</ele>
        <time>2022-09-28T08:15:12.000Z</time>
      </trkpt>
      <trkpt lat="49.86068" lon="4.78311">
        <ele>168</ele>
        <time>2022-09-28T08:15:13.000Z</time>
      </trkpt>
      <trkpt lat="49.86072" lon="4.78305">
        <ele>168</ele>
        <time>2022-09-28T08:15:14.000Z</time>
      </trkpt>
      <trkpt lat="49.86077" lon="4.78301">
        <ele>167</ele>
        <time>2022-09-28T08:15:15.000Z</time>
      </trkpt>
      <trkpt lat="49.86082" lon="4.78296">
        <ele>167</ele>
        <time>2022-09-28T08:15:16.000Z</time>
      </trkpt>
      <trkpt lat="49.86086" lon="4.78292">
        <ele>166</ele>
        <time>2022-09-28T08:15:17.000Z</time>
      </trkpt>
      <trkpt lat="49.86089" lon="4.78288">
        <ele>166</ele>
        <time>2022-09-28T08:15:18.000Z</time>
      </trkpt>
      <trkpt lat="49.86093" lon="4.78284">
        <ele>166</ele>
        <time>2022-09-28T08:15:19.000Z</time>
      </trkpt>
      <trkpt lat="49.86097" lon="4.78281">
        <ele>165</ele>
        <time>2022-09-28T08:15:20.000Z</time>
      </trkpt>
      <trkpt lat="49.86101" lon="4.78278">
        <ele>165</ele>
        <time>2022-09-28T08:15:21.000Z</time>
      </trkpt>
      <trkpt lat="49.86105" lon="4.78276">
        <ele>164</ele>
        <time>2022-09-28T08:15:22.000Z</time>
      </trkpt>
      <trkpt lat="49.86108" lon="4.78273">
        <ele>164</ele>
        <time>2022-09-28T08:15:23.000Z</time>
      </trkpt>
      <trkpt lat="49.86111" lon="4.78271">
        <ele>164</ele>
        <time>2022-09-28T08:15:24.000Z</time>
      </trkpt>
      <trkpt lat="49.86115" lon="4.78268">
        <ele>163</ele>
        <time>2022-09-28T08:15:25.000Z</time>
      </trkpt>
      <trkpt lat="49.86118" lon="4.78265">
        <ele>163</ele>
        <time>2022-09-28T08:15:26.000Z</time>
      </trkpt>
      <trkpt lat="49.86121" lon="4.78262">
        <ele>163</ele>
        <time>2022-09-28T08:15:27.000Z</time>
      </trkpt>
      <trkpt lat="49.86124" lon="4.78259">
        <ele>163</ele>
        <time>2022-09-28T08:15:28.000Z</time>
      </trkpt>
      <trkpt lat="49.86127" lon="4.78257">
        <ele>163</ele>
        <time>2022-09-28T08:15:29.000Z</time>
      </trkpt>
      <trkpt lat="49.8613" lon="4.78254">
        <ele>162</ele>
        <time>2022-09-28T08:15:30.000Z</time>
      </trkpt>
      <trkpt lat="49.86133" lon="4.78252">
        <ele>162</ele>
        <time>2022-09-28T08:15:31.000Z</time>
      </trkpt>
      <trkpt lat="49.86136" lon="4.78249">
        <ele>162</ele>
        <time>2022-09-28T08:15:32.000Z</time>
      </trkpt>
      <trkpt lat="49.86139" lon="4.78247">
        <ele>162</ele>
        <time>2022-09-28T08:15:33.000Z</time>
      </trkpt>
      <trkpt lat="49.86142" lon="4.78246">
        <ele>162</ele>
        <time>2022-09-28T08:15:34.000Z</time>
      </trkpt>
      <trkpt lat="49.86144" lon="4.78244">
        <ele>161</ele>
        <time>2022-09-28T08:15:35.000Z</time>
      </trkpt>
      <trkpt lat="49.86148" lon="4.78242">
        <ele>161</ele>
        <time>2022-09-28T08:15:36.000Z</time>
      </trkpt>
      <trkpt lat="49.86151" lon="4.78239">
        <ele>161</ele>
        <time>2022-09-28T08:15:37.000Z</time>
      </trkpt>
      <trkpt lat="49.86156" lon="4.78236">
        <ele>161</ele>
        <time>2022-09-28T08:15:38.000Z</time>
      </trkpt>
      <trkpt lat="49.8616" lon="4.78234">
        <ele>161</ele>
        <time>2022-09-28T08:15:39.000Z</time>
      </trkpt>
      <trkpt lat="49.86166" lon="4.78232">
        <ele>161</ele>
        <time>2022-09-28T08:15:40.000Z</time>
      </trkpt>
      <trkpt lat="49.86172" lon="4.7823">
        <ele>160</ele>
        <time>2022-09-28T08:15:41.000Z</time>
      </trkpt>
      <trkpt lat="49.86178" lon="4.78229">
        <ele>160</ele>
        <time>2022-09-28T08:15:42.000Z</time>
      </trkpt>
      <trkpt lat="49.86185" lon="4.78228">
        <ele>160</ele>
        <time>2022-09-28T08:15:43.000Z</time>
      </trkpt>
      <trkpt lat="49.86192" lon="4.78227">
        <ele>160</ele>
        <time>2022-09-28T08:15:44.000Z</time>
      </trkpt>
      <trkpt lat="49.86199" lon="4.78226">
        <ele>160</ele>
        <time>2022-09-28T08:15:45.000Z</time>
      </trkpt>
      <trkpt lat="49.86204" lon="4.78226">
        <ele>160</ele>
        <time>2022-09-28T08:15:46.000Z</time>
      </trkpt>
      <trkpt lat="49.8621" lon="4.78225">
        <ele>160</ele>
        <time>2022-09-28T08:15:47.000Z</time>
      </trkpt>
      <trkpt lat="49.86215" lon="4.78226">
        <ele>159</ele>
        <time>2022-09-28T08:15:48.000Z</time>
      </trkpt>
      <trkpt lat="49.8622" lon="4.78226">
        <ele>159</ele>
        <time>2022-09-28T08:15:49.000Z</time>
      </trkpt>
      <trkpt lat="49.86225" lon="4.78225">
        <ele>159</ele>
        <time>2022-09-28T08:15:50.000Z</time>
      </trkpt>
      <trkpt lat="49.86231" lon="4.78224">
        <ele>159</ele>
        <time>2022-09-28T08:15:51.000Z</time>
      </trkpt>
      <trkpt lat="49.86236" lon="4.78223">
        <ele>159</ele>
        <time>2022-09-28T08:15:52.000Z</time>
      </trkpt>
      <trkpt lat="49.86241" lon="4.78222">
        <ele>159</ele>
        <time>2022-09-28T08:15:53.000Z</time>
      </trkpt>
      <trkpt lat="49.86246" lon="4.78221">
        <ele>159</ele>
        <time>2022-09-28T08:15:54.000Z</time>
      </trkpt>
      <trkpt lat="49.8625" lon="4.7822">
        <ele>159</ele>
        <time>2022-09-28T08:15:55.000Z</time>
      </trkpt>
      <trkpt lat="49.86254" lon="4.78218">
        <ele>159</ele>
        <time>2022-09-28T08:15:56.000Z</time>
      </trkpt>
      <trkpt lat="49.86257" lon="4.78215">
        <ele>159</ele>
        <time>2022-09-28T08:15:57.000Z</time>
      </trkpt>
      <trkpt lat="49.8626" lon="4.78213">
        <ele>159</ele>
        <time>2022-09-28T08:15:58.000Z</time>
      </trkpt>
      <trkpt lat="49.86264" lon="4.78211">
        <ele>158</ele>
        <time>2022-09-28T08:15:59.000Z</time>
      </trkpt>
      <trkpt lat="49.86267" lon="4.78209">
        <ele>158</ele>
        <time>2022-09-28T08:16:00.000Z</time>
      </trkpt>
      <trkpt lat="49.8627" lon="4.78207">
        <ele>158</ele>
        <time>2022-09-28T08:16:01.000Z</time>
      </trkpt>
      <trkpt lat="49.86275" lon="4.78204">
        <ele>158</ele>
        <time>2022-09-28T08:16:02.000Z</time>
      </trkpt>
      <trkpt lat="49.86279" lon="4.78202">
        <ele>157</ele>
        <time>2022-09-28T08:16:03.000Z</time>
      </trkpt>
      <trkpt lat="49.86283" lon="4.782">
        <ele>157</ele>
        <time>2022-09-28T08:16:04.000Z</time>
      </trkpt>
      <trkpt lat="49.86287" lon="4.78198">
        <ele>157</ele>
        <time>2022-09-28T08:16:05.000Z</time>
      </trkpt>
      <trkpt lat="49.86291" lon="4.78196">
        <ele>157</ele>
        <time>2022-09-28T08:16:06.000Z</time>
      </trkpt>
      <trkpt lat="49.86296" lon="4.78194">
        <ele>156</ele>
        <time>2022-09-28T08:16:07.000Z</time>
      </trkpt>
      <trkpt lat="49.86302" lon="4.78191">
        <ele>156</ele>
        <time>2022-09-28T08:16:08.000Z</time>
      </trkpt>
      <trkpt lat="49.86308" lon="4.78188">
        <ele>156</ele>
        <time>2022-09-28T08:16:09.000Z</time>
      </trkpt>
      <trkpt lat="49.86314" lon="4.78185">
        <ele>156</ele>
        <time>2022-09-28T08:16:10.000Z</time>
      </trkpt>
      <trkpt lat="49.86321" lon="4.78182">
        <ele>156</ele>
        <time>2022-09-28T08:16:11.000Z</time>
      </trkpt>
      <trkpt lat="49.86327" lon="4.78179">
        <ele>156</ele>
        <time>2022-09-28T08:16:12.000Z</time>
      </trkpt>
      <trkpt lat="49.86333" lon="4.78176">
        <ele>156</ele>
        <time>2022-09-28T08:16:13.000Z</time>
      </trkpt>
      <trkpt lat="49.86338" lon="4.78172">
        <ele>155</ele>
        <time>2022-09-28T08:16:14.000Z</time>
      </trkpt>
      <trkpt lat="49.86344" lon="4.78169">
        <ele>155</ele>
        <time>2022-09-28T08:16:15.000Z</time>
      </trkpt>
      <trkpt lat="49.86349" lon="4.78166">
        <ele>155</ele>
        <time>2022-09-28T08:16:16.000Z</time>
      </trkpt>
      <trkpt lat="49.86355" lon="4.78163">
        <ele>155</ele>
        <time>2022-09-28T08:16:17.000Z</time>
      </trkpt>
      <trkpt lat="49.8636" lon="4.7816">
        <ele>155</ele>
        <time>2022-09-28T08:16:18.000Z</time>
      </trkpt>
      <trkpt lat="49.86366" lon="4.78158">
        <ele>155</ele>
        <time>2022-09-28T08:16:19.000Z</time>
      </trkpt>
      <trkpt lat="49.86371" lon="4.78155">
        <ele>155</ele>
        <time>2022-09-28T08:16:20.000Z</time>
      </trkpt>
      <trkpt lat="49.86377" lon="4.78152">
        <ele>154</ele>
        <time>2022-09-28T08:16:21.000Z</time>
      </trkpt>
      <trkpt lat="49.86383" lon="4.78149">
        <ele>154</ele>
        <time>2022-09-28T08:16:22.000Z</time>
      </trkpt>
      <trkpt lat="49.86389" lon="4.78146">
        <ele>154</ele>
        <time>2022-09-28T08:16:23.000Z</time>
      </trkpt>
      <trkpt lat="49.86395" lon="4.78144">
        <ele>154</ele>
        <time>2022-09-28T08:16:24.000Z</time>
      </trkpt>
      <trkpt lat="49.86401" lon="4.78141">
        <ele>154</ele>
        <time>2022-09-28T08:16:25.000Z</time>
      </trkpt>
      <trkpt lat="49.86407" lon="4.78138">
        <ele>154</ele>
        <time>2022-09-28T08:16:26.000Z</time>
      </trkpt>
      <trkpt lat="49.86413" lon="4.78136">
        <ele>154</ele>
        <time>2022-09-28T08:16:27.000Z</time>
      </trkpt>
      <trkpt lat="49.86418" lon="4.78134">
        <ele>153</ele>
        <time>2022-09-28T08:16:28.000Z</time>
      </trkpt>
      <trkpt lat="49.86424" lon="4.78132">
        <ele>153</ele>
        <time>2022-09-28T08:16:29.000Z</time>
      </trkpt>
      <trkpt lat="49.86429" lon="4.78131">
        <ele>153</ele>
        <time>2022-09-28T08:16:30.000Z</time>
      </trkpt>
      <trkpt lat="49.86434" lon="4.78129">
        <ele>153</ele>
        <time>2022-09-28T08:16:31.000Z</time>
      </trkpt>
      <trkpt lat="49.86439" lon="4.78127">
        <ele>153</ele>
        <time>2022-09-28T08:16:32.000Z</time>
      </trkpt>
      <trkpt lat="49.86444" lon="4.78126">
        <ele>153</ele>
        <time>2022-09-28T08:16:33.000Z</time>
      </trkpt>
      <trkpt lat="49.8645" lon="4.78124">
        <ele>153</ele>
        <time>2022-09-28T08:16:34.000Z</time>
      </trkpt>
      <trkpt lat="49.86455" lon="4.78121">
        <ele>153</ele>
        <time>2022-09-28T08:16:35.000Z</time>
      </trkpt>
      <trkpt lat="49.8646" lon="4.78119">
        <ele>153</ele>
        <time>2022-09-28T08:16:36.000Z</time>
      </trkpt>
      <trkpt lat="49.86465" lon="4.78118">
        <ele>153</ele>
        <time>2022-09-28T08:16:37.000Z</time>
      </trkpt>
      <trkpt lat="49.8647" lon="4.78116">
        <ele>153</ele>
        <time>2022-09-28T08:16:38.000Z</time>
      </trkpt>
      <trkpt lat="49.86476" lon="4.78114">
        <ele>153</ele>
        <time>2022-09-28T08:16:39.000Z</time>
      </trkpt>
      <trkpt lat="49.86481" lon="4.78112">
        <ele>154</ele>
        <time>2022-09-28T08:16:40.000Z</time>
      </trkpt>
      <trkpt lat="49.86487" lon="4.7811">
        <ele>154</ele>
        <time>2022-09-28T08:16:41.000Z</time>
      </trkpt>
      <trkpt lat="49.86492" lon="4.78107">
        <ele>154</ele>
        <time>2022-09-28T08:16:42.000Z</time>
      </trkpt>
      <trkpt lat="49.86498" lon="4.78106">
        <ele>154</ele>
        <time>2022-09-28T08:16:43.000Z</time>
      </trkpt>
      <trkpt lat="49.86504" lon="4.78104">
        <ele>154</ele>
        <time>2022-09-28T08:16:44.000Z</time>
      </trkpt>
      <trkpt lat="49.86509" lon="4.78103">
        <ele>154</ele>
        <time>2022-09-28T08:16:45.000Z</time>
      </trkpt>
      <trkpt lat="49.86513" lon="4.78102">
        <ele>154</ele>
        <time>2022-09-28T08:16:46.000Z</time>
      </trkpt>
      <trkpt lat="49.86518" lon="4.781">
        <ele>153</ele>
        <time>2022-09-28T08:16:47.000Z</time>
      </trkpt>
      <trkpt lat="49.86523" lon="4.78099">
        <ele>153</ele>
        <time>2022-09-28T08:16:48.000Z</time>
      </trkpt>
      <trkpt lat="49.86527" lon="4.78098">
        <ele>153</ele>
        <time>2022-09-28T08:16:49.000Z</time>
      </trkpt>
      <trkpt lat="49.86532" lon="4.78097">
        <ele>153</ele>
        <time>2022-09-28T08:16:50.000Z</time>
      </trkpt>
      <trkpt lat="49.86537" lon="4.78096">
        <ele>153</ele>
        <time>2022-09-28T08:16:51.000Z</time>
      </trkpt>
      <trkpt lat="49.86542" lon="4.78096">
        <ele>154</ele>
        <time>2022-09-28T08:16:52.000Z</time>
      </trkpt>
      <trkpt lat="49.86547" lon="4.78095">
        <ele>154</ele>
        <time>2022-09-28T08:16:53.000Z</time>
      </trkpt>
      <trkpt lat="49.86552" lon="4.78094">
        <ele>153</ele>
        <time>2022-09-28T08:16:54.000Z</time>
      </trkpt>
      <trkpt lat="49.86557" lon="4.78093">
        <ele>153</ele>
        <time>2022-09-28T08:16:55.000Z</time>
      </trkpt>
      <trkpt lat="49.86563" lon="4.78091">
        <ele>153</ele>
        <time>2022-09-28T08:16:56.000Z</time>
      </trkpt>
      <trkpt lat="49.86568" lon="4.7809">
        <ele>153</ele>
        <time>2022-09-28T08:16:57.000Z</time>
      </trkpt>
      <trkpt lat="49.86573" lon="4.78089">
        <ele>153</ele>
        <time>2022-09-28T08:16:58.000Z</time>
      </trkpt>
      <trkpt lat="49.86579" lon="4.78088">
        <ele>153</ele>
        <time>2022-09-28T08:16:59.000Z</time>
      </trkpt>
      <trkpt lat="49.86585" lon="4.78087">
        <ele>153</ele>
        <time>2022-09-28T08:17:00.000Z</time>
      </trkpt>
      <trkpt lat="49.8659" lon="4.78086">
        <ele>153</ele>
        <time>2022-09-28T08:17:01.000Z</time>
      </trkpt>
      <trkpt lat="49.86596" lon="4.78085">
        <ele>153</ele>
        <time>2022-09-28T08:17:02.000Z</time>
      </trkpt>
      <trkpt lat="49.86602" lon="4.78085">
        <ele>152</ele>
        <time>2022-09-28T08:17:03.000Z</time>
      </trkpt>
      <trkpt lat="49.86606" lon="4.78086">
        <ele>152</ele>
        <time>2022-09-28T08:17:04.000Z</time>
      </trkpt>
      <trkpt lat="49.8661" lon="4.78088">
        <ele>152</ele>
        <time>2022-09-28T08:17:05.000Z</time>
      </trkpt>
      <trkpt lat="49.86614" lon="4.78089">
        <ele>152</ele>
        <time>2022-09-28T08:17:06.000Z</time>
      </trkpt>
      <trkpt lat="49.86618" lon="4.78091">
        <ele>152</ele>
        <time>2022-09-28T08:17:07.000Z</time>
      </trkpt>
      <trkpt lat="49.86624" lon="4.78093">
        <ele>152</ele>
        <time>2022-09-28T08:17:08.000Z</time>
      </trkpt>
      <trkpt lat="49.8663" lon="4.78095">
        <ele>152</ele>
        <time>2022-09-28T08:17:09.000Z</time>
      </trkpt>
      <trkpt lat="49.86636" lon="4.78097">
        <ele>151</ele>
        <time>2022-09-28T08:17:10.000Z</time>
      </trkpt>
      <trkpt lat="49.86642" lon="4.78099">
        <ele>151</ele>
        <time>2022-09-28T08:17:11.000Z</time>
      </trkpt>
      <trkpt lat="49.86648" lon="4.781">
        <ele>151</ele>
        <time>2022-09-28T08:17:12.000Z</time>
      </trkpt>
      <trkpt lat="49.86653" lon="4.78101">
        <ele>151</ele>
        <time>2022-09-28T08:17:13.000Z</time>
      </trkpt>
      <trkpt lat="49.86658" lon="4.78103">
        <ele>151</ele>
        <time>2022-09-28T08:17:14.000Z</time>
      </trkpt>
      <trkpt lat="49.86663" lon="4.78104">
        <ele>151</ele>
        <time>2022-09-28T08:17:15.000Z</time>
      </trkpt>
      <trkpt lat="49.86668" lon="4.78105">
        <ele>151</ele>
        <time>2022-09-28T08:17:16.000Z</time>
      </trkpt>
      <trkpt lat="49.86672" lon="4.78105">
        <ele>151</ele>
        <time>2022-09-28T08:17:17.000Z</time>
      </trkpt>
      <trkpt lat="49.86677" lon="4.78106">
        <ele>151</ele>
        <time>2022-09-28T08:17:18.000Z</time>
      </trkpt>
      <trkpt lat="49.86682" lon="4.78107">
        <ele>151</ele>
        <time>2022-09-28T08:17:19.000Z</time>
      </trkpt>
      <trkpt lat="49.86686" lon="4.78109">
        <ele>151</ele>
        <time>2022-09-28T08:17:20.000Z</time>
      </trkpt>
      <trkpt lat="49.86692" lon="4.78111">
        <ele>151</ele>
        <time>2022-09-28T08:17:21.000Z</time>
      </trkpt>
      <trkpt lat="49.86697" lon="4.78113">
        <ele>150</ele>
        <time>2022-09-28T08:17:22.000Z</time>
      </trkpt>
      <trkpt lat="49.86703" lon="4.78114">
        <ele>150</ele>
        <time>2022-09-28T08:17:23.000Z</time>
      </trkpt>
      <trkpt lat="49.86709" lon="4.78116">
        <ele>150</ele>
        <time>2022-09-28T08:17:24.000Z</time>
      </trkpt>
      <trkpt lat="49.86716" lon="4.78118">
        <ele>150</ele>
        <time>2022-09-28T08:17:25.000Z</time>
      </trkpt>
      <trkpt lat="49.86722" lon="4.78119">
        <ele>150</ele>
        <time>2022-09-28T08:17:26.000Z</time>
      </trkpt>
      <trkpt lat="49.86727" lon="4.7812">
        <ele>150</ele>
        <time>2022-09-28T08:17:27.000Z</time>
      </trkpt>
      <trkpt lat="49.86732" lon="4.7812">
        <ele>150</ele>
        <time>2022-09-28T08:17:28.000Z</time>
      </trkpt>
      <trkpt lat="49.86736" lon="4.78119">
        <ele>150</ele>
        <time>2022-09-28T08:17:29.000Z</time>
      </trkpt>
      <trkpt lat="49.8674" lon="4.78118">
        <ele>150</ele>
        <time>2022-09-28T08:17:30.000Z</time>
      </trkpt>
      <trkpt lat="49.86745" lon="4.78116">
        <ele>151</ele>
        <time>2022-09-28T08:17:31.000Z</time>
      </trkpt>
      <trkpt lat="49.86749" lon="4.78114">
        <ele>151</ele>
        <time>2022-09-28T08:17:32.000Z</time>
      </trkpt>
      <trkpt lat="49.86752" lon="4.78111">
        <ele>151</ele>
        <time>2022-09-28T08:17:33.000Z</time>
      </trkpt>
      <trkpt lat="49.86755" lon="4.78109">
        <ele>151</ele>
        <time>2022-09-28T08:17:34.000Z</time>
      </trkpt>
      <trkpt lat="49.86758" lon="4.78109">
        <ele>151</ele>
        <time>2022-09-28T08:17:35.000Z</time>
      </trkpt>
      <trkpt lat="49.8676" lon="4.78108">
        <ele>151</ele>
        <time>2022-09-28T08:17:36.000Z</time>
      </trkpt>
      <trkpt lat="49.86761" lon="4.78107">
        <ele>151</ele>
        <time>2022-09-28T08:17:37.000Z</time>
      </trkpt>
      <trkpt lat="49.86763" lon="4.78107">
        <ele>151</ele>
        <time>2022-09-28T08:17:38.000Z</time>
      </trkpt>
      <trkpt lat="49.86766" lon="4.78107">
        <ele>151</ele>
        <time>2022-09-28T08:17:39.000Z</time>
      </trkpt>
      <trkpt lat="49.86769" lon="4.78106">
        <ele>151</ele>
        <time>2022-09-28T08:17:40.000Z</time>
      </trkpt>
      <trkpt lat="49.86771" lon="4.78105">
        <ele>151</ele>
        <time>2022-09-28T08:17:41.000Z</time>
      </trkpt>
      <trkpt lat="49.86773" lon="4.78104">
        <ele>151</ele>
        <time>2022-09-28T08:17:42.000Z</time>
      </trkpt>
      <trkpt lat="49.86776" lon="4.78103">
        <ele>151</ele>
        <time>2022-09-28T08:17:43.000Z</time>
      </trkpt>
      <trkpt lat="49.86779" lon="4.78102">
        <ele>151</ele>
        <time>2022-09-28T08:17:44.000Z</time>
      </trkpt>
      <trkpt lat="49.86783" lon="4.781">
        <ele>151</ele>
        <time>2022-09-28T08:17:45.000Z</time>
      </trkpt>
      <trkpt lat="49.86786" lon="4.78099">
        <ele>151</ele>
        <time>2022-09-28T08:17:46.000Z</time>
      </trkpt>
      <trkpt lat="49.86789" lon="4.78098">
        <ele>151</ele>
        <time>2022-09-28T08:17:47.000Z</time>
      </trkpt>
      <trkpt lat="49.86792" lon="4.78097">
        <ele>152</ele>
        <time>2022-09-28T08:17:48.000Z</time>
      </trkpt>
      <trkpt lat="49.86796" lon="4.78096">
        <ele>152</ele>
        <time>2022-09-28T08:17:49.000Z</time>
      </trkpt>
      <trkpt lat="49.86799" lon="4.78095">
        <ele>152</ele>
        <time>2022-09-28T08:17:50.000Z</time>
      </trkpt>
      <trkpt lat="49.86803" lon="4.78094">
        <ele>152</ele>
        <time>2022-09-28T08:17:51.000Z</time>
      </trkpt>
      <trkpt lat="49.86805" lon="4.78093">
        <ele>152</ele>
        <time>2022-09-28T08:17:52.000Z</time>
      </trkpt>
      <trkpt lat="49.86808" lon="4.78092">
        <ele>153</ele>
        <time>2022-09-28T08:17:53.000Z</time>
      </trkpt>
      <trkpt lat="49.8681" lon="4.78092">
        <ele>153</ele>
        <time>2022-09-28T08:17:54.000Z</time>
      </trkpt>
      <trkpt lat="49.86812" lon="4.78091">
        <ele>153</ele>
        <time>2022-09-28T08:17:55.000Z</time>
      </trkpt>
      <trkpt lat="49.86814" lon="4.78091">
        <ele>153</ele>
        <time>2022-09-28T08:17:56.000Z</time>
      </trkpt>
      <trkpt lat="49.86817" lon="4.78091">
        <ele>153</ele>
        <time>2022-09-28T08:17:57.000Z</time>
      </trkpt>
      <trkpt lat="49.8682" lon="4.7809">
        <ele>153</ele>
        <time>2022-09-28T08:17:58.000Z</time>
      </trkpt>
      <trkpt lat="49.86823" lon="4.78089">
        <ele>153</ele>
        <time>2022-09-28T08:17:59.000Z</time>
      </trkpt>
      <trkpt lat="49.86826" lon="4.78088">
        <ele>154</ele>
        <time>2022-09-28T08:18:00.000Z</time>
      </trkpt>
      <trkpt lat="49.86828" lon="4.78088">
        <ele>154</ele>
        <time>2022-09-28T08:18:01.000Z</time>
      </trkpt>
      <trkpt lat="49.86829" lon="4.78089">
        <ele>154</ele>
        <time>2022-09-28T08:18:02.000Z</time>
      </trkpt>
      <trkpt lat="49.86831" lon="4.78088">
        <ele>154</ele>
        <time>2022-09-28T08:18:03.000Z</time>
      </trkpt>
      <trkpt lat="49.86833" lon="4.78087">
        <ele>154</ele>
        <time>2022-09-28T08:18:04.000Z</time>
      </trkpt>
      <trkpt lat="49.86836" lon="4.78086">
        <ele>155</ele>
        <time>2022-09-28T08:18:05.000Z</time>
      </trkpt>
      <trkpt lat="49.86838" lon="4.78086">
        <ele>155</ele>
        <time>2022-09-28T08:18:06.000Z</time>
      </trkpt>
      <trkpt lat="49.8684" lon="4.78084">
        <ele>155</ele>
        <time>2022-09-28T08:18:07.000Z</time>
      </trkpt>
      <trkpt lat="49.86841" lon="4.78083">
        <ele>155</ele>
        <time>2022-09-28T08:18:08.000Z</time>
      </trkpt>
      <trkpt lat="49.86842" lon="4.78082">
        <ele>155</ele>
        <time>2022-09-28T08:18:09.000Z</time>
      </trkpt>
      <trkpt lat="49.86842" lon="4.78081">
        <ele>155</ele>
        <time>2022-09-28T08:18:10.000Z</time>
      </trkpt>
      <trkpt lat="49.86842" lon="4.78081">
        <ele>155</ele>
        <time>2022-09-28T08:18:11.000Z</time>
      </trkpt>
      <trkpt lat="49.86841" lon="4.7808">
        <ele>155</ele>
        <time>2022-09-28T08:18:12.000Z</time>
      </trkpt>
      <trkpt lat="49.86841" lon="4.78079">
        <ele>156</ele>
        <time>2022-09-28T08:18:13.000Z</time>
      </trkpt>
      <trkpt lat="49.8684" lon="4.78078">
        <ele>156</ele>
        <time>2022-09-28T08:18:14.000Z</time>
      </trkpt>
      <trkpt lat="49.86839" lon="4.78078">
        <ele>156</ele>
        <time>2022-09-28T08:18:15.000Z</time>
      </trkpt>
      <trkpt lat="49.86838" lon="4.78077">
        <ele>156</ele>
        <time>2022-09-28T08:18:16.000Z</time>
      </trkpt>
      <trkpt lat="49.86838" lon="4.78077">
        <ele>156</ele>
        <time>2022-09-28T08:18:17.000Z</time>
      </trkpt>
      <trkpt lat="49.86836" lon="4.78077">
        <ele>156</ele>
        <time>2022-09-28T08:18:18.000Z</time>
      </trkpt>
      <trkpt lat="49.86835" lon="4.78077">
        <ele>157</ele>
        <time>2022-09-28T08:18:19.000Z</time>
      </trkpt>
      <trkpt lat="49.86834" lon="4.78077">
        <ele>157</ele>
        <time>2022-09-28T08:18:20.000Z</time>
      </trkpt>
      <trkpt lat="49.86833" lon="4.78077">
        <ele>158</ele>
        <time>2022-09-28T08:18:21.000Z</time>
      </trkpt>
      <trkpt lat="49.86832" lon="4.78077">
        <ele>158</ele>
        <time>2022-09-28T08:18:22.000Z</time>
      </trkpt>
      <trkpt lat="49.86832" lon="4.78076">
        <ele>158</ele>
        <time>2022-09-28T08:18:23.000Z</time>
      </trkpt>
      <trkpt lat="49.8683" lon="4.78076">
        <ele>158</ele>
        <time>2022-09-28T08:18:24.000Z</time>
      </trkpt>
      <trkpt lat="49.86828" lon="4.78077">
        <ele>158</ele>
        <time>2022-09-28T08:18:25.000Z</time>
      </trkpt>
      <trkpt lat="49.86826" lon="4.78078">
        <ele>159</ele>
        <time>2022-09-28T08:18:26.000Z</time>
      </trkpt>
      <trkpt lat="49.86824" lon="4.78078">
        <ele>159</ele>
        <time>2022-09-28T08:18:27.000Z</time>
      </trkpt>
      <trkpt lat="49.86822" lon="4.78077">
        <ele>159</ele>
        <time>2022-09-28T08:18:28.000Z</time>
      </trkpt>
      <trkpt lat="49.8682" lon="4.78078">
        <ele>159</ele>
        <time>2022-09-28T08:18:29.000Z</time>
      </trkpt>
      <trkpt lat="49.86818" lon="4.78077">
        <ele>159</ele>
        <time>2022-09-28T08:18:30.000Z</time>
      </trkpt>
      <trkpt lat="49.86816" lon="4.78077">
        <ele>160</ele>
        <time>2022-09-28T08:18:31.000Z</time>
      </trkpt>
      <trkpt lat="49.86815" lon="4.78076">
        <ele>160</ele>
        <time>2022-09-28T08:18:32.000Z</time>
      </trkpt>
      <trkpt lat="49.86813" lon="4.78076">
        <ele>160</ele>
        <time>2022-09-28T08:18:33.000Z</time>
      </trkpt>
      <trkpt lat="49.8681" lon="4.78077">
        <ele>160</ele>
        <time>2022-09-28T08:18:34.000Z</time>
      </trkpt>
      <trkpt lat="49.86807" lon="4.78078">
        <ele>161</ele>
        <time>2022-09-28T08:18:35.000Z</time>
      </trkpt>
      <trkpt lat="49.86805" lon="4.78078">
        <ele>161</ele>
        <time>2022-09-28T08:18:36.000Z</time>
      </trkpt>
      <trkpt lat="49.86803" lon="4.78078">
        <ele>161</ele>
        <time>2022-09-28T08:18:37.000Z</time>
      </trkpt>
      <trkpt lat="49.86802" lon="4.78078">
        <ele>161</ele>
        <time>2022-09-28T08:18:38.000Z</time>
      </trkpt>
      <trkpt lat="49.868" lon="4.78078">
        <ele>162</ele>
        <time>2022-09-28T08:18:39.000Z</time>
      </trkpt>
      <trkpt lat="49.86798" lon="4.78078">
        <ele>162</ele>
        <time>2022-09-28T08:18:40.000Z</time>
      </trkpt>
      <trkpt lat="49.86797" lon="4.78078">
        <ele>162</ele>
        <time>2022-09-28T08:18:41.000Z</time>
      </trkpt>
      <trkpt lat="49.86796" lon="4.78078">
        <ele>162</ele>
        <time>2022-09-28T08:18:42.000Z</time>
      </trkpt>
      <trkpt lat="49.86794" lon="4.78076">
        <ele>163</ele>
        <time>2022-09-28T08:18:43.000Z</time>
      </trkpt>
      <trkpt lat="49.86794" lon="4.78073">
        <ele>163</ele>
        <time>2022-09-28T08:18:44.000Z</time>
      </trkpt>
      <trkpt lat="49.86793" lon="4.78071">
        <ele>163</ele>
        <time>2022-09-28T08:18:45.000Z</time>
      </trkpt>
      <trkpt lat="49.86794" lon="4.78068">
        <ele>164</ele>
        <time>2022-09-28T08:18:46.000Z</time>
      </trkpt>
      <trkpt lat="49.86795" lon="4.78067">
        <ele>164</ele>
        <time>2022-09-28T08:18:47.000Z</time>
      </trkpt>
      <trkpt lat="49.86796" lon="4.78066">
        <ele>165</ele>
        <time>2022-09-28T08:18:48.000Z</time>
      </trkpt>
      <trkpt lat="49.86797" lon="4.78065">
        <ele>165</ele>
        <time>2022-09-28T08:18:49.000Z</time>
      </trkpt>
      <trkpt lat="49.86798" lon="4.78064">
        <ele>165</ele>
        <time>2022-09-28T08:18:50.000Z</time>
      </trkpt>
      <trkpt lat="49.86799" lon="4.78064">
        <ele>165</ele>
        <time>2022-09-28T08:18:51.000Z</time>
      </trkpt>
      <trkpt lat="49.86801" lon="4.78063">
        <ele>166</ele>
        <time>2022-09-28T08:18:52.000Z</time>
      </trkpt>
      <trkpt lat="49.86802" lon="4.78063">
        <ele>166</ele>
        <time>2022-09-28T08:18:53.000Z</time>
      </trkpt>
      <trkpt lat="49.86804" lon="4.78062">
        <ele>166</ele>
        <time>2022-09-28T08:18:54.000Z</time>
      </trkpt>
      <trkpt lat="49.86806" lon="4.78061">
        <ele>166</ele>
        <time>2022-09-28T08:18:55.000Z</time>
      </trkpt>
      <trkpt lat="49.86808" lon="4.78061">
        <ele>167</ele>
        <time>2022-09-28T08:18:56.000Z</time>
      </trkpt>
      <trkpt lat="49.86809" lon="4.78061">
        <ele>167</ele>
        <time>2022-09-28T08:18:57.000Z</time>
      </trkpt>
      <trkpt lat="49.86811" lon="4.78061">
        <ele>167</ele>
        <time>2022-09-28T08:18:58.000Z</time>
      </trkpt>
      <trkpt lat="49.86813" lon="4.7806">
        <ele>167</ele>
        <time>2022-09-28T08:18:59.000Z</time>
      </trkpt>
      <trkpt lat="49.86814" lon="4.7806">
        <ele>168</ele>
        <time>2022-09-28T08:19:00.000Z</time>
      </trkpt>
      <trkpt lat="49.86815" lon="4.78059">
        <ele>168</ele>
        <time>2022-09-28T08:19:01.000Z</time>
      </trkpt>
      <trkpt lat="49.86817" lon="4.78059">
        <ele>169</ele>
        <time>2022-09-28T08:19:02.000Z</time>
      </trkpt>
      <trkpt lat="49.86819" lon="4.78058">
        <ele>169</ele>
        <time>2022-09-28T08:19:03.000Z</time>
      </trkpt>
      <trkpt lat="49.8682" lon="4.78059">
        <ele>169</ele>
        <time>2022-09-28T08:19:04.000Z</time>
      </trkpt>
      <trkpt lat="49.86821" lon="4.78059">
        <ele>170</ele>
        <time>2022-09-28T08:19:05.000Z</time>
      </trkpt>
      <trkpt lat="49.86823" lon="4.78059">
        <ele>170</ele>
        <time>2022-09-28T08:19:06.000Z</time>
      </trkpt>
      <trkpt lat="49.86824" lon="4.78057">
        <ele>170</ele>
        <time>2022-09-28T08:19:07.000Z</time>
      </trkpt>
      <trkpt lat="49.86825" lon="4.78056">
        <ele>171</ele>
        <time>2022-09-28T08:19:08.000Z</time>
      </trkpt>
      <trkpt lat="49.86826" lon="4.78056">
        <ele>171</ele>
        <time>2022-09-28T08:19:09.000Z</time>
      </trkpt>
      <trkpt lat="49.86827" lon="4.78055">
        <ele>171</ele>
        <time>2022-09-28T08:19:10.000Z</time>
      </trkpt>
      <trkpt lat="49.86829" lon="4.78055">
        <ele>172</ele>
        <time>2022-09-28T08:19:11.000Z</time>
      </trkpt>
      <trkpt lat="49.8683" lon="4.78055">
        <ele>172</ele>
        <time>2022-09-28T08:19:12.000Z</time>
      </trkpt>
      <trkpt lat="49.86831" lon="4.78054">
        <ele>172</ele>
        <time>2022-09-28T08:19:13.000Z</time>
      </trkpt>
      <trkpt lat="49.86832" lon="4.78054">
        <ele>173</ele>
        <time>2022-09-28T08:19:14.000Z</time>
      </trkpt>
      <trkpt lat="49.86834" lon="4.78054">
        <ele>173</ele>
        <time>2022-09-28T08:19:15.000Z</time>
      </trkpt>
      <trkpt lat="49.86834" lon="4.78053">
        <ele>174</ele>
        <time>2022-09-28T08:19:16.000Z</time>
      </trkpt>
      <trkpt lat="49.86835" lon="4.78053">
        <ele>174</ele>
        <time>2022-09-28T08:19:17.000Z</time>
      </trkpt>
      <trkpt lat="49.86836" lon="4.78053">
        <ele>174</ele>
        <time>2022-09-28T08:19:18.000Z</time>
      </trkpt>
      <trkpt lat="49.86837" lon="4.78052">
        <ele>175</ele>
        <time>2022-09-28T08:19:19.000Z</time>
      </trkpt>
      <trkpt lat="49.86839" lon="4.78051">
        <ele>175</ele>
        <time>2022-09-28T08:19:20.000Z</time>
      </trkpt>
      <trkpt lat="49.86841" lon="4.7805">
        <ele>175</ele>
        <time>2022-09-28T08:19:21.000Z</time>
      </trkpt>
      <trkpt lat="49.86843" lon="4.78049">
        <ele>175</ele>
        <time>2022-09-28T08:19:22.000Z</time>
      </trkpt>
      <trkpt lat="49.86845" lon="4.78048">
        <ele>176</ele>
        <time>2022-09-28T08:19:23.000Z</time>
      </trkpt>
      <trkpt lat="49.86847" lon="4.78047">
        <ele>176</ele>
        <time>2022-09-28T08:19:24.000Z</time>
      </trkpt>
      <trkpt lat="49.86849" lon="4.78047">
        <ele>176</ele>
        <time>2022-09-28T08:19:25.000Z</time>
      </trkpt>
      <trkpt lat="49.86851" lon="4.78046">
        <ele>176</ele>
        <time>2022-09-28T08:19:26.000Z</time>
      </trkpt>
      <trkpt lat="49.86853" lon="4.78046">
        <ele>177</ele>
        <time>2022-09-28T08:19:27.000Z</time>
      </trkpt>
      <trkpt lat="49.86854" lon="4.78045">
        <ele>177</ele>
        <time>2022-09-28T08:19:28.000Z</time>
      </trkpt>
      <trkpt lat="49.86857" lon="4.78044">
        <ele>177</ele>
        <time>2022-09-28T08:19:29.000Z</time>
      </trkpt>
      <trkpt lat="49.86859" lon="4.78044">
        <ele>177</ele>
        <time>2022-09-28T08:19:30.000Z</time>
      </trkpt>
      <trkpt lat="49.8686" lon="4.78044">
        <ele>177</ele>
        <time>2022-09-28T08:19:31.000Z</time>
      </trkpt>
      <trkpt lat="49.86862" lon="4.78043">
        <ele>177</ele>
        <time>2022-09-28T08:19:32.000Z</time>
      </trkpt>
      <trkpt lat="49.86864" lon="4.78042">
        <ele>177</ele>
        <time>2022-09-28T08:19:33.000Z</time>
      </trkpt>
      <trkpt lat="49.86866" lon="4.78041">
        <ele>177</ele>
        <time>2022-09-28T08:19:34.000Z</time>
      </trkpt>
      <trkpt lat="49.86868" lon="4.78039">
        <ele>177</ele>
        <time>2022-09-28T08:19:35.000Z</time>
      </trkpt>
      <trkpt lat="49.86871" lon="4.78037">
        <ele>178</ele>
        <time>2022-09-28T08:19:36.000Z</time>
      </trkpt>
      <trkpt lat="49.86873" lon="4.78036">
        <ele>178</ele>
        <time>2022-09-28T08:19:37.000Z</time>
      </trkpt>
      <trkpt lat="49.86875" lon="4.78035">
        <ele>178</ele>
        <time>2022-09-28T08:19:38.000Z</time>
      </trkpt>
      <trkpt lat="49.86876" lon="4.78035">
        <ele>178</ele>
        <time>2022-09-28T08:19:39.000Z</time>
      </trkpt>
      <trkpt lat="49.86878" lon="4.78034">
        <ele>178</ele>
        <time>2022-09-28T08:19:40.000Z</time>
      </trkpt>
      <trkpt lat="49.8688" lon="4.78032">
        <ele>178</ele>
        <time>2022-09-28T08:19:41.000Z</time>
      </trkpt>
      <trkpt lat="49.86881" lon="4.78031">
        <ele>178</ele>
        <time>2022-09-28T08:19:42.000Z</time>
      </trkpt>
      <trkpt lat="49.86884" lon="4.7803">
        <ele>179</ele>
        <time>2022-09-28T08:19:43.000Z</time>
      </trkpt>
      <trkpt lat="49.86886" lon="4.78029">
        <ele>179</ele>
        <time>2022-09-28T08:19:44.000Z</time>
      </trkpt>
      <trkpt lat="49.86889" lon="4.78028">
        <ele>179</ele>
        <time>2022-09-28T08:19:45.000Z</time>
      </trkpt>
      <trkpt lat="49.8689" lon="4.78027">
        <ele>179</ele>
        <time>2022-09-28T08:19:46.000Z</time>
      </trkpt>
      <trkpt lat="49.86892" lon="4.78026">
        <ele>179</ele>
        <time>2022-09-28T08:19:47.000Z</time>
      </trkpt>
      <trkpt lat="49.86894" lon="4.78025">
        <ele>180</ele>
        <time>2022-09-28T08:19:48.000Z</time>
      </trkpt>
      <trkpt lat="49.86896" lon="4.78025">
        <ele>180</ele>
        <time>2022-09-28T08:19:49.000Z</time>
      </trkpt>
      <trkpt lat="49.86898" lon="4.78024">
        <ele>180</ele>
        <time>2022-09-28T08:19:50.000Z</time>
      </trkpt>
      <trkpt lat="49.86899" lon="4.78024">
        <ele>181</ele>
        <time>2022-09-28T08:19:51.000Z</time>
      </trkpt>
      <trkpt lat="49.86901" lon="4.78023">
        <ele>181</ele>
        <time>2022-09-28T08:19:52.000Z</time>
      </trkpt>
      <trkpt lat="49.86902" lon="4.78023">
        <ele>181</ele>
        <time>2022-09-28T08:19:53.000Z</time>
      </trkpt>
      <trkpt lat="49.86903" lon="4.78022">
        <ele>181</ele>
        <time>2022-09-28T08:19:54.000Z</time>
      </trkpt>
      <trkpt lat="49.86904" lon="4.78022">
        <ele>182</ele>
        <time>2022-09-28T08:19:55.000Z</time>
      </trkpt>
      <trkpt lat="49.86905" lon="4.78021">
        <ele>182</ele>
        <time>2022-09-28T08:19:56.000Z</time>
      </trkpt>
      <trkpt lat="49.86907" lon="4.78021">
        <ele>182</ele>
        <time>2022-09-28T08:19:57.000Z</time>
      </trkpt>
      <trkpt lat="49.86908" lon="4.7802">
        <ele>183</ele>
        <time>2022-09-28T08:19:58.000Z</time>
      </trkpt>
      <trkpt lat="49.8691" lon="4.7802">
        <ele>183</ele>
        <time>2022-09-28T08:19:59.000Z</time>
      </trkpt>
      <trkpt lat="49.86912" lon="4.78021">
        <ele>183</ele>
        <time>2022-09-28T08:20:00.000Z</time>
      </trkpt>
      <trkpt lat="49.86914" lon="4.7802">
        <ele>184</ele>
        <time>2022-09-28T08:20:01.000Z</time>
      </trkpt>
      <trkpt lat="49.86915" lon="4.7802">
        <ele>184</ele>
        <time>2022-09-28T08:20:02.000Z</time>
      </trkpt>
      <trkpt lat="49.86917" lon="4.7802">
        <ele>184</ele>
        <time>2022-09-28T08:20:03.000Z</time>
      </trkpt>
      <trkpt lat="49.86919" lon="4.7802">
        <ele>184</ele>
        <time>2022-09-28T08:20:04.000Z</time>
      </trkpt>
      <trkpt lat="49.86921" lon="4.7802">
        <ele>184</ele>
        <time>2022-09-28T08:20:05.000Z</time>
      </trkpt>
      <trkpt lat="49.86922" lon="4.7802">
        <ele>185</ele>
        <time>2022-09-28T08:20:06.000Z</time>
      </trkpt>
      <trkpt lat="49.86923" lon="4.78021">
        <ele>185</ele>
        <time>2022-09-28T08:20:07.000Z</time>
      </trkpt>
      <trkpt lat="49.86924" lon="4.78021">
        <ele>185</ele>
        <time>2022-09-28T08:20:08.000Z</time>
      </trkpt>
      <trkpt lat="49.86926" lon="4.78021">
        <ele>185</ele>
        <time>2022-09-28T08:20:09.000Z</time>
      </trkpt>
      <trkpt lat="49.86928" lon="4.78021">
        <ele>185</ele>
        <time>2022-09-28T08:20:10.000Z</time>
      </trkpt>
      <trkpt lat="49.8693" lon="4.78021">
        <ele>186</ele>
        <time>2022-09-28T08:20:11.000Z</time>
      </trkpt>
      <trkpt lat="49.86932" lon="4.78021">
        <ele>186</ele>
        <time>2022-09-28T08:20:12.000Z</time>
      </trkpt>
      <trkpt lat="49.86933" lon="4.78022">
        <ele>186</ele>
        <time>2022-09-28T08:20:13.000Z</time>
      </trkpt>
      <trkpt lat="49.86935" lon="4.78022">
        <ele>187</ele>
        <time>2022-09-28T08:20:14.000Z</time>
      </trkpt>
      <trkpt lat="49.86937" lon="4.78022">
        <ele>187</ele>
        <time>2022-09-28T08:20:15.000Z</time>
      </trkpt>
      <trkpt lat="49.86939" lon="4.78022">
        <ele>187</ele>
        <time>2022-09-28T08:20:16.000Z</time>
      </trkpt>
      <trkpt lat="49.86941" lon="4.78022">
        <ele>187</ele>
        <time>2022-09-28T08:20:17.000Z</time>
      </trkpt>
      <trkpt lat="49.86942" lon="4.78021">
        <ele>187</ele>
        <time>2022-09-28T08:20:18.000Z</time>
      </trkpt>
      <trkpt lat="49.86945" lon="4.78021">
        <ele>188</ele>
        <time>2022-09-28T08:20:19.000Z</time>
      </trkpt>
      <trkpt lat="49.86947" lon="4.78021">
        <ele>188</ele>
        <time>2022-09-28T08:20:20.000Z</time>
      </trkpt>
      <trkpt lat="49.86949" lon="4.78021">
        <ele>188</ele>
        <time>2022-09-28T08:20:21.000Z</time>
      </trkpt>
      <trkpt lat="49.86951" lon="4.7802">
        <ele>188</ele>
        <time>2022-09-28T08:20:22.000Z</time>
      </trkpt>
      <trkpt lat="49.86953" lon="4.78021">
        <ele>188</ele>
        <time>2022-09-28T08:20:23.000Z</time>
      </trkpt>
      <trkpt lat="49.86955" lon="4.7802">
        <ele>188</ele>
        <time>2022-09-28T08:20:24.000Z</time>
      </trkpt>
      <trkpt lat="49.86957" lon="4.7802">
        <ele>188</ele>
        <time>2022-09-28T08:20:25.000Z</time>
      </trkpt>
      <trkpt lat="49.86959" lon="4.78021">
        <ele>189</ele>
        <time>2022-09-28T08:20:26.000Z</time>
      </trkpt>
      <trkpt lat="49.86961" lon="4.78022">
        <ele>189</ele>
        <time>2022-09-28T08:20:27.000Z</time>
      </trkpt>
      <trkpt lat="49.86964" lon="4.78022">
        <ele>189</ele>
        <time>2022-09-28T08:20:28.000Z</time>
      </trkpt>
      <trkpt lat="49.86966" lon="4.78022">
        <ele>189</ele>
        <time>2022-09-28T08:20:29.000Z</time>
      </trkpt>
      <trkpt lat="49.86968" lon="4.78022">
        <ele>189</ele>
        <time>2022-09-28T08:20:30.000Z</time>
      </trkpt>
      <trkpt lat="49.8697" lon="4.78022">
        <ele>190</ele>
        <time>2022-09-28T08:20:31.000Z</time>
      </trkpt>
      <trkpt lat="49.86971" lon="4.78022">
        <ele>190</ele>
        <time>2022-09-28T08:20:32.000Z</time>
      </trkpt>
      <trkpt lat="49.86973" lon="4.78022">
        <ele>190</ele>
        <time>2022-09-28T08:20:33.000Z</time>
      </trkpt>
      <trkpt lat="49.86977" lon="4.78021">
        <ele>190</ele>
        <time>2022-09-28T08:20:34.000Z</time>
      </trkpt>
      <trkpt lat="49.86979" lon="4.78021">
        <ele>190</ele>
        <time>2022-09-28T08:20:35.000Z</time>
      </trkpt>
      <trkpt lat="49.86981" lon="4.7802">
        <ele>190</ele>
        <time>2022-09-28T08:20:36.000Z</time>
      </trkpt>
      <trkpt lat="49.86984" lon="4.7802">
        <ele>190</ele>
        <time>2022-09-28T08:20:37.000Z</time>
      </trkpt>
      <trkpt lat="49.86986" lon="4.7802">
        <ele>191</ele>
        <time>2022-09-28T08:20:38.000Z</time>
      </trkpt>
      <trkpt lat="49.86988" lon="4.78019">
        <ele>191</ele>
        <time>2022-09-28T08:20:39.000Z</time>
      </trkpt>
      <trkpt lat="49.86991" lon="4.78018">
        <ele>191</ele>
        <time>2022-09-28T08:20:40.000Z</time>
      </trkpt>
      <trkpt lat="49.86994" lon="4.78018">
        <ele>191</ele>
        <time>2022-09-28T08:20:41.000Z</time>
      </trkpt>
      <trkpt lat="49.86996" lon="4.78018">
        <ele>191</ele>
        <time>2022-09-28T08:20:42.000Z</time>
      </trkpt>
      <trkpt lat="49.86998" lon="4.78018">
        <ele>191</ele>
        <time>2022-09-28T08:20:43.000Z</time>
      </trkpt>
      <trkpt lat="49.86999" lon="4.78018">
        <ele>191</ele>
        <time>2022-09-28T08:20:44.000Z</time>
      </trkpt>
      <trkpt lat="49.87" lon="4.78017">
        <ele>191</ele>
        <time>2022-09-28T08:20:45.000Z</time>
      </trkpt>
      <trkpt lat="49.87001" lon="4.78017">
        <ele>192</ele>
        <time>2022-09-28T08:20:46.000Z</time>
      </trkpt>
      <trkpt lat="49.87002" lon="4.78017">
        <ele>192</ele>
        <time>2022-09-28T08:20:47.000Z</time>
      </trkpt>
      <trkpt lat="49.87003" lon="4.78016">
        <ele>192</ele>
        <time>2022-09-28T08:20:48.000Z</time>
      </trkpt>
      <trkpt lat="49.87002" lon="4.78015">
        <ele>192</ele>
        <time>2022-09-28T08:20:49.000Z</time>
      </trkpt>
      <trkpt lat="49.87002" lon="4.78014">
        <ele>193</ele>
        <time>2022-09-28T08:20:50.000Z</time>
      </trkpt>
      <trkpt lat="49.87002" lon="4.78014">
        <ele>193</ele>
        <time>2022-09-28T08:20:51.000Z</time>
      </trkpt>
      <trkpt lat="49.87001" lon="4.78014">
        <ele>193</ele>
        <time>2022-09-28T08:20:52.000Z</time>
      </trkpt>
      <trkpt lat="49.86999" lon="4.78014">
        <ele>193</ele>
        <time>2022-09-28T08:20:53.000Z</time>
      </trkpt>
      <trkpt lat="49.86998" lon="4.78014">
        <ele>193</ele>
        <time>2022-09-28T08:20:54.000Z</time>
      </trkpt>
      <trkpt lat="49.86996" lon="4.78014">
        <ele>194</ele>
        <time>2022-09-28T08:20:55.000Z</time>
      </trkpt>
      <trkpt lat="49.86995" lon="4.78014">
        <ele>194</ele>
        <time>2022-09-28T08:20:56.000Z</time>
      </trkpt>
      <trkpt lat="49.86994" lon="4.78014">
        <ele>194</ele>
        <time>2022-09-28T08:20:57.000Z</time>
      </trkpt>
      <trkpt lat="49.86992" lon="4.78013">
        <ele>194</ele>
        <time>2022-09-28T08:20:58.000Z</time>
      </trkpt>
      <trkpt lat="49.86991" lon="4.78013">
        <ele>195</ele>
        <time>2022-09-28T08:20:59.000Z</time>
      </trkpt>
      <trkpt lat="49.86989" lon="4.78012">
        <ele>195</ele>
        <time>2022-09-28T08:21:00.000Z</time>
      </trkpt>
      <trkpt lat="49.86988" lon="4.78012">
        <ele>195</ele>
        <time>2022-09-28T08:21:01.000Z</time>
      </trkpt>
      <trkpt lat="49.86987" lon="4.78012">
        <ele>195</ele>
        <time>2022-09-28T08:21:02.000Z</time>
      </trkpt>
      <trkpt lat="49.86985" lon="4.78011">
        <ele>196</ele>
        <time>2022-09-28T08:21:03.000Z</time>
      </trkpt>
      <trkpt lat="49.86983" lon="4.7801">
        <ele>196</ele>
        <time>2022-09-28T08:21:04.000Z</time>
      </trkpt>
      <trkpt lat="49.86982" lon="4.78009">
        <ele>196</ele>
        <time>2022-09-28T08:21:05.000Z</time>
      </trkpt>
      <trkpt lat="49.8698" lon="4.78008">
        <ele>197</ele>
        <time>2022-09-28T08:21:06.000Z</time>
      </trkpt>
      <trkpt lat="49.86978" lon="4.78007">
        <ele>197</ele>
        <time>2022-09-28T08:21:07.000Z</time>
      </trkpt>
      <trkpt lat="49.86976" lon="4.78006">
        <ele>197</ele>
        <time>2022-09-28T08:21:08.000Z</time>
      </trkpt>
      <trkpt lat="49.86974" lon="4.78004">
        <ele>198</ele>
        <time>2022-09-28T08:21:09.000Z</time>
      </trkpt>
      <trkpt lat="49.86972" lon="4.78003">
        <ele>198</ele>
        <time>2022-09-28T08:21:10.000Z</time>
      </trkpt>
      <trkpt lat="49.8697" lon="4.78002">
        <ele>198</ele>
        <time>2022-09-28T08:21:11.000Z</time>
      </trkpt>
      <trkpt lat="49.86969" lon="4.78001">
        <ele>198</ele>
        <time>2022-09-28T08:21:12.000Z</time>
      </trkpt>
      <trkpt lat="49.86967" lon="4.78">
        <ele>198</ele>
        <time>2022-09-28T08:21:13.000Z</time>
      </trkpt>
      <trkpt lat="49.86965" lon="4.77999">
        <ele>199</ele>
        <time>2022-09-28T08:21:14.000Z</time>
      </trkpt>
      <trkpt lat="49.86962" lon="4.77998">
        <ele>199</ele>
        <time>2022-09-28T08:21:15.000Z</time>
      </trkpt>
      <trkpt lat="49.8696" lon="4.77997">
        <ele>199</ele>
        <time>2022-09-28T08:21:16.000Z</time>
      </trkpt>
      <trkpt lat="49.86958" lon="4.77996">
        <ele>199</ele>
        <time>2022-09-28T08:21:17.000Z</time>
      </trkpt>
      <trkpt lat="49.86956" lon="4.77995">
        <ele>199</ele>
        <time>2022-09-28T08:21:18.000Z</time>
      </trkpt>
      <trkpt lat="49.86953" lon="4.77994">
        <ele>199</ele>
        <time>2022-09-28T08:21:19.000Z</time>
      </trkpt>
      <trkpt lat="49.8695" lon="4.77993">
        <ele>200</ele>
        <time>2022-09-28T08:21:20.000Z</time>
      </trkpt>
      <trkpt lat="49.86948" lon="4.77991">
        <ele>200</ele>
        <time>2022-09-28T08:21:21.000Z</time>
      </trkpt>
      <trkpt lat="49.86946" lon="4.7799">
        <ele>200</ele>
        <time>2022-09-28T08:21:22.000Z</time>
      </trkpt>
      <trkpt lat="49.86944" lon="4.77989">
        <ele>200</ele>
        <time>2022-09-28T08:21:23.000Z</time>
      </trkpt>
      <trkpt lat="49.86942" lon="4.77987">
        <ele>200</ele>
        <time>2022-09-28T08:21:24.000Z</time>
      </trkpt>
      <trkpt lat="49.8694" lon="4.77987">
        <ele>200</ele>
        <time>2022-09-28T08:21:25.000Z</time>
      </trkpt>
      <trkpt lat="49.86938" lon="4.77986">
        <ele>200</ele>
        <time>2022-09-28T08:21:26.000Z</time>
      </trkpt>
      <trkpt lat="49.86936" lon="4.77986">
        <ele>200</ele>
        <time>2022-09-28T08:21:27.000Z</time>
      </trkpt>
      <trkpt lat="49.86934" lon="4.77984">
        <ele>201</ele>
        <time>2022-09-28T08:21:28.000Z</time>
      </trkpt>
      <trkpt lat="49.86932" lon="4.77983">
        <ele>201</ele>
        <time>2022-09-28T08:21:29.000Z</time>
      </trkpt>
      <trkpt lat="49.8693" lon="4.77983">
        <ele>201</ele>
        <time>2022-09-28T08:21:30.000Z</time>
      </trkpt>
      <trkpt lat="49.86928" lon="4.77982">
        <ele>201</ele>
        <time>2022-09-28T08:21:31.000Z</time>
      </trkpt>
      <trkpt lat="49.86927" lon="4.77982">
        <ele>201</ele>
        <time>2022-09-28T08:21:32.000Z</time>
      </trkpt>
      <trkpt lat="49.86925" lon="4.77981">
        <ele>201</ele>
        <time>2022-09-28T08:21:33.000Z</time>
      </trkpt>
      <trkpt lat="49.86924" lon="4.7798">
        <ele>202</ele>
        <time>2022-09-28T08:21:34.000Z</time>
      </trkpt>
      <trkpt lat="49.86923" lon="4.7798">
        <ele>202</ele>
        <time>2022-09-28T08:21:35.000Z</time>
      </trkpt>
      <trkpt lat="49.86922" lon="4.77979">
        <ele>202</ele>
        <time>2022-09-28T08:21:36.000Z</time>
      </trkpt>
      <trkpt lat="49.86921" lon="4.77978">
        <ele>202</ele>
        <time>2022-09-28T08:21:37.000Z</time>
      </trkpt>
      <trkpt lat="49.8692" lon="4.77976">
        <ele>203</ele>
        <time>2022-09-28T08:21:38.000Z</time>
      </trkpt>
      <trkpt lat="49.86918" lon="4.77976">
        <ele>203</ele>
        <time>2022-09-28T08:21:39.000Z</time>
      </trkpt>
      <trkpt lat="49.86916" lon="4.77976">
        <ele>203</ele>
        <time>2022-09-28T08:21:40.000Z</time>
      </trkpt>
      <trkpt lat="49.86915" lon="4.77975">
        <ele>203</ele>
        <time>2022-09-28T08:21:41.000Z</time>
      </trkpt>
      <trkpt lat="49.86914" lon="4.77975">
        <ele>204</ele>
        <time>2022-09-28T08:21:42.000Z</time>
      </trkpt>
      <trkpt lat="49.86912" lon="4.77974">
        <ele>204</ele>
        <time>2022-09-28T08:21:43.000Z</time>
      </trkpt>
      <trkpt lat="49.86911" lon="4.77973">
        <ele>204</ele>
        <time>2022-09-28T08:21:44.000Z</time>
      </trkpt>
      <trkpt lat="49.86908" lon="4.77972">
        <ele>205</ele>
        <time>2022-09-28T08:21:45.000Z</time>
      </trkpt>
      <trkpt lat="49.86906" lon="4.77971">
        <ele>205</ele>
        <time>2022-09-28T08:21:46.000Z</time>
      </trkpt>
      <trkpt lat="49.86904" lon="4.7797">
        <ele>205</ele>
        <time>2022-09-28T08:21:47.000Z</time>
      </trkpt>
      <trkpt lat="49.86902" lon="4.77969">
        <ele>206</ele>
        <time>2022-09-28T08:21:48.000Z</time>
      </trkpt>
      <trkpt lat="49.869" lon="4.7797">
        <ele>206</ele>
        <time>2022-09-28T08:21:49.000Z</time>
      </trkpt>
      <trkpt lat="49.86898" lon="4.7797">
        <ele>206</ele>
        <time>2022-09-28T08:21:50.000Z</time>
      </trkpt>
      <trkpt lat="49.86896" lon="4.7797">
        <ele>206</ele>
        <time>2022-09-28T08:21:51.000Z</time>
      </trkpt>
      <trkpt lat="49.86894" lon="4.7797">
        <ele>207</ele>
        <time>2022-09-28T08:21:52.000Z</time>
      </trkpt>
      <trkpt lat="49.86892" lon="4.7797">
        <ele>207</ele>
        <time>2022-09-28T08:21:53.000Z</time>
      </trkpt>
      <trkpt lat="49.8689" lon="4.7797">
        <ele>208</ele>
        <time>2022-09-28T08:21:54.000Z</time>
      </trkpt>
      <trkpt lat="49.86888" lon="4.77968">
        <ele>208</ele>
        <time>2022-09-28T08:21:55.000Z</time>
      </trkpt>
      <trkpt lat="49.86886" lon="4.77967">
        <ele>208</ele>
        <time>2022-09-28T08:21:56.000Z</time>
      </trkpt>
      <trkpt lat="49.86884" lon="4.77965">
        <ele>209</ele>
        <time>2022-09-28T08:21:57.000Z</time>
      </trkpt>
      <trkpt lat="49.86883" lon="4.77964">
        <ele>209</ele>
        <time>2022-09-28T08:21:58.000Z</time>
      </trkpt>
      <trkpt lat="49.86882" lon="4.77964">
        <ele>209</ele>
        <time>2022-09-28T08:21:59.000Z</time>
      </trkpt>
      <trkpt lat="49.8688" lon="4.77964">
        <ele>210</ele>
        <time>2022-09-28T08:22:00.000Z</time>
      </trkpt>
      <trkpt lat="49.86878" lon="4.77964">
        <ele>210</ele>
        <time>2022-09-28T08:22:01.000Z</time>
      </trkpt>
      <trkpt lat="49.86875" lon="4.77963">
        <ele>210</ele>
        <time>2022-09-28T08:22:02.000Z</time>
      </trkpt>
      <trkpt lat="49.86874" lon="4.77963">
        <ele>211</ele>
        <time>2022-09-28T08:22:03.000Z</time>
      </trkpt>
      <trkpt lat="49.86871" lon="4.77962">
        <ele>211</ele>
        <time>2022-09-28T08:22:04.000Z</time>
      </trkpt>
      <trkpt lat="49.86869" lon="4.77961">
        <ele>211</ele>
        <time>2022-09-28T08:22:05.000Z</time>
      </trkpt>
      <trkpt lat="49.86868" lon="4.7796">
        <ele>211</ele>
        <time>2022-09-28T08:22:06.000Z</time>
      </trkpt>
      <trkpt lat="49.86866" lon="4.77959">
        <ele>212</ele>
        <time>2022-09-28T08:22:07.000Z</time>
      </trkpt>
      <trkpt lat="49.86864" lon="4.77958">
        <ele>212</ele>
        <time>2022-09-28T08:22:08.000Z</time>
      </trkpt>
      <trkpt lat="49.86862" lon="4.77957">
        <ele>212</ele>
        <time>2022-09-28T08:22:09.000Z</time>
      </trkpt>
      <trkpt lat="49.86859" lon="4.77956">
        <ele>212</ele>
        <time>2022-09-28T08:22:10.000Z</time>
      </trkpt>
      <trkpt lat="49.86858" lon="4.77956">
        <ele>212</ele>
        <time>2022-09-28T08:22:11.000Z</time>
      </trkpt>
      <trkpt lat="49.86855" lon="4.77955">
        <ele>213</ele>
        <time>2022-09-28T08:22:12.000Z</time>
      </trkpt>
      <trkpt lat="49.86853" lon="4.77955">
        <ele>213</ele>
        <time>2022-09-28T08:22:13.000Z</time>
      </trkpt>
      <trkpt lat="49.8685" lon="4.77955">
        <ele>213</ele>
        <time>2022-09-28T08:22:14.000Z</time>
      </trkpt>
      <trkpt lat="49.86848" lon="4.77955">
        <ele>213</ele>
        <time>2022-09-28T08:22:15.000Z</time>
      </trkpt>
      <trkpt lat="49.86846" lon="4.77955">
        <ele>214</ele>
        <time>2022-09-28T08:22:16.000Z</time>
      </trkpt>
      <trkpt lat="49.86843" lon="4.77954">
        <ele>214</ele>
        <time>2022-09-28T08:22:17.000Z</time>
      </trkpt>
      <trkpt lat="49.86842" lon="4.77954">
        <ele>214</ele>
        <time>2022-09-28T08:22:18.000Z</time>
      </trkpt>
      <trkpt lat="49.8684" lon="4.77954">
        <ele>214</ele>
        <time>2022-09-28T08:22:19.000Z</time>
      </trkpt>
      <trkpt lat="49.86839" lon="4.77954">
        <ele>215</ele>
        <time>2022-09-28T08:22:20.000Z</time>
      </trkpt>
      <trkpt lat="49.86837" lon="4.77953">
        <ele>215</ele>
        <time>2022-09-28T08:22:21.000Z</time>
      </trkpt>
      <trkpt lat="49.86836" lon="4.77953">
        <ele>215</ele>
        <time>2022-09-28T08:22:22.000Z</time>
      </trkpt>
      <trkpt lat="49.86834" lon="4.77952">
        <ele>215</ele>
        <time>2022-09-28T08:22:23.000Z</time>
      </trkpt>
      <trkpt lat="49.86832" lon="4.77952">
        <ele>216</ele>
        <time>2022-09-28T08:22:24.000Z</time>
      </trkpt>
      <trkpt lat="49.8683" lon="4.77952">
        <ele>216</ele>
        <time>2022-09-28T08:22:25.000Z</time>
      </trkpt>
      <trkpt lat="49.86827" lon="4.77952">
        <ele>216</ele>
        <time>2022-09-28T08:22:26.000Z</time>
      </trkpt>
      <trkpt lat="49.86825" lon="4.77952">
        <ele>217</ele>
        <time>2022-09-28T08:22:27.000Z</time>
      </trkpt>
      <trkpt lat="49.86823" lon="4.77952">
        <ele>217</ele>
        <time>2022-09-28T08:22:28.000Z</time>
      </trkpt>
      <trkpt lat="49.86821" lon="4.77951">
        <ele>217</ele>
        <time>2022-09-28T08:22:29.000Z</time>
      </trkpt>
      <trkpt lat="49.86819" lon="4.77952">
        <ele>217</ele>
        <time>2022-09-28T08:22:30.000Z</time>
      </trkpt>
      <trkpt lat="49.86817" lon="4.77952">
        <ele>218</ele>
        <time>2022-09-28T08:22:31.000Z</time>
      </trkpt>
      <trkpt lat="49.86816" lon="4.77952">
        <ele>218</ele>
        <time>2022-09-28T08:22:32.000Z</time>
      </trkpt>
      <trkpt lat="49.86813" lon="4.77952">
        <ele>218</ele>
        <time>2022-09-28T08:22:33.000Z</time>
      </trkpt>
      <trkpt lat="49.86811" lon="4.77953">
        <ele>218</ele>
        <time>2022-09-28T08:22:34.000Z</time>
      </trkpt>
      <trkpt lat="49.8681" lon="4.77951">
        <ele>218</ele>
        <time>2022-09-28T08:22:35.000Z</time>
      </trkpt>
      <trkpt lat="49.86808" lon="4.7795">
        <ele>219</ele>
        <time>2022-09-28T08:22:36.000Z</time>
      </trkpt>
      <trkpt lat="49.86806" lon="4.77949">
        <ele>219</ele>
        <time>2022-09-28T08:22:37.000Z</time>
      </trkpt>
      <trkpt lat="49.86805" lon="4.77948">
        <ele>219</ele>
        <time>2022-09-28T08:22:38.000Z</time>
      </trkpt>
      <trkpt lat="49.86805" lon="4.77948">
        <ele>219</ele>
        <time>2022-09-28T08:22:39.000Z</time>
      </trkpt>
      <trkpt lat="49.86805" lon="4.77948">
        <ele>219</ele>
        <time>2022-09-28T08:22:40.000Z</time>
      </trkpt>
      <trkpt lat="49.86805" lon="4.77947">
        <ele>220</ele>
        <time>2022-09-28T08:22:41.000Z</time>
      </trkpt>
      <trkpt lat="49.86805" lon="4.77946">
        <ele>220</ele>
        <time>2022-09-28T08:22:42.000Z</time>
      </trkpt>
      <trkpt lat="49.86805" lon="4.77946">
        <ele>220</ele>
        <time>2022-09-28T08:22:43.000Z</time>
      </trkpt>
      <trkpt lat="49.86806" lon="4.77945">
        <ele>220</ele>
        <time>2022-09-28T08:22:44.000Z</time>
      </trkpt>
      <trkpt lat="49.86806" lon="4.77945">
        <ele>220</ele>
        <time>2022-09-28T08:22:45.000Z</time>
      </trkpt>
      <trkpt lat="49.86807" lon="4.77944">
        <ele>220</ele>
        <time>2022-09-28T08:22:46.000Z</time>
      </trkpt>
      <trkpt lat="49.86808" lon="4.77943">
        <ele>220</ele>
        <time>2022-09-28T08:22:47.000Z</time>
      </trkpt>
      <trkpt lat="49.86809" lon="4.77942">
        <ele>220</ele>
        <time>2022-09-28T08:22:48.000Z</time>
      </trkpt>
      <trkpt lat="49.8681" lon="4.77942">
        <ele>220</ele>
        <time>2022-09-28T08:22:49.000Z</time>
      </trkpt>
      <trkpt lat="49.86812" lon="4.77942">
        <ele>220</ele>
        <time>2022-09-28T08:22:50.000Z</time>
      </trkpt>
      <trkpt lat="49.86814" lon="4.77942">
        <ele>221</ele>
        <time>2022-09-28T08:22:51.000Z</time>
      </trkpt>
      <trkpt lat="49.86815" lon="4.77941">
        <ele>221</ele>
        <time>2022-09-28T08:22:52.000Z</time>
      </trkpt>
      <trkpt lat="49.86816" lon="4.7794">
        <ele>221</ele>
        <time>2022-09-28T08:22:53.000Z</time>
      </trkpt>
      <trkpt lat="49.86818" lon="4.77939">
        <ele>221</ele>
        <time>2022-09-28T08:22:54.000Z</time>
      </trkpt>
      <trkpt lat="49.8682" lon="4.77938">
        <ele>221</ele>
        <time>2022-09-28T08:22:55.000Z</time>
      </trkpt>
      <trkpt lat="49.86821" lon="4.77938">
        <ele>221</ele>
        <time>2022-09-28T08:22:56.000Z</time>
      </trkpt>
      <trkpt lat="49.86823" lon="4.77938">
        <ele>221</ele>
        <time>2022-09-28T08:22:57.000Z</time>
      </trkpt>
      <trkpt lat="49.86824" lon="4.77938">
        <ele>221</ele>
        <time>2022-09-28T08:22:58.000Z</time>
      </trkpt>
      <trkpt lat="49.86826" lon="4.77939">
        <ele>221</ele>
        <time>2022-09-28T08:22:59.000Z</time>
      </trkpt>
      <trkpt lat="49.86827" lon="4.77938">
        <ele>221</ele>
        <time>2022-09-28T08:23:00.000Z</time>
      </trkpt>
      <trkpt lat="49.86828" lon="4.77938">
        <ele>221</ele>
        <time>2022-09-28T08:23:01.000Z</time>
      </trkpt>
      <trkpt lat="49.86829" lon="4.77938">
        <ele>221</ele>
        <time>2022-09-28T08:23:02.000Z</time>
      </trkpt>
      <trkpt lat="49.8683" lon="4.77937">
        <ele>221</ele>
        <time>2022-09-28T08:23:03.000Z</time>
      </trkpt>
      <trkpt lat="49.86832" lon="4.77937">
        <ele>221</ele>
        <time>2022-09-28T08:23:04.000Z</time>
      </trkpt>
      <trkpt lat="49.86833" lon="4.77936">
        <ele>221</ele>
        <time>2022-09-28T08:23:05.000Z</time>
      </trkpt>
      <trkpt lat="49.86835" lon="4.77936">
        <ele>221</ele>
        <time>2022-09-28T08:23:06.000Z</time>
      </trkpt>
      <trkpt lat="49.86838" lon="4.77935">
        <ele>221</ele>
        <time>2022-09-28T08:23:07.000Z</time>
      </trkpt>
      <trkpt lat="49.8684" lon="4.77936">
        <ele>221</ele>
        <time>2022-09-28T08:23:08.000Z</time>
      </trkpt>
      <trkpt lat="49.86843" lon="4.77936">
        <ele>221</ele>
        <time>2022-09-28T08:23:09.000Z</time>
      </trkpt>
      <trkpt lat="49.86845" lon="4.77936">
        <ele>221</ele>
        <time>2022-09-28T08:23:10.000Z</time>
      </trkpt>
      <trkpt lat="49.86847" lon="4.77936">
        <ele>221</ele>
        <time>2022-09-28T08:23:11.000Z</time>
      </trkpt>
      <trkpt lat="49.8685" lon="4.77936">
        <ele>221</ele>
        <time>2022-09-28T08:23:12.000Z</time>
      </trkpt>
      <trkpt lat="49.86852" lon="4.77935">
        <ele>221</ele>
        <time>2022-09-28T08:23:13.000Z</time>
      </trkpt>
      <trkpt lat="49.86854" lon="4.77935">
        <ele>221</ele>
        <time>2022-09-28T08:23:14.000Z</time>
      </trkpt>
      <trkpt lat="49.86856" lon="4.77935">
        <ele>221</ele>
        <time>2022-09-28T08:23:15.000Z</time>
      </trkpt>
      <trkpt lat="49.86858" lon="4.77935">
        <ele>221</ele>
        <time>2022-09-28T08:23:16.000Z</time>
      </trkpt>
      <trkpt lat="49.8686" lon="4.77935">
        <ele>221</ele>
        <time>2022-09-28T08:23:17.000Z</time>
      </trkpt>
      <trkpt lat="49.86862" lon="4.77935">
        <ele>222</ele>
        <time>2022-09-28T08:23:18.000Z</time>
      </trkpt>
      <trkpt lat="49.86865" lon="4.77936">
        <ele>222</ele>
        <time>2022-09-28T08:23:19.000Z</time>
      </trkpt>
      <trkpt lat="49.86869" lon="4.77935">
        <ele>222</ele>
        <time>2022-09-28T08:23:20.000Z</time>
      </trkpt>
      <trkpt lat="49.86872" lon="4.77935">
        <ele>221</ele>
        <time>2022-09-28T08:23:21.000Z</time>
      </trkpt>
      <trkpt lat="49.86876" lon="4.77935">
        <ele>221</ele>
        <time>2022-09-28T08:23:22.000Z</time>
      </trkpt>
      <trkpt lat="49.86879" lon="4.77935">
        <ele>221</ele>
        <time>2022-09-28T08:23:23.000Z</time>
      </trkpt>
      <trkpt lat="49.86883" lon="4.77935">
        <ele>221</ele>
        <time>2022-09-28T08:23:24.000Z</time>
      </trkpt>
      <trkpt lat="49.86886" lon="4.77935">
        <ele>221</ele>
        <time>2022-09-28T08:23:25.000Z</time>
      </trkpt>
      <trkpt lat="49.8689" lon="4.77935">
        <ele>221</ele>
        <time>2022-09-28T08:23:26.000Z</time>
      </trkpt>
      <trkpt lat="49.86895" lon="4.77934">
        <ele>221</ele>
        <time>2022-09-28T08:23:27.000Z</time>
      </trkpt>
      <trkpt lat="49.86898" lon="4.77934">
        <ele>221</ele>
        <time>2022-09-28T08:23:28.000Z</time>
      </trkpt>
      <trkpt lat="49.86901" lon="4.77933">
        <ele>221</ele>
        <time>2022-09-28T08:23:29.000Z</time>
      </trkpt>
      <trkpt lat="49.86904" lon="4.77932">
        <ele>221</ele>
        <time>2022-09-28T08:23:30.000Z</time>
      </trkpt>
      <trkpt lat="49.86907" lon="4.77933">
        <ele>221</ele>
        <time>2022-09-28T08:23:31.000Z</time>
      </trkpt>
      <trkpt lat="49.86909" lon="4.77933">
        <ele>221</ele>
        <time>2022-09-28T08:23:32.000Z</time>
      </trkpt>
      <trkpt lat="49.86912" lon="4.77935">
        <ele>221</ele>
        <time>2022-09-28T08:23:33.000Z</time>
      </trkpt>
      <trkpt lat="49.86916" lon="4.77936">
        <ele>221</ele>
        <time>2022-09-28T08:23:34.000Z</time>
      </trkpt>
      <trkpt lat="49.86918" lon="4.77936">
        <ele>221</ele>
        <time>2022-09-28T08:23:35.000Z</time>
      </trkpt>
      <trkpt lat="49.86921" lon="4.77937">
        <ele>221</ele>
        <time>2022-09-28T08:23:36.000Z</time>
      </trkpt>
      <trkpt lat="49.86923" lon="4.77938">
        <ele>221</ele>
        <time>2022-09-28T08:23:37.000Z</time>
      </trkpt>
      <trkpt lat="49.86926" lon="4.77938">
        <ele>221</ele>
        <time>2022-09-28T08:23:38.000Z</time>
      </trkpt>
      <trkpt lat="49.86929" lon="4.77939">
        <ele>221</ele>
        <time>2022-09-28T08:23:39.000Z</time>
      </trkpt>
      <trkpt lat="49.86931" lon="4.7794">
        <ele>221</ele>
        <time>2022-09-28T08:23:40.000Z</time>
      </trkpt>
      <trkpt lat="49.86934" lon="4.7794">
        <ele>221</ele>
        <time>2022-09-28T08:23:41.000Z</time>
      </trkpt>
      <trkpt lat="49.86938" lon="4.77941">
        <ele>221</ele>
        <time>2022-09-28T08:23:42.000Z</time>
      </trkpt>
      <trkpt lat="49.86941" lon="4.77941">
        <ele>221</ele>
        <time>2022-09-28T08:23:43.000Z</time>
      </trkpt>
      <trkpt lat="49.86944" lon="4.77942">
        <ele>221</ele>
        <time>2022-09-28T08:23:44.000Z</time>
      </trkpt>
      <trkpt lat="49.86947" lon="4.77943">
        <ele>221</ele>
        <time>2022-09-28T08:23:45.000Z</time>
      </trkpt>
      <trkpt lat="49.8695" lon="4.77944">
        <ele>221</ele>
        <time>2022-09-28T08:23:46.000Z</time>
      </trkpt>
      <trkpt lat="49.86952" lon="4.77944">
        <ele>221</ele>
        <time>2022-09-28T08:23:47.000Z</time>
      </trkpt>
      <trkpt lat="49.86955" lon="4.77944">
        <ele>221</ele>
        <time>2022-09-28T08:23:48.000Z</time>
      </trkpt>
      <trkpt lat="49.86958" lon="4.77945">
        <ele>222</ele>
        <time>2022-09-28T08:23:49.000Z</time>
      </trkpt>
      <trkpt lat="49.8696" lon="4.77945">
        <ele>222</ele>
        <time>2022-09-28T08:23:50.000Z</time>
      </trkpt>
      <trkpt lat="49.86963" lon="4.77946">
        <ele>222</ele>
        <time>2022-09-28T08:23:51.000Z</time>
      </trkpt>
      <trkpt lat="49.86965" lon="4.77946">
        <ele>222</ele>
        <time>2022-09-28T08:23:52.000Z</time>
      </trkpt>
      <trkpt lat="49.86968" lon="4.77947">
        <ele>222</ele>
        <time>2022-09-28T08:23:53.000Z</time>
      </trkpt>
      <trkpt lat="49.86971" lon="4.77947">
        <ele>222</ele>
        <time>2022-09-28T08:23:54.000Z</time>
      </trkpt>
      <trkpt lat="49.86974" lon="4.77947">
        <ele>222</ele>
        <time>2022-09-28T08:23:55.000Z</time>
      </trkpt>
      <trkpt lat="49.86977" lon="4.77948">
        <ele>222</ele>
        <time>2022-09-28T08:23:56.000Z</time>
      </trkpt>
      <trkpt lat="49.8698" lon="4.77949">
        <ele>222</ele>
        <time>2022-09-28T08:23:57.000Z</time>
      </trkpt>
      <trkpt lat="49.86983" lon="4.7795">
        <ele>222</ele>
        <time>2022-09-28T08:23:58.000Z</time>
      </trkpt>
      <trkpt lat="49.86986" lon="4.77951">
        <ele>222</ele>
        <time>2022-09-28T08:23:59.000Z</time>
      </trkpt>
      <trkpt lat="49.86989" lon="4.77952">
        <ele>222</ele>
        <time>2022-09-28T08:24:00.000Z</time>
      </trkpt>
      <trkpt lat="49.86992" lon="4.77952">
        <ele>222</ele>
        <time>2022-09-28T08:24:01.000Z</time>
      </trkpt>
      <trkpt lat="49.86994" lon="4.77952">
        <ele>222</ele>
        <time>2022-09-28T08:24:02.000Z</time>
      </trkpt>
      <trkpt lat="49.86997" lon="4.77952">
        <ele>222</ele>
        <time>2022-09-28T08:24:03.000Z</time>
      </trkpt>
      <trkpt lat="49.87" lon="4.77953">
        <ele>222</ele>
        <time>2022-09-28T08:24:04.000Z</time>
      </trkpt>
      <trkpt lat="49.87003" lon="4.77953">
        <ele>222</ele>
        <time>2022-09-28T08:24:05.000Z</time>
      </trkpt>
      <trkpt lat="49.87006" lon="4.77954">
        <ele>222</ele>
        <time>2022-09-28T08:24:06.000Z</time>
      </trkpt>
      <trkpt lat="49.87008" lon="4.77954">
        <ele>222</ele>
        <time>2022-09-28T08:24:07.000Z</time>
      </trkpt>
      <trkpt lat="49.87011" lon="4.77954">
        <ele>222</ele>
        <time>2022-09-28T08:24:08.000Z</time>
      </trkpt>
      <trkpt lat="49.87013" lon="4.77954">
        <ele>222</ele>
        <time>2022-09-28T08:24:09.000Z</time>
      </trkpt>
      <trkpt lat="49.87016" lon="4.77954">
        <ele>222</ele>
        <time>2022-09-28T08:24:10.000Z</time>
      </trkpt>
      <trkpt lat="49.87019" lon="4.77955">
        <ele>222</ele>
        <time>2022-09-28T08:24:11.000Z</time>
      </trkpt>
      <trkpt lat="49.87021" lon="4.77955">
        <ele>222</ele>
        <time>2022-09-28T08:24:12.000Z</time>
      </trkpt>
      <trkpt lat="49.87023" lon="4.77955">
        <ele>222</ele>
        <time>2022-09-28T08:24:13.000Z</time>
      </trkpt>
      <trkpt lat="49.87025" lon="4.77955">
        <ele>222</ele>
        <time>2022-09-28T08:24:14.000Z</time>
      </trkpt>
      <trkpt lat="49.87028" lon="4.77955">
        <ele>222</ele>
        <time>2022-09-28T08:24:15.000Z</time>
      </trkpt>
      <trkpt lat="49.87031" lon="4.77954">
        <ele>222</ele>
        <time>2022-09-28T08:24:16.000Z</time>
      </trkpt>
      <trkpt lat="49.87034" lon="4.77953">
        <ele>222</ele>
        <time>2022-09-28T08:24:17.000Z</time>
      </trkpt>
      <trkpt lat="49.87037" lon="4.77952">
        <ele>223</ele>
        <time>2022-09-28T08:24:18.000Z</time>
      </trkpt>
      <trkpt lat="49.8704" lon="4.77951">
        <ele>223</ele>
        <time>2022-09-28T08:24:19.000Z</time>
      </trkpt>
      <trkpt lat="49.87044" lon="4.7795">
        <ele>223</ele>
        <time>2022-09-28T08:24:20.000Z</time>
      </trkpt>
      <trkpt lat="49.87047" lon="4.77948">
        <ele>223</ele>
        <time>2022-09-28T08:24:21.000Z</time>
      </trkpt>
      <trkpt lat="49.87051" lon="4.77947">
        <ele>223</ele>
        <time>2022-09-28T08:24:22.000Z</time>
      </trkpt>
      <trkpt lat="49.87054" lon="4.77946">
        <ele>223</ele>
        <time>2022-09-28T08:24:23.000Z</time>
      </trkpt>
      <trkpt lat="49.87058" lon="4.77946">
        <ele>223</ele>
        <time>2022-09-28T08:24:24.000Z</time>
      </trkpt>
      <trkpt lat="49.87061" lon="4.77946">
        <ele>224</ele>
        <time>2022-09-28T08:24:25.000Z</time>
      </trkpt>
      <trkpt lat="49.87063" lon="4.77945">
        <ele>224</ele>
        <time>2022-09-28T08:24:26.000Z</time>
      </trkpt>
      <trkpt lat="49.87066" lon="4.77944">
        <ele>224</ele>
        <time>2022-09-28T08:24:27.000Z</time>
      </trkpt>
      <trkpt lat="49.87069" lon="4.77943">
        <ele>224</ele>
        <time>2022-09-28T08:24:28.000Z</time>
      </trkpt>
      <trkpt lat="49.87072" lon="4.77942">
        <ele>224</ele>
        <time>2022-09-28T08:24:29.000Z</time>
      </trkpt>
      <trkpt lat="49.87075" lon="4.7794">
        <ele>224</ele>
        <time>2022-09-28T08:24:30.000Z</time>
      </trkpt>
      <trkpt lat="49.87077" lon="4.77939">
        <ele>224</ele>
        <time>2022-09-28T08:24:31.000Z</time>
      </trkpt>
      <trkpt lat="49.8708" lon="4.77938">
        <ele>224</ele>
        <time>2022-09-28T08:24:32.000Z</time>
      </trkpt>
      <trkpt lat="49.87083" lon="4.77936">
        <ele>224</ele>
        <time>2022-09-28T08:24:33.000Z</time>
      </trkpt>
      <trkpt lat="49.87086" lon="4.77934">
        <ele>224</ele>
        <time>2022-09-28T08:24:34.000Z</time>
      </trkpt>
      <trkpt lat="49.87088" lon="4.77933">
        <ele>224</ele>
        <time>2022-09-28T08:24:35.000Z</time>
      </trkpt>
      <trkpt lat="49.87091" lon="4.77932">
        <ele>224</ele>
        <time>2022-09-28T08:24:36.000Z</time>
      </trkpt>
      <trkpt lat="49.87093" lon="4.7793">
        <ele>224</ele>
        <time>2022-09-28T08:24:37.000Z</time>
      </trkpt>
      <trkpt lat="49.87096" lon="4.77929">
        <ele>224</ele>
        <time>2022-09-28T08:24:38.000Z</time>
      </trkpt>
      <trkpt lat="49.87098" lon="4.77929">
        <ele>224</ele>
        <time>2022-09-28T08:24:39.000Z</time>
      </trkpt>
      <trkpt lat="49.87101" lon="4.77928">
        <ele>224</ele>
        <time>2022-09-28T08:24:40.000Z</time>
      </trkpt>
      <trkpt lat="49.87104" lon="4.77926">
        <ele>224</ele>
        <time>2022-09-28T08:24:41.000Z</time>
      </trkpt>
      <trkpt lat="49.87107" lon="4.77925">
        <ele>225</ele>
        <time>2022-09-28T08:24:42.000Z</time>
      </trkpt>
      <trkpt lat="49.8711" lon="4.77923">
        <ele>225</ele>
        <time>2022-09-28T08:24:43.000Z</time>
      </trkpt>
      <trkpt lat="49.87112" lon="4.77921">
        <ele>225</ele>
        <time>2022-09-28T08:24:44.000Z</time>
      </trkpt>
      <trkpt lat="49.87114" lon="4.77919">
        <ele>225</ele>
        <time>2022-09-28T08:24:45.000Z</time>
      </trkpt>
      <trkpt lat="49.87116" lon="4.77916">
        <ele>225</ele>
        <time>2022-09-28T08:24:46.000Z</time>
      </trkpt>
      <trkpt lat="49.87119" lon="4.77913">
        <ele>225</ele>
        <time>2022-09-28T08:24:47.000Z</time>
      </trkpt>
      <trkpt lat="49.87121" lon="4.7791">
        <ele>226</ele>
        <time>2022-09-28T08:24:48.000Z</time>
      </trkpt>
      <trkpt lat="49.87123" lon="4.77905">
        <ele>226</ele>
        <time>2022-09-28T08:24:49.000Z</time>
      </trkpt>
      <trkpt lat="49.87125" lon="4.77901">
        <ele>226</ele>
        <time>2022-09-28T08:24:50.000Z</time>
      </trkpt>
      <trkpt lat="49.87127" lon="4.77898">
        <ele>226</ele>
        <time>2022-09-28T08:24:51.000Z</time>
      </trkpt>
      <trkpt lat="49.87127" lon="4.77895">
        <ele>226</ele>
        <time>2022-09-28T08:24:52.000Z</time>
      </trkpt>
      <trkpt lat="49.87128" lon="4.77891">
        <ele>226</ele>
        <time>2022-09-28T08:24:53.000Z</time>
      </trkpt>
      <trkpt lat="49.87128" lon="4.77888">
        <ele>227</ele>
        <time>2022-09-28T08:24:54.000Z</time>
      </trkpt>
      <trkpt lat="49.87128" lon="4.77884">
        <ele>227</ele>
        <time>2022-09-28T08:24:55.000Z</time>
      </trkpt>
      <trkpt lat="49.87128" lon="4.77881">
        <ele>227</ele>
        <time>2022-09-28T08:24:56.000Z</time>
      </trkpt>
      <trkpt lat="49.87128" lon="4.77878">
        <ele>227</ele>
        <time>2022-09-28T08:24:57.000Z</time>
      </trkpt>
      <trkpt lat="49.87129" lon="4.77875">
        <ele>228</ele>
        <time>2022-09-28T08:24:58.000Z</time>
      </trkpt>
      <trkpt lat="49.87129" lon="4.77873">
        <ele>228</ele>
        <time>2022-09-28T08:24:59.000Z</time>
      </trkpt>
      <trkpt lat="49.8713" lon="4.77869">
        <ele>228</ele>
        <time>2022-09-28T08:25:00.000Z</time>
      </trkpt>
      <trkpt lat="49.8713" lon="4.77866">
        <ele>228</ele>
        <time>2022-09-28T08:25:01.000Z</time>
      </trkpt>
      <trkpt lat="49.8713" lon="4.77862">
        <ele>229</ele>
        <time>2022-09-28T08:25:02.000Z</time>
      </trkpt>
      <trkpt lat="49.8713" lon="4.77857">
        <ele>229</ele>
        <time>2022-09-28T08:25:03.000Z</time>
      </trkpt>
      <trkpt lat="49.8713" lon="4.77853">
        <ele>229</ele>
        <time>2022-09-28T08:25:04.000Z</time>
      </trkpt>
      <trkpt lat="49.8713" lon="4.7785">
        <ele>230</ele>
        <time>2022-09-28T08:25:05.000Z</time>
      </trkpt>
      <trkpt lat="49.87129" lon="4.77847">
        <ele>230</ele>
        <time>2022-09-28T08:25:06.000Z</time>
      </trkpt>
      <trkpt lat="49.87128" lon="4.77843">
        <ele>230</ele>
        <time>2022-09-28T08:25:07.000Z</time>
      </trkpt>
      <trkpt lat="49.87128" lon="4.7784">
        <ele>231</ele>
        <time>2022-09-28T08:25:08.000Z</time>
      </trkpt>
      <trkpt lat="49.87127" lon="4.77836">
        <ele>231</ele>
        <time>2022-09-28T08:25:09.000Z</time>
      </trkpt>
      <trkpt lat="49.87127" lon="4.77833">
        <ele>231</ele>
        <time>2022-09-28T08:25:10.000Z</time>
      </trkpt>
      <trkpt lat="49.87126" lon="4.77829">
        <ele>232</ele>
        <time>2022-09-28T08:25:11.000Z</time>
      </trkpt>
      <trkpt lat="49.87126" lon="4.77827">
        <ele>232</ele>
        <time>2022-09-28T08:25:12.000Z</time>
      </trkpt>
      <trkpt lat="49.87126" lon="4.77823">
        <ele>232</ele>
        <time>2022-09-28T08:25:13.000Z</time>
      </trkpt>
      <trkpt lat="49.87127" lon="4.7782">
        <ele>232</ele>
        <time>2022-09-28T08:25:14.000Z</time>
      </trkpt>
      <trkpt lat="49.87127" lon="4.77817">
        <ele>233</ele>
        <time>2022-09-28T08:25:15.000Z</time>
      </trkpt>
      <trkpt lat="49.87127" lon="4.77815">
        <ele>233</ele>
        <time>2022-09-28T08:25:16.000Z</time>
      </trkpt>
      <trkpt lat="49.87126" lon="4.77814">
        <ele>233</ele>
        <time>2022-09-28T08:25:17.000Z</time>
      </trkpt>
      <trkpt lat="49.87126" lon="4.77814">
        <ele>233</ele>
        <time>2022-09-28T08:25:18.000Z</time>
      </trkpt>
      <trkpt lat="49.87127" lon="4.77813">
        <ele>234</ele>
        <time>2022-09-28T08:25:19.000Z</time>
      </trkpt>
      <trkpt lat="49.87127" lon="4.77813">
        <ele>234</ele>
        <time>2022-09-28T08:25:20.000Z</time>
      </trkpt>
      <trkpt lat="49.87128" lon="4.77813">
        <ele>234</ele>
        <time>2022-09-28T08:25:21.000Z</time>
      </trkpt>
      <trkpt lat="49.87128" lon="4.77815">
        <ele>234</ele>
        <time>2022-09-28T08:25:22.000Z</time>
      </trkpt>
      <trkpt lat="49.87128" lon="4.77816">
        <ele>234</ele>
        <time>2022-09-28T08:25:23.000Z</time>
      </trkpt>
      <trkpt lat="49.87129" lon="4.77819">
        <ele>234</ele>
        <time>2022-09-28T08:25:24.000Z</time>
      </trkpt>
      <trkpt lat="49.87129" lon="4.77822">
        <ele>234</ele>
        <time>2022-09-28T08:25:25.000Z</time>
      </trkpt>
      <trkpt lat="49.8713" lon="4.77827">
        <ele>234</ele>
        <time>2022-09-28T08:25:26.000Z</time>
      </trkpt>
      <trkpt lat="49.8713" lon="4.77831">
        <ele>234</ele>
        <time>2022-09-28T08:25:27.000Z</time>
      </trkpt>
      <trkpt lat="49.8713" lon="4.77836">
        <ele>234</ele>
        <time>2022-09-28T08:25:28.000Z</time>
      </trkpt>
      <trkpt lat="49.8713" lon="4.77841">
        <ele>234</ele>
        <time>2022-09-28T08:25:29.000Z</time>
      </trkpt>
      <trkpt lat="49.8713" lon="4.77847">
        <ele>234</ele>
        <time>2022-09-28T08:25:30.000Z</time>
      </trkpt>
      <trkpt lat="49.87131" lon="4.77854">
        <ele>234</ele>
        <time>2022-09-28T08:25:31.000Z</time>
      </trkpt>
      <trkpt lat="49.87132" lon="4.7786">
        <ele>234</ele>
        <time>2022-09-28T08:25:32.000Z</time>
      </trkpt>
      <trkpt lat="49.87133" lon="4.77867">
        <ele>234</ele>
        <time>2022-09-28T08:25:33.000Z</time>
      </trkpt>
      <trkpt lat="49.87134" lon="4.77874">
        <ele>234</ele>
        <time>2022-09-28T08:25:34.000Z</time>
      </trkpt>
      <trkpt lat="49.87135" lon="4.77883">
        <ele>234</ele>
        <time>2022-09-28T08:25:35.000Z</time>
      </trkpt>
      <trkpt lat="49.87136" lon="4.77892">
        <ele>235</ele>
        <time>2022-09-28T08:25:36.000Z</time>
      </trkpt>
      <trkpt lat="49.87136" lon="4.77902">
        <ele>235</ele>
        <time>2022-09-28T08:25:37.000Z</time>
      </trkpt>
      <trkpt lat="49.87136" lon="4.7791">
        <ele>235</ele>
        <time>2022-09-28T08:25:38.000Z</time>
      </trkpt>
      <trkpt lat="49.87134" lon="4.77917">
        <ele>235</ele>
        <time>2022-09-28T08:25:39.000Z</time>
      </trkpt>
      <trkpt lat="49.87132" lon="4.77923">
        <ele>235</ele>
        <time>2022-09-28T08:25:40.000Z</time>
      </trkpt>
      <trkpt lat="49.87129" lon="4.77928">
        <ele>235</ele>
        <time>2022-09-28T08:25:41.000Z</time>
      </trkpt>
      <trkpt lat="49.87126" lon="4.77932">
        <ele>235</ele>
        <time>2022-09-28T08:25:42.000Z</time>
      </trkpt>
      <trkpt lat="49.87121" lon="4.77935">
        <ele>235</ele>
        <time>2022-09-28T08:25:43.000Z</time>
      </trkpt>
      <trkpt lat="49.87117" lon="4.77937">
        <ele>235</ele>
        <time>2022-09-28T08:25:44.000Z</time>
      </trkpt>
      <trkpt lat="49.8711" lon="4.77939">
        <ele>234</ele>
        <time>2022-09-28T08:25:45.000Z</time>
      </trkpt>
      <trkpt lat="49.87104" lon="4.77943">
        <ele>234</ele>
        <time>2022-09-28T08:25:46.000Z</time>
      </trkpt>
      <trkpt lat="49.87098" lon="4.77946">
        <ele>234</ele>
        <time>2022-09-28T08:25:47.000Z</time>
      </trkpt>
      <trkpt lat="49.87091" lon="4.77949">
        <ele>234</ele>
        <time>2022-09-28T08:25:48.000Z</time>
      </trkpt>
      <trkpt lat="49.87086" lon="4.77951">
        <ele>234</ele>
        <time>2022-09-28T08:25:49.000Z</time>
      </trkpt>
      <trkpt lat="49.8708" lon="4.77954">
        <ele>234</ele>
        <time>2022-09-28T08:25:50.000Z</time>
      </trkpt>
      <trkpt lat="49.87074" lon="4.77957">
        <ele>234</ele>
        <time>2022-09-28T08:25:51.000Z</time>
      </trkpt>
      <trkpt lat="49.87068" lon="4.7796">
        <ele>233</ele>
        <time>2022-09-28T08:25:52.000Z</time>
      </trkpt>
      <trkpt lat="49.87062" lon="4.77963">
        <ele>233</ele>
        <time>2022-09-28T08:25:53.000Z</time>
      </trkpt>
      <trkpt lat="49.87056" lon="4.77965">
        <ele>233</ele>
        <time>2022-09-28T08:25:54.000Z</time>
      </trkpt>
      <trkpt lat="49.8705" lon="4.77967">
        <ele>233</ele>
        <time>2022-09-28T08:25:55.000Z</time>
      </trkpt>
      <trkpt lat="49.87045" lon="4.77969">
        <ele>232</ele>
        <time>2022-09-28T08:25:56.000Z</time>
      </trkpt>
      <trkpt lat="49.8704" lon="4.77969">
        <ele>232</ele>
        <time>2022-09-28T08:25:57.000Z</time>
      </trkpt>
      <trkpt lat="49.87034" lon="4.77971">
        <ele>232</ele>
        <time>2022-09-28T08:25:58.000Z</time>
      </trkpt>
      <trkpt lat="49.87028" lon="4.77971">
        <ele>232</ele>
        <time>2022-09-28T08:25:59.000Z</time>
      </trkpt>
      <trkpt lat="49.87023" lon="4.77971">
        <ele>231</ele>
        <time>2022-09-28T08:26:00.000Z</time>
      </trkpt>
      <trkpt lat="49.87018" lon="4.7797">
        <ele>231</ele>
        <time>2022-09-28T08:26:01.000Z</time>
      </trkpt>
      <trkpt lat="49.87013" lon="4.77968">
        <ele>231</ele>
        <time>2022-09-28T08:26:02.000Z</time>
      </trkpt>
      <trkpt lat="49.87008" lon="4.77967">
        <ele>231</ele>
        <time>2022-09-28T08:26:03.000Z</time>
      </trkpt>
      <trkpt lat="49.87003" lon="4.77965">
        <ele>230</ele>
        <time>2022-09-28T08:26:04.000Z</time>
      </trkpt>
      <trkpt lat="49.86998" lon="4.77963">
        <ele>230</ele>
        <time>2022-09-28T08:26:05.000Z</time>
      </trkpt>
      <trkpt lat="49.86993" lon="4.77961">
        <ele>230</ele>
        <time>2022-09-28T08:26:06.000Z</time>
      </trkpt>
      <trkpt lat="49.86987" lon="4.7796">
        <ele>230</ele>
        <time>2022-09-28T08:26:07.000Z</time>
      </trkpt>
      <trkpt lat="49.86981" lon="4.77958">
        <ele>229</ele>
        <time>2022-09-28T08:26:08.000Z</time>
      </trkpt>
      <trkpt lat="49.86976" lon="4.77956">
        <ele>229</ele>
        <time>2022-09-28T08:26:09.000Z</time>
      </trkpt>
      <trkpt lat="49.86971" lon="4.77956">
        <ele>229</ele>
        <time>2022-09-28T08:26:10.000Z</time>
      </trkpt>
      <trkpt lat="49.86965" lon="4.77954">
        <ele>229</ele>
        <time>2022-09-28T08:26:11.000Z</time>
      </trkpt>
      <trkpt lat="49.8696" lon="4.77952">
        <ele>228</ele>
        <time>2022-09-28T08:26:12.000Z</time>
      </trkpt>
      <trkpt lat="49.86955" lon="4.77951">
        <ele>228</ele>
        <time>2022-09-28T08:26:13.000Z</time>
      </trkpt>
      <trkpt lat="49.8695" lon="4.7795">
        <ele>228</ele>
        <time>2022-09-28T08:26:14.000Z</time>
      </trkpt>
      <trkpt lat="49.86946" lon="4.77948">
        <ele>228</ele>
        <time>2022-09-28T08:26:15.000Z</time>
      </trkpt>
      <trkpt lat="49.86941" lon="4.77947">
        <ele>227</ele>
        <time>2022-09-28T08:26:16.000Z</time>
      </trkpt>
      <trkpt lat="49.86937" lon="4.77946">
        <ele>227</ele>
        <time>2022-09-28T08:26:17.000Z</time>
      </trkpt>
      <trkpt lat="49.86933" lon="4.77945">
        <ele>227</ele>
        <time>2022-09-28T08:26:18.000Z</time>
      </trkpt>
      <trkpt lat="49.86929" lon="4.77944">
        <ele>227</ele>
        <time>2022-09-28T08:26:19.000Z</time>
      </trkpt>
      <trkpt lat="49.86926" lon="4.77943">
        <ele>226</ele>
        <time>2022-09-28T08:26:20.000Z</time>
      </trkpt>
      <trkpt lat="49.86923" lon="4.77942">
        <ele>226</ele>
        <time>2022-09-28T08:26:21.000Z</time>
      </trkpt>
      <trkpt lat="49.8692" lon="4.77942">
        <ele>226</ele>
        <time>2022-09-28T08:26:22.000Z</time>
      </trkpt>
      <trkpt lat="49.86918" lon="4.77943">
        <ele>226</ele>
        <time>2022-09-28T08:26:23.000Z</time>
      </trkpt>
      <trkpt lat="49.86915" lon="4.77943">
        <ele>226</ele>
        <time>2022-09-28T08:26:24.000Z</time>
      </trkpt>
      <trkpt lat="49.86912" lon="4.77943">
        <ele>226</ele>
        <time>2022-09-28T08:26:25.000Z</time>
      </trkpt>
      <trkpt lat="49.86908" lon="4.77942">
        <ele>226</ele>
        <time>2022-09-28T08:26:26.000Z</time>
      </trkpt>
      <trkpt lat="49.86904" lon="4.77942">
        <ele>225</ele>
        <time>2022-09-28T08:26:27.000Z</time>
      </trkpt>
      <trkpt lat="49.86901" lon="4.77942">
        <ele>225</ele>
        <time>2022-09-28T08:26:28.000Z</time>
      </trkpt>
      <trkpt lat="49.86897" lon="4.77943">
        <ele>225</ele>
        <time>2022-09-28T08:26:29.000Z</time>
      </trkpt>
      <trkpt lat="49.86894" lon="4.77943">
        <ele>225</ele>
        <time>2022-09-28T08:26:30.000Z</time>
      </trkpt>
      <trkpt lat="49.8689" lon="4.77943">
        <ele>225</ele>
        <time>2022-09-28T08:26:31.000Z</time>
      </trkpt>
      <trkpt lat="49.86887" lon="4.77943">
        <ele>224</ele>
        <time>2022-09-28T08:26:32.000Z</time>
      </trkpt>
      <trkpt lat="49.86883" lon="4.77943">
        <ele>224</ele>
        <time>2022-09-28T08:26:33.000Z</time>
      </trkpt>
      <trkpt lat="49.86879" lon="4.77942">
        <ele>224</ele>
        <time>2022-09-28T08:26:34.000Z</time>
      </trkpt>
      <trkpt lat="49.86876" lon="4.77942">
        <ele>224</ele>
        <time>2022-09-28T08:26:35.000Z</time>
      </trkpt>
      <trkpt lat="49.86872" lon="4.77942">
        <ele>224</ele>
        <time>2022-09-28T08:26:36.000Z</time>
      </trkpt>
      <trkpt lat="49.86868" lon="4.77942">
        <ele>224</ele>
        <time>2022-09-28T08:26:37.000Z</time>
      </trkpt>
      <trkpt lat="49.86864" lon="4.77943">
        <ele>224</ele>
        <time>2022-09-28T08:26:38.000Z</time>
      </trkpt>
      <trkpt lat="49.86859" lon="4.77945">
        <ele>224</ele>
        <time>2022-09-28T08:26:39.000Z</time>
      </trkpt>
      <trkpt lat="49.86854" lon="4.77946">
        <ele>224</ele>
        <time>2022-09-28T08:26:40.000Z</time>
      </trkpt>
      <trkpt lat="49.86849" lon="4.77946">
        <ele>224</ele>
        <time>2022-09-28T08:26:41.000Z</time>
      </trkpt>
      <trkpt lat="49.86845" lon="4.77947">
        <ele>224</ele>
        <time>2022-09-28T08:26:42.000Z</time>
      </trkpt>
      <trkpt lat="49.86841" lon="4.77947">
        <ele>224</ele>
        <time>2022-09-28T08:26:43.000Z</time>
      </trkpt>
      <trkpt lat="49.86838" lon="4.77948">
        <ele>223</ele>
        <time>2022-09-28T08:26:44.000Z</time>
      </trkpt>
      <trkpt lat="49.86834" lon="4.77949">
        <ele>223</ele>
        <time>2022-09-28T08:26:45.000Z</time>
      </trkpt>
      <trkpt lat="49.86831" lon="4.77948">
        <ele>223</ele>
        <time>2022-09-28T08:26:46.000Z</time>
      </trkpt>
      <trkpt lat="49.86828" lon="4.77947">
        <ele>223</ele>
        <time>2022-09-28T08:26:47.000Z</time>
      </trkpt>
      <trkpt lat="49.86826" lon="4.77947">
        <ele>223</ele>
        <time>2022-09-28T08:26:48.000Z</time>
      </trkpt>
      <trkpt lat="49.86825" lon="4.77948">
        <ele>223</ele>
        <time>2022-09-28T08:26:49.000Z</time>
      </trkpt>
      <trkpt lat="49.86823" lon="4.77948">
        <ele>223</ele>
        <time>2022-09-28T08:26:50.000Z</time>
      </trkpt>
      <trkpt lat="49.86821" lon="4.77948">
        <ele>223</ele>
        <time>2022-09-28T08:26:51.000Z</time>
      </trkpt>
      <trkpt lat="49.86818" lon="4.77948">
        <ele>223</ele>
        <time>2022-09-28T08:26:52.000Z</time>
      </trkpt>
      <trkpt lat="49.86816" lon="4.77947">
        <ele>222</ele>
        <time>2022-09-28T08:26:53.000Z</time>
      </trkpt>
      <trkpt lat="49.86813" lon="4.77946">
        <ele>222</ele>
        <time>2022-09-28T08:26:54.000Z</time>
      </trkpt>
      <trkpt lat="49.86811" lon="4.77946">
        <ele>222</ele>
        <time>2022-09-28T08:26:55.000Z</time>
      </trkpt>
      <trkpt lat="49.86808" lon="4.77945">
        <ele>223</ele>
        <time>2022-09-28T08:26:56.000Z</time>
      </trkpt>
      <trkpt lat="49.86806" lon="4.77946">
        <ele>223</ele>
        <time>2022-09-28T08:26:57.000Z</time>
      </trkpt>
      <trkpt lat="49.86803" lon="4.77947">
        <ele>223</ele>
        <time>2022-09-28T08:26:58.000Z</time>
      </trkpt>
      <trkpt lat="49.86801" lon="4.77946">
        <ele>223</ele>
        <time>2022-09-28T08:26:59.000Z</time>
      </trkpt>
      <trkpt lat="49.86799" lon="4.77945">
        <ele>223</ele>
        <time>2022-09-28T08:27:00.000Z</time>
      </trkpt>
      <trkpt lat="49.86796" lon="4.77945">
        <ele>223</ele>
        <time>2022-09-28T08:27:01.000Z</time>
      </trkpt>
      <trkpt lat="49.86794" lon="4.77945">
        <ele>223</ele>
        <time>2022-09-28T08:27:02.000Z</time>
      </trkpt>
      <trkpt lat="49.86791" lon="4.77945">
        <ele>223</ele>
        <time>2022-09-28T08:27:03.000Z</time>
      </trkpt>
      <trkpt lat="49.86788" lon="4.77944">
        <ele>223</ele>
        <time>2022-09-28T08:27:04.000Z</time>
      </trkpt>
      <trkpt lat="49.86785" lon="4.77944">
        <ele>223</ele>
        <time>2022-09-28T08:27:05.000Z</time>
      </trkpt>
      <trkpt lat="49.86781" lon="4.77944">
        <ele>223</ele>
        <time>2022-09-28T08:27:06.000Z</time>
      </trkpt>
      <trkpt lat="49.86778" lon="4.77943">
        <ele>223</ele>
        <time>2022-09-28T08:27:07.000Z</time>
      </trkpt>
      <trkpt lat="49.86775" lon="4.77942">
        <ele>223</ele>
        <time>2022-09-28T08:27:08.000Z</time>
      </trkpt>
      <trkpt lat="49.86771" lon="4.77941">
        <ele>223</ele>
        <time>2022-09-28T08:27:09.000Z</time>
      </trkpt>
      <trkpt lat="49.86768" lon="4.7794">
        <ele>223</ele>
        <time>2022-09-28T08:27:10.000Z</time>
      </trkpt>
      <trkpt lat="49.86765" lon="4.77939">
        <ele>223</ele>
        <time>2022-09-28T08:27:11.000Z</time>
      </trkpt>
      <trkpt lat="49.86762" lon="4.77938">
        <ele>223</ele>
        <time>2022-09-28T08:27:12.000Z</time>
      </trkpt>
      <trkpt lat="49.86758" lon="4.77937">
        <ele>223</ele>
        <time>2022-09-28T08:27:13.000Z</time>
      </trkpt>
      <trkpt lat="49.86754" lon="4.77935">
        <ele>224</ele>
        <time>2022-09-28T08:27:14.000Z</time>
      </trkpt>
      <trkpt lat="49.86751" lon="4.77935">
        <ele>224</ele>
        <time>2022-09-28T08:27:15.000Z</time>
      </trkpt>
      <trkpt lat="49.86747" lon="4.77934">
        <ele>224</ele>
        <time>2022-09-28T08:27:16.000Z</time>
      </trkpt>
      <trkpt lat="49.86744" lon="4.77934">
        <ele>224</ele>
        <time>2022-09-28T08:27:17.000Z</time>
      </trkpt>
      <trkpt lat="49.8674" lon="4.77934">
        <ele>224</ele>
        <time>2022-09-28T08:27:18.000Z</time>
      </trkpt>
      <trkpt lat="49.86736" lon="4.77932">
        <ele>224</ele>
        <time>2022-09-28T08:27:19.000Z</time>
      </trkpt>
      <trkpt lat="49.86733" lon="4.77931">
        <ele>224</ele>
        <time>2022-09-28T08:27:20.000Z</time>
      </trkpt>
      <trkpt lat="49.8673" lon="4.77929">
        <ele>224</ele>
        <time>2022-09-28T08:27:21.000Z</time>
      </trkpt>
      <trkpt lat="49.86726" lon="4.77928">
        <ele>224</ele>
        <time>2022-09-28T08:27:22.000Z</time>
      </trkpt>
      <trkpt lat="49.86723" lon="4.77927">
        <ele>224</ele>
        <time>2022-09-28T08:27:23.000Z</time>
      </trkpt>
      <trkpt lat="49.86719" lon="4.77925">
        <ele>225</ele>
        <time>2022-09-28T08:27:24.000Z</time>
      </trkpt>
      <trkpt lat="49.86715" lon="4.77924">
        <ele>225</ele>
        <time>2022-09-28T08:27:25.000Z</time>
      </trkpt>
      <trkpt lat="49.86712" lon="4.77922">
        <ele>225</ele>
        <time>2022-09-28T08:27:26.000Z</time>
      </trkpt>
      <trkpt lat="49.86708" lon="4.7792">
        <ele>225</ele>
        <time>2022-09-28T08:27:27.000Z</time>
      </trkpt>
      <trkpt lat="49.86705" lon="4.77918">
        <ele>224</ele>
        <time>2022-09-28T08:27:28.000Z</time>
      </trkpt>
      <trkpt lat="49.86702" lon="4.77917">
        <ele>224</ele>
        <time>2022-09-28T08:27:29.000Z</time>
      </trkpt>
      <trkpt lat="49.86699" lon="4.77915">
        <ele>224</ele>
        <time>2022-09-28T08:27:30.000Z</time>
      </trkpt>
      <trkpt lat="49.86695" lon="4.77912">
        <ele>224</ele>
        <time>2022-09-28T08:27:31.000Z</time>
      </trkpt>
      <trkpt lat="49.86691" lon="4.7791">
        <ele>224</ele>
        <time>2022-09-28T08:27:32.000Z</time>
      </trkpt>
      <trkpt lat="49.86688" lon="4.77908">
        <ele>224</ele>
        <time>2022-09-28T08:27:33.000Z</time>
      </trkpt>
      <trkpt lat="49.86684" lon="4.77907">
        <ele>224</ele>
        <time>2022-09-28T08:27:34.000Z</time>
      </trkpt>
      <trkpt lat="49.8668" lon="4.77905">
        <ele>224</ele>
        <time>2022-09-28T08:27:35.000Z</time>
      </trkpt>
      <trkpt lat="49.86677" lon="4.77904">
        <ele>224</ele>
        <time>2022-09-28T08:27:36.000Z</time>
      </trkpt>
      <trkpt lat="49.86673" lon="4.77902">
        <ele>224</ele>
        <time>2022-09-28T08:27:37.000Z</time>
      </trkpt>
      <trkpt lat="49.8667" lon="4.77901">
        <ele>224</ele>
        <time>2022-09-28T08:27:38.000Z</time>
      </trkpt>
      <trkpt lat="49.86667" lon="4.77899">
        <ele>224</ele>
        <time>2022-09-28T08:27:39.000Z</time>
      </trkpt>
      <trkpt lat="49.86664" lon="4.77899">
        <ele>224</ele>
        <time>2022-09-28T08:27:40.000Z</time>
      </trkpt>
      <trkpt lat="49.86661" lon="4.77899">
        <ele>224</ele>
        <time>2022-09-28T08:27:41.000Z</time>
      </trkpt>
      <trkpt lat="49.86658" lon="4.779">
        <ele>224</ele>
        <time>2022-09-28T08:27:42.000Z</time>
      </trkpt>
      <trkpt lat="49.86655" lon="4.779">
        <ele>224</ele>
        <time>2022-09-28T08:27:43.000Z</time>
      </trkpt>
      <trkpt lat="49.86651" lon="4.779">
        <ele>224</ele>
        <time>2022-09-28T08:27:44.000Z</time>
      </trkpt>
      <trkpt lat="49.86648" lon="4.779">
        <ele>225</ele>
        <time>2022-09-28T08:27:45.000Z</time>
      </trkpt>
      <trkpt lat="49.86644" lon="4.779">
        <ele>225</ele>
        <time>2022-09-28T08:27:46.000Z</time>
      </trkpt>
      <trkpt lat="49.86641" lon="4.779">
        <ele>225</ele>
        <time>2022-09-28T08:27:47.000Z</time>
      </trkpt>
      <trkpt lat="49.86637" lon="4.779">
        <ele>225</ele>
        <time>2022-09-28T08:27:48.000Z</time>
      </trkpt>
      <trkpt lat="49.86633" lon="4.779">
        <ele>225</ele>
        <time>2022-09-28T08:27:49.000Z</time>
      </trkpt>
      <trkpt lat="49.86629" lon="4.779">
        <ele>225</ele>
        <time>2022-09-28T08:27:50.000Z</time>
      </trkpt>
      <trkpt lat="49.86625" lon="4.779">
        <ele>225</ele>
        <time>2022-09-28T08:27:51.000Z</time>
      </trkpt>
      <trkpt lat="49.86621" lon="4.779">
        <ele>225</ele>
        <time>2022-09-28T08:27:52.000Z</time>
      </trkpt>
      <trkpt lat="49.86617" lon="4.77901">
        <ele>225</ele>
        <time>2022-09-28T08:27:53.000Z</time>
      </trkpt>
      <trkpt lat="49.86613" lon="4.77902">
        <ele>225</ele>
        <time>2022-09-28T08:27:54.000Z</time>
      </trkpt>
      <trkpt lat="49.86608" lon="4.77902">
        <ele>225</ele>
        <time>2022-09-28T08:27:55.000Z</time>
      </trkpt>
      <trkpt lat="49.86604" lon="4.77903">
        <ele>225</ele>
        <time>2022-09-28T08:27:56.000Z</time>
      </trkpt>
      <trkpt lat="49.866" lon="4.77904">
        <ele>225</ele>
        <time>2022-09-28T08:27:57.000Z</time>
      </trkpt>
      <trkpt lat="49.86597" lon="4.77904">
        <ele>225</ele>
        <time>2022-09-28T08:27:58.000Z</time>
      </trkpt>
      <trkpt lat="49.86594" lon="4.77905">
        <ele>225</ele>
        <time>2022-09-28T08:27:59.000Z</time>
      </trkpt>
      <trkpt lat="49.8659" lon="4.77905">
        <ele>225</ele>
        <time>2022-09-28T08:28:00.000Z</time>
      </trkpt>
      <trkpt lat="49.86587" lon="4.77906">
        <ele>225</ele>
        <time>2022-09-28T08:28:01.000Z</time>
      </trkpt>
      <trkpt lat="49.86583" lon="4.77907">
        <ele>225</ele>
        <time>2022-09-28T08:28:02.000Z</time>
      </trkpt>
      <trkpt lat="49.86579" lon="4.77908">
        <ele>225</ele>
        <time>2022-09-28T08:28:03.000Z</time>
      </trkpt>
      <trkpt lat="49.86576" lon="4.77909">
        <ele>225</ele>
        <time>2022-09-28T08:28:04.000Z</time>
      </trkpt>
      <trkpt lat="49.86572" lon="4.7791">
        <ele>225</ele>
        <time>2022-09-28T08:28:05.000Z</time>
      </trkpt>
      <trkpt lat="49.86569" lon="4.77911">
        <ele>224</ele>
        <time>2022-09-28T08:28:06.000Z</time>
      </trkpt>
      <trkpt lat="49.86565" lon="4.77912">
        <ele>224</ele>
        <time>2022-09-28T08:28:07.000Z</time>
      </trkpt>
      <trkpt lat="49.86562" lon="4.77912">
        <ele>224</ele>
        <time>2022-09-28T08:28:08.000Z</time>
      </trkpt>
      <trkpt lat="49.86559" lon="4.77913">
        <ele>224</ele>
        <time>2022-09-28T08:28:09.000Z</time>
      </trkpt>
      <trkpt lat="49.86556" lon="4.77914">
        <ele>224</ele>
        <time>2022-09-28T08:28:10.000Z</time>
      </trkpt>
      <trkpt lat="49.86553" lon="4.77914">
        <ele>224</ele>
        <time>2022-09-28T08:28:11.000Z</time>
      </trkpt>
      <trkpt lat="49.8655" lon="4.77915">
        <ele>224</ele>
        <time>2022-09-28T08:28:12.000Z</time>
      </trkpt>
      <trkpt lat="49.86546" lon="4.77916">
        <ele>224</ele>
        <time>2022-09-28T08:28:13.000Z</time>
      </trkpt>
      <trkpt lat="49.86543" lon="4.77916">
        <ele>223</ele>
        <time>2022-09-28T08:28:14.000Z</time>
      </trkpt>
      <trkpt lat="49.8654" lon="4.77916">
        <ele>223</ele>
        <time>2022-09-28T08:28:15.000Z</time>
      </trkpt>
      <trkpt lat="49.86537" lon="4.77916">
        <ele>223</ele>
        <time>2022-09-28T08:28:16.000Z</time>
      </trkpt>
      <trkpt lat="49.86533" lon="4.77917">
        <ele>223</ele>
        <time>2022-09-28T08:28:17.000Z</time>
      </trkpt>
      <trkpt lat="49.86529" lon="4.77916">
        <ele>223</ele>
        <time>2022-09-28T08:28:18.000Z</time>
      </trkpt>
      <trkpt lat="49.86525" lon="4.77917">
        <ele>223</ele>
        <time>2022-09-28T08:28:19.000Z</time>
      </trkpt>
      <trkpt lat="49.86522" lon="4.77917">
        <ele>223</ele>
        <time>2022-09-28T08:28:20.000Z</time>
      </trkpt>
      <trkpt lat="49.86519" lon="4.77918">
        <ele>223</ele>
        <time>2022-09-28T08:28:21.000Z</time>
      </trkpt>
      <trkpt lat="49.86516" lon="4.77919">
        <ele>223</ele>
        <time>2022-09-28T08:28:22.000Z</time>
      </trkpt>
      <trkpt lat="49.86513" lon="4.77919">
        <ele>223</ele>
        <time>2022-09-28T08:28:23.000Z</time>
      </trkpt>
      <trkpt lat="49.8651" lon="4.77919">
        <ele>223</ele>
        <time>2022-09-28T08:28:24.000Z</time>
      </trkpt>
      <trkpt lat="49.86507" lon="4.7792">
        <ele>223</ele>
        <time>2022-09-28T08:28:25.000Z</time>
      </trkpt>
      <trkpt lat="49.86504" lon="4.7792">
        <ele>223</ele>
        <time>2022-09-28T08:28:26.000Z</time>
      </trkpt>
      <trkpt lat="49.86501" lon="4.7792">
        <ele>223</ele>
        <time>2022-09-28T08:28:27.000Z</time>
      </trkpt>
      <trkpt lat="49.86499" lon="4.77921">
        <ele>223</ele>
        <time>2022-09-28T08:28:28.000Z</time>
      </trkpt>
      <trkpt lat="49.86496" lon="4.77922">
        <ele>223</ele>
        <time>2022-09-28T08:28:29.000Z</time>
      </trkpt>
      <trkpt lat="49.86492" lon="4.77924">
        <ele>223</ele>
        <time>2022-09-28T08:28:30.000Z</time>
      </trkpt>
      <trkpt lat="49.86489" lon="4.77926">
        <ele>223</ele>
        <time>2022-09-28T08:28:31.000Z</time>
      </trkpt>
      <trkpt lat="49.86485" lon="4.77927">
        <ele>223</ele>
        <time>2022-09-28T08:28:32.000Z</time>
      </trkpt>
      <trkpt lat="49.86483" lon="4.77928">
        <ele>223</ele>
        <time>2022-09-28T08:28:33.000Z</time>
      </trkpt>
      <trkpt lat="49.86479" lon="4.7793">
        <ele>223</ele>
        <time>2022-09-28T08:28:34.000Z</time>
      </trkpt>
      <trkpt lat="49.86476" lon="4.77931">
        <ele>224</ele>
        <time>2022-09-28T08:28:35.000Z</time>
      </trkpt>
      <trkpt lat="49.86474" lon="4.77933">
        <ele>224</ele>
        <time>2022-09-28T08:28:36.000Z</time>
      </trkpt>
      <trkpt lat="49.8647" lon="4.77935">
        <ele>224</ele>
        <time>2022-09-28T08:28:37.000Z</time>
      </trkpt>
      <trkpt lat="49.86466" lon="4.77936">
        <ele>224</ele>
        <time>2022-09-28T08:28:38.000Z</time>
      </trkpt>
      <trkpt lat="49.86463" lon="4.77937">
        <ele>224</ele>
        <time>2022-09-28T08:28:39.000Z</time>
      </trkpt>
      <trkpt lat="49.86458" lon="4.77938">
        <ele>224</ele>
        <time>2022-09-28T08:28:40.000Z</time>
      </trkpt>
      <trkpt lat="49.86454" lon="4.7794">
        <ele>224</ele>
        <time>2022-09-28T08:28:41.000Z</time>
      </trkpt>
      <trkpt lat="49.8645" lon="4.77941">
        <ele>224</ele>
        <time>2022-09-28T08:28:42.000Z</time>
      </trkpt>
      <trkpt lat="49.86446" lon="4.77943">
        <ele>224</ele>
        <time>2022-09-28T08:28:43.000Z</time>
      </trkpt>
      <trkpt lat="49.86443" lon="4.77944">
        <ele>224</ele>
        <time>2022-09-28T08:28:44.000Z</time>
      </trkpt>
      <trkpt lat="49.86439" lon="4.77945">
        <ele>224</ele>
        <time>2022-09-28T08:28:45.000Z</time>
      </trkpt>
      <trkpt lat="49.86436" lon="4.77947">
        <ele>224</ele>
        <time>2022-09-28T08:28:46.000Z</time>
      </trkpt>
      <trkpt lat="49.86432" lon="4.77948">
        <ele>224</ele>
        <time>2022-09-28T08:28:47.000Z</time>
      </trkpt>
      <trkpt lat="49.86429" lon="4.7795">
        <ele>224</ele>
        <time>2022-09-28T08:28:48.000Z</time>
      </trkpt>
      <trkpt lat="49.86425" lon="4.77951">
        <ele>224</ele>
        <time>2022-09-28T08:28:49.000Z</time>
      </trkpt>
      <trkpt lat="49.86421" lon="4.77952">
        <ele>224</ele>
        <time>2022-09-28T08:28:50.000Z</time>
      </trkpt>
      <trkpt lat="49.86417" lon="4.77953">
        <ele>224</ele>
        <time>2022-09-28T08:28:51.000Z</time>
      </trkpt>
      <trkpt lat="49.86413" lon="4.77955">
        <ele>224</ele>
        <time>2022-09-28T08:28:52.000Z</time>
      </trkpt>
      <trkpt lat="49.86409" lon="4.77957">
        <ele>224</ele>
        <time>2022-09-28T08:28:53.000Z</time>
      </trkpt>
      <trkpt lat="49.86406" lon="4.77958">
        <ele>224</ele>
        <time>2022-09-28T08:28:54.000Z</time>
      </trkpt>
      <trkpt lat="49.86404" lon="4.77959">
        <ele>224</ele>
        <time>2022-09-28T08:28:55.000Z</time>
      </trkpt>
      <trkpt lat="49.86402" lon="4.7796">
        <ele>224</ele>
        <time>2022-09-28T08:28:56.000Z</time>
      </trkpt>
      <trkpt lat="49.86402" lon="4.7796">
        <ele>224</ele>
        <time>2022-09-28T08:28:57.000Z</time>
      </trkpt>
      <trkpt lat="49.86402" lon="4.7796">
        <ele>224</ele>
        <time>2022-09-28T08:28:58.000Z</time>
      </trkpt>
      <trkpt lat="49.86401" lon="4.7796">
        <ele>224</ele>
        <time>2022-09-28T08:28:59.000Z</time>
      </trkpt>
      <trkpt lat="49.864" lon="4.77961">
        <ele>224</ele>
        <time>2022-09-28T08:29:00.000Z</time>
      </trkpt>
      <trkpt lat="49.86398" lon="4.77961">
        <ele>224</ele>
        <time>2022-09-28T08:29:01.000Z</time>
      </trkpt>
      <trkpt lat="49.86396" lon="4.77962">
        <ele>224</ele>
        <time>2022-09-28T08:29:02.000Z</time>
      </trkpt>
      <trkpt lat="49.86393" lon="4.77963">
        <ele>224</ele>
        <time>2022-09-28T08:29:03.000Z</time>
      </trkpt>
      <trkpt lat="49.86391" lon="4.77964">
        <ele>224</ele>
        <time>2022-09-28T08:29:04.000Z</time>
      </trkpt>
      <trkpt lat="49.86389" lon="4.77965">
        <ele>225</ele>
        <time>2022-09-28T08:29:05.000Z</time>
      </trkpt>
      <trkpt lat="49.86387" lon="4.77966">
        <ele>225</ele>
        <time>2022-09-28T08:29:06.000Z</time>
      </trkpt>
      <trkpt lat="49.86385" lon="4.77967">
        <ele>225</ele>
        <time>2022-09-28T08:29:07.000Z</time>
      </trkpt>
      <trkpt lat="49.86383" lon="4.77968">
        <ele>225</ele>
        <time>2022-09-28T08:29:08.000Z</time>
      </trkpt>
      <trkpt lat="49.86381" lon="4.77969">
        <ele>225</ele>
        <time>2022-09-28T08:29:09.000Z</time>
      </trkpt>
      <trkpt lat="49.86379" lon="4.77971">
        <ele>225</ele>
        <time>2022-09-28T08:29:10.000Z</time>
      </trkpt>
      <trkpt lat="49.86377" lon="4.77973">
        <ele>225</ele>
        <time>2022-09-28T08:29:11.000Z</time>
      </trkpt>
      <trkpt lat="49.86375" lon="4.77975">
        <ele>225</ele>
        <time>2022-09-28T08:29:12.000Z</time>
      </trkpt>
      <trkpt lat="49.86373" lon="4.77977">
        <ele>226</ele>
        <time>2022-09-28T08:29:13.000Z</time>
      </trkpt>
      <trkpt lat="49.8637" lon="4.77979">
        <ele>226</ele>
        <time>2022-09-28T08:29:14.000Z</time>
      </trkpt>
      <trkpt lat="49.86368" lon="4.77981">
        <ele>226</ele>
        <time>2022-09-28T08:29:15.000Z</time>
      </trkpt>
      <trkpt lat="49.86366" lon="4.77983">
        <ele>226</ele>
        <time>2022-09-28T08:29:16.000Z</time>
      </trkpt>
      <trkpt lat="49.86364" lon="4.77984">
        <ele>226</ele>
        <time>2022-09-28T08:29:17.000Z</time>
      </trkpt>
      <trkpt lat="49.86364" lon="4.77984">
        <ele>226</ele>
        <time>2022-09-28T08:29:18.000Z</time>
      </trkpt>
      <trkpt lat="49.86363" lon="4.77984">
        <ele>226</ele>
        <time>2022-09-28T08:29:19.000Z</time>
      </trkpt>
      <trkpt lat="49.86363" lon="4.77985">
        <ele>226</ele>
        <time>2022-09-28T08:29:20.000Z</time>
      </trkpt>
      <trkpt lat="49.86363" lon="4.77985">
        <ele>226</ele>
        <time>2022-09-28T08:29:21.000Z</time>
      </trkpt>
      <trkpt lat="49.86362" lon="4.77985">
        <ele>226</ele>
        <time>2022-09-28T08:29:22.000Z</time>
      </trkpt>
      <trkpt lat="49.86362" lon="4.77986">
        <ele>227</ele>
        <time>2022-09-28T08:29:23.000Z</time>
      </trkpt>
      <trkpt lat="49.8636" lon="4.77988">
        <ele>227</ele>
        <time>2022-09-28T08:29:24.000Z</time>
      </trkpt>
      <trkpt lat="49.86359" lon="4.77989">
        <ele>227</ele>
        <time>2022-09-28T08:29:25.000Z</time>
      </trkpt>
      <trkpt lat="49.86357" lon="4.77991">
        <ele>227</ele>
        <time>2022-09-28T08:29:26.000Z</time>
      </trkpt>
      <trkpt lat="49.86355" lon="4.77991">
        <ele>227</ele>
        <time>2022-09-28T08:29:27.000Z</time>
      </trkpt>
      <trkpt lat="49.86354" lon="4.77992">
        <ele>227</ele>
        <time>2022-09-28T08:29:28.000Z</time>
      </trkpt>
      <trkpt lat="49.86353" lon="4.77993">
        <ele>227</ele>
        <time>2022-09-28T08:29:29.000Z</time>
      </trkpt>
      <trkpt lat="49.86352" lon="4.77993">
        <ele>227</ele>
        <time>2022-09-28T08:29:30.000Z</time>
      </trkpt>
      <trkpt lat="49.8635" lon="4.77994">
        <ele>227</ele>
        <time>2022-09-28T08:29:31.000Z</time>
      </trkpt>
      <trkpt lat="49.86348" lon="4.77995">
        <ele>227</ele>
        <time>2022-09-28T08:29:32.000Z</time>
      </trkpt>
      <trkpt lat="49.86346" lon="4.77997">
        <ele>227</ele>
        <time>2022-09-28T08:29:33.000Z</time>
      </trkpt>
      <trkpt lat="49.86345" lon="4.77998">
        <ele>227</ele>
        <time>2022-09-28T08:29:34.000Z</time>
      </trkpt>
      <trkpt lat="49.86343" lon="4.78">
        <ele>227</ele>
        <time>2022-09-28T08:29:35.000Z</time>
      </trkpt>
      <trkpt lat="49.86342" lon="4.78001">
        <ele>227</ele>
        <time>2022-09-28T08:29:36.000Z</time>
      </trkpt>
      <trkpt lat="49.8634" lon="4.78003">
        <ele>227</ele>
        <time>2022-09-28T08:29:37.000Z</time>
      </trkpt>
      <trkpt lat="49.86338" lon="4.78004">
        <ele>227</ele>
        <time>2022-09-28T08:29:38.000Z</time>
      </trkpt>
      <trkpt lat="49.86336" lon="4.78006">
        <ele>227</ele>
        <time>2022-09-28T08:29:39.000Z</time>
      </trkpt>
      <trkpt lat="49.86333" lon="4.78008">
        <ele>227</ele>
        <time>2022-09-28T08:29:40.000Z</time>
      </trkpt>
      <trkpt lat="49.8633" lon="4.78009">
        <ele>227</ele>
        <time>2022-09-28T08:29:41.000Z</time>
      </trkpt>
      <trkpt lat="49.86328" lon="4.78011">
        <ele>227</ele>
        <time>2022-09-28T08:29:42.000Z</time>
      </trkpt>
      <trkpt lat="49.86326" lon="4.78012">
        <ele>228</ele>
        <time>2022-09-28T08:29:43.000Z</time>
      </trkpt>
      <trkpt lat="49.86324" lon="4.78013">
        <ele>228</ele>
        <time>2022-09-28T08:29:44.000Z</time>
      </trkpt>
      <trkpt lat="49.86322" lon="4.78014">
        <ele>228</ele>
        <time>2022-09-28T08:29:45.000Z</time>
      </trkpt>
      <trkpt lat="49.86321" lon="4.78015">
        <ele>228</ele>
        <time>2022-09-28T08:29:46.000Z</time>
      </trkpt>
      <trkpt lat="49.86319" lon="4.78016">
        <ele>228</ele>
        <time>2022-09-28T08:29:47.000Z</time>
      </trkpt>
      <trkpt lat="49.86317" lon="4.78017">
        <ele>228</ele>
        <time>2022-09-28T08:29:48.000Z</time>
      </trkpt>
      <trkpt lat="49.86315" lon="4.78018">
        <ele>228</ele>
        <time>2022-09-28T08:29:49.000Z</time>
      </trkpt>
      <trkpt lat="49.86313" lon="4.78019">
        <ele>228</ele>
        <time>2022-09-28T08:29:50.000Z</time>
      </trkpt>
      <trkpt lat="49.8631" lon="4.7802">
        <ele>228</ele>
        <time>2022-09-28T08:29:51.000Z</time>
      </trkpt>
      <trkpt lat="49.86308" lon="4.78022">
        <ele>228</ele>
        <time>2022-09-28T08:29:52.000Z</time>
      </trkpt>
      <trkpt lat="49.86306" lon="4.78024">
        <ele>228</ele>
        <time>2022-09-28T08:29:53.000Z</time>
      </trkpt>
      <trkpt lat="49.86304" lon="4.78026">
        <ele>228</ele>
        <time>2022-09-28T08:29:54.000Z</time>
      </trkpt>
      <trkpt lat="49.86303" lon="4.78026">
        <ele>228</ele>
        <time>2022-09-28T08:29:55.000Z</time>
      </trkpt>
      <trkpt lat="49.863" lon="4.78027">
        <ele>228</ele>
        <time>2022-09-28T08:29:56.000Z</time>
      </trkpt>
      <trkpt lat="49.86298" lon="4.78029">
        <ele>228</ele>
        <time>2022-09-28T08:29:57.000Z</time>
      </trkpt>
      <trkpt lat="49.86295" lon="4.7803">
        <ele>228</ele>
        <time>2022-09-28T08:29:58.000Z</time>
      </trkpt>
      <trkpt lat="49.86294" lon="4.78031">
        <ele>228</ele>
        <time>2022-09-28T08:29:59.000Z</time>
      </trkpt>
      <trkpt lat="49.86291" lon="4.78032">
        <ele>228</ele>
        <time>2022-09-28T08:30:00.000Z</time>
      </trkpt>
      <trkpt lat="49.86288" lon="4.78033">
        <ele>228</ele>
        <time>2022-09-28T08:30:01.000Z</time>
      </trkpt>
      <trkpt lat="49.86285" lon="4.78034">
        <ele>228</ele>
        <time>2022-09-28T08:30:02.000Z</time>
      </trkpt>
      <trkpt lat="49.86282" lon="4.78036">
        <ele>228</ele>
        <time>2022-09-28T08:30:03.000Z</time>
      </trkpt>
      <trkpt lat="49.8628" lon="4.78037">
        <ele>228</ele>
        <time>2022-09-28T08:30:04.000Z</time>
      </trkpt>
      <trkpt lat="49.86277" lon="4.78038">
        <ele>228</ele>
        <time>2022-09-28T08:30:05.000Z</time>
      </trkpt>
      <trkpt lat="49.86275" lon="4.78038">
        <ele>228</ele>
        <time>2022-09-28T08:30:06.000Z</time>
      </trkpt>
      <trkpt lat="49.86272" lon="4.78039">
        <ele>228</ele>
        <time>2022-09-28T08:30:07.000Z</time>
      </trkpt>
      <trkpt lat="49.86269" lon="4.7804">
        <ele>228</ele>
        <time>2022-09-28T08:30:08.000Z</time>
      </trkpt>
      <trkpt lat="49.86266" lon="4.78041">
        <ele>228</ele>
        <time>2022-09-28T08:30:09.000Z</time>
      </trkpt>
      <trkpt lat="49.86263" lon="4.78042">
        <ele>228</ele>
        <time>2022-09-28T08:30:10.000Z</time>
      </trkpt>
      <trkpt lat="49.86261" lon="4.78043">
        <ele>228</ele>
        <time>2022-09-28T08:30:11.000Z</time>
      </trkpt>
      <trkpt lat="49.86258" lon="4.78045">
        <ele>228</ele>
        <time>2022-09-28T08:30:12.000Z</time>
      </trkpt>
      <trkpt lat="49.86256" lon="4.78047">
        <ele>228</ele>
        <time>2022-09-28T08:30:13.000Z</time>
      </trkpt>
      <trkpt lat="49.86253" lon="4.78048">
        <ele>228</ele>
        <time>2022-09-28T08:30:14.000Z</time>
      </trkpt>
      <trkpt lat="49.86249" lon="4.7805">
        <ele>228</ele>
        <time>2022-09-28T08:30:15.000Z</time>
      </trkpt>
      <trkpt lat="49.86247" lon="4.7805">
        <ele>228</ele>
        <time>2022-09-28T08:30:16.000Z</time>
      </trkpt>
      <trkpt lat="49.86244" lon="4.78051">
        <ele>228</ele>
        <time>2022-09-28T08:30:17.000Z</time>
      </trkpt>
      <trkpt lat="49.8624" lon="4.78052">
        <ele>228</ele>
        <time>2022-09-28T08:30:18.000Z</time>
      </trkpt>
      <trkpt lat="49.86237" lon="4.78053">
        <ele>228</ele>
        <time>2022-09-28T08:30:19.000Z</time>
      </trkpt>
      <trkpt lat="49.86235" lon="4.78053">
        <ele>228</ele>
        <time>2022-09-28T08:30:20.000Z</time>
      </trkpt>
      <trkpt lat="49.86232" lon="4.78054">
        <ele>228</ele>
        <time>2022-09-28T08:30:21.000Z</time>
      </trkpt>
      <trkpt lat="49.8623" lon="4.78055">
        <ele>228</ele>
        <time>2022-09-28T08:30:22.000Z</time>
      </trkpt>
      <trkpt lat="49.86227" lon="4.78056">
        <ele>228</ele>
        <time>2022-09-28T08:30:23.000Z</time>
      </trkpt>
      <trkpt lat="49.86224" lon="4.78057">
        <ele>228</ele>
        <time>2022-09-28T08:30:24.000Z</time>
      </trkpt>
      <trkpt lat="49.86222" lon="4.78057">
        <ele>228</ele>
        <time>2022-09-28T08:30:25.000Z</time>
      </trkpt>
      <trkpt lat="49.8622" lon="4.78058">
        <ele>227</ele>
        <time>2022-09-28T08:30:26.000Z</time>
      </trkpt>
      <trkpt lat="49.86218" lon="4.78059">
        <ele>227</ele>
        <time>2022-09-28T08:30:27.000Z</time>
      </trkpt>
      <trkpt lat="49.86215" lon="4.78058">
        <ele>227</ele>
        <time>2022-09-28T08:30:28.000Z</time>
      </trkpt>
      <trkpt lat="49.86213" lon="4.78058">
        <ele>227</ele>
        <time>2022-09-28T08:30:29.000Z</time>
      </trkpt>
      <trkpt lat="49.86211" lon="4.78057">
        <ele>227</ele>
        <time>2022-09-28T08:30:30.000Z</time>
      </trkpt>
      <trkpt lat="49.86208" lon="4.78056">
        <ele>227</ele>
        <time>2022-09-28T08:30:31.000Z</time>
      </trkpt>
      <trkpt lat="49.86206" lon="4.78055">
        <ele>227</ele>
        <time>2022-09-28T08:30:32.000Z</time>
      </trkpt>
      <trkpt lat="49.86203" lon="4.78054">
        <ele>227</ele>
        <time>2022-09-28T08:30:33.000Z</time>
      </trkpt>
      <trkpt lat="49.86201" lon="4.78053">
        <ele>227</ele>
        <time>2022-09-28T08:30:34.000Z</time>
      </trkpt>
      <trkpt lat="49.86198" lon="4.78051">
        <ele>227</ele>
        <time>2022-09-28T08:30:35.000Z</time>
      </trkpt>
      <trkpt lat="49.86197" lon="4.78049">
        <ele>228</ele>
        <time>2022-09-28T08:30:36.000Z</time>
      </trkpt>
      <trkpt lat="49.86195" lon="4.78047">
        <ele>228</ele>
        <time>2022-09-28T08:30:37.000Z</time>
      </trkpt>
      <trkpt lat="49.86193" lon="4.78045">
        <ele>228</ele>
        <time>2022-09-28T08:30:38.000Z</time>
      </trkpt>
      <trkpt lat="49.86191" lon="4.78043">
        <ele>228</ele>
        <time>2022-09-28T08:30:39.000Z</time>
      </trkpt>
      <trkpt lat="49.86189" lon="4.78041">
        <ele>228</ele>
        <time>2022-09-28T08:30:40.000Z</time>
      </trkpt>
      <trkpt lat="49.86188" lon="4.78038">
        <ele>228</ele>
        <time>2022-09-28T08:30:41.000Z</time>
      </trkpt>
      <trkpt lat="49.86186" lon="4.78035">
        <ele>228</ele>
        <time>2022-09-28T08:30:42.000Z</time>
      </trkpt>
      <trkpt lat="49.86184" lon="4.78034">
        <ele>228</ele>
        <time>2022-09-28T08:30:43.000Z</time>
      </trkpt>
      <trkpt lat="49.86183" lon="4.78032">
        <ele>228</ele>
        <time>2022-09-28T08:30:44.000Z</time>
      </trkpt>
      <trkpt lat="49.86181" lon="4.7803">
        <ele>228</ele>
        <time>2022-09-28T08:30:45.000Z</time>
      </trkpt>
      <trkpt lat="49.86181" lon="4.78027">
        <ele>229</ele>
        <time>2022-09-28T08:30:46.000Z</time>
      </trkpt>
      <trkpt lat="49.8618" lon="4.78025">
        <ele>229</ele>
        <time>2022-09-28T08:30:47.000Z</time>
      </trkpt>
      <trkpt lat="49.86179" lon="4.78022">
        <ele>229</ele>
        <time>2022-09-28T08:30:48.000Z</time>
      </trkpt>
      <trkpt lat="49.86177" lon="4.7802">
        <ele>229</ele>
        <time>2022-09-28T08:30:49.000Z</time>
      </trkpt>
      <trkpt lat="49.86175" lon="4.78019">
        <ele>229</ele>
        <time>2022-09-28T08:30:50.000Z</time>
      </trkpt>
      <trkpt lat="49.86174" lon="4.78018">
        <ele>229</ele>
        <time>2022-09-28T08:30:51.000Z</time>
      </trkpt>
      <trkpt lat="49.86173" lon="4.78016">
        <ele>229</ele>
        <time>2022-09-28T08:30:52.000Z</time>
      </trkpt>
      <trkpt lat="49.86171" lon="4.78015">
        <ele>229</ele>
        <time>2022-09-28T08:30:53.000Z</time>
      </trkpt>
      <trkpt lat="49.8617" lon="4.78013">
        <ele>229</ele>
        <time>2022-09-28T08:30:54.000Z</time>
      </trkpt>
      <trkpt lat="49.86169" lon="4.78011">
        <ele>230</ele>
        <time>2022-09-28T08:30:55.000Z</time>
      </trkpt>
      <trkpt lat="49.86167" lon="4.78009">
        <ele>230</ele>
        <time>2022-09-28T08:30:56.000Z</time>
      </trkpt>
      <trkpt lat="49.86166" lon="4.78008">
        <ele>230</ele>
        <time>2022-09-28T08:30:57.000Z</time>
      </trkpt>
      <trkpt lat="49.86164" lon="4.78006">
        <ele>230</ele>
        <time>2022-09-28T08:30:58.000Z</time>
      </trkpt>
      <trkpt lat="49.86163" lon="4.78005">
        <ele>230</ele>
        <time>2022-09-28T08:30:59.000Z</time>
      </trkpt>
      <trkpt lat="49.86162" lon="4.78003">
        <ele>231</ele>
        <time>2022-09-28T08:31:00.000Z</time>
      </trkpt>
      <trkpt lat="49.8616" lon="4.78002">
        <ele>231</ele>
        <time>2022-09-28T08:31:01.000Z</time>
      </trkpt>
      <trkpt lat="49.86159" lon="4.78001">
        <ele>231</ele>
        <time>2022-09-28T08:31:02.000Z</time>
      </trkpt>
      <trkpt lat="49.86157" lon="4.77999">
        <ele>232</ele>
        <time>2022-09-28T08:31:03.000Z</time>
      </trkpt>
      <trkpt lat="49.86156" lon="4.77997">
        <ele>232</ele>
        <time>2022-09-28T08:31:04.000Z</time>
      </trkpt>
      <trkpt lat="49.86155" lon="4.77996">
        <ele>232</ele>
        <time>2022-09-28T08:31:05.000Z</time>
      </trkpt>
      <trkpt lat="49.86154" lon="4.77995">
        <ele>232</ele>
        <time>2022-09-28T08:31:06.000Z</time>
      </trkpt>
      <trkpt lat="49.86152" lon="4.77994">
        <ele>233</ele>
        <time>2022-09-28T08:31:07.000Z</time>
      </trkpt>
      <trkpt lat="49.86151" lon="4.77993">
        <ele>233</ele>
        <time>2022-09-28T08:31:08.000Z</time>
      </trkpt>
      <trkpt lat="49.8615" lon="4.77992">
        <ele>233</ele>
        <time>2022-09-28T08:31:09.000Z</time>
      </trkpt>
      <trkpt lat="49.86149" lon="4.77991">
        <ele>234</ele>
        <time>2022-09-28T08:31:10.000Z</time>
      </trkpt>
      <trkpt lat="49.86148" lon="4.77989">
        <ele>234</ele>
        <time>2022-09-28T08:31:11.000Z</time>
      </trkpt>
      <trkpt lat="49.86147" lon="4.77988">
        <ele>234</ele>
        <time>2022-09-28T08:31:12.000Z</time>
      </trkpt>
      <trkpt lat="49.86145" lon="4.77987">
        <ele>235</ele>
        <time>2022-09-28T08:31:13.000Z</time>
      </trkpt>
      <trkpt lat="49.86144" lon="4.77986">
        <ele>235</ele>
        <time>2022-09-28T08:31:14.000Z</time>
      </trkpt>
      <trkpt lat="49.86142" lon="4.77985">
        <ele>235</ele>
        <time>2022-09-28T08:31:15.000Z</time>
      </trkpt>
      <trkpt lat="49.86141" lon="4.77986">
        <ele>236</ele>
        <time>2022-09-28T08:31:16.000Z</time>
      </trkpt>
      <trkpt lat="49.8614" lon="4.77986">
        <ele>236</ele>
        <time>2022-09-28T08:31:17.000Z</time>
      </trkpt>
      <trkpt lat="49.86138" lon="4.77986">
        <ele>236</ele>
        <time>2022-09-28T08:31:18.000Z</time>
      </trkpt>
      <trkpt lat="49.86137" lon="4.77986">
        <ele>236</ele>
        <time>2022-09-28T08:31:19.000Z</time>
      </trkpt>
      <trkpt lat="49.86136" lon="4.77984">
        <ele>236</ele>
        <time>2022-09-28T08:31:20.000Z</time>
      </trkpt>
      <trkpt lat="49.86136" lon="4.77982">
        <ele>237</ele>
        <time>2022-09-28T08:31:21.000Z</time>
      </trkpt>
      <trkpt lat="49.86136" lon="4.77983">
        <ele>237</ele>
        <time>2022-09-28T08:31:22.000Z</time>
      </trkpt>
      <trkpt lat="49.86134" lon="4.77982">
        <ele>237</ele>
        <time>2022-09-28T08:31:23.000Z</time>
      </trkpt>
      <trkpt lat="49.86134" lon="4.77981">
        <ele>238</ele>
        <time>2022-09-28T08:31:24.000Z</time>
      </trkpt>
      <trkpt lat="49.86133" lon="4.77981">
        <ele>238</ele>
        <time>2022-09-28T08:31:25.000Z</time>
      </trkpt>
      <trkpt lat="49.86131" lon="4.77981">
        <ele>238</ele>
        <time>2022-09-28T08:31:26.000Z</time>
      </trkpt>
      <trkpt lat="49.86131" lon="4.7798">
        <ele>239</ele>
        <time>2022-09-28T08:31:27.000Z</time>
      </trkpt>
      <trkpt lat="49.86129" lon="4.7798">
        <ele>239</ele>
        <time>2022-09-28T08:31:28.000Z</time>
      </trkpt>
      <trkpt lat="49.86128" lon="4.77981">
        <ele>239</ele>
        <time>2022-09-28T08:31:29.000Z</time>
      </trkpt>
      <trkpt lat="49.86127" lon="4.77981">
        <ele>240</ele>
        <time>2022-09-28T08:31:30.000Z</time>
      </trkpt>
      <trkpt lat="49.86125" lon="4.77981">
        <ele>240</ele>
        <time>2022-09-28T08:31:31.000Z</time>
      </trkpt>
      <trkpt lat="49.86124" lon="4.7798">
        <ele>240</ele>
        <time>2022-09-28T08:31:32.000Z</time>
      </trkpt>
      <trkpt lat="49.86124" lon="4.7798">
        <ele>241</ele>
        <time>2022-09-28T08:31:33.000Z</time>
      </trkpt>
      <trkpt lat="49.86122" lon="4.77981">
        <ele>241</ele>
        <time>2022-09-28T08:31:34.000Z</time>
      </trkpt>
      <trkpt lat="49.86121" lon="4.77981">
        <ele>241</ele>
        <time>2022-09-28T08:31:35.000Z</time>
      </trkpt>
      <trkpt lat="49.86119" lon="4.77981">
        <ele>242</ele>
        <time>2022-09-28T08:31:36.000Z</time>
      </trkpt>
      <trkpt lat="49.86118" lon="4.77981">
        <ele>242</ele>
        <time>2022-09-28T08:31:37.000Z</time>
      </trkpt>
      <trkpt lat="49.86116" lon="4.77982">
        <ele>242</ele>
        <time>2022-09-28T08:31:38.000Z</time>
      </trkpt>
      <trkpt lat="49.86115" lon="4.77982">
        <ele>242</ele>
        <time>2022-09-28T08:31:39.000Z</time>
      </trkpt>
      <trkpt lat="49.86114" lon="4.77983">
        <ele>242</ele>
        <time>2022-09-28T08:31:40.000Z</time>
      </trkpt>
      <trkpt lat="49.86113" lon="4.77984">
        <ele>242</ele>
        <time>2022-09-28T08:31:41.000Z</time>
      </trkpt>
      <trkpt lat="49.86111" lon="4.77985">
        <ele>242</ele>
        <time>2022-09-28T08:31:42.000Z</time>
      </trkpt>
      <trkpt lat="49.86109" lon="4.77986">
        <ele>242</ele>
        <time>2022-09-28T08:31:43.000Z</time>
      </trkpt>
      <trkpt lat="49.86108" lon="4.77987">
        <ele>242</ele>
        <time>2022-09-28T08:31:44.000Z</time>
      </trkpt>
      <trkpt lat="49.86107" lon="4.77989">
        <ele>243</ele>
        <time>2022-09-28T08:31:45.000Z</time>
      </trkpt>
      <trkpt lat="49.86106" lon="4.7799">
        <ele>243</ele>
        <time>2022-09-28T08:31:46.000Z</time>
      </trkpt>
      <trkpt lat="49.86105" lon="4.77992">
        <ele>243</ele>
        <time>2022-09-28T08:31:47.000Z</time>
      </trkpt>
      <trkpt lat="49.86104" lon="4.77993">
        <ele>243</ele>
        <time>2022-09-28T08:31:48.000Z</time>
      </trkpt>
      <trkpt lat="49.86103" lon="4.77993">
        <ele>243</ele>
        <time>2022-09-28T08:31:49.000Z</time>
      </trkpt>
      <trkpt lat="49.86102" lon="4.77995">
        <ele>244</ele>
        <time>2022-09-28T08:31:50.000Z</time>
      </trkpt>
      <trkpt lat="49.86101" lon="4.77996">
        <ele>244</ele>
        <time>2022-09-28T08:31:51.000Z</time>
      </trkpt>
      <trkpt lat="49.86101" lon="4.77997">
        <ele>244</ele>
        <time>2022-09-28T08:31:52.000Z</time>
      </trkpt>
      <trkpt lat="49.861" lon="4.77999">
        <ele>244</ele>
        <time>2022-09-28T08:31:53.000Z</time>
      </trkpt>
      <trkpt lat="49.86099" lon="4.78001">
        <ele>244</ele>
        <time>2022-09-28T08:31:54.000Z</time>
      </trkpt>
      <trkpt lat="49.86098" lon="4.78003">
        <ele>245</ele>
        <time>2022-09-28T08:31:55.000Z</time>
      </trkpt>
      <trkpt lat="49.86097" lon="4.78005">
        <ele>245</ele>
        <time>2022-09-28T08:31:56.000Z</time>
      </trkpt>
      <trkpt lat="49.86097" lon="4.78007">
        <ele>245</ele>
        <time>2022-09-28T08:31:57.000Z</time>
      </trkpt>
      <trkpt lat="49.86096" lon="4.78008">
        <ele>245</ele>
        <time>2022-09-28T08:31:58.000Z</time>
      </trkpt>
      <trkpt lat="49.86095" lon="4.7801">
        <ele>245</ele>
        <time>2022-09-28T08:31:59.000Z</time>
      </trkpt>
      <trkpt lat="49.86095" lon="4.78012">
        <ele>246</ele>
        <time>2022-09-28T08:32:00.000Z</time>
      </trkpt>
      <trkpt lat="49.86094" lon="4.78014">
        <ele>246</ele>
        <time>2022-09-28T08:32:01.000Z</time>
      </trkpt>
      <trkpt lat="49.86093" lon="4.78016">
        <ele>246</ele>
        <time>2022-09-28T08:32:02.000Z</time>
      </trkpt>
      <trkpt lat="49.86091" lon="4.78017">
        <ele>246</ele>
        <time>2022-09-28T08:32:03.000Z</time>
      </trkpt>
      <trkpt lat="49.8609" lon="4.78019">
        <ele>246</ele>
        <time>2022-09-28T08:32:04.000Z</time>
      </trkpt>
      <trkpt lat="49.86088" lon="4.7802">
        <ele>246</ele>
        <time>2022-09-28T08:32:05.000Z</time>
      </trkpt>
      <trkpt lat="49.86086" lon="4.7802">
        <ele>246</ele>
        <time>2022-09-28T08:32:06.000Z</time>
      </trkpt>
      <trkpt lat="49.86085" lon="4.78021">
        <ele>246</ele>
        <time>2022-09-28T08:32:07.000Z</time>
      </trkpt>
      <trkpt lat="49.86083" lon="4.78022">
        <ele>246</ele>
        <time>2022-09-28T08:32:08.000Z</time>
      </trkpt>
      <trkpt lat="49.86081" lon="4.78022">
        <ele>247</ele>
        <time>2022-09-28T08:32:09.000Z</time>
      </trkpt>
      <trkpt lat="49.8608" lon="4.78023">
        <ele>247</ele>
        <time>2022-09-28T08:32:10.000Z</time>
      </trkpt>
      <trkpt lat="49.86079" lon="4.78023">
        <ele>247</ele>
        <time>2022-09-28T08:32:11.000Z</time>
      </trkpt>
      <trkpt lat="49.86077" lon="4.78023">
        <ele>247</ele>
        <time>2022-09-28T08:32:12.000Z</time>
      </trkpt>
      <trkpt lat="49.86076" lon="4.78024">
        <ele>247</ele>
        <time>2022-09-28T08:32:13.000Z</time>
      </trkpt>
      <trkpt lat="49.86074" lon="4.78025">
        <ele>247</ele>
        <time>2022-09-28T08:32:14.000Z</time>
      </trkpt>
      <trkpt lat="49.86072" lon="4.78027">
        <ele>247</ele>
        <time>2022-09-28T08:32:15.000Z</time>
      </trkpt>
      <trkpt lat="49.8607" lon="4.78029">
        <ele>247</ele>
        <time>2022-09-28T08:32:16.000Z</time>
      </trkpt>
      <trkpt lat="49.86068" lon="4.7803">
        <ele>247</ele>
        <time>2022-09-28T08:32:17.000Z</time>
      </trkpt>
      <trkpt lat="49.86067" lon="4.78032">
        <ele>247</ele>
        <time>2022-09-28T08:32:18.000Z</time>
      </trkpt>
      <trkpt lat="49.86066" lon="4.78033">
        <ele>248</ele>
        <time>2022-09-28T08:32:19.000Z</time>
      </trkpt>
      <trkpt lat="49.86064" lon="4.78034">
        <ele>248</ele>
        <time>2022-09-28T08:32:20.000Z</time>
      </trkpt>
      <trkpt lat="49.86063" lon="4.78034">
        <ele>248</ele>
        <time>2022-09-28T08:32:21.000Z</time>
      </trkpt>
      <trkpt lat="49.86061" lon="4.78035">
        <ele>248</ele>
        <time>2022-09-28T08:32:22.000Z</time>
      </trkpt>
      <trkpt lat="49.8606" lon="4.78037">
        <ele>248</ele>
        <time>2022-09-28T08:32:23.000Z</time>
      </trkpt>
      <trkpt lat="49.86059" lon="4.78039">
        <ele>248</ele>
        <time>2022-09-28T08:32:24.000Z</time>
      </trkpt>
      <trkpt lat="49.86057" lon="4.78041">
        <ele>248</ele>
        <time>2022-09-28T08:32:25.000Z</time>
      </trkpt>
      <trkpt lat="49.86056" lon="4.78042">
        <ele>248</ele>
        <time>2022-09-28T08:32:26.000Z</time>
      </trkpt>
      <trkpt lat="49.86054" lon="4.78045">
        <ele>249</ele>
        <time>2022-09-28T08:32:27.000Z</time>
      </trkpt>
      <trkpt lat="49.86053" lon="4.78047">
        <ele>249</ele>
        <time>2022-09-28T08:32:28.000Z</time>
      </trkpt>
      <trkpt lat="49.86051" lon="4.78049">
        <ele>249</ele>
        <time>2022-09-28T08:32:29.000Z</time>
      </trkpt>
      <trkpt lat="49.86049" lon="4.78052">
        <ele>249</ele>
        <time>2022-09-28T08:32:30.000Z</time>
      </trkpt>
      <trkpt lat="49.86047" lon="4.78054">
        <ele>249</ele>
        <time>2022-09-28T08:32:31.000Z</time>
      </trkpt>
      <trkpt lat="49.86046" lon="4.78055">
        <ele>249</ele>
        <time>2022-09-28T08:32:32.000Z</time>
      </trkpt>
      <trkpt lat="49.86045" lon="4.78057">
        <ele>249</ele>
        <time>2022-09-28T08:32:33.000Z</time>
      </trkpt>
      <trkpt lat="49.86044" lon="4.78059">
        <ele>250</ele>
        <time>2022-09-28T08:32:34.000Z</time>
      </trkpt>
      <trkpt lat="49.86042" lon="4.78061">
        <ele>250</ele>
        <time>2022-09-28T08:32:35.000Z</time>
      </trkpt>
      <trkpt lat="49.86041" lon="4.78064">
        <ele>250</ele>
        <time>2022-09-28T08:32:36.000Z</time>
      </trkpt>
      <trkpt lat="49.8604" lon="4.78066">
        <ele>250</ele>
        <time>2022-09-28T08:32:37.000Z</time>
      </trkpt>
      <trkpt lat="49.86038" lon="4.78068">
        <ele>250</ele>
        <time>2022-09-28T08:32:38.000Z</time>
      </trkpt>
      <trkpt lat="49.86036" lon="4.7807">
        <ele>250</ele>
        <time>2022-09-28T08:32:39.000Z</time>
      </trkpt>
      <trkpt lat="49.86035" lon="4.78071">
        <ele>251</ele>
        <time>2022-09-28T08:32:40.000Z</time>
      </trkpt>
      <trkpt lat="49.86033" lon="4.78073">
        <ele>251</ele>
        <time>2022-09-28T08:32:41.000Z</time>
      </trkpt>
      <trkpt lat="49.86031" lon="4.78074">
        <ele>251</ele>
        <time>2022-09-28T08:32:42.000Z</time>
      </trkpt>
      <trkpt lat="49.86029" lon="4.78075">
        <ele>251</ele>
        <time>2022-09-28T08:32:43.000Z</time>
      </trkpt>
      <trkpt lat="49.86027" lon="4.78075">
        <ele>251</ele>
        <time>2022-09-28T08:32:44.000Z</time>
      </trkpt>
      <trkpt lat="49.86025" lon="4.78075">
        <ele>251</ele>
        <time>2022-09-28T08:32:45.000Z</time>
      </trkpt>
      <trkpt lat="49.86023" lon="4.78076">
        <ele>252</ele>
        <time>2022-09-28T08:32:46.000Z</time>
      </trkpt>
      <trkpt lat="49.8602" lon="4.78077">
        <ele>252</ele>
        <time>2022-09-28T08:32:47.000Z</time>
      </trkpt>
      <trkpt lat="49.86018" lon="4.78077">
        <ele>252</ele>
        <time>2022-09-28T08:32:48.000Z</time>
      </trkpt>
      <trkpt lat="49.86016" lon="4.78077">
        <ele>252</ele>
        <time>2022-09-28T08:32:49.000Z</time>
      </trkpt>
      <trkpt lat="49.86014" lon="4.78077">
        <ele>252</ele>
        <time>2022-09-28T08:32:50.000Z</time>
      </trkpt>
      <trkpt lat="49.86012" lon="4.78078">
        <ele>252</ele>
        <time>2022-09-28T08:32:51.000Z</time>
      </trkpt>
      <trkpt lat="49.86011" lon="4.78078">
        <ele>252</ele>
        <time>2022-09-28T08:32:52.000Z</time>
      </trkpt>
      <trkpt lat="49.86009" lon="4.78079">
        <ele>252</ele>
        <time>2022-09-28T08:32:53.000Z</time>
      </trkpt>
      <trkpt lat="49.86009" lon="4.7808">
        <ele>252</ele>
        <time>2022-09-28T08:32:54.000Z</time>
      </trkpt>
      <trkpt lat="49.86007" lon="4.78081">
        <ele>253</ele>
        <time>2022-09-28T08:32:55.000Z</time>
      </trkpt>
      <trkpt lat="49.86005" lon="4.78083">
        <ele>253</ele>
        <time>2022-09-28T08:32:56.000Z</time>
      </trkpt>
      <trkpt lat="49.86003" lon="4.78084">
        <ele>253</ele>
        <time>2022-09-28T08:32:57.000Z</time>
      </trkpt>
      <trkpt lat="49.86" lon="4.78086">
        <ele>253</ele>
        <time>2022-09-28T08:32:58.000Z</time>
      </trkpt>
      <trkpt lat="49.85997" lon="4.78088">
        <ele>253</ele>
        <time>2022-09-28T08:32:59.000Z</time>
      </trkpt>
      <trkpt lat="49.85994" lon="4.7809">
        <ele>253</ele>
        <time>2022-09-28T08:33:00.000Z</time>
      </trkpt>
      <trkpt lat="49.85989" lon="4.78092">
        <ele>253</ele>
        <time>2022-09-28T08:33:01.000Z</time>
      </trkpt>
      <trkpt lat="49.85985" lon="4.78095">
        <ele>253</ele>
        <time>2022-09-28T08:33:02.000Z</time>
      </trkpt>
      <trkpt lat="49.85981" lon="4.78096">
        <ele>253</ele>
        <time>2022-09-28T08:33:03.000Z</time>
      </trkpt>
      <trkpt lat="49.85977" lon="4.78096">
        <ele>253</ele>
        <time>2022-09-28T08:33:04.000Z</time>
      </trkpt>
      <trkpt lat="49.85975" lon="4.78096">
        <ele>253</ele>
        <time>2022-09-28T08:33:05.000Z</time>
      </trkpt>
      <trkpt lat="49.85972" lon="4.78095">
        <ele>253</ele>
        <time>2022-09-28T08:33:06.000Z</time>
      </trkpt>
      <trkpt lat="49.85969" lon="4.78095">
        <ele>254</ele>
        <time>2022-09-28T08:33:07.000Z</time>
      </trkpt>
      <trkpt lat="49.85967" lon="4.78094">
        <ele>254</ele>
        <time>2022-09-28T08:33:08.000Z</time>
      </trkpt>
      <trkpt lat="49.85965" lon="4.78093">
        <ele>254</ele>
        <time>2022-09-28T08:33:09.000Z</time>
      </trkpt>
      <trkpt lat="49.85963" lon="4.78092">
        <ele>254</ele>
        <time>2022-09-28T08:33:10.000Z</time>
      </trkpt>
      <trkpt lat="49.85962" lon="4.78092">
        <ele>254</ele>
        <time>2022-09-28T08:33:11.000Z</time>
      </trkpt>
      <trkpt lat="49.85961" lon="4.78091">
        <ele>254</ele>
        <time>2022-09-28T08:33:12.000Z</time>
      </trkpt>
      <trkpt lat="49.85961" lon="4.78091">
        <ele>254</ele>
        <time>2022-09-28T08:33:13.000Z</time>
      </trkpt>
      <trkpt lat="49.8596" lon="4.78091">
        <ele>254</ele>
        <time>2022-09-28T08:33:14.000Z</time>
      </trkpt>
      <trkpt lat="49.85959" lon="4.7809">
        <ele>254</ele>
        <time>2022-09-28T08:33:15.000Z</time>
      </trkpt>
      <trkpt lat="49.85958" lon="4.7809">
        <ele>254</ele>
        <time>2022-09-28T08:33:16.000Z</time>
      </trkpt>
      <trkpt lat="49.85956" lon="4.7809">
        <ele>255</ele>
        <time>2022-09-28T08:33:17.000Z</time>
      </trkpt>
      <trkpt lat="49.85955" lon="4.7809">
        <ele>255</ele>
        <time>2022-09-28T08:33:18.000Z</time>
      </trkpt>
      <trkpt lat="49.85953" lon="4.78089">
        <ele>255</ele>
        <time>2022-09-28T08:33:19.000Z</time>
      </trkpt>
      <trkpt lat="49.85952" lon="4.78087">
        <ele>255</ele>
        <time>2022-09-28T08:33:20.000Z</time>
      </trkpt>
      <trkpt lat="49.8595" lon="4.78086">
        <ele>255</ele>
        <time>2022-09-28T08:33:21.000Z</time>
      </trkpt>
      <trkpt lat="49.85947" lon="4.78084">
        <ele>256</ele>
        <time>2022-09-28T08:33:22.000Z</time>
      </trkpt>
      <trkpt lat="49.85945" lon="4.78081">
        <ele>256</ele>
        <time>2022-09-28T08:33:23.000Z</time>
      </trkpt>
      <trkpt lat="49.85944" lon="4.78077">
        <ele>256</ele>
        <time>2022-09-28T08:33:24.000Z</time>
      </trkpt>
      <trkpt lat="49.85942" lon="4.78074">
        <ele>256</ele>
        <time>2022-09-28T08:33:25.000Z</time>
      </trkpt>
      <trkpt lat="49.85941" lon="4.78071">
        <ele>256</ele>
        <time>2022-09-28T08:33:26.000Z</time>
      </trkpt>
      <trkpt lat="49.8594" lon="4.7807">
        <ele>256</ele>
        <time>2022-09-28T08:33:27.000Z</time>
      </trkpt>
      <trkpt lat="49.85938" lon="4.7807">
        <ele>256</ele>
        <time>2022-09-28T08:33:28.000Z</time>
      </trkpt>
      <trkpt lat="49.85936" lon="4.78071">
        <ele>256</ele>
        <time>2022-09-28T08:33:29.000Z</time>
      </trkpt>
      <trkpt lat="49.85935" lon="4.78073">
        <ele>256</ele>
        <time>2022-09-28T08:33:30.000Z</time>
      </trkpt>
      <trkpt lat="49.85935" lon="4.78075">
        <ele>256</ele>
        <time>2022-09-28T08:33:31.000Z</time>
      </trkpt>
      <trkpt lat="49.85936" lon="4.78078">
        <ele>256</ele>
        <time>2022-09-28T08:33:32.000Z</time>
      </trkpt>
      <trkpt lat="49.85937" lon="4.7808">
        <ele>256</ele>
        <time>2022-09-28T08:33:33.000Z</time>
      </trkpt>
      <trkpt lat="49.85939" lon="4.78081">
        <ele>256</ele>
        <time>2022-09-28T08:33:34.000Z</time>
      </trkpt>
      <trkpt lat="49.85941" lon="4.78083">
        <ele>256</ele>
        <time>2022-09-28T08:33:35.000Z</time>
      </trkpt>
      <trkpt lat="49.85942" lon="4.78083">
        <ele>256</ele>
        <time>2022-09-28T08:33:36.000Z</time>
      </trkpt>
      <trkpt lat="49.85944" lon="4.78085">
        <ele>256</ele>
        <time>2022-09-28T08:33:37.000Z</time>
      </trkpt>
      <trkpt lat="49.85944" lon="4.78086">
        <ele>256</ele>
        <time>2022-09-28T08:33:38.000Z</time>
      </trkpt>
      <trkpt lat="49.85945" lon="4.78088">
        <ele>256</ele>
        <time>2022-09-28T08:33:39.000Z</time>
      </trkpt>
      <trkpt lat="49.85946" lon="4.7809">
        <ele>256</ele>
        <time>2022-09-28T08:33:40.000Z</time>
      </trkpt>
      <trkpt lat="49.85947" lon="4.78092">
        <ele>256</ele>
        <time>2022-09-28T08:33:41.000Z</time>
      </trkpt>
      <trkpt lat="49.85948" lon="4.78094">
        <ele>256</ele>
        <time>2022-09-28T08:33:42.000Z</time>
      </trkpt>
      <trkpt lat="49.85949" lon="4.78094">
        <ele>256</ele>
        <time>2022-09-28T08:33:43.000Z</time>
      </trkpt>
      <trkpt lat="49.85949" lon="4.78095">
        <ele>256</ele>
        <time>2022-09-28T08:33:44.000Z</time>
      </trkpt>
      <trkpt lat="49.8595" lon="4.78095">
        <ele>256</ele>
        <time>2022-09-28T08:33:45.000Z</time>
      </trkpt>
      <trkpt lat="49.85951" lon="4.78096">
        <ele>256</ele>
        <time>2022-09-28T08:33:46.000Z</time>
      </trkpt>
      <trkpt lat="49.85952" lon="4.78096">
        <ele>256</ele>
        <time>2022-09-28T08:33:47.000Z</time>
      </trkpt>
      <trkpt lat="49.85952" lon="4.78096">
        <ele>256</ele>
        <time>2022-09-28T08:33:48.000Z</time>
      </trkpt>
      <trkpt lat="49.85953" lon="4.78096">
        <ele>256</ele>
        <time>2022-09-28T08:33:49.000Z</time>
      </trkpt>
      <trkpt lat="49.85954" lon="4.78097">
        <ele>256</ele>
        <time>2022-09-28T08:33:50.000Z</time>
      </trkpt>
      <trkpt lat="49.85956" lon="4.78098">
        <ele>256</ele>
        <time>2022-09-28T08:33:51.000Z</time>
      </trkpt>
      <trkpt lat="49.85958" lon="4.78099">
        <ele>256</ele>
        <time>2022-09-28T08:33:52.000Z</time>
      </trkpt>
      <trkpt lat="49.85959" lon="4.78099">
        <ele>256</ele>
        <time>2022-09-28T08:33:53.000Z</time>
      </trkpt>
      <trkpt lat="49.85961" lon="4.78099">
        <ele>256</ele>
        <time>2022-09-28T08:33:54.000Z</time>
      </trkpt>
      <trkpt lat="49.85963" lon="4.781">
        <ele>256</ele>
        <time>2022-09-28T08:33:55.000Z</time>
      </trkpt>
      <trkpt lat="49.85966" lon="4.781">
        <ele>256</ele>
        <time>2022-09-28T08:33:56.000Z</time>
      </trkpt>
      <trkpt lat="49.85968" lon="4.78101">
        <ele>256</ele>
        <time>2022-09-28T08:33:57.000Z</time>
      </trkpt>
      <trkpt lat="49.85971" lon="4.781">
        <ele>256</ele>
        <time>2022-09-28T08:33:58.000Z</time>
      </trkpt>
      <trkpt lat="49.85974" lon="4.78099">
        <ele>256</ele>
        <time>2022-09-28T08:33:59.000Z</time>
      </trkpt>
      <trkpt lat="49.85976" lon="4.78097">
        <ele>256</ele>
        <time>2022-09-28T08:34:00.000Z</time>
      </trkpt>
      <trkpt lat="49.85979" lon="4.78096">
        <ele>256</ele>
        <time>2022-09-28T08:34:01.000Z</time>
      </trkpt>
      <trkpt lat="49.85981" lon="4.78095">
        <ele>256</ele>
        <time>2022-09-28T08:34:02.000Z</time>
      </trkpt>
      <trkpt lat="49.85983" lon="4.78094">
        <ele>256</ele>
        <time>2022-09-28T08:34:03.000Z</time>
      </trkpt>
      <trkpt lat="49.85985" lon="4.78093">
        <ele>256</ele>
        <time>2022-09-28T08:34:04.000Z</time>
      </trkpt>
      <trkpt lat="49.85986" lon="4.78093">
        <ele>256</ele>
        <time>2022-09-28T08:34:05.000Z</time>
      </trkpt>
      <trkpt lat="49.85988" lon="4.78092">
        <ele>256</ele>
        <time>2022-09-28T08:34:06.000Z</time>
      </trkpt>
      <trkpt lat="49.85991" lon="4.78091">
        <ele>256</ele>
        <time>2022-09-28T08:34:07.000Z</time>
      </trkpt>
      <trkpt lat="49.85993" lon="4.7809">
        <ele>256</ele>
        <time>2022-09-28T08:34:08.000Z</time>
      </trkpt>
      <trkpt lat="49.85995" lon="4.78089">
        <ele>256</ele>
        <time>2022-09-28T08:34:09.000Z</time>
      </trkpt>
      <trkpt lat="49.85998" lon="4.78088">
        <ele>256</ele>
        <time>2022-09-28T08:34:10.000Z</time>
      </trkpt>
      <trkpt lat="49.86" lon="4.78088">
        <ele>256</ele>
        <time>2022-09-28T08:34:11.000Z</time>
      </trkpt>
      <trkpt lat="49.86003" lon="4.78087">
        <ele>256</ele>
        <time>2022-09-28T08:34:12.000Z</time>
      </trkpt>
      <trkpt lat="49.86006" lon="4.78085">
        <ele>256</ele>
        <time>2022-09-28T08:34:13.000Z</time>
      </trkpt>
      <trkpt lat="49.8601" lon="4.78085">
        <ele>256</ele>
        <time>2022-09-28T08:34:14.000Z</time>
      </trkpt>
      <trkpt lat="49.86013" lon="4.78084">
        <ele>256</ele>
        <time>2022-09-28T08:34:15.000Z</time>
      </trkpt>
      <trkpt lat="49.86016" lon="4.78083">
        <ele>255</ele>
        <time>2022-09-28T08:34:16.000Z</time>
      </trkpt>
      <trkpt lat="49.86019" lon="4.78082">
        <ele>255</ele>
        <time>2022-09-28T08:34:17.000Z</time>
      </trkpt>
      <trkpt lat="49.86022" lon="4.78081">
        <ele>255</ele>
        <time>2022-09-28T08:34:18.000Z</time>
      </trkpt>
      <trkpt lat="49.86024" lon="4.78079">
        <ele>255</ele>
        <time>2022-09-28T08:34:19.000Z</time>
      </trkpt>
      <trkpt lat="49.86027" lon="4.78075">
        <ele>255</ele>
        <time>2022-09-28T08:34:20.000Z</time>
      </trkpt>
      <trkpt lat="49.8603" lon="4.78071">
        <ele>255</ele>
        <time>2022-09-28T08:34:21.000Z</time>
      </trkpt>
      <trkpt lat="49.86034" lon="4.78065">
        <ele>255</ele>
        <time>2022-09-28T08:34:22.000Z</time>
      </trkpt>
      <trkpt lat="49.86039" lon="4.7806">
        <ele>255</ele>
        <time>2022-09-28T08:34:23.000Z</time>
      </trkpt>
      <trkpt lat="49.86043" lon="4.78055">
        <ele>254</ele>
        <time>2022-09-28T08:34:24.000Z</time>
      </trkpt>
      <trkpt lat="49.86046" lon="4.7805">
        <ele>254</ele>
        <time>2022-09-28T08:34:25.000Z</time>
      </trkpt>
      <trkpt lat="49.8605" lon="4.78045">
        <ele>254</ele>
        <time>2022-09-28T08:34:26.000Z</time>
      </trkpt>
      <trkpt lat="49.86054" lon="4.78041">
        <ele>254</ele>
        <time>2022-09-28T08:34:27.000Z</time>
      </trkpt>
      <trkpt lat="49.86059" lon="4.78037">
        <ele>254</ele>
        <time>2022-09-28T08:34:28.000Z</time>
      </trkpt>
      <trkpt lat="49.86064" lon="4.78033">
        <ele>254</ele>
        <time>2022-09-28T08:34:29.000Z</time>
      </trkpt>
      <trkpt lat="49.86068" lon="4.78029">
        <ele>254</ele>
        <time>2022-09-28T08:34:30.000Z</time>
      </trkpt>
      <trkpt lat="49.86073" lon="4.78027">
        <ele>254</ele>
        <time>2022-09-28T08:34:31.000Z</time>
      </trkpt>
      <trkpt lat="49.86077" lon="4.78024">
        <ele>254</ele>
        <time>2022-09-28T08:34:32.000Z</time>
      </trkpt>
      <trkpt lat="49.86081" lon="4.78021">
        <ele>254</ele>
        <time>2022-09-28T08:34:33.000Z</time>
      </trkpt>
      <trkpt lat="49.86085" lon="4.78018">
        <ele>254</ele>
        <time>2022-09-28T08:34:34.000Z</time>
      </trkpt>
      <trkpt lat="49.86089" lon="4.78014">
        <ele>253</ele>
        <time>2022-09-28T08:34:35.000Z</time>
      </trkpt>
      <trkpt lat="49.86092" lon="4.78009">
        <ele>253</ele>
        <time>2022-09-28T08:34:36.000Z</time>
      </trkpt>
      <trkpt lat="49.86095" lon="4.78004">
        <ele>253</ele>
        <time>2022-09-28T08:34:37.000Z</time>
      </trkpt>
      <trkpt lat="49.86098" lon="4.77999">
        <ele>253</ele>
        <time>2022-09-28T08:34:38.000Z</time>
      </trkpt>
      <trkpt lat="49.86101" lon="4.77995">
        <ele>253</ele>
        <time>2022-09-28T08:34:39.000Z</time>
      </trkpt>
      <trkpt lat="49.86104" lon="4.77992">
        <ele>253</ele>
        <time>2022-09-28T08:34:40.000Z</time>
      </trkpt>
      <trkpt lat="49.86107" lon="4.77989">
        <ele>253</ele>
        <time>2022-09-28T08:34:41.000Z</time>
      </trkpt>
      <trkpt lat="49.8611" lon="4.77987">
        <ele>253</ele>
        <time>2022-09-28T08:34:42.000Z</time>
      </trkpt>
      <trkpt lat="49.86112" lon="4.77985">
        <ele>253</ele>
        <time>2022-09-28T08:34:43.000Z</time>
      </trkpt>
      <trkpt lat="49.86115" lon="4.77984">
        <ele>253</ele>
        <time>2022-09-28T08:34:44.000Z</time>
      </trkpt>
      <trkpt lat="49.86118" lon="4.77982">
        <ele>253</ele>
        <time>2022-09-28T08:34:45.000Z</time>
      </trkpt>
      <trkpt lat="49.86121" lon="4.77982">
        <ele>253</ele>
        <time>2022-09-28T08:34:46.000Z</time>
      </trkpt>
      <trkpt lat="49.86124" lon="4.77983">
        <ele>253</ele>
        <time>2022-09-28T08:34:47.000Z</time>
      </trkpt>
      <trkpt lat="49.86127" lon="4.77984">
        <ele>253</ele>
        <time>2022-09-28T08:34:48.000Z</time>
      </trkpt>
      <trkpt lat="49.86129" lon="4.77985">
        <ele>253</ele>
        <time>2022-09-28T08:34:49.000Z</time>
      </trkpt>
      <trkpt lat="49.86132" lon="4.77987">
        <ele>253</ele>
        <time>2022-09-28T08:34:50.000Z</time>
      </trkpt>
      <trkpt lat="49.86136" lon="4.77989">
        <ele>253</ele>
        <time>2022-09-28T08:34:51.000Z</time>
      </trkpt>
      <trkpt lat="49.86138" lon="4.77991">
        <ele>253</ele>
        <time>2022-09-28T08:34:52.000Z</time>
      </trkpt>
      <trkpt lat="49.86141" lon="4.77993">
        <ele>253</ele>
        <time>2022-09-28T08:34:53.000Z</time>
      </trkpt>
      <trkpt lat="49.86142" lon="4.77995">
        <ele>252</ele>
        <time>2022-09-28T08:34:54.000Z</time>
      </trkpt>
      <trkpt lat="49.86145" lon="4.77997">
        <ele>252</ele>
        <time>2022-09-28T08:34:55.000Z</time>
      </trkpt>
      <trkpt lat="49.86147" lon="4.77998">
        <ele>252</ele>
        <time>2022-09-28T08:34:56.000Z</time>
      </trkpt>
      <trkpt lat="49.8615" lon="4.78001">
        <ele>252</ele>
        <time>2022-09-28T08:34:57.000Z</time>
      </trkpt>
      <trkpt lat="49.86152" lon="4.78004">
        <ele>252</ele>
        <time>2022-09-28T08:34:58.000Z</time>
      </trkpt>
      <trkpt lat="49.86155" lon="4.78007">
        <ele>252</ele>
        <time>2022-09-28T08:34:59.000Z</time>
      </trkpt>
      <trkpt lat="49.86157" lon="4.7801">
        <ele>251</ele>
        <time>2022-09-28T08:35:00.000Z</time>
      </trkpt>
      <trkpt lat="49.8616" lon="4.78013">
        <ele>251</ele>
        <time>2022-09-28T08:35:01.000Z</time>
      </trkpt>
      <trkpt lat="49.86164" lon="4.78016">
        <ele>251</ele>
        <time>2022-09-28T08:35:02.000Z</time>
      </trkpt>
      <trkpt lat="49.86168" lon="4.7802">
        <ele>251</ele>
        <time>2022-09-28T08:35:03.000Z</time>
      </trkpt>
      <trkpt lat="49.86172" lon="4.78024">
        <ele>250</ele>
        <time>2022-09-28T08:35:04.000Z</time>
      </trkpt>
      <trkpt lat="49.86176" lon="4.78029">
        <ele>250</ele>
        <time>2022-09-28T08:35:05.000Z</time>
      </trkpt>
      <trkpt lat="49.8618" lon="4.78033">
        <ele>250</ele>
        <time>2022-09-28T08:35:06.000Z</time>
      </trkpt>
      <trkpt lat="49.86184" lon="4.78038">
        <ele>250</ele>
        <time>2022-09-28T08:35:07.000Z</time>
      </trkpt>
      <trkpt lat="49.86188" lon="4.78043">
        <ele>249</ele>
        <time>2022-09-28T08:35:08.000Z</time>
      </trkpt>
      <trkpt lat="49.86192" lon="4.78048">
        <ele>249</ele>
        <time>2022-09-28T08:35:09.000Z</time>
      </trkpt>
      <trkpt lat="49.86195" lon="4.78052">
        <ele>249</ele>
        <time>2022-09-28T08:35:10.000Z</time>
      </trkpt>
      <trkpt lat="49.86199" lon="4.78056">
        <ele>248</ele>
        <time>2022-09-28T08:35:11.000Z</time>
      </trkpt>
      <trkpt lat="49.86202" lon="4.7806">
        <ele>248</ele>
        <time>2022-09-28T08:35:12.000Z</time>
      </trkpt>
      <trkpt lat="49.86205" lon="4.78062">
        <ele>248</ele>
        <time>2022-09-28T08:35:13.000Z</time>
      </trkpt>
      <trkpt lat="49.86208" lon="4.78064">
        <ele>247</ele>
        <time>2022-09-28T08:35:14.000Z</time>
      </trkpt>
      <trkpt lat="49.86212" lon="4.78066">
        <ele>247</ele>
        <time>2022-09-28T08:35:15.000Z</time>
      </trkpt>
      <trkpt lat="49.86215" lon="4.78066">
        <ele>247</ele>
        <time>2022-09-28T08:35:16.000Z</time>
      </trkpt>
      <trkpt lat="49.86219" lon="4.78066">
        <ele>246</ele>
        <time>2022-09-28T08:35:17.000Z</time>
      </trkpt>
      <trkpt lat="49.86225" lon="4.78065">
        <ele>246</ele>
        <time>2022-09-28T08:35:18.000Z</time>
      </trkpt>
      <trkpt lat="49.8623" lon="4.78064">
        <ele>245</ele>
        <time>2022-09-28T08:35:19.000Z</time>
      </trkpt>
      <trkpt lat="49.86234" lon="4.78062">
        <ele>245</ele>
        <time>2022-09-28T08:35:20.000Z</time>
      </trkpt>
      <trkpt lat="49.86238" lon="4.78061">
        <ele>245</ele>
        <time>2022-09-28T08:35:21.000Z</time>
      </trkpt>
      <trkpt lat="49.86242" lon="4.78059">
        <ele>244</ele>
        <time>2022-09-28T08:35:22.000Z</time>
      </trkpt>
      <trkpt lat="49.86245" lon="4.78057">
        <ele>244</ele>
        <time>2022-09-28T08:35:23.000Z</time>
      </trkpt>
      <trkpt lat="49.86249" lon="4.78056">
        <ele>243</ele>
        <time>2022-09-28T08:35:24.000Z</time>
      </trkpt>
      <trkpt lat="49.86253" lon="4.78054">
        <ele>243</ele>
        <time>2022-09-28T08:35:25.000Z</time>
      </trkpt>
      <trkpt lat="49.86256" lon="4.78052">
        <ele>242</ele>
        <time>2022-09-28T08:35:26.000Z</time>
      </trkpt>
      <trkpt lat="49.86259" lon="4.78051">
        <ele>242</ele>
        <time>2022-09-28T08:35:27.000Z</time>
      </trkpt>
      <trkpt lat="49.86262" lon="4.7805">
        <ele>242</ele>
        <time>2022-09-28T08:35:28.000Z</time>
      </trkpt>
      <trkpt lat="49.86265" lon="4.78049">
        <ele>241</ele>
        <time>2022-09-28T08:35:29.000Z</time>
      </trkpt>
      <trkpt lat="49.86269" lon="4.78047">
        <ele>241</ele>
        <time>2022-09-28T08:35:30.000Z</time>
      </trkpt>
      <trkpt lat="49.86273" lon="4.78046">
        <ele>240</ele>
        <time>2022-09-28T08:35:31.000Z</time>
      </trkpt>
      <trkpt lat="49.86277" lon="4.78044">
        <ele>240</ele>
        <time>2022-09-28T08:35:32.000Z</time>
      </trkpt>
      <trkpt lat="49.8628" lon="4.78041">
        <ele>239</ele>
        <time>2022-09-28T08:35:33.000Z</time>
      </trkpt>
      <trkpt lat="49.86284" lon="4.78039">
        <ele>239</ele>
        <time>2022-09-28T08:35:34.000Z</time>
      </trkpt>
      <trkpt lat="49.86288" lon="4.78037">
        <ele>239</ele>
        <time>2022-09-28T08:35:35.000Z</time>
      </trkpt>
      <trkpt lat="49.86291" lon="4.78036">
        <ele>238</ele>
        <time>2022-09-28T08:35:36.000Z</time>
      </trkpt>
      <trkpt lat="49.86294" lon="4.78034">
        <ele>238</ele>
        <time>2022-09-28T08:35:37.000Z</time>
      </trkpt>
      <trkpt lat="49.86297" lon="4.78032">
        <ele>238</ele>
        <time>2022-09-28T08:35:38.000Z</time>
      </trkpt>
      <trkpt lat="49.86299" lon="4.78031">
        <ele>237</ele>
        <time>2022-09-28T08:35:39.000Z</time>
      </trkpt>
      <trkpt lat="49.86302" lon="4.7803">
        <ele>237</ele>
        <time>2022-09-28T08:35:40.000Z</time>
      </trkpt>
      <trkpt lat="49.86305" lon="4.78028">
        <ele>237</ele>
        <time>2022-09-28T08:35:41.000Z</time>
      </trkpt>
      <trkpt lat="49.86308" lon="4.78026">
        <ele>236</ele>
        <time>2022-09-28T08:35:42.000Z</time>
      </trkpt>
      <trkpt lat="49.86312" lon="4.78023">
        <ele>236</ele>
        <time>2022-09-28T08:35:43.000Z</time>
      </trkpt>
      <trkpt lat="49.86315" lon="4.7802">
        <ele>236</ele>
        <time>2022-09-28T08:35:44.000Z</time>
      </trkpt>
      <trkpt lat="49.86319" lon="4.78018">
        <ele>235</ele>
        <time>2022-09-28T08:35:45.000Z</time>
      </trkpt>
      <trkpt lat="49.86321" lon="4.78015">
        <ele>235</ele>
        <time>2022-09-28T08:35:46.000Z</time>
      </trkpt>
      <trkpt lat="49.86324" lon="4.78013">
        <ele>235</ele>
        <time>2022-09-28T08:35:47.000Z</time>
      </trkpt>
      <trkpt lat="49.86327" lon="4.78012">
        <ele>234</ele>
        <time>2022-09-28T08:35:48.000Z</time>
      </trkpt>
      <trkpt lat="49.8633" lon="4.7801">
        <ele>234</ele>
        <time>2022-09-28T08:35:49.000Z</time>
      </trkpt>
      <trkpt lat="49.86333" lon="4.78008">
        <ele>234</ele>
        <time>2022-09-28T08:35:50.000Z</time>
      </trkpt>
      <trkpt lat="49.86335" lon="4.78006">
        <ele>233</ele>
        <time>2022-09-28T08:35:51.000Z</time>
      </trkpt>
      <trkpt lat="49.86338" lon="4.78004">
        <ele>233</ele>
        <time>2022-09-28T08:35:52.000Z</time>
      </trkpt>
      <trkpt lat="49.86341" lon="4.78002">
        <ele>233</ele>
        <time>2022-09-28T08:35:53.000Z</time>
      </trkpt>
      <trkpt lat="49.86345" lon="4.77999">
        <ele>233</ele>
        <time>2022-09-28T08:35:54.000Z</time>
      </trkpt>
      <trkpt lat="49.86349" lon="4.77996">
        <ele>233</ele>
        <time>2022-09-28T08:35:55.000Z</time>
      </trkpt>
      <trkpt lat="49.86352" lon="4.77993">
        <ele>232</ele>
        <time>2022-09-28T08:35:56.000Z</time>
      </trkpt>
      <trkpt lat="49.86355" lon="4.77991">
        <ele>232</ele>
        <time>2022-09-28T08:35:57.000Z</time>
      </trkpt>
      <trkpt lat="49.86357" lon="4.77988">
        <ele>232</ele>
        <time>2022-09-28T08:35:58.000Z</time>
      </trkpt>
      <trkpt lat="49.8636" lon="4.77986">
        <ele>231</ele>
        <time>2022-09-28T08:35:59.000Z</time>
      </trkpt>
      <trkpt lat="49.86361" lon="4.77984">
        <ele>231</ele>
        <time>2022-09-28T08:36:00.000Z</time>
      </trkpt>
      <trkpt lat="49.86363" lon="4.77982">
        <ele>231</ele>
        <time>2022-09-28T08:36:01.000Z</time>
      </trkpt>
      <trkpt lat="49.86365" lon="4.7798">
        <ele>231</ele>
        <time>2022-09-28T08:36:02.000Z</time>
      </trkpt>
      <trkpt lat="49.86367" lon="4.77978">
        <ele>231</ele>
        <time>2022-09-28T08:36:03.000Z</time>
      </trkpt>
      <trkpt lat="49.86369" lon="4.77977">
        <ele>231</ele>
        <time>2022-09-28T08:36:04.000Z</time>
      </trkpt>
      <trkpt lat="49.86371" lon="4.77975">
        <ele>230</ele>
        <time>2022-09-28T08:36:05.000Z</time>
      </trkpt>
      <trkpt lat="49.86373" lon="4.77973">
        <ele>230</ele>
        <time>2022-09-28T08:36:06.000Z</time>
      </trkpt>
      <trkpt lat="49.86376" lon="4.77971">
        <ele>230</ele>
        <time>2022-09-28T08:36:07.000Z</time>
      </trkpt>
      <trkpt lat="49.86378" lon="4.77969">
        <ele>230</ele>
        <time>2022-09-28T08:36:08.000Z</time>
      </trkpt>
      <trkpt lat="49.8638" lon="4.77967">
        <ele>230</ele>
        <time>2022-09-28T08:36:09.000Z</time>
      </trkpt>
      <trkpt lat="49.86383" lon="4.77966">
        <ele>230</ele>
        <time>2022-09-28T08:36:10.000Z</time>
      </trkpt>
      <trkpt lat="49.86385" lon="4.77964">
        <ele>229</ele>
        <time>2022-09-28T08:36:11.000Z</time>
      </trkpt>
      <trkpt lat="49.86387" lon="4.77964">
        <ele>229</ele>
        <time>2022-09-28T08:36:12.000Z</time>
      </trkpt>
      <trkpt lat="49.86388" lon="4.77964">
        <ele>229</ele>
        <time>2022-09-28T08:36:13.000Z</time>
      </trkpt>
      <trkpt lat="49.86388" lon="4.77964">
        <ele>229</ele>
        <time>2022-09-28T08:36:14.000Z</time>
      </trkpt>
      <trkpt lat="49.86388" lon="4.77965">
        <ele>229</ele>
        <time>2022-09-28T08:36:15.000Z</time>
      </trkpt>
      <trkpt lat="49.86389" lon="4.77966">
        <ele>229</ele>
        <time>2022-09-28T08:36:16.000Z</time>
      </trkpt>
      <trkpt lat="49.86388" lon="4.77968">
        <ele>229</ele>
        <time>2022-09-28T08:36:17.000Z</time>
      </trkpt>
      <trkpt lat="49.86387" lon="4.77971">
        <ele>229</ele>
        <time>2022-09-28T08:36:18.000Z</time>
      </trkpt>
      <trkpt lat="49.86385" lon="4.77974">
        <ele>229</ele>
        <time>2022-09-28T08:36:19.000Z</time>
      </trkpt>
      <trkpt lat="49.86383" lon="4.77977">
        <ele>229</ele>
        <time>2022-09-28T08:36:20.000Z</time>
      </trkpt>
      <trkpt lat="49.86381" lon="4.7798">
        <ele>228</ele>
        <time>2022-09-28T08:36:21.000Z</time>
      </trkpt>
      <trkpt lat="49.86379" lon="4.77983">
        <ele>228</ele>
        <time>2022-09-28T08:36:22.000Z</time>
      </trkpt>
      <trkpt lat="49.86377" lon="4.77987">
        <ele>228</ele>
        <time>2022-09-28T08:36:23.000Z</time>
      </trkpt>
      <trkpt lat="49.86376" lon="4.7799">
        <ele>228</ele>
        <time>2022-09-28T08:36:24.000Z</time>
      </trkpt>
      <trkpt lat="49.86374" lon="4.77993">
        <ele>228</ele>
        <time>2022-09-28T08:36:25.000Z</time>
      </trkpt>
      <trkpt lat="49.86372" lon="4.77996">
        <ele>228</ele>
        <time>2022-09-28T08:36:26.000Z</time>
      </trkpt>
      <trkpt lat="49.8637" lon="4.77999">
        <ele>228</ele>
        <time>2022-09-28T08:36:27.000Z</time>
      </trkpt>
      <trkpt lat="49.86368" lon="4.78002">
        <ele>227</ele>
        <time>2022-09-28T08:36:28.000Z</time>
      </trkpt>
      <trkpt lat="49.86366" lon="4.78005">
        <ele>227</ele>
        <time>2022-09-28T08:36:29.000Z</time>
      </trkpt>
      <trkpt lat="49.86365" lon="4.78008">
        <ele>227</ele>
        <time>2022-09-28T08:36:30.000Z</time>
      </trkpt>
      <trkpt lat="49.86364" lon="4.7801">
        <ele>226</ele>
        <time>2022-09-28T08:36:31.000Z</time>
      </trkpt>
      <trkpt lat="49.86362" lon="4.78012">
        <ele>226</ele>
        <time>2022-09-28T08:36:32.000Z</time>
      </trkpt>
      <trkpt lat="49.86361" lon="4.78013">
        <ele>225</ele>
        <time>2022-09-28T08:36:33.000Z</time>
      </trkpt>
      <trkpt lat="49.8636" lon="4.78015">
        <ele>225</ele>
        <time>2022-09-28T08:36:34.000Z</time>
      </trkpt>
      <trkpt lat="49.86359" lon="4.78016">
        <ele>225</ele>
        <time>2022-09-28T08:36:35.000Z</time>
      </trkpt>
      <trkpt lat="49.86358" lon="4.78019">
        <ele>224</ele>
        <time>2022-09-28T08:36:36.000Z</time>
      </trkpt>
      <trkpt lat="49.86356" lon="4.78021">
        <ele>224</ele>
        <time>2022-09-28T08:36:37.000Z</time>
      </trkpt>
      <trkpt lat="49.86354" lon="4.78024">
        <ele>224</ele>
        <time>2022-09-28T08:36:38.000Z</time>
      </trkpt>
      <trkpt lat="49.86353" lon="4.78027">
        <ele>224</ele>
        <time>2022-09-28T08:36:39.000Z</time>
      </trkpt>
      <trkpt lat="49.8635" lon="4.78031">
        <ele>223</ele>
        <time>2022-09-28T08:36:40.000Z</time>
      </trkpt>
      <trkpt lat="49.86346" lon="4.78035">
        <ele>223</ele>
        <time>2022-09-28T08:36:41.000Z</time>
      </trkpt>
      <trkpt lat="49.86343" lon="4.78039">
        <ele>223</ele>
        <time>2022-09-28T08:36:42.000Z</time>
      </trkpt>
      <trkpt lat="49.86339" lon="4.78042">
        <ele>223</ele>
        <time>2022-09-28T08:36:43.000Z</time>
      </trkpt>
      <trkpt lat="49.86336" lon="4.78044">
        <ele>222</ele>
        <time>2022-09-28T08:36:44.000Z</time>
      </trkpt>
      <trkpt lat="49.86333" lon="4.78046">
        <ele>222</ele>
        <time>2022-09-28T08:36:45.000Z</time>
      </trkpt>
      <trkpt lat="49.86331" lon="4.78047">
        <ele>222</ele>
        <time>2022-09-28T08:36:46.000Z</time>
      </trkpt>
      <trkpt lat="49.8633" lon="4.78048">
        <ele>222</ele>
        <time>2022-09-28T08:36:47.000Z</time>
      </trkpt>
      <trkpt lat="49.8633" lon="4.7805">
        <ele>221</ele>
        <time>2022-09-28T08:36:48.000Z</time>
      </trkpt>
      <trkpt lat="49.86328" lon="4.78051">
        <ele>221</ele>
        <time>2022-09-28T08:36:49.000Z</time>
      </trkpt>
      <trkpt lat="49.86326" lon="4.78053">
        <ele>221</ele>
        <time>2022-09-28T08:36:50.000Z</time>
      </trkpt>
      <trkpt lat="49.86324" lon="4.78056">
        <ele>221</ele>
        <time>2022-09-28T08:36:51.000Z</time>
      </trkpt>
      <trkpt lat="49.86322" lon="4.78059">
        <ele>220</ele>
        <time>2022-09-28T08:36:52.000Z</time>
      </trkpt>
      <trkpt lat="49.8632" lon="4.78061">
        <ele>220</ele>
        <time>2022-09-28T08:36:53.000Z</time>
      </trkpt>
      <trkpt lat="49.86317" lon="4.78063">
        <ele>220</ele>
        <time>2022-09-28T08:36:54.000Z</time>
      </trkpt>
      <trkpt lat="49.86315" lon="4.78066">
        <ele>219</ele>
        <time>2022-09-28T08:36:55.000Z</time>
      </trkpt>
      <trkpt lat="49.86312" lon="4.78069">
        <ele>219</ele>
        <time>2022-09-28T08:36:56.000Z</time>
      </trkpt>
      <trkpt lat="49.86309" lon="4.78073">
        <ele>219</ele>
        <time>2022-09-28T08:36:57.000Z</time>
      </trkpt>
      <trkpt lat="49.86306" lon="4.78077">
        <ele>218</ele>
        <time>2022-09-28T08:36:58.000Z</time>
      </trkpt>
      <trkpt lat="49.86304" lon="4.7808">
        <ele>218</ele>
        <time>2022-09-28T08:36:59.000Z</time>
      </trkpt>
      <trkpt lat="49.86302" lon="4.78084">
        <ele>217</ele>
        <time>2022-09-28T08:37:00.000Z</time>
      </trkpt>
      <trkpt lat="49.863" lon="4.78086">
        <ele>217</ele>
        <time>2022-09-28T08:37:01.000Z</time>
      </trkpt>
      <trkpt lat="49.86299" lon="4.78089">
        <ele>217</ele>
        <time>2022-09-28T08:37:02.000Z</time>
      </trkpt>
      <trkpt lat="49.86297" lon="4.78092">
        <ele>216</ele>
        <time>2022-09-28T08:37:03.000Z</time>
      </trkpt>
      <trkpt lat="49.86295" lon="4.78095">
        <ele>216</ele>
        <time>2022-09-28T08:37:04.000Z</time>
      </trkpt>
      <trkpt lat="49.86293" lon="4.78098">
        <ele>216</ele>
        <time>2022-09-28T08:37:05.000Z</time>
      </trkpt>
      <trkpt lat="49.8629" lon="4.78102">
        <ele>215</ele>
        <time>2022-09-28T08:37:06.000Z</time>
      </trkpt>
      <trkpt lat="49.86287" lon="4.78106">
        <ele>215</ele>
        <time>2022-09-28T08:37:07.000Z</time>
      </trkpt>
      <trkpt lat="49.86285" lon="4.78109">
        <ele>215</ele>
        <time>2022-09-28T08:37:08.000Z</time>
      </trkpt>
      <trkpt lat="49.86283" lon="4.78113">
        <ele>214</ele>
        <time>2022-09-28T08:37:09.000Z</time>
      </trkpt>
      <trkpt lat="49.86281" lon="4.78116">
        <ele>214</ele>
        <time>2022-09-28T08:37:10.000Z</time>
      </trkpt>
      <trkpt lat="49.86279" lon="4.78119">
        <ele>214</ele>
        <time>2022-09-28T08:37:11.000Z</time>
      </trkpt>
      <trkpt lat="49.86277" lon="4.78122">
        <ele>213</ele>
        <time>2022-09-28T08:37:12.000Z</time>
      </trkpt>
      <trkpt lat="49.86274" lon="4.78126">
        <ele>213</ele>
        <time>2022-09-28T08:37:13.000Z</time>
      </trkpt>
      <trkpt lat="49.86272" lon="4.7813">
        <ele>213</ele>
        <time>2022-09-28T08:37:14.000Z</time>
      </trkpt>
      <trkpt lat="49.86269" lon="4.78133">
        <ele>212</ele>
        <time>2022-09-28T08:37:15.000Z</time>
      </trkpt>
      <trkpt lat="49.86267" lon="4.78136">
        <ele>212</ele>
        <time>2022-09-28T08:37:16.000Z</time>
      </trkpt>
      <trkpt lat="49.86265" lon="4.78139">
        <ele>211</ele>
        <time>2022-09-28T08:37:17.000Z</time>
      </trkpt>
      <trkpt lat="49.86263" lon="4.78143">
        <ele>211</ele>
        <time>2022-09-28T08:37:18.000Z</time>
      </trkpt>
      <trkpt lat="49.86262" lon="4.78147">
        <ele>210</ele>
        <time>2022-09-28T08:37:19.000Z</time>
      </trkpt>
      <trkpt lat="49.86259" lon="4.78151">
        <ele>210</ele>
        <time>2022-09-28T08:37:20.000Z</time>
      </trkpt>
      <trkpt lat="49.86257" lon="4.78154">
        <ele>209</ele>
        <time>2022-09-28T08:37:21.000Z</time>
      </trkpt>
      <trkpt lat="49.86255" lon="4.78157">
        <ele>209</ele>
        <time>2022-09-28T08:37:22.000Z</time>
      </trkpt>
      <trkpt lat="49.86251" lon="4.78161">
        <ele>208</ele>
        <time>2022-09-28T08:37:23.000Z</time>
      </trkpt>
      <trkpt lat="49.86248" lon="4.78166">
        <ele>208</ele>
        <time>2022-09-28T08:37:24.000Z</time>
      </trkpt>
      <trkpt lat="49.86244" lon="4.78171">
        <ele>207</ele>
        <time>2022-09-28T08:37:25.000Z</time>
      </trkpt>
      <trkpt lat="49.8624" lon="4.78175">
        <ele>207</ele>
        <time>2022-09-28T08:37:26.000Z</time>
      </trkpt>
      <trkpt lat="49.86234" lon="4.78179">
        <ele>206</ele>
        <time>2022-09-28T08:37:27.000Z</time>
      </trkpt>
      <trkpt lat="49.86228" lon="4.78183">
        <ele>206</ele>
        <time>2022-09-28T08:37:28.000Z</time>
      </trkpt>
      <trkpt lat="49.86223" lon="4.78186">
        <ele>206</ele>
        <time>2022-09-28T08:37:29.000Z</time>
      </trkpt>
      <trkpt lat="49.86219" lon="4.78189">
        <ele>205</ele>
        <time>2022-09-28T08:37:30.000Z</time>
      </trkpt>
      <trkpt lat="49.86216" lon="4.78192">
        <ele>205</ele>
        <time>2022-09-28T08:37:31.000Z</time>
      </trkpt>
      <trkpt lat="49.86214" lon="4.78194">
        <ele>204</ele>
        <time>2022-09-28T08:37:32.000Z</time>
      </trkpt>
      <trkpt lat="49.86211" lon="4.78197">
        <ele>203</ele>
        <time>2022-09-28T08:37:33.000Z</time>
      </trkpt>
      <trkpt lat="49.86209" lon="4.78199">
        <ele>203</ele>
        <time>2022-09-28T08:37:34.000Z</time>
      </trkpt>
      <trkpt lat="49.86207" lon="4.78202">
        <ele>202</ele>
        <time>2022-09-28T08:37:35.000Z</time>
      </trkpt>
      <trkpt lat="49.86205" lon="4.78204">
        <ele>202</ele>
        <time>2022-09-28T08:37:36.000Z</time>
      </trkpt>
      <trkpt lat="49.86202" lon="4.78205">
        <ele>201</ele>
        <time>2022-09-28T08:37:37.000Z</time>
      </trkpt>
      <trkpt lat="49.86199" lon="4.78206">
        <ele>201</ele>
        <time>2022-09-28T08:37:38.000Z</time>
      </trkpt>
      <trkpt lat="49.86195" lon="4.78206">
        <ele>200</ele>
        <time>2022-09-28T08:37:39.000Z</time>
      </trkpt>
      <trkpt lat="49.86191" lon="4.78207">
        <ele>200</ele>
        <time>2022-09-28T08:37:40.000Z</time>
      </trkpt>
      <trkpt lat="49.86187" lon="4.78208">
        <ele>199</ele>
        <time>2022-09-28T08:37:41.000Z</time>
      </trkpt>
      <trkpt lat="49.86182" lon="4.78211">
        <ele>199</ele>
        <time>2022-09-28T08:37:42.000Z</time>
      </trkpt>
      <trkpt lat="49.86178" lon="4.78214">
        <ele>198</ele>
        <time>2022-09-28T08:37:43.000Z</time>
      </trkpt>
      <trkpt lat="49.86175" lon="4.7822">
        <ele>198</ele>
        <time>2022-09-28T08:37:44.000Z</time>
      </trkpt>
      <trkpt lat="49.86171" lon="4.78227">
        <ele>197</ele>
        <time>2022-09-28T08:37:45.000Z</time>
      </trkpt>
      <trkpt lat="49.86168" lon="4.78235">
        <ele>197</ele>
        <time>2022-09-28T08:37:46.000Z</time>
      </trkpt>
      <trkpt lat="49.86164" lon="4.78241">
        <ele>196</ele>
        <time>2022-09-28T08:37:47.000Z</time>
      </trkpt>
      <trkpt lat="49.86159" lon="4.78245">
        <ele>196</ele>
        <time>2022-09-28T08:37:48.000Z</time>
      </trkpt>
      <trkpt lat="49.86154" lon="4.7825">
        <ele>195</ele>
        <time>2022-09-28T08:37:49.000Z</time>
      </trkpt>
      <trkpt lat="49.86147" lon="4.78254">
        <ele>195</ele>
        <time>2022-09-28T08:37:50.000Z</time>
      </trkpt>
      <trkpt lat="49.86141" lon="4.78259">
        <ele>195</ele>
        <time>2022-09-28T08:37:51.000Z</time>
      </trkpt>
      <trkpt lat="49.86135" lon="4.78264">
        <ele>194</ele>
        <time>2022-09-28T08:37:52.000Z</time>
      </trkpt>
      <trkpt lat="49.86129" lon="4.78271">
        <ele>194</ele>
        <time>2022-09-28T08:37:53.000Z</time>
      </trkpt>
      <trkpt lat="49.86123" lon="4.78277">
        <ele>194</ele>
        <time>2022-09-28T08:37:54.000Z</time>
      </trkpt>
      <trkpt lat="49.86118" lon="4.78284">
        <ele>193</ele>
        <time>2022-09-28T08:37:55.000Z</time>
      </trkpt>
      <trkpt lat="49.86112" lon="4.78289">
        <ele>193</ele>
        <time>2022-09-28T08:37:56.000Z</time>
      </trkpt>
      <trkpt lat="49.86107" lon="4.78295">
        <ele>193</ele>
        <time>2022-09-28T08:37:57.000Z</time>
      </trkpt>
      <trkpt lat="49.86101" lon="4.78301">
        <ele>193</ele>
        <time>2022-09-28T08:37:58.000Z</time>
      </trkpt>
      <trkpt lat="49.86096" lon="4.78307">
        <ele>192</ele>
        <time>2022-09-28T08:37:59.000Z</time>
      </trkpt>
      <trkpt lat="49.8609" lon="4.78312">
        <ele>192</ele>
        <time>2022-09-28T08:38:00.000Z</time>
      </trkpt>
      <trkpt lat="49.86084" lon="4.78318">
        <ele>192</ele>
        <time>2022-09-28T08:38:01.000Z</time>
      </trkpt>
      <trkpt lat="49.86078" lon="4.78323">
        <ele>191</ele>
        <time>2022-09-28T08:38:02.000Z</time>
      </trkpt>
      <trkpt lat="49.86073" lon="4.78329">
        <ele>191</ele>
        <time>2022-09-28T08:38:03.000Z</time>
      </trkpt>
      <trkpt lat="49.86068" lon="4.78334">
        <ele>191</ele>
        <time>2022-09-28T08:38:04.000Z</time>
      </trkpt>
      <trkpt lat="49.86064" lon="4.78337">
        <ele>190</ele>
        <time>2022-09-28T08:38:05.000Z</time>
      </trkpt>
      <trkpt lat="49.8606" lon="4.78341">
        <ele>190</ele>
        <time>2022-09-28T08:38:06.000Z</time>
      </trkpt>
      <trkpt lat="49.86056" lon="4.78344">
        <ele>190</ele>
        <time>2022-09-28T08:38:07.000Z</time>
      </trkpt>
      <trkpt lat="49.86052" lon="4.78348">
        <ele>189</ele>
        <time>2022-09-28T08:38:08.000Z</time>
      </trkpt>
      <trkpt lat="49.86048" lon="4.78351">
        <ele>189</ele>
        <time>2022-09-28T08:38:09.000Z</time>
      </trkpt>
      <trkpt lat="49.86044" lon="4.78355">
        <ele>189</ele>
        <time>2022-09-28T08:38:10.000Z</time>
      </trkpt>
      <trkpt lat="49.8604" lon="4.78358">
        <ele>189</ele>
        <time>2022-09-28T08:38:11.000Z</time>
      </trkpt>
      <trkpt lat="49.86036" lon="4.78361">
        <ele>188</ele>
        <time>2022-09-28T08:38:12.000Z</time>
      </trkpt>
      <trkpt lat="49.86032" lon="4.78363">
        <ele>188</ele>
        <time>2022-09-28T08:38:13.000Z</time>
      </trkpt>
      <trkpt lat="49.86028" lon="4.78365">
        <ele>188</ele>
        <time>2022-09-28T08:38:14.000Z</time>
      </trkpt>
      <trkpt lat="49.86025" lon="4.78368">
        <ele>187</ele>
        <time>2022-09-28T08:38:15.000Z</time>
      </trkpt>
      <trkpt lat="49.86022" lon="4.7837">
        <ele>187</ele>
        <time>2022-09-28T08:38:16.000Z</time>
      </trkpt>
      <trkpt lat="49.86019" lon="4.78372">
        <ele>186</ele>
        <time>2022-09-28T08:38:17.000Z</time>
      </trkpt>
      <trkpt lat="49.86016" lon="4.78375">
        <ele>186</ele>
        <time>2022-09-28T08:38:18.000Z</time>
      </trkpt>
      <trkpt lat="49.86013" lon="4.78377">
        <ele>186</ele>
        <time>2022-09-28T08:38:19.000Z</time>
      </trkpt>
      <trkpt lat="49.86011" lon="4.7838">
        <ele>185</ele>
        <time>2022-09-28T08:38:20.000Z</time>
      </trkpt>
      <trkpt lat="49.86008" lon="4.78383">
        <ele>185</ele>
        <time>2022-09-28T08:38:21.000Z</time>
      </trkpt>
      <trkpt lat="49.86006" lon="4.78385">
        <ele>185</ele>
        <time>2022-09-28T08:38:22.000Z</time>
      </trkpt>
      <trkpt lat="49.86003" lon="4.78387">
        <ele>184</ele>
        <time>2022-09-28T08:38:23.000Z</time>
      </trkpt>
      <trkpt lat="49.86" lon="4.7839">
        <ele>184</ele>
        <time>2022-09-28T08:38:24.000Z</time>
      </trkpt>
      <trkpt lat="49.85998" lon="4.78392">
        <ele>184</ele>
        <time>2022-09-28T08:38:25.000Z</time>
      </trkpt>
      <trkpt lat="49.85995" lon="4.78394">
        <ele>183</ele>
        <time>2022-09-28T08:38:26.000Z</time>
      </trkpt>
      <trkpt lat="49.85993" lon="4.78396">
        <ele>183</ele>
        <time>2022-09-28T08:38:27.000Z</time>
      </trkpt>
      <trkpt lat="49.8599" lon="4.78399">
        <ele>183</ele>
        <time>2022-09-28T08:38:28.000Z</time>
      </trkpt>
      <trkpt lat="49.85987" lon="4.78402">
        <ele>182</ele>
        <time>2022-09-28T08:38:29.000Z</time>
      </trkpt>
      <trkpt lat="49.85985" lon="4.78404">
        <ele>182</ele>
        <time>2022-09-28T08:38:30.000Z</time>
      </trkpt>
      <trkpt lat="49.85983" lon="4.78407">
        <ele>182</ele>
        <time>2022-09-28T08:38:31.000Z</time>
      </trkpt>
      <trkpt lat="49.85981" lon="4.7841">
        <ele>181</ele>
        <time>2022-09-28T08:38:32.000Z</time>
      </trkpt>
      <trkpt lat="49.85978" lon="4.78413">
        <ele>181</ele>
        <time>2022-09-28T08:38:33.000Z</time>
      </trkpt>
      <trkpt lat="49.85976" lon="4.78415">
        <ele>181</ele>
        <time>2022-09-28T08:38:34.000Z</time>
      </trkpt>
      <trkpt lat="49.85974" lon="4.78418">
        <ele>180</ele>
        <time>2022-09-28T08:38:35.000Z</time>
      </trkpt>
      <trkpt lat="49.85971" lon="4.78421">
        <ele>180</ele>
        <time>2022-09-28T08:38:36.000Z</time>
      </trkpt>
      <trkpt lat="49.8597" lon="4.78423">
        <ele>179</ele>
        <time>2022-09-28T08:38:37.000Z</time>
      </trkpt>
      <trkpt lat="49.85968" lon="4.78426">
        <ele>179</ele>
        <time>2022-09-28T08:38:38.000Z</time>
      </trkpt>
      <trkpt lat="49.85966" lon="4.78429">
        <ele>179</ele>
        <time>2022-09-28T08:38:39.000Z</time>
      </trkpt>
      <trkpt lat="49.85965" lon="4.78433">
        <ele>178</ele>
        <time>2022-09-28T08:38:40.000Z</time>
      </trkpt>
      <trkpt lat="49.85964" lon="4.78437">
        <ele>178</ele>
        <time>2022-09-28T08:38:41.000Z</time>
      </trkpt>
      <trkpt lat="49.85965" lon="4.78442">
        <ele>177</ele>
        <time>2022-09-28T08:38:42.000Z</time>
      </trkpt>
      <trkpt lat="49.85965" lon="4.78447">
        <ele>177</ele>
        <time>2022-09-28T08:38:43.000Z</time>
      </trkpt>
      <trkpt lat="49.85964" lon="4.78454">
        <ele>176</ele>
        <time>2022-09-28T08:38:44.000Z</time>
      </trkpt>
      <trkpt lat="49.85962" lon="4.7846">
        <ele>176</ele>
        <time>2022-09-28T08:38:45.000Z</time>
      </trkpt>
      <trkpt lat="49.8596" lon="4.78466">
        <ele>175</ele>
        <time>2022-09-28T08:38:46.000Z</time>
      </trkpt>
      <trkpt lat="49.85957" lon="4.78471">
        <ele>175</ele>
        <time>2022-09-28T08:38:47.000Z</time>
      </trkpt>
      <trkpt lat="49.85954" lon="4.78476">
        <ele>175</ele>
        <time>2022-09-28T08:38:48.000Z</time>
      </trkpt>
      <trkpt lat="49.85951" lon="4.78481">
        <ele>174</ele>
        <time>2022-09-28T08:38:49.000Z</time>
      </trkpt>
      <trkpt lat="49.85948" lon="4.78486">
        <ele>174</ele>
        <time>2022-09-28T08:38:50.000Z</time>
      </trkpt>
      <trkpt lat="49.85944" lon="4.78492">
        <ele>173</ele>
        <time>2022-09-28T08:38:51.000Z</time>
      </trkpt>
      <trkpt lat="49.85941" lon="4.78498">
        <ele>173</ele>
        <time>2022-09-28T08:38:52.000Z</time>
      </trkpt>
      <trkpt lat="49.85937" lon="4.78505">
        <ele>172</ele>
        <time>2022-09-28T08:38:53.000Z</time>
      </trkpt>
      <trkpt lat="49.85933" lon="4.78512">
        <ele>172</ele>
        <time>2022-09-28T08:38:54.000Z</time>
      </trkpt>
      <trkpt lat="49.85929" lon="4.7852">
        <ele>171</ele>
        <time>2022-09-28T08:38:55.000Z</time>
      </trkpt>
      <trkpt lat="49.85925" lon="4.78529">
        <ele>171</ele>
        <time>2022-09-28T08:38:56.000Z</time>
      </trkpt>
      <trkpt lat="49.85921" lon="4.78539">
        <ele>170</ele>
        <time>2022-09-28T08:38:57.000Z</time>
      </trkpt>
      <trkpt lat="49.85916" lon="4.7855">
        <ele>170</ele>
        <time>2022-09-28T08:38:58.000Z</time>
      </trkpt>
      <trkpt lat="49.85912" lon="4.7856">
        <ele>169</ele>
        <time>2022-09-28T08:38:59.000Z</time>
      </trkpt>
      <trkpt lat="49.85908" lon="4.7857">
        <ele>168</ele>
        <time>2022-09-28T08:39:00.000Z</time>
      </trkpt>
      <trkpt lat="49.85905" lon="4.7858">
        <ele>168</ele>
        <time>2022-09-28T08:39:01.000Z</time>
      </trkpt>
      <trkpt lat="49.85902" lon="4.78589">
        <ele>167</ele>
        <time>2022-09-28T08:39:02.000Z</time>
      </trkpt>
      <trkpt lat="49.85898" lon="4.78597">
        <ele>167</ele>
        <time>2022-09-28T08:39:03.000Z</time>
      </trkpt>
      <trkpt lat="49.85894" lon="4.78604">
        <ele>166</ele>
        <time>2022-09-28T08:39:04.000Z</time>
      </trkpt>
      <trkpt lat="49.8589" lon="4.78611">
        <ele>166</ele>
        <time>2022-09-28T08:39:05.000Z</time>
      </trkpt>
      <trkpt lat="49.85886" lon="4.78617">
        <ele>166</ele>
        <time>2022-09-28T08:39:06.000Z</time>
      </trkpt>
      <trkpt lat="49.85882" lon="4.78623">
        <ele>165</ele>
        <time>2022-09-28T08:39:07.000Z</time>
      </trkpt>
      <trkpt lat="49.85878" lon="4.78629">
        <ele>165</ele>
        <time>2022-09-28T08:39:08.000Z</time>
      </trkpt>
      <trkpt lat="49.85874" lon="4.78635">
        <ele>165</ele>
        <time>2022-09-28T08:39:09.000Z</time>
      </trkpt>
      <trkpt lat="49.85871" lon="4.78639">
        <ele>165</ele>
        <time>2022-09-28T08:39:10.000Z</time>
      </trkpt>
      <trkpt lat="49.85868" lon="4.78641">
        <ele>164</ele>
        <time>2022-09-28T08:39:11.000Z</time>
      </trkpt>
      <trkpt lat="49.85865" lon="4.78642">
        <ele>164</ele>
        <time>2022-09-28T08:39:12.000Z</time>
      </trkpt>
      <trkpt lat="49.85861" lon="4.78643">
        <ele>164</ele>
        <time>2022-09-28T08:39:13.000Z</time>
      </trkpt>
      <trkpt lat="49.85858" lon="4.78645">
        <ele>164</ele>
        <time>2022-09-28T08:39:14.000Z</time>
      </trkpt>
      <trkpt lat="49.85855" lon="4.78646">
        <ele>164</ele>
        <time>2022-09-28T08:39:15.000Z</time>
      </trkpt>
      <trkpt lat="49.85853" lon="4.78648">
        <ele>164</ele>
        <time>2022-09-28T08:39:16.000Z</time>
      </trkpt>
      <trkpt lat="49.85851" lon="4.78649">
        <ele>163</ele>
        <time>2022-09-28T08:39:17.000Z</time>
      </trkpt>
      <trkpt lat="49.85848" lon="4.78652">
        <ele>163</ele>
        <time>2022-09-28T08:39:18.000Z</time>
      </trkpt>
      <trkpt lat="49.85845" lon="4.78655">
        <ele>163</ele>
        <time>2022-09-28T08:39:19.000Z</time>
      </trkpt>
      <trkpt lat="49.85842" lon="4.78658">
        <ele>163</ele>
        <time>2022-09-28T08:39:20.000Z</time>
      </trkpt>
      <trkpt lat="49.85839" lon="4.7866">
        <ele>163</ele>
        <time>2022-09-28T08:39:21.000Z</time>
      </trkpt>
      <trkpt lat="49.85837" lon="4.78663">
        <ele>163</ele>
        <time>2022-09-28T08:39:22.000Z</time>
      </trkpt>
      <trkpt lat="49.85835" lon="4.78665">
        <ele>162</ele>
        <time>2022-09-28T08:39:23.000Z</time>
      </trkpt>
      <trkpt lat="49.85833" lon="4.78668">
        <ele>162</ele>
        <time>2022-09-28T08:39:24.000Z</time>
      </trkpt>
      <trkpt lat="49.8583" lon="4.7867">
        <ele>162</ele>
        <time>2022-09-28T08:39:25.000Z</time>
      </trkpt>
      <trkpt lat="49.85828" lon="4.78673">
        <ele>162</ele>
        <time>2022-09-28T08:39:26.000Z</time>
      </trkpt>
      <trkpt lat="49.85825" lon="4.78676">
        <ele>162</ele>
        <time>2022-09-28T08:39:27.000Z</time>
      </trkpt>
      <trkpt lat="49.85823" lon="4.78679">
        <ele>161</ele>
        <time>2022-09-28T08:39:28.000Z</time>
      </trkpt>
      <trkpt lat="49.8582" lon="4.78683">
        <ele>161</ele>
        <time>2022-09-28T08:39:29.000Z</time>
      </trkpt>
      <trkpt lat="49.85817" lon="4.78686">
        <ele>161</ele>
        <time>2022-09-28T08:39:30.000Z</time>
      </trkpt>
      <trkpt lat="49.85815" lon="4.78689">
        <ele>161</ele>
        <time>2022-09-28T08:39:31.000Z</time>
      </trkpt>
      <trkpt lat="49.85812" lon="4.78692">
        <ele>161</ele>
        <time>2022-09-28T08:39:32.000Z</time>
      </trkpt>
      <trkpt lat="49.85809" lon="4.78695">
        <ele>161</ele>
        <time>2022-09-28T08:39:33.000Z</time>
      </trkpt>
      <trkpt lat="49.85807" lon="4.78698">
        <ele>161</ele>
        <time>2022-09-28T08:39:34.000Z</time>
      </trkpt>
      <trkpt lat="49.85804" lon="4.78701">
        <ele>161</ele>
        <time>2022-09-28T08:39:35.000Z</time>
      </trkpt>
      <trkpt lat="49.85802" lon="4.78705">
        <ele>161</ele>
        <time>2022-09-28T08:39:36.000Z</time>
      </trkpt>
      <trkpt lat="49.85799" lon="4.78708">
        <ele>161</ele>
        <time>2022-09-28T08:39:37.000Z</time>
      </trkpt>
      <trkpt lat="49.85796" lon="4.78711">
        <ele>161</ele>
        <time>2022-09-28T08:39:38.000Z</time>
      </trkpt>
      <trkpt lat="49.85794" lon="4.78715">
        <ele>161</ele>
        <time>2022-09-28T08:39:39.000Z</time>
      </trkpt>
      <trkpt lat="49.85791" lon="4.78719">
        <ele>161</ele>
        <time>2022-09-28T08:39:40.000Z</time>
      </trkpt>
      <trkpt lat="49.85788" lon="4.78722">
        <ele>161</ele>
        <time>2022-09-28T08:39:41.000Z</time>
      </trkpt>
      <trkpt lat="49.85785" lon="4.78725">
        <ele>161</ele>
        <time>2022-09-28T08:39:42.000Z</time>
      </trkpt>
      <trkpt lat="49.85782" lon="4.78728">
        <ele>160</ele>
        <time>2022-09-28T08:39:43.000Z</time>
      </trkpt>
      <trkpt lat="49.85779" lon="4.78732">
        <ele>160</ele>
        <time>2022-09-28T08:39:44.000Z</time>
      </trkpt>
      <trkpt lat="49.85776" lon="4.78735">
        <ele>160</ele>
        <time>2022-09-28T08:39:45.000Z</time>
      </trkpt>
      <trkpt lat="49.85773" lon="4.78739">
        <ele>160</ele>
        <time>2022-09-28T08:39:46.000Z</time>
      </trkpt>
      <trkpt lat="49.8577" lon="4.78742">
        <ele>160</ele>
        <time>2022-09-28T08:39:47.000Z</time>
      </trkpt>
      <trkpt lat="49.85767" lon="4.78745">
        <ele>160</ele>
        <time>2022-09-28T08:39:48.000Z</time>
      </trkpt>
      <trkpt lat="49.85765" lon="4.78748">
        <ele>160</ele>
        <time>2022-09-28T08:39:49.000Z</time>
      </trkpt>
      <trkpt lat="49.85762" lon="4.7875">
        <ele>160</ele>
        <time>2022-09-28T08:39:50.000Z</time>
      </trkpt>
      <trkpt lat="49.85758" lon="4.78753">
        <ele>160</ele>
        <time>2022-09-28T08:39:51.000Z</time>
      </trkpt>
      <trkpt lat="49.85755" lon="4.78756">
        <ele>160</ele>
        <time>2022-09-28T08:39:52.000Z</time>
      </trkpt>
      <trkpt lat="49.85752" lon="4.78759">
        <ele>160</ele>
        <time>2022-09-28T08:39:53.000Z</time>
      </trkpt>
      <trkpt lat="49.8575" lon="4.78762">
        <ele>160</ele>
        <time>2022-09-28T08:39:54.000Z</time>
      </trkpt>
      <trkpt lat="49.85748" lon="4.78765">
        <ele>160</ele>
        <time>2022-09-28T08:39:55.000Z</time>
      </trkpt>
      <trkpt lat="49.85746" lon="4.78768">
        <ele>160</ele>
        <time>2022-09-28T08:39:56.000Z</time>
      </trkpt>
      <trkpt lat="49.85744" lon="4.7877">
        <ele>160</ele>
        <time>2022-09-28T08:39:57.000Z</time>
      </trkpt>
      <trkpt lat="49.85742" lon="4.78773">
        <ele>160</ele>
        <time>2022-09-28T08:39:58.000Z</time>
      </trkpt>
      <trkpt lat="49.85739" lon="4.78776">
        <ele>160</ele>
        <time>2022-09-28T08:39:59.000Z</time>
      </trkpt>
      <trkpt lat="49.85736" lon="4.78778">
        <ele>160</ele>
        <time>2022-09-28T08:40:00.000Z</time>
      </trkpt>
      <trkpt lat="49.85734" lon="4.78781">
        <ele>160</ele>
        <time>2022-09-28T08:40:01.000Z</time>
      </trkpt>
      <trkpt lat="49.85732" lon="4.78782">
        <ele>160</ele>
        <time>2022-09-28T08:40:02.000Z</time>
      </trkpt>
      <trkpt lat="49.8573" lon="4.78784">
        <ele>160</ele>
        <time>2022-09-28T08:40:03.000Z</time>
      </trkpt>
      <trkpt lat="49.85728" lon="4.78787">
        <ele>160</ele>
        <time>2022-09-28T08:40:04.000Z</time>
      </trkpt>
      <trkpt lat="49.85725" lon="4.78789">
        <ele>160</ele>
        <time>2022-09-28T08:40:05.000Z</time>
      </trkpt>
      <trkpt lat="49.85723" lon="4.78791">
        <ele>160</ele>
        <time>2022-09-28T08:40:06.000Z</time>
      </trkpt>
      <trkpt lat="49.8572" lon="4.78793">
        <ele>160</ele>
        <time>2022-09-28T08:40:07.000Z</time>
      </trkpt>
      <trkpt lat="49.85717" lon="4.78796">
        <ele>160</ele>
        <time>2022-09-28T08:40:08.000Z</time>
      </trkpt>
      <trkpt lat="49.85715" lon="4.78798">
        <ele>160</ele>
        <time>2022-09-28T08:40:09.000Z</time>
      </trkpt>
      <trkpt lat="49.85713" lon="4.78801">
        <ele>161</ele>
        <time>2022-09-28T08:40:10.000Z</time>
      </trkpt>
      <trkpt lat="49.8571" lon="4.78803">
        <ele>161</ele>
        <time>2022-09-28T08:40:11.000Z</time>
      </trkpt>
      <trkpt lat="49.85707" lon="4.78806">
        <ele>161</ele>
        <time>2022-09-28T08:40:12.000Z</time>
      </trkpt>
      <trkpt lat="49.85704" lon="4.7881">
        <ele>161</ele>
        <time>2022-09-28T08:40:13.000Z</time>
      </trkpt>
      <trkpt lat="49.85702" lon="4.78813">
        <ele>161</ele>
        <time>2022-09-28T08:40:14.000Z</time>
      </trkpt>
      <trkpt lat="49.85699" lon="4.78817">
        <ele>161</ele>
        <time>2022-09-28T08:40:15.000Z</time>
      </trkpt>
      <trkpt lat="49.85695" lon="4.78821">
        <ele>161</ele>
        <time>2022-09-28T08:40:16.000Z</time>
      </trkpt>
      <trkpt lat="49.85692" lon="4.78824">
        <ele>161</ele>
        <time>2022-09-28T08:40:17.000Z</time>
      </trkpt>
      <trkpt lat="49.85689" lon="4.78827">
        <ele>162</ele>
        <time>2022-09-28T08:40:18.000Z</time>
      </trkpt>
      <trkpt lat="49.85687" lon="4.78829">
        <ele>162</ele>
        <time>2022-09-28T08:40:19.000Z</time>
      </trkpt>
      <trkpt lat="49.85685" lon="4.78832">
        <ele>162</ele>
        <time>2022-09-28T08:40:20.000Z</time>
      </trkpt>
      <trkpt lat="49.85683" lon="4.78834">
        <ele>162</ele>
        <time>2022-09-28T08:40:21.000Z</time>
      </trkpt>
      <trkpt lat="49.85682" lon="4.78837">
        <ele>162</ele>
        <time>2022-09-28T08:40:22.000Z</time>
      </trkpt>
      <trkpt lat="49.8568" lon="4.78839">
        <ele>163</ele>
        <time>2022-09-28T08:40:23.000Z</time>
      </trkpt>
      <trkpt lat="49.85678" lon="4.78841">
        <ele>163</ele>
        <time>2022-09-28T08:40:24.000Z</time>
      </trkpt>
      <trkpt lat="49.85676" lon="4.78842">
        <ele>163</ele>
        <time>2022-09-28T08:40:25.000Z</time>
      </trkpt>
      <trkpt lat="49.85674" lon="4.78844">
        <ele>163</ele>
        <time>2022-09-28T08:40:26.000Z</time>
      </trkpt>
      <trkpt lat="49.85672" lon="4.78846">
        <ele>163</ele>
        <time>2022-09-28T08:40:27.000Z</time>
      </trkpt>
      <trkpt lat="49.8567" lon="4.78848">
        <ele>163</ele>
        <time>2022-09-28T08:40:28.000Z</time>
      </trkpt>
      <trkpt lat="49.85668" lon="4.7885">
        <ele>163</ele>
        <time>2022-09-28T08:40:29.000Z</time>
      </trkpt>
      <trkpt lat="49.85666" lon="4.78853">
        <ele>163</ele>
        <time>2022-09-28T08:40:30.000Z</time>
      </trkpt>
      <trkpt lat="49.85664" lon="4.78856">
        <ele>163</ele>
        <time>2022-09-28T08:40:31.000Z</time>
      </trkpt>
      <trkpt lat="49.85662" lon="4.78859">
        <ele>163</ele>
        <time>2022-09-28T08:40:32.000Z</time>
      </trkpt>
      <trkpt lat="49.85659" lon="4.78862">
        <ele>163</ele>
        <time>2022-09-28T08:40:33.000Z</time>
      </trkpt>
      <trkpt lat="49.85656" lon="4.78865">
        <ele>164</ele>
        <time>2022-09-28T08:40:34.000Z</time>
      </trkpt>
      <trkpt lat="49.85654" lon="4.78869">
        <ele>164</ele>
        <time>2022-09-28T08:40:35.000Z</time>
      </trkpt>
      <trkpt lat="49.85652" lon="4.78871">
        <ele>164</ele>
        <time>2022-09-28T08:40:36.000Z</time>
      </trkpt>
      <trkpt lat="49.8565" lon="4.78874">
        <ele>164</ele>
        <time>2022-09-28T08:40:37.000Z</time>
      </trkpt>
      <trkpt lat="49.85648" lon="4.78876">
        <ele>164</ele>
        <time>2022-09-28T08:40:38.000Z</time>
      </trkpt>
      <trkpt lat="49.85645" lon="4.78878">
        <ele>164</ele>
        <time>2022-09-28T08:40:39.000Z</time>
      </trkpt>
      <trkpt lat="49.85643" lon="4.7888">
        <ele>164</ele>
        <time>2022-09-28T08:40:40.000Z</time>
      </trkpt>
      <trkpt lat="49.85641" lon="4.78882">
        <ele>164</ele>
        <time>2022-09-28T08:40:41.000Z</time>
      </trkpt>
      <trkpt lat="49.85638" lon="4.78884">
        <ele>164</ele>
        <time>2022-09-28T08:40:42.000Z</time>
      </trkpt>
      <trkpt lat="49.85636" lon="4.78886">
        <ele>164</ele>
        <time>2022-09-28T08:40:43.000Z</time>
      </trkpt>
      <trkpt lat="49.85635" lon="4.78887">
        <ele>164</ele>
        <time>2022-09-28T08:40:44.000Z</time>
      </trkpt>
      <trkpt lat="49.85634" lon="4.78889">
        <ele>164</ele>
        <time>2022-09-28T08:40:45.000Z</time>
      </trkpt>
      <trkpt lat="49.85632" lon="4.7889">
        <ele>164</ele>
        <time>2022-09-28T08:40:46.000Z</time>
      </trkpt>
      <trkpt lat="49.85631" lon="4.7889">
        <ele>164</ele>
        <time>2022-09-28T08:40:47.000Z</time>
      </trkpt>
      <trkpt lat="49.85629" lon="4.78889">
        <ele>165</ele>
        <time>2022-09-28T08:40:48.000Z</time>
      </trkpt>
      <trkpt lat="49.85628" lon="4.78888">
        <ele>165</ele>
        <time>2022-09-28T08:40:49.000Z</time>
      </trkpt>
      <trkpt lat="49.85627" lon="4.78886">
        <ele>165</ele>
        <time>2022-09-28T08:40:50.000Z</time>
      </trkpt>
      <trkpt lat="49.85627" lon="4.78884">
        <ele>165</ele>
        <time>2022-09-28T08:40:51.000Z</time>
      </trkpt>
      <trkpt lat="49.85627" lon="4.78882">
        <ele>165</ele>
        <time>2022-09-28T08:40:52.000Z</time>
      </trkpt>
      <trkpt lat="49.85627" lon="4.7888">
        <ele>165</ele>
        <time>2022-09-28T08:40:53.000Z</time>
      </trkpt>
      <trkpt lat="49.85627" lon="4.78879">
        <ele>165</ele>
        <time>2022-09-28T08:40:54.000Z</time>
      </trkpt>
      <trkpt lat="49.85627" lon="4.78877">
        <ele>165</ele>
        <time>2022-09-28T08:40:55.000Z</time>
      </trkpt>
      <trkpt lat="49.85628" lon="4.78876">
        <ele>165</ele>
        <time>2022-09-28T08:40:56.000Z</time>
      </trkpt>
      <trkpt lat="49.85628" lon="4.78874">
        <ele>165</ele>
        <time>2022-09-28T08:40:57.000Z</time>
      </trkpt>
      <trkpt lat="49.85627" lon="4.78873">
        <ele>165</ele>
        <time>2022-09-28T08:40:58.000Z</time>
      </trkpt>
      <trkpt lat="49.85627" lon="4.78871">
        <ele>166</ele>
        <time>2022-09-28T08:40:59.000Z</time>
      </trkpt>
      <trkpt lat="49.85627" lon="4.7887">
        <ele>166</ele>
        <time>2022-09-28T08:41:00.000Z</time>
      </trkpt>
      <trkpt lat="49.85627" lon="4.78868">
        <ele>166</ele>
        <time>2022-09-28T08:41:01.000Z</time>
      </trkpt>
      <trkpt lat="49.85628" lon="4.78865">
        <ele>166</ele>
        <time>2022-09-28T08:41:02.000Z</time>
      </trkpt>
      <trkpt lat="49.85628" lon="4.78864">
        <ele>166</ele>
        <time>2022-09-28T08:41:03.000Z</time>
      </trkpt>
      <trkpt lat="49.85629" lon="4.78862">
        <ele>166</ele>
        <time>2022-09-28T08:41:04.000Z</time>
      </trkpt>
      <trkpt lat="49.8563" lon="4.7886">
        <ele>166</ele>
        <time>2022-09-28T08:41:05.000Z</time>
      </trkpt>
      <trkpt lat="49.8563" lon="4.78858">
        <ele>166</ele>
        <time>2022-09-28T08:41:06.000Z</time>
      </trkpt>
      <trkpt lat="49.85631" lon="4.78856">
        <ele>166</ele>
        <time>2022-09-28T08:41:07.000Z</time>
      </trkpt>
      <trkpt lat="49.85632" lon="4.78855">
        <ele>167</ele>
        <time>2022-09-28T08:41:08.000Z</time>
      </trkpt>
      <trkpt lat="49.85633" lon="4.78853">
        <ele>167</ele>
        <time>2022-09-28T08:41:09.000Z</time>
      </trkpt>
      <trkpt lat="49.85634" lon="4.78851">
        <ele>167</ele>
        <time>2022-09-28T08:41:10.000Z</time>
      </trkpt>
      <trkpt lat="49.85635" lon="4.78848">
        <ele>167</ele>
        <time>2022-09-28T08:41:11.000Z</time>
      </trkpt>
      <trkpt lat="49.85635" lon="4.78846">
        <ele>167</ele>
        <time>2022-09-28T08:41:12.000Z</time>
      </trkpt>
      <trkpt lat="49.85636" lon="4.78845">
        <ele>167</ele>
        <time>2022-09-28T08:41:13.000Z</time>
      </trkpt>
      <trkpt lat="49.85637" lon="4.78843">
        <ele>167</ele>
        <time>2022-09-28T08:41:14.000Z</time>
      </trkpt>
      <trkpt lat="49.85637" lon="4.78841">
        <ele>167</ele>
        <time>2022-09-28T08:41:15.000Z</time>
      </trkpt>
      <trkpt lat="49.85638" lon="4.78839">
        <ele>168</ele>
        <time>2022-09-28T08:41:16.000Z</time>
      </trkpt>
      <trkpt lat="49.85639" lon="4.78837">
        <ele>168</ele>
        <time>2022-09-28T08:41:17.000Z</time>
      </trkpt>
      <trkpt lat="49.8564" lon="4.78834">
        <ele>168</ele>
        <time>2022-09-28T08:41:18.000Z</time>
      </trkpt>
      <trkpt lat="49.85641" lon="4.78831">
        <ele>168</ele>
        <time>2022-09-28T08:41:19.000Z</time>
      </trkpt>
      <trkpt lat="49.85642" lon="4.7883">
        <ele>168</ele>
        <time>2022-09-28T08:41:20.000Z</time>
      </trkpt>
      <trkpt lat="49.85643" lon="4.78828">
        <ele>168</ele>
        <time>2022-09-28T08:41:21.000Z</time>
      </trkpt>
      <trkpt lat="49.85644" lon="4.78825">
        <ele>169</ele>
        <time>2022-09-28T08:41:22.000Z</time>
      </trkpt>
      <trkpt lat="49.85645" lon="4.78823">
        <ele>169</ele>
        <time>2022-09-28T08:41:23.000Z</time>
      </trkpt>
      <trkpt lat="49.85645" lon="4.78821">
        <ele>169</ele>
        <time>2022-09-28T08:41:24.000Z</time>
      </trkpt>
      <trkpt lat="49.85646" lon="4.78819">
        <ele>169</ele>
        <time>2022-09-28T08:41:25.000Z</time>
      </trkpt>
      <trkpt lat="49.85647" lon="4.78816">
        <ele>169</ele>
        <time>2022-09-28T08:41:26.000Z</time>
      </trkpt>
      <trkpt lat="49.85648" lon="4.78814">
        <ele>169</ele>
        <time>2022-09-28T08:41:27.000Z</time>
      </trkpt>
      <trkpt lat="49.85648" lon="4.78811">
        <ele>170</ele>
        <time>2022-09-28T08:41:28.000Z</time>
      </trkpt>
      <trkpt lat="49.85649" lon="4.78809">
        <ele>170</ele>
        <time>2022-09-28T08:41:29.000Z</time>
      </trkpt>
      <trkpt lat="49.8565" lon="4.78807">
        <ele>170</ele>
        <time>2022-09-28T08:41:30.000Z</time>
      </trkpt>
      <trkpt lat="49.85651" lon="4.78805">
        <ele>170</ele>
        <time>2022-09-28T08:41:31.000Z</time>
      </trkpt>
      <trkpt lat="49.85652" lon="4.78803">
        <ele>170</ele>
        <time>2022-09-28T08:41:32.000Z</time>
      </trkpt>
      <trkpt lat="49.85653" lon="4.78801">
        <ele>170</ele>
        <time>2022-09-28T08:41:33.000Z</time>
      </trkpt>
      <trkpt lat="49.85653" lon="4.78799">
        <ele>171</ele>
        <time>2022-09-28T08:41:34.000Z</time>
      </trkpt>
      <trkpt lat="49.85653" lon="4.78797">
        <ele>171</ele>
        <time>2022-09-28T08:41:35.000Z</time>
      </trkpt>
      <trkpt lat="49.85654" lon="4.78795">
        <ele>171</ele>
        <time>2022-09-28T08:41:36.000Z</time>
      </trkpt>
      <trkpt lat="49.85654" lon="4.78793">
        <ele>171</ele>
        <time>2022-09-28T08:41:37.000Z</time>
      </trkpt>
      <trkpt lat="49.85653" lon="4.78791">
        <ele>171</ele>
        <time>2022-09-28T08:41:38.000Z</time>
      </trkpt>
      <trkpt lat="49.85652" lon="4.7879">
        <ele>172</ele>
        <time>2022-09-28T08:41:39.000Z</time>
      </trkpt>
      <trkpt lat="49.85652" lon="4.78789">
        <ele>172</ele>
        <time>2022-09-28T08:41:40.000Z</time>
      </trkpt>
      <trkpt lat="49.85651" lon="4.78789">
        <ele>172</ele>
        <time>2022-09-28T08:41:41.000Z</time>
      </trkpt>
      <trkpt lat="49.85651" lon="4.7879">
        <ele>172</ele>
        <time>2022-09-28T08:41:42.000Z</time>
      </trkpt>
      <trkpt lat="49.8565" lon="4.78791">
        <ele>172</ele>
        <time>2022-09-28T08:41:43.000Z</time>
      </trkpt>
      <trkpt lat="49.85649" lon="4.78793">
        <ele>173</ele>
        <time>2022-09-28T08:41:44.000Z</time>
      </trkpt>
      <trkpt lat="49.85649" lon="4.78794">
        <ele>173</ele>
        <time>2022-09-28T08:41:45.000Z</time>
      </trkpt>
      <trkpt lat="49.85648" lon="4.78797">
        <ele>173</ele>
        <time>2022-09-28T08:41:46.000Z</time>
      </trkpt>
      <trkpt lat="49.85647" lon="4.78799">
        <ele>173</ele>
        <time>2022-09-28T08:41:47.000Z</time>
      </trkpt>
      <trkpt lat="49.85645" lon="4.78801">
        <ele>174</ele>
        <time>2022-09-28T08:41:48.000Z</time>
      </trkpt>
      <trkpt lat="49.85644" lon="4.78804">
        <ele>174</ele>
        <time>2022-09-28T08:41:49.000Z</time>
      </trkpt>
      <trkpt lat="49.85643" lon="4.78807">
        <ele>174</ele>
        <time>2022-09-28T08:41:50.000Z</time>
      </trkpt>
      <trkpt lat="49.85641" lon="4.78809">
        <ele>175</ele>
        <time>2022-09-28T08:41:51.000Z</time>
      </trkpt>
      <trkpt lat="49.8564" lon="4.78812">
        <ele>175</ele>
        <time>2022-09-28T08:41:52.000Z</time>
      </trkpt>
      <trkpt lat="49.85639" lon="4.78814">
        <ele>175</ele>
        <time>2022-09-28T08:41:53.000Z</time>
      </trkpt>
      <trkpt lat="49.85638" lon="4.78817">
        <ele>175</ele>
        <time>2022-09-28T08:41:54.000Z</time>
      </trkpt>
      <trkpt lat="49.85636" lon="4.78819">
        <ele>175</ele>
        <time>2022-09-28T08:41:55.000Z</time>
      </trkpt>
      <trkpt lat="49.85636" lon="4.78819">
        <ele>175</ele>
        <time>2022-09-28T08:41:56.000Z</time>
      </trkpt>
      <trkpt lat="49.85633" lon="4.78823">
        <ele>176</ele>
        <time>2022-09-28T08:41:57.000Z</time>
      </trkpt>
      <trkpt lat="49.85632" lon="4.78825">
        <ele>176</ele>
        <time>2022-09-28T08:41:58.000Z</time>
      </trkpt>
      <trkpt lat="49.8563" lon="4.78828">
        <ele>176</ele>
        <time>2022-09-28T08:41:59.000Z</time>
      </trkpt>
      <trkpt lat="49.85629" lon="4.7883">
        <ele>176</ele>
        <time>2022-09-28T08:42:00.000Z</time>
      </trkpt>
      <trkpt lat="49.85627" lon="4.78833">
        <ele>177</ele>
        <time>2022-09-28T08:42:01.000Z</time>
      </trkpt>
      <trkpt lat="49.85625" lon="4.78835">
        <ele>177</ele>
        <time>2022-09-28T08:42:02.000Z</time>
      </trkpt>
      <trkpt lat="49.85624" lon="4.78837">
        <ele>177</ele>
        <time>2022-09-28T08:42:03.000Z</time>
      </trkpt>
      <trkpt lat="49.85624" lon="4.78837">
        <ele>177</ele>
        <time>2022-09-28T08:42:04.000Z</time>
      </trkpt>
      <trkpt lat="49.8562" lon="4.78843">
        <ele>177</ele>
        <time>2022-09-28T08:42:05.000Z</time>
      </trkpt>
      <trkpt lat="49.85618" lon="4.78846">
        <ele>178</ele>
        <time>2022-09-28T08:42:06.000Z</time>
      </trkpt>
      <trkpt lat="49.85616" lon="4.78849">
        <ele>178</ele>
        <time>2022-09-28T08:42:07.000Z</time>
      </trkpt>
      <trkpt lat="49.85614" lon="4.78852">
        <ele>178</ele>
        <time>2022-09-28T08:42:08.000Z</time>
      </trkpt>
      <trkpt lat="49.85612" lon="4.78856">
        <ele>178</ele>
        <time>2022-09-28T08:42:09.000Z</time>
      </trkpt>
      <trkpt lat="49.8561" lon="4.78858">
        <ele>178</ele>
        <time>2022-09-28T08:42:10.000Z</time>
      </trkpt>
      <trkpt lat="49.85608" lon="4.7886">
        <ele>178</ele>
        <time>2022-09-28T08:42:11.000Z</time>
      </trkpt>
      <trkpt lat="49.85605" lon="4.78862">
        <ele>179</ele>
        <time>2022-09-28T08:42:12.000Z</time>
      </trkpt>
      <trkpt lat="49.85605" lon="4.78862">
        <ele>179</ele>
        <time>2022-09-28T08:42:13.000Z</time>
      </trkpt>
      <trkpt lat="49.856" lon="4.78868">
        <ele>179</ele>
        <time>2022-09-28T08:42:14.000Z</time>
      </trkpt>
      <trkpt lat="49.85597" lon="4.78871">
        <ele>179</ele>
        <time>2022-09-28T08:42:15.000Z</time>
      </trkpt>
      <trkpt lat="49.85594" lon="4.78874">
        <ele>179</ele>
        <time>2022-09-28T08:42:16.000Z</time>
      </trkpt>
      <trkpt lat="49.85592" lon="4.78877">
        <ele>180</ele>
        <time>2022-09-28T08:42:17.000Z</time>
      </trkpt>
      <trkpt lat="49.8559" lon="4.7888">
        <ele>180</ele>
        <time>2022-09-28T08:42:18.000Z</time>
      </trkpt>
      <trkpt lat="49.85588" lon="4.78884">
        <ele>180</ele>
        <time>2022-09-28T08:42:19.000Z</time>
      </trkpt>
      <trkpt lat="49.85588" lon="4.78884">
        <ele>180</ele>
        <time>2022-09-28T08:42:20.000Z</time>
      </trkpt>
      <trkpt lat="49.85584" lon="4.78891">
        <ele>181</ele>
        <time>2022-09-28T08:42:21.000Z</time>
      </trkpt>
      <trkpt lat="49.85581" lon="4.78895">
        <ele>181</ele>
        <time>2022-09-28T08:42:22.000Z</time>
      </trkpt>
      <trkpt lat="49.85579" lon="4.78897">
        <ele>181</ele>
        <time>2022-09-28T08:42:23.000Z</time>
      </trkpt>
      <trkpt lat="49.85577" lon="4.78899">
        <ele>182</ele>
        <time>2022-09-28T08:42:24.000Z</time>
      </trkpt>
      <trkpt lat="49.85575" lon="4.78902">
        <ele>182</ele>
        <time>2022-09-28T08:42:25.000Z</time>
      </trkpt>
      <trkpt lat="49.85573" lon="4.78905">
        <ele>182</ele>
        <time>2022-09-28T08:42:26.000Z</time>
      </trkpt>
      <trkpt lat="49.85571" lon="4.78908">
        <ele>182</ele>
        <time>2022-09-28T08:42:27.000Z</time>
      </trkpt>
      <trkpt lat="49.85568" lon="4.78911">
        <ele>182</ele>
        <time>2022-09-28T08:42:28.000Z</time>
      </trkpt>
      <trkpt lat="49.85568" lon="4.78911">
        <ele>182</ele>
        <time>2022-09-28T08:42:29.000Z</time>
      </trkpt>
      <trkpt lat="49.85566" lon="4.78914">
        <ele>183</ele>
        <time>2022-09-28T08:42:30.000Z</time>
      </trkpt>
      <trkpt lat="49.85562" lon="4.78919">
        <ele>183</ele>
        <time>2022-09-28T08:42:31.000Z</time>
      </trkpt>
      <trkpt lat="49.8556" lon="4.78921">
        <ele>183</ele>
        <time>2022-09-28T08:42:32.000Z</time>
      </trkpt>
      <trkpt lat="49.85558" lon="4.78923">
        <ele>183</ele>
        <time>2022-09-28T08:42:33.000Z</time>
      </trkpt>
      <trkpt lat="49.85556" lon="4.78926">
        <ele>183</ele>
        <time>2022-09-28T08:42:34.000Z</time>
      </trkpt>
      <trkpt lat="49.85554" lon="4.78928">
        <ele>184</ele>
        <time>2022-09-28T08:42:35.000Z</time>
      </trkpt>
      <trkpt lat="49.85554" lon="4.78928">
        <ele>184</ele>
        <time>2022-09-28T08:42:36.000Z</time>
      </trkpt>
      <trkpt lat="49.85551" lon="4.78933">
        <ele>184</ele>
        <time>2022-09-28T08:42:37.000Z</time>
      </trkpt>
      <trkpt lat="49.85549" lon="4.78935">
        <ele>184</ele>
        <time>2022-09-28T08:42:38.000Z</time>
      </trkpt>
      <trkpt lat="49.85547" lon="4.78937">
        <ele>184</ele>
        <time>2022-09-28T08:42:39.000Z</time>
      </trkpt>
      <trkpt lat="49.85546" lon="4.78939">
        <ele>184</ele>
        <time>2022-09-28T08:42:40.000Z</time>
      </trkpt>
      <trkpt lat="49.85545" lon="4.78941">
        <ele>185</ele>
        <time>2022-09-28T08:42:41.000Z</time>
      </trkpt>
      <trkpt lat="49.85545" lon="4.78941">
        <ele>185</ele>
        <time>2022-09-28T08:42:42.000Z</time>
      </trkpt>
      <trkpt lat="49.85542" lon="4.78944">
        <ele>185</ele>
        <time>2022-09-28T08:42:43.000Z</time>
      </trkpt>
      <trkpt lat="49.8554" lon="4.78946">
        <ele>185</ele>
        <time>2022-09-28T08:42:44.000Z</time>
      </trkpt>
      <trkpt lat="49.85538" lon="4.78947">
        <ele>185</ele>
        <time>2022-09-28T08:42:45.000Z</time>
      </trkpt>
      <trkpt lat="49.85538" lon="4.78947">
        <ele>185</ele>
        <time>2022-09-28T08:42:46.000Z</time>
      </trkpt>
      <trkpt lat="49.85535" lon="4.78952">
        <ele>186</ele>
        <time>2022-09-28T08:42:47.000Z</time>
      </trkpt>
      <trkpt lat="49.85534" lon="4.78953">
        <ele>186</ele>
        <time>2022-09-28T08:42:48.000Z</time>
      </trkpt>
      <trkpt lat="49.85534" lon="4.78953">
        <ele>186</ele>
        <time>2022-09-28T08:42:49.000Z</time>
      </trkpt>
      <trkpt lat="49.85531" lon="4.78955">
        <ele>186</ele>
        <time>2022-09-28T08:42:50.000Z</time>
      </trkpt>
      <trkpt lat="49.85529" lon="4.78956">
        <ele>187</ele>
        <time>2022-09-28T08:42:51.000Z</time>
      </trkpt>
      <trkpt lat="49.85528" lon="4.78956">
        <ele>187</ele>
        <time>2022-09-28T08:42:52.000Z</time>
      </trkpt>
      <trkpt lat="49.85528" lon="4.78956">
        <ele>187</ele>
        <time>2022-09-28T08:42:53.000Z</time>
      </trkpt>
      <trkpt lat="49.85526" lon="4.78959">
        <ele>187</ele>
        <time>2022-09-28T08:42:54.000Z</time>
      </trkpt>
      <trkpt lat="49.85524" lon="4.7896">
        <ele>188</ele>
        <time>2022-09-28T08:42:55.000Z</time>
      </trkpt>
      <trkpt lat="49.85523" lon="4.78961">
        <ele>188</ele>
        <time>2022-09-28T08:42:56.000Z</time>
      </trkpt>
      <trkpt lat="49.85522" lon="4.78961">
        <ele>188</ele>
        <time>2022-09-28T08:42:57.000Z</time>
      </trkpt>
      <trkpt lat="49.85521" lon="4.78962">
        <ele>188</ele>
        <time>2022-09-28T08:42:58.000Z</time>
      </trkpt>
      <trkpt lat="49.8552" lon="4.78963">
        <ele>189</ele>
        <time>2022-09-28T08:42:59.000Z</time>
      </trkpt>
      <trkpt lat="49.85519" lon="4.78964">
        <ele>189</ele>
        <time>2022-09-28T08:43:00.000Z</time>
      </trkpt>
      <trkpt lat="49.85518" lon="4.78965">
        <ele>189</ele>
        <time>2022-09-28T08:43:01.000Z</time>
      </trkpt>
      <trkpt lat="49.85518" lon="4.78966">
        <ele>189</ele>
        <time>2022-09-28T08:43:02.000Z</time>
      </trkpt>
      <trkpt lat="49.85517" lon="4.78966">
        <ele>190</ele>
        <time>2022-09-28T08:43:03.000Z</time>
      </trkpt>
      <trkpt lat="49.85516" lon="4.78968">
        <ele>190</ele>
        <time>2022-09-28T08:43:04.000Z</time>
      </trkpt>
      <trkpt lat="49.85515" lon="4.78969">
        <ele>190</ele>
        <time>2022-09-28T08:43:05.000Z</time>
      </trkpt>
      <trkpt lat="49.85515" lon="4.78969">
        <ele>190</ele>
        <time>2022-09-28T08:43:06.000Z</time>
      </trkpt>
      <trkpt lat="49.85513" lon="4.78971">
        <ele>191</ele>
        <time>2022-09-28T08:43:07.000Z</time>
      </trkpt>
      <trkpt lat="49.85513" lon="4.78971">
        <ele>191</ele>
        <time>2022-09-28T08:43:08.000Z</time>
      </trkpt>
      <trkpt lat="49.85511" lon="4.78975">
        <ele>192</ele>
        <time>2022-09-28T08:43:09.000Z</time>
      </trkpt>
      <trkpt lat="49.85511" lon="4.78976">
        <ele>192</ele>
        <time>2022-09-28T08:43:10.000Z</time>
      </trkpt>
      <trkpt lat="49.85509" lon="4.78978">
        <ele>192</ele>
        <time>2022-09-28T08:43:11.000Z</time>
      </trkpt>
      <trkpt lat="49.85508" lon="4.7898">
        <ele>192</ele>
        <time>2022-09-28T08:43:12.000Z</time>
      </trkpt>
      <trkpt lat="49.85507" lon="4.78981">
        <ele>193</ele>
        <time>2022-09-28T08:43:13.000Z</time>
      </trkpt>
      <trkpt lat="49.85506" lon="4.78983">
        <ele>193</ele>
        <time>2022-09-28T08:43:14.000Z</time>
      </trkpt>
      <trkpt lat="49.85505" lon="4.78985">
        <ele>193</ele>
        <time>2022-09-28T08:43:15.000Z</time>
      </trkpt>
      <trkpt lat="49.85505" lon="4.78985">
        <ele>193</ele>
        <time>2022-09-28T08:43:16.000Z</time>
      </trkpt>
      <trkpt lat="49.85503" lon="4.7899">
        <ele>194</ele>
        <time>2022-09-28T08:43:17.000Z</time>
      </trkpt>
      <trkpt lat="49.85503" lon="4.7899">
        <ele>194</ele>
        <time>2022-09-28T08:43:18.000Z</time>
      </trkpt>
      <trkpt lat="49.855" lon="4.78995">
        <ele>194</ele>
        <time>2022-09-28T08:43:19.000Z</time>
      </trkpt>
      <trkpt lat="49.85499" lon="4.78997">
        <ele>194</ele>
        <time>2022-09-28T08:43:20.000Z</time>
      </trkpt>
      <trkpt lat="49.85497" lon="4.78998">
        <ele>194</ele>
        <time>2022-09-28T08:43:21.000Z</time>
      </trkpt>
      <trkpt lat="49.85496" lon="4.79">
        <ele>194</ele>
        <time>2022-09-28T08:43:22.000Z</time>
      </trkpt>
      <trkpt lat="49.85494" lon="4.79001">
        <ele>195</ele>
        <time>2022-09-28T08:43:23.000Z</time>
      </trkpt>
      <trkpt lat="49.85493" lon="4.79003">
        <ele>195</ele>
        <time>2022-09-28T08:43:24.000Z</time>
      </trkpt>
      <trkpt lat="49.85491" lon="4.79004">
        <ele>195</ele>
        <time>2022-09-28T08:43:25.000Z</time>
      </trkpt>
      <trkpt lat="49.8549" lon="4.79007">
        <ele>195</ele>
        <time>2022-09-28T08:43:26.000Z</time>
      </trkpt>
      <trkpt lat="49.85489" lon="4.79009">
        <ele>195</ele>
        <time>2022-09-28T08:43:27.000Z</time>
      </trkpt>
      <trkpt lat="49.85487" lon="4.7901">
        <ele>195</ele>
        <time>2022-09-28T08:43:28.000Z</time>
      </trkpt>
      <trkpt lat="49.85485" lon="4.79012">
        <ele>196</ele>
        <time>2022-09-28T08:43:29.000Z</time>
      </trkpt>
      <trkpt lat="49.85484" lon="4.79014">
        <ele>196</ele>
        <time>2022-09-28T08:43:30.000Z</time>
      </trkpt>
      <trkpt lat="49.85483" lon="4.79016">
        <ele>196</ele>
        <time>2022-09-28T08:43:31.000Z</time>
      </trkpt>
      <trkpt lat="49.85483" lon="4.79016">
        <ele>196</ele>
        <time>2022-09-28T08:43:32.000Z</time>
      </trkpt>
      <trkpt lat="49.85482" lon="4.79018">
        <ele>196</ele>
        <time>2022-09-28T08:43:33.000Z</time>
      </trkpt>
      <trkpt lat="49.8548" lon="4.79022">
        <ele>197</ele>
        <time>2022-09-28T08:43:34.000Z</time>
      </trkpt>
      <trkpt lat="49.85479" lon="4.79024">
        <ele>197</ele>
        <time>2022-09-28T08:43:35.000Z</time>
      </trkpt>
      <trkpt lat="49.85478" lon="4.79026">
        <ele>197</ele>
        <time>2022-09-28T08:43:36.000Z</time>
      </trkpt>
      <trkpt lat="49.85477" lon="4.79028">
        <ele>198</ele>
        <time>2022-09-28T08:43:37.000Z</time>
      </trkpt>
      <trkpt lat="49.85477" lon="4.7903">
        <ele>198</ele>
        <time>2022-09-28T08:43:38.000Z</time>
      </trkpt>
      <trkpt lat="49.85477" lon="4.7903">
        <ele>198</ele>
        <time>2022-09-28T08:43:39.000Z</time>
      </trkpt>
      <trkpt lat="49.85476" lon="4.79031">
        <ele>198</ele>
        <time>2022-09-28T08:43:40.000Z</time>
      </trkpt>
      <trkpt lat="49.85474" lon="4.79035">
        <ele>199</ele>
        <time>2022-09-28T08:43:41.000Z</time>
      </trkpt>
      <trkpt lat="49.85472" lon="4.79037">
        <ele>199</ele>
        <time>2022-09-28T08:43:42.000Z</time>
      </trkpt>
      <trkpt lat="49.8547" lon="4.79039">
        <ele>199</ele>
        <time>2022-09-28T08:43:43.000Z</time>
      </trkpt>
      <trkpt lat="49.85469" lon="4.7904">
        <ele>199</ele>
        <time>2022-09-28T08:43:44.000Z</time>
      </trkpt>
      <trkpt lat="49.85467" lon="4.7904">
        <ele>199</ele>
        <time>2022-09-28T08:43:45.000Z</time>
      </trkpt>
      <trkpt lat="49.85466" lon="4.7904">
        <ele>200</ele>
        <time>2022-09-28T08:43:46.000Z</time>
      </trkpt>
      <trkpt lat="49.85464" lon="4.79039">
        <ele>200</ele>
        <time>2022-09-28T08:43:47.000Z</time>
      </trkpt>
      <trkpt lat="49.85463" lon="4.79037">
        <ele>200</ele>
        <time>2022-09-28T08:43:48.000Z</time>
      </trkpt>
      <trkpt lat="49.85463" lon="4.79037">
        <ele>200</ele>
        <time>2022-09-28T08:43:49.000Z</time>
      </trkpt>
      <trkpt lat="49.85462" lon="4.79035">
        <ele>200</ele>
        <time>2022-09-28T08:43:50.000Z</time>
      </trkpt>
      <trkpt lat="49.85461" lon="4.79031">
        <ele>200</ele>
        <time>2022-09-28T08:43:51.000Z</time>
      </trkpt>
      <trkpt lat="49.85461" lon="4.79029">
        <ele>201</ele>
        <time>2022-09-28T08:43:52.000Z</time>
      </trkpt>
      <trkpt lat="49.85462" lon="4.79028">
        <ele>201</ele>
        <time>2022-09-28T08:43:53.000Z</time>
      </trkpt>
      <trkpt lat="49.85463" lon="4.79026">
        <ele>201</ele>
        <time>2022-09-28T08:43:54.000Z</time>
      </trkpt>
      <trkpt lat="49.85463" lon="4.79025">
        <ele>201</ele>
        <time>2022-09-28T08:43:55.000Z</time>
      </trkpt>
      <trkpt lat="49.85463" lon="4.79025">
        <ele>201</ele>
        <time>2022-09-28T08:43:56.000Z</time>
      </trkpt>
      <trkpt lat="49.85463" lon="4.79024">
        <ele>202</ele>
        <time>2022-09-28T08:43:57.000Z</time>
      </trkpt>
      <trkpt lat="49.85464" lon="4.79022">
        <ele>202</ele>
        <time>2022-09-28T08:43:58.000Z</time>
      </trkpt>
      <trkpt lat="49.85465" lon="4.79021">
        <ele>202</ele>
        <time>2022-09-28T08:43:59.000Z</time>
      </trkpt>
      <trkpt lat="49.85465" lon="4.7902">
        <ele>202</ele>
        <time>2022-09-28T08:44:00.000Z</time>
      </trkpt>
      <trkpt lat="49.85465" lon="4.7902">
        <ele>203</ele>
        <time>2022-09-28T08:44:01.000Z</time>
      </trkpt>
      <trkpt lat="49.85466" lon="4.79019">
        <ele>203</ele>
        <time>2022-09-28T08:44:02.000Z</time>
      </trkpt>
      <trkpt lat="49.85466" lon="4.79018">
        <ele>203</ele>
        <time>2022-09-28T08:44:03.000Z</time>
      </trkpt>
      <trkpt lat="49.85466" lon="4.79016">
        <ele>203</ele>
        <time>2022-09-28T08:44:04.000Z</time>
      </trkpt>
      <trkpt lat="49.85467" lon="4.79014">
        <ele>203</ele>
        <time>2022-09-28T08:44:05.000Z</time>
      </trkpt>
      <trkpt lat="49.85467" lon="4.79014">
        <ele>203</ele>
        <time>2022-09-28T08:44:06.000Z</time>
      </trkpt>
      <trkpt lat="49.85468" lon="4.79011">
        <ele>203</ele>
        <time>2022-09-28T08:44:07.000Z</time>
      </trkpt>
      <trkpt lat="49.85469" lon="4.79008">
        <ele>204</ele>
        <time>2022-09-28T08:44:08.000Z</time>
      </trkpt>
      <trkpt lat="49.8547" lon="4.79006">
        <ele>204</ele>
        <time>2022-09-28T08:44:09.000Z</time>
      </trkpt>
      <trkpt lat="49.8547" lon="4.79004">
        <ele>204</ele>
        <time>2022-09-28T08:44:10.000Z</time>
      </trkpt>
      <trkpt lat="49.85471" lon="4.79002">
        <ele>204</ele>
        <time>2022-09-28T08:44:11.000Z</time>
      </trkpt>
      <trkpt lat="49.85472" lon="4.79001">
        <ele>204</ele>
        <time>2022-09-28T08:44:12.000Z</time>
      </trkpt>
      <trkpt lat="49.85472" lon="4.79001">
        <ele>204</ele>
        <time>2022-09-28T08:44:13.000Z</time>
      </trkpt>
      <trkpt lat="49.85472" lon="4.78999">
        <ele>204</ele>
        <time>2022-09-28T08:44:14.000Z</time>
      </trkpt>
      <trkpt lat="49.85474" lon="4.78995">
        <ele>205</ele>
        <time>2022-09-28T08:44:15.000Z</time>
      </trkpt>
      <trkpt lat="49.85475" lon="4.78993">
        <ele>205</ele>
        <time>2022-09-28T08:44:16.000Z</time>
      </trkpt>
      <trkpt lat="49.85475" lon="4.7899">
        <ele>205</ele>
        <time>2022-09-28T08:44:17.000Z</time>
      </trkpt>
      <trkpt lat="49.85476" lon="4.78988">
        <ele>205</ele>
        <time>2022-09-28T08:44:18.000Z</time>
      </trkpt>
      <trkpt lat="49.85477" lon="4.78986">
        <ele>206</ele>
        <time>2022-09-28T08:44:19.000Z</time>
      </trkpt>
      <trkpt lat="49.85478" lon="4.78984">
        <ele>206</ele>
        <time>2022-09-28T08:44:20.000Z</time>
      </trkpt>
      <trkpt lat="49.85478" lon="4.78982">
        <ele>206</ele>
        <time>2022-09-28T08:44:21.000Z</time>
      </trkpt>
      <trkpt lat="49.85479" lon="4.78979">
        <ele>206</ele>
        <time>2022-09-28T08:44:22.000Z</time>
      </trkpt>
      <trkpt lat="49.85479" lon="4.78979">
        <ele>206</ele>
        <time>2022-09-28T08:44:23.000Z</time>
      </trkpt>
      <trkpt lat="49.8548" lon="4.78977">
        <ele>206</ele>
        <time>2022-09-28T08:44:24.000Z</time>
      </trkpt>
      <trkpt lat="49.85481" lon="4.78973">
        <ele>207</ele>
        <time>2022-09-28T08:44:25.000Z</time>
      </trkpt>
      <trkpt lat="49.85482" lon="4.78971">
        <ele>207</ele>
        <time>2022-09-28T08:44:26.000Z</time>
      </trkpt>
      <trkpt lat="49.85482" lon="4.78969">
        <ele>207</ele>
        <time>2022-09-28T08:44:27.000Z</time>
      </trkpt>
      <trkpt lat="49.85483" lon="4.78967">
        <ele>207</ele>
        <time>2022-09-28T08:44:28.000Z</time>
      </trkpt>
      <trkpt lat="49.85483" lon="4.78965">
        <ele>207</ele>
        <time>2022-09-28T08:44:29.000Z</time>
      </trkpt>
      <trkpt lat="49.85483" lon="4.78965">
        <ele>207</ele>
        <time>2022-09-28T08:44:30.000Z</time>
      </trkpt>
      <trkpt lat="49.85485" lon="4.78962">
        <ele>207</ele>
        <time>2022-09-28T08:44:31.000Z</time>
      </trkpt>
      <trkpt lat="49.85487" lon="4.78957">
        <ele>207</ele>
        <time>2022-09-28T08:44:32.000Z</time>
      </trkpt>
      <trkpt lat="49.85488" lon="4.78954">
        <ele>207</ele>
        <time>2022-09-28T08:44:33.000Z</time>
      </trkpt>
      <trkpt lat="49.85488" lon="4.78952">
        <ele>207</ele>
        <time>2022-09-28T08:44:34.000Z</time>
      </trkpt>
      <trkpt lat="49.85489" lon="4.78949">
        <ele>207</ele>
        <time>2022-09-28T08:44:35.000Z</time>
      </trkpt>
      <trkpt lat="49.8549" lon="4.78946">
        <ele>207</ele>
        <time>2022-09-28T08:44:36.000Z</time>
      </trkpt>
      <trkpt lat="49.85491" lon="4.78943">
        <ele>207</ele>
        <time>2022-09-28T08:44:37.000Z</time>
      </trkpt>
      <trkpt lat="49.85492" lon="4.7894">
        <ele>208</ele>
        <time>2022-09-28T08:44:38.000Z</time>
      </trkpt>
      <trkpt lat="49.85494" lon="4.78938">
        <ele>208</ele>
        <time>2022-09-28T08:44:39.000Z</time>
      </trkpt>
      <trkpt lat="49.85494" lon="4.78938">
        <ele>208</ele>
        <time>2022-09-28T08:44:40.000Z</time>
      </trkpt>
      <trkpt lat="49.85496" lon="4.78934">
        <ele>208</ele>
        <time>2022-09-28T08:44:41.000Z</time>
      </trkpt>
      <trkpt lat="49.85497" lon="4.78932">
        <ele>208</ele>
        <time>2022-09-28T08:44:42.000Z</time>
      </trkpt>
      <trkpt lat="49.85499" lon="4.7893">
        <ele>208</ele>
        <time>2022-09-28T08:44:43.000Z</time>
      </trkpt>
      <trkpt lat="49.855" lon="4.78928">
        <ele>208</ele>
        <time>2022-09-28T08:44:44.000Z</time>
      </trkpt>
      <trkpt lat="49.85501" lon="4.78926">
        <ele>208</ele>
        <time>2022-09-28T08:44:45.000Z</time>
      </trkpt>
      <trkpt lat="49.85501" lon="4.78926">
        <ele>208</ele>
        <time>2022-09-28T08:44:46.000Z</time>
      </trkpt>
      <trkpt lat="49.85502" lon="4.78922">
        <ele>209</ele>
        <time>2022-09-28T08:44:47.000Z</time>
      </trkpt>
      <trkpt lat="49.85503" lon="4.7892">
        <ele>209</ele>
        <time>2022-09-28T08:44:48.000Z</time>
      </trkpt>
      <trkpt lat="49.85504" lon="4.78918">
        <ele>209</ele>
        <time>2022-09-28T08:44:49.000Z</time>
      </trkpt>
      <trkpt lat="49.85505" lon="4.78916">
        <ele>209</ele>
        <time>2022-09-28T08:44:50.000Z</time>
      </trkpt>
      <trkpt lat="49.85506" lon="4.78914">
        <ele>210</ele>
        <time>2022-09-28T08:44:51.000Z</time>
      </trkpt>
      <trkpt lat="49.85506" lon="4.78912">
        <ele>210</ele>
        <time>2022-09-28T08:44:52.000Z</time>
      </trkpt>
      <trkpt lat="49.85507" lon="4.78911">
        <ele>210</ele>
        <time>2022-09-28T08:44:53.000Z</time>
      </trkpt>
      <trkpt lat="49.85507" lon="4.7891">
        <ele>210</ele>
        <time>2022-09-28T08:44:54.000Z</time>
      </trkpt>
      <trkpt lat="49.85507" lon="4.7891">
        <ele>210</ele>
        <time>2022-09-28T08:44:55.000Z</time>
      </trkpt>
      <trkpt lat="49.85508" lon="4.78908">
        <ele>210</ele>
        <time>2022-09-28T08:44:56.000Z</time>
      </trkpt>
      <trkpt lat="49.85509" lon="4.78905">
        <ele>210</ele>
        <time>2022-09-28T08:44:57.000Z</time>
      </trkpt>
      <trkpt lat="49.85509" lon="4.78904">
        <ele>210</ele>
        <time>2022-09-28T08:44:58.000Z</time>
      </trkpt>
      <trkpt lat="49.8551" lon="4.78902">
        <ele>210</ele>
        <time>2022-09-28T08:44:59.000Z</time>
      </trkpt>
      <trkpt lat="49.8551" lon="4.78902">
        <ele>210</ele>
        <time>2022-09-28T08:45:00.000Z</time>
      </trkpt>
      <trkpt lat="49.85511" lon="4.78898">
        <ele>211</ele>
        <time>2022-09-28T08:45:01.000Z</time>
      </trkpt>
      <trkpt lat="49.85512" lon="4.78896">
        <ele>211</ele>
        <time>2022-09-28T08:45:02.000Z</time>
      </trkpt>
      <trkpt lat="49.85512" lon="4.78896">
        <ele>211</ele>
        <time>2022-09-28T08:45:03.000Z</time>
      </trkpt>
      <trkpt lat="49.85511" lon="4.78893">
        <ele>211</ele>
        <time>2022-09-28T08:45:04.000Z</time>
      </trkpt>
      <trkpt lat="49.8551" lon="4.78892">
        <ele>212</ele>
        <time>2022-09-28T08:45:05.000Z</time>
      </trkpt>
      <trkpt lat="49.85509" lon="4.78891">
        <ele>212</ele>
        <time>2022-09-28T08:45:06.000Z</time>
      </trkpt>
      <trkpt lat="49.85509" lon="4.78891">
        <ele>212</ele>
        <time>2022-09-28T08:45:07.000Z</time>
      </trkpt>
      <trkpt lat="49.85506" lon="4.78892">
        <ele>213</ele>
        <time>2022-09-28T08:45:08.000Z</time>
      </trkpt>
      <trkpt lat="49.85505" lon="4.78893">
        <ele>213</ele>
        <time>2022-09-28T08:45:09.000Z</time>
      </trkpt>
      <trkpt lat="49.85503" lon="4.78894">
        <ele>213</ele>
        <time>2022-09-28T08:45:10.000Z</time>
      </trkpt>
      <trkpt lat="49.85501" lon="4.78894">
        <ele>214</ele>
        <time>2022-09-28T08:45:11.000Z</time>
      </trkpt>
      <trkpt lat="49.855" lon="4.78895">
        <ele>214</ele>
        <time>2022-09-28T08:45:12.000Z</time>
      </trkpt>
      <trkpt lat="49.855" lon="4.78895">
        <ele>214</ele>
        <time>2022-09-28T08:45:13.000Z</time>
      </trkpt>
      <trkpt lat="49.85497" lon="4.78898">
        <ele>215</ele>
        <time>2022-09-28T08:45:14.000Z</time>
      </trkpt>
      <trkpt lat="49.85496" lon="4.78899">
        <ele>215</ele>
        <time>2022-09-28T08:45:15.000Z</time>
      </trkpt>
      <trkpt lat="49.85496" lon="4.78899">
        <ele>215</ele>
        <time>2022-09-28T08:45:16.000Z</time>
      </trkpt>
      <trkpt lat="49.85493" lon="4.78903">
        <ele>216</ele>
        <time>2022-09-28T08:45:17.000Z</time>
      </trkpt>
      <trkpt lat="49.85492" lon="4.78904">
        <ele>216</ele>
        <time>2022-09-28T08:45:18.000Z</time>
      </trkpt>
      <trkpt lat="49.8549" lon="4.78906">
        <ele>217</ele>
        <time>2022-09-28T08:45:19.000Z</time>
      </trkpt>
      <trkpt lat="49.8549" lon="4.78906">
        <ele>217</ele>
        <time>2022-09-28T08:45:20.000Z</time>
      </trkpt>
      <trkpt lat="49.85487" lon="4.7891">
        <ele>217</ele>
        <time>2022-09-28T08:45:21.000Z</time>
      </trkpt>
      <trkpt lat="49.85485" lon="4.78913">
        <ele>217</ele>
        <time>2022-09-28T08:45:22.000Z</time>
      </trkpt>
      <trkpt lat="49.85485" lon="4.78913">
        <ele>217</ele>
        <time>2022-09-28T08:45:23.000Z</time>
      </trkpt>
      <trkpt lat="49.85482" lon="4.78917">
        <ele>218</ele>
        <time>2022-09-28T08:45:24.000Z</time>
      </trkpt>
      <trkpt lat="49.85481" lon="4.78919">
        <ele>218</ele>
        <time>2022-09-28T08:45:25.000Z</time>
      </trkpt>
      <trkpt lat="49.8548" lon="4.78921">
        <ele>218</ele>
        <time>2022-09-28T08:45:26.000Z</time>
      </trkpt>
      <trkpt lat="49.85479" lon="4.78924">
        <ele>219</ele>
        <time>2022-09-28T08:45:27.000Z</time>
      </trkpt>
      <trkpt lat="49.85477" lon="4.78926">
        <ele>219</ele>
        <time>2022-09-28T08:45:28.000Z</time>
      </trkpt>
      <trkpt lat="49.85476" lon="4.78928">
        <ele>219</ele>
        <time>2022-09-28T08:45:29.000Z</time>
      </trkpt>
      <trkpt lat="49.85476" lon="4.78928">
        <ele>219</ele>
        <time>2022-09-28T08:45:30.000Z</time>
      </trkpt>
      <trkpt lat="49.85473" lon="4.78932">
        <ele>220</ele>
        <time>2022-09-28T08:45:31.000Z</time>
      </trkpt>
      <trkpt lat="49.85471" lon="4.78934">
        <ele>220</ele>
        <time>2022-09-28T08:45:32.000Z</time>
      </trkpt>
      <trkpt lat="49.8547" lon="4.78935">
        <ele>220</ele>
        <time>2022-09-28T08:45:33.000Z</time>
      </trkpt>
      <trkpt lat="49.85468" lon="4.78936">
        <ele>221</ele>
        <time>2022-09-28T08:45:34.000Z</time>
      </trkpt>
      <trkpt lat="49.85467" lon="4.78938">
        <ele>221</ele>
        <time>2022-09-28T08:45:35.000Z</time>
      </trkpt>
      <trkpt lat="49.85467" lon="4.78938">
        <ele>221</ele>
        <time>2022-09-28T08:45:36.000Z</time>
      </trkpt>
      <trkpt lat="49.85466" lon="4.78939">
        <ele>221</ele>
        <time>2022-09-28T08:45:37.000Z</time>
      </trkpt>
      <trkpt lat="49.85465" lon="4.78941">
        <ele>222</ele>
        <time>2022-09-28T08:45:38.000Z</time>
      </trkpt>
      <trkpt lat="49.85465" lon="4.78941">
        <ele>222</ele>
        <time>2022-09-28T08:45:39.000Z</time>
      </trkpt>
      <trkpt lat="49.85462" lon="4.78944">
        <ele>222</ele>
        <time>2022-09-28T08:45:40.000Z</time>
      </trkpt>
      <trkpt lat="49.85461" lon="4.78945">
        <ele>223</ele>
        <time>2022-09-28T08:45:41.000Z</time>
      </trkpt>
      <trkpt lat="49.8546" lon="4.78947">
        <ele>223</ele>
        <time>2022-09-28T08:45:42.000Z</time>
      </trkpt>
      <trkpt lat="49.85459" lon="4.78948">
        <ele>223</ele>
        <time>2022-09-28T08:45:43.000Z</time>
      </trkpt>
      <trkpt lat="49.85457" lon="4.78949">
        <ele>223</ele>
        <time>2022-09-28T08:45:44.000Z</time>
      </trkpt>
      <trkpt lat="49.85456" lon="4.7895">
        <ele>224</ele>
        <time>2022-09-28T08:45:45.000Z</time>
      </trkpt>
      <trkpt lat="49.85455" lon="4.78951">
        <ele>224</ele>
        <time>2022-09-28T08:45:46.000Z</time>
      </trkpt>
      <trkpt lat="49.85455" lon="4.78951">
        <ele>224</ele>
        <time>2022-09-28T08:45:47.000Z</time>
      </trkpt>
      <trkpt lat="49.85454" lon="4.78952">
        <ele>224</ele>
        <time>2022-09-28T08:45:48.000Z</time>
      </trkpt>
      <trkpt lat="49.85453" lon="4.78954">
        <ele>225</ele>
        <time>2022-09-28T08:45:49.000Z</time>
      </trkpt>
      <trkpt lat="49.85452" lon="4.78957">
        <ele>225</ele>
        <time>2022-09-28T08:45:50.000Z</time>
      </trkpt>
      <trkpt lat="49.8545" lon="4.78959">
        <ele>226</ele>
        <time>2022-09-28T08:45:51.000Z</time>
      </trkpt>
      <trkpt lat="49.85449" lon="4.7896">
        <ele>226</ele>
        <time>2022-09-28T08:45:52.000Z</time>
      </trkpt>
      <trkpt lat="49.85448" lon="4.78961">
        <ele>226</ele>
        <time>2022-09-28T08:45:53.000Z</time>
      </trkpt>
      <trkpt lat="49.85448" lon="4.78961">
        <ele>226</ele>
        <time>2022-09-28T08:45:54.000Z</time>
      </trkpt>
      <trkpt lat="49.85447" lon="4.78962">
        <ele>226</ele>
        <time>2022-09-28T08:45:55.000Z</time>
      </trkpt>
      <trkpt lat="49.85444" lon="4.78965">
        <ele>227</ele>
        <time>2022-09-28T08:45:56.000Z</time>
      </trkpt>
      <trkpt lat="49.85443" lon="4.78966">
        <ele>227</ele>
        <time>2022-09-28T08:45:57.000Z</time>
      </trkpt>
      <trkpt lat="49.85442" lon="4.78967">
        <ele>228</ele>
        <time>2022-09-28T08:45:58.000Z</time>
      </trkpt>
      <trkpt lat="49.85441" lon="4.78969">
        <ele>228</ele>
        <time>2022-09-28T08:45:59.000Z</time>
      </trkpt>
      <trkpt lat="49.8544" lon="4.78969">
        <ele>228</ele>
        <time>2022-09-28T08:46:00.000Z</time>
      </trkpt>
      <trkpt lat="49.85438" lon="4.78971">
        <ele>228</ele>
        <time>2022-09-28T08:46:01.000Z</time>
      </trkpt>
      <trkpt lat="49.85437" lon="4.78972">
        <ele>229</ele>
        <time>2022-09-28T08:46:02.000Z</time>
      </trkpt>
      <trkpt lat="49.85436" lon="4.78973">
        <ele>229</ele>
        <time>2022-09-28T08:46:03.000Z</time>
      </trkpt>
      <trkpt lat="49.85436" lon="4.78973">
        <ele>229</ele>
        <time>2022-09-28T08:46:04.000Z</time>
      </trkpt>
      <trkpt lat="49.85434" lon="4.78974">
        <ele>229</ele>
        <time>2022-09-28T08:46:05.000Z</time>
      </trkpt>
      <trkpt lat="49.85431" lon="4.78976">
        <ele>230</ele>
        <time>2022-09-28T08:46:06.000Z</time>
      </trkpt>
      <trkpt lat="49.8543" lon="4.78977">
        <ele>230</ele>
        <time>2022-09-28T08:46:07.000Z</time>
      </trkpt>
      <trkpt lat="49.85429" lon="4.78978">
        <ele>231</ele>
        <time>2022-09-28T08:46:08.000Z</time>
      </trkpt>
      <trkpt lat="49.85427" lon="4.78978">
        <ele>231</ele>
        <time>2022-09-28T08:46:09.000Z</time>
      </trkpt>
      <trkpt lat="49.85426" lon="4.78978">
        <ele>232</ele>
        <time>2022-09-28T08:46:10.000Z</time>
      </trkpt>
      <trkpt lat="49.85426" lon="4.78978">
        <ele>232</ele>
        <time>2022-09-28T08:46:11.000Z</time>
      </trkpt>
      <trkpt lat="49.85424" lon="4.78979">
        <ele>232</ele>
        <time>2022-09-28T08:46:12.000Z</time>
      </trkpt>
      <trkpt lat="49.85423" lon="4.78979">
        <ele>233</ele>
        <time>2022-09-28T08:46:13.000Z</time>
      </trkpt>
      <trkpt lat="49.85421" lon="4.78979">
        <ele>233</ele>
        <time>2022-09-28T08:46:14.000Z</time>
      </trkpt>
      <trkpt lat="49.8542" lon="4.78979">
        <ele>233</ele>
        <time>2022-09-28T08:46:15.000Z</time>
      </trkpt>
      <trkpt lat="49.85418" lon="4.78979">
        <ele>234</ele>
        <time>2022-09-28T08:46:16.000Z</time>
      </trkpt>
      <trkpt lat="49.85418" lon="4.78979">
        <ele>234</ele>
        <time>2022-09-28T08:46:17.000Z</time>
      </trkpt>
      <trkpt lat="49.85415" lon="4.78978">
        <ele>234</ele>
        <time>2022-09-28T08:46:18.000Z</time>
      </trkpt>
      <trkpt lat="49.85414" lon="4.78978">
        <ele>235</ele>
        <time>2022-09-28T08:46:19.000Z</time>
      </trkpt>
      <trkpt lat="49.85412" lon="4.78977">
        <ele>235</ele>
        <time>2022-09-28T08:46:20.000Z</time>
      </trkpt>
      <trkpt lat="49.85412" lon="4.78977">
        <ele>235</ele>
        <time>2022-09-28T08:46:21.000Z</time>
      </trkpt>
      <trkpt lat="49.85409" lon="4.78976">
        <ele>235</ele>
        <time>2022-09-28T08:46:22.000Z</time>
      </trkpt>
      <trkpt lat="49.85407" lon="4.78976">
        <ele>236</ele>
        <time>2022-09-28T08:46:23.000Z</time>
      </trkpt>
      <trkpt lat="49.85405" lon="4.78975">
        <ele>236</ele>
        <time>2022-09-28T08:46:24.000Z</time>
      </trkpt>
      <trkpt lat="49.85404" lon="4.78974">
        <ele>236</ele>
        <time>2022-09-28T08:46:25.000Z</time>
      </trkpt>
      <trkpt lat="49.85403" lon="4.78974">
        <ele>237</ele>
        <time>2022-09-28T08:46:26.000Z</time>
      </trkpt>
      <trkpt lat="49.85403" lon="4.78974">
        <ele>237</ele>
        <time>2022-09-28T08:46:27.000Z</time>
      </trkpt>
      <trkpt lat="49.85401" lon="4.78974">
        <ele>237</ele>
        <time>2022-09-28T08:46:28.000Z</time>
      </trkpt>
      <trkpt lat="49.85398" lon="4.78973">
        <ele>238</ele>
        <time>2022-09-28T08:46:29.000Z</time>
      </trkpt>
      <trkpt lat="49.85396" lon="4.78973">
        <ele>238</ele>
        <time>2022-09-28T08:46:30.000Z</time>
      </trkpt>
      <trkpt lat="49.85396" lon="4.78973">
        <ele>238</ele>
        <time>2022-09-28T08:46:31.000Z</time>
      </trkpt>
      <trkpt lat="49.85393" lon="4.78973">
        <ele>239</ele>
        <time>2022-09-28T08:46:32.000Z</time>
      </trkpt>
      <trkpt lat="49.85391" lon="4.78972">
        <ele>239</ele>
        <time>2022-09-28T08:46:33.000Z</time>
      </trkpt>
      <trkpt lat="49.8539" lon="4.78972">
        <ele>239</ele>
        <time>2022-09-28T08:46:34.000Z</time>
      </trkpt>
      <trkpt lat="49.85388" lon="4.78972">
        <ele>240</ele>
        <time>2022-09-28T08:46:35.000Z</time>
      </trkpt>
      <trkpt lat="49.85388" lon="4.78972">
        <ele>240</ele>
        <time>2022-09-28T08:46:36.000Z</time>
      </trkpt>
      <trkpt lat="49.85386" lon="4.78971">
        <ele>240</ele>
        <time>2022-09-28T08:46:37.000Z</time>
      </trkpt>
      <trkpt lat="49.85385" lon="4.78971">
        <ele>240</ele>
        <time>2022-09-28T08:46:38.000Z</time>
      </trkpt>
      <trkpt lat="49.85382" lon="4.78971">
        <ele>241</ele>
        <time>2022-09-28T08:46:39.000Z</time>
      </trkpt>
      <trkpt lat="49.85382" lon="4.78971">
        <ele>241</ele>
        <time>2022-09-28T08:46:40.000Z</time>
      </trkpt>
      <trkpt lat="49.8538" lon="4.7897">
        <ele>241</ele>
        <time>2022-09-28T08:46:41.000Z</time>
      </trkpt>
      <trkpt lat="49.85377" lon="4.78969">
        <ele>242</ele>
        <time>2022-09-28T08:46:42.000Z</time>
      </trkpt>
      <trkpt lat="49.85376" lon="4.78968">
        <ele>243</ele>
        <time>2022-09-28T08:46:43.000Z</time>
      </trkpt>
      <trkpt lat="49.85376" lon="4.78968">
        <ele>243</ele>
        <time>2022-09-28T08:46:44.000Z</time>
      </trkpt>
      <trkpt lat="49.85374" lon="4.78968">
        <ele>243</ele>
        <time>2022-09-28T08:46:45.000Z</time>
      </trkpt>
      <trkpt lat="49.85371" lon="4.78969">
        <ele>244</ele>
        <time>2022-09-28T08:46:46.000Z</time>
      </trkpt>
      <trkpt lat="49.8537" lon="4.7897">
        <ele>244</ele>
        <time>2022-09-28T08:46:47.000Z</time>
      </trkpt>
      <trkpt lat="49.8537" lon="4.7897">
        <ele>244</ele>
        <time>2022-09-28T08:46:48.000Z</time>
      </trkpt>
      <trkpt lat="49.85366" lon="4.78973">
        <ele>245</ele>
        <time>2022-09-28T08:46:49.000Z</time>
      </trkpt>
      <trkpt lat="49.85364" lon="4.78974">
        <ele>246</ele>
        <time>2022-09-28T08:46:50.000Z</time>
      </trkpt>
      <trkpt lat="49.85363" lon="4.78975">
        <ele>246</ele>
        <time>2022-09-28T08:46:51.000Z</time>
      </trkpt>
      <trkpt lat="49.85362" lon="4.78977">
        <ele>246</ele>
        <time>2022-09-28T08:46:52.000Z</time>
      </trkpt>
      <trkpt lat="49.85362" lon="4.78977">
        <ele>246</ele>
        <time>2022-09-28T08:46:53.000Z</time>
      </trkpt>
      <trkpt lat="49.85358" lon="4.7898">
        <ele>247</ele>
        <time>2022-09-28T08:46:54.000Z</time>
      </trkpt>
      <trkpt lat="49.85358" lon="4.7898">
        <ele>247</ele>
        <time>2022-09-28T08:46:55.000Z</time>
      </trkpt>
      <trkpt lat="49.85357" lon="4.78981">
        <ele>248</ele>
        <time>2022-09-28T08:46:56.000Z</time>
      </trkpt>
      <trkpt lat="49.85355" lon="4.78983">
        <ele>248</ele>
        <time>2022-09-28T08:46:57.000Z</time>
      </trkpt>
      <trkpt lat="49.85353" lon="4.78984">
        <ele>249</ele>
        <time>2022-09-28T08:46:58.000Z</time>
      </trkpt>
      <trkpt lat="49.85353" lon="4.78984">
        <ele>249</ele>
        <time>2022-09-28T08:46:59.000Z</time>
      </trkpt>
      <trkpt lat="49.85353" lon="4.78984">
        <ele>249</ele>
        <time>2022-09-28T08:47:00.000Z</time>
      </trkpt>
      <trkpt lat="49.85352" lon="4.78984">
        <ele>250</ele>
        <time>2022-09-28T08:47:01.000Z</time>
      </trkpt>
      <trkpt lat="49.85351" lon="4.78985">
        <ele>250</ele>
        <time>2022-09-28T08:47:02.000Z</time>
      </trkpt>
      <trkpt lat="49.85351" lon="4.78985">
        <ele>251</ele>
        <time>2022-09-28T08:47:03.000Z</time>
      </trkpt>
      <trkpt lat="49.8535" lon="4.78985">
        <ele>251</ele>
        <time>2022-09-28T08:47:04.000Z</time>
      </trkpt>
      <trkpt lat="49.8535" lon="4.78985">
        <ele>251</ele>
        <time>2022-09-28T08:47:05.000Z</time>
      </trkpt>
      <trkpt lat="49.85349" lon="4.78985">
        <ele>252</ele>
        <time>2022-09-28T08:47:06.000Z</time>
      </trkpt>
      <trkpt lat="49.85349" lon="4.78985">
        <ele>252</ele>
        <time>2022-09-28T08:47:07.000Z</time>
      </trkpt>
      <trkpt lat="49.85347" lon="4.78985">
        <ele>252</ele>
        <time>2022-09-28T08:47:08.000Z</time>
      </trkpt>
      <trkpt lat="49.85346" lon="4.78984">
        <ele>252</ele>
        <time>2022-09-28T08:47:09.000Z</time>
      </trkpt>
      <trkpt lat="49.85345" lon="4.78982">
        <ele>253</ele>
        <time>2022-09-28T08:47:10.000Z</time>
      </trkpt>
      <trkpt lat="49.85344" lon="4.7898">
        <ele>253</ele>
        <time>2022-09-28T08:47:11.000Z</time>
      </trkpt>
      <trkpt lat="49.85344" lon="4.7898">
        <ele>253</ele>
        <time>2022-09-28T08:47:12.000Z</time>
      </trkpt>
      <trkpt lat="49.85344" lon="4.78977">
        <ele>253</ele>
        <time>2022-09-28T08:47:13.000Z</time>
      </trkpt>
      <trkpt lat="49.85343" lon="4.78974">
        <ele>253</ele>
        <time>2022-09-28T08:47:14.000Z</time>
      </trkpt>
      <trkpt lat="49.85343" lon="4.78972">
        <ele>254</ele>
        <time>2022-09-28T08:47:15.000Z</time>
      </trkpt>
      <trkpt lat="49.85343" lon="4.7897">
        <ele>254</ele>
        <time>2022-09-28T08:47:16.000Z</time>
      </trkpt>
      <trkpt lat="49.85343" lon="4.7897">
        <ele>254</ele>
        <time>2022-09-28T08:47:17.000Z</time>
      </trkpt>
      <trkpt lat="49.85345" lon="4.78967">
        <ele>254</ele>
        <time>2022-09-28T08:47:18.000Z</time>
      </trkpt>
      <trkpt lat="49.85346" lon="4.78965">
        <ele>254</ele>
        <time>2022-09-28T08:47:19.000Z</time>
      </trkpt>
      <trkpt lat="49.85346" lon="4.78963">
        <ele>255</ele>
        <time>2022-09-28T08:47:20.000Z</time>
      </trkpt>
      <trkpt lat="49.85346" lon="4.78963">
        <ele>255</ele>
        <time>2022-09-28T08:47:21.000Z</time>
      </trkpt>
      <trkpt lat="49.85346" lon="4.78962">
        <ele>255</ele>
        <time>2022-09-28T08:47:22.000Z</time>
      </trkpt>
      <trkpt lat="49.85346" lon="4.7896">
        <ele>255</ele>
        <time>2022-09-28T08:47:23.000Z</time>
      </trkpt>
      <trkpt lat="49.85347" lon="4.78958">
        <ele>255</ele>
        <time>2022-09-28T08:47:24.000Z</time>
      </trkpt>
      <trkpt lat="49.85348" lon="4.78956">
        <ele>255</ele>
        <time>2022-09-28T08:47:25.000Z</time>
      </trkpt>
      <trkpt lat="49.85348" lon="4.78954">
        <ele>256</ele>
        <time>2022-09-28T08:47:26.000Z</time>
      </trkpt>
      <trkpt lat="49.85349" lon="4.78951">
        <ele>256</ele>
        <time>2022-09-28T08:47:27.000Z</time>
      </trkpt>
      <trkpt lat="49.85349" lon="4.78951">
        <ele>256</ele>
        <time>2022-09-28T08:47:28.000Z</time>
      </trkpt>
      <trkpt lat="49.85348" lon="4.7895">
        <ele>256</ele>
        <time>2022-09-28T08:47:29.000Z</time>
      </trkpt>
      <trkpt lat="49.85349" lon="4.78948">
        <ele>256</ele>
        <time>2022-09-28T08:47:30.000Z</time>
      </trkpt>
      <trkpt lat="49.85349" lon="4.78947">
        <ele>256</ele>
        <time>2022-09-28T08:47:31.000Z</time>
      </trkpt>
      <trkpt lat="49.85349" lon="4.78945">
        <ele>256</ele>
        <time>2022-09-28T08:47:32.000Z</time>
      </trkpt>
      <trkpt lat="49.8535" lon="4.78943">
        <ele>257</ele>
        <time>2022-09-28T08:47:33.000Z</time>
      </trkpt>
      <trkpt lat="49.85351" lon="4.78942">
        <ele>257</ele>
        <time>2022-09-28T08:47:34.000Z</time>
      </trkpt>
      <trkpt lat="49.85351" lon="4.7894">
        <ele>257</ele>
        <time>2022-09-28T08:47:35.000Z</time>
      </trkpt>
      <trkpt lat="49.85352" lon="4.78939">
        <ele>257</ele>
        <time>2022-09-28T08:47:36.000Z</time>
      </trkpt>
      <trkpt lat="49.85352" lon="4.78937">
        <ele>257</ele>
        <time>2022-09-28T08:47:37.000Z</time>
      </trkpt>
      <trkpt lat="49.85353" lon="4.78936">
        <ele>258</ele>
        <time>2022-09-28T08:47:38.000Z</time>
      </trkpt>
      <trkpt lat="49.85353" lon="4.78935">
        <ele>258</ele>
        <time>2022-09-28T08:47:39.000Z</time>
      </trkpt>
      <trkpt lat="49.85354" lon="4.78935">
        <ele>258</ele>
        <time>2022-09-28T08:47:40.000Z</time>
      </trkpt>
      <trkpt lat="49.85355" lon="4.78934">
        <ele>258</ele>
        <time>2022-09-28T08:47:41.000Z</time>
      </trkpt>
      <trkpt lat="49.85356" lon="4.78932">
        <ele>258</ele>
        <time>2022-09-28T08:47:42.000Z</time>
      </trkpt>
      <trkpt lat="49.85356" lon="4.78931">
        <ele>258</ele>
        <time>2022-09-28T08:47:43.000Z</time>
      </trkpt>
      <trkpt lat="49.85357" lon="4.7893">
        <ele>259</ele>
        <time>2022-09-28T08:47:44.000Z</time>
      </trkpt>
      <trkpt lat="49.85358" lon="4.78929">
        <ele>259</ele>
        <time>2022-09-28T08:47:45.000Z</time>
      </trkpt>
      <trkpt lat="49.8536" lon="4.78927">
        <ele>259</ele>
        <time>2022-09-28T08:47:46.000Z</time>
      </trkpt>
      <trkpt lat="49.85361" lon="4.78926">
        <ele>259</ele>
        <time>2022-09-28T08:47:47.000Z</time>
      </trkpt>
      <trkpt lat="49.85362" lon="4.78925">
        <ele>259</ele>
        <time>2022-09-28T08:47:48.000Z</time>
      </trkpt>
      <trkpt lat="49.85362" lon="4.78925">
        <ele>259</ele>
        <time>2022-09-28T08:47:49.000Z</time>
      </trkpt>
      <trkpt lat="49.85365" lon="4.78925">
        <ele>260</ele>
        <time>2022-09-28T08:47:50.000Z</time>
      </trkpt>
      <trkpt lat="49.85365" lon="4.78925">
        <ele>260</ele>
        <time>2022-09-28T08:47:51.000Z</time>
      </trkpt>
      <trkpt lat="49.85368" lon="4.78925">
        <ele>260</ele>
        <time>2022-09-28T08:47:52.000Z</time>
      </trkpt>
      <trkpt lat="49.8537" lon="4.78925">
        <ele>261</ele>
        <time>2022-09-28T08:47:53.000Z</time>
      </trkpt>
      <trkpt lat="49.85372" lon="4.78925">
        <ele>261</ele>
        <time>2022-09-28T08:47:54.000Z</time>
      </trkpt>
      <trkpt lat="49.85373" lon="4.78924">
        <ele>261</ele>
        <time>2022-09-28T08:47:55.000Z</time>
      </trkpt>
      <trkpt lat="49.85375" lon="4.78924">
        <ele>261</ele>
        <time>2022-09-28T08:47:56.000Z</time>
      </trkpt>
      <trkpt lat="49.85376" lon="4.78923">
        <ele>261</ele>
        <time>2022-09-28T08:47:57.000Z</time>
      </trkpt>
      <trkpt lat="49.85376" lon="4.78923">
        <ele>261</ele>
        <time>2022-09-28T08:47:58.000Z</time>
      </trkpt>
      <trkpt lat="49.85381" lon="4.7892">
        <ele>262</ele>
        <time>2022-09-28T08:47:59.000Z</time>
      </trkpt>
      <trkpt lat="49.85382" lon="4.78919">
        <ele>262</ele>
        <time>2022-09-28T08:48:00.000Z</time>
      </trkpt>
      <trkpt lat="49.85384" lon="4.78918">
        <ele>262</ele>
        <time>2022-09-28T08:48:01.000Z</time>
      </trkpt>
      <trkpt lat="49.85385" lon="4.78918">
        <ele>263</ele>
        <time>2022-09-28T08:48:02.000Z</time>
      </trkpt>
      <trkpt lat="49.85388" lon="4.78917">
        <ele>263</ele>
        <time>2022-09-28T08:48:03.000Z</time>
      </trkpt>
      <trkpt lat="49.85388" lon="4.78917">
        <ele>263</ele>
        <time>2022-09-28T08:48:04.000Z</time>
      </trkpt>
      <trkpt lat="49.8539" lon="4.78916">
        <ele>263</ele>
        <time>2022-09-28T08:48:05.000Z</time>
      </trkpt>
      <trkpt lat="49.85392" lon="4.78915">
        <ele>263</ele>
        <time>2022-09-28T08:48:06.000Z</time>
      </trkpt>
      <trkpt lat="49.85394" lon="4.78914">
        <ele>263</ele>
        <time>2022-09-28T08:48:07.000Z</time>
      </trkpt>
      <trkpt lat="49.85396" lon="4.78913">
        <ele>263</ele>
        <time>2022-09-28T08:48:08.000Z</time>
      </trkpt>
      <trkpt lat="49.85398" lon="4.78912">
        <ele>264</ele>
        <time>2022-09-28T08:48:09.000Z</time>
      </trkpt>
      <trkpt lat="49.854" lon="4.78912">
        <ele>264</ele>
        <time>2022-09-28T08:48:10.000Z</time>
      </trkpt>
      <trkpt lat="49.85402" lon="4.78911">
        <ele>264</ele>
        <time>2022-09-28T08:48:11.000Z</time>
      </trkpt>
      <trkpt lat="49.85404" lon="4.7891">
        <ele>265</ele>
        <time>2022-09-28T08:48:12.000Z</time>
      </trkpt>
      <trkpt lat="49.85406" lon="4.78908">
        <ele>265</ele>
        <time>2022-09-28T08:48:13.000Z</time>
      </trkpt>
      <trkpt lat="49.85408" lon="4.78906">
        <ele>265</ele>
        <time>2022-09-28T08:48:14.000Z</time>
      </trkpt>
      <trkpt lat="49.8541" lon="4.78904">
        <ele>265</ele>
        <time>2022-09-28T08:48:15.000Z</time>
      </trkpt>
      <trkpt lat="49.85412" lon="4.78901">
        <ele>265</ele>
        <time>2022-09-28T08:48:16.000Z</time>
      </trkpt>
      <trkpt lat="49.85414" lon="4.78898">
        <ele>265</ele>
        <time>2022-09-28T08:48:17.000Z</time>
      </trkpt>
      <trkpt lat="49.85416" lon="4.78896">
        <ele>265</ele>
        <time>2022-09-28T08:48:18.000Z</time>
      </trkpt>
      <trkpt lat="49.85418" lon="4.78893">
        <ele>266</ele>
        <time>2022-09-28T08:48:19.000Z</time>
      </trkpt>
      <trkpt lat="49.8542" lon="4.7889">
        <ele>266</ele>
        <time>2022-09-28T08:48:20.000Z</time>
      </trkpt>
      <trkpt lat="49.85421" lon="4.78888">
        <ele>266</ele>
        <time>2022-09-28T08:48:21.000Z</time>
      </trkpt>
      <trkpt lat="49.85422" lon="4.78885">
        <ele>266</ele>
        <time>2022-09-28T08:48:22.000Z</time>
      </trkpt>
      <trkpt lat="49.85423" lon="4.78882">
        <ele>266</ele>
        <time>2022-09-28T08:48:23.000Z</time>
      </trkpt>
      <trkpt lat="49.85424" lon="4.78879">
        <ele>266</ele>
        <time>2022-09-28T08:48:24.000Z</time>
      </trkpt>
      <trkpt lat="49.85426" lon="4.78876">
        <ele>266</ele>
        <time>2022-09-28T08:48:25.000Z</time>
      </trkpt>
      <trkpt lat="49.85427" lon="4.78874">
        <ele>267</ele>
        <time>2022-09-28T08:48:26.000Z</time>
      </trkpt>
      <trkpt lat="49.85428" lon="4.7887">
        <ele>267</ele>
        <time>2022-09-28T08:48:27.000Z</time>
      </trkpt>
      <trkpt lat="49.85428" lon="4.78867">
        <ele>267</ele>
        <time>2022-09-28T08:48:28.000Z</time>
      </trkpt>
      <trkpt lat="49.85429" lon="4.78864">
        <ele>267</ele>
        <time>2022-09-28T08:48:29.000Z</time>
      </trkpt>
      <trkpt lat="49.8543" lon="4.78862">
        <ele>267</ele>
        <time>2022-09-28T08:48:30.000Z</time>
      </trkpt>
      <trkpt lat="49.85431" lon="4.78859">
        <ele>267</ele>
        <time>2022-09-28T08:48:31.000Z</time>
      </trkpt>
      <trkpt lat="49.85432" lon="4.78856">
        <ele>267</ele>
        <time>2022-09-28T08:48:32.000Z</time>
      </trkpt>
      <trkpt lat="49.85433" lon="4.78854">
        <ele>267</ele>
        <time>2022-09-28T08:48:33.000Z</time>
      </trkpt>
      <trkpt lat="49.85435" lon="4.78852">
        <ele>268</ele>
        <time>2022-09-28T08:48:34.000Z</time>
      </trkpt>
      <trkpt lat="49.85436" lon="4.7885">
        <ele>268</ele>
        <time>2022-09-28T08:48:35.000Z</time>
      </trkpt>
      <trkpt lat="49.85437" lon="4.78847">
        <ele>268</ele>
        <time>2022-09-28T08:48:36.000Z</time>
      </trkpt>
      <trkpt lat="49.85439" lon="4.78844">
        <ele>268</ele>
        <time>2022-09-28T08:48:37.000Z</time>
      </trkpt>
      <trkpt lat="49.8544" lon="4.78841">
        <ele>268</ele>
        <time>2022-09-28T08:48:38.000Z</time>
      </trkpt>
      <trkpt lat="49.85442" lon="4.78838">
        <ele>269</ele>
        <time>2022-09-28T08:48:39.000Z</time>
      </trkpt>
      <trkpt lat="49.85443" lon="4.78835">
        <ele>269</ele>
        <time>2022-09-28T08:48:40.000Z</time>
      </trkpt>
      <trkpt lat="49.85445" lon="4.78832">
        <ele>269</ele>
        <time>2022-09-28T08:48:41.000Z</time>
      </trkpt>
      <trkpt lat="49.85446" lon="4.7883">
        <ele>269</ele>
        <time>2022-09-28T08:48:42.000Z</time>
      </trkpt>
      <trkpt lat="49.85447" lon="4.78827">
        <ele>269</ele>
        <time>2022-09-28T08:48:43.000Z</time>
      </trkpt>
      <trkpt lat="49.85449" lon="4.78824">
        <ele>269</ele>
        <time>2022-09-28T08:48:44.000Z</time>
      </trkpt>
      <trkpt lat="49.8545" lon="4.78821">
        <ele>270</ele>
        <time>2022-09-28T08:48:45.000Z</time>
      </trkpt>
      <trkpt lat="49.85451" lon="4.78818">
        <ele>270</ele>
        <time>2022-09-28T08:48:46.000Z</time>
      </trkpt>
      <trkpt lat="49.85452" lon="4.78815">
        <ele>270</ele>
        <time>2022-09-28T08:48:47.000Z</time>
      </trkpt>
      <trkpt lat="49.85452" lon="4.78812">
        <ele>270</ele>
        <time>2022-09-28T08:48:48.000Z</time>
      </trkpt>
      <trkpt lat="49.85453" lon="4.7881">
        <ele>270</ele>
        <time>2022-09-28T08:48:49.000Z</time>
      </trkpt>
      <trkpt lat="49.85453" lon="4.78807">
        <ele>270</ele>
        <time>2022-09-28T08:48:50.000Z</time>
      </trkpt>
      <trkpt lat="49.85453" lon="4.78804">
        <ele>270</ele>
        <time>2022-09-28T08:48:51.000Z</time>
      </trkpt>
      <trkpt lat="49.85454" lon="4.78801">
        <ele>271</ele>
        <time>2022-09-28T08:48:52.000Z</time>
      </trkpt>
      <trkpt lat="49.85455" lon="4.78799">
        <ele>271</ele>
        <time>2022-09-28T08:48:53.000Z</time>
      </trkpt>
      <trkpt lat="49.85456" lon="4.78797">
        <ele>271</ele>
        <time>2022-09-28T08:48:54.000Z</time>
      </trkpt>
      <trkpt lat="49.85457" lon="4.78794">
        <ele>271</ele>
        <time>2022-09-28T08:48:55.000Z</time>
      </trkpt>
      <trkpt lat="49.85459" lon="4.78792">
        <ele>271</ele>
        <time>2022-09-28T08:48:56.000Z</time>
      </trkpt>
      <trkpt lat="49.85461" lon="4.7879">
        <ele>272</ele>
        <time>2022-09-28T08:48:57.000Z</time>
      </trkpt>
      <trkpt lat="49.85462" lon="4.78787">
        <ele>272</ele>
        <time>2022-09-28T08:48:58.000Z</time>
      </trkpt>
      <trkpt lat="49.85464" lon="4.78784">
        <ele>272</ele>
        <time>2022-09-28T08:48:59.000Z</time>
      </trkpt>
      <trkpt lat="49.85467" lon="4.78782">
        <ele>272</ele>
        <time>2022-09-28T08:49:00.000Z</time>
      </trkpt>
      <trkpt lat="49.85469" lon="4.78782">
        <ele>273</ele>
        <time>2022-09-28T08:49:01.000Z</time>
      </trkpt>
      <trkpt lat="49.85471" lon="4.78782">
        <ele>273</ele>
        <time>2022-09-28T08:49:02.000Z</time>
      </trkpt>
      <trkpt lat="49.85473" lon="4.78782">
        <ele>273</ele>
        <time>2022-09-28T08:49:03.000Z</time>
      </trkpt>
      <trkpt lat="49.85476" lon="4.78781">
        <ele>273</ele>
        <time>2022-09-28T08:49:04.000Z</time>
      </trkpt>
      <trkpt lat="49.85479" lon="4.7878">
        <ele>273</ele>
        <time>2022-09-28T08:49:05.000Z</time>
      </trkpt>
      <trkpt lat="49.85482" lon="4.78779">
        <ele>273</ele>
        <time>2022-09-28T08:49:06.000Z</time>
      </trkpt>
      <trkpt lat="49.85485" lon="4.78778">
        <ele>273</ele>
        <time>2022-09-28T08:49:07.000Z</time>
      </trkpt>
      <trkpt lat="49.85487" lon="4.78776">
        <ele>274</ele>
        <time>2022-09-28T08:49:08.000Z</time>
      </trkpt>
      <trkpt lat="49.8549" lon="4.78774">
        <ele>274</ele>
        <time>2022-09-28T08:49:09.000Z</time>
      </trkpt>
      <trkpt lat="49.85493" lon="4.78772">
        <ele>274</ele>
        <time>2022-09-28T08:49:10.000Z</time>
      </trkpt>
      <trkpt lat="49.85495" lon="4.7877">
        <ele>274</ele>
        <time>2022-09-28T08:49:11.000Z</time>
      </trkpt>
      <trkpt lat="49.85498" lon="4.78768">
        <ele>274</ele>
        <time>2022-09-28T08:49:12.000Z</time>
      </trkpt>
      <trkpt lat="49.855" lon="4.78765">
        <ele>274</ele>
        <time>2022-09-28T08:49:13.000Z</time>
      </trkpt>
      <trkpt lat="49.85504" lon="4.78763">
        <ele>275</ele>
        <time>2022-09-28T08:49:14.000Z</time>
      </trkpt>
      <trkpt lat="49.85506" lon="4.78761">
        <ele>275</ele>
        <time>2022-09-28T08:49:15.000Z</time>
      </trkpt>
      <trkpt lat="49.85509" lon="4.78758">
        <ele>275</ele>
        <time>2022-09-28T08:49:16.000Z</time>
      </trkpt>
      <trkpt lat="49.85512" lon="4.78755">
        <ele>275</ele>
        <time>2022-09-28T08:49:17.000Z</time>
      </trkpt>
      <trkpt lat="49.85514" lon="4.78752">
        <ele>275</ele>
        <time>2022-09-28T08:49:18.000Z</time>
      </trkpt>
      <trkpt lat="49.85516" lon="4.78749">
        <ele>276</ele>
        <time>2022-09-28T08:49:19.000Z</time>
      </trkpt>
      <trkpt lat="49.85518" lon="4.78746">
        <ele>276</ele>
        <time>2022-09-28T08:49:20.000Z</time>
      </trkpt>
      <trkpt lat="49.8552" lon="4.78743">
        <ele>276</ele>
        <time>2022-09-28T08:49:21.000Z</time>
      </trkpt>
      <trkpt lat="49.85523" lon="4.78741">
        <ele>276</ele>
        <time>2022-09-28T08:49:22.000Z</time>
      </trkpt>
      <trkpt lat="49.85524" lon="4.78737">
        <ele>276</ele>
        <time>2022-09-28T08:49:23.000Z</time>
      </trkpt>
      <trkpt lat="49.85526" lon="4.78735">
        <ele>276</ele>
        <time>2022-09-28T08:49:24.000Z</time>
      </trkpt>
      <trkpt lat="49.85528" lon="4.78732">
        <ele>276</ele>
        <time>2022-09-28T08:49:25.000Z</time>
      </trkpt>
      <trkpt lat="49.85529" lon="4.7873">
        <ele>276</ele>
        <time>2022-09-28T08:49:26.000Z</time>
      </trkpt>
      <trkpt lat="49.8553" lon="4.78727">
        <ele>277</ele>
        <time>2022-09-28T08:49:27.000Z</time>
      </trkpt>
      <trkpt lat="49.85531" lon="4.78724">
        <ele>277</ele>
        <time>2022-09-28T08:49:28.000Z</time>
      </trkpt>
      <trkpt lat="49.85533" lon="4.78722">
        <ele>277</ele>
        <time>2022-09-28T08:49:29.000Z</time>
      </trkpt>
      <trkpt lat="49.85534" lon="4.7872">
        <ele>277</ele>
        <time>2022-09-28T08:49:30.000Z</time>
      </trkpt>
      <trkpt lat="49.85535" lon="4.78718">
        <ele>277</ele>
        <time>2022-09-28T08:49:31.000Z</time>
      </trkpt>
      <trkpt lat="49.85535" lon="4.78715">
        <ele>277</ele>
        <time>2022-09-28T08:49:32.000Z</time>
      </trkpt>
      <trkpt lat="49.85536" lon="4.78712">
        <ele>277</ele>
        <time>2022-09-28T08:49:33.000Z</time>
      </trkpt>
      <trkpt lat="49.85537" lon="4.7871">
        <ele>277</ele>
        <time>2022-09-28T08:49:34.000Z</time>
      </trkpt>
      <trkpt lat="49.85539" lon="4.78707">
        <ele>277</ele>
        <time>2022-09-28T08:49:35.000Z</time>
      </trkpt>
      <trkpt lat="49.8554" lon="4.78705">
        <ele>277</ele>
        <time>2022-09-28T08:49:36.000Z</time>
      </trkpt>
      <trkpt lat="49.85541" lon="4.78703">
        <ele>277</ele>
        <time>2022-09-28T08:49:37.000Z</time>
      </trkpt>
      <trkpt lat="49.85542" lon="4.787">
        <ele>277</ele>
        <time>2022-09-28T08:49:38.000Z</time>
      </trkpt>
      <trkpt lat="49.85542" lon="4.78698">
        <ele>278</ele>
        <time>2022-09-28T08:49:39.000Z</time>
      </trkpt>
      <trkpt lat="49.85543" lon="4.78695">
        <ele>278</ele>
        <time>2022-09-28T08:49:40.000Z</time>
      </trkpt>
      <trkpt lat="49.85544" lon="4.78692">
        <ele>278</ele>
        <time>2022-09-28T08:49:41.000Z</time>
      </trkpt>
      <trkpt lat="49.85545" lon="4.78689">
        <ele>278</ele>
        <time>2022-09-28T08:49:42.000Z</time>
      </trkpt>
      <trkpt lat="49.85545" lon="4.78687">
        <ele>278</ele>
        <time>2022-09-28T08:49:43.000Z</time>
      </trkpt>
      <trkpt lat="49.85545" lon="4.78683">
        <ele>278</ele>
        <time>2022-09-28T08:49:44.000Z</time>
      </trkpt>
      <trkpt lat="49.85544" lon="4.7868">
        <ele>278</ele>
        <time>2022-09-28T08:49:45.000Z</time>
      </trkpt>
      <trkpt lat="49.85543" lon="4.78676">
        <ele>278</ele>
        <time>2022-09-28T08:49:46.000Z</time>
      </trkpt>
      <trkpt lat="49.85542" lon="4.7867">
        <ele>278</ele>
        <time>2022-09-28T08:49:47.000Z</time>
      </trkpt>
      <trkpt lat="49.85539" lon="4.78664">
        <ele>278</ele>
        <time>2022-09-28T08:49:48.000Z</time>
      </trkpt>
      <trkpt lat="49.85536" lon="4.7866">
        <ele>278</ele>
        <time>2022-09-28T08:49:49.000Z</time>
      </trkpt>
      <trkpt lat="49.85534" lon="4.78655">
        <ele>278</ele>
        <time>2022-09-28T08:49:50.000Z</time>
      </trkpt>
      <trkpt lat="49.85531" lon="4.78652">
        <ele>278</ele>
        <time>2022-09-28T08:49:51.000Z</time>
      </trkpt>
      <trkpt lat="49.85529" lon="4.78649">
        <ele>279</ele>
        <time>2022-09-28T08:49:52.000Z</time>
      </trkpt>
      <trkpt lat="49.85527" lon="4.78645">
        <ele>279</ele>
        <time>2022-09-28T08:49:53.000Z</time>
      </trkpt>
      <trkpt lat="49.85525" lon="4.78643">
        <ele>279</ele>
        <time>2022-09-28T08:49:54.000Z</time>
      </trkpt>
      <trkpt lat="49.85523" lon="4.7864">
        <ele>279</ele>
        <time>2022-09-28T08:49:55.000Z</time>
      </trkpt>
      <trkpt lat="49.85521" lon="4.78636">
        <ele>279</ele>
        <time>2022-09-28T08:49:56.000Z</time>
      </trkpt>
      <trkpt lat="49.85519" lon="4.78632">
        <ele>279</ele>
        <time>2022-09-28T08:49:57.000Z</time>
      </trkpt>
      <trkpt lat="49.85516" lon="4.78628">
        <ele>279</ele>
        <time>2022-09-28T08:49:58.000Z</time>
      </trkpt>
      <trkpt lat="49.85514" lon="4.78622">
        <ele>279</ele>
        <time>2022-09-28T08:49:59.000Z</time>
      </trkpt>
      <trkpt lat="49.85512" lon="4.78616">
        <ele>280</ele>
        <time>2022-09-28T08:50:00.000Z</time>
      </trkpt>
      <trkpt lat="49.85511" lon="4.78611">
        <ele>280</ele>
        <time>2022-09-28T08:50:01.000Z</time>
      </trkpt>
      <trkpt lat="49.8551" lon="4.78606">
        <ele>280</ele>
        <time>2022-09-28T08:50:02.000Z</time>
      </trkpt>
      <trkpt lat="49.85509" lon="4.78602">
        <ele>280</ele>
        <time>2022-09-28T08:50:03.000Z</time>
      </trkpt>
      <trkpt lat="49.85508" lon="4.78597">
        <ele>280</ele>
        <time>2022-09-28T08:50:04.000Z</time>
      </trkpt>
      <trkpt lat="49.85507" lon="4.78593">
        <ele>280</ele>
        <time>2022-09-28T08:50:05.000Z</time>
      </trkpt>
      <trkpt lat="49.85507" lon="4.78584">
        <ele>281</ele>
        <time>2022-09-28T08:50:06.000Z</time>
      </trkpt>
      <trkpt lat="49.85508" lon="4.78581">
        <ele>281</ele>
        <time>2022-09-28T08:50:07.000Z</time>
      </trkpt>
      <trkpt lat="49.85508" lon="4.78578">
        <ele>281</ele>
        <time>2022-09-28T08:50:08.000Z</time>
      </trkpt>
      <trkpt lat="49.85509" lon="4.78575">
        <ele>281</ele>
        <time>2022-09-28T08:50:09.000Z</time>
      </trkpt>
      <trkpt lat="49.8551" lon="4.78573">
        <ele>281</ele>
        <time>2022-09-28T08:50:10.000Z</time>
      </trkpt>
      <trkpt lat="49.8551" lon="4.78573">
        <ele>281</ele>
        <time>2022-09-28T08:50:11.000Z</time>
      </trkpt>
      <trkpt lat="49.85511" lon="4.7857">
        <ele>281</ele>
        <time>2022-09-28T08:50:12.000Z</time>
      </trkpt>
      <trkpt lat="49.85511" lon="4.78568">
        <ele>281</ele>
        <time>2022-09-28T08:50:13.000Z</time>
      </trkpt>
      <trkpt lat="49.85512" lon="4.78566">
        <ele>282</ele>
        <time>2022-09-28T08:50:14.000Z</time>
      </trkpt>
      <trkpt lat="49.85513" lon="4.78563">
        <ele>282</ele>
        <time>2022-09-28T08:50:15.000Z</time>
      </trkpt>
      <trkpt lat="49.85513" lon="4.78561">
        <ele>282</ele>
        <time>2022-09-28T08:50:16.000Z</time>
      </trkpt>
      <trkpt lat="49.85514" lon="4.7856">
        <ele>282</ele>
        <time>2022-09-28T08:50:17.000Z</time>
      </trkpt>
      <trkpt lat="49.85514" lon="4.78557">
        <ele>282</ele>
        <time>2022-09-28T08:50:18.000Z</time>
      </trkpt>
      <trkpt lat="49.85514" lon="4.78555">
        <ele>282</ele>
        <time>2022-09-28T08:50:19.000Z</time>
      </trkpt>
      <trkpt lat="49.85515" lon="4.78553">
        <ele>283</ele>
        <time>2022-09-28T08:50:20.000Z</time>
      </trkpt>
      <trkpt lat="49.85515" lon="4.78551">
        <ele>283</ele>
        <time>2022-09-28T08:50:21.000Z</time>
      </trkpt>
      <trkpt lat="49.85515" lon="4.78549">
        <ele>283</ele>
        <time>2022-09-28T08:50:22.000Z</time>
      </trkpt>
      <trkpt lat="49.85516" lon="4.78547">
        <ele>283</ele>
        <time>2022-09-28T08:50:23.000Z</time>
      </trkpt>
      <trkpt lat="49.85518" lon="4.78545">
        <ele>283</ele>
        <time>2022-09-28T08:50:24.000Z</time>
      </trkpt>
      <trkpt lat="49.85519" lon="4.78542">
        <ele>284</ele>
        <time>2022-09-28T08:50:25.000Z</time>
      </trkpt>
      <trkpt lat="49.8552" lon="4.7854">
        <ele>284</ele>
        <time>2022-09-28T08:50:26.000Z</time>
      </trkpt>
      <trkpt lat="49.85522" lon="4.78537">
        <ele>284</ele>
        <time>2022-09-28T08:50:27.000Z</time>
      </trkpt>
      <trkpt lat="49.85523" lon="4.78535">
        <ele>284</ele>
        <time>2022-09-28T08:50:28.000Z</time>
      </trkpt>
      <trkpt lat="49.85524" lon="4.78533">
        <ele>284</ele>
        <time>2022-09-28T08:50:29.000Z</time>
      </trkpt>
      <trkpt lat="49.85526" lon="4.78531">
        <ele>285</ele>
        <time>2022-09-28T08:50:30.000Z</time>
      </trkpt>
      <trkpt lat="49.85527" lon="4.78529">
        <ele>285</ele>
        <time>2022-09-28T08:50:31.000Z</time>
      </trkpt>
      <trkpt lat="49.85528" lon="4.78527">
        <ele>285</ele>
        <time>2022-09-28T08:50:32.000Z</time>
      </trkpt>
      <trkpt lat="49.85529" lon="4.78525">
        <ele>285</ele>
        <time>2022-09-28T08:50:33.000Z</time>
      </trkpt>
      <trkpt lat="49.8553" lon="4.78523">
        <ele>286</ele>
        <time>2022-09-28T08:50:34.000Z</time>
      </trkpt>
      <trkpt lat="49.85532" lon="4.7852">
        <ele>286</ele>
        <time>2022-09-28T08:50:35.000Z</time>
      </trkpt>
      <trkpt lat="49.85533" lon="4.78519">
        <ele>286</ele>
        <time>2022-09-28T08:50:36.000Z</time>
      </trkpt>
      <trkpt lat="49.85534" lon="4.78518">
        <ele>287</ele>
        <time>2022-09-28T08:50:37.000Z</time>
      </trkpt>
      <trkpt lat="49.85535" lon="4.78517">
        <ele>287</ele>
        <time>2022-09-28T08:50:38.000Z</time>
      </trkpt>
      <trkpt lat="49.85537" lon="4.78516">
        <ele>287</ele>
        <time>2022-09-28T08:50:39.000Z</time>
      </trkpt>
      <trkpt lat="49.85538" lon="4.78514">
        <ele>287</ele>
        <time>2022-09-28T08:50:40.000Z</time>
      </trkpt>
      <trkpt lat="49.85539" lon="4.78513">
        <ele>288</ele>
        <time>2022-09-28T08:50:41.000Z</time>
      </trkpt>
      <trkpt lat="49.85541" lon="4.78511">
        <ele>288</ele>
        <time>2022-09-28T08:50:42.000Z</time>
      </trkpt>
      <trkpt lat="49.85543" lon="4.78509">
        <ele>288</ele>
        <time>2022-09-28T08:50:43.000Z</time>
      </trkpt>
      <trkpt lat="49.85545" lon="4.78507">
        <ele>288</ele>
        <time>2022-09-28T08:50:44.000Z</time>
      </trkpt>
      <trkpt lat="49.85547" lon="4.78505">
        <ele>289</ele>
        <time>2022-09-28T08:50:45.000Z</time>
      </trkpt>
      <trkpt lat="49.85549" lon="4.78503">
        <ele>289</ele>
        <time>2022-09-28T08:50:46.000Z</time>
      </trkpt>
      <trkpt lat="49.8555" lon="4.78501">
        <ele>289</ele>
        <time>2022-09-28T08:50:47.000Z</time>
      </trkpt>
      <trkpt lat="49.85552" lon="4.785">
        <ele>290</ele>
        <time>2022-09-28T08:50:48.000Z</time>
      </trkpt>
      <trkpt lat="49.85554" lon="4.78498">
        <ele>290</ele>
        <time>2022-09-28T08:50:49.000Z</time>
      </trkpt>
      <trkpt lat="49.85555" lon="4.78496">
        <ele>290</ele>
        <time>2022-09-28T08:50:50.000Z</time>
      </trkpt>
      <trkpt lat="49.85556" lon="4.78493">
        <ele>290</ele>
        <time>2022-09-28T08:50:51.000Z</time>
      </trkpt>
      <trkpt lat="49.85557" lon="4.78491">
        <ele>290</ele>
        <time>2022-09-28T08:50:52.000Z</time>
      </trkpt>
      <trkpt lat="49.85558" lon="4.78489">
        <ele>291</ele>
        <time>2022-09-28T08:50:53.000Z</time>
      </trkpt>
      <trkpt lat="49.85559" lon="4.78487">
        <ele>291</ele>
        <time>2022-09-28T08:50:54.000Z</time>
      </trkpt>
      <trkpt lat="49.8556" lon="4.78485">
        <ele>291</ele>
        <time>2022-09-28T08:50:55.000Z</time>
      </trkpt>
      <trkpt lat="49.85561" lon="4.78483">
        <ele>291</ele>
        <time>2022-09-28T08:50:56.000Z</time>
      </trkpt>
      <trkpt lat="49.85562" lon="4.78481">
        <ele>291</ele>
        <time>2022-09-28T08:50:57.000Z</time>
      </trkpt>
      <trkpt lat="49.85563" lon="4.78479">
        <ele>292</ele>
        <time>2022-09-28T08:50:58.000Z</time>
      </trkpt>
      <trkpt lat="49.85564" lon="4.78476">
        <ele>292</ele>
        <time>2022-09-28T08:50:59.000Z</time>
      </trkpt>
      <trkpt lat="49.85565" lon="4.78474">
        <ele>292</ele>
        <time>2022-09-28T08:51:00.000Z</time>
      </trkpt>
      <trkpt lat="49.85566" lon="4.78471">
        <ele>292</ele>
        <time>2022-09-28T08:51:01.000Z</time>
      </trkpt>
      <trkpt lat="49.85567" lon="4.78469">
        <ele>292</ele>
        <time>2022-09-28T08:51:02.000Z</time>
      </trkpt>
      <trkpt lat="49.85567" lon="4.78467">
        <ele>292</ele>
        <time>2022-09-28T08:51:03.000Z</time>
      </trkpt>
      <trkpt lat="49.85568" lon="4.78465">
        <ele>293</ele>
        <time>2022-09-28T08:51:04.000Z</time>
      </trkpt>
      <trkpt lat="49.85569" lon="4.78463">
        <ele>293</ele>
        <time>2022-09-28T08:51:05.000Z</time>
      </trkpt>
      <trkpt lat="49.85569" lon="4.78461">
        <ele>293</ele>
        <time>2022-09-28T08:51:06.000Z</time>
      </trkpt>
      <trkpt lat="49.8557" lon="4.78459">
        <ele>293</ele>
        <time>2022-09-28T08:51:07.000Z</time>
      </trkpt>
      <trkpt lat="49.8557" lon="4.78457">
        <ele>293</ele>
        <time>2022-09-28T08:51:08.000Z</time>
      </trkpt>
      <trkpt lat="49.85571" lon="4.78454">
        <ele>294</ele>
        <time>2022-09-28T08:51:09.000Z</time>
      </trkpt>
      <trkpt lat="49.85571" lon="4.78452">
        <ele>294</ele>
        <time>2022-09-28T08:51:10.000Z</time>
      </trkpt>
      <trkpt lat="49.85572" lon="4.78449">
        <ele>294</ele>
        <time>2022-09-28T08:51:11.000Z</time>
      </trkpt>
      <trkpt lat="49.85574" lon="4.78447">
        <ele>294</ele>
        <time>2022-09-28T08:51:12.000Z</time>
      </trkpt>
      <trkpt lat="49.85574" lon="4.78444">
        <ele>295</ele>
        <time>2022-09-28T08:51:13.000Z</time>
      </trkpt>
      <trkpt lat="49.85575" lon="4.78441">
        <ele>295</ele>
        <time>2022-09-28T08:51:14.000Z</time>
      </trkpt>
      <trkpt lat="49.85576" lon="4.78438">
        <ele>295</ele>
        <time>2022-09-28T08:51:15.000Z</time>
      </trkpt>
      <trkpt lat="49.85576" lon="4.78435">
        <ele>295</ele>
        <time>2022-09-28T08:51:16.000Z</time>
      </trkpt>
      <trkpt lat="49.85577" lon="4.78431">
        <ele>295</ele>
        <time>2022-09-28T08:51:17.000Z</time>
      </trkpt>
      <trkpt lat="49.85577" lon="4.78428">
        <ele>295</ele>
        <time>2022-09-28T08:51:18.000Z</time>
      </trkpt>
      <trkpt lat="49.85578" lon="4.78425">
        <ele>295</ele>
        <time>2022-09-28T08:51:19.000Z</time>
      </trkpt>
      <trkpt lat="49.85579" lon="4.78422">
        <ele>295</ele>
        <time>2022-09-28T08:51:20.000Z</time>
      </trkpt>
      <trkpt lat="49.8558" lon="4.78419">
        <ele>295</ele>
        <time>2022-09-28T08:51:21.000Z</time>
      </trkpt>
      <trkpt lat="49.8558" lon="4.78417">
        <ele>295</ele>
        <time>2022-09-28T08:51:22.000Z</time>
      </trkpt>
      <trkpt lat="49.8558" lon="4.78415">
        <ele>296</ele>
        <time>2022-09-28T08:51:23.000Z</time>
      </trkpt>
      <trkpt lat="49.85581" lon="4.78414">
        <ele>296</ele>
        <time>2022-09-28T08:51:24.000Z</time>
      </trkpt>
      <trkpt lat="49.85581" lon="4.78412">
        <ele>296</ele>
        <time>2022-09-28T08:51:25.000Z</time>
      </trkpt>
      <trkpt lat="49.85582" lon="4.78409">
        <ele>296</ele>
        <time>2022-09-28T08:51:26.000Z</time>
      </trkpt>
      <trkpt lat="49.85583" lon="4.78407">
        <ele>296</ele>
        <time>2022-09-28T08:51:27.000Z</time>
      </trkpt>
      <trkpt lat="49.85584" lon="4.78405">
        <ele>297</ele>
        <time>2022-09-28T08:51:28.000Z</time>
      </trkpt>
      <trkpt lat="49.85585" lon="4.78402">
        <ele>297</ele>
        <time>2022-09-28T08:51:29.000Z</time>
      </trkpt>
      <trkpt lat="49.85586" lon="4.784">
        <ele>297</ele>
        <time>2022-09-28T08:51:30.000Z</time>
      </trkpt>
      <trkpt lat="49.85587" lon="4.78398">
        <ele>297</ele>
        <time>2022-09-28T08:51:31.000Z</time>
      </trkpt>
      <trkpt lat="49.85589" lon="4.78396">
        <ele>298</ele>
        <time>2022-09-28T08:51:32.000Z</time>
      </trkpt>
      <trkpt lat="49.8559" lon="4.78393">
        <ele>298</ele>
        <time>2022-09-28T08:51:33.000Z</time>
      </trkpt>
      <trkpt lat="49.85591" lon="4.78391">
        <ele>298</ele>
        <time>2022-09-28T08:51:34.000Z</time>
      </trkpt>
      <trkpt lat="49.85593" lon="4.78388">
        <ele>299</ele>
        <time>2022-09-28T08:51:35.000Z</time>
      </trkpt>
      <trkpt lat="49.85594" lon="4.78385">
        <ele>299</ele>
        <time>2022-09-28T08:51:36.000Z</time>
      </trkpt>
      <trkpt lat="49.85595" lon="4.78382">
        <ele>299</ele>
        <time>2022-09-28T08:51:37.000Z</time>
      </trkpt>
      <trkpt lat="49.85597" lon="4.78379">
        <ele>300</ele>
        <time>2022-09-28T08:51:38.000Z</time>
      </trkpt>
      <trkpt lat="49.85598" lon="4.78377">
        <ele>300</ele>
        <time>2022-09-28T08:51:39.000Z</time>
      </trkpt>
      <trkpt lat="49.856" lon="4.78374">
        <ele>300</ele>
        <time>2022-09-28T08:51:40.000Z</time>
      </trkpt>
      <trkpt lat="49.85601" lon="4.78371">
        <ele>300</ele>
        <time>2022-09-28T08:51:41.000Z</time>
      </trkpt>
      <trkpt lat="49.85603" lon="4.78368">
        <ele>300</ele>
        <time>2022-09-28T08:51:42.000Z</time>
      </trkpt>
      <trkpt lat="49.85604" lon="4.78365">
        <ele>301</ele>
        <time>2022-09-28T08:51:43.000Z</time>
      </trkpt>
      <trkpt lat="49.85605" lon="4.78362">
        <ele>301</ele>
        <time>2022-09-28T08:51:44.000Z</time>
      </trkpt>
      <trkpt lat="49.85604" lon="4.78359">
        <ele>301</ele>
        <time>2022-09-28T08:51:45.000Z</time>
      </trkpt>
      <trkpt lat="49.85604" lon="4.78355">
        <ele>301</ele>
        <time>2022-09-28T08:51:46.000Z</time>
      </trkpt>
      <trkpt lat="49.85604" lon="4.78353">
        <ele>302</ele>
        <time>2022-09-28T08:51:47.000Z</time>
      </trkpt>
      <trkpt lat="49.85604" lon="4.78352">
        <ele>302</ele>
        <time>2022-09-28T08:51:48.000Z</time>
      </trkpt>
      <trkpt lat="49.85604" lon="4.78352">
        <ele>302</ele>
        <time>2022-09-28T08:51:49.000Z</time>
      </trkpt>
      <trkpt lat="49.85604" lon="4.78352">
        <ele>302</ele>
        <time>2022-09-28T08:51:50.000Z</time>
      </trkpt>
      <trkpt lat="49.85604" lon="4.78352">
        <ele>302</ele>
        <time>2022-09-28T08:51:51.000Z</time>
      </trkpt>
      <trkpt lat="49.85604" lon="4.78351">
        <ele>302</ele>
        <time>2022-09-28T08:51:52.000Z</time>
      </trkpt>
      <trkpt lat="49.85603" lon="4.7835">
        <ele>302</ele>
        <time>2022-09-28T08:51:53.000Z</time>
      </trkpt>
      <trkpt lat="49.85603" lon="4.7835">
        <ele>303</ele>
        <time>2022-09-28T08:51:54.000Z</time>
      </trkpt>
      <trkpt lat="49.85604" lon="4.7835">
        <ele>303</ele>
        <time>2022-09-28T08:51:55.000Z</time>
      </trkpt>
      <trkpt lat="49.85604" lon="4.78349">
        <ele>303</ele>
        <time>2022-09-28T08:51:56.000Z</time>
      </trkpt>
      <trkpt lat="49.85603" lon="4.78349">
        <ele>303</ele>
        <time>2022-09-28T08:51:57.000Z</time>
      </trkpt>
      <trkpt lat="49.85603" lon="4.78347">
        <ele>303</ele>
        <time>2022-09-28T08:51:58.000Z</time>
      </trkpt>
      <trkpt lat="49.85603" lon="4.78345">
        <ele>303</ele>
        <time>2022-09-28T08:51:59.000Z</time>
      </trkpt>
      <trkpt lat="49.85602" lon="4.78344">
        <ele>303</ele>
        <time>2022-09-28T08:52:00.000Z</time>
      </trkpt>
      <trkpt lat="49.85602" lon="4.78343">
        <ele>304</ele>
        <time>2022-09-28T08:52:01.000Z</time>
      </trkpt>
      <trkpt lat="49.85602" lon="4.78343">
        <ele>304</ele>
        <time>2022-09-28T08:52:02.000Z</time>
      </trkpt>
      <trkpt lat="49.85602" lon="4.78342">
        <ele>304</ele>
        <time>2022-09-28T08:52:03.000Z</time>
      </trkpt>
      <trkpt lat="49.85601" lon="4.78341">
        <ele>304</ele>
        <time>2022-09-28T08:52:04.000Z</time>
      </trkpt>
      <trkpt lat="49.85601" lon="4.78339">
        <ele>304</ele>
        <time>2022-09-28T08:52:05.000Z</time>
      </trkpt>
      <trkpt lat="49.856" lon="4.78337">
        <ele>304</ele>
        <time>2022-09-28T08:52:06.000Z</time>
      </trkpt>
      <trkpt lat="49.85599" lon="4.78334">
        <ele>305</ele>
        <time>2022-09-28T08:52:07.000Z</time>
      </trkpt>
      <trkpt lat="49.85598" lon="4.78332">
        <ele>305</ele>
        <time>2022-09-28T08:52:08.000Z</time>
      </trkpt>
      <trkpt lat="49.85596" lon="4.7833">
        <ele>305</ele>
        <time>2022-09-28T08:52:09.000Z</time>
      </trkpt>
      <trkpt lat="49.85595" lon="4.78327">
        <ele>305</ele>
        <time>2022-09-28T08:52:10.000Z</time>
      </trkpt>
      <trkpt lat="49.85594" lon="4.78325">
        <ele>305</ele>
        <time>2022-09-28T08:52:11.000Z</time>
      </trkpt>
      <trkpt lat="49.85593" lon="4.78323">
        <ele>305</ele>
        <time>2022-09-28T08:52:12.000Z</time>
      </trkpt>
      <trkpt lat="49.85591" lon="4.78321">
        <ele>305</ele>
        <time>2022-09-28T08:52:13.000Z</time>
      </trkpt>
      <trkpt lat="49.85589" lon="4.7832">
        <ele>305</ele>
        <time>2022-09-28T08:52:14.000Z</time>
      </trkpt>
      <trkpt lat="49.85589" lon="4.78318">
        <ele>305</ele>
        <time>2022-09-28T08:52:15.000Z</time>
      </trkpt>
      <trkpt lat="49.85587" lon="4.78316">
        <ele>306</ele>
        <time>2022-09-28T08:52:16.000Z</time>
      </trkpt>
      <trkpt lat="49.85586" lon="4.78314">
        <ele>306</ele>
        <time>2022-09-28T08:52:17.000Z</time>
      </trkpt>
      <trkpt lat="49.85585" lon="4.78313">
        <ele>306</ele>
        <time>2022-09-28T08:52:18.000Z</time>
      </trkpt>
      <trkpt lat="49.85584" lon="4.78311">
        <ele>306</ele>
        <time>2022-09-28T08:52:19.000Z</time>
      </trkpt>
      <trkpt lat="49.85582" lon="4.78308">
        <ele>306</ele>
        <time>2022-09-28T08:52:20.000Z</time>
      </trkpt>
      <trkpt lat="49.85581" lon="4.78306">
        <ele>306</ele>
        <time>2022-09-28T08:52:21.000Z</time>
      </trkpt>
      <trkpt lat="49.8558" lon="4.78305">
        <ele>307</ele>
        <time>2022-09-28T08:52:22.000Z</time>
      </trkpt>
      <trkpt lat="49.85578" lon="4.78302">
        <ele>307</ele>
        <time>2022-09-28T08:52:23.000Z</time>
      </trkpt>
      <trkpt lat="49.85577" lon="4.783">
        <ele>307</ele>
        <time>2022-09-28T08:52:24.000Z</time>
      </trkpt>
      <trkpt lat="49.85576" lon="4.78298">
        <ele>307</ele>
        <time>2022-09-28T08:52:25.000Z</time>
      </trkpt>
      <trkpt lat="49.85575" lon="4.78296">
        <ele>307</ele>
        <time>2022-09-28T08:52:26.000Z</time>
      </trkpt>
      <trkpt lat="49.85573" lon="4.78294">
        <ele>308</ele>
        <time>2022-09-28T08:52:27.000Z</time>
      </trkpt>
      <trkpt lat="49.85571" lon="4.78291">
        <ele>308</ele>
        <time>2022-09-28T08:52:28.000Z</time>
      </trkpt>
      <trkpt lat="49.8557" lon="4.78288">
        <ele>308</ele>
        <time>2022-09-28T08:52:29.000Z</time>
      </trkpt>
      <trkpt lat="49.85568" lon="4.78285">
        <ele>308</ele>
        <time>2022-09-28T08:52:30.000Z</time>
      </trkpt>
      <trkpt lat="49.85566" lon="4.78283">
        <ele>309</ele>
        <time>2022-09-28T08:52:31.000Z</time>
      </trkpt>
      <trkpt lat="49.85564" lon="4.7828">
        <ele>309</ele>
        <time>2022-09-28T08:52:32.000Z</time>
      </trkpt>
      <trkpt lat="49.85562" lon="4.78277">
        <ele>309</ele>
        <time>2022-09-28T08:52:33.000Z</time>
      </trkpt>
      <trkpt lat="49.8556" lon="4.78274">
        <ele>310</ele>
        <time>2022-09-28T08:52:34.000Z</time>
      </trkpt>
      <trkpt lat="49.85559" lon="4.78272">
        <ele>310</ele>
        <time>2022-09-28T08:52:35.000Z</time>
      </trkpt>
      <trkpt lat="49.85558" lon="4.7827">
        <ele>310</ele>
        <time>2022-09-28T08:52:36.000Z</time>
      </trkpt>
      <trkpt lat="49.85556" lon="4.78269">
        <ele>310</ele>
        <time>2022-09-28T08:52:37.000Z</time>
      </trkpt>
      <trkpt lat="49.85554" lon="4.78267">
        <ele>310</ele>
        <time>2022-09-28T08:52:38.000Z</time>
      </trkpt>
      <trkpt lat="49.85552" lon="4.78266">
        <ele>311</ele>
        <time>2022-09-28T08:52:39.000Z</time>
      </trkpt>
      <trkpt lat="49.8555" lon="4.78264">
        <ele>311</ele>
        <time>2022-09-28T08:52:40.000Z</time>
      </trkpt>
      <trkpt lat="49.85548" lon="4.78261">
        <ele>311</ele>
        <time>2022-09-28T08:52:41.000Z</time>
      </trkpt>
      <trkpt lat="49.85546" lon="4.78258">
        <ele>311</ele>
        <time>2022-09-28T08:52:42.000Z</time>
      </trkpt>
      <trkpt lat="49.85543" lon="4.78255">
        <ele>311</ele>
        <time>2022-09-28T08:52:43.000Z</time>
      </trkpt>
      <trkpt lat="49.85541" lon="4.78252">
        <ele>312</ele>
        <time>2022-09-28T08:52:44.000Z</time>
      </trkpt>
      <trkpt lat="49.85539" lon="4.78249">
        <ele>312</ele>
        <time>2022-09-28T08:52:45.000Z</time>
      </trkpt>
      <trkpt lat="49.85536" lon="4.78246">
        <ele>312</ele>
        <time>2022-09-28T08:52:46.000Z</time>
      </trkpt>
      <trkpt lat="49.85533" lon="4.78243">
        <ele>312</ele>
        <time>2022-09-28T08:52:47.000Z</time>
      </trkpt>
      <trkpt lat="49.85529" lon="4.78239">
        <ele>312</ele>
        <time>2022-09-28T08:52:48.000Z</time>
      </trkpt>
      <trkpt lat="49.85527" lon="4.78236">
        <ele>312</ele>
        <time>2022-09-28T08:52:49.000Z</time>
      </trkpt>
      <trkpt lat="49.85525" lon="4.78233">
        <ele>312</ele>
        <time>2022-09-28T08:52:50.000Z</time>
      </trkpt>
      <trkpt lat="49.85524" lon="4.7823">
        <ele>312</ele>
        <time>2022-09-28T08:52:51.000Z</time>
      </trkpt>
      <trkpt lat="49.85523" lon="4.78225">
        <ele>312</ele>
        <time>2022-09-28T08:52:52.000Z</time>
      </trkpt>
      <trkpt lat="49.85522" lon="4.78221">
        <ele>312</ele>
        <time>2022-09-28T08:52:53.000Z</time>
      </trkpt>
      <trkpt lat="49.85521" lon="4.78216">
        <ele>312</ele>
        <time>2022-09-28T08:52:54.000Z</time>
      </trkpt>
      <trkpt lat="49.85519" lon="4.78212">
        <ele>312</ele>
        <time>2022-09-28T08:52:55.000Z</time>
      </trkpt>
      <trkpt lat="49.85516" lon="4.7821">
        <ele>312</ele>
        <time>2022-09-28T08:52:56.000Z</time>
      </trkpt>
      <trkpt lat="49.85513" lon="4.78209">
        <ele>312</ele>
        <time>2022-09-28T08:52:57.000Z</time>
      </trkpt>
      <trkpt lat="49.8551" lon="4.7821">
        <ele>312</ele>
        <time>2022-09-28T08:52:58.000Z</time>
      </trkpt>
      <trkpt lat="49.85507" lon="4.78211">
        <ele>312</ele>
        <time>2022-09-28T08:52:59.000Z</time>
      </trkpt>
      <trkpt lat="49.85505" lon="4.78211">
        <ele>312</ele>
        <time>2022-09-28T08:53:00.000Z</time>
      </trkpt>
      <trkpt lat="49.85502" lon="4.7821">
        <ele>312</ele>
        <time>2022-09-28T08:53:01.000Z</time>
      </trkpt>
      <trkpt lat="49.855" lon="4.78209">
        <ele>312</ele>
        <time>2022-09-28T08:53:02.000Z</time>
      </trkpt>
      <trkpt lat="49.85498" lon="4.78208">
        <ele>312</ele>
        <time>2022-09-28T08:53:03.000Z</time>
      </trkpt>
      <trkpt lat="49.85497" lon="4.78207">
        <ele>312</ele>
        <time>2022-09-28T08:53:04.000Z</time>
      </trkpt>
      <trkpt lat="49.85495" lon="4.78204">
        <ele>312</ele>
        <time>2022-09-28T08:53:05.000Z</time>
      </trkpt>
      <trkpt lat="49.85495" lon="4.78201">
        <ele>312</ele>
        <time>2022-09-28T08:53:06.000Z</time>
      </trkpt>
      <trkpt lat="49.85493" lon="4.78199">
        <ele>312</ele>
        <time>2022-09-28T08:53:07.000Z</time>
      </trkpt>
      <trkpt lat="49.85492" lon="4.78196">
        <ele>312</ele>
        <time>2022-09-28T08:53:08.000Z</time>
      </trkpt>
      <trkpt lat="49.8549" lon="4.78193">
        <ele>312</ele>
        <time>2022-09-28T08:53:09.000Z</time>
      </trkpt>
      <trkpt lat="49.85487" lon="4.7819">
        <ele>313</ele>
        <time>2022-09-28T08:53:10.000Z</time>
      </trkpt>
      <trkpt lat="49.85484" lon="4.78186">
        <ele>313</ele>
        <time>2022-09-28T08:53:11.000Z</time>
      </trkpt>
      <trkpt lat="49.85481" lon="4.78184">
        <ele>313</ele>
        <time>2022-09-28T08:53:12.000Z</time>
      </trkpt>
      <trkpt lat="49.85479" lon="4.78184">
        <ele>313</ele>
        <time>2022-09-28T08:53:13.000Z</time>
      </trkpt>
      <trkpt lat="49.85477" lon="4.78185">
        <ele>313</ele>
        <time>2022-09-28T08:53:14.000Z</time>
      </trkpt>
      <trkpt lat="49.85476" lon="4.78187">
        <ele>313</ele>
        <time>2022-09-28T08:53:15.000Z</time>
      </trkpt>
      <trkpt lat="49.85474" lon="4.78189">
        <ele>313</ele>
        <time>2022-09-28T08:53:16.000Z</time>
      </trkpt>
      <trkpt lat="49.85474" lon="4.7819">
        <ele>313</ele>
        <time>2022-09-28T08:53:17.000Z</time>
      </trkpt>
      <trkpt lat="49.85473" lon="4.7819">
        <ele>313</ele>
        <time>2022-09-28T08:53:18.000Z</time>
      </trkpt>
      <trkpt lat="49.85473" lon="4.7819">
        <ele>313</ele>
        <time>2022-09-28T08:53:19.000Z</time>
      </trkpt>
      <trkpt lat="49.85473" lon="4.7819">
        <ele>313</ele>
        <time>2022-09-28T08:53:20.000Z</time>
      </trkpt>
      <trkpt lat="49.85473" lon="4.7819">
        <ele>313</ele>
        <time>2022-09-28T08:53:21.000Z</time>
      </trkpt>
      <trkpt lat="49.85472" lon="4.7819">
        <ele>313</ele>
        <time>2022-09-28T08:53:22.000Z</time>
      </trkpt>
      <trkpt lat="49.85472" lon="4.7819">
        <ele>313</ele>
        <time>2022-09-28T08:53:23.000Z</time>
      </trkpt>
      <trkpt lat="49.85472" lon="4.7819">
        <ele>313</ele>
        <time>2022-09-28T08:53:24.000Z</time>
      </trkpt>
      <trkpt lat="49.85471" lon="4.7819">
        <ele>313</ele>
        <time>2022-09-28T08:53:25.000Z</time>
      </trkpt>
      <trkpt lat="49.85471" lon="4.7819">
        <ele>313</ele>
        <time>2022-09-28T08:53:26.000Z</time>
      </trkpt>
      <trkpt lat="49.85471" lon="4.7819">
        <ele>313</ele>
        <time>2022-09-28T08:53:27.000Z</time>
      </trkpt>
      <trkpt lat="49.8547" lon="4.7819">
        <ele>312</ele>
        <time>2022-09-28T08:53:28.000Z</time>
      </trkpt>
      <trkpt lat="49.8547" lon="4.7819">
        <ele>312</ele>
        <time>2022-09-28T08:53:29.000Z</time>
      </trkpt>
      <trkpt lat="49.85469" lon="4.78191">
        <ele>312</ele>
        <time>2022-09-28T08:53:30.000Z</time>
      </trkpt>
      <trkpt lat="49.85469" lon="4.7819">
        <ele>312</ele>
        <time>2022-09-28T08:53:31.000Z</time>
      </trkpt>
      <trkpt lat="49.85469" lon="4.7819">
        <ele>312</ele>
        <time>2022-09-28T08:53:32.000Z</time>
      </trkpt>
      <trkpt lat="49.85469" lon="4.7819">
        <ele>312</ele>
        <time>2022-09-28T08:53:33.000Z</time>
      </trkpt>
      <trkpt lat="49.85469" lon="4.7819">
        <ele>312</ele>
        <time>2022-09-28T08:53:34.000Z</time>
      </trkpt>
      <trkpt lat="49.85468" lon="4.7819">
        <ele>312</ele>
        <time>2022-09-28T08:53:35.000Z</time>
      </trkpt>
      <trkpt lat="49.85468" lon="4.7819">
        <ele>312</ele>
        <time>2022-09-28T08:53:36.000Z</time>
      </trkpt>
      <trkpt lat="49.85468" lon="4.7819">
        <ele>312</ele>
        <time>2022-09-28T08:53:37.000Z</time>
      </trkpt>
      <trkpt lat="49.85468" lon="4.7819">
        <ele>312</ele>
        <time>2022-09-28T08:53:38.000Z</time>
      </trkpt>
      <trkpt lat="49.85468" lon="4.7819">
        <ele>312</ele>
        <time>2022-09-28T08:53:39.000Z</time>
      </trkpt>
      <trkpt lat="49.85467" lon="4.7819">
        <ele>312</ele>
        <time>2022-09-28T08:53:40.000Z</time>
      </trkpt>
      <trkpt lat="49.85467" lon="4.7819">
        <ele>312</ele>
        <time>2022-09-28T08:53:41.000Z</time>
      </trkpt>
      <trkpt lat="49.85467" lon="4.7819">
        <ele>312</ele>
        <time>2022-09-28T08:53:42.000Z</time>
      </trkpt>
      <trkpt lat="49.85467" lon="4.7819">
        <ele>312</ele>
        <time>2022-09-28T08:53:43.000Z</time>
      </trkpt>
      <trkpt lat="49.85467" lon="4.7819">
        <ele>312</ele>
        <time>2022-09-28T08:53:44.000Z</time>
      </trkpt>
      <trkpt lat="49.85467" lon="4.7819">
        <ele>312</ele>
        <time>2022-09-28T08:53:45.000Z</time>
      </trkpt>
      <trkpt lat="49.85467" lon="4.7819">
        <ele>312</ele>
        <time>2022-09-28T08:53:46.000Z</time>
      </trkpt>
      <trkpt lat="49.85466" lon="4.7819">
        <ele>312</ele>
        <time>2022-09-28T08:53:47.000Z</time>
      </trkpt>
      <trkpt lat="49.85466" lon="4.7819">
        <ele>312</ele>
        <time>2022-09-28T08:53:48.000Z</time>
      </trkpt>
      <trkpt lat="49.85466" lon="4.7819">
        <ele>312</ele>
        <time>2022-09-28T08:53:49.000Z</time>
      </trkpt>
      <trkpt lat="49.85466" lon="4.7819">
        <ele>312</ele>
        <time>2022-09-28T08:53:50.000Z</time>
      </trkpt>
      <trkpt lat="49.85466" lon="4.7819">
        <ele>312</ele>
        <time>2022-09-28T08:53:51.000Z</time>
      </trkpt>
      <trkpt lat="49.85466" lon="4.7819">
        <ele>312</ele>
        <time>2022-09-28T08:53:52.000Z</time>
      </trkpt>
      <trkpt lat="49.85466" lon="4.7819">
        <ele>312</ele>
        <time>2022-09-28T08:53:53.000Z</time>
      </trkpt>
      <trkpt lat="49.85466" lon="4.7819">
        <ele>312</ele>
        <time>2022-09-28T08:53:54.000Z</time>
      </trkpt>
      <trkpt lat="49.85466" lon="4.7819">
        <ele>312</ele>
        <time>2022-09-28T08:53:55.000Z</time>
      </trkpt>
      <trkpt lat="49.85465" lon="4.7819">
        <ele>312</ele>
        <time>2022-09-28T08:53:56.000Z</time>
      </trkpt>
      <trkpt lat="49.85465" lon="4.7819">
        <ele>312</ele>
        <time>2022-09-28T08:53:57.000Z</time>
      </trkpt>
      <trkpt lat="49.85465" lon="4.7819">
        <ele>312</ele>
        <time>2022-09-28T08:53:58.000Z</time>
      </trkpt>
      <trkpt lat="49.85465" lon="4.7819">
        <ele>312</ele>
        <time>2022-09-28T08:53:59.000Z</time>
      </trkpt>
      <trkpt lat="49.85465" lon="4.7819">
        <ele>312</ele>
        <time>2022-09-28T08:54:00.000Z</time>
      </trkpt>
      <trkpt lat="49.85465" lon="4.7819">
        <ele>312</ele>
        <time>2022-09-28T08:54:01.000Z</time>
      </trkpt>
      <trkpt lat="49.85465" lon="4.78191">
        <ele>312</ele>
        <time>2022-09-28T08:54:02.000Z</time>
      </trkpt>
      <trkpt lat="49.85465" lon="4.78191">
        <ele>312</ele>
        <time>2022-09-28T08:54:03.000Z</time>
      </trkpt>
      <trkpt lat="49.85465" lon="4.78191">
        <ele>312</ele>
        <time>2022-09-28T08:54:04.000Z</time>
      </trkpt>
      <trkpt lat="49.85465" lon="4.78191">
        <ele>312</ele>
        <time>2022-09-28T08:54:05.000Z</time>
      </trkpt>
      <trkpt lat="49.85465" lon="4.78191">
        <ele>312</ele>
        <time>2022-09-28T08:54:06.000Z</time>
      </trkpt>
      <trkpt lat="49.85465" lon="4.78191">
        <ele>312</ele>
        <time>2022-09-28T08:54:07.000Z</time>
      </trkpt>
      <trkpt lat="49.85465" lon="4.78191">
        <ele>312</ele>
        <time>2022-09-28T08:54:08.000Z</time>
      </trkpt>
      <trkpt lat="49.85465" lon="4.78191">
        <ele>312</ele>
        <time>2022-09-28T08:54:09.000Z</time>
      </trkpt>
      <trkpt lat="49.85465" lon="4.78191">
        <ele>312</ele>
        <time>2022-09-28T08:54:10.000Z</time>
      </trkpt>
      <trkpt lat="49.85465" lon="4.78191">
        <ele>312</ele>
        <time>2022-09-28T08:54:11.000Z</time>
      </trkpt>
      <trkpt lat="49.85465" lon="4.78191">
        <ele>312</ele>
        <time>2022-09-28T08:54:12.000Z</time>
      </trkpt>
      <trkpt lat="49.85465" lon="4.78191">
        <ele>312</ele>
        <time>2022-09-28T08:54:13.000Z</time>
      </trkpt>
      <trkpt lat="49.85465" lon="4.78191">
        <ele>312</ele>
        <time>2022-09-28T08:54:14.000Z</time>
      </trkpt>
      <trkpt lat="49.85465" lon="4.78191">
        <ele>312</ele>
        <time>2022-09-28T08:54:15.000Z</time>
      </trkpt>
      <trkpt lat="49.85465" lon="4.78191">
        <ele>312</ele>
        <time>2022-09-28T08:54:16.000Z</time>
      </trkpt>
      <trkpt lat="49.85465" lon="4.78191">
        <ele>312</ele>
        <time>2022-09-28T08:54:17.000Z</time>
      </trkpt>
      <trkpt lat="49.85465" lon="4.78191">
        <ele>312</ele>
        <time>2022-09-28T08:54:18.000Z</time>
      </trkpt>
      <trkpt lat="49.85465" lon="4.78191">
        <ele>312</ele>
        <time>2022-09-28T08:54:19.000Z</time>
      </trkpt>
      <trkpt lat="49.85465" lon="4.78191">
        <ele>312</ele>
        <time>2022-09-28T08:54:20.000Z</time>
      </trkpt>
      <trkpt lat="49.85465" lon="4.78191">
        <ele>312</ele>
        <time>2022-09-28T08:54:21.000Z</time>
      </trkpt>
      <trkpt lat="49.85465" lon="4.78191">
        <ele>312</ele>
        <time>2022-09-28T08:54:22.000Z</time>
      </trkpt>
      <trkpt lat="49.85465" lon="4.78191">
        <ele>312</ele>
        <time>2022-09-28T08:54:23.000Z</time>
      </trkpt>
      <trkpt lat="49.85465" lon="4.78191">
        <ele>312</ele>
        <time>2022-09-28T08:54:24.000Z</time>
      </trkpt>
      <trkpt lat="49.85465" lon="4.78191">
        <ele>312</ele>
        <time>2022-09-28T08:54:25.000Z</time>
      </trkpt>
      <trkpt lat="49.85465" lon="4.78191">
        <ele>312</ele>
        <time>2022-09-28T08:54:26.000Z</time>
      </trkpt>
      <trkpt lat="49.85465" lon="4.78191">
        <ele>312</ele>
        <time>2022-09-28T08:54:27.000Z</time>
      </trkpt>
      <trkpt lat="49.85465" lon="4.78191">
        <ele>312</ele>
        <time>2022-09-28T08:54:28.000Z</time>
      </trkpt>
      <trkpt lat="49.85465" lon="4.78191">
        <ele>312</ele>
        <time>2022-09-28T08:54:29.000Z</time>
      </trkpt>
      <trkpt lat="49.85465" lon="4.78191">
        <ele>312</ele>
        <time>2022-09-28T08:54:30.000Z</time>
      </trkpt>
      <trkpt lat="49.85465" lon="4.78191">
        <ele>312</ele>
        <time>2022-09-28T08:54:31.000Z</time>
      </trkpt>
      <trkpt lat="49.85465" lon="4.78191">
        <ele>312</ele>
        <time>2022-09-28T08:54:32.000Z</time>
      </trkpt>
      <trkpt lat="49.85465" lon="4.78191">
        <ele>312</ele>
        <time>2022-09-28T08:54:33.000Z</time>
      </trkpt>
      <trkpt lat="49.85465" lon="4.78191">
        <ele>312</ele>
        <time>2022-09-28T08:54:34.000Z</time>
      </trkpt>
      <trkpt lat="49.85465" lon="4.78191">
        <ele>312</ele>
        <time>2022-09-28T08:54:35.000Z</time>
      </trkpt>
      <trkpt lat="49.85465" lon="4.78191">
        <ele>312</ele>
        <time>2022-09-28T08:54:36.000Z</time>
      </trkpt>
      <trkpt lat="49.85465" lon="4.78191">
        <ele>312</ele>
        <time>2022-09-28T08:54:37.000Z</time>
      </trkpt>
      <trkpt lat="49.85465" lon="4.78191">
        <ele>312</ele>
        <time>2022-09-28T08:54:38.000Z</time>
      </trkpt>
      <trkpt lat="49.85465" lon="4.78191">
        <ele>312</ele>
        <time>2022-09-28T08:54:39.000Z</time>
      </trkpt>
      <trkpt lat="49.85465" lon="4.78191">
        <ele>312</ele>
        <time>2022-09-28T08:54:40.000Z</time>
      </trkpt>
      <trkpt lat="49.85465" lon="4.78191">
        <ele>312</ele>
        <time>2022-09-28T08:54:41.000Z</time>
      </trkpt>
      <trkpt lat="49.85465" lon="4.78191">
        <ele>312</ele>
        <time>2022-09-28T08:54:42.000Z</time>
      </trkpt>
      <trkpt lat="49.85465" lon="4.78192">
        <ele>312</ele>
        <time>2022-09-28T08:54:43.000Z</time>
      </trkpt>
      <trkpt lat="49.85465" lon="4.78192">
        <ele>312</ele>
        <time>2022-09-28T08:54:44.000Z</time>
      </trkpt>
      <trkpt lat="49.85465" lon="4.78192">
        <ele>312</ele>
        <time>2022-09-28T08:54:45.000Z</time>
      </trkpt>
      <trkpt lat="49.85464" lon="4.78191">
        <ele>312</ele>
        <time>2022-09-28T08:54:46.000Z</time>
      </trkpt>
      <trkpt lat="49.85464" lon="4.78192">
        <ele>312</ele>
        <time>2022-09-28T08:54:47.000Z</time>
      </trkpt>
      <trkpt lat="49.85464" lon="4.78192">
        <ele>312</ele>
        <time>2022-09-28T08:54:48.000Z</time>
      </trkpt>
      <trkpt lat="49.85464" lon="4.78192">
        <ele>312</ele>
        <time>2022-09-28T08:54:49.000Z</time>
      </trkpt>
      <trkpt lat="49.85464" lon="4.78192">
        <ele>312</ele>
        <time>2022-09-28T08:54:50.000Z</time>
      </trkpt>
      <trkpt lat="49.85464" lon="4.78192">
        <ele>312</ele>
        <time>2022-09-28T08:54:51.000Z</time>
      </trkpt>
      <trkpt lat="49.85464" lon="4.78192">
        <ele>312</ele>
        <time>2022-09-28T08:54:52.000Z</time>
      </trkpt>
      <trkpt lat="49.85464" lon="4.78192">
        <ele>312</ele>
        <time>2022-09-28T08:54:53.000Z</time>
      </trkpt>
      <trkpt lat="49.85464" lon="4.78192">
        <ele>312</ele>
        <time>2022-09-28T08:54:54.000Z</time>
      </trkpt>
      <trkpt lat="49.85464" lon="4.78192">
        <ele>312</ele>
        <time>2022-09-28T08:54:55.000Z</time>
      </trkpt>
      <trkpt lat="49.85464" lon="4.78192">
        <ele>312</ele>
        <time>2022-09-28T08:54:56.000Z</time>
      </trkpt>
      <trkpt lat="49.85464" lon="4.78192">
        <ele>312</ele>
        <time>2022-09-28T08:54:57.000Z</time>
      </trkpt>
      <trkpt lat="49.85464" lon="4.78191">
        <ele>312</ele>
        <time>2022-09-28T08:54:58.000Z</time>
      </trkpt>
      <trkpt lat="49.85464" lon="4.78192">
        <ele>312</ele>
        <time>2022-09-28T08:54:59.000Z</time>
      </trkpt>
      <trkpt lat="49.85464" lon="4.78192">
        <ele>312</ele>
        <time>2022-09-28T08:55:00.000Z</time>
      </trkpt>
      <trkpt lat="49.85464" lon="4.78192">
        <ele>312</ele>
        <time>2022-09-28T08:55:01.000Z</time>
      </trkpt>
      <trkpt lat="49.85464" lon="4.78192">
        <ele>312</ele>
        <time>2022-09-28T08:55:02.000Z</time>
      </trkpt>
      <trkpt lat="49.85464" lon="4.78192">
        <ele>312</ele>
        <time>2022-09-28T08:55:03.000Z</time>
      </trkpt>
      <trkpt lat="49.85464" lon="4.78192">
        <ele>313</ele>
        <time>2022-09-28T08:55:04.000Z</time>
      </trkpt>
      <trkpt lat="49.85464" lon="4.78192">
        <ele>313</ele>
        <time>2022-09-28T08:55:05.000Z</time>
      </trkpt>
      <trkpt lat="49.85464" lon="4.78193">
        <ele>313</ele>
        <time>2022-09-28T08:55:06.000Z</time>
      </trkpt>
      <trkpt lat="49.85464" lon="4.78193">
        <ele>313</ele>
        <time>2022-09-28T08:55:07.000Z</time>
      </trkpt>
      <trkpt lat="49.85464" lon="4.78193">
        <ele>313</ele>
        <time>2022-09-28T08:55:08.000Z</time>
      </trkpt>
      <trkpt lat="49.85464" lon="4.78193">
        <ele>313</ele>
        <time>2022-09-28T08:55:09.000Z</time>
      </trkpt>
      <trkpt lat="49.85464" lon="4.78193">
        <ele>313</ele>
        <time>2022-09-28T08:55:10.000Z</time>
      </trkpt>
      <trkpt lat="49.85464" lon="4.78193">
        <ele>313</ele>
        <time>2022-09-28T08:55:11.000Z</time>
      </trkpt>
      <trkpt lat="49.85464" lon="4.78193">
        <ele>313</ele>
        <time>2022-09-28T08:55:12.000Z</time>
      </trkpt>
      <trkpt lat="49.85464" lon="4.78193">
        <ele>313</ele>
        <time>2022-09-28T08:55:13.000Z</time>
      </trkpt>
      <trkpt lat="49.85464" lon="4.78193">
        <ele>313</ele>
        <time>2022-09-28T08:55:14.000Z</time>
      </trkpt>
      <trkpt lat="49.85464" lon="4.78193">
        <ele>313</ele>
        <time>2022-09-28T08:55:15.000Z</time>
      </trkpt>
      <trkpt lat="49.85464" lon="4.78193">
        <ele>313</ele>
        <time>2022-09-28T08:55:16.000Z</time>
      </trkpt>
      <trkpt lat="49.85464" lon="4.78193">
        <ele>313</ele>
        <time>2022-09-28T08:55:17.000Z</time>
      </trkpt>
      <trkpt lat="49.85464" lon="4.78193">
        <ele>313</ele>
        <time>2022-09-28T08:55:18.000Z</time>
      </trkpt>
      <trkpt lat="49.85464" lon="4.78193">
        <ele>313</ele>
        <time>2022-09-28T08:55:19.000Z</time>
      </trkpt>
      <trkpt lat="49.85464" lon="4.78193">
        <ele>313</ele>
        <time>2022-09-28T08:55:20.000Z</time>
      </trkpt>
      <trkpt lat="49.85464" lon="4.78193">
        <ele>313</ele>
        <time>2022-09-28T08:55:21.000Z</time>
      </trkpt>
      <trkpt lat="49.85464" lon="4.78193">
        <ele>313</ele>
        <time>2022-09-28T08:55:22.000Z</time>
      </trkpt>
      <trkpt lat="49.85464" lon="4.78193">
        <ele>313</ele>
        <time>2022-09-28T08:55:23.000Z</time>
      </trkpt>
      <trkpt lat="49.85464" lon="4.78193">
        <ele>313</ele>
        <time>2022-09-28T08:55:24.000Z</time>
      </trkpt>
      <trkpt lat="49.85464" lon="4.78193">
        <ele>313</ele>
        <time>2022-09-28T08:55:25.000Z</time>
      </trkpt>
      <trkpt lat="49.85464" lon="4.78193">
        <ele>313</ele>
        <time>2022-09-28T08:55:26.000Z</time>
      </trkpt>
      <trkpt lat="49.85465" lon="4.78193">
        <ele>313</ele>
        <time>2022-09-28T08:55:27.000Z</time>
      </trkpt>
      <trkpt lat="49.85465" lon="4.78193">
        <ele>313</ele>
        <time>2022-09-28T08:55:28.000Z</time>
      </trkpt>
      <trkpt lat="49.85465" lon="4.78193">
        <ele>313</ele>
        <time>2022-09-28T08:55:29.000Z</time>
      </trkpt>
      <trkpt lat="49.85465" lon="4.78193">
        <ele>313</ele>
        <time>2022-09-28T08:55:30.000Z</time>
      </trkpt>
      <trkpt lat="49.85465" lon="4.78194">
        <ele>313</ele>
        <time>2022-09-28T08:55:31.000Z</time>
      </trkpt>
      <trkpt lat="49.85465" lon="4.78194">
        <ele>314</ele>
        <time>2022-09-28T08:55:32.000Z</time>
      </trkpt>
      <trkpt lat="49.85465" lon="4.78194">
        <ele>314</ele>
        <time>2022-09-28T08:55:33.000Z</time>
      </trkpt>
      <trkpt lat="49.85465" lon="4.78194">
        <ele>314</ele>
        <time>2022-09-28T08:55:34.000Z</time>
      </trkpt>
      <trkpt lat="49.85465" lon="4.78194">
        <ele>314</ele>
        <time>2022-09-28T08:55:35.000Z</time>
      </trkpt>
      <trkpt lat="49.85464" lon="4.78194">
        <ele>314</ele>
        <time>2022-09-28T08:55:36.000Z</time>
      </trkpt>
      <trkpt lat="49.85464" lon="4.78194">
        <ele>314</ele>
        <time>2022-09-28T08:55:37.000Z</time>
      </trkpt>
      <trkpt lat="49.85464" lon="4.78194">
        <ele>314</ele>
        <time>2022-09-28T08:55:38.000Z</time>
      </trkpt>
      <trkpt lat="49.85464" lon="4.78194">
        <ele>314</ele>
        <time>2022-09-28T08:55:39.000Z</time>
      </trkpt>
      <trkpt lat="49.85464" lon="4.78194">
        <ele>314</ele>
        <time>2022-09-28T08:55:40.000Z</time>
      </trkpt>
      <trkpt lat="49.85464" lon="4.78194">
        <ele>314</ele>
        <time>2022-09-28T08:55:41.000Z</time>
      </trkpt>
      <trkpt lat="49.85464" lon="4.78194">
        <ele>314</ele>
        <time>2022-09-28T08:55:42.000Z</time>
      </trkpt>
      <trkpt lat="49.85464" lon="4.78194">
        <ele>314</ele>
        <time>2022-09-28T08:55:43.000Z</time>
      </trkpt>
      <trkpt lat="49.85464" lon="4.78194">
        <ele>314</ele>
        <time>2022-09-28T08:55:44.000Z</time>
      </trkpt>
      <trkpt lat="49.85464" lon="4.78194">
        <ele>314</ele>
        <time>2022-09-28T08:55:45.000Z</time>
      </trkpt>
      <trkpt lat="49.85464" lon="4.78194">
        <ele>314</ele>
        <time>2022-09-28T08:55:46.000Z</time>
      </trkpt>
      <trkpt lat="49.85464" lon="4.78194">
        <ele>314</ele>
        <time>2022-09-28T08:55:47.000Z</time>
      </trkpt>
      <trkpt lat="49.85464" lon="4.78194">
        <ele>314</ele>
        <time>2022-09-28T08:55:48.000Z</time>
      </trkpt>
      <trkpt lat="49.85464" lon="4.78194">
        <ele>314</ele>
        <time>2022-09-28T08:55:49.000Z</time>
      </trkpt>
      <trkpt lat="49.85464" lon="4.78194">
        <ele>314</ele>
        <time>2022-09-28T08:55:50.000Z</time>
      </trkpt>
      <trkpt lat="49.85464" lon="4.78194">
        <ele>314</ele>
        <time>2022-09-28T08:55:51.000Z</time>
      </trkpt>
      <trkpt lat="49.85464" lon="4.78194">
        <ele>314</ele>
        <time>2022-09-28T08:55:52.000Z</time>
      </trkpt>
      <trkpt lat="49.85464" lon="4.78194">
        <ele>314</ele>
        <time>2022-09-28T08:55:53.000Z</time>
      </trkpt>
      <trkpt lat="49.85464" lon="4.78194">
        <ele>314</ele>
        <time>2022-09-28T08:55:54.000Z</time>
      </trkpt>
      <trkpt lat="49.85464" lon="4.78194">
        <ele>314</ele>
        <time>2022-09-28T08:55:55.000Z</time>
      </trkpt>
      <trkpt lat="49.85464" lon="4.78194">
        <ele>314</ele>
        <time>2022-09-28T08:55:56.000Z</time>
      </trkpt>
      <trkpt lat="49.85464" lon="4.78194">
        <ele>314</ele>
        <time>2022-09-28T08:55:57.000Z</time>
      </trkpt>
      <trkpt lat="49.85464" lon="4.78194">
        <ele>314</ele>
        <time>2022-09-28T08:55:58.000Z</time>
      </trkpt>
      <trkpt lat="49.85464" lon="4.78194">
        <ele>314</ele>
        <time>2022-09-28T08:55:59.000Z</time>
      </trkpt>
      <trkpt lat="49.85464" lon="4.78195">
        <ele>314</ele>
        <time>2022-09-28T08:56:00.000Z</time>
      </trkpt>
      <trkpt lat="49.85464" lon="4.78195">
        <ele>314</ele>
        <time>2022-09-28T08:56:01.000Z</time>
      </trkpt>
      <trkpt lat="49.85464" lon="4.78195">
        <ele>314</ele>
        <time>2022-09-28T08:56:02.000Z</time>
      </trkpt>
      <trkpt lat="49.85464" lon="4.78195">
        <ele>314</ele>
        <time>2022-09-28T08:56:03.000Z</time>
      </trkpt>
      <trkpt lat="49.85464" lon="4.78195">
        <ele>314</ele>
        <time>2022-09-28T08:56:04.000Z</time>
      </trkpt>
      <trkpt lat="49.85464" lon="4.78195">
        <ele>314</ele>
        <time>2022-09-28T08:56:05.000Z</time>
      </trkpt>
      <trkpt lat="49.85464" lon="4.78196">
        <ele>314</ele>
        <time>2022-09-28T08:56:06.000Z</time>
      </trkpt>
      <trkpt lat="49.85463" lon="4.78197">
        <ele>313</ele>
        <time>2022-09-28T08:56:07.000Z</time>
      </trkpt>
      <trkpt lat="49.85462" lon="4.78199">
        <ele>313</ele>
        <time>2022-09-28T08:56:08.000Z</time>
      </trkpt>
      <trkpt lat="49.85461" lon="4.78201">
        <ele>313</ele>
        <time>2022-09-28T08:56:09.000Z</time>
      </trkpt>
      <trkpt lat="49.8546" lon="4.78203">
        <ele>313</ele>
        <time>2022-09-28T08:56:10.000Z</time>
      </trkpt>
      <trkpt lat="49.85459" lon="4.78205">
        <ele>313</ele>
        <time>2022-09-28T08:56:11.000Z</time>
      </trkpt>
      <trkpt lat="49.85458" lon="4.78207">
        <ele>313</ele>
        <time>2022-09-28T08:56:12.000Z</time>
      </trkpt>
      <trkpt lat="49.85456" lon="4.78208">
        <ele>313</ele>
        <time>2022-09-28T08:56:13.000Z</time>
      </trkpt>
      <trkpt lat="49.85455" lon="4.7821">
        <ele>313</ele>
        <time>2022-09-28T08:56:14.000Z</time>
      </trkpt>
      <trkpt lat="49.85453" lon="4.78212">
        <ele>313</ele>
        <time>2022-09-28T08:56:15.000Z</time>
      </trkpt>
      <trkpt lat="49.85452" lon="4.78214">
        <ele>313</ele>
        <time>2022-09-28T08:56:16.000Z</time>
      </trkpt>
      <trkpt lat="49.8545" lon="4.78216">
        <ele>313</ele>
        <time>2022-09-28T08:56:17.000Z</time>
      </trkpt>
      <trkpt lat="49.85448" lon="4.78219">
        <ele>313</ele>
        <time>2022-09-28T08:56:18.000Z</time>
      </trkpt>
      <trkpt lat="49.85447" lon="4.78221">
        <ele>313</ele>
        <time>2022-09-28T08:56:19.000Z</time>
      </trkpt>
      <trkpt lat="49.85446" lon="4.78223">
        <ele>313</ele>
        <time>2022-09-28T08:56:20.000Z</time>
      </trkpt>
      <trkpt lat="49.85445" lon="4.78225">
        <ele>313</ele>
        <time>2022-09-28T08:56:21.000Z</time>
      </trkpt>
      <trkpt lat="49.85443" lon="4.78228">
        <ele>313</ele>
        <time>2022-09-28T08:56:22.000Z</time>
      </trkpt>
      <trkpt lat="49.85442" lon="4.7823">
        <ele>313</ele>
        <time>2022-09-28T08:56:23.000Z</time>
      </trkpt>
      <trkpt lat="49.8544" lon="4.78233">
        <ele>313</ele>
        <time>2022-09-28T08:56:24.000Z</time>
      </trkpt>
      <trkpt lat="49.85439" lon="4.78235">
        <ele>313</ele>
        <time>2022-09-28T08:56:25.000Z</time>
      </trkpt>
      <trkpt lat="49.85437" lon="4.78238">
        <ele>313</ele>
        <time>2022-09-28T08:56:26.000Z</time>
      </trkpt>
      <trkpt lat="49.85435" lon="4.78241">
        <ele>313</ele>
        <time>2022-09-28T08:56:27.000Z</time>
      </trkpt>
      <trkpt lat="49.85433" lon="4.78243">
        <ele>313</ele>
        <time>2022-09-28T08:56:28.000Z</time>
      </trkpt>
      <trkpt lat="49.85431" lon="4.78246">
        <ele>313</ele>
        <time>2022-09-28T08:56:29.000Z</time>
      </trkpt>
      <trkpt lat="49.85429" lon="4.78248">
        <ele>313</ele>
        <time>2022-09-28T08:56:30.000Z</time>
      </trkpt>
      <trkpt lat="49.85427" lon="4.7825">
        <ele>313</ele>
        <time>2022-09-28T08:56:31.000Z</time>
      </trkpt>
      <trkpt lat="49.85425" lon="4.78252">
        <ele>313</ele>
        <time>2022-09-28T08:56:32.000Z</time>
      </trkpt>
      <trkpt lat="49.85423" lon="4.78254">
        <ele>314</ele>
        <time>2022-09-28T08:56:33.000Z</time>
      </trkpt>
      <trkpt lat="49.85421" lon="4.78256">
        <ele>314</ele>
        <time>2022-09-28T08:56:34.000Z</time>
      </trkpt>
      <trkpt lat="49.85419" lon="4.78258">
        <ele>314</ele>
        <time>2022-09-28T08:56:35.000Z</time>
      </trkpt>
      <trkpt lat="49.85417" lon="4.78261">
        <ele>314</ele>
        <time>2022-09-28T08:56:36.000Z</time>
      </trkpt>
      <trkpt lat="49.85415" lon="4.78263">
        <ele>314</ele>
        <time>2022-09-28T08:56:37.000Z</time>
      </trkpt>
      <trkpt lat="49.85412" lon="4.78265">
        <ele>314</ele>
        <time>2022-09-28T08:56:38.000Z</time>
      </trkpt>
      <trkpt lat="49.8541" lon="4.78267">
        <ele>314</ele>
        <time>2022-09-28T08:56:39.000Z</time>
      </trkpt>
      <trkpt lat="49.85408" lon="4.7827">
        <ele>314</ele>
        <time>2022-09-28T08:56:40.000Z</time>
      </trkpt>
      <trkpt lat="49.85406" lon="4.78272">
        <ele>314</ele>
        <time>2022-09-28T08:56:41.000Z</time>
      </trkpt>
      <trkpt lat="49.85405" lon="4.78275">
        <ele>314</ele>
        <time>2022-09-28T08:56:42.000Z</time>
      </trkpt>
      <trkpt lat="49.85403" lon="4.78277">
        <ele>314</ele>
        <time>2022-09-28T08:56:43.000Z</time>
      </trkpt>
      <trkpt lat="49.85401" lon="4.78279">
        <ele>314</ele>
        <time>2022-09-28T08:56:44.000Z</time>
      </trkpt>
      <trkpt lat="49.85399" lon="4.78281">
        <ele>314</ele>
        <time>2022-09-28T08:56:45.000Z</time>
      </trkpt>
      <trkpt lat="49.85398" lon="4.78283">
        <ele>315</ele>
        <time>2022-09-28T08:56:46.000Z</time>
      </trkpt>
      <trkpt lat="49.85396" lon="4.78286">
        <ele>315</ele>
        <time>2022-09-28T08:56:47.000Z</time>
      </trkpt>
      <trkpt lat="49.85394" lon="4.78288">
        <ele>315</ele>
        <time>2022-09-28T08:56:48.000Z</time>
      </trkpt>
      <trkpt lat="49.85392" lon="4.78291">
        <ele>315</ele>
        <time>2022-09-28T08:56:49.000Z</time>
      </trkpt>
      <trkpt lat="49.8539" lon="4.78293">
        <ele>315</ele>
        <time>2022-09-28T08:56:50.000Z</time>
      </trkpt>
      <trkpt lat="49.85388" lon="4.78295">
        <ele>315</ele>
        <time>2022-09-28T08:56:51.000Z</time>
      </trkpt>
      <trkpt lat="49.85386" lon="4.78298">
        <ele>315</ele>
        <time>2022-09-28T08:56:52.000Z</time>
      </trkpt>
      <trkpt lat="49.85384" lon="4.783">
        <ele>315</ele>
        <time>2022-09-28T08:56:53.000Z</time>
      </trkpt>
      <trkpt lat="49.85383" lon="4.78301">
        <ele>315</ele>
        <time>2022-09-28T08:56:54.000Z</time>
      </trkpt>
      <trkpt lat="49.85382" lon="4.78303">
        <ele>315</ele>
        <time>2022-09-28T08:56:55.000Z</time>
      </trkpt>
      <trkpt lat="49.8538" lon="4.78305">
        <ele>315</ele>
        <time>2022-09-28T08:56:56.000Z</time>
      </trkpt>
      <trkpt lat="49.85378" lon="4.78307">
        <ele>315</ele>
        <time>2022-09-28T08:56:57.000Z</time>
      </trkpt>
      <trkpt lat="49.85377" lon="4.78309">
        <ele>315</ele>
        <time>2022-09-28T08:56:58.000Z</time>
      </trkpt>
      <trkpt lat="49.85375" lon="4.78312">
        <ele>316</ele>
        <time>2022-09-28T08:56:59.000Z</time>
      </trkpt>
      <trkpt lat="49.85374" lon="4.78314">
        <ele>316</ele>
        <time>2022-09-28T08:57:00.000Z</time>
      </trkpt>
      <trkpt lat="49.85372" lon="4.78316">
        <ele>316</ele>
        <time>2022-09-28T08:57:01.000Z</time>
      </trkpt>
      <trkpt lat="49.85371" lon="4.78319">
        <ele>316</ele>
        <time>2022-09-28T08:57:02.000Z</time>
      </trkpt>
      <trkpt lat="49.8537" lon="4.78321">
        <ele>316</ele>
        <time>2022-09-28T08:57:03.000Z</time>
      </trkpt>
      <trkpt lat="49.85368" lon="4.78323">
        <ele>317</ele>
        <time>2022-09-28T08:57:04.000Z</time>
      </trkpt>
      <trkpt lat="49.85366" lon="4.78325">
        <ele>317</ele>
        <time>2022-09-28T08:57:05.000Z</time>
      </trkpt>
      <trkpt lat="49.85365" lon="4.78327">
        <ele>317</ele>
        <time>2022-09-28T08:57:06.000Z</time>
      </trkpt>
      <trkpt lat="49.85363" lon="4.78329">
        <ele>317</ele>
        <time>2022-09-28T08:57:07.000Z</time>
      </trkpt>
      <trkpt lat="49.85362" lon="4.78331">
        <ele>317</ele>
        <time>2022-09-28T08:57:08.000Z</time>
      </trkpt>
      <trkpt lat="49.8536" lon="4.78333">
        <ele>317</ele>
        <time>2022-09-28T08:57:09.000Z</time>
      </trkpt>
      <trkpt lat="49.85359" lon="4.78335">
        <ele>318</ele>
        <time>2022-09-28T08:57:10.000Z</time>
      </trkpt>
      <trkpt lat="49.85358" lon="4.78337">
        <ele>318</ele>
        <time>2022-09-28T08:57:11.000Z</time>
      </trkpt>
      <trkpt lat="49.85357" lon="4.78339">
        <ele>318</ele>
        <time>2022-09-28T08:57:12.000Z</time>
      </trkpt>
      <trkpt lat="49.85356" lon="4.78341">
        <ele>318</ele>
        <time>2022-09-28T08:57:13.000Z</time>
      </trkpt>
      <trkpt lat="49.85355" lon="4.78344">
        <ele>318</ele>
        <time>2022-09-28T08:57:14.000Z</time>
      </trkpt>
      <trkpt lat="49.85354" lon="4.78346">
        <ele>318</ele>
        <time>2022-09-28T08:57:15.000Z</time>
      </trkpt>
      <trkpt lat="49.85352" lon="4.78348">
        <ele>318</ele>
        <time>2022-09-28T08:57:16.000Z</time>
      </trkpt>
      <trkpt lat="49.85351" lon="4.7835">
        <ele>318</ele>
        <time>2022-09-28T08:57:17.000Z</time>
      </trkpt>
      <trkpt lat="49.85351" lon="4.78353">
        <ele>319</ele>
        <time>2022-09-28T08:57:18.000Z</time>
      </trkpt>
      <trkpt lat="49.85349" lon="4.78355">
        <ele>319</ele>
        <time>2022-09-28T08:57:19.000Z</time>
      </trkpt>
      <trkpt lat="49.85348" lon="4.78358">
        <ele>319</ele>
        <time>2022-09-28T08:57:20.000Z</time>
      </trkpt>
      <trkpt lat="49.85346" lon="4.7836">
        <ele>319</ele>
        <time>2022-09-28T08:57:21.000Z</time>
      </trkpt>
      <trkpt lat="49.85344" lon="4.78361">
        <ele>319</ele>
        <time>2022-09-28T08:57:22.000Z</time>
      </trkpt>
      <trkpt lat="49.85343" lon="4.78363">
        <ele>319</ele>
        <time>2022-09-28T08:57:23.000Z</time>
      </trkpt>
      <trkpt lat="49.85342" lon="4.78365">
        <ele>319</ele>
        <time>2022-09-28T08:57:24.000Z</time>
      </trkpt>
      <trkpt lat="49.8534" lon="4.78368">
        <ele>320</ele>
        <time>2022-09-28T08:57:25.000Z</time>
      </trkpt>
      <trkpt lat="49.85339" lon="4.78369">
        <ele>320</ele>
        <time>2022-09-28T08:57:26.000Z</time>
      </trkpt>
      <trkpt lat="49.85337" lon="4.78372">
        <ele>320</ele>
        <time>2022-09-28T08:57:27.000Z</time>
      </trkpt>
      <trkpt lat="49.85336" lon="4.78374">
        <ele>320</ele>
        <time>2022-09-28T08:57:28.000Z</time>
      </trkpt>
      <trkpt lat="49.85335" lon="4.78376">
        <ele>320</ele>
        <time>2022-09-28T08:57:29.000Z</time>
      </trkpt>
      <trkpt lat="49.85334" lon="4.78378">
        <ele>320</ele>
        <time>2022-09-28T08:57:30.000Z</time>
      </trkpt>
      <trkpt lat="49.85333" lon="4.7838">
        <ele>321</ele>
        <time>2022-09-28T08:57:31.000Z</time>
      </trkpt>
      <trkpt lat="49.85331" lon="4.78382">
        <ele>321</ele>
        <time>2022-09-28T08:57:32.000Z</time>
      </trkpt>
      <trkpt lat="49.8533" lon="4.78384">
        <ele>321</ele>
        <time>2022-09-28T08:57:33.000Z</time>
      </trkpt>
      <trkpt lat="49.85329" lon="4.78386">
        <ele>321</ele>
        <time>2022-09-28T08:57:34.000Z</time>
      </trkpt>
      <trkpt lat="49.85328" lon="4.78387">
        <ele>322</ele>
        <time>2022-09-28T08:57:35.000Z</time>
      </trkpt>
      <trkpt lat="49.85327" lon="4.78389">
        <ele>322</ele>
        <time>2022-09-28T08:57:36.000Z</time>
      </trkpt>
      <trkpt lat="49.85325" lon="4.7839">
        <ele>322</ele>
        <time>2022-09-28T08:57:37.000Z</time>
      </trkpt>
      <trkpt lat="49.85325" lon="4.78392">
        <ele>322</ele>
        <time>2022-09-28T08:57:38.000Z</time>
      </trkpt>
      <trkpt lat="49.85324" lon="4.78394">
        <ele>322</ele>
        <time>2022-09-28T08:57:39.000Z</time>
      </trkpt>
      <trkpt lat="49.85323" lon="4.78396">
        <ele>323</ele>
        <time>2022-09-28T08:57:40.000Z</time>
      </trkpt>
      <trkpt lat="49.85322" lon="4.78397">
        <ele>323</ele>
        <time>2022-09-28T08:57:41.000Z</time>
      </trkpt>
      <trkpt lat="49.85321" lon="4.78399">
        <ele>323</ele>
        <time>2022-09-28T08:57:42.000Z</time>
      </trkpt>
      <trkpt lat="49.8532" lon="4.78401">
        <ele>324</ele>
        <time>2022-09-28T08:57:43.000Z</time>
      </trkpt>
      <trkpt lat="49.85319" lon="4.78404">
        <ele>324</ele>
        <time>2022-09-28T08:57:44.000Z</time>
      </trkpt>
      <trkpt lat="49.85318" lon="4.78407">
        <ele>324</ele>
        <time>2022-09-28T08:57:45.000Z</time>
      </trkpt>
      <trkpt lat="49.85317" lon="4.78409">
        <ele>325</ele>
        <time>2022-09-28T08:57:46.000Z</time>
      </trkpt>
      <trkpt lat="49.85315" lon="4.78411">
        <ele>325</ele>
        <time>2022-09-28T08:57:47.000Z</time>
      </trkpt>
      <trkpt lat="49.85314" lon="4.78414">
        <ele>325</ele>
        <time>2022-09-28T08:57:48.000Z</time>
      </trkpt>
      <trkpt lat="49.85312" lon="4.78416">
        <ele>326</ele>
        <time>2022-09-28T08:57:49.000Z</time>
      </trkpt>
      <trkpt lat="49.85311" lon="4.78419">
        <ele>326</ele>
        <time>2022-09-28T08:57:50.000Z</time>
      </trkpt>
      <trkpt lat="49.8531" lon="4.78421">
        <ele>326</ele>
        <time>2022-09-28T08:57:51.000Z</time>
      </trkpt>
      <trkpt lat="49.85309" lon="4.78424">
        <ele>327</ele>
        <time>2022-09-28T08:57:52.000Z</time>
      </trkpt>
      <trkpt lat="49.85307" lon="4.78426">
        <ele>327</ele>
        <time>2022-09-28T08:57:53.000Z</time>
      </trkpt>
      <trkpt lat="49.85306" lon="4.78429">
        <ele>327</ele>
        <time>2022-09-28T08:57:54.000Z</time>
      </trkpt>
      <trkpt lat="49.85304" lon="4.78431">
        <ele>327</ele>
        <time>2022-09-28T08:57:55.000Z</time>
      </trkpt>
      <trkpt lat="49.85303" lon="4.78433">
        <ele>328</ele>
        <time>2022-09-28T08:57:56.000Z</time>
      </trkpt>
      <trkpt lat="49.85301" lon="4.78436">
        <ele>328</ele>
        <time>2022-09-28T08:57:57.000Z</time>
      </trkpt>
      <trkpt lat="49.853" lon="4.78437">
        <ele>328</ele>
        <time>2022-09-28T08:57:58.000Z</time>
      </trkpt>
      <trkpt lat="49.85299" lon="4.7844">
        <ele>328</ele>
        <time>2022-09-28T08:57:59.000Z</time>
      </trkpt>
      <trkpt lat="49.85297" lon="4.78442">
        <ele>329</ele>
        <time>2022-09-28T08:58:00.000Z</time>
      </trkpt>
      <trkpt lat="49.85295" lon="4.78444">
        <ele>329</ele>
        <time>2022-09-28T08:58:01.000Z</time>
      </trkpt>
      <trkpt lat="49.85294" lon="4.78446">
        <ele>329</ele>
        <time>2022-09-28T08:58:02.000Z</time>
      </trkpt>
      <trkpt lat="49.85293" lon="4.78449">
        <ele>329</ele>
        <time>2022-09-28T08:58:03.000Z</time>
      </trkpt>
      <trkpt lat="49.85292" lon="4.78451">
        <ele>329</ele>
        <time>2022-09-28T08:58:04.000Z</time>
      </trkpt>
      <trkpt lat="49.8529" lon="4.78454">
        <ele>330</ele>
        <time>2022-09-28T08:58:05.000Z</time>
      </trkpt>
      <trkpt lat="49.85289" lon="4.78457">
        <ele>330</ele>
        <time>2022-09-28T08:58:06.000Z</time>
      </trkpt>
      <trkpt lat="49.85287" lon="4.7846">
        <ele>330</ele>
        <time>2022-09-28T08:58:07.000Z</time>
      </trkpt>
      <trkpt lat="49.85286" lon="4.78463">
        <ele>331</ele>
        <time>2022-09-28T08:58:08.000Z</time>
      </trkpt>
      <trkpt lat="49.85285" lon="4.78466">
        <ele>331</ele>
        <time>2022-09-28T08:58:09.000Z</time>
      </trkpt>
      <trkpt lat="49.85284" lon="4.7847">
        <ele>331</ele>
        <time>2022-09-28T08:58:10.000Z</time>
      </trkpt>
      <trkpt lat="49.85283" lon="4.78473">
        <ele>332</ele>
        <time>2022-09-28T08:58:11.000Z</time>
      </trkpt>
      <trkpt lat="49.85281" lon="4.78477">
        <ele>332</ele>
        <time>2022-09-28T08:58:12.000Z</time>
      </trkpt>
      <trkpt lat="49.8528" lon="4.78479">
        <ele>332</ele>
        <time>2022-09-28T08:58:13.000Z</time>
      </trkpt>
      <trkpt lat="49.85278" lon="4.78482">
        <ele>332</ele>
        <time>2022-09-28T08:58:14.000Z</time>
      </trkpt>
      <trkpt lat="49.85277" lon="4.78484">
        <ele>333</ele>
        <time>2022-09-28T08:58:15.000Z</time>
      </trkpt>
      <trkpt lat="49.85275" lon="4.78487">
        <ele>333</ele>
        <time>2022-09-28T08:58:16.000Z</time>
      </trkpt>
      <trkpt lat="49.85274" lon="4.78491">
        <ele>333</ele>
        <time>2022-09-28T08:58:17.000Z</time>
      </trkpt>
      <trkpt lat="49.85273" lon="4.78494">
        <ele>333</ele>
        <time>2022-09-28T08:58:18.000Z</time>
      </trkpt>
      <trkpt lat="49.85271" lon="4.78497">
        <ele>334</ele>
        <time>2022-09-28T08:58:19.000Z</time>
      </trkpt>
      <trkpt lat="49.8527" lon="4.78499">
        <ele>334</ele>
        <time>2022-09-28T08:58:20.000Z</time>
      </trkpt>
      <trkpt lat="49.85268" lon="4.785">
        <ele>334</ele>
        <time>2022-09-28T08:58:21.000Z</time>
      </trkpt>
      <trkpt lat="49.85266" lon="4.78502">
        <ele>334</ele>
        <time>2022-09-28T08:58:22.000Z</time>
      </trkpt>
      <trkpt lat="49.85264" lon="4.78505">
        <ele>334</ele>
        <time>2022-09-28T08:58:23.000Z</time>
      </trkpt>
      <trkpt lat="49.85261" lon="4.78508">
        <ele>334</ele>
        <time>2022-09-28T08:58:24.000Z</time>
      </trkpt>
      <trkpt lat="49.85259" lon="4.78511">
        <ele>334</ele>
        <time>2022-09-28T08:58:25.000Z</time>
      </trkpt>
      <trkpt lat="49.85257" lon="4.78514">
        <ele>334</ele>
        <time>2022-09-28T08:58:26.000Z</time>
      </trkpt>
      <trkpt lat="49.85254" lon="4.78517">
        <ele>334</ele>
        <time>2022-09-28T08:58:27.000Z</time>
      </trkpt>
      <trkpt lat="49.85252" lon="4.78521">
        <ele>334</ele>
        <time>2022-09-28T08:58:28.000Z</time>
      </trkpt>
      <trkpt lat="49.85249" lon="4.78524">
        <ele>334</ele>
        <time>2022-09-28T08:58:29.000Z</time>
      </trkpt>
      <trkpt lat="49.85247" lon="4.78527">
        <ele>334</ele>
        <time>2022-09-28T08:58:30.000Z</time>
      </trkpt>
      <trkpt lat="49.85244" lon="4.78531">
        <ele>334</ele>
        <time>2022-09-28T08:58:31.000Z</time>
      </trkpt>
      <trkpt lat="49.85242" lon="4.78534">
        <ele>334</ele>
        <time>2022-09-28T08:58:32.000Z</time>
      </trkpt>
      <trkpt lat="49.8524" lon="4.78539">
        <ele>334</ele>
        <time>2022-09-28T08:58:33.000Z</time>
      </trkpt>
      <trkpt lat="49.85238" lon="4.78543">
        <ele>334</ele>
        <time>2022-09-28T08:58:34.000Z</time>
      </trkpt>
      <trkpt lat="49.85236" lon="4.78547">
        <ele>334</ele>
        <time>2022-09-28T08:58:35.000Z</time>
      </trkpt>
      <trkpt lat="49.85233" lon="4.78551">
        <ele>334</ele>
        <time>2022-09-28T08:58:36.000Z</time>
      </trkpt>
      <trkpt lat="49.8523" lon="4.78556">
        <ele>334</ele>
        <time>2022-09-28T08:58:37.000Z</time>
      </trkpt>
      <trkpt lat="49.85227" lon="4.7856">
        <ele>334</ele>
        <time>2022-09-28T08:58:38.000Z</time>
      </trkpt>
      <trkpt lat="49.85224" lon="4.78564">
        <ele>334</ele>
        <time>2022-09-28T08:58:39.000Z</time>
      </trkpt>
      <trkpt lat="49.85221" lon="4.78568">
        <ele>334</ele>
        <time>2022-09-28T08:58:40.000Z</time>
      </trkpt>
      <trkpt lat="49.85218" lon="4.78572">
        <ele>334</ele>
        <time>2022-09-28T08:58:41.000Z</time>
      </trkpt>
      <trkpt lat="49.85216" lon="4.78576">
        <ele>334</ele>
        <time>2022-09-28T08:58:42.000Z</time>
      </trkpt>
      <trkpt lat="49.85213" lon="4.78581">
        <ele>335</ele>
        <time>2022-09-28T08:58:43.000Z</time>
      </trkpt>
      <trkpt lat="49.8521" lon="4.78585">
        <ele>335</ele>
        <time>2022-09-28T08:58:44.000Z</time>
      </trkpt>
      <trkpt lat="49.85207" lon="4.78588">
        <ele>335</ele>
        <time>2022-09-28T08:58:45.000Z</time>
      </trkpt>
      <trkpt lat="49.85204" lon="4.78592">
        <ele>335</ele>
        <time>2022-09-28T08:58:46.000Z</time>
      </trkpt>
      <trkpt lat="49.85201" lon="4.78596">
        <ele>335</ele>
        <time>2022-09-28T08:58:47.000Z</time>
      </trkpt>
      <trkpt lat="49.85197" lon="4.786">
        <ele>335</ele>
        <time>2022-09-28T08:58:48.000Z</time>
      </trkpt>
      <trkpt lat="49.85194" lon="4.78604">
        <ele>335</ele>
        <time>2022-09-28T08:58:49.000Z</time>
      </trkpt>
      <trkpt lat="49.85192" lon="4.78608">
        <ele>335</ele>
        <time>2022-09-28T08:58:50.000Z</time>
      </trkpt>
      <trkpt lat="49.85189" lon="4.78612">
        <ele>335</ele>
        <time>2022-09-28T08:58:51.000Z</time>
      </trkpt>
      <trkpt lat="49.85186" lon="4.78615">
        <ele>335</ele>
        <time>2022-09-28T08:58:52.000Z</time>
      </trkpt>
      <trkpt lat="49.85184" lon="4.78619">
        <ele>335</ele>
        <time>2022-09-28T08:58:53.000Z</time>
      </trkpt>
      <trkpt lat="49.85181" lon="4.78623">
        <ele>336</ele>
        <time>2022-09-28T08:58:54.000Z</time>
      </trkpt>
      <trkpt lat="49.85179" lon="4.78627">
        <ele>336</ele>
        <time>2022-09-28T08:58:55.000Z</time>
      </trkpt>
      <trkpt lat="49.85176" lon="4.7863">
        <ele>336</ele>
        <time>2022-09-28T08:58:56.000Z</time>
      </trkpt>
      <trkpt lat="49.85174" lon="4.78633">
        <ele>336</ele>
        <time>2022-09-28T08:58:57.000Z</time>
      </trkpt>
      <trkpt lat="49.85172" lon="4.78636">
        <ele>336</ele>
        <time>2022-09-28T08:58:58.000Z</time>
      </trkpt>
      <trkpt lat="49.85169" lon="4.78639">
        <ele>336</ele>
        <time>2022-09-28T08:58:59.000Z</time>
      </trkpt>
      <trkpt lat="49.85167" lon="4.78642">
        <ele>336</ele>
        <time>2022-09-28T08:59:00.000Z</time>
      </trkpt>
      <trkpt lat="49.85165" lon="4.78646">
        <ele>336</ele>
        <time>2022-09-28T08:59:01.000Z</time>
      </trkpt>
      <trkpt lat="49.85162" lon="4.78649">
        <ele>336</ele>
        <time>2022-09-28T08:59:02.000Z</time>
      </trkpt>
      <trkpt lat="49.85159" lon="4.78652">
        <ele>336</ele>
        <time>2022-09-28T08:59:03.000Z</time>
      </trkpt>
      <trkpt lat="49.85157" lon="4.78656">
        <ele>336</ele>
        <time>2022-09-28T08:59:04.000Z</time>
      </trkpt>
      <trkpt lat="49.85155" lon="4.78659">
        <ele>336</ele>
        <time>2022-09-28T08:59:05.000Z</time>
      </trkpt>
      <trkpt lat="49.85152" lon="4.78662">
        <ele>336</ele>
        <time>2022-09-28T08:59:06.000Z</time>
      </trkpt>
      <trkpt lat="49.85149" lon="4.78665">
        <ele>336</ele>
        <time>2022-09-28T08:59:07.000Z</time>
      </trkpt>
      <trkpt lat="49.85147" lon="4.78668">
        <ele>336</ele>
        <time>2022-09-28T08:59:08.000Z</time>
      </trkpt>
      <trkpt lat="49.85145" lon="4.78672">
        <ele>336</ele>
        <time>2022-09-28T08:59:09.000Z</time>
      </trkpt>
      <trkpt lat="49.85143" lon="4.78676">
        <ele>336</ele>
        <time>2022-09-28T08:59:10.000Z</time>
      </trkpt>
      <trkpt lat="49.85141" lon="4.78681">
        <ele>336</ele>
        <time>2022-09-28T08:59:11.000Z</time>
      </trkpt>
      <trkpt lat="49.85138" lon="4.78684">
        <ele>336</ele>
        <time>2022-09-28T08:59:12.000Z</time>
      </trkpt>
      <trkpt lat="49.85135" lon="4.78688">
        <ele>336</ele>
        <time>2022-09-28T08:59:13.000Z</time>
      </trkpt>
      <trkpt lat="49.85132" lon="4.78692">
        <ele>336</ele>
        <time>2022-09-28T08:59:14.000Z</time>
      </trkpt>
      <trkpt lat="49.85129" lon="4.78696">
        <ele>336</ele>
        <time>2022-09-28T08:59:15.000Z</time>
      </trkpt>
      <trkpt lat="49.85126" lon="4.787">
        <ele>336</ele>
        <time>2022-09-28T08:59:16.000Z</time>
      </trkpt>
      <trkpt lat="49.85123" lon="4.78703">
        <ele>336</ele>
        <time>2022-09-28T08:59:17.000Z</time>
      </trkpt>
      <trkpt lat="49.85121" lon="4.78706">
        <ele>336</ele>
        <time>2022-09-28T08:59:18.000Z</time>
      </trkpt>
      <trkpt lat="49.85118" lon="4.7871">
        <ele>336</ele>
        <time>2022-09-28T08:59:19.000Z</time>
      </trkpt>
      <trkpt lat="49.85115" lon="4.78713">
        <ele>336</ele>
        <time>2022-09-28T08:59:20.000Z</time>
      </trkpt>
      <trkpt lat="49.85111" lon="4.78716">
        <ele>336</ele>
        <time>2022-09-28T08:59:21.000Z</time>
      </trkpt>
      <trkpt lat="49.85108" lon="4.7872">
        <ele>336</ele>
        <time>2022-09-28T08:59:22.000Z</time>
      </trkpt>
      <trkpt lat="49.85104" lon="4.78724">
        <ele>336</ele>
        <time>2022-09-28T08:59:23.000Z</time>
      </trkpt>
      <trkpt lat="49.85102" lon="4.78727">
        <ele>336</ele>
        <time>2022-09-28T08:59:24.000Z</time>
      </trkpt>
      <trkpt lat="49.85099" lon="4.78731">
        <ele>336</ele>
        <time>2022-09-28T08:59:25.000Z</time>
      </trkpt>
      <trkpt lat="49.85097" lon="4.78735">
        <ele>336</ele>
        <time>2022-09-28T08:59:26.000Z</time>
      </trkpt>
      <trkpt lat="49.85094" lon="4.78739">
        <ele>336</ele>
        <time>2022-09-28T08:59:27.000Z</time>
      </trkpt>
      <trkpt lat="49.85092" lon="4.78743">
        <ele>336</ele>
        <time>2022-09-28T08:59:28.000Z</time>
      </trkpt>
      <trkpt lat="49.85089" lon="4.78747">
        <ele>336</ele>
        <time>2022-09-28T08:59:29.000Z</time>
      </trkpt>
      <trkpt lat="49.85087" lon="4.78752">
        <ele>336</ele>
        <time>2022-09-28T08:59:30.000Z</time>
      </trkpt>
      <trkpt lat="49.85084" lon="4.78756">
        <ele>336</ele>
        <time>2022-09-28T08:59:31.000Z</time>
      </trkpt>
      <trkpt lat="49.85082" lon="4.78761">
        <ele>336</ele>
        <time>2022-09-28T08:59:32.000Z</time>
      </trkpt>
      <trkpt lat="49.85079" lon="4.78765">
        <ele>336</ele>
        <time>2022-09-28T08:59:33.000Z</time>
      </trkpt>
      <trkpt lat="49.85077" lon="4.78769">
        <ele>336</ele>
        <time>2022-09-28T08:59:34.000Z</time>
      </trkpt>
      <trkpt lat="49.85074" lon="4.78774">
        <ele>336</ele>
        <time>2022-09-28T08:59:35.000Z</time>
      </trkpt>
      <trkpt lat="49.85071" lon="4.78779">
        <ele>336</ele>
        <time>2022-09-28T08:59:36.000Z</time>
      </trkpt>
      <trkpt lat="49.85068" lon="4.78785">
        <ele>336</ele>
        <time>2022-09-28T08:59:37.000Z</time>
      </trkpt>
      <trkpt lat="49.85066" lon="4.78791">
        <ele>336</ele>
        <time>2022-09-28T08:59:38.000Z</time>
      </trkpt>
      <trkpt lat="49.85064" lon="4.78797">
        <ele>336</ele>
        <time>2022-09-28T08:59:39.000Z</time>
      </trkpt>
      <trkpt lat="49.85061" lon="4.78803">
        <ele>336</ele>
        <time>2022-09-28T08:59:40.000Z</time>
      </trkpt>
      <trkpt lat="49.85059" lon="4.78809">
        <ele>336</ele>
        <time>2022-09-28T08:59:41.000Z</time>
      </trkpt>
      <trkpt lat="49.85057" lon="4.78815">
        <ele>336</ele>
        <time>2022-09-28T08:59:42.000Z</time>
      </trkpt>
      <trkpt lat="49.85054" lon="4.7882">
        <ele>336</ele>
        <time>2022-09-28T08:59:43.000Z</time>
      </trkpt>
      <trkpt lat="49.85051" lon="4.78824">
        <ele>337</ele>
        <time>2022-09-28T08:59:44.000Z</time>
      </trkpt>
      <trkpt lat="49.85047" lon="4.78828">
        <ele>337</ele>
        <time>2022-09-28T08:59:45.000Z</time>
      </trkpt>
      <trkpt lat="49.85044" lon="4.78831">
        <ele>337</ele>
        <time>2022-09-28T08:59:46.000Z</time>
      </trkpt>
      <trkpt lat="49.8504" lon="4.78835">
        <ele>337</ele>
        <time>2022-09-28T08:59:47.000Z</time>
      </trkpt>
      <trkpt lat="49.85037" lon="4.78839">
        <ele>336</ele>
        <time>2022-09-28T08:59:48.000Z</time>
      </trkpt>
      <trkpt lat="49.85034" lon="4.78844">
        <ele>336</ele>
        <time>2022-09-28T08:59:49.000Z</time>
      </trkpt>
      <trkpt lat="49.85031" lon="4.78847">
        <ele>336</ele>
        <time>2022-09-28T08:59:50.000Z</time>
      </trkpt>
      <trkpt lat="49.85028" lon="4.7885">
        <ele>336</ele>
        <time>2022-09-28T08:59:51.000Z</time>
      </trkpt>
      <trkpt lat="49.85026" lon="4.78853">
        <ele>336</ele>
        <time>2022-09-28T08:59:52.000Z</time>
      </trkpt>
      <trkpt lat="49.85023" lon="4.78856">
        <ele>336</ele>
        <time>2022-09-28T08:59:53.000Z</time>
      </trkpt>
      <trkpt lat="49.85021" lon="4.78861">
        <ele>336</ele>
        <time>2022-09-28T08:59:54.000Z</time>
      </trkpt>
      <trkpt lat="49.85019" lon="4.78865">
        <ele>336</ele>
        <time>2022-09-28T08:59:55.000Z</time>
      </trkpt>
      <trkpt lat="49.85017" lon="4.78869">
        <ele>336</ele>
        <time>2022-09-28T08:59:56.000Z</time>
      </trkpt>
      <trkpt lat="49.85014" lon="4.78874">
        <ele>336</ele>
        <time>2022-09-28T08:59:57.000Z</time>
      </trkpt>
      <trkpt lat="49.85011" lon="4.78878">
        <ele>336</ele>
        <time>2022-09-28T08:59:58.000Z</time>
      </trkpt>
      <trkpt lat="49.85008" lon="4.78882">
        <ele>336</ele>
        <time>2022-09-28T08:59:59.000Z</time>
      </trkpt>
      <trkpt lat="49.85005" lon="4.78886">
        <ele>336</ele>
        <time>2022-09-28T09:00:00.000Z</time>
      </trkpt>
      <trkpt lat="49.85002" lon="4.78889">
        <ele>336</ele>
        <time>2022-09-28T09:00:01.000Z</time>
      </trkpt>
      <trkpt lat="49.85" lon="4.78892">
        <ele>336</ele>
        <time>2022-09-28T09:00:02.000Z</time>
      </trkpt>
      <trkpt lat="49.84997" lon="4.78896">
        <ele>336</ele>
        <time>2022-09-28T09:00:03.000Z</time>
      </trkpt>
      <trkpt lat="49.84994" lon="4.78899">
        <ele>336</ele>
        <time>2022-09-28T09:00:04.000Z</time>
      </trkpt>
      <trkpt lat="49.84992" lon="4.78903">
        <ele>336</ele>
        <time>2022-09-28T09:00:05.000Z</time>
      </trkpt>
      <trkpt lat="49.8499" lon="4.78906">
        <ele>336</ele>
        <time>2022-09-28T09:00:06.000Z</time>
      </trkpt>
      <trkpt lat="49.84987" lon="4.78909">
        <ele>337</ele>
        <time>2022-09-28T09:00:07.000Z</time>
      </trkpt>
      <trkpt lat="49.84986" lon="4.78912">
        <ele>337</ele>
        <time>2022-09-28T09:00:08.000Z</time>
      </trkpt>
      <trkpt lat="49.84984" lon="4.78915">
        <ele>337</ele>
        <time>2022-09-28T09:00:09.000Z</time>
      </trkpt>
      <trkpt lat="49.84982" lon="4.78919">
        <ele>337</ele>
        <time>2022-09-28T09:00:10.000Z</time>
      </trkpt>
      <trkpt lat="49.8498" lon="4.78923">
        <ele>337</ele>
        <time>2022-09-28T09:00:11.000Z</time>
      </trkpt>
      <trkpt lat="49.84978" lon="4.78926">
        <ele>337</ele>
        <time>2022-09-28T09:00:12.000Z</time>
      </trkpt>
      <trkpt lat="49.84976" lon="4.78929">
        <ele>337</ele>
        <time>2022-09-28T09:00:13.000Z</time>
      </trkpt>
      <trkpt lat="49.84975" lon="4.78932">
        <ele>337</ele>
        <time>2022-09-28T09:00:14.000Z</time>
      </trkpt>
      <trkpt lat="49.84972" lon="4.78936">
        <ele>337</ele>
        <time>2022-09-28T09:00:15.000Z</time>
      </trkpt>
      <trkpt lat="49.8497" lon="4.78939">
        <ele>337</ele>
        <time>2022-09-28T09:00:16.000Z</time>
      </trkpt>
      <trkpt lat="49.84967" lon="4.78942">
        <ele>338</ele>
        <time>2022-09-28T09:00:17.000Z</time>
      </trkpt>
      <trkpt lat="49.84965" lon="4.78946">
        <ele>338</ele>
        <time>2022-09-28T09:00:18.000Z</time>
      </trkpt>
      <trkpt lat="49.84962" lon="4.7895">
        <ele>338</ele>
        <time>2022-09-28T09:00:19.000Z</time>
      </trkpt>
      <trkpt lat="49.8496" lon="4.78954">
        <ele>338</ele>
        <time>2022-09-28T09:00:20.000Z</time>
      </trkpt>
      <trkpt lat="49.84959" lon="4.78959">
        <ele>338</ele>
        <time>2022-09-28T09:00:21.000Z</time>
      </trkpt>
      <trkpt lat="49.84957" lon="4.78964">
        <ele>338</ele>
        <time>2022-09-28T09:00:22.000Z</time>
      </trkpt>
      <trkpt lat="49.84955" lon="4.78968">
        <ele>338</ele>
        <time>2022-09-28T09:00:23.000Z</time>
      </trkpt>
      <trkpt lat="49.84952" lon="4.78971">
        <ele>338</ele>
        <time>2022-09-28T09:00:24.000Z</time>
      </trkpt>
      <trkpt lat="49.8495" lon="4.78976">
        <ele>338</ele>
        <time>2022-09-28T09:00:25.000Z</time>
      </trkpt>
      <trkpt lat="49.84947" lon="4.7898">
        <ele>339</ele>
        <time>2022-09-28T09:00:26.000Z</time>
      </trkpt>
      <trkpt lat="49.84944" lon="4.78983">
        <ele>339</ele>
        <time>2022-09-28T09:00:27.000Z</time>
      </trkpt>
      <trkpt lat="49.84943" lon="4.78986">
        <ele>339</ele>
        <time>2022-09-28T09:00:28.000Z</time>
      </trkpt>
      <trkpt lat="49.84942" lon="4.78989">
        <ele>339</ele>
        <time>2022-09-28T09:00:29.000Z</time>
      </trkpt>
      <trkpt lat="49.84941" lon="4.78992">
        <ele>339</ele>
        <time>2022-09-28T09:00:30.000Z</time>
      </trkpt>
      <trkpt lat="49.84941" lon="4.78996">
        <ele>339</ele>
        <time>2022-09-28T09:00:31.000Z</time>
      </trkpt>
      <trkpt lat="49.84941" lon="4.79">
        <ele>339</ele>
        <time>2022-09-28T09:00:32.000Z</time>
      </trkpt>
      <trkpt lat="49.8494" lon="4.79005">
        <ele>340</ele>
        <time>2022-09-28T09:00:33.000Z</time>
      </trkpt>
      <trkpt lat="49.84939" lon="4.79009">
        <ele>340</ele>
        <time>2022-09-28T09:00:34.000Z</time>
      </trkpt>
      <trkpt lat="49.84937" lon="4.79012">
        <ele>340</ele>
        <time>2022-09-28T09:00:35.000Z</time>
      </trkpt>
      <trkpt lat="49.84935" lon="4.79016">
        <ele>340</ele>
        <time>2022-09-28T09:00:36.000Z</time>
      </trkpt>
      <trkpt lat="49.84932" lon="4.79019">
        <ele>340</ele>
        <time>2022-09-28T09:00:37.000Z</time>
      </trkpt>
      <trkpt lat="49.8493" lon="4.79023">
        <ele>340</ele>
        <time>2022-09-28T09:00:38.000Z</time>
      </trkpt>
      <trkpt lat="49.84928" lon="4.79026">
        <ele>340</ele>
        <time>2022-09-28T09:00:39.000Z</time>
      </trkpt>
      <trkpt lat="49.84927" lon="4.79031">
        <ele>341</ele>
        <time>2022-09-28T09:00:40.000Z</time>
      </trkpt>
      <trkpt lat="49.84925" lon="4.79036">
        <ele>341</ele>
        <time>2022-09-28T09:00:41.000Z</time>
      </trkpt>
      <trkpt lat="49.84923" lon="4.7904">
        <ele>341</ele>
        <time>2022-09-28T09:00:42.000Z</time>
      </trkpt>
      <trkpt lat="49.84921" lon="4.79045">
        <ele>341</ele>
        <time>2022-09-28T09:00:43.000Z</time>
      </trkpt>
      <trkpt lat="49.8492" lon="4.79049">
        <ele>341</ele>
        <time>2022-09-28T09:00:44.000Z</time>
      </trkpt>
      <trkpt lat="49.84919" lon="4.79052">
        <ele>341</ele>
        <time>2022-09-28T09:00:45.000Z</time>
      </trkpt>
      <trkpt lat="49.84918" lon="4.79057">
        <ele>342</ele>
        <time>2022-09-28T09:00:46.000Z</time>
      </trkpt>
      <trkpt lat="49.84916" lon="4.79061">
        <ele>342</ele>
        <time>2022-09-28T09:00:47.000Z</time>
      </trkpt>
      <trkpt lat="49.84915" lon="4.79066">
        <ele>342</ele>
        <time>2022-09-28T09:00:48.000Z</time>
      </trkpt>
      <trkpt lat="49.84913" lon="4.7907">
        <ele>342</ele>
        <time>2022-09-28T09:00:49.000Z</time>
      </trkpt>
      <trkpt lat="49.84912" lon="4.79075">
        <ele>343</ele>
        <time>2022-09-28T09:00:50.000Z</time>
      </trkpt>
      <trkpt lat="49.84911" lon="4.79079">
        <ele>343</ele>
        <time>2022-09-28T09:00:51.000Z</time>
      </trkpt>
      <trkpt lat="49.84909" lon="4.79083">
        <ele>343</ele>
        <time>2022-09-28T09:00:52.000Z</time>
      </trkpt>
      <trkpt lat="49.84908" lon="4.79087">
        <ele>343</ele>
        <time>2022-09-28T09:00:53.000Z</time>
      </trkpt>
      <trkpt lat="49.84907" lon="4.79091">
        <ele>344</ele>
        <time>2022-09-28T09:00:54.000Z</time>
      </trkpt>
      <trkpt lat="49.84906" lon="4.79096">
        <ele>344</ele>
        <time>2022-09-28T09:00:55.000Z</time>
      </trkpt>
      <trkpt lat="49.84905" lon="4.791">
        <ele>344</ele>
        <time>2022-09-28T09:00:56.000Z</time>
      </trkpt>
      <trkpt lat="49.84904" lon="4.79104">
        <ele>345</ele>
        <time>2022-09-28T09:00:57.000Z</time>
      </trkpt>
      <trkpt lat="49.84903" lon="4.79109">
        <ele>345</ele>
        <time>2022-09-28T09:00:58.000Z</time>
      </trkpt>
      <trkpt lat="49.84902" lon="4.79113">
        <ele>345</ele>
        <time>2022-09-28T09:00:59.000Z</time>
      </trkpt>
      <trkpt lat="49.84901" lon="4.79117">
        <ele>345</ele>
        <time>2022-09-28T09:01:00.000Z</time>
      </trkpt>
      <trkpt lat="49.849" lon="4.79122">
        <ele>346</ele>
        <time>2022-09-28T09:01:01.000Z</time>
      </trkpt>
      <trkpt lat="49.84899" lon="4.79126">
        <ele>346</ele>
        <time>2022-09-28T09:01:02.000Z</time>
      </trkpt>
      <trkpt lat="49.84898" lon="4.7913">
        <ele>346</ele>
        <time>2022-09-28T09:01:03.000Z</time>
      </trkpt>
      <trkpt lat="49.84897" lon="4.79135">
        <ele>346</ele>
        <time>2022-09-28T09:01:04.000Z</time>
      </trkpt>
      <trkpt lat="49.84896" lon="4.7914">
        <ele>346</ele>
        <time>2022-09-28T09:01:05.000Z</time>
      </trkpt>
      <trkpt lat="49.84895" lon="4.79145">
        <ele>346</ele>
        <time>2022-09-28T09:01:06.000Z</time>
      </trkpt>
      <trkpt lat="49.84895" lon="4.7915">
        <ele>346</ele>
        <time>2022-09-28T09:01:07.000Z</time>
      </trkpt>
      <trkpt lat="49.84894" lon="4.79154">
        <ele>346</ele>
        <time>2022-09-28T09:01:08.000Z</time>
      </trkpt>
      <trkpt lat="49.84894" lon="4.79159">
        <ele>346</ele>
        <time>2022-09-28T09:01:09.000Z</time>
      </trkpt>
      <trkpt lat="49.84893" lon="4.79164">
        <ele>346</ele>
        <time>2022-09-28T09:01:10.000Z</time>
      </trkpt>
      <trkpt lat="49.84892" lon="4.79169">
        <ele>346</ele>
        <time>2022-09-28T09:01:11.000Z</time>
      </trkpt>
      <trkpt lat="49.84892" lon="4.79175">
        <ele>346</ele>
        <time>2022-09-28T09:01:12.000Z</time>
      </trkpt>
      <trkpt lat="49.84892" lon="4.79179">
        <ele>346</ele>
        <time>2022-09-28T09:01:13.000Z</time>
      </trkpt>
      <trkpt lat="49.84892" lon="4.79183">
        <ele>346</ele>
        <time>2022-09-28T09:01:14.000Z</time>
      </trkpt>
      <trkpt lat="49.84891" lon="4.79188">
        <ele>346</ele>
        <time>2022-09-28T09:01:15.000Z</time>
      </trkpt>
      <trkpt lat="49.84891" lon="4.79194">
        <ele>346</ele>
        <time>2022-09-28T09:01:16.000Z</time>
      </trkpt>
      <trkpt lat="49.84891" lon="4.792">
        <ele>346</ele>
        <time>2022-09-28T09:01:17.000Z</time>
      </trkpt>
      <trkpt lat="49.84891" lon="4.79205">
        <ele>346</ele>
        <time>2022-09-28T09:01:18.000Z</time>
      </trkpt>
      <trkpt lat="49.84891" lon="4.79211">
        <ele>346</ele>
        <time>2022-09-28T09:01:19.000Z</time>
      </trkpt>
      <trkpt lat="49.8489" lon="4.79216">
        <ele>346</ele>
        <time>2022-09-28T09:01:20.000Z</time>
      </trkpt>
      <trkpt lat="49.84889" lon="4.79222">
        <ele>346</ele>
        <time>2022-09-28T09:01:21.000Z</time>
      </trkpt>
      <trkpt lat="49.84888" lon="4.79227">
        <ele>346</ele>
        <time>2022-09-28T09:01:22.000Z</time>
      </trkpt>
      <trkpt lat="49.84887" lon="4.79233">
        <ele>346</ele>
        <time>2022-09-28T09:01:23.000Z</time>
      </trkpt>
      <trkpt lat="49.84886" lon="4.79239">
        <ele>346</ele>
        <time>2022-09-28T09:01:24.000Z</time>
      </trkpt>
      <trkpt lat="49.84885" lon="4.79245">
        <ele>346</ele>
        <time>2022-09-28T09:01:25.000Z</time>
      </trkpt>
      <trkpt lat="49.84884" lon="4.79251">
        <ele>346</ele>
        <time>2022-09-28T09:01:26.000Z</time>
      </trkpt>
      <trkpt lat="49.84883" lon="4.79257">
        <ele>346</ele>
        <time>2022-09-28T09:01:27.000Z</time>
      </trkpt>
      <trkpt lat="49.84883" lon="4.79264">
        <ele>346</ele>
        <time>2022-09-28T09:01:28.000Z</time>
      </trkpt>
      <trkpt lat="49.84882" lon="4.7927">
        <ele>346</ele>
        <time>2022-09-28T09:01:29.000Z</time>
      </trkpt>
      <trkpt lat="49.84882" lon="4.79276">
        <ele>346</ele>
        <time>2022-09-28T09:01:30.000Z</time>
      </trkpt>
      <trkpt lat="49.84881" lon="4.79282">
        <ele>346</ele>
        <time>2022-09-28T09:01:31.000Z</time>
      </trkpt>
      <trkpt lat="49.8488" lon="4.79288">
        <ele>346</ele>
        <time>2022-09-28T09:01:32.000Z</time>
      </trkpt>
      <trkpt lat="49.84879" lon="4.79294">
        <ele>346</ele>
        <time>2022-09-28T09:01:33.000Z</time>
      </trkpt>
      <trkpt lat="49.84878" lon="4.793">
        <ele>346</ele>
        <time>2022-09-28T09:01:34.000Z</time>
      </trkpt>
      <trkpt lat="49.84877" lon="4.79306">
        <ele>346</ele>
        <time>2022-09-28T09:01:35.000Z</time>
      </trkpt>
      <trkpt lat="49.84876" lon="4.79312">
        <ele>346</ele>
        <time>2022-09-28T09:01:36.000Z</time>
      </trkpt>
      <trkpt lat="49.84875" lon="4.79318">
        <ele>346</ele>
        <time>2022-09-28T09:01:37.000Z</time>
      </trkpt>
      <trkpt lat="49.84874" lon="4.79324">
        <ele>346</ele>
        <time>2022-09-28T09:01:38.000Z</time>
      </trkpt>
      <trkpt lat="49.84873" lon="4.7933">
        <ele>347</ele>
        <time>2022-09-28T09:01:39.000Z</time>
      </trkpt>
      <trkpt lat="49.84873" lon="4.79336">
        <ele>347</ele>
        <time>2022-09-28T09:01:40.000Z</time>
      </trkpt>
      <trkpt lat="49.84873" lon="4.79341">
        <ele>347</ele>
        <time>2022-09-28T09:01:41.000Z</time>
      </trkpt>
      <trkpt lat="49.84874" lon="4.79346">
        <ele>347</ele>
        <time>2022-09-28T09:01:42.000Z</time>
      </trkpt>
      <trkpt lat="49.84874" lon="4.79352">
        <ele>347</ele>
        <time>2022-09-28T09:01:43.000Z</time>
      </trkpt>
      <trkpt lat="49.84874" lon="4.79358">
        <ele>347</ele>
        <time>2022-09-28T09:01:44.000Z</time>
      </trkpt>
      <trkpt lat="49.84874" lon="4.79364">
        <ele>347</ele>
        <time>2022-09-28T09:01:45.000Z</time>
      </trkpt>
      <trkpt lat="49.84872" lon="4.79369">
        <ele>347</ele>
        <time>2022-09-28T09:01:46.000Z</time>
      </trkpt>
      <trkpt lat="49.84871" lon="4.79374">
        <ele>347</ele>
        <time>2022-09-28T09:01:47.000Z</time>
      </trkpt>
      <trkpt lat="49.84869" lon="4.79379">
        <ele>347</ele>
        <time>2022-09-28T09:01:48.000Z</time>
      </trkpt>
      <trkpt lat="49.84867" lon="4.79383">
        <ele>347</ele>
        <time>2022-09-28T09:01:49.000Z</time>
      </trkpt>
      <trkpt lat="49.84865" lon="4.79388">
        <ele>347</ele>
        <time>2022-09-28T09:01:50.000Z</time>
      </trkpt>
      <trkpt lat="49.84864" lon="4.79392">
        <ele>347</ele>
        <time>2022-09-28T09:01:51.000Z</time>
      </trkpt>
      <trkpt lat="49.84862" lon="4.79398">
        <ele>347</ele>
        <time>2022-09-28T09:01:52.000Z</time>
      </trkpt>
      <trkpt lat="49.84861" lon="4.79404">
        <ele>347</ele>
        <time>2022-09-28T09:01:53.000Z</time>
      </trkpt>
      <trkpt lat="49.8486" lon="4.79409">
        <ele>347</ele>
        <time>2022-09-28T09:01:54.000Z</time>
      </trkpt>
      <trkpt lat="49.84859" lon="4.79414">
        <ele>347</ele>
        <time>2022-09-28T09:01:55.000Z</time>
      </trkpt>
      <trkpt lat="49.84858" lon="4.79419">
        <ele>348</ele>
        <time>2022-09-28T09:01:56.000Z</time>
      </trkpt>
      <trkpt lat="49.84857" lon="4.79424">
        <ele>348</ele>
        <time>2022-09-28T09:01:57.000Z</time>
      </trkpt>
      <trkpt lat="49.84856" lon="4.79428">
        <ele>348</ele>
        <time>2022-09-28T09:01:58.000Z</time>
      </trkpt>
      <trkpt lat="49.84855" lon="4.79433">
        <ele>348</ele>
        <time>2022-09-28T09:01:59.000Z</time>
      </trkpt>
      <trkpt lat="49.84853" lon="4.79438">
        <ele>348</ele>
        <time>2022-09-28T09:02:00.000Z</time>
      </trkpt>
      <trkpt lat="49.84852" lon="4.79444">
        <ele>348</ele>
        <time>2022-09-28T09:02:01.000Z</time>
      </trkpt>
      <trkpt lat="49.8485" lon="4.7945">
        <ele>348</ele>
        <time>2022-09-28T09:02:02.000Z</time>
      </trkpt>
      <trkpt lat="49.84848" lon="4.79455">
        <ele>348</ele>
        <time>2022-09-28T09:02:03.000Z</time>
      </trkpt>
      <trkpt lat="49.84846" lon="4.79461">
        <ele>348</ele>
        <time>2022-09-28T09:02:04.000Z</time>
      </trkpt>
      <trkpt lat="49.84845" lon="4.79466">
        <ele>348</ele>
        <time>2022-09-28T09:02:05.000Z</time>
      </trkpt>
      <trkpt lat="49.84843" lon="4.79471">
        <ele>348</ele>
        <time>2022-09-28T09:02:06.000Z</time>
      </trkpt>
      <trkpt lat="49.84841" lon="4.79475">
        <ele>349</ele>
        <time>2022-09-28T09:02:07.000Z</time>
      </trkpt>
      <trkpt lat="49.84839" lon="4.7948">
        <ele>349</ele>
        <time>2022-09-28T09:02:08.000Z</time>
      </trkpt>
      <trkpt lat="49.84837" lon="4.79486">
        <ele>349</ele>
        <time>2022-09-28T09:02:09.000Z</time>
      </trkpt>
      <trkpt lat="49.84834" lon="4.79491">
        <ele>349</ele>
        <time>2022-09-28T09:02:10.000Z</time>
      </trkpt>
      <trkpt lat="49.84832" lon="4.79495">
        <ele>349</ele>
        <time>2022-09-28T09:02:11.000Z</time>
      </trkpt>
      <trkpt lat="49.8483" lon="4.79499">
        <ele>349</ele>
        <time>2022-09-28T09:02:12.000Z</time>
      </trkpt>
      <trkpt lat="49.84829" lon="4.79502">
        <ele>350</ele>
        <time>2022-09-28T09:02:13.000Z</time>
      </trkpt>
      <trkpt lat="49.84827" lon="4.79506">
        <ele>350</ele>
        <time>2022-09-28T09:02:14.000Z</time>
      </trkpt>
      <trkpt lat="49.84825" lon="4.79509">
        <ele>350</ele>
        <time>2022-09-28T09:02:15.000Z</time>
      </trkpt>
      <trkpt lat="49.84823" lon="4.79513">
        <ele>350</ele>
        <time>2022-09-28T09:02:16.000Z</time>
      </trkpt>
      <trkpt lat="49.84821" lon="4.79517">
        <ele>350</ele>
        <time>2022-09-28T09:02:17.000Z</time>
      </trkpt>
      <trkpt lat="49.84819" lon="4.79521">
        <ele>350</ele>
        <time>2022-09-28T09:02:18.000Z</time>
      </trkpt>
      <trkpt lat="49.84817" lon="4.79525">
        <ele>350</ele>
        <time>2022-09-28T09:02:19.000Z</time>
      </trkpt>
      <trkpt lat="49.84816" lon="4.79529">
        <ele>350</ele>
        <time>2022-09-28T09:02:20.000Z</time>
      </trkpt>
      <trkpt lat="49.84815" lon="4.79532">
        <ele>350</ele>
        <time>2022-09-28T09:02:21.000Z</time>
      </trkpt>
      <trkpt lat="49.84813" lon="4.79535">
        <ele>351</ele>
        <time>2022-09-28T09:02:22.000Z</time>
      </trkpt>
      <trkpt lat="49.84811" lon="4.79538">
        <ele>351</ele>
        <time>2022-09-28T09:02:23.000Z</time>
      </trkpt>
      <trkpt lat="49.8481" lon="4.79541">
        <ele>351</ele>
        <time>2022-09-28T09:02:24.000Z</time>
      </trkpt>
      <trkpt lat="49.84808" lon="4.79544">
        <ele>351</ele>
        <time>2022-09-28T09:02:25.000Z</time>
      </trkpt>
      <trkpt lat="49.84807" lon="4.79547">
        <ele>351</ele>
        <time>2022-09-28T09:02:26.000Z</time>
      </trkpt>
      <trkpt lat="49.84806" lon="4.79549">
        <ele>351</ele>
        <time>2022-09-28T09:02:27.000Z</time>
      </trkpt>
      <trkpt lat="49.84805" lon="4.79552">
        <ele>351</ele>
        <time>2022-09-28T09:02:28.000Z</time>
      </trkpt>
      <trkpt lat="49.84804" lon="4.79556">
        <ele>351</ele>
        <time>2022-09-28T09:02:29.000Z</time>
      </trkpt>
      <trkpt lat="49.84803" lon="4.7956">
        <ele>352</ele>
        <time>2022-09-28T09:02:30.000Z</time>
      </trkpt>
      <trkpt lat="49.84802" lon="4.79563">
        <ele>352</ele>
        <time>2022-09-28T09:02:31.000Z</time>
      </trkpt>
      <trkpt lat="49.84801" lon="4.79567">
        <ele>352</ele>
        <time>2022-09-28T09:02:32.000Z</time>
      </trkpt>
      <trkpt lat="49.848" lon="4.7957">
        <ele>352</ele>
        <time>2022-09-28T09:02:33.000Z</time>
      </trkpt>
      <trkpt lat="49.848" lon="4.79574">
        <ele>352</ele>
        <time>2022-09-28T09:02:34.000Z</time>
      </trkpt>
      <trkpt lat="49.848" lon="4.79578">
        <ele>352</ele>
        <time>2022-09-28T09:02:35.000Z</time>
      </trkpt>
      <trkpt lat="49.84801" lon="4.79582">
        <ele>352</ele>
        <time>2022-09-28T09:02:36.000Z</time>
      </trkpt>
      <trkpt lat="49.84802" lon="4.79587">
        <ele>352</ele>
        <time>2022-09-28T09:02:37.000Z</time>
      </trkpt>
      <trkpt lat="49.84802" lon="4.79591">
        <ele>353</ele>
        <time>2022-09-28T09:02:38.000Z</time>
      </trkpt>
      <trkpt lat="49.84802" lon="4.79595">
        <ele>353</ele>
        <time>2022-09-28T09:02:39.000Z</time>
      </trkpt>
      <trkpt lat="49.84802" lon="4.796">
        <ele>353</ele>
        <time>2022-09-28T09:02:40.000Z</time>
      </trkpt>
      <trkpt lat="49.84802" lon="4.79604">
        <ele>353</ele>
        <time>2022-09-28T09:02:41.000Z</time>
      </trkpt>
      <trkpt lat="49.84802" lon="4.79609">
        <ele>353</ele>
        <time>2022-09-28T09:02:42.000Z</time>
      </trkpt>
      <trkpt lat="49.84802" lon="4.79613">
        <ele>353</ele>
        <time>2022-09-28T09:02:43.000Z</time>
      </trkpt>
      <trkpt lat="49.84803" lon="4.79617">
        <ele>354</ele>
        <time>2022-09-28T09:02:44.000Z</time>
      </trkpt>
      <trkpt lat="49.84802" lon="4.79621">
        <ele>354</ele>
        <time>2022-09-28T09:02:45.000Z</time>
      </trkpt>
      <trkpt lat="49.84802" lon="4.79624">
        <ele>354</ele>
        <time>2022-09-28T09:02:46.000Z</time>
      </trkpt>
      <trkpt lat="49.84803" lon="4.79628">
        <ele>354</ele>
        <time>2022-09-28T09:02:47.000Z</time>
      </trkpt>
      <trkpt lat="49.84803" lon="4.79632">
        <ele>355</ele>
        <time>2022-09-28T09:02:48.000Z</time>
      </trkpt>
      <trkpt lat="49.84803" lon="4.79636">
        <ele>355</ele>
        <time>2022-09-28T09:02:49.000Z</time>
      </trkpt>
      <trkpt lat="49.84803" lon="4.79641">
        <ele>355</ele>
        <time>2022-09-28T09:02:50.000Z</time>
      </trkpt>
      <trkpt lat="49.84803" lon="4.79646">
        <ele>355</ele>
        <time>2022-09-28T09:02:51.000Z</time>
      </trkpt>
      <trkpt lat="49.84803" lon="4.7965">
        <ele>355</ele>
        <time>2022-09-28T09:02:52.000Z</time>
      </trkpt>
      <trkpt lat="49.84803" lon="4.79655">
        <ele>356</ele>
        <time>2022-09-28T09:02:53.000Z</time>
      </trkpt>
      <trkpt lat="49.84803" lon="4.79659">
        <ele>356</ele>
        <time>2022-09-28T09:02:54.000Z</time>
      </trkpt>
      <trkpt lat="49.84803" lon="4.79663">
        <ele>356</ele>
        <time>2022-09-28T09:02:55.000Z</time>
      </trkpt>
      <trkpt lat="49.84804" lon="4.79667">
        <ele>356</ele>
        <time>2022-09-28T09:02:56.000Z</time>
      </trkpt>
      <trkpt lat="49.84804" lon="4.79672">
        <ele>357</ele>
        <time>2022-09-28T09:02:57.000Z</time>
      </trkpt>
      <trkpt lat="49.84804" lon="4.79676">
        <ele>357</ele>
        <time>2022-09-28T09:02:58.000Z</time>
      </trkpt>
      <trkpt lat="49.84805" lon="4.7968">
        <ele>357</ele>
        <time>2022-09-28T09:02:59.000Z</time>
      </trkpt>
      <trkpt lat="49.84804" lon="4.79685">
        <ele>358</ele>
        <time>2022-09-28T09:03:00.000Z</time>
      </trkpt>
      <trkpt lat="49.84805" lon="4.7969">
        <ele>358</ele>
        <time>2022-09-28T09:03:01.000Z</time>
      </trkpt>
      <trkpt lat="49.84805" lon="4.79694">
        <ele>358</ele>
        <time>2022-09-28T09:03:02.000Z</time>
      </trkpt>
      <trkpt lat="49.84805" lon="4.79698">
        <ele>358</ele>
        <time>2022-09-28T09:03:03.000Z</time>
      </trkpt>
      <trkpt lat="49.84805" lon="4.79702">
        <ele>359</ele>
        <time>2022-09-28T09:03:04.000Z</time>
      </trkpt>
      <trkpt lat="49.84804" lon="4.79706">
        <ele>359</ele>
        <time>2022-09-28T09:03:05.000Z</time>
      </trkpt>
      <trkpt lat="49.84804" lon="4.79711">
        <ele>359</ele>
        <time>2022-09-28T09:03:06.000Z</time>
      </trkpt>
      <trkpt lat="49.84804" lon="4.79715">
        <ele>359</ele>
        <time>2022-09-28T09:03:07.000Z</time>
      </trkpt>
      <trkpt lat="49.84805" lon="4.7972">
        <ele>360</ele>
        <time>2022-09-28T09:03:08.000Z</time>
      </trkpt>
      <trkpt lat="49.84806" lon="4.79725">
        <ele>360</ele>
        <time>2022-09-28T09:03:09.000Z</time>
      </trkpt>
      <trkpt lat="49.84806" lon="4.79729">
        <ele>360</ele>
        <time>2022-09-28T09:03:10.000Z</time>
      </trkpt>
      <trkpt lat="49.84807" lon="4.79734">
        <ele>360</ele>
        <time>2022-09-28T09:03:11.000Z</time>
      </trkpt>
      <trkpt lat="49.84807" lon="4.79739">
        <ele>361</ele>
        <time>2022-09-28T09:03:12.000Z</time>
      </trkpt>
      <trkpt lat="49.84807" lon="4.79744">
        <ele>361</ele>
        <time>2022-09-28T09:03:13.000Z</time>
      </trkpt>
      <trkpt lat="49.84808" lon="4.79749">
        <ele>361</ele>
        <time>2022-09-28T09:03:14.000Z</time>
      </trkpt>
      <trkpt lat="49.84808" lon="4.79754">
        <ele>361</ele>
        <time>2022-09-28T09:03:15.000Z</time>
      </trkpt>
      <trkpt lat="49.84808" lon="4.79758">
        <ele>361</ele>
        <time>2022-09-28T09:03:16.000Z</time>
      </trkpt>
      <trkpt lat="49.84808" lon="4.79763">
        <ele>362</ele>
        <time>2022-09-28T09:03:17.000Z</time>
      </trkpt>
      <trkpt lat="49.84808" lon="4.79766">
        <ele>362</ele>
        <time>2022-09-28T09:03:18.000Z</time>
      </trkpt>
      <trkpt lat="49.84808" lon="4.79769">
        <ele>362</ele>
        <time>2022-09-28T09:03:19.000Z</time>
      </trkpt>
      <trkpt lat="49.84809" lon="4.79773">
        <ele>362</ele>
        <time>2022-09-28T09:03:20.000Z</time>
      </trkpt>
      <trkpt lat="49.84809" lon="4.79778">
        <ele>363</ele>
        <time>2022-09-28T09:03:21.000Z</time>
      </trkpt>
      <trkpt lat="49.8481" lon="4.79782">
        <ele>363</ele>
        <time>2022-09-28T09:03:22.000Z</time>
      </trkpt>
      <trkpt lat="49.84811" lon="4.79785">
        <ele>363</ele>
        <time>2022-09-28T09:03:23.000Z</time>
      </trkpt>
      <trkpt lat="49.84812" lon="4.79789">
        <ele>363</ele>
        <time>2022-09-28T09:03:24.000Z</time>
      </trkpt>
      <trkpt lat="49.84812" lon="4.79793">
        <ele>363</ele>
        <time>2022-09-28T09:03:25.000Z</time>
      </trkpt>
      <trkpt lat="49.84813" lon="4.79796">
        <ele>363</ele>
        <time>2022-09-28T09:03:26.000Z</time>
      </trkpt>
      <trkpt lat="49.84814" lon="4.798">
        <ele>364</ele>
        <time>2022-09-28T09:03:27.000Z</time>
      </trkpt>
      <trkpt lat="49.84815" lon="4.79804">
        <ele>364</ele>
        <time>2022-09-28T09:03:28.000Z</time>
      </trkpt>
      <trkpt lat="49.84815" lon="4.79808">
        <ele>364</ele>
        <time>2022-09-28T09:03:29.000Z</time>
      </trkpt>
      <trkpt lat="49.84816" lon="4.79812">
        <ele>364</ele>
        <time>2022-09-28T09:03:30.000Z</time>
      </trkpt>
      <trkpt lat="49.84817" lon="4.79816">
        <ele>365</ele>
        <time>2022-09-28T09:03:31.000Z</time>
      </trkpt>
      <trkpt lat="49.84817" lon="4.79819">
        <ele>365</ele>
        <time>2022-09-28T09:03:32.000Z</time>
      </trkpt>
      <trkpt lat="49.84818" lon="4.79823">
        <ele>365</ele>
        <time>2022-09-28T09:03:33.000Z</time>
      </trkpt>
      <trkpt lat="49.84819" lon="4.79826">
        <ele>365</ele>
        <time>2022-09-28T09:03:34.000Z</time>
      </trkpt>
      <trkpt lat="49.84819" lon="4.79831">
        <ele>365</ele>
        <time>2022-09-28T09:03:35.000Z</time>
      </trkpt>
      <trkpt lat="49.8482" lon="4.79835">
        <ele>366</ele>
        <time>2022-09-28T09:03:36.000Z</time>
      </trkpt>
      <trkpt lat="49.84821" lon="4.79839">
        <ele>366</ele>
        <time>2022-09-28T09:03:37.000Z</time>
      </trkpt>
      <trkpt lat="49.84821" lon="4.79843">
        <ele>366</ele>
        <time>2022-09-28T09:03:38.000Z</time>
      </trkpt>
      <trkpt lat="49.84823" lon="4.79848">
        <ele>366</ele>
        <time>2022-09-28T09:03:39.000Z</time>
      </trkpt>
      <trkpt lat="49.84824" lon="4.79852">
        <ele>366</ele>
        <time>2022-09-28T09:03:40.000Z</time>
      </trkpt>
      <trkpt lat="49.84825" lon="4.79857">
        <ele>367</ele>
        <time>2022-09-28T09:03:41.000Z</time>
      </trkpt>
      <trkpt lat="49.84825" lon="4.79861">
        <ele>367</ele>
        <time>2022-09-28T09:03:42.000Z</time>
      </trkpt>
      <trkpt lat="49.84826" lon="4.79866">
        <ele>367</ele>
        <time>2022-09-28T09:03:43.000Z</time>
      </trkpt>
      <trkpt lat="49.84827" lon="4.7987">
        <ele>368</ele>
        <time>2022-09-28T09:03:44.000Z</time>
      </trkpt>
      <trkpt lat="49.84828" lon="4.79876">
        <ele>368</ele>
        <time>2022-09-28T09:03:45.000Z</time>
      </trkpt>
      <trkpt lat="49.84828" lon="4.7988">
        <ele>368</ele>
        <time>2022-09-28T09:03:46.000Z</time>
      </trkpt>
      <trkpt lat="49.84827" lon="4.79885">
        <ele>368</ele>
        <time>2022-09-28T09:03:47.000Z</time>
      </trkpt>
      <trkpt lat="49.84827" lon="4.7989">
        <ele>369</ele>
        <time>2022-09-28T09:03:48.000Z</time>
      </trkpt>
      <trkpt lat="49.84827" lon="4.79895">
        <ele>369</ele>
        <time>2022-09-28T09:03:49.000Z</time>
      </trkpt>
      <trkpt lat="49.84828" lon="4.799">
        <ele>369</ele>
        <time>2022-09-28T09:03:50.000Z</time>
      </trkpt>
      <trkpt lat="49.84828" lon="4.79905">
        <ele>369</ele>
        <time>2022-09-28T09:03:51.000Z</time>
      </trkpt>
      <trkpt lat="49.84828" lon="4.79909">
        <ele>369</ele>
        <time>2022-09-28T09:03:52.000Z</time>
      </trkpt>
      <trkpt lat="49.84828" lon="4.79913">
        <ele>370</ele>
        <time>2022-09-28T09:03:53.000Z</time>
      </trkpt>
      <trkpt lat="49.84827" lon="4.79918">
        <ele>370</ele>
        <time>2022-09-28T09:03:54.000Z</time>
      </trkpt>
      <trkpt lat="49.84826" lon="4.79923">
        <ele>370</ele>
        <time>2022-09-28T09:03:55.000Z</time>
      </trkpt>
      <trkpt lat="49.84825" lon="4.79929">
        <ele>370</ele>
        <time>2022-09-28T09:03:56.000Z</time>
      </trkpt>
      <trkpt lat="49.84825" lon="4.79934">
        <ele>370</ele>
        <time>2022-09-28T09:03:57.000Z</time>
      </trkpt>
      <trkpt lat="49.84824" lon="4.79939">
        <ele>370</ele>
        <time>2022-09-28T09:03:58.000Z</time>
      </trkpt>
      <trkpt lat="49.84823" lon="4.79943">
        <ele>371</ele>
        <time>2022-09-28T09:03:59.000Z</time>
      </trkpt>
      <trkpt lat="49.84823" lon="4.79947">
        <ele>371</ele>
        <time>2022-09-28T09:04:00.000Z</time>
      </trkpt>
      <trkpt lat="49.84822" lon="4.7995">
        <ele>371</ele>
        <time>2022-09-28T09:04:01.000Z</time>
      </trkpt>
      <trkpt lat="49.84821" lon="4.79953">
        <ele>371</ele>
        <time>2022-09-28T09:04:02.000Z</time>
      </trkpt>
      <trkpt lat="49.8482" lon="4.79957">
        <ele>371</ele>
        <time>2022-09-28T09:04:03.000Z</time>
      </trkpt>
      <trkpt lat="49.84819" lon="4.79961">
        <ele>372</ele>
        <time>2022-09-28T09:04:04.000Z</time>
      </trkpt>
      <trkpt lat="49.84819" lon="4.79964">
        <ele>372</ele>
        <time>2022-09-28T09:04:05.000Z</time>
      </trkpt>
      <trkpt lat="49.84819" lon="4.79968">
        <ele>372</ele>
        <time>2022-09-28T09:04:06.000Z</time>
      </trkpt>
      <trkpt lat="49.84819" lon="4.79973">
        <ele>372</ele>
        <time>2022-09-28T09:04:07.000Z</time>
      </trkpt>
      <trkpt lat="49.84818" lon="4.79977">
        <ele>372</ele>
        <time>2022-09-28T09:04:08.000Z</time>
      </trkpt>
      <trkpt lat="49.84818" lon="4.79982">
        <ele>373</ele>
        <time>2022-09-28T09:04:09.000Z</time>
      </trkpt>
      <trkpt lat="49.84817" lon="4.79988">
        <ele>373</ele>
        <time>2022-09-28T09:04:10.000Z</time>
      </trkpt>
      <trkpt lat="49.84816" lon="4.79992">
        <ele>373</ele>
        <time>2022-09-28T09:04:11.000Z</time>
      </trkpt>
      <trkpt lat="49.84815" lon="4.79997">
        <ele>373</ele>
        <time>2022-09-28T09:04:12.000Z</time>
      </trkpt>
      <trkpt lat="49.84814" lon="4.80002">
        <ele>373</ele>
        <time>2022-09-28T09:04:13.000Z</time>
      </trkpt>
      <trkpt lat="49.84812" lon="4.80007">
        <ele>373</ele>
        <time>2022-09-28T09:04:14.000Z</time>
      </trkpt>
      <trkpt lat="49.8481" lon="4.80013">
        <ele>373</ele>
        <time>2022-09-28T09:04:15.000Z</time>
      </trkpt>
      <trkpt lat="49.84809" lon="4.80017">
        <ele>373</ele>
        <time>2022-09-28T09:04:16.000Z</time>
      </trkpt>
      <trkpt lat="49.84807" lon="4.80021">
        <ele>374</ele>
        <time>2022-09-28T09:04:17.000Z</time>
      </trkpt>
      <trkpt lat="49.84806" lon="4.80026">
        <ele>374</ele>
        <time>2022-09-28T09:04:18.000Z</time>
      </trkpt>
      <trkpt lat="49.84805" lon="4.80031">
        <ele>374</ele>
        <time>2022-09-28T09:04:19.000Z</time>
      </trkpt>
      <trkpt lat="49.84803" lon="4.80035">
        <ele>374</ele>
        <time>2022-09-28T09:04:20.000Z</time>
      </trkpt>
      <trkpt lat="49.84802" lon="4.80039">
        <ele>374</ele>
        <time>2022-09-28T09:04:21.000Z</time>
      </trkpt>
      <trkpt lat="49.848" lon="4.80042">
        <ele>374</ele>
        <time>2022-09-28T09:04:22.000Z</time>
      </trkpt>
      <trkpt lat="49.84797" lon="4.80046">
        <ele>374</ele>
        <time>2022-09-28T09:04:23.000Z</time>
      </trkpt>
      <trkpt lat="49.84795" lon="4.80051">
        <ele>375</ele>
        <time>2022-09-28T09:04:24.000Z</time>
      </trkpt>
      <trkpt lat="49.84794" lon="4.80056">
        <ele>375</ele>
        <time>2022-09-28T09:04:25.000Z</time>
      </trkpt>
      <trkpt lat="49.84793" lon="4.80062">
        <ele>375</ele>
        <time>2022-09-28T09:04:26.000Z</time>
      </trkpt>
      <trkpt lat="49.84792" lon="4.80067">
        <ele>375</ele>
        <time>2022-09-28T09:04:27.000Z</time>
      </trkpt>
      <trkpt lat="49.84791" lon="4.80073">
        <ele>375</ele>
        <time>2022-09-28T09:04:28.000Z</time>
      </trkpt>
      <trkpt lat="49.84789" lon="4.80078">
        <ele>376</ele>
        <time>2022-09-28T09:04:29.000Z</time>
      </trkpt>
      <trkpt lat="49.84788" lon="4.80083">
        <ele>376</ele>
        <time>2022-09-28T09:04:30.000Z</time>
      </trkpt>
      <trkpt lat="49.84786" lon="4.80088">
        <ele>376</ele>
        <time>2022-09-28T09:04:31.000Z</time>
      </trkpt>
      <trkpt lat="49.84785" lon="4.80094">
        <ele>376</ele>
        <time>2022-09-28T09:04:32.000Z</time>
      </trkpt>
      <trkpt lat="49.84784" lon="4.80099">
        <ele>377</ele>
        <time>2022-09-28T09:04:33.000Z</time>
      </trkpt>
      <trkpt lat="49.84784" lon="4.80105">
        <ele>377</ele>
        <time>2022-09-28T09:04:34.000Z</time>
      </trkpt>
      <trkpt lat="49.84782" lon="4.8011">
        <ele>377</ele>
        <time>2022-09-28T09:04:35.000Z</time>
      </trkpt>
      <trkpt lat="49.84781" lon="4.80115">
        <ele>377</ele>
        <time>2022-09-28T09:04:36.000Z</time>
      </trkpt>
      <trkpt lat="49.8478" lon="4.8012">
        <ele>378</ele>
        <time>2022-09-28T09:04:37.000Z</time>
      </trkpt>
      <trkpt lat="49.84779" lon="4.80125">
        <ele>378</ele>
        <time>2022-09-28T09:04:38.000Z</time>
      </trkpt>
      <trkpt lat="49.84779" lon="4.80129">
        <ele>378</ele>
        <time>2022-09-28T09:04:39.000Z</time>
      </trkpt>
      <trkpt lat="49.84778" lon="4.80133">
        <ele>378</ele>
        <time>2022-09-28T09:04:40.000Z</time>
      </trkpt>
      <trkpt lat="49.84776" lon="4.80137">
        <ele>378</ele>
        <time>2022-09-28T09:04:41.000Z</time>
      </trkpt>
      <trkpt lat="49.84775" lon="4.8014">
        <ele>378</ele>
        <time>2022-09-28T09:04:42.000Z</time>
      </trkpt>
      <trkpt lat="49.84773" lon="4.80144">
        <ele>379</ele>
        <time>2022-09-28T09:04:43.000Z</time>
      </trkpt>
      <trkpt lat="49.84771" lon="4.80149">
        <ele>379</ele>
        <time>2022-09-28T09:04:44.000Z</time>
      </trkpt>
      <trkpt lat="49.8477" lon="4.80153">
        <ele>379</ele>
        <time>2022-09-28T09:04:45.000Z</time>
      </trkpt>
      <trkpt lat="49.84769" lon="4.80157">
        <ele>379</ele>
        <time>2022-09-28T09:04:46.000Z</time>
      </trkpt>
      <trkpt lat="49.84769" lon="4.80161">
        <ele>379</ele>
        <time>2022-09-28T09:04:47.000Z</time>
      </trkpt>
      <trkpt lat="49.84769" lon="4.80165">
        <ele>379</ele>
        <time>2022-09-28T09:04:48.000Z</time>
      </trkpt>
      <trkpt lat="49.84768" lon="4.80169">
        <ele>380</ele>
        <time>2022-09-28T09:04:49.000Z</time>
      </trkpt>
      <trkpt lat="49.84767" lon="4.80174">
        <ele>380</ele>
        <time>2022-09-28T09:04:50.000Z</time>
      </trkpt>
      <trkpt lat="49.84766" lon="4.80178">
        <ele>380</ele>
        <time>2022-09-28T09:04:51.000Z</time>
      </trkpt>
      <trkpt lat="49.84765" lon="4.80181">
        <ele>380</ele>
        <time>2022-09-28T09:04:52.000Z</time>
      </trkpt>
      <trkpt lat="49.84764" lon="4.80185">
        <ele>380</ele>
        <time>2022-09-28T09:04:53.000Z</time>
      </trkpt>
      <trkpt lat="49.84764" lon="4.80188">
        <ele>380</ele>
        <time>2022-09-28T09:04:54.000Z</time>
      </trkpt>
      <trkpt lat="49.84764" lon="4.80191">
        <ele>380</ele>
        <time>2022-09-28T09:04:55.000Z</time>
      </trkpt>
      <trkpt lat="49.84765" lon="4.80195">
        <ele>380</ele>
        <time>2022-09-28T09:04:56.000Z</time>
      </trkpt>
      <trkpt lat="49.84764" lon="4.80199">
        <ele>380</ele>
        <time>2022-09-28T09:04:57.000Z</time>
      </trkpt>
      <trkpt lat="49.84764" lon="4.80204">
        <ele>381</ele>
        <time>2022-09-28T09:04:58.000Z</time>
      </trkpt>
      <trkpt lat="49.84764" lon="4.80209">
        <ele>381</ele>
        <time>2022-09-28T09:04:59.000Z</time>
      </trkpt>
      <trkpt lat="49.84763" lon="4.80214">
        <ele>381</ele>
        <time>2022-09-28T09:05:00.000Z</time>
      </trkpt>
      <trkpt lat="49.84762" lon="4.80219">
        <ele>381</ele>
        <time>2022-09-28T09:05:01.000Z</time>
      </trkpt>
      <trkpt lat="49.84762" lon="4.80224">
        <ele>381</ele>
        <time>2022-09-28T09:05:02.000Z</time>
      </trkpt>
      <trkpt lat="49.84762" lon="4.80229">
        <ele>382</ele>
        <time>2022-09-28T09:05:03.000Z</time>
      </trkpt>
      <trkpt lat="49.84762" lon="4.80233">
        <ele>382</ele>
        <time>2022-09-28T09:05:04.000Z</time>
      </trkpt>
      <trkpt lat="49.84761" lon="4.80237">
        <ele>382</ele>
        <time>2022-09-28T09:05:05.000Z</time>
      </trkpt>
      <trkpt lat="49.8476" lon="4.80241">
        <ele>382</ele>
        <time>2022-09-28T09:05:06.000Z</time>
      </trkpt>
      <trkpt lat="49.84759" lon="4.80245">
        <ele>382</ele>
        <time>2022-09-28T09:05:07.000Z</time>
      </trkpt>
      <trkpt lat="49.84758" lon="4.8025">
        <ele>383</ele>
        <time>2022-09-28T09:05:08.000Z</time>
      </trkpt>
      <trkpt lat="49.84758" lon="4.80254">
        <ele>383</ele>
        <time>2022-09-28T09:05:09.000Z</time>
      </trkpt>
      <trkpt lat="49.84758" lon="4.80259">
        <ele>383</ele>
        <time>2022-09-28T09:05:10.000Z</time>
      </trkpt>
      <trkpt lat="49.84757" lon="4.80268">
        <ele>383</ele>
        <time>2022-09-28T09:05:11.000Z</time>
      </trkpt>
      <trkpt lat="49.84757" lon="4.80268">
        <ele>383</ele>
        <time>2022-09-28T09:05:12.000Z</time>
      </trkpt>
      <trkpt lat="49.84756" lon="4.80271">
        <ele>383</ele>
        <time>2022-09-28T09:05:13.000Z</time>
      </trkpt>
      <trkpt lat="49.84756" lon="4.80275">
        <ele>383</ele>
        <time>2022-09-28T09:05:14.000Z</time>
      </trkpt>
      <trkpt lat="49.84755" lon="4.80279">
        <ele>384</ele>
        <time>2022-09-28T09:05:15.000Z</time>
      </trkpt>
      <trkpt lat="49.84755" lon="4.80283">
        <ele>384</ele>
        <time>2022-09-28T09:05:16.000Z</time>
      </trkpt>
      <trkpt lat="49.84754" lon="4.80287">
        <ele>384</ele>
        <time>2022-09-28T09:05:17.000Z</time>
      </trkpt>
      <trkpt lat="49.84755" lon="4.8029">
        <ele>384</ele>
        <time>2022-09-28T09:05:18.000Z</time>
      </trkpt>
      <trkpt lat="49.84754" lon="4.80294">
        <ele>384</ele>
        <time>2022-09-28T09:05:19.000Z</time>
      </trkpt>
      <trkpt lat="49.84754" lon="4.80299">
        <ele>384</ele>
        <time>2022-09-28T09:05:20.000Z</time>
      </trkpt>
      <trkpt lat="49.84753" lon="4.80303">
        <ele>384</ele>
        <time>2022-09-28T09:05:21.000Z</time>
      </trkpt>
      <trkpt lat="49.84753" lon="4.80307">
        <ele>385</ele>
        <time>2022-09-28T09:05:22.000Z</time>
      </trkpt>
      <trkpt lat="49.84753" lon="4.80311">
        <ele>385</ele>
        <time>2022-09-28T09:05:23.000Z</time>
      </trkpt>
      <trkpt lat="49.84753" lon="4.80315">
        <ele>385</ele>
        <time>2022-09-28T09:05:24.000Z</time>
      </trkpt>
      <trkpt lat="49.84753" lon="4.80319">
        <ele>385</ele>
        <time>2022-09-28T09:05:25.000Z</time>
      </trkpt>
      <trkpt lat="49.84753" lon="4.80323">
        <ele>385</ele>
        <time>2022-09-28T09:05:26.000Z</time>
      </trkpt>
      <trkpt lat="49.84752" lon="4.80328">
        <ele>386</ele>
        <time>2022-09-28T09:05:27.000Z</time>
      </trkpt>
      <trkpt lat="49.84752" lon="4.80332">
        <ele>386</ele>
        <time>2022-09-28T09:05:28.000Z</time>
      </trkpt>
      <trkpt lat="49.84751" lon="4.80337">
        <ele>386</ele>
        <time>2022-09-28T09:05:29.000Z</time>
      </trkpt>
      <trkpt lat="49.84751" lon="4.80342">
        <ele>387</ele>
        <time>2022-09-28T09:05:30.000Z</time>
      </trkpt>
      <trkpt lat="49.8475" lon="4.80348">
        <ele>387</ele>
        <time>2022-09-28T09:05:31.000Z</time>
      </trkpt>
      <trkpt lat="49.8475" lon="4.80353">
        <ele>387</ele>
        <time>2022-09-28T09:05:32.000Z</time>
      </trkpt>
      <trkpt lat="49.84749" lon="4.80358">
        <ele>387</ele>
        <time>2022-09-28T09:05:33.000Z</time>
      </trkpt>
      <trkpt lat="49.84749" lon="4.80363">
        <ele>387</ele>
        <time>2022-09-28T09:05:34.000Z</time>
      </trkpt>
      <trkpt lat="49.84749" lon="4.80368">
        <ele>388</ele>
        <time>2022-09-28T09:05:35.000Z</time>
      </trkpt>
      <trkpt lat="49.84749" lon="4.80374">
        <ele>388</ele>
        <time>2022-09-28T09:05:36.000Z</time>
      </trkpt>
      <trkpt lat="49.84749" lon="4.80378">
        <ele>388</ele>
        <time>2022-09-28T09:05:37.000Z</time>
      </trkpt>
      <trkpt lat="49.84748" lon="4.80383">
        <ele>388</ele>
        <time>2022-09-28T09:05:38.000Z</time>
      </trkpt>
      <trkpt lat="49.84748" lon="4.80388">
        <ele>388</ele>
        <time>2022-09-28T09:05:39.000Z</time>
      </trkpt>
      <trkpt lat="49.84748" lon="4.80394">
        <ele>389</ele>
        <time>2022-09-28T09:05:40.000Z</time>
      </trkpt>
      <trkpt lat="49.84748" lon="4.80399">
        <ele>389</ele>
        <time>2022-09-28T09:05:41.000Z</time>
      </trkpt>
      <trkpt lat="49.84748" lon="4.80405">
        <ele>389</ele>
        <time>2022-09-28T09:05:42.000Z</time>
      </trkpt>
      <trkpt lat="49.84748" lon="4.8041">
        <ele>389</ele>
        <time>2022-09-28T09:05:43.000Z</time>
      </trkpt>
      <trkpt lat="49.84748" lon="4.80416">
        <ele>389</ele>
        <time>2022-09-28T09:05:44.000Z</time>
      </trkpt>
      <trkpt lat="49.84748" lon="4.80421">
        <ele>389</ele>
        <time>2022-09-28T09:05:45.000Z</time>
      </trkpt>
      <trkpt lat="49.84748" lon="4.80427">
        <ele>389</ele>
        <time>2022-09-28T09:05:46.000Z</time>
      </trkpt>
      <trkpt lat="49.84748" lon="4.80433">
        <ele>389</ele>
        <time>2022-09-28T09:05:47.000Z</time>
      </trkpt>
      <trkpt lat="49.84749" lon="4.80438">
        <ele>389</ele>
        <time>2022-09-28T09:05:48.000Z</time>
      </trkpt>
      <trkpt lat="49.8475" lon="4.80443">
        <ele>389</ele>
        <time>2022-09-28T09:05:49.000Z</time>
      </trkpt>
      <trkpt lat="49.84751" lon="4.80449">
        <ele>389</ele>
        <time>2022-09-28T09:05:50.000Z</time>
      </trkpt>
      <trkpt lat="49.84751" lon="4.80455">
        <ele>389</ele>
        <time>2022-09-28T09:05:51.000Z</time>
      </trkpt>
      <trkpt lat="49.84752" lon="4.8046">
        <ele>389</ele>
        <time>2022-09-28T09:05:52.000Z</time>
      </trkpt>
      <trkpt lat="49.84753" lon="4.80464">
        <ele>389</ele>
        <time>2022-09-28T09:05:53.000Z</time>
      </trkpt>
      <trkpt lat="49.84754" lon="4.80467">
        <ele>389</ele>
        <time>2022-09-28T09:05:54.000Z</time>
      </trkpt>
      <trkpt lat="49.84755" lon="4.80472">
        <ele>389</ele>
        <time>2022-09-28T09:05:55.000Z</time>
      </trkpt>
      <trkpt lat="49.84756" lon="4.80476">
        <ele>389</ele>
        <time>2022-09-28T09:05:56.000Z</time>
      </trkpt>
      <trkpt lat="49.84757" lon="4.80481">
        <ele>389</ele>
        <time>2022-09-28T09:05:57.000Z</time>
      </trkpt>
      <trkpt lat="49.84757" lon="4.80485">
        <ele>390</ele>
        <time>2022-09-28T09:05:58.000Z</time>
      </trkpt>
      <trkpt lat="49.84758" lon="4.80489">
        <ele>390</ele>
        <time>2022-09-28T09:05:59.000Z</time>
      </trkpt>
      <trkpt lat="49.84757" lon="4.80493">
        <ele>390</ele>
        <time>2022-09-28T09:06:00.000Z</time>
      </trkpt>
      <trkpt lat="49.84757" lon="4.80497">
        <ele>390</ele>
        <time>2022-09-28T09:06:01.000Z</time>
      </trkpt>
      <trkpt lat="49.84757" lon="4.80502">
        <ele>390</ele>
        <time>2022-09-28T09:06:02.000Z</time>
      </trkpt>
      <trkpt lat="49.84757" lon="4.80506">
        <ele>390</ele>
        <time>2022-09-28T09:06:03.000Z</time>
      </trkpt>
      <trkpt lat="49.84757" lon="4.80512">
        <ele>390</ele>
        <time>2022-09-28T09:06:04.000Z</time>
      </trkpt>
      <trkpt lat="49.84758" lon="4.80516">
        <ele>390</ele>
        <time>2022-09-28T09:06:05.000Z</time>
      </trkpt>
      <trkpt lat="49.84757" lon="4.80521">
        <ele>390</ele>
        <time>2022-09-28T09:06:06.000Z</time>
      </trkpt>
      <trkpt lat="49.84756" lon="4.80527">
        <ele>390</ele>
        <time>2022-09-28T09:06:07.000Z</time>
      </trkpt>
      <trkpt lat="49.84755" lon="4.80531">
        <ele>390</ele>
        <time>2022-09-28T09:06:08.000Z</time>
      </trkpt>
      <trkpt lat="49.84754" lon="4.80536">
        <ele>390</ele>
        <time>2022-09-28T09:06:09.000Z</time>
      </trkpt>
      <trkpt lat="49.84753" lon="4.80541">
        <ele>390</ele>
        <time>2022-09-28T09:06:10.000Z</time>
      </trkpt>
      <trkpt lat="49.84752" lon="4.80546">
        <ele>390</ele>
        <time>2022-09-28T09:06:11.000Z</time>
      </trkpt>
      <trkpt lat="49.8475" lon="4.80551">
        <ele>390</ele>
        <time>2022-09-28T09:06:12.000Z</time>
      </trkpt>
      <trkpt lat="49.8475" lon="4.80555">
        <ele>390</ele>
        <time>2022-09-28T09:06:13.000Z</time>
      </trkpt>
      <trkpt lat="49.84749" lon="4.80561">
        <ele>390</ele>
        <time>2022-09-28T09:06:14.000Z</time>
      </trkpt>
      <trkpt lat="49.84749" lon="4.80566">
        <ele>389</ele>
        <time>2022-09-28T09:06:15.000Z</time>
      </trkpt>
      <trkpt lat="49.84749" lon="4.80572">
        <ele>389</ele>
        <time>2022-09-28T09:06:16.000Z</time>
      </trkpt>
      <trkpt lat="49.8475" lon="4.80577">
        <ele>389</ele>
        <time>2022-09-28T09:06:17.000Z</time>
      </trkpt>
      <trkpt lat="49.84752" lon="4.80583">
        <ele>389</ele>
        <time>2022-09-28T09:06:18.000Z</time>
      </trkpt>
      <trkpt lat="49.84754" lon="4.80588">
        <ele>389</ele>
        <time>2022-09-28T09:06:19.000Z</time>
      </trkpt>
      <trkpt lat="49.84758" lon="4.80593">
        <ele>389</ele>
        <time>2022-09-28T09:06:20.000Z</time>
      </trkpt>
      <trkpt lat="49.84762" lon="4.80598">
        <ele>389</ele>
        <time>2022-09-28T09:06:21.000Z</time>
      </trkpt>
      <trkpt lat="49.84766" lon="4.80604">
        <ele>389</ele>
        <time>2022-09-28T09:06:22.000Z</time>
      </trkpt>
      <trkpt lat="49.84769" lon="4.80612">
        <ele>389</ele>
        <time>2022-09-28T09:06:23.000Z</time>
      </trkpt>
      <trkpt lat="49.84772" lon="4.8062">
        <ele>389</ele>
        <time>2022-09-28T09:06:24.000Z</time>
      </trkpt>
      <trkpt lat="49.84774" lon="4.80628">
        <ele>389</ele>
        <time>2022-09-28T09:06:25.000Z</time>
      </trkpt>
      <trkpt lat="49.84777" lon="4.80636">
        <ele>389</ele>
        <time>2022-09-28T09:06:26.000Z</time>
      </trkpt>
      <trkpt lat="49.8478" lon="4.80644">
        <ele>389</ele>
        <time>2022-09-28T09:06:27.000Z</time>
      </trkpt>
      <trkpt lat="49.84784" lon="4.80651">
        <ele>388</ele>
        <time>2022-09-28T09:06:28.000Z</time>
      </trkpt>
      <trkpt lat="49.84787" lon="4.80658">
        <ele>388</ele>
        <time>2022-09-28T09:06:29.000Z</time>
      </trkpt>
      <trkpt lat="49.8479" lon="4.80665">
        <ele>388</ele>
        <time>2022-09-28T09:06:30.000Z</time>
      </trkpt>
      <trkpt lat="49.84793" lon="4.80671">
        <ele>388</ele>
        <time>2022-09-28T09:06:31.000Z</time>
      </trkpt>
      <trkpt lat="49.84795" lon="4.80677">
        <ele>388</ele>
        <time>2022-09-28T09:06:32.000Z</time>
      </trkpt>
      <trkpt lat="49.84798" lon="4.80682">
        <ele>388</ele>
        <time>2022-09-28T09:06:33.000Z</time>
      </trkpt>
      <trkpt lat="49.84801" lon="4.80687">
        <ele>388</ele>
        <time>2022-09-28T09:06:34.000Z</time>
      </trkpt>
      <trkpt lat="49.84804" lon="4.80691">
        <ele>387</ele>
        <time>2022-09-28T09:06:35.000Z</time>
      </trkpt>
      <trkpt lat="49.84807" lon="4.80696">
        <ele>387</ele>
        <time>2022-09-28T09:06:36.000Z</time>
      </trkpt>
      <trkpt lat="49.8481" lon="4.807">
        <ele>387</ele>
        <time>2022-09-28T09:06:37.000Z</time>
      </trkpt>
      <trkpt lat="49.84813" lon="4.80704">
        <ele>387</ele>
        <time>2022-09-28T09:06:38.000Z</time>
      </trkpt>
      <trkpt lat="49.84816" lon="4.80709">
        <ele>387</ele>
        <time>2022-09-28T09:06:39.000Z</time>
      </trkpt>
      <trkpt lat="49.84818" lon="4.80716">
        <ele>387</ele>
        <time>2022-09-28T09:06:40.000Z</time>
      </trkpt>
      <trkpt lat="49.84819" lon="4.80722">
        <ele>387</ele>
        <time>2022-09-28T09:06:41.000Z</time>
      </trkpt>
      <trkpt lat="49.84825" lon="4.80734">
        <ele>387</ele>
        <time>2022-09-28T09:06:42.000Z</time>
      </trkpt>
      <trkpt lat="49.84825" lon="4.80734">
        <ele>387</ele>
        <time>2022-09-28T09:06:43.000Z</time>
      </trkpt>
      <trkpt lat="49.84831" lon="4.80746">
        <ele>387</ele>
        <time>2022-09-28T09:06:44.000Z</time>
      </trkpt>
      <trkpt lat="49.84831" lon="4.80746">
        <ele>387</ele>
        <time>2022-09-28T09:06:45.000Z</time>
      </trkpt>
      <trkpt lat="49.84837" lon="4.80757">
        <ele>387</ele>
        <time>2022-09-28T09:06:46.000Z</time>
      </trkpt>
      <trkpt lat="49.8484" lon="4.80763">
        <ele>387</ele>
        <time>2022-09-28T09:06:47.000Z</time>
      </trkpt>
      <trkpt lat="49.84843" lon="4.80768">
        <ele>387</ele>
        <time>2022-09-28T09:06:48.000Z</time>
      </trkpt>
      <trkpt lat="49.84843" lon="4.80768">
        <ele>387</ele>
        <time>2022-09-28T09:06:49.000Z</time>
      </trkpt>
      <trkpt lat="49.84845" lon="4.80772">
        <ele>387</ele>
        <time>2022-09-28T09:06:50.000Z</time>
      </trkpt>
      <trkpt lat="49.8485" lon="4.80781">
        <ele>387</ele>
        <time>2022-09-28T09:06:51.000Z</time>
      </trkpt>
      <trkpt lat="49.8485" lon="4.80781">
        <ele>387</ele>
        <time>2022-09-28T09:06:52.000Z</time>
      </trkpt>
      <trkpt lat="49.84853" lon="4.80784">
        <ele>387</ele>
        <time>2022-09-28T09:06:53.000Z</time>
      </trkpt>
      <trkpt lat="49.84857" lon="4.80787">
        <ele>387</ele>
        <time>2022-09-28T09:06:54.000Z</time>
      </trkpt>
      <trkpt lat="49.84865" lon="4.80792">
        <ele>386</ele>
        <time>2022-09-28T09:06:55.000Z</time>
      </trkpt>
      <trkpt lat="49.84869" lon="4.80795">
        <ele>386</ele>
        <time>2022-09-28T09:06:56.000Z</time>
      </trkpt>
      <trkpt lat="49.84873" lon="4.80798">
        <ele>386</ele>
        <time>2022-09-28T09:06:57.000Z</time>
      </trkpt>
      <trkpt lat="49.84878" lon="4.808">
        <ele>386</ele>
        <time>2022-09-28T09:06:58.000Z</time>
      </trkpt>
      <trkpt lat="49.84883" lon="4.80804">
        <ele>386</ele>
        <time>2022-09-28T09:06:59.000Z</time>
      </trkpt>
      <trkpt lat="49.84887" lon="4.80809">
        <ele>386</ele>
        <time>2022-09-28T09:07:00.000Z</time>
      </trkpt>
      <trkpt lat="49.84887" lon="4.80809">
        <ele>386</ele>
        <time>2022-09-28T09:07:01.000Z</time>
      </trkpt>
      <trkpt lat="49.84891" lon="4.80815">
        <ele>386</ele>
        <time>2022-09-28T09:07:02.000Z</time>
      </trkpt>
      <trkpt lat="49.84894" lon="4.80821">
        <ele>386</ele>
        <time>2022-09-28T09:07:03.000Z</time>
      </trkpt>
      <trkpt lat="49.84897" lon="4.80828">
        <ele>386</ele>
        <time>2022-09-28T09:07:04.000Z</time>
      </trkpt>
      <trkpt lat="49.849" lon="4.80836">
        <ele>386</ele>
        <time>2022-09-28T09:07:05.000Z</time>
      </trkpt>
      <trkpt lat="49.84904" lon="4.80844">
        <ele>386</ele>
        <time>2022-09-28T09:07:06.000Z</time>
      </trkpt>
      <trkpt lat="49.84907" lon="4.80851">
        <ele>386</ele>
        <time>2022-09-28T09:07:07.000Z</time>
      </trkpt>
      <trkpt lat="49.84911" lon="4.80858">
        <ele>386</ele>
        <time>2022-09-28T09:07:08.000Z</time>
      </trkpt>
      <trkpt lat="49.84915" lon="4.80866">
        <ele>386</ele>
        <time>2022-09-28T09:07:09.000Z</time>
      </trkpt>
      <trkpt lat="49.84919" lon="4.80874">
        <ele>386</ele>
        <time>2022-09-28T09:07:10.000Z</time>
      </trkpt>
      <trkpt lat="49.84922" lon="4.80883">
        <ele>386</ele>
        <time>2022-09-28T09:07:11.000Z</time>
      </trkpt>
      <trkpt lat="49.84924" lon="4.80892">
        <ele>386</ele>
        <time>2022-09-28T09:07:12.000Z</time>
      </trkpt>
      <trkpt lat="49.84927" lon="4.80902">
        <ele>386</ele>
        <time>2022-09-28T09:07:13.000Z</time>
      </trkpt>
      <trkpt lat="49.84927" lon="4.8091">
        <ele>386</ele>
        <time>2022-09-28T09:07:14.000Z</time>
      </trkpt>
      <trkpt lat="49.84928" lon="4.80917">
        <ele>386</ele>
        <time>2022-09-28T09:07:15.000Z</time>
      </trkpt>
      <trkpt lat="49.84929" lon="4.80924">
        <ele>386</ele>
        <time>2022-09-28T09:07:16.000Z</time>
      </trkpt>
      <trkpt lat="49.84929" lon="4.8093">
        <ele>386</ele>
        <time>2022-09-28T09:07:17.000Z</time>
      </trkpt>
      <trkpt lat="49.8493" lon="4.80937">
        <ele>386</ele>
        <time>2022-09-28T09:07:18.000Z</time>
      </trkpt>
      <trkpt lat="49.84932" lon="4.80943">
        <ele>386</ele>
        <time>2022-09-28T09:07:19.000Z</time>
      </trkpt>
      <trkpt lat="49.84934" lon="4.80948">
        <ele>386</ele>
        <time>2022-09-28T09:07:20.000Z</time>
      </trkpt>
      <trkpt lat="49.84937" lon="4.80955">
        <ele>386</ele>
        <time>2022-09-28T09:07:21.000Z</time>
      </trkpt>
      <trkpt lat="49.84939" lon="4.80961">
        <ele>386</ele>
        <time>2022-09-28T09:07:22.000Z</time>
      </trkpt>
      <trkpt lat="49.84941" lon="4.80968">
        <ele>386</ele>
        <time>2022-09-28T09:07:23.000Z</time>
      </trkpt>
      <trkpt lat="49.84943" lon="4.80975">
        <ele>386</ele>
        <time>2022-09-28T09:07:24.000Z</time>
      </trkpt>
      <trkpt lat="49.84945" lon="4.80981">
        <ele>386</ele>
        <time>2022-09-28T09:07:25.000Z</time>
      </trkpt>
      <trkpt lat="49.84948" lon="4.80988">
        <ele>386</ele>
        <time>2022-09-28T09:07:26.000Z</time>
      </trkpt>
      <trkpt lat="49.8495" lon="4.80995">
        <ele>386</ele>
        <time>2022-09-28T09:07:27.000Z</time>
      </trkpt>
      <trkpt lat="49.84952" lon="4.81002">
        <ele>386</ele>
        <time>2022-09-28T09:07:28.000Z</time>
      </trkpt>
      <trkpt lat="49.84955" lon="4.81009">
        <ele>386</ele>
        <time>2022-09-28T09:07:29.000Z</time>
      </trkpt>
      <trkpt lat="49.84957" lon="4.81016">
        <ele>387</ele>
        <time>2022-09-28T09:07:30.000Z</time>
      </trkpt>
      <trkpt lat="49.8496" lon="4.81022">
        <ele>387</ele>
        <time>2022-09-28T09:07:31.000Z</time>
      </trkpt>
      <trkpt lat="49.84962" lon="4.81028">
        <ele>387</ele>
        <time>2022-09-28T09:07:32.000Z</time>
      </trkpt>
      <trkpt lat="49.84964" lon="4.81033">
        <ele>387</ele>
        <time>2022-09-28T09:07:33.000Z</time>
      </trkpt>
      <trkpt lat="49.84967" lon="4.81039">
        <ele>387</ele>
        <time>2022-09-28T09:07:34.000Z</time>
      </trkpt>
      <trkpt lat="49.84969" lon="4.81044">
        <ele>388</ele>
        <time>2022-09-28T09:07:35.000Z</time>
      </trkpt>
      <trkpt lat="49.84971" lon="4.8105">
        <ele>388</ele>
        <time>2022-09-28T09:07:36.000Z</time>
      </trkpt>
      <trkpt lat="49.84973" lon="4.81056">
        <ele>388</ele>
        <time>2022-09-28T09:07:37.000Z</time>
      </trkpt>
      <trkpt lat="49.84976" lon="4.81062">
        <ele>388</ele>
        <time>2022-09-28T09:07:38.000Z</time>
      </trkpt>
      <trkpt lat="49.84978" lon="4.81068">
        <ele>388</ele>
        <time>2022-09-28T09:07:39.000Z</time>
      </trkpt>
      <trkpt lat="49.84981" lon="4.81074">
        <ele>388</ele>
        <time>2022-09-28T09:07:40.000Z</time>
      </trkpt>
      <trkpt lat="49.84983" lon="4.81081">
        <ele>389</ele>
        <time>2022-09-28T09:07:41.000Z</time>
      </trkpt>
      <trkpt lat="49.84985" lon="4.81087">
        <ele>389</ele>
        <time>2022-09-28T09:07:42.000Z</time>
      </trkpt>
      <trkpt lat="49.84988" lon="4.81094">
        <ele>389</ele>
        <time>2022-09-28T09:07:43.000Z</time>
      </trkpt>
      <trkpt lat="49.8499" lon="4.811">
        <ele>389</ele>
        <time>2022-09-28T09:07:44.000Z</time>
      </trkpt>
      <trkpt lat="49.84992" lon="4.81106">
        <ele>389</ele>
        <time>2022-09-28T09:07:45.000Z</time>
      </trkpt>
      <trkpt lat="49.84995" lon="4.81112">
        <ele>390</ele>
        <time>2022-09-28T09:07:46.000Z</time>
      </trkpt>
      <trkpt lat="49.84997" lon="4.81118">
        <ele>390</ele>
        <time>2022-09-28T09:07:47.000Z</time>
      </trkpt>
      <trkpt lat="49.85" lon="4.81124">
        <ele>390</ele>
        <time>2022-09-28T09:07:48.000Z</time>
      </trkpt>
      <trkpt lat="49.85003" lon="4.8113">
        <ele>390</ele>
        <time>2022-09-28T09:07:49.000Z</time>
      </trkpt>
      <trkpt lat="49.85006" lon="4.81136">
        <ele>390</ele>
        <time>2022-09-28T09:07:50.000Z</time>
      </trkpt>
      <trkpt lat="49.85008" lon="4.81142">
        <ele>390</ele>
        <time>2022-09-28T09:07:51.000Z</time>
      </trkpt>
      <trkpt lat="49.85011" lon="4.81147">
        <ele>390</ele>
        <time>2022-09-28T09:07:52.000Z</time>
      </trkpt>
      <trkpt lat="49.85013" lon="4.81152">
        <ele>391</ele>
        <time>2022-09-28T09:07:53.000Z</time>
      </trkpt>
      <trkpt lat="49.85016" lon="4.81158">
        <ele>391</ele>
        <time>2022-09-28T09:07:54.000Z</time>
      </trkpt>
      <trkpt lat="49.8502" lon="4.81163">
        <ele>391</ele>
        <time>2022-09-28T09:07:55.000Z</time>
      </trkpt>
      <trkpt lat="49.85023" lon="4.81168">
        <ele>391</ele>
        <time>2022-09-28T09:07:56.000Z</time>
      </trkpt>
      <trkpt lat="49.85026" lon="4.81173">
        <ele>391</ele>
        <time>2022-09-28T09:07:57.000Z</time>
      </trkpt>
      <trkpt lat="49.8503" lon="4.81179">
        <ele>391</ele>
        <time>2022-09-28T09:07:58.000Z</time>
      </trkpt>
      <trkpt lat="49.85034" lon="4.81185">
        <ele>391</ele>
        <time>2022-09-28T09:07:59.000Z</time>
      </trkpt>
      <trkpt lat="49.85037" lon="4.8119">
        <ele>391</ele>
        <time>2022-09-28T09:08:00.000Z</time>
      </trkpt>
      <trkpt lat="49.85041" lon="4.81196">
        <ele>391</ele>
        <time>2022-09-28T09:08:01.000Z</time>
      </trkpt>
      <trkpt lat="49.85044" lon="4.81202">
        <ele>391</ele>
        <time>2022-09-28T09:08:02.000Z</time>
      </trkpt>
      <trkpt lat="49.85048" lon="4.81208">
        <ele>391</ele>
        <time>2022-09-28T09:08:03.000Z</time>
      </trkpt>
      <trkpt lat="49.85051" lon="4.81214">
        <ele>391</ele>
        <time>2022-09-28T09:08:04.000Z</time>
      </trkpt>
      <trkpt lat="49.85054" lon="4.8122">
        <ele>391</ele>
        <time>2022-09-28T09:08:05.000Z</time>
      </trkpt>
      <trkpt lat="49.85058" lon="4.81226">
        <ele>391</ele>
        <time>2022-09-28T09:08:06.000Z</time>
      </trkpt>
      <trkpt lat="49.85061" lon="4.81232">
        <ele>391</ele>
        <time>2022-09-28T09:08:07.000Z</time>
      </trkpt>
      <trkpt lat="49.85065" lon="4.81237">
        <ele>391</ele>
        <time>2022-09-28T09:08:08.000Z</time>
      </trkpt>
      <trkpt lat="49.85069" lon="4.81243">
        <ele>391</ele>
        <time>2022-09-28T09:08:09.000Z</time>
      </trkpt>
      <trkpt lat="49.85073" lon="4.81249">
        <ele>391</ele>
        <time>2022-09-28T09:08:10.000Z</time>
      </trkpt>
      <trkpt lat="49.85077" lon="4.81256">
        <ele>391</ele>
        <time>2022-09-28T09:08:11.000Z</time>
      </trkpt>
      <trkpt lat="49.85081" lon="4.81262">
        <ele>391</ele>
        <time>2022-09-28T09:08:12.000Z</time>
      </trkpt>
      <trkpt lat="49.85084" lon="4.81267">
        <ele>391</ele>
        <time>2022-09-28T09:08:13.000Z</time>
      </trkpt>
      <trkpt lat="49.85088" lon="4.81272">
        <ele>391</ele>
        <time>2022-09-28T09:08:14.000Z</time>
      </trkpt>
      <trkpt lat="49.85091" lon="4.81276">
        <ele>391</ele>
        <time>2022-09-28T09:08:15.000Z</time>
      </trkpt>
      <trkpt lat="49.85095" lon="4.81281">
        <ele>391</ele>
        <time>2022-09-28T09:08:16.000Z</time>
      </trkpt>
      <trkpt lat="49.85098" lon="4.81285">
        <ele>391</ele>
        <time>2022-09-28T09:08:17.000Z</time>
      </trkpt>
      <trkpt lat="49.85101" lon="4.8129">
        <ele>391</ele>
        <time>2022-09-28T09:08:18.000Z</time>
      </trkpt>
      <trkpt lat="49.85105" lon="4.81296">
        <ele>391</ele>
        <time>2022-09-28T09:08:19.000Z</time>
      </trkpt>
      <trkpt lat="49.85108" lon="4.81301">
        <ele>391</ele>
        <time>2022-09-28T09:08:20.000Z</time>
      </trkpt>
      <trkpt lat="49.8511" lon="4.81306">
        <ele>391</ele>
        <time>2022-09-28T09:08:21.000Z</time>
      </trkpt>
      <trkpt lat="49.85113" lon="4.81311">
        <ele>391</ele>
        <time>2022-09-28T09:08:22.000Z</time>
      </trkpt>
      <trkpt lat="49.85114" lon="4.81316">
        <ele>390</ele>
        <time>2022-09-28T09:08:23.000Z</time>
      </trkpt>
      <trkpt lat="49.85116" lon="4.8132">
        <ele>390</ele>
        <time>2022-09-28T09:08:24.000Z</time>
      </trkpt>
      <trkpt lat="49.85117" lon="4.81324">
        <ele>390</ele>
        <time>2022-09-28T09:08:25.000Z</time>
      </trkpt>
      <trkpt lat="49.85119" lon="4.81328">
        <ele>390</ele>
        <time>2022-09-28T09:08:26.000Z</time>
      </trkpt>
      <trkpt lat="49.85121" lon="4.81332">
        <ele>390</ele>
        <time>2022-09-28T09:08:27.000Z</time>
      </trkpt>
      <trkpt lat="49.85123" lon="4.81336">
        <ele>390</ele>
        <time>2022-09-28T09:08:28.000Z</time>
      </trkpt>
      <trkpt lat="49.85125" lon="4.8134">
        <ele>390</ele>
        <time>2022-09-28T09:08:29.000Z</time>
      </trkpt>
      <trkpt lat="49.85127" lon="4.81345">
        <ele>390</ele>
        <time>2022-09-28T09:08:30.000Z</time>
      </trkpt>
      <trkpt lat="49.85128" lon="4.8135">
        <ele>390</ele>
        <time>2022-09-28T09:08:31.000Z</time>
      </trkpt>
      <trkpt lat="49.85129" lon="4.81356">
        <ele>390</ele>
        <time>2022-09-28T09:08:32.000Z</time>
      </trkpt>
      <trkpt lat="49.8513" lon="4.81361">
        <ele>390</ele>
        <time>2022-09-28T09:08:33.000Z</time>
      </trkpt>
      <trkpt lat="49.85132" lon="4.81367">
        <ele>390</ele>
        <time>2022-09-28T09:08:34.000Z</time>
      </trkpt>
      <trkpt lat="49.85133" lon="4.81373">
        <ele>390</ele>
        <time>2022-09-28T09:08:35.000Z</time>
      </trkpt>
      <trkpt lat="49.85134" lon="4.81378">
        <ele>390</ele>
        <time>2022-09-28T09:08:36.000Z</time>
      </trkpt>
      <trkpt lat="49.85135" lon="4.81385">
        <ele>390</ele>
        <time>2022-09-28T09:08:37.000Z</time>
      </trkpt>
      <trkpt lat="49.85137" lon="4.81392">
        <ele>390</ele>
        <time>2022-09-28T09:08:38.000Z</time>
      </trkpt>
      <trkpt lat="49.85138" lon="4.81399">
        <ele>390</ele>
        <time>2022-09-28T09:08:39.000Z</time>
      </trkpt>
      <trkpt lat="49.85139" lon="4.81406">
        <ele>390</ele>
        <time>2022-09-28T09:08:40.000Z</time>
      </trkpt>
      <trkpt lat="49.85141" lon="4.81414">
        <ele>390</ele>
        <time>2022-09-28T09:08:41.000Z</time>
      </trkpt>
      <trkpt lat="49.85142" lon="4.81421">
        <ele>390</ele>
        <time>2022-09-28T09:08:42.000Z</time>
      </trkpt>
      <trkpt lat="49.85143" lon="4.81429">
        <ele>390</ele>
        <time>2022-09-28T09:08:43.000Z</time>
      </trkpt>
      <trkpt lat="49.85143" lon="4.81436">
        <ele>390</ele>
        <time>2022-09-28T09:08:44.000Z</time>
      </trkpt>
      <trkpt lat="49.85143" lon="4.81443">
        <ele>390</ele>
        <time>2022-09-28T09:08:45.000Z</time>
      </trkpt>
      <trkpt lat="49.85144" lon="4.8145">
        <ele>389</ele>
        <time>2022-09-28T09:08:46.000Z</time>
      </trkpt>
      <trkpt lat="49.85145" lon="4.81458">
        <ele>389</ele>
        <time>2022-09-28T09:08:47.000Z</time>
      </trkpt>
      <trkpt lat="49.85145" lon="4.81465">
        <ele>389</ele>
        <time>2022-09-28T09:08:48.000Z</time>
      </trkpt>
      <trkpt lat="49.85145" lon="4.81473">
        <ele>389</ele>
        <time>2022-09-28T09:08:49.000Z</time>
      </trkpt>
      <trkpt lat="49.85145" lon="4.81481">
        <ele>389</ele>
        <time>2022-09-28T09:08:50.000Z</time>
      </trkpt>
      <trkpt lat="49.85145" lon="4.81489">
        <ele>389</ele>
        <time>2022-09-28T09:08:51.000Z</time>
      </trkpt>
      <trkpt lat="49.85145" lon="4.81497">
        <ele>389</ele>
        <time>2022-09-28T09:08:52.000Z</time>
      </trkpt>
      <trkpt lat="49.85144" lon="4.81505">
        <ele>389</ele>
        <time>2022-09-28T09:08:53.000Z</time>
      </trkpt>
      <trkpt lat="49.85144" lon="4.81512">
        <ele>389</ele>
        <time>2022-09-28T09:08:54.000Z</time>
      </trkpt>
      <trkpt lat="49.85144" lon="4.81519">
        <ele>389</ele>
        <time>2022-09-28T09:08:55.000Z</time>
      </trkpt>
      <trkpt lat="49.85144" lon="4.81525">
        <ele>389</ele>
        <time>2022-09-28T09:08:56.000Z</time>
      </trkpt>
      <trkpt lat="49.85144" lon="4.81531">
        <ele>389</ele>
        <time>2022-09-28T09:08:57.000Z</time>
      </trkpt>
      <trkpt lat="49.85144" lon="4.81538">
        <ele>389</ele>
        <time>2022-09-28T09:08:58.000Z</time>
      </trkpt>
      <trkpt lat="49.85144" lon="4.81545">
        <ele>389</ele>
        <time>2022-09-28T09:08:59.000Z</time>
      </trkpt>
      <trkpt lat="49.85143" lon="4.81551">
        <ele>389</ele>
        <time>2022-09-28T09:09:00.000Z</time>
      </trkpt>
      <trkpt lat="49.85143" lon="4.81558">
        <ele>389</ele>
        <time>2022-09-28T09:09:01.000Z</time>
      </trkpt>
      <trkpt lat="49.85143" lon="4.81564">
        <ele>389</ele>
        <time>2022-09-28T09:09:02.000Z</time>
      </trkpt>
      <trkpt lat="49.85143" lon="4.81572">
        <ele>390</ele>
        <time>2022-09-28T09:09:03.000Z</time>
      </trkpt>
      <trkpt lat="49.85143" lon="4.81579">
        <ele>390</ele>
        <time>2022-09-28T09:09:04.000Z</time>
      </trkpt>
      <trkpt lat="49.85144" lon="4.81586">
        <ele>390</ele>
        <time>2022-09-28T09:09:05.000Z</time>
      </trkpt>
      <trkpt lat="49.85144" lon="4.81593">
        <ele>390</ele>
        <time>2022-09-28T09:09:06.000Z</time>
      </trkpt>
      <trkpt lat="49.85144" lon="4.816">
        <ele>390</ele>
        <time>2022-09-28T09:09:07.000Z</time>
      </trkpt>
      <trkpt lat="49.85143" lon="4.81605">
        <ele>390</ele>
        <time>2022-09-28T09:09:08.000Z</time>
      </trkpt>
      <trkpt lat="49.85143" lon="4.81612">
        <ele>390</ele>
        <time>2022-09-28T09:09:09.000Z</time>
      </trkpt>
      <trkpt lat="49.85143" lon="4.81617">
        <ele>390</ele>
        <time>2022-09-28T09:09:10.000Z</time>
      </trkpt>
      <trkpt lat="49.85142" lon="4.81623">
        <ele>390</ele>
        <time>2022-09-28T09:09:11.000Z</time>
      </trkpt>
      <trkpt lat="49.85142" lon="4.81628">
        <ele>391</ele>
        <time>2022-09-28T09:09:12.000Z</time>
      </trkpt>
      <trkpt lat="49.85143" lon="4.81634">
        <ele>391</ele>
        <time>2022-09-28T09:09:13.000Z</time>
      </trkpt>
      <trkpt lat="49.85144" lon="4.8164">
        <ele>391</ele>
        <time>2022-09-28T09:09:14.000Z</time>
      </trkpt>
      <trkpt lat="49.85144" lon="4.81646">
        <ele>391</ele>
        <time>2022-09-28T09:09:15.000Z</time>
      </trkpt>
      <trkpt lat="49.85144" lon="4.81652">
        <ele>391</ele>
        <time>2022-09-28T09:09:16.000Z</time>
      </trkpt>
      <trkpt lat="49.85143" lon="4.81658">
        <ele>392</ele>
        <time>2022-09-28T09:09:17.000Z</time>
      </trkpt>
      <trkpt lat="49.85143" lon="4.81663">
        <ele>392</ele>
        <time>2022-09-28T09:09:18.000Z</time>
      </trkpt>
      <trkpt lat="49.85144" lon="4.81667">
        <ele>392</ele>
        <time>2022-09-28T09:09:19.000Z</time>
      </trkpt>
      <trkpt lat="49.85144" lon="4.81672">
        <ele>392</ele>
        <time>2022-09-28T09:09:20.000Z</time>
      </trkpt>
      <trkpt lat="49.85143" lon="4.81677">
        <ele>392</ele>
        <time>2022-09-28T09:09:21.000Z</time>
      </trkpt>
      <trkpt lat="49.85143" lon="4.81682">
        <ele>392</ele>
        <time>2022-09-28T09:09:22.000Z</time>
      </trkpt>
      <trkpt lat="49.85144" lon="4.81687">
        <ele>392</ele>
        <time>2022-09-28T09:09:23.000Z</time>
      </trkpt>
      <trkpt lat="49.85144" lon="4.81693">
        <ele>392</ele>
        <time>2022-09-28T09:09:24.000Z</time>
      </trkpt>
      <trkpt lat="49.85146" lon="4.81699">
        <ele>392</ele>
        <time>2022-09-28T09:09:25.000Z</time>
      </trkpt>
      <trkpt lat="49.85147" lon="4.81705">
        <ele>392</ele>
        <time>2022-09-28T09:09:26.000Z</time>
      </trkpt>
      <trkpt lat="49.85149" lon="4.81711">
        <ele>393</ele>
        <time>2022-09-28T09:09:27.000Z</time>
      </trkpt>
      <trkpt lat="49.8515" lon="4.81718">
        <ele>393</ele>
        <time>2022-09-28T09:09:28.000Z</time>
      </trkpt>
      <trkpt lat="49.85152" lon="4.81725">
        <ele>393</ele>
        <time>2022-09-28T09:09:29.000Z</time>
      </trkpt>
      <trkpt lat="49.85153" lon="4.81732">
        <ele>393</ele>
        <time>2022-09-28T09:09:30.000Z</time>
      </trkpt>
      <trkpt lat="49.85155" lon="4.81739">
        <ele>393</ele>
        <time>2022-09-28T09:09:31.000Z</time>
      </trkpt>
      <trkpt lat="49.85156" lon="4.81747">
        <ele>393</ele>
        <time>2022-09-28T09:09:32.000Z</time>
      </trkpt>
      <trkpt lat="49.85158" lon="4.81754">
        <ele>393</ele>
        <time>2022-09-28T09:09:33.000Z</time>
      </trkpt>
      <trkpt lat="49.8516" lon="4.81762">
        <ele>393</ele>
        <time>2022-09-28T09:09:34.000Z</time>
      </trkpt>
      <trkpt lat="49.85162" lon="4.8177">
        <ele>393</ele>
        <time>2022-09-28T09:09:35.000Z</time>
      </trkpt>
      <trkpt lat="49.85164" lon="4.81778">
        <ele>393</ele>
        <time>2022-09-28T09:09:36.000Z</time>
      </trkpt>
      <trkpt lat="49.85166" lon="4.81787">
        <ele>393</ele>
        <time>2022-09-28T09:09:37.000Z</time>
      </trkpt>
      <trkpt lat="49.85167" lon="4.81795">
        <ele>393</ele>
        <time>2022-09-28T09:09:38.000Z</time>
      </trkpt>
      <trkpt lat="49.85169" lon="4.81803">
        <ele>393</ele>
        <time>2022-09-28T09:09:39.000Z</time>
      </trkpt>
      <trkpt lat="49.85171" lon="4.81812">
        <ele>393</ele>
        <time>2022-09-28T09:09:40.000Z</time>
      </trkpt>
      <trkpt lat="49.85173" lon="4.81821">
        <ele>393</ele>
        <time>2022-09-28T09:09:41.000Z</time>
      </trkpt>
      <trkpt lat="49.85175" lon="4.81831">
        <ele>393</ele>
        <time>2022-09-28T09:09:42.000Z</time>
      </trkpt>
      <trkpt lat="49.85178" lon="4.81841">
        <ele>393</ele>
        <time>2022-09-28T09:09:43.000Z</time>
      </trkpt>
      <trkpt lat="49.85181" lon="4.81852">
        <ele>393</ele>
        <time>2022-09-28T09:09:44.000Z</time>
      </trkpt>
      <trkpt lat="49.85183" lon="4.81863">
        <ele>393</ele>
        <time>2022-09-28T09:09:45.000Z</time>
      </trkpt>
      <trkpt lat="49.85184" lon="4.81874">
        <ele>393</ele>
        <time>2022-09-28T09:09:46.000Z</time>
      </trkpt>
      <trkpt lat="49.85185" lon="4.81884">
        <ele>393</ele>
        <time>2022-09-28T09:09:47.000Z</time>
      </trkpt>
      <trkpt lat="49.85186" lon="4.81895">
        <ele>393</ele>
        <time>2022-09-28T09:09:48.000Z</time>
      </trkpt>
      <trkpt lat="49.85186" lon="4.81907">
        <ele>393</ele>
        <time>2022-09-28T09:09:49.000Z</time>
      </trkpt>
      <trkpt lat="49.85187" lon="4.81919">
        <ele>392</ele>
        <time>2022-09-28T09:09:50.000Z</time>
      </trkpt>
      <trkpt lat="49.85187" lon="4.81931">
        <ele>392</ele>
        <time>2022-09-28T09:09:51.000Z</time>
      </trkpt>
      <trkpt lat="49.85187" lon="4.81943">
        <ele>392</ele>
        <time>2022-09-28T09:09:52.000Z</time>
      </trkpt>
      <trkpt lat="49.85187" lon="4.81955">
        <ele>392</ele>
        <time>2022-09-28T09:09:53.000Z</time>
      </trkpt>
      <trkpt lat="49.85188" lon="4.81968">
        <ele>391</ele>
        <time>2022-09-28T09:09:54.000Z</time>
      </trkpt>
      <trkpt lat="49.85189" lon="4.8198">
        <ele>391</ele>
        <time>2022-09-28T09:09:55.000Z</time>
      </trkpt>
      <trkpt lat="49.8519" lon="4.81992">
        <ele>390</ele>
        <time>2022-09-28T09:09:56.000Z</time>
      </trkpt>
      <trkpt lat="49.85191" lon="4.82003">
        <ele>390</ele>
        <time>2022-09-28T09:09:57.000Z</time>
      </trkpt>
      <trkpt lat="49.85192" lon="4.82015">
        <ele>389</ele>
        <time>2022-09-28T09:09:58.000Z</time>
      </trkpt>
      <trkpt lat="49.85194" lon="4.82026">
        <ele>389</ele>
        <time>2022-09-28T09:09:59.000Z</time>
      </trkpt>
      <trkpt lat="49.85196" lon="4.82038">
        <ele>388</ele>
        <time>2022-09-28T09:10:00.000Z</time>
      </trkpt>
      <trkpt lat="49.85198" lon="4.82049">
        <ele>388</ele>
        <time>2022-09-28T09:10:01.000Z</time>
      </trkpt>
      <trkpt lat="49.852" lon="4.82062">
        <ele>387</ele>
        <time>2022-09-28T09:10:02.000Z</time>
      </trkpt>
      <trkpt lat="49.85202" lon="4.82074">
        <ele>387</ele>
        <time>2022-09-28T09:10:03.000Z</time>
      </trkpt>
      <trkpt lat="49.85203" lon="4.82087">
        <ele>386</ele>
        <time>2022-09-28T09:10:04.000Z</time>
      </trkpt>
      <trkpt lat="49.85205" lon="4.82101">
        <ele>386</ele>
        <time>2022-09-28T09:10:05.000Z</time>
      </trkpt>
      <trkpt lat="49.85206" lon="4.82114">
        <ele>385</ele>
        <time>2022-09-28T09:10:06.000Z</time>
      </trkpt>
      <trkpt lat="49.85208" lon="4.82127">
        <ele>384</ele>
        <time>2022-09-28T09:10:07.000Z</time>
      </trkpt>
      <trkpt lat="49.85209" lon="4.8214">
        <ele>384</ele>
        <time>2022-09-28T09:10:08.000Z</time>
      </trkpt>
      <trkpt lat="49.85211" lon="4.82153">
        <ele>383</ele>
        <time>2022-09-28T09:10:09.000Z</time>
      </trkpt>
      <trkpt lat="49.85213" lon="4.82165">
        <ele>383</ele>
        <time>2022-09-28T09:10:10.000Z</time>
      </trkpt>
      <trkpt lat="49.85215" lon="4.82177">
        <ele>382</ele>
        <time>2022-09-28T09:10:11.000Z</time>
      </trkpt>
      <trkpt lat="49.85217" lon="4.82188">
        <ele>381</ele>
        <time>2022-09-28T09:10:12.000Z</time>
      </trkpt>
      <trkpt lat="49.85219" lon="4.82199">
        <ele>381</ele>
        <time>2022-09-28T09:10:13.000Z</time>
      </trkpt>
      <trkpt lat="49.85221" lon="4.82211">
        <ele>380</ele>
        <time>2022-09-28T09:10:14.000Z</time>
      </trkpt>
      <trkpt lat="49.85223" lon="4.82223">
        <ele>379</ele>
        <time>2022-09-28T09:10:15.000Z</time>
      </trkpt>
      <trkpt lat="49.85224" lon="4.82235">
        <ele>379</ele>
        <time>2022-09-28T09:10:16.000Z</time>
      </trkpt>
      <trkpt lat="49.85224" lon="4.82247">
        <ele>378</ele>
        <time>2022-09-28T09:10:17.000Z</time>
      </trkpt>
      <trkpt lat="49.85224" lon="4.82258">
        <ele>377</ele>
        <time>2022-09-28T09:10:18.000Z</time>
      </trkpt>
      <trkpt lat="49.85225" lon="4.8227">
        <ele>376</ele>
        <time>2022-09-28T09:10:19.000Z</time>
      </trkpt>
      <trkpt lat="49.85226" lon="4.82281">
        <ele>376</ele>
        <time>2022-09-28T09:10:20.000Z</time>
      </trkpt>
      <trkpt lat="49.85227" lon="4.82293">
        <ele>375</ele>
        <time>2022-09-28T09:10:21.000Z</time>
      </trkpt>
      <trkpt lat="49.85229" lon="4.82305">
        <ele>374</ele>
        <time>2022-09-28T09:10:22.000Z</time>
      </trkpt>
      <trkpt lat="49.85231" lon="4.82317">
        <ele>374</ele>
        <time>2022-09-28T09:10:23.000Z</time>
      </trkpt>
      <trkpt lat="49.85233" lon="4.82329">
        <ele>373</ele>
        <time>2022-09-28T09:10:24.000Z</time>
      </trkpt>
      <trkpt lat="49.85234" lon="4.82341">
        <ele>373</ele>
        <time>2022-09-28T09:10:25.000Z</time>
      </trkpt>
      <trkpt lat="49.85235" lon="4.82353">
        <ele>372</ele>
        <time>2022-09-28T09:10:26.000Z</time>
      </trkpt>
      <trkpt lat="49.85235" lon="4.82364">
        <ele>371</ele>
        <time>2022-09-28T09:10:27.000Z</time>
      </trkpt>
      <trkpt lat="49.85235" lon="4.82375">
        <ele>371</ele>
        <time>2022-09-28T09:10:28.000Z</time>
      </trkpt>
      <trkpt lat="49.85234" lon="4.82386">
        <ele>370</ele>
        <time>2022-09-28T09:10:29.000Z</time>
      </trkpt>
      <trkpt lat="49.85233" lon="4.82395">
        <ele>370</ele>
        <time>2022-09-28T09:10:30.000Z</time>
      </trkpt>
      <trkpt lat="49.85231" lon="4.82404">
        <ele>369</ele>
        <time>2022-09-28T09:10:31.000Z</time>
      </trkpt>
      <trkpt lat="49.85229" lon="4.82412">
        <ele>369</ele>
        <time>2022-09-28T09:10:32.000Z</time>
      </trkpt>
      <trkpt lat="49.85227" lon="4.8242">
        <ele>368</ele>
        <time>2022-09-28T09:10:33.000Z</time>
      </trkpt>
      <trkpt lat="49.85226" lon="4.82427">
        <ele>368</ele>
        <time>2022-09-28T09:10:34.000Z</time>
      </trkpt>
      <trkpt lat="49.85224" lon="4.82435">
        <ele>367</ele>
        <time>2022-09-28T09:10:35.000Z</time>
      </trkpt>
      <trkpt lat="49.85223" lon="4.82442">
        <ele>367</ele>
        <time>2022-09-28T09:10:36.000Z</time>
      </trkpt>
      <trkpt lat="49.85222" lon="4.82449">
        <ele>367</ele>
        <time>2022-09-28T09:10:37.000Z</time>
      </trkpt>
      <trkpt lat="49.8522" lon="4.82455">
        <ele>366</ele>
        <time>2022-09-28T09:10:38.000Z</time>
      </trkpt>
      <trkpt lat="49.85218" lon="4.8246">
        <ele>366</ele>
        <time>2022-09-28T09:10:39.000Z</time>
      </trkpt>
      <trkpt lat="49.85217" lon="4.82464">
        <ele>366</ele>
        <time>2022-09-28T09:10:40.000Z</time>
      </trkpt>
      <trkpt lat="49.85216" lon="4.82469">
        <ele>366</ele>
        <time>2022-09-28T09:10:41.000Z</time>
      </trkpt>
      <trkpt lat="49.85215" lon="4.82472">
        <ele>366</ele>
        <time>2022-09-28T09:10:42.000Z</time>
      </trkpt>
      <trkpt lat="49.85214" lon="4.82476">
        <ele>365</ele>
        <time>2022-09-28T09:10:43.000Z</time>
      </trkpt>
      <trkpt lat="49.85212" lon="4.8248">
        <ele>365</ele>
        <time>2022-09-28T09:10:44.000Z</time>
      </trkpt>
      <trkpt lat="49.85211" lon="4.82483">
        <ele>365</ele>
        <time>2022-09-28T09:10:45.000Z</time>
      </trkpt>
      <trkpt lat="49.8521" lon="4.82486">
        <ele>365</ele>
        <time>2022-09-28T09:10:46.000Z</time>
      </trkpt>
      <trkpt lat="49.85209" lon="4.82488">
        <ele>365</ele>
        <time>2022-09-28T09:10:47.000Z</time>
      </trkpt>
      <trkpt lat="49.85208" lon="4.8249">
        <ele>365</ele>
        <time>2022-09-28T09:10:48.000Z</time>
      </trkpt>
      <trkpt lat="49.85207" lon="4.82492">
        <ele>365</ele>
        <time>2022-09-28T09:10:49.000Z</time>
      </trkpt>
      <trkpt lat="49.85206" lon="4.82494">
        <ele>365</ele>
        <time>2022-09-28T09:10:50.000Z</time>
      </trkpt>
      <trkpt lat="49.85205" lon="4.82497">
        <ele>364</ele>
        <time>2022-09-28T09:10:51.000Z</time>
      </trkpt>
      <trkpt lat="49.85204" lon="4.82499">
        <ele>364</ele>
        <time>2022-09-28T09:10:52.000Z</time>
      </trkpt>
      <trkpt lat="49.85203" lon="4.82501">
        <ele>364</ele>
        <time>2022-09-28T09:10:53.000Z</time>
      </trkpt>
      <trkpt lat="49.85201" lon="4.82503">
        <ele>364</ele>
        <time>2022-09-28T09:10:54.000Z</time>
      </trkpt>
      <trkpt lat="49.852" lon="4.82505">
        <ele>364</ele>
        <time>2022-09-28T09:10:55.000Z</time>
      </trkpt>
      <trkpt lat="49.85198" lon="4.82506">
        <ele>364</ele>
        <time>2022-09-28T09:10:56.000Z</time>
      </trkpt>
      <trkpt lat="49.85197" lon="4.82509">
        <ele>364</ele>
        <time>2022-09-28T09:10:57.000Z</time>
      </trkpt>
      <trkpt lat="49.85196" lon="4.82511">
        <ele>364</ele>
        <time>2022-09-28T09:10:58.000Z</time>
      </trkpt>
      <trkpt lat="49.85194" lon="4.82513">
        <ele>364</ele>
        <time>2022-09-28T09:10:59.000Z</time>
      </trkpt>
      <trkpt lat="49.85193" lon="4.82515">
        <ele>364</ele>
        <time>2022-09-28T09:11:00.000Z</time>
      </trkpt>
      <trkpt lat="49.85191" lon="4.82517">
        <ele>364</ele>
        <time>2022-09-28T09:11:01.000Z</time>
      </trkpt>
      <trkpt lat="49.8519" lon="4.82519">
        <ele>364</ele>
        <time>2022-09-28T09:11:02.000Z</time>
      </trkpt>
      <trkpt lat="49.85189" lon="4.82521">
        <ele>364</ele>
        <time>2022-09-28T09:11:03.000Z</time>
      </trkpt>
      <trkpt lat="49.85188" lon="4.82523">
        <ele>364</ele>
        <time>2022-09-28T09:11:04.000Z</time>
      </trkpt>
      <trkpt lat="49.85186" lon="4.82525">
        <ele>365</ele>
        <time>2022-09-28T09:11:05.000Z</time>
      </trkpt>
      <trkpt lat="49.85185" lon="4.82528">
        <ele>365</ele>
        <time>2022-09-28T09:11:06.000Z</time>
      </trkpt>
      <trkpt lat="49.85184" lon="4.82531">
        <ele>365</ele>
        <time>2022-09-28T09:11:07.000Z</time>
      </trkpt>
      <trkpt lat="49.85183" lon="4.82533">
        <ele>365</ele>
        <time>2022-09-28T09:11:08.000Z</time>
      </trkpt>
      <trkpt lat="49.85182" lon="4.82535">
        <ele>365</ele>
        <time>2022-09-28T09:11:09.000Z</time>
      </trkpt>
      <trkpt lat="49.8518" lon="4.82537">
        <ele>365</ele>
        <time>2022-09-28T09:11:10.000Z</time>
      </trkpt>
      <trkpt lat="49.85179" lon="4.82539">
        <ele>365</ele>
        <time>2022-09-28T09:11:11.000Z</time>
      </trkpt>
      <trkpt lat="49.85178" lon="4.82542">
        <ele>365</ele>
        <time>2022-09-28T09:11:12.000Z</time>
      </trkpt>
      <trkpt lat="49.85177" lon="4.82544">
        <ele>365</ele>
        <time>2022-09-28T09:11:13.000Z</time>
      </trkpt>
      <trkpt lat="49.85177" lon="4.82546">
        <ele>365</ele>
        <time>2022-09-28T09:11:14.000Z</time>
      </trkpt>
      <trkpt lat="49.85176" lon="4.82548">
        <ele>365</ele>
        <time>2022-09-28T09:11:15.000Z</time>
      </trkpt>
      <trkpt lat="49.85174" lon="4.82551">
        <ele>365</ele>
        <time>2022-09-28T09:11:16.000Z</time>
      </trkpt>
      <trkpt lat="49.85173" lon="4.82553">
        <ele>365</ele>
        <time>2022-09-28T09:11:17.000Z</time>
      </trkpt>
      <trkpt lat="49.85173" lon="4.82555">
        <ele>366</ele>
        <time>2022-09-28T09:11:18.000Z</time>
      </trkpt>
      <trkpt lat="49.85172" lon="4.82557">
        <ele>366</ele>
        <time>2022-09-28T09:11:19.000Z</time>
      </trkpt>
      <trkpt lat="49.85171" lon="4.82559">
        <ele>366</ele>
        <time>2022-09-28T09:11:20.000Z</time>
      </trkpt>
      <trkpt lat="49.8517" lon="4.82561">
        <ele>366</ele>
        <time>2022-09-28T09:11:21.000Z</time>
      </trkpt>
      <trkpt lat="49.85169" lon="4.82563">
        <ele>366</ele>
        <time>2022-09-28T09:11:22.000Z</time>
      </trkpt>
      <trkpt lat="49.85167" lon="4.82565">
        <ele>366</ele>
        <time>2022-09-28T09:11:23.000Z</time>
      </trkpt>
      <trkpt lat="49.85166" lon="4.82566">
        <ele>366</ele>
        <time>2022-09-28T09:11:24.000Z</time>
      </trkpt>
      <trkpt lat="49.85164" lon="4.82568">
        <ele>367</ele>
        <time>2022-09-28T09:11:25.000Z</time>
      </trkpt>
      <trkpt lat="49.85163" lon="4.8257">
        <ele>367</ele>
        <time>2022-09-28T09:11:26.000Z</time>
      </trkpt>
      <trkpt lat="49.85162" lon="4.82572">
        <ele>367</ele>
        <time>2022-09-28T09:11:27.000Z</time>
      </trkpt>
      <trkpt lat="49.8516" lon="4.82574">
        <ele>367</ele>
        <time>2022-09-28T09:11:28.000Z</time>
      </trkpt>
      <trkpt lat="49.85158" lon="4.82577">
        <ele>367</ele>
        <time>2022-09-28T09:11:29.000Z</time>
      </trkpt>
      <trkpt lat="49.85157" lon="4.82579">
        <ele>367</ele>
        <time>2022-09-28T09:11:30.000Z</time>
      </trkpt>
      <trkpt lat="49.85155" lon="4.82581">
        <ele>367</ele>
        <time>2022-09-28T09:11:31.000Z</time>
      </trkpt>
      <trkpt lat="49.85154" lon="4.82585">
        <ele>368</ele>
        <time>2022-09-28T09:11:32.000Z</time>
      </trkpt>
      <trkpt lat="49.85153" lon="4.82588">
        <ele>368</ele>
        <time>2022-09-28T09:11:33.000Z</time>
      </trkpt>
      <trkpt lat="49.85151" lon="4.8259">
        <ele>368</ele>
        <time>2022-09-28T09:11:34.000Z</time>
      </trkpt>
      <trkpt lat="49.8515" lon="4.82592">
        <ele>368</ele>
        <time>2022-09-28T09:11:35.000Z</time>
      </trkpt>
      <trkpt lat="49.85149" lon="4.82595">
        <ele>368</ele>
        <time>2022-09-28T09:11:36.000Z</time>
      </trkpt>
      <trkpt lat="49.85147" lon="4.82596">
        <ele>368</ele>
        <time>2022-09-28T09:11:37.000Z</time>
      </trkpt>
      <trkpt lat="49.85146" lon="4.82598">
        <ele>369</ele>
        <time>2022-09-28T09:11:38.000Z</time>
      </trkpt>
      <trkpt lat="49.85144" lon="4.826">
        <ele>369</ele>
        <time>2022-09-28T09:11:39.000Z</time>
      </trkpt>
      <trkpt lat="49.85143" lon="4.82603">
        <ele>369</ele>
        <time>2022-09-28T09:11:40.000Z</time>
      </trkpt>
      <trkpt lat="49.85141" lon="4.82605">
        <ele>369</ele>
        <time>2022-09-28T09:11:41.000Z</time>
      </trkpt>
      <trkpt lat="49.8514" lon="4.82607">
        <ele>369</ele>
        <time>2022-09-28T09:11:42.000Z</time>
      </trkpt>
      <trkpt lat="49.85139" lon="4.8261">
        <ele>369</ele>
        <time>2022-09-28T09:11:43.000Z</time>
      </trkpt>
      <trkpt lat="49.85138" lon="4.82613">
        <ele>370</ele>
        <time>2022-09-28T09:11:44.000Z</time>
      </trkpt>
      <trkpt lat="49.85136" lon="4.82616">
        <ele>370</ele>
        <time>2022-09-28T09:11:45.000Z</time>
      </trkpt>
      <trkpt lat="49.85135" lon="4.82618">
        <ele>370</ele>
        <time>2022-09-28T09:11:46.000Z</time>
      </trkpt>
      <trkpt lat="49.85133" lon="4.82621">
        <ele>370</ele>
        <time>2022-09-28T09:11:47.000Z</time>
      </trkpt>
      <trkpt lat="49.85131" lon="4.82624">
        <ele>370</ele>
        <time>2022-09-28T09:11:48.000Z</time>
      </trkpt>
      <trkpt lat="49.8513" lon="4.82626">
        <ele>371</ele>
        <time>2022-09-28T09:11:49.000Z</time>
      </trkpt>
      <trkpt lat="49.85129" lon="4.82629">
        <ele>371</ele>
        <time>2022-09-28T09:11:50.000Z</time>
      </trkpt>
      <trkpt lat="49.85128" lon="4.82631">
        <ele>371</ele>
        <time>2022-09-28T09:11:51.000Z</time>
      </trkpt>
      <trkpt lat="49.85127" lon="4.82634">
        <ele>371</ele>
        <time>2022-09-28T09:11:52.000Z</time>
      </trkpt>
      <trkpt lat="49.85125" lon="4.82637">
        <ele>371</ele>
        <time>2022-09-28T09:11:53.000Z</time>
      </trkpt>
      <trkpt lat="49.85124" lon="4.82641">
        <ele>371</ele>
        <time>2022-09-28T09:11:54.000Z</time>
      </trkpt>
      <trkpt lat="49.85123" lon="4.82644">
        <ele>371</ele>
        <time>2022-09-28T09:11:55.000Z</time>
      </trkpt>
      <trkpt lat="49.85123" lon="4.82647">
        <ele>371</ele>
        <time>2022-09-28T09:11:56.000Z</time>
      </trkpt>
      <trkpt lat="49.85122" lon="4.82651">
        <ele>371</ele>
        <time>2022-09-28T09:11:57.000Z</time>
      </trkpt>
      <trkpt lat="49.8512" lon="4.82654">
        <ele>372</ele>
        <time>2022-09-28T09:11:58.000Z</time>
      </trkpt>
      <trkpt lat="49.85119" lon="4.82658">
        <ele>372</ele>
        <time>2022-09-28T09:11:59.000Z</time>
      </trkpt>
      <trkpt lat="49.85118" lon="4.82661">
        <ele>372</ele>
        <time>2022-09-28T09:12:00.000Z</time>
      </trkpt>
      <trkpt lat="49.85116" lon="4.82664">
        <ele>372</ele>
        <time>2022-09-28T09:12:01.000Z</time>
      </trkpt>
      <trkpt lat="49.85115" lon="4.82666">
        <ele>372</ele>
        <time>2022-09-28T09:12:02.000Z</time>
      </trkpt>
      <trkpt lat="49.85114" lon="4.82669">
        <ele>372</ele>
        <time>2022-09-28T09:12:03.000Z</time>
      </trkpt>
      <trkpt lat="49.85112" lon="4.82671">
        <ele>372</ele>
        <time>2022-09-28T09:12:04.000Z</time>
      </trkpt>
      <trkpt lat="49.8511" lon="4.82673">
        <ele>372</ele>
        <time>2022-09-28T09:12:05.000Z</time>
      </trkpt>
      <trkpt lat="49.85108" lon="4.82675">
        <ele>372</ele>
        <time>2022-09-28T09:12:06.000Z</time>
      </trkpt>
      <trkpt lat="49.85106" lon="4.82678">
        <ele>372</ele>
        <time>2022-09-28T09:12:07.000Z</time>
      </trkpt>
      <trkpt lat="49.85104" lon="4.82681">
        <ele>373</ele>
        <time>2022-09-28T09:12:08.000Z</time>
      </trkpt>
      <trkpt lat="49.85103" lon="4.82684">
        <ele>373</ele>
        <time>2022-09-28T09:12:09.000Z</time>
      </trkpt>
      <trkpt lat="49.85101" lon="4.82689">
        <ele>373</ele>
        <time>2022-09-28T09:12:10.000Z</time>
      </trkpt>
      <trkpt lat="49.851" lon="4.82694">
        <ele>373</ele>
        <time>2022-09-28T09:12:11.000Z</time>
      </trkpt>
      <trkpt lat="49.851" lon="4.827">
        <ele>373</ele>
        <time>2022-09-28T09:12:12.000Z</time>
      </trkpt>
      <trkpt lat="49.851" lon="4.82705">
        <ele>373</ele>
        <time>2022-09-28T09:12:13.000Z</time>
      </trkpt>
      <trkpt lat="49.851" lon="4.82711">
        <ele>373</ele>
        <time>2022-09-28T09:12:14.000Z</time>
      </trkpt>
      <trkpt lat="49.85099" lon="4.82717">
        <ele>373</ele>
        <time>2022-09-28T09:12:15.000Z</time>
      </trkpt>
      <trkpt lat="49.85098" lon="4.82723">
        <ele>373</ele>
        <time>2022-09-28T09:12:16.000Z</time>
      </trkpt>
      <trkpt lat="49.85096" lon="4.82728">
        <ele>373</ele>
        <time>2022-09-28T09:12:17.000Z</time>
      </trkpt>
      <trkpt lat="49.85093" lon="4.82732">
        <ele>373</ele>
        <time>2022-09-28T09:12:18.000Z</time>
      </trkpt>
      <trkpt lat="49.85089" lon="4.82735">
        <ele>373</ele>
        <time>2022-09-28T09:12:19.000Z</time>
      </trkpt>
      <trkpt lat="49.85085" lon="4.82737">
        <ele>373</ele>
        <time>2022-09-28T09:12:20.000Z</time>
      </trkpt>
      <trkpt lat="49.85081" lon="4.82739">
        <ele>373</ele>
        <time>2022-09-28T09:12:21.000Z</time>
      </trkpt>
      <trkpt lat="49.85077" lon="4.82742">
        <ele>373</ele>
        <time>2022-09-28T09:12:22.000Z</time>
      </trkpt>
      <trkpt lat="49.85075" lon="4.82744">
        <ele>373</ele>
        <time>2022-09-28T09:12:23.000Z</time>
      </trkpt>
      <trkpt lat="49.85073" lon="4.82747">
        <ele>373</ele>
        <time>2022-09-28T09:12:24.000Z</time>
      </trkpt>
      <trkpt lat="49.85071" lon="4.82749">
        <ele>373</ele>
        <time>2022-09-28T09:12:25.000Z</time>
      </trkpt>
      <trkpt lat="49.8507" lon="4.82752">
        <ele>373</ele>
        <time>2022-09-28T09:12:26.000Z</time>
      </trkpt>
      <trkpt lat="49.85068" lon="4.82756">
        <ele>373</ele>
        <time>2022-09-28T09:12:27.000Z</time>
      </trkpt>
      <trkpt lat="49.85066" lon="4.82759">
        <ele>373</ele>
        <time>2022-09-28T09:12:28.000Z</time>
      </trkpt>
      <trkpt lat="49.85063" lon="4.82762">
        <ele>373</ele>
        <time>2022-09-28T09:12:29.000Z</time>
      </trkpt>
      <trkpt lat="49.85061" lon="4.82766">
        <ele>373</ele>
        <time>2022-09-28T09:12:30.000Z</time>
      </trkpt>
      <trkpt lat="49.85058" lon="4.82769">
        <ele>373</ele>
        <time>2022-09-28T09:12:31.000Z</time>
      </trkpt>
      <trkpt lat="49.85055" lon="4.82773">
        <ele>373</ele>
        <time>2022-09-28T09:12:32.000Z</time>
      </trkpt>
      <trkpt lat="49.85053" lon="4.82776">
        <ele>373</ele>
        <time>2022-09-28T09:12:33.000Z</time>
      </trkpt>
      <trkpt lat="49.8505" lon="4.8278">
        <ele>374</ele>
        <time>2022-09-28T09:12:34.000Z</time>
      </trkpt>
      <trkpt lat="49.85048" lon="4.82783">
        <ele>374</ele>
        <time>2022-09-28T09:12:35.000Z</time>
      </trkpt>
      <trkpt lat="49.85046" lon="4.82785">
        <ele>374</ele>
        <time>2022-09-28T09:12:36.000Z</time>
      </trkpt>
      <trkpt lat="49.85046" lon="4.82786">
        <ele>374</ele>
        <time>2022-09-28T09:12:37.000Z</time>
      </trkpt>
      <trkpt lat="49.85045" lon="4.82787">
        <ele>374</ele>
        <time>2022-09-28T09:12:38.000Z</time>
      </trkpt>
      <trkpt lat="49.85044" lon="4.82789">
        <ele>374</ele>
        <time>2022-09-28T09:12:39.000Z</time>
      </trkpt>
      <trkpt lat="49.85043" lon="4.82791">
        <ele>374</ele>
        <time>2022-09-28T09:12:40.000Z</time>
      </trkpt>
      <trkpt lat="49.85042" lon="4.82793">
        <ele>374</ele>
        <time>2022-09-28T09:12:41.000Z</time>
      </trkpt>
      <trkpt lat="49.8504" lon="4.82795">
        <ele>374</ele>
        <time>2022-09-28T09:12:42.000Z</time>
      </trkpt>
      <trkpt lat="49.85038" lon="4.82798">
        <ele>374</ele>
        <time>2022-09-28T09:12:43.000Z</time>
      </trkpt>
      <trkpt lat="49.85036" lon="4.82799">
        <ele>375</ele>
        <time>2022-09-28T09:12:44.000Z</time>
      </trkpt>
      <trkpt lat="49.85034" lon="4.82802">
        <ele>375</ele>
        <time>2022-09-28T09:12:45.000Z</time>
      </trkpt>
      <trkpt lat="49.85031" lon="4.82804">
        <ele>375</ele>
        <time>2022-09-28T09:12:46.000Z</time>
      </trkpt>
      <trkpt lat="49.85029" lon="4.82805">
        <ele>375</ele>
        <time>2022-09-28T09:12:47.000Z</time>
      </trkpt>
      <trkpt lat="49.85028" lon="4.82807">
        <ele>375</ele>
        <time>2022-09-28T09:12:48.000Z</time>
      </trkpt>
      <trkpt lat="49.85026" lon="4.82809">
        <ele>375</ele>
        <time>2022-09-28T09:12:49.000Z</time>
      </trkpt>
      <trkpt lat="49.85025" lon="4.8281">
        <ele>375</ele>
        <time>2022-09-28T09:12:50.000Z</time>
      </trkpt>
      <trkpt lat="49.85023" lon="4.8281">
        <ele>375</ele>
        <time>2022-09-28T09:12:51.000Z</time>
      </trkpt>
      <trkpt lat="49.85021" lon="4.8281">
        <ele>375</ele>
        <time>2022-09-28T09:12:52.000Z</time>
      </trkpt>
      <trkpt lat="49.85019" lon="4.8281">
        <ele>375</ele>
        <time>2022-09-28T09:12:53.000Z</time>
      </trkpt>
      <trkpt lat="49.85017" lon="4.8281">
        <ele>375</ele>
        <time>2022-09-28T09:12:54.000Z</time>
      </trkpt>
      <trkpt lat="49.85014" lon="4.82811">
        <ele>375</ele>
        <time>2022-09-28T09:12:55.000Z</time>
      </trkpt>
      <trkpt lat="49.85011" lon="4.82812">
        <ele>375</ele>
        <time>2022-09-28T09:12:56.000Z</time>
      </trkpt>
      <trkpt lat="49.85008" lon="4.82813">
        <ele>375</ele>
        <time>2022-09-28T09:12:57.000Z</time>
      </trkpt>
      <trkpt lat="49.85006" lon="4.82814">
        <ele>374</ele>
        <time>2022-09-28T09:12:58.000Z</time>
      </trkpt>
      <trkpt lat="49.85004" lon="4.82816">
        <ele>374</ele>
        <time>2022-09-28T09:12:59.000Z</time>
      </trkpt>
      <trkpt lat="49.85002" lon="4.82817">
        <ele>375</ele>
        <time>2022-09-28T09:13:00.000Z</time>
      </trkpt>
      <trkpt lat="49.85002" lon="4.82818">
        <ele>375</ele>
        <time>2022-09-28T09:13:01.000Z</time>
      </trkpt>
      <trkpt lat="49.85001" lon="4.82818">
        <ele>375</ele>
        <time>2022-09-28T09:13:02.000Z</time>
      </trkpt>
      <trkpt lat="49.85001" lon="4.82818">
        <ele>375</ele>
        <time>2022-09-28T09:13:03.000Z</time>
      </trkpt>
      <trkpt lat="49.85" lon="4.82819">
        <ele>375</ele>
        <time>2022-09-28T09:13:04.000Z</time>
      </trkpt>
      <trkpt lat="49.84999" lon="4.82819">
        <ele>375</ele>
        <time>2022-09-28T09:13:05.000Z</time>
      </trkpt>
      <trkpt lat="49.84999" lon="4.8282">
        <ele>375</ele>
        <time>2022-09-28T09:13:06.000Z</time>
      </trkpt>
      <trkpt lat="49.84999" lon="4.8282">
        <ele>375</ele>
        <time>2022-09-28T09:13:07.000Z</time>
      </trkpt>
      <trkpt lat="49.84998" lon="4.82821">
        <ele>375</ele>
        <time>2022-09-28T09:13:08.000Z</time>
      </trkpt>
      <trkpt lat="49.84998" lon="4.82821">
        <ele>375</ele>
        <time>2022-09-28T09:13:09.000Z</time>
      </trkpt>
      <trkpt lat="49.84998" lon="4.82821">
        <ele>375</ele>
        <time>2022-09-28T09:13:10.000Z</time>
      </trkpt>
      <trkpt lat="49.84998" lon="4.8282">
        <ele>375</ele>
        <time>2022-09-28T09:13:11.000Z</time>
      </trkpt>
      <trkpt lat="49.84999" lon="4.8282">
        <ele>375</ele>
        <time>2022-09-28T09:13:12.000Z</time>
      </trkpt>
      <trkpt lat="49.84999" lon="4.8282">
        <ele>375</ele>
        <time>2022-09-28T09:13:13.000Z</time>
      </trkpt>
      <trkpt lat="49.84998" lon="4.8282">
        <ele>375</ele>
        <time>2022-09-28T09:13:14.000Z</time>
      </trkpt>
      <trkpt lat="49.84998" lon="4.8282">
        <ele>376</ele>
        <time>2022-09-28T09:13:15.000Z</time>
      </trkpt>
      <trkpt lat="49.84998" lon="4.8282">
        <ele>376</ele>
        <time>2022-09-28T09:13:16.000Z</time>
      </trkpt>
      <trkpt lat="49.84997" lon="4.8282">
        <ele>376</ele>
        <time>2022-09-28T09:13:17.000Z</time>
      </trkpt>
      <trkpt lat="49.84996" lon="4.82819">
        <ele>376</ele>
        <time>2022-09-28T09:13:18.000Z</time>
      </trkpt>
      <trkpt lat="49.84995" lon="4.82819">
        <ele>376</ele>
        <time>2022-09-28T09:13:19.000Z</time>
      </trkpt>
      <trkpt lat="49.84995" lon="4.82819">
        <ele>376</ele>
        <time>2022-09-28T09:13:20.000Z</time>
      </trkpt>
      <trkpt lat="49.84994" lon="4.82819">
        <ele>376</ele>
        <time>2022-09-28T09:13:21.000Z</time>
      </trkpt>
      <trkpt lat="49.84993" lon="4.82819">
        <ele>376</ele>
        <time>2022-09-28T09:13:22.000Z</time>
      </trkpt>
      <trkpt lat="49.84993" lon="4.8282">
        <ele>376</ele>
        <time>2022-09-28T09:13:23.000Z</time>
      </trkpt>
      <trkpt lat="49.84992" lon="4.82821">
        <ele>377</ele>
        <time>2022-09-28T09:13:24.000Z</time>
      </trkpt>
      <trkpt lat="49.84992" lon="4.82821">
        <ele>377</ele>
        <time>2022-09-28T09:13:25.000Z</time>
      </trkpt>
      <trkpt lat="49.84992" lon="4.82821">
        <ele>377</ele>
        <time>2022-09-28T09:13:26.000Z</time>
      </trkpt>
      <trkpt lat="49.84991" lon="4.82822">
        <ele>377</ele>
        <time>2022-09-28T09:13:27.000Z</time>
      </trkpt>
      <trkpt lat="49.84991" lon="4.82822">
        <ele>377</ele>
        <time>2022-09-28T09:13:28.000Z</time>
      </trkpt>
      <trkpt lat="49.84991" lon="4.82822">
        <ele>377</ele>
        <time>2022-09-28T09:13:29.000Z</time>
      </trkpt>
      <trkpt lat="49.84991" lon="4.82822">
        <ele>378</ele>
        <time>2022-09-28T09:13:30.000Z</time>
      </trkpt>
      <trkpt lat="49.84991" lon="4.82823">
        <ele>378</ele>
        <time>2022-09-28T09:13:31.000Z</time>
      </trkpt>
      <trkpt lat="49.84991" lon="4.82824">
        <ele>378</ele>
        <time>2022-09-28T09:13:32.000Z</time>
      </trkpt>
      <trkpt lat="49.84991" lon="4.82825">
        <ele>378</ele>
        <time>2022-09-28T09:13:33.000Z</time>
      </trkpt>
      <trkpt lat="49.84992" lon="4.82825">
        <ele>378</ele>
        <time>2022-09-28T09:13:34.000Z</time>
      </trkpt>
      <trkpt lat="49.84992" lon="4.82825">
        <ele>378</ele>
        <time>2022-09-28T09:13:35.000Z</time>
      </trkpt>
      <trkpt lat="49.84992" lon="4.82825">
        <ele>378</ele>
        <time>2022-09-28T09:13:36.000Z</time>
      </trkpt>
      <trkpt lat="49.84992" lon="4.82826">
        <ele>378</ele>
        <time>2022-09-28T09:13:37.000Z</time>
      </trkpt>
      <trkpt lat="49.84992" lon="4.82826">
        <ele>378</ele>
        <time>2022-09-28T09:13:38.000Z</time>
      </trkpt>
      <trkpt lat="49.84992" lon="4.82826">
        <ele>378</ele>
        <time>2022-09-28T09:13:39.000Z</time>
      </trkpt>
      <trkpt lat="49.84992" lon="4.82827">
        <ele>378</ele>
        <time>2022-09-28T09:13:40.000Z</time>
      </trkpt>
      <trkpt lat="49.84991" lon="4.82828">
        <ele>378</ele>
        <time>2022-09-28T09:13:41.000Z</time>
      </trkpt>
      <trkpt lat="49.84991" lon="4.82829">
        <ele>378</ele>
        <time>2022-09-28T09:13:42.000Z</time>
      </trkpt>
      <trkpt lat="49.8499" lon="4.82829">
        <ele>378</ele>
        <time>2022-09-28T09:13:43.000Z</time>
      </trkpt>
      <trkpt lat="49.8499" lon="4.8283">
        <ele>378</ele>
        <time>2022-09-28T09:13:44.000Z</time>
      </trkpt>
      <trkpt lat="49.8499" lon="4.82831">
        <ele>378</ele>
        <time>2022-09-28T09:13:45.000Z</time>
      </trkpt>
      <trkpt lat="49.8499" lon="4.82831">
        <ele>378</ele>
        <time>2022-09-28T09:13:46.000Z</time>
      </trkpt>
      <trkpt lat="49.84989" lon="4.82832">
        <ele>379</ele>
        <time>2022-09-28T09:13:47.000Z</time>
      </trkpt>
      <trkpt lat="49.84989" lon="4.82833">
        <ele>379</ele>
        <time>2022-09-28T09:13:48.000Z</time>
      </trkpt>
      <trkpt lat="49.84989" lon="4.82835">
        <ele>379</ele>
        <time>2022-09-28T09:13:49.000Z</time>
      </trkpt>
      <trkpt lat="49.84988" lon="4.82836">
        <ele>379</ele>
        <time>2022-09-28T09:13:50.000Z</time>
      </trkpt>
      <trkpt lat="49.84989" lon="4.82836">
        <ele>379</ele>
        <time>2022-09-28T09:13:51.000Z</time>
      </trkpt>
      <trkpt lat="49.84989" lon="4.82836">
        <ele>379</ele>
        <time>2022-09-28T09:13:52.000Z</time>
      </trkpt>
      <trkpt lat="49.8499" lon="4.82836">
        <ele>379</ele>
        <time>2022-09-28T09:13:53.000Z</time>
      </trkpt>
      <trkpt lat="49.8499" lon="4.82836">
        <ele>379</ele>
        <time>2022-09-28T09:13:54.000Z</time>
      </trkpt>
      <trkpt lat="49.84992" lon="4.82836">
        <ele>379</ele>
        <time>2022-09-28T09:13:55.000Z</time>
      </trkpt>
      <trkpt lat="49.84993" lon="4.82835">
        <ele>379</ele>
        <time>2022-09-28T09:13:56.000Z</time>
      </trkpt>
      <trkpt lat="49.84994" lon="4.82835">
        <ele>379</ele>
        <time>2022-09-28T09:13:57.000Z</time>
      </trkpt>
      <trkpt lat="49.84996" lon="4.82835">
        <ele>379</ele>
        <time>2022-09-28T09:13:58.000Z</time>
      </trkpt>
      <trkpt lat="49.84997" lon="4.82834">
        <ele>379</ele>
        <time>2022-09-28T09:13:59.000Z</time>
      </trkpt>
      <trkpt lat="49.84997" lon="4.82834">
        <ele>379</ele>
        <time>2022-09-28T09:14:00.000Z</time>
      </trkpt>
      <trkpt lat="49.84998" lon="4.82834">
        <ele>379</ele>
        <time>2022-09-28T09:14:01.000Z</time>
      </trkpt>
      <trkpt lat="49.84998" lon="4.82833">
        <ele>378</ele>
        <time>2022-09-28T09:14:02.000Z</time>
      </trkpt>
      <trkpt lat="49.84998" lon="4.82832">
        <ele>378</ele>
        <time>2022-09-28T09:14:03.000Z</time>
      </trkpt>
      <trkpt lat="49.84999" lon="4.82832">
        <ele>378</ele>
        <time>2022-09-28T09:14:04.000Z</time>
      </trkpt>
      <trkpt lat="49.84999" lon="4.82831">
        <ele>378</ele>
        <time>2022-09-28T09:14:05.000Z</time>
      </trkpt>
      <trkpt lat="49.85" lon="4.8283">
        <ele>377</ele>
        <time>2022-09-28T09:14:06.000Z</time>
      </trkpt>
      <trkpt lat="49.85001" lon="4.8283">
        <ele>377</ele>
        <time>2022-09-28T09:14:07.000Z</time>
      </trkpt>
      <trkpt lat="49.85001" lon="4.82829">
        <ele>377</ele>
        <time>2022-09-28T09:14:08.000Z</time>
      </trkpt>
      <trkpt lat="49.85002" lon="4.82829">
        <ele>377</ele>
        <time>2022-09-28T09:14:09.000Z</time>
      </trkpt>
      <trkpt lat="49.85002" lon="4.82829">
        <ele>376</ele>
        <time>2022-09-28T09:14:10.000Z</time>
      </trkpt>
      <trkpt lat="49.85002" lon="4.82829">
        <ele>376</ele>
        <time>2022-09-28T09:14:11.000Z</time>
      </trkpt>
      <trkpt lat="49.85002" lon="4.82828">
        <ele>376</ele>
        <time>2022-09-28T09:14:12.000Z</time>
      </trkpt>
      <trkpt lat="49.85002" lon="4.82827">
        <ele>376</ele>
        <time>2022-09-28T09:14:13.000Z</time>
      </trkpt>
      <trkpt lat="49.85002" lon="4.82827">
        <ele>376</ele>
        <time>2022-09-28T09:14:14.000Z</time>
      </trkpt>
      <trkpt lat="49.85003" lon="4.82827">
        <ele>376</ele>
        <time>2022-09-28T09:14:15.000Z</time>
      </trkpt>
      <trkpt lat="49.85003" lon="4.82826">
        <ele>376</ele>
        <time>2022-09-28T09:14:16.000Z</time>
      </trkpt>
      <trkpt lat="49.85003" lon="4.82827">
        <ele>376</ele>
        <time>2022-09-28T09:14:17.000Z</time>
      </trkpt>
      <trkpt lat="49.85004" lon="4.82827">
        <ele>376</ele>
        <time>2022-09-28T09:14:18.000Z</time>
      </trkpt>
      <trkpt lat="49.85003" lon="4.82827">
        <ele>376</ele>
        <time>2022-09-28T09:14:19.000Z</time>
      </trkpt>
      <trkpt lat="49.85003" lon="4.82827">
        <ele>376</ele>
        <time>2022-09-28T09:14:20.000Z</time>
      </trkpt>
      <trkpt lat="49.85003" lon="4.82827">
        <ele>376</ele>
        <time>2022-09-28T09:14:21.000Z</time>
      </trkpt>
      <trkpt lat="49.85003" lon="4.82826">
        <ele>376</ele>
        <time>2022-09-28T09:14:22.000Z</time>
      </trkpt>
      <trkpt lat="49.85003" lon="4.82826">
        <ele>376</ele>
        <time>2022-09-28T09:14:23.000Z</time>
      </trkpt>
      <trkpt lat="49.85002" lon="4.82826">
        <ele>376</ele>
        <time>2022-09-28T09:14:24.000Z</time>
      </trkpt>
      <trkpt lat="49.85002" lon="4.82827">
        <ele>376</ele>
        <time>2022-09-28T09:14:25.000Z</time>
      </trkpt>
      <trkpt lat="49.85" lon="4.82828">
        <ele>376</ele>
        <time>2022-09-28T09:14:26.000Z</time>
      </trkpt>
      <trkpt lat="49.84999" lon="4.82829">
        <ele>376</ele>
        <time>2022-09-28T09:14:27.000Z</time>
      </trkpt>
      <trkpt lat="49.84997" lon="4.82829">
        <ele>376</ele>
        <time>2022-09-28T09:14:28.000Z</time>
      </trkpt>
      <trkpt lat="49.84995" lon="4.82829">
        <ele>376</ele>
        <time>2022-09-28T09:14:29.000Z</time>
      </trkpt>
      <trkpt lat="49.84992" lon="4.8283">
        <ele>376</ele>
        <time>2022-09-28T09:14:30.000Z</time>
      </trkpt>
      <trkpt lat="49.8499" lon="4.82831">
        <ele>375</ele>
        <time>2022-09-28T09:14:31.000Z</time>
      </trkpt>
      <trkpt lat="49.84988" lon="4.82832">
        <ele>375</ele>
        <time>2022-09-28T09:14:32.000Z</time>
      </trkpt>
      <trkpt lat="49.84986" lon="4.82833">
        <ele>375</ele>
        <time>2022-09-28T09:14:33.000Z</time>
      </trkpt>
      <trkpt lat="49.84985" lon="4.82835">
        <ele>375</ele>
        <time>2022-09-28T09:14:34.000Z</time>
      </trkpt>
      <trkpt lat="49.84983" lon="4.82838">
        <ele>375</ele>
        <time>2022-09-28T09:14:35.000Z</time>
      </trkpt>
      <trkpt lat="49.84981" lon="4.82841">
        <ele>375</ele>
        <time>2022-09-28T09:14:36.000Z</time>
      </trkpt>
      <trkpt lat="49.8498" lon="4.82844">
        <ele>375</ele>
        <time>2022-09-28T09:14:37.000Z</time>
      </trkpt>
      <trkpt lat="49.84979" lon="4.82846">
        <ele>375</ele>
        <time>2022-09-28T09:14:38.000Z</time>
      </trkpt>
      <trkpt lat="49.84977" lon="4.82849">
        <ele>375</ele>
        <time>2022-09-28T09:14:39.000Z</time>
      </trkpt>
      <trkpt lat="49.84976" lon="4.82851">
        <ele>375</ele>
        <time>2022-09-28T09:14:40.000Z</time>
      </trkpt>
      <trkpt lat="49.84975" lon="4.82853">
        <ele>375</ele>
        <time>2022-09-28T09:14:41.000Z</time>
      </trkpt>
      <trkpt lat="49.84975" lon="4.82855">
        <ele>375</ele>
        <time>2022-09-28T09:14:42.000Z</time>
      </trkpt>
      <trkpt lat="49.84973" lon="4.82857">
        <ele>375</ele>
        <time>2022-09-28T09:14:43.000Z</time>
      </trkpt>
      <trkpt lat="49.84972" lon="4.82858">
        <ele>375</ele>
        <time>2022-09-28T09:14:44.000Z</time>
      </trkpt>
      <trkpt lat="49.84971" lon="4.8286">
        <ele>375</ele>
        <time>2022-09-28T09:14:45.000Z</time>
      </trkpt>
      <trkpt lat="49.8497" lon="4.82861">
        <ele>375</ele>
        <time>2022-09-28T09:14:46.000Z</time>
      </trkpt>
      <trkpt lat="49.8497" lon="4.82862">
        <ele>375</ele>
        <time>2022-09-28T09:14:47.000Z</time>
      </trkpt>
      <trkpt lat="49.8497" lon="4.82863">
        <ele>375</ele>
        <time>2022-09-28T09:14:48.000Z</time>
      </trkpt>
      <trkpt lat="49.8497" lon="4.82864">
        <ele>375</ele>
        <time>2022-09-28T09:14:49.000Z</time>
      </trkpt>
      <trkpt lat="49.84969" lon="4.82865">
        <ele>375</ele>
        <time>2022-09-28T09:14:50.000Z</time>
      </trkpt>
      <trkpt lat="49.84969" lon="4.82865">
        <ele>375</ele>
        <time>2022-09-28T09:14:51.000Z</time>
      </trkpt>
      <trkpt lat="49.84969" lon="4.82866">
        <ele>375</ele>
        <time>2022-09-28T09:14:52.000Z</time>
      </trkpt>
      <trkpt lat="49.84969" lon="4.82867">
        <ele>375</ele>
        <time>2022-09-28T09:14:53.000Z</time>
      </trkpt>
      <trkpt lat="49.84969" lon="4.82868">
        <ele>375</ele>
        <time>2022-09-28T09:14:54.000Z</time>
      </trkpt>
      <trkpt lat="49.84969" lon="4.82868">
        <ele>375</ele>
        <time>2022-09-28T09:14:55.000Z</time>
      </trkpt>
      <trkpt lat="49.84969" lon="4.82868">
        <ele>375</ele>
        <time>2022-09-28T09:14:56.000Z</time>
      </trkpt>
      <trkpt lat="49.84969" lon="4.82868">
        <ele>374</ele>
        <time>2022-09-28T09:14:57.000Z</time>
      </trkpt>
      <trkpt lat="49.84969" lon="4.82868">
        <ele>374</ele>
        <time>2022-09-28T09:14:58.000Z</time>
      </trkpt>
      <trkpt lat="49.84969" lon="4.82868">
        <ele>374</ele>
        <time>2022-09-28T09:14:59.000Z</time>
      </trkpt>
      <trkpt lat="49.84969" lon="4.82869">
        <ele>374</ele>
        <time>2022-09-28T09:15:00.000Z</time>
      </trkpt>
      <trkpt lat="49.84968" lon="4.82869">
        <ele>374</ele>
        <time>2022-09-28T09:15:01.000Z</time>
      </trkpt>
      <trkpt lat="49.84968" lon="4.82869">
        <ele>374</ele>
        <time>2022-09-28T09:15:02.000Z</time>
      </trkpt>
      <trkpt lat="49.84968" lon="4.82869">
        <ele>374</ele>
        <time>2022-09-28T09:15:03.000Z</time>
      </trkpt>
      <trkpt lat="49.84967" lon="4.82868">
        <ele>374</ele>
        <time>2022-09-28T09:15:04.000Z</time>
      </trkpt>
      <trkpt lat="49.84967" lon="4.82867">
        <ele>374</ele>
        <time>2022-09-28T09:15:05.000Z</time>
      </trkpt>
      <trkpt lat="49.84967" lon="4.82867">
        <ele>374</ele>
        <time>2022-09-28T09:15:06.000Z</time>
      </trkpt>
      <trkpt lat="49.84967" lon="4.82867">
        <ele>374</ele>
        <time>2022-09-28T09:15:07.000Z</time>
      </trkpt>
      <trkpt lat="49.84967" lon="4.82867">
        <ele>374</ele>
        <time>2022-09-28T09:15:08.000Z</time>
      </trkpt>
      <trkpt lat="49.84967" lon="4.82868">
        <ele>374</ele>
        <time>2022-09-28T09:15:09.000Z</time>
      </trkpt>
      <trkpt lat="49.84966" lon="4.82868">
        <ele>374</ele>
        <time>2022-09-28T09:15:10.000Z</time>
      </trkpt>
      <trkpt lat="49.84966" lon="4.82867">
        <ele>374</ele>
        <time>2022-09-28T09:15:11.000Z</time>
      </trkpt>
      <trkpt lat="49.84965" lon="4.82867">
        <ele>373</ele>
        <time>2022-09-28T09:15:12.000Z</time>
      </trkpt>
      <trkpt lat="49.84965" lon="4.82867">
        <ele>373</ele>
        <time>2022-09-28T09:15:13.000Z</time>
      </trkpt>
      <trkpt lat="49.84964" lon="4.82867">
        <ele>373</ele>
        <time>2022-09-28T09:15:14.000Z</time>
      </trkpt>
      <trkpt lat="49.84964" lon="4.82867">
        <ele>373</ele>
        <time>2022-09-28T09:15:15.000Z</time>
      </trkpt>
      <trkpt lat="49.84964" lon="4.82868">
        <ele>373</ele>
        <time>2022-09-28T09:15:16.000Z</time>
      </trkpt>
      <trkpt lat="49.84963" lon="4.82868">
        <ele>373</ele>
        <time>2022-09-28T09:15:17.000Z</time>
      </trkpt>
      <trkpt lat="49.84963" lon="4.82869">
        <ele>373</ele>
        <time>2022-09-28T09:15:18.000Z</time>
      </trkpt>
      <trkpt lat="49.84962" lon="4.82869">
        <ele>373</ele>
        <time>2022-09-28T09:15:19.000Z</time>
      </trkpt>
      <trkpt lat="49.84962" lon="4.82869">
        <ele>373</ele>
        <time>2022-09-28T09:15:20.000Z</time>
      </trkpt>
      <trkpt lat="49.84962" lon="4.8287">
        <ele>373</ele>
        <time>2022-09-28T09:15:21.000Z</time>
      </trkpt>
      <trkpt lat="49.84962" lon="4.82871">
        <ele>373</ele>
        <time>2022-09-28T09:15:22.000Z</time>
      </trkpt>
      <trkpt lat="49.84962" lon="4.82872">
        <ele>373</ele>
        <time>2022-09-28T09:15:23.000Z</time>
      </trkpt>
      <trkpt lat="49.84961" lon="4.82873">
        <ele>373</ele>
        <time>2022-09-28T09:15:24.000Z</time>
      </trkpt>
      <trkpt lat="49.8496" lon="4.82874">
        <ele>373</ele>
        <time>2022-09-28T09:15:25.000Z</time>
      </trkpt>
      <trkpt lat="49.84958" lon="4.82875">
        <ele>373</ele>
        <time>2022-09-28T09:15:26.000Z</time>
      </trkpt>
      <trkpt lat="49.84957" lon="4.82877">
        <ele>372</ele>
        <time>2022-09-28T09:15:27.000Z</time>
      </trkpt>
      <trkpt lat="49.84956" lon="4.82878">
        <ele>372</ele>
        <time>2022-09-28T09:15:28.000Z</time>
      </trkpt>
      <trkpt lat="49.84956" lon="4.82879">
        <ele>372</ele>
        <time>2022-09-28T09:15:29.000Z</time>
      </trkpt>
      <trkpt lat="49.84956" lon="4.82879">
        <ele>372</ele>
        <time>2022-09-28T09:15:30.000Z</time>
      </trkpt>
      <trkpt lat="49.84956" lon="4.82879">
        <ele>372</ele>
        <time>2022-09-28T09:15:31.000Z</time>
      </trkpt>
      <trkpt lat="49.84955" lon="4.82879">
        <ele>372</ele>
        <time>2022-09-28T09:15:32.000Z</time>
      </trkpt>
      <trkpt lat="49.84955" lon="4.8288">
        <ele>372</ele>
        <time>2022-09-28T09:15:33.000Z</time>
      </trkpt>
      <trkpt lat="49.84955" lon="4.8288">
        <ele>372</ele>
        <time>2022-09-28T09:15:34.000Z</time>
      </trkpt>
      <trkpt lat="49.84955" lon="4.8288">
        <ele>372</ele>
        <time>2022-09-28T09:15:35.000Z</time>
      </trkpt>
      <trkpt lat="49.84955" lon="4.8288">
        <ele>372</ele>
        <time>2022-09-28T09:15:36.000Z</time>
      </trkpt>
      <trkpt lat="49.84955" lon="4.8288">
        <ele>372</ele>
        <time>2022-09-28T09:15:37.000Z</time>
      </trkpt>
      <trkpt lat="49.84955" lon="4.82879">
        <ele>372</ele>
        <time>2022-09-28T09:15:38.000Z</time>
      </trkpt>
      <trkpt lat="49.84955" lon="4.82878">
        <ele>372</ele>
        <time>2022-09-28T09:15:39.000Z</time>
      </trkpt>
      <trkpt lat="49.84955" lon="4.82877">
        <ele>371</ele>
        <time>2022-09-28T09:15:40.000Z</time>
      </trkpt>
      <trkpt lat="49.84955" lon="4.82876">
        <ele>371</ele>
        <time>2022-09-28T09:15:41.000Z</time>
      </trkpt>
      <trkpt lat="49.84955" lon="4.82875">
        <ele>371</ele>
        <time>2022-09-28T09:15:42.000Z</time>
      </trkpt>
      <trkpt lat="49.84955" lon="4.82874">
        <ele>371</ele>
        <time>2022-09-28T09:15:43.000Z</time>
      </trkpt>
      <trkpt lat="49.84954" lon="4.82874">
        <ele>370</ele>
        <time>2022-09-28T09:15:44.000Z</time>
      </trkpt>
      <trkpt lat="49.84954" lon="4.82874">
        <ele>370</ele>
        <time>2022-09-28T09:15:45.000Z</time>
      </trkpt>
      <trkpt lat="49.84954" lon="4.82873">
        <ele>370</ele>
        <time>2022-09-28T09:15:46.000Z</time>
      </trkpt>
      <trkpt lat="49.84954" lon="4.82873">
        <ele>370</ele>
        <time>2022-09-28T09:15:47.000Z</time>
      </trkpt>
      <trkpt lat="49.84954" lon="4.82872">
        <ele>369</ele>
        <time>2022-09-28T09:15:48.000Z</time>
      </trkpt>
      <trkpt lat="49.84954" lon="4.82871">
        <ele>369</ele>
        <time>2022-09-28T09:15:49.000Z</time>
      </trkpt>
      <trkpt lat="49.84954" lon="4.82871">
        <ele>369</ele>
        <time>2022-09-28T09:15:50.000Z</time>
      </trkpt>
      <trkpt lat="49.84954" lon="4.82871">
        <ele>369</ele>
        <time>2022-09-28T09:15:51.000Z</time>
      </trkpt>
      <trkpt lat="49.84954" lon="4.82871">
        <ele>369</ele>
        <time>2022-09-28T09:15:52.000Z</time>
      </trkpt>
      <trkpt lat="49.84953" lon="4.82871">
        <ele>369</ele>
        <time>2022-09-28T09:15:53.000Z</time>
      </trkpt>
      <trkpt lat="49.84953" lon="4.8287">
        <ele>369</ele>
        <time>2022-09-28T09:15:54.000Z</time>
      </trkpt>
      <trkpt lat="49.84953" lon="4.82869">
        <ele>368</ele>
        <time>2022-09-28T09:15:55.000Z</time>
      </trkpt>
      <trkpt lat="49.84953" lon="4.82867">
        <ele>368</ele>
        <time>2022-09-28T09:15:56.000Z</time>
      </trkpt>
      <trkpt lat="49.84953" lon="4.82867">
        <ele>368</ele>
        <time>2022-09-28T09:15:57.000Z</time>
      </trkpt>
      <trkpt lat="49.84953" lon="4.82867">
        <ele>368</ele>
        <time>2022-09-28T09:15:58.000Z</time>
      </trkpt>
      <trkpt lat="49.84954" lon="4.82867">
        <ele>368</ele>
        <time>2022-09-28T09:15:59.000Z</time>
      </trkpt>
      <trkpt lat="49.84954" lon="4.82867">
        <ele>368</ele>
        <time>2022-09-28T09:16:00.000Z</time>
      </trkpt>
      <trkpt lat="49.84954" lon="4.82867">
        <ele>368</ele>
        <time>2022-09-28T09:16:01.000Z</time>
      </trkpt>
      <trkpt lat="49.84954" lon="4.82867">
        <ele>368</ele>
        <time>2022-09-28T09:16:02.000Z</time>
      </trkpt>
      <trkpt lat="49.84955" lon="4.82866">
        <ele>368</ele>
        <time>2022-09-28T09:16:03.000Z</time>
      </trkpt>
      <trkpt lat="49.84955" lon="4.82866">
        <ele>367</ele>
        <time>2022-09-28T09:16:04.000Z</time>
      </trkpt>
      <trkpt lat="49.84956" lon="4.82866">
        <ele>367</ele>
        <time>2022-09-28T09:16:05.000Z</time>
      </trkpt>
      <trkpt lat="49.84956" lon="4.82866">
        <ele>367</ele>
        <time>2022-09-28T09:16:06.000Z</time>
      </trkpt>
      <trkpt lat="49.84957" lon="4.82866">
        <ele>367</ele>
        <time>2022-09-28T09:16:07.000Z</time>
      </trkpt>
      <trkpt lat="49.84957" lon="4.82866">
        <ele>367</ele>
        <time>2022-09-28T09:16:08.000Z</time>
      </trkpt>
      <trkpt lat="49.84958" lon="4.82865">
        <ele>367</ele>
        <time>2022-09-28T09:16:09.000Z</time>
      </trkpt>
      <trkpt lat="49.84959" lon="4.82866">
        <ele>367</ele>
        <time>2022-09-28T09:16:10.000Z</time>
      </trkpt>
      <trkpt lat="49.84959" lon="4.82868">
        <ele>367</ele>
        <time>2022-09-28T09:16:11.000Z</time>
      </trkpt>
      <trkpt lat="49.84959" lon="4.8287">
        <ele>367</ele>
        <time>2022-09-28T09:16:12.000Z</time>
      </trkpt>
      <trkpt lat="49.84959" lon="4.82871">
        <ele>367</ele>
        <time>2022-09-28T09:16:13.000Z</time>
      </trkpt>
      <trkpt lat="49.84959" lon="4.82871">
        <ele>367</ele>
        <time>2022-09-28T09:16:14.000Z</time>
      </trkpt>
      <trkpt lat="49.84959" lon="4.82872">
        <ele>367</ele>
        <time>2022-09-28T09:16:15.000Z</time>
      </trkpt>
      <trkpt lat="49.84959" lon="4.82872">
        <ele>367</ele>
        <time>2022-09-28T09:16:16.000Z</time>
      </trkpt>
      <trkpt lat="49.84958" lon="4.82873">
        <ele>367</ele>
        <time>2022-09-28T09:16:17.000Z</time>
      </trkpt>
      <trkpt lat="49.84958" lon="4.82873">
        <ele>367</ele>
        <time>2022-09-28T09:16:18.000Z</time>
      </trkpt>
      <trkpt lat="49.84958" lon="4.82873">
        <ele>367</ele>
        <time>2022-09-28T09:16:19.000Z</time>
      </trkpt>
      <trkpt lat="49.84958" lon="4.82873">
        <ele>367</ele>
        <time>2022-09-28T09:16:20.000Z</time>
      </trkpt>
      <trkpt lat="49.84958" lon="4.82873">
        <ele>367</ele>
        <time>2022-09-28T09:16:21.000Z</time>
      </trkpt>
      <trkpt lat="49.84958" lon="4.82874">
        <ele>367</ele>
        <time>2022-09-28T09:16:22.000Z</time>
      </trkpt>
      <trkpt lat="49.84958" lon="4.82874">
        <ele>367</ele>
        <time>2022-09-28T09:16:23.000Z</time>
      </trkpt>
      <trkpt lat="49.84958" lon="4.82874">
        <ele>367</ele>
        <time>2022-09-28T09:16:24.000Z</time>
      </trkpt>
      <trkpt lat="49.84958" lon="4.82874">
        <ele>367</ele>
        <time>2022-09-28T09:16:25.000Z</time>
      </trkpt>
      <trkpt lat="49.84958" lon="4.82874">
        <ele>367</ele>
        <time>2022-09-28T09:16:26.000Z</time>
      </trkpt>
      <trkpt lat="49.84958" lon="4.82875">
        <ele>367</ele>
        <time>2022-09-28T09:16:27.000Z</time>
      </trkpt>
      <trkpt lat="49.84957" lon="4.82875">
        <ele>367</ele>
        <time>2022-09-28T09:16:28.000Z</time>
      </trkpt>
      <trkpt lat="49.84956" lon="4.82875">
        <ele>367</ele>
        <time>2022-09-28T09:16:29.000Z</time>
      </trkpt>
      <trkpt lat="49.84956" lon="4.82875">
        <ele>367</ele>
        <time>2022-09-28T09:16:30.000Z</time>
      </trkpt>
      <trkpt lat="49.84956" lon="4.82876">
        <ele>367</ele>
        <time>2022-09-28T09:16:31.000Z</time>
      </trkpt>
      <trkpt lat="49.84956" lon="4.82876">
        <ele>367</ele>
        <time>2022-09-28T09:16:32.000Z</time>
      </trkpt>
      <trkpt lat="49.84955" lon="4.82877">
        <ele>367</ele>
        <time>2022-09-28T09:16:33.000Z</time>
      </trkpt>
      <trkpt lat="49.84955" lon="4.82877">
        <ele>367</ele>
        <time>2022-09-28T09:16:34.000Z</time>
      </trkpt>
      <trkpt lat="49.84954" lon="4.82877">
        <ele>367</ele>
        <time>2022-09-28T09:16:35.000Z</time>
      </trkpt>
      <trkpt lat="49.84954" lon="4.82877">
        <ele>368</ele>
        <time>2022-09-28T09:16:36.000Z</time>
      </trkpt>
      <trkpt lat="49.84954" lon="4.82878">
        <ele>368</ele>
        <time>2022-09-28T09:16:37.000Z</time>
      </trkpt>
      <trkpt lat="49.84953" lon="4.82878">
        <ele>368</ele>
        <time>2022-09-28T09:16:38.000Z</time>
      </trkpt>
      <trkpt lat="49.84953" lon="4.82877">
        <ele>368</ele>
        <time>2022-09-28T09:16:39.000Z</time>
      </trkpt>
      <trkpt lat="49.84952" lon="4.82877">
        <ele>368</ele>
        <time>2022-09-28T09:16:40.000Z</time>
      </trkpt>
      <trkpt lat="49.84952" lon="4.82877">
        <ele>368</ele>
        <time>2022-09-28T09:16:41.000Z</time>
      </trkpt>
      <trkpt lat="49.84951" lon="4.82877">
        <ele>368</ele>
        <time>2022-09-28T09:16:42.000Z</time>
      </trkpt>
      <trkpt lat="49.84951" lon="4.82878">
        <ele>368</ele>
        <time>2022-09-28T09:16:43.000Z</time>
      </trkpt>
      <trkpt lat="49.84951" lon="4.82878">
        <ele>368</ele>
        <time>2022-09-28T09:16:44.000Z</time>
      </trkpt>
      <trkpt lat="49.8495" lon="4.82878">
        <ele>368</ele>
        <time>2022-09-28T09:16:45.000Z</time>
      </trkpt>
      <trkpt lat="49.8495" lon="4.82878">
        <ele>368</ele>
        <time>2022-09-28T09:16:46.000Z</time>
      </trkpt>
      <trkpt lat="49.84949" lon="4.82877">
        <ele>368</ele>
        <time>2022-09-28T09:16:47.000Z</time>
      </trkpt>
      <trkpt lat="49.84948" lon="4.82878">
        <ele>368</ele>
        <time>2022-09-28T09:16:48.000Z</time>
      </trkpt>
      <trkpt lat="49.84948" lon="4.82878">
        <ele>368</ele>
        <time>2022-09-28T09:16:49.000Z</time>
      </trkpt>
      <trkpt lat="49.84948" lon="4.82878">
        <ele>368</ele>
        <time>2022-09-28T09:16:50.000Z</time>
      </trkpt>
      <trkpt lat="49.84949" lon="4.82878">
        <ele>368</ele>
        <time>2022-09-28T09:16:51.000Z</time>
      </trkpt>
      <trkpt lat="49.84949" lon="4.82878">
        <ele>368</ele>
        <time>2022-09-28T09:16:52.000Z</time>
      </trkpt>
      <trkpt lat="49.84949" lon="4.82879">
        <ele>368</ele>
        <time>2022-09-28T09:16:53.000Z</time>
      </trkpt>
      <trkpt lat="49.84949" lon="4.82879">
        <ele>368</ele>
        <time>2022-09-28T09:16:54.000Z</time>
      </trkpt>
      <trkpt lat="49.84949" lon="4.82878">
        <ele>368</ele>
        <time>2022-09-28T09:16:55.000Z</time>
      </trkpt>
      <trkpt lat="49.84949" lon="4.82878">
        <ele>368</ele>
        <time>2022-09-28T09:16:56.000Z</time>
      </trkpt>
      <trkpt lat="49.84949" lon="4.82878">
        <ele>368</ele>
        <time>2022-09-28T09:16:57.000Z</time>
      </trkpt>
      <trkpt lat="49.8495" lon="4.82878">
        <ele>368</ele>
        <time>2022-09-28T09:16:58.000Z</time>
      </trkpt>
      <trkpt lat="49.8495" lon="4.82878">
        <ele>368</ele>
        <time>2022-09-28T09:16:59.000Z</time>
      </trkpt>
      <trkpt lat="49.8495" lon="4.82878">
        <ele>368</ele>
        <time>2022-09-28T09:17:00.000Z</time>
      </trkpt>
      <trkpt lat="49.8495" lon="4.82878">
        <ele>368</ele>
        <time>2022-09-28T09:17:01.000Z</time>
      </trkpt>
      <trkpt lat="49.8495" lon="4.82878">
        <ele>368</ele>
        <time>2022-09-28T09:17:02.000Z</time>
      </trkpt>
      <trkpt lat="49.84949" lon="4.82878">
        <ele>368</ele>
        <time>2022-09-28T09:17:03.000Z</time>
      </trkpt>
      <trkpt lat="49.84949" lon="4.82879">
        <ele>368</ele>
        <time>2022-09-28T09:17:04.000Z</time>
      </trkpt>
      <trkpt lat="49.84949" lon="4.82879">
        <ele>368</ele>
        <time>2022-09-28T09:17:05.000Z</time>
      </trkpt>
      <trkpt lat="49.84949" lon="4.82879">
        <ele>368</ele>
        <time>2022-09-28T09:17:06.000Z</time>
      </trkpt>
      <trkpt lat="49.84948" lon="4.82878">
        <ele>368</ele>
        <time>2022-09-28T09:17:07.000Z</time>
      </trkpt>
      <trkpt lat="49.84947" lon="4.82878">
        <ele>368</ele>
        <time>2022-09-28T09:17:08.000Z</time>
      </trkpt>
      <trkpt lat="49.84946" lon="4.82878">
        <ele>368</ele>
        <time>2022-09-28T09:17:09.000Z</time>
      </trkpt>
      <trkpt lat="49.84945" lon="4.82879">
        <ele>368</ele>
        <time>2022-09-28T09:17:10.000Z</time>
      </trkpt>
      <trkpt lat="49.84945" lon="4.82879">
        <ele>368</ele>
        <time>2022-09-28T09:17:11.000Z</time>
      </trkpt>
      <trkpt lat="49.84945" lon="4.8288">
        <ele>368</ele>
        <time>2022-09-28T09:17:12.000Z</time>
      </trkpt>
      <trkpt lat="49.84945" lon="4.82881">
        <ele>368</ele>
        <time>2022-09-28T09:17:13.000Z</time>
      </trkpt>
      <trkpt lat="49.84945" lon="4.82881">
        <ele>368</ele>
        <time>2022-09-28T09:17:14.000Z</time>
      </trkpt>
      <trkpt lat="49.84945" lon="4.82881">
        <ele>368</ele>
        <time>2022-09-28T09:17:15.000Z</time>
      </trkpt>
      <trkpt lat="49.84945" lon="4.82882">
        <ele>368</ele>
        <time>2022-09-28T09:17:16.000Z</time>
      </trkpt>
      <trkpt lat="49.84945" lon="4.82883">
        <ele>368</ele>
        <time>2022-09-28T09:17:17.000Z</time>
      </trkpt>
      <trkpt lat="49.84945" lon="4.82885">
        <ele>368</ele>
        <time>2022-09-28T09:17:18.000Z</time>
      </trkpt>
      <trkpt lat="49.84945" lon="4.82887">
        <ele>368</ele>
        <time>2022-09-28T09:17:19.000Z</time>
      </trkpt>
      <trkpt lat="49.84945" lon="4.82889">
        <ele>368</ele>
        <time>2022-09-28T09:17:20.000Z</time>
      </trkpt>
      <trkpt lat="49.84945" lon="4.8289">
        <ele>368</ele>
        <time>2022-09-28T09:17:21.000Z</time>
      </trkpt>
      <trkpt lat="49.84946" lon="4.8289">
        <ele>368</ele>
        <time>2022-09-28T09:17:22.000Z</time>
      </trkpt>
      <trkpt lat="49.84946" lon="4.82891">
        <ele>368</ele>
        <time>2022-09-28T09:17:23.000Z</time>
      </trkpt>
      <trkpt lat="49.84946" lon="4.82891">
        <ele>369</ele>
        <time>2022-09-28T09:17:24.000Z</time>
      </trkpt>
      <trkpt lat="49.84947" lon="4.82893">
        <ele>369</ele>
        <time>2022-09-28T09:17:25.000Z</time>
      </trkpt>
      <trkpt lat="49.84947" lon="4.82895">
        <ele>369</ele>
        <time>2022-09-28T09:17:26.000Z</time>
      </trkpt>
      <trkpt lat="49.84948" lon="4.82898">
        <ele>369</ele>
        <time>2022-09-28T09:17:27.000Z</time>
      </trkpt>
      <trkpt lat="49.84948" lon="4.829">
        <ele>369</ele>
        <time>2022-09-28T09:17:28.000Z</time>
      </trkpt>
      <trkpt lat="49.84949" lon="4.82902">
        <ele>369</ele>
        <time>2022-09-28T09:17:29.000Z</time>
      </trkpt>
      <trkpt lat="49.8495" lon="4.82905">
        <ele>369</ele>
        <time>2022-09-28T09:17:30.000Z</time>
      </trkpt>
      <trkpt lat="49.8495" lon="4.82909">
        <ele>369</ele>
        <time>2022-09-28T09:17:31.000Z</time>
      </trkpt>
      <trkpt lat="49.8495" lon="4.82913">
        <ele>369</ele>
        <time>2022-09-28T09:17:32.000Z</time>
      </trkpt>
      <trkpt lat="49.8495" lon="4.82917">
        <ele>369</ele>
        <time>2022-09-28T09:17:33.000Z</time>
      </trkpt>
      <trkpt lat="49.8495" lon="4.82921">
        <ele>369</ele>
        <time>2022-09-28T09:17:34.000Z</time>
      </trkpt>
      <trkpt lat="49.84949" lon="4.82925">
        <ele>369</ele>
        <time>2022-09-28T09:17:35.000Z</time>
      </trkpt>
      <trkpt lat="49.84948" lon="4.82929">
        <ele>369</ele>
        <time>2022-09-28T09:17:36.000Z</time>
      </trkpt>
      <trkpt lat="49.84947" lon="4.82934">
        <ele>369</ele>
        <time>2022-09-28T09:17:37.000Z</time>
      </trkpt>
      <trkpt lat="49.84946" lon="4.82938">
        <ele>369</ele>
        <time>2022-09-28T09:17:38.000Z</time>
      </trkpt>
      <trkpt lat="49.84944" lon="4.82943">
        <ele>369</ele>
        <time>2022-09-28T09:17:39.000Z</time>
      </trkpt>
      <trkpt lat="49.84942" lon="4.82948">
        <ele>369</ele>
        <time>2022-09-28T09:17:40.000Z</time>
      </trkpt>
      <trkpt lat="49.84939" lon="4.82954">
        <ele>369</ele>
        <time>2022-09-28T09:17:41.000Z</time>
      </trkpt>
      <trkpt lat="49.84937" lon="4.8296">
        <ele>368</ele>
        <time>2022-09-28T09:17:42.000Z</time>
      </trkpt>
      <trkpt lat="49.84935" lon="4.82967">
        <ele>368</ele>
        <time>2022-09-28T09:17:43.000Z</time>
      </trkpt>
      <trkpt lat="49.84932" lon="4.82973">
        <ele>368</ele>
        <time>2022-09-28T09:17:44.000Z</time>
      </trkpt>
      <trkpt lat="49.8493" lon="4.8298">
        <ele>368</ele>
        <time>2022-09-28T09:17:45.000Z</time>
      </trkpt>
      <trkpt lat="49.84927" lon="4.82986">
        <ele>368</ele>
        <time>2022-09-28T09:17:46.000Z</time>
      </trkpt>
      <trkpt lat="49.84925" lon="4.82992">
        <ele>368</ele>
        <time>2022-09-28T09:17:47.000Z</time>
      </trkpt>
      <trkpt lat="49.84923" lon="4.82998">
        <ele>368</ele>
        <time>2022-09-28T09:17:48.000Z</time>
      </trkpt>
      <trkpt lat="49.84921" lon="4.83003">
        <ele>368</ele>
        <time>2022-09-28T09:17:49.000Z</time>
      </trkpt>
      <trkpt lat="49.84918" lon="4.83008">
        <ele>368</ele>
        <time>2022-09-28T09:17:50.000Z</time>
      </trkpt>
      <trkpt lat="49.84915" lon="4.83014">
        <ele>368</ele>
        <time>2022-09-28T09:17:51.000Z</time>
      </trkpt>
      <trkpt lat="49.84912" lon="4.83019">
        <ele>368</ele>
        <time>2022-09-28T09:17:52.000Z</time>
      </trkpt>
      <trkpt lat="49.8491" lon="4.83024">
        <ele>368</ele>
        <time>2022-09-28T09:17:53.000Z</time>
      </trkpt>
      <trkpt lat="49.84907" lon="4.83029">
        <ele>368</ele>
        <time>2022-09-28T09:17:54.000Z</time>
      </trkpt>
      <trkpt lat="49.84904" lon="4.83032">
        <ele>368</ele>
        <time>2022-09-28T09:17:55.000Z</time>
      </trkpt>
      <trkpt lat="49.84901" lon="4.83037">
        <ele>368</ele>
        <time>2022-09-28T09:17:56.000Z</time>
      </trkpt>
      <trkpt lat="49.84898" lon="4.83042">
        <ele>368</ele>
        <time>2022-09-28T09:17:57.000Z</time>
      </trkpt>
      <trkpt lat="49.84895" lon="4.83047">
        <ele>368</ele>
        <time>2022-09-28T09:17:58.000Z</time>
      </trkpt>
      <trkpt lat="49.84891" lon="4.83051">
        <ele>367</ele>
        <time>2022-09-28T09:17:59.000Z</time>
      </trkpt>
      <trkpt lat="49.84887" lon="4.83056">
        <ele>367</ele>
        <time>2022-09-28T09:18:00.000Z</time>
      </trkpt>
      <trkpt lat="49.84883" lon="4.83061">
        <ele>367</ele>
        <time>2022-09-28T09:18:01.000Z</time>
      </trkpt>
      <trkpt lat="49.8488" lon="4.83066">
        <ele>367</ele>
        <time>2022-09-28T09:18:02.000Z</time>
      </trkpt>
      <trkpt lat="49.84877" lon="4.83071">
        <ele>366</ele>
        <time>2022-09-28T09:18:03.000Z</time>
      </trkpt>
      <trkpt lat="49.84874" lon="4.83075">
        <ele>366</ele>
        <time>2022-09-28T09:18:04.000Z</time>
      </trkpt>
      <trkpt lat="49.84872" lon="4.8308">
        <ele>366</ele>
        <time>2022-09-28T09:18:05.000Z</time>
      </trkpt>
      <trkpt lat="49.84869" lon="4.83085">
        <ele>366</ele>
        <time>2022-09-28T09:18:06.000Z</time>
      </trkpt>
      <trkpt lat="49.84865" lon="4.8309">
        <ele>366</ele>
        <time>2022-09-28T09:18:07.000Z</time>
      </trkpt>
      <trkpt lat="49.84862" lon="4.83095">
        <ele>365</ele>
        <time>2022-09-28T09:18:08.000Z</time>
      </trkpt>
      <trkpt lat="49.8486" lon="4.83099">
        <ele>365</ele>
        <time>2022-09-28T09:18:09.000Z</time>
      </trkpt>
      <trkpt lat="49.84857" lon="4.83103">
        <ele>365</ele>
        <time>2022-09-28T09:18:10.000Z</time>
      </trkpt>
      <trkpt lat="49.84854" lon="4.83107">
        <ele>365</ele>
        <time>2022-09-28T09:18:11.000Z</time>
      </trkpt>
      <trkpt lat="49.8485" lon="4.83111">
        <ele>365</ele>
        <time>2022-09-28T09:18:12.000Z</time>
      </trkpt>
      <trkpt lat="49.84847" lon="4.83115">
        <ele>364</ele>
        <time>2022-09-28T09:18:13.000Z</time>
      </trkpt>
      <trkpt lat="49.84844" lon="4.83121">
        <ele>364</ele>
        <time>2022-09-28T09:18:14.000Z</time>
      </trkpt>
      <trkpt lat="49.8484" lon="4.83125">
        <ele>364</ele>
        <time>2022-09-28T09:18:15.000Z</time>
      </trkpt>
      <trkpt lat="49.84838" lon="4.8313">
        <ele>364</ele>
        <time>2022-09-28T09:18:16.000Z</time>
      </trkpt>
      <trkpt lat="49.84834" lon="4.83134">
        <ele>364</ele>
        <time>2022-09-28T09:18:17.000Z</time>
      </trkpt>
      <trkpt lat="49.84832" lon="4.83138">
        <ele>363</ele>
        <time>2022-09-28T09:18:18.000Z</time>
      </trkpt>
      <trkpt lat="49.84829" lon="4.83142">
        <ele>363</ele>
        <time>2022-09-28T09:18:19.000Z</time>
      </trkpt>
      <trkpt lat="49.84827" lon="4.83146">
        <ele>363</ele>
        <time>2022-09-28T09:18:20.000Z</time>
      </trkpt>
      <trkpt lat="49.84824" lon="4.8315">
        <ele>363</ele>
        <time>2022-09-28T09:18:21.000Z</time>
      </trkpt>
      <trkpt lat="49.84821" lon="4.83155">
        <ele>362</ele>
        <time>2022-09-28T09:18:22.000Z</time>
      </trkpt>
      <trkpt lat="49.84819" lon="4.83159">
        <ele>362</ele>
        <time>2022-09-28T09:18:23.000Z</time>
      </trkpt>
      <trkpt lat="49.84816" lon="4.83164">
        <ele>362</ele>
        <time>2022-09-28T09:18:24.000Z</time>
      </trkpt>
      <trkpt lat="49.84814" lon="4.83169">
        <ele>362</ele>
        <time>2022-09-28T09:18:25.000Z</time>
      </trkpt>
      <trkpt lat="49.84812" lon="4.83173">
        <ele>362</ele>
        <time>2022-09-28T09:18:26.000Z</time>
      </trkpt>
      <trkpt lat="49.8481" lon="4.83176">
        <ele>361</ele>
        <time>2022-09-28T09:18:27.000Z</time>
      </trkpt>
      <trkpt lat="49.84807" lon="4.83181">
        <ele>361</ele>
        <time>2022-09-28T09:18:28.000Z</time>
      </trkpt>
      <trkpt lat="49.84804" lon="4.83185">
        <ele>361</ele>
        <time>2022-09-28T09:18:29.000Z</time>
      </trkpt>
      <trkpt lat="49.848" lon="4.83189">
        <ele>361</ele>
        <time>2022-09-28T09:18:30.000Z</time>
      </trkpt>
      <trkpt lat="49.84797" lon="4.83193">
        <ele>361</ele>
        <time>2022-09-28T09:18:31.000Z</time>
      </trkpt>
      <trkpt lat="49.84794" lon="4.83198">
        <ele>361</ele>
        <time>2022-09-28T09:18:32.000Z</time>
      </trkpt>
      <trkpt lat="49.84792" lon="4.83203">
        <ele>361</ele>
        <time>2022-09-28T09:18:33.000Z</time>
      </trkpt>
      <trkpt lat="49.8479" lon="4.83209">
        <ele>360</ele>
        <time>2022-09-28T09:18:34.000Z</time>
      </trkpt>
      <trkpt lat="49.84788" lon="4.83214">
        <ele>361</ele>
        <time>2022-09-28T09:18:35.000Z</time>
      </trkpt>
      <trkpt lat="49.84786" lon="4.83219">
        <ele>361</ele>
        <time>2022-09-28T09:18:36.000Z</time>
      </trkpt>
      <trkpt lat="49.84785" lon="4.83224">
        <ele>361</ele>
        <time>2022-09-28T09:18:37.000Z</time>
      </trkpt>
      <trkpt lat="49.84783" lon="4.83229">
        <ele>361</ele>
        <time>2022-09-28T09:18:38.000Z</time>
      </trkpt>
      <trkpt lat="49.84781" lon="4.83234">
        <ele>361</ele>
        <time>2022-09-28T09:18:39.000Z</time>
      </trkpt>
      <trkpt lat="49.8478" lon="4.8324">
        <ele>361</ele>
        <time>2022-09-28T09:18:40.000Z</time>
      </trkpt>
      <trkpt lat="49.8478" lon="4.83245">
        <ele>361</ele>
        <time>2022-09-28T09:18:41.000Z</time>
      </trkpt>
      <trkpt lat="49.84779" lon="4.8325">
        <ele>361</ele>
        <time>2022-09-28T09:18:42.000Z</time>
      </trkpt>
      <trkpt lat="49.84779" lon="4.83255">
        <ele>361</ele>
        <time>2022-09-28T09:18:43.000Z</time>
      </trkpt>
      <trkpt lat="49.84779" lon="4.83259">
        <ele>361</ele>
        <time>2022-09-28T09:18:44.000Z</time>
      </trkpt>
      <trkpt lat="49.8478" lon="4.83263">
        <ele>361</ele>
        <time>2022-09-28T09:18:45.000Z</time>
      </trkpt>
      <trkpt lat="49.8478" lon="4.83267">
        <ele>361</ele>
        <time>2022-09-28T09:18:46.000Z</time>
      </trkpt>
      <trkpt lat="49.8478" lon="4.83271">
        <ele>361</ele>
        <time>2022-09-28T09:18:47.000Z</time>
      </trkpt>
      <trkpt lat="49.8478" lon="4.83276">
        <ele>361</ele>
        <time>2022-09-28T09:18:48.000Z</time>
      </trkpt>
      <trkpt lat="49.84779" lon="4.83282">
        <ele>361</ele>
        <time>2022-09-28T09:18:49.000Z</time>
      </trkpt>
      <trkpt lat="49.84781" lon="4.8329">
        <ele>361</ele>
        <time>2022-09-28T09:18:50.000Z</time>
      </trkpt>
      <trkpt lat="49.84781" lon="4.83298">
        <ele>361</ele>
        <time>2022-09-28T09:18:51.000Z</time>
      </trkpt>
      <trkpt lat="49.84782" lon="4.83308">
        <ele>361</ele>
        <time>2022-09-28T09:18:52.000Z</time>
      </trkpt>
      <trkpt lat="49.84782" lon="4.83318">
        <ele>360</ele>
        <time>2022-09-28T09:18:53.000Z</time>
      </trkpt>
      <trkpt lat="49.84783" lon="4.83329">
        <ele>360</ele>
        <time>2022-09-28T09:18:54.000Z</time>
      </trkpt>
      <trkpt lat="49.84784" lon="4.83341">
        <ele>360</ele>
        <time>2022-09-28T09:18:55.000Z</time>
      </trkpt>
      <trkpt lat="49.84784" lon="4.83352">
        <ele>360</ele>
        <time>2022-09-28T09:18:56.000Z</time>
      </trkpt>
      <trkpt lat="49.84784" lon="4.83364">
        <ele>360</ele>
        <time>2022-09-28T09:18:57.000Z</time>
      </trkpt>
      <trkpt lat="49.84784" lon="4.83376">
        <ele>360</ele>
        <time>2022-09-28T09:18:58.000Z</time>
      </trkpt>
      <trkpt lat="49.84785" lon="4.83387">
        <ele>359</ele>
        <time>2022-09-28T09:18:59.000Z</time>
      </trkpt>
      <trkpt lat="49.84785" lon="4.83398">
        <ele>359</ele>
        <time>2022-09-28T09:19:00.000Z</time>
      </trkpt>
      <trkpt lat="49.84786" lon="4.83411">
        <ele>359</ele>
        <time>2022-09-28T09:19:01.000Z</time>
      </trkpt>
      <trkpt lat="49.84785" lon="4.83424">
        <ele>358</ele>
        <time>2022-09-28T09:19:02.000Z</time>
      </trkpt>
      <trkpt lat="49.84784" lon="4.83438">
        <ele>358</ele>
        <time>2022-09-28T09:19:03.000Z</time>
      </trkpt>
      <trkpt lat="49.84783" lon="4.83451">
        <ele>358</ele>
        <time>2022-09-28T09:19:04.000Z</time>
      </trkpt>
      <trkpt lat="49.84783" lon="4.83461">
        <ele>357</ele>
        <time>2022-09-28T09:19:05.000Z</time>
      </trkpt>
      <trkpt lat="49.84782" lon="4.83469">
        <ele>357</ele>
        <time>2022-09-28T09:19:06.000Z</time>
      </trkpt>
      <trkpt lat="49.84782" lon="4.83476">
        <ele>357</ele>
        <time>2022-09-28T09:19:07.000Z</time>
      </trkpt>
      <trkpt lat="49.84782" lon="4.83483">
        <ele>357</ele>
        <time>2022-09-28T09:19:08.000Z</time>
      </trkpt>
      <trkpt lat="49.84781" lon="4.8349">
        <ele>356</ele>
        <time>2022-09-28T09:19:09.000Z</time>
      </trkpt>
      <trkpt lat="49.84782" lon="4.83497">
        <ele>356</ele>
        <time>2022-09-28T09:19:10.000Z</time>
      </trkpt>
      <trkpt lat="49.84782" lon="4.83504">
        <ele>356</ele>
        <time>2022-09-28T09:19:11.000Z</time>
      </trkpt>
      <trkpt lat="49.84782" lon="4.83512">
        <ele>356</ele>
        <time>2022-09-28T09:19:12.000Z</time>
      </trkpt>
      <trkpt lat="49.84782" lon="4.8352">
        <ele>356</ele>
        <time>2022-09-28T09:19:13.000Z</time>
      </trkpt>
      <trkpt lat="49.84782" lon="4.83527">
        <ele>355</ele>
        <time>2022-09-28T09:19:14.000Z</time>
      </trkpt>
      <trkpt lat="49.84782" lon="4.83535">
        <ele>355</ele>
        <time>2022-09-28T09:19:15.000Z</time>
      </trkpt>
      <trkpt lat="49.84781" lon="4.83542">
        <ele>355</ele>
        <time>2022-09-28T09:19:16.000Z</time>
      </trkpt>
      <trkpt lat="49.84781" lon="4.83549">
        <ele>355</ele>
        <time>2022-09-28T09:19:17.000Z</time>
      </trkpt>
      <trkpt lat="49.8478" lon="4.83556">
        <ele>355</ele>
        <time>2022-09-28T09:19:18.000Z</time>
      </trkpt>
      <trkpt lat="49.8478" lon="4.83564">
        <ele>354</ele>
        <time>2022-09-28T09:19:19.000Z</time>
      </trkpt>
      <trkpt lat="49.84779" lon="4.83571">
        <ele>354</ele>
        <time>2022-09-28T09:19:20.000Z</time>
      </trkpt>
      <trkpt lat="49.84779" lon="4.83578">
        <ele>354</ele>
        <time>2022-09-28T09:19:21.000Z</time>
      </trkpt>
      <trkpt lat="49.84779" lon="4.83584">
        <ele>353</ele>
        <time>2022-09-28T09:19:22.000Z</time>
      </trkpt>
      <trkpt lat="49.84779" lon="4.8359">
        <ele>353</ele>
        <time>2022-09-28T09:19:23.000Z</time>
      </trkpt>
      <trkpt lat="49.84778" lon="4.83595">
        <ele>353</ele>
        <time>2022-09-28T09:19:24.000Z</time>
      </trkpt>
      <trkpt lat="49.84778" lon="4.83602">
        <ele>353</ele>
        <time>2022-09-28T09:19:25.000Z</time>
      </trkpt>
      <trkpt lat="49.84778" lon="4.83609">
        <ele>353</ele>
        <time>2022-09-28T09:19:26.000Z</time>
      </trkpt>
      <trkpt lat="49.84778" lon="4.83616">
        <ele>353</ele>
        <time>2022-09-28T09:19:27.000Z</time>
      </trkpt>
      <trkpt lat="49.84779" lon="4.83623">
        <ele>352</ele>
        <time>2022-09-28T09:19:28.000Z</time>
      </trkpt>
      <trkpt lat="49.84779" lon="4.8363">
        <ele>352</ele>
        <time>2022-09-28T09:19:29.000Z</time>
      </trkpt>
      <trkpt lat="49.84779" lon="4.83637">
        <ele>352</ele>
        <time>2022-09-28T09:19:30.000Z</time>
      </trkpt>
      <trkpt lat="49.84779" lon="4.83644">
        <ele>352</ele>
        <time>2022-09-28T09:19:31.000Z</time>
      </trkpt>
      <trkpt lat="49.8478" lon="4.83653">
        <ele>352</ele>
        <time>2022-09-28T09:19:32.000Z</time>
      </trkpt>
      <trkpt lat="49.8478" lon="4.83662">
        <ele>352</ele>
        <time>2022-09-28T09:19:33.000Z</time>
      </trkpt>
      <trkpt lat="49.8478" lon="4.8367">
        <ele>352</ele>
        <time>2022-09-28T09:19:34.000Z</time>
      </trkpt>
      <trkpt lat="49.8478" lon="4.83678">
        <ele>352</ele>
        <time>2022-09-28T09:19:35.000Z</time>
      </trkpt>
      <trkpt lat="49.8478" lon="4.83686">
        <ele>352</ele>
        <time>2022-09-28T09:19:36.000Z</time>
      </trkpt>
      <trkpt lat="49.8478" lon="4.83694">
        <ele>352</ele>
        <time>2022-09-28T09:19:37.000Z</time>
      </trkpt>
      <trkpt lat="49.84781" lon="4.83701">
        <ele>352</ele>
        <time>2022-09-28T09:19:38.000Z</time>
      </trkpt>
      <trkpt lat="49.84781" lon="4.83708">
        <ele>352</ele>
        <time>2022-09-28T09:19:39.000Z</time>
      </trkpt>
      <trkpt lat="49.84781" lon="4.83716">
        <ele>352</ele>
        <time>2022-09-28T09:19:40.000Z</time>
      </trkpt>
      <trkpt lat="49.84781" lon="4.83725">
        <ele>351</ele>
        <time>2022-09-28T09:19:41.000Z</time>
      </trkpt>
      <trkpt lat="49.84782" lon="4.83734">
        <ele>351</ele>
        <time>2022-09-28T09:19:42.000Z</time>
      </trkpt>
      <trkpt lat="49.84782" lon="4.83742">
        <ele>351</ele>
        <time>2022-09-28T09:19:43.000Z</time>
      </trkpt>
      <trkpt lat="49.84783" lon="4.83751">
        <ele>351</ele>
        <time>2022-09-28T09:19:44.000Z</time>
      </trkpt>
      <trkpt lat="49.84783" lon="4.8376">
        <ele>351</ele>
        <time>2022-09-28T09:19:45.000Z</time>
      </trkpt>
      <trkpt lat="49.84783" lon="4.83769">
        <ele>351</ele>
        <time>2022-09-28T09:19:46.000Z</time>
      </trkpt>
      <trkpt lat="49.84784" lon="4.83778">
        <ele>351</ele>
        <time>2022-09-28T09:19:47.000Z</time>
      </trkpt>
      <trkpt lat="49.84784" lon="4.83786">
        <ele>351</ele>
        <time>2022-09-28T09:19:48.000Z</time>
      </trkpt>
      <trkpt lat="49.84784" lon="4.83794">
        <ele>351</ele>
        <time>2022-09-28T09:19:49.000Z</time>
      </trkpt>
      <trkpt lat="49.84784" lon="4.83802">
        <ele>351</ele>
        <time>2022-09-28T09:19:50.000Z</time>
      </trkpt>
      <trkpt lat="49.84784" lon="4.83809">
        <ele>351</ele>
        <time>2022-09-28T09:19:51.000Z</time>
      </trkpt>
      <trkpt lat="49.84783" lon="4.83815">
        <ele>350</ele>
        <time>2022-09-28T09:19:52.000Z</time>
      </trkpt>
      <trkpt lat="49.84783" lon="4.83821">
        <ele>350</ele>
        <time>2022-09-28T09:19:53.000Z</time>
      </trkpt>
      <trkpt lat="49.84781" lon="4.83827">
        <ele>350</ele>
        <time>2022-09-28T09:19:54.000Z</time>
      </trkpt>
      <trkpt lat="49.8478" lon="4.83833">
        <ele>350</ele>
        <time>2022-09-28T09:19:55.000Z</time>
      </trkpt>
      <trkpt lat="49.84779" lon="4.83839">
        <ele>350</ele>
        <time>2022-09-28T09:19:56.000Z</time>
      </trkpt>
      <trkpt lat="49.84777" lon="4.83846">
        <ele>350</ele>
        <time>2022-09-28T09:19:57.000Z</time>
      </trkpt>
      <trkpt lat="49.84775" lon="4.83852">
        <ele>350</ele>
        <time>2022-09-28T09:19:58.000Z</time>
      </trkpt>
      <trkpt lat="49.84772" lon="4.83858">
        <ele>350</ele>
        <time>2022-09-28T09:19:59.000Z</time>
      </trkpt>
      <trkpt lat="49.8477" lon="4.83864">
        <ele>350</ele>
        <time>2022-09-28T09:20:00.000Z</time>
      </trkpt>
      <trkpt lat="49.84767" lon="4.83871">
        <ele>350</ele>
        <time>2022-09-28T09:20:01.000Z</time>
      </trkpt>
      <trkpt lat="49.84765" lon="4.83877">
        <ele>350</ele>
        <time>2022-09-28T09:20:02.000Z</time>
      </trkpt>
      <trkpt lat="49.84762" lon="4.83883">
        <ele>350</ele>
        <time>2022-09-28T09:20:03.000Z</time>
      </trkpt>
      <trkpt lat="49.84759" lon="4.83889">
        <ele>350</ele>
        <time>2022-09-28T09:20:04.000Z</time>
      </trkpt>
      <trkpt lat="49.84756" lon="4.83894">
        <ele>350</ele>
        <time>2022-09-28T09:20:05.000Z</time>
      </trkpt>
      <trkpt lat="49.84753" lon="4.83899">
        <ele>350</ele>
        <time>2022-09-28T09:20:06.000Z</time>
      </trkpt>
      <trkpt lat="49.84751" lon="4.83903">
        <ele>350</ele>
        <time>2022-09-28T09:20:07.000Z</time>
      </trkpt>
      <trkpt lat="49.84749" lon="4.83908">
        <ele>350</ele>
        <time>2022-09-28T09:20:08.000Z</time>
      </trkpt>
      <trkpt lat="49.84746" lon="4.83913">
        <ele>350</ele>
        <time>2022-09-28T09:20:09.000Z</time>
      </trkpt>
      <trkpt lat="49.84744" lon="4.83918">
        <ele>350</ele>
        <time>2022-09-28T09:20:10.000Z</time>
      </trkpt>
      <trkpt lat="49.84741" lon="4.83921">
        <ele>350</ele>
        <time>2022-09-28T09:20:11.000Z</time>
      </trkpt>
      <trkpt lat="49.84739" lon="4.83926">
        <ele>350</ele>
        <time>2022-09-28T09:20:12.000Z</time>
      </trkpt>
      <trkpt lat="49.84737" lon="4.8393">
        <ele>350</ele>
        <time>2022-09-28T09:20:13.000Z</time>
      </trkpt>
      <trkpt lat="49.84734" lon="4.83934">
        <ele>350</ele>
        <time>2022-09-28T09:20:14.000Z</time>
      </trkpt>
      <trkpt lat="49.84732" lon="4.83937">
        <ele>350</ele>
        <time>2022-09-28T09:20:15.000Z</time>
      </trkpt>
      <trkpt lat="49.84729" lon="4.83941">
        <ele>350</ele>
        <time>2022-09-28T09:20:16.000Z</time>
      </trkpt>
      <trkpt lat="49.84727" lon="4.83945">
        <ele>350</ele>
        <time>2022-09-28T09:20:17.000Z</time>
      </trkpt>
      <trkpt lat="49.84725" lon="4.83949">
        <ele>350</ele>
        <time>2022-09-28T09:20:18.000Z</time>
      </trkpt>
      <trkpt lat="49.84722" lon="4.83953">
        <ele>351</ele>
        <time>2022-09-28T09:20:19.000Z</time>
      </trkpt>
      <trkpt lat="49.84719" lon="4.83956">
        <ele>351</ele>
        <time>2022-09-28T09:20:20.000Z</time>
      </trkpt>
      <trkpt lat="49.84717" lon="4.83959">
        <ele>351</ele>
        <time>2022-09-28T09:20:21.000Z</time>
      </trkpt>
      <trkpt lat="49.84714" lon="4.83962">
        <ele>351</ele>
        <time>2022-09-28T09:20:22.000Z</time>
      </trkpt>
      <trkpt lat="49.8471" lon="4.83965">
        <ele>351</ele>
        <time>2022-09-28T09:20:23.000Z</time>
      </trkpt>
      <trkpt lat="49.84707" lon="4.83968">
        <ele>351</ele>
        <time>2022-09-28T09:20:24.000Z</time>
      </trkpt>
      <trkpt lat="49.84704" lon="4.8397">
        <ele>352</ele>
        <time>2022-09-28T09:20:25.000Z</time>
      </trkpt>
      <trkpt lat="49.84701" lon="4.83972">
        <ele>352</ele>
        <time>2022-09-28T09:20:26.000Z</time>
      </trkpt>
      <trkpt lat="49.84698" lon="4.83973">
        <ele>352</ele>
        <time>2022-09-28T09:20:27.000Z</time>
      </trkpt>
      <trkpt lat="49.84695" lon="4.83975">
        <ele>352</ele>
        <time>2022-09-28T09:20:28.000Z</time>
      </trkpt>
      <trkpt lat="49.84691" lon="4.83976">
        <ele>353</ele>
        <time>2022-09-28T09:20:29.000Z</time>
      </trkpt>
      <trkpt lat="49.84688" lon="4.83979">
        <ele>353</ele>
        <time>2022-09-28T09:20:30.000Z</time>
      </trkpt>
      <trkpt lat="49.84685" lon="4.8398">
        <ele>353</ele>
        <time>2022-09-28T09:20:31.000Z</time>
      </trkpt>
      <trkpt lat="49.84682" lon="4.83982">
        <ele>353</ele>
        <time>2022-09-28T09:20:32.000Z</time>
      </trkpt>
      <trkpt lat="49.84679" lon="4.83983">
        <ele>354</ele>
        <time>2022-09-28T09:20:33.000Z</time>
      </trkpt>
      <trkpt lat="49.84676" lon="4.83984">
        <ele>354</ele>
        <time>2022-09-28T09:20:34.000Z</time>
      </trkpt>
      <trkpt lat="49.84673" lon="4.83986">
        <ele>354</ele>
        <time>2022-09-28T09:20:35.000Z</time>
      </trkpt>
      <trkpt lat="49.84671" lon="4.83988">
        <ele>354</ele>
        <time>2022-09-28T09:20:36.000Z</time>
      </trkpt>
      <trkpt lat="49.84667" lon="4.8399">
        <ele>355</ele>
        <time>2022-09-28T09:20:37.000Z</time>
      </trkpt>
      <trkpt lat="49.84664" lon="4.83992">
        <ele>355</ele>
        <time>2022-09-28T09:20:38.000Z</time>
      </trkpt>
      <trkpt lat="49.84661" lon="4.83993">
        <ele>355</ele>
        <time>2022-09-28T09:20:39.000Z</time>
      </trkpt>
      <trkpt lat="49.84657" lon="4.83994">
        <ele>356</ele>
        <time>2022-09-28T09:20:40.000Z</time>
      </trkpt>
      <trkpt lat="49.84654" lon="4.83995">
        <ele>356</ele>
        <time>2022-09-28T09:20:41.000Z</time>
      </trkpt>
      <trkpt lat="49.84651" lon="4.83996">
        <ele>356</ele>
        <time>2022-09-28T09:20:42.000Z</time>
      </trkpt>
      <trkpt lat="49.84647" lon="4.83997">
        <ele>356</ele>
        <time>2022-09-28T09:20:43.000Z</time>
      </trkpt>
      <trkpt lat="49.84645" lon="4.83998">
        <ele>357</ele>
        <time>2022-09-28T09:20:44.000Z</time>
      </trkpt>
      <trkpt lat="49.84642" lon="4.83998">
        <ele>357</ele>
        <time>2022-09-28T09:20:45.000Z</time>
      </trkpt>
      <trkpt lat="49.84639" lon="4.83999">
        <ele>357</ele>
        <time>2022-09-28T09:20:46.000Z</time>
      </trkpt>
      <trkpt lat="49.84637" lon="4.84">
        <ele>357</ele>
        <time>2022-09-28T09:20:47.000Z</time>
      </trkpt>
      <trkpt lat="49.84634" lon="4.84001">
        <ele>357</ele>
        <time>2022-09-28T09:20:48.000Z</time>
      </trkpt>
      <trkpt lat="49.84631" lon="4.84002">
        <ele>358</ele>
        <time>2022-09-28T09:20:49.000Z</time>
      </trkpt>
      <trkpt lat="49.84629" lon="4.84002">
        <ele>358</ele>
        <time>2022-09-28T09:20:50.000Z</time>
      </trkpt>
      <trkpt lat="49.84626" lon="4.84003">
        <ele>358</ele>
        <time>2022-09-28T09:20:51.000Z</time>
      </trkpt>
      <trkpt lat="49.84623" lon="4.84003">
        <ele>358</ele>
        <time>2022-09-28T09:20:52.000Z</time>
      </trkpt>
      <trkpt lat="49.8462" lon="4.84005">
        <ele>359</ele>
        <time>2022-09-28T09:20:53.000Z</time>
      </trkpt>
      <trkpt lat="49.84616" lon="4.84006">
        <ele>359</ele>
        <time>2022-09-28T09:20:54.000Z</time>
      </trkpt>
      <trkpt lat="49.84613" lon="4.84008">
        <ele>359</ele>
        <time>2022-09-28T09:20:55.000Z</time>
      </trkpt>
      <trkpt lat="49.8461" lon="4.84009">
        <ele>360</ele>
        <time>2022-09-28T09:20:56.000Z</time>
      </trkpt>
      <trkpt lat="49.84606" lon="4.84011">
        <ele>360</ele>
        <time>2022-09-28T09:20:57.000Z</time>
      </trkpt>
      <trkpt lat="49.84603" lon="4.84014">
        <ele>360</ele>
        <time>2022-09-28T09:20:58.000Z</time>
      </trkpt>
      <trkpt lat="49.846" lon="4.84016">
        <ele>360</ele>
        <time>2022-09-28T09:20:59.000Z</time>
      </trkpt>
      <trkpt lat="49.84597" lon="4.84018">
        <ele>361</ele>
        <time>2022-09-28T09:21:00.000Z</time>
      </trkpt>
      <trkpt lat="49.84593" lon="4.84021">
        <ele>361</ele>
        <time>2022-09-28T09:21:01.000Z</time>
      </trkpt>
      <trkpt lat="49.8459" lon="4.84023">
        <ele>361</ele>
        <time>2022-09-28T09:21:02.000Z</time>
      </trkpt>
      <trkpt lat="49.84587" lon="4.84026">
        <ele>361</ele>
        <time>2022-09-28T09:21:03.000Z</time>
      </trkpt>
      <trkpt lat="49.84583" lon="4.84028">
        <ele>362</ele>
        <time>2022-09-28T09:21:04.000Z</time>
      </trkpt>
      <trkpt lat="49.8458" lon="4.84032">
        <ele>362</ele>
        <time>2022-09-28T09:21:05.000Z</time>
      </trkpt>
      <trkpt lat="49.84578" lon="4.84035">
        <ele>362</ele>
        <time>2022-09-28T09:21:06.000Z</time>
      </trkpt>
      <trkpt lat="49.84575" lon="4.84038">
        <ele>362</ele>
        <time>2022-09-28T09:21:07.000Z</time>
      </trkpt>
      <trkpt lat="49.84572" lon="4.84041">
        <ele>362</ele>
        <time>2022-09-28T09:21:08.000Z</time>
      </trkpt>
      <trkpt lat="49.84569" lon="4.84044">
        <ele>362</ele>
        <time>2022-09-28T09:21:09.000Z</time>
      </trkpt>
      <trkpt lat="49.84566" lon="4.84047">
        <ele>363</ele>
        <time>2022-09-28T09:21:10.000Z</time>
      </trkpt>
      <trkpt lat="49.84563" lon="4.8405">
        <ele>363</ele>
        <time>2022-09-28T09:21:11.000Z</time>
      </trkpt>
      <trkpt lat="49.8456" lon="4.84053">
        <ele>363</ele>
        <time>2022-09-28T09:21:12.000Z</time>
      </trkpt>
      <trkpt lat="49.84556" lon="4.84056">
        <ele>363</ele>
        <time>2022-09-28T09:21:13.000Z</time>
      </trkpt>
      <trkpt lat="49.84552" lon="4.84059">
        <ele>363</ele>
        <time>2022-09-28T09:21:14.000Z</time>
      </trkpt>
      <trkpt lat="49.84548" lon="4.84062">
        <ele>363</ele>
        <time>2022-09-28T09:21:15.000Z</time>
      </trkpt>
      <trkpt lat="49.84544" lon="4.84067">
        <ele>363</ele>
        <time>2022-09-28T09:21:16.000Z</time>
      </trkpt>
      <trkpt lat="49.8454" lon="4.84071">
        <ele>364</ele>
        <time>2022-09-28T09:21:17.000Z</time>
      </trkpt>
      <trkpt lat="49.84537" lon="4.84076">
        <ele>364</ele>
        <time>2022-09-28T09:21:18.000Z</time>
      </trkpt>
      <trkpt lat="49.84533" lon="4.84081">
        <ele>364</ele>
        <time>2022-09-28T09:21:19.000Z</time>
      </trkpt>
      <trkpt lat="49.8453" lon="4.84086">
        <ele>364</ele>
        <time>2022-09-28T09:21:20.000Z</time>
      </trkpt>
      <trkpt lat="49.84526" lon="4.84092">
        <ele>364</ele>
        <time>2022-09-28T09:21:21.000Z</time>
      </trkpt>
      <trkpt lat="49.84523" lon="4.84096">
        <ele>364</ele>
        <time>2022-09-28T09:21:22.000Z</time>
      </trkpt>
      <trkpt lat="49.84519" lon="4.84101">
        <ele>364</ele>
        <time>2022-09-28T09:21:23.000Z</time>
      </trkpt>
      <trkpt lat="49.84515" lon="4.84107">
        <ele>364</ele>
        <time>2022-09-28T09:21:24.000Z</time>
      </trkpt>
      <trkpt lat="49.84511" lon="4.84112">
        <ele>364</ele>
        <time>2022-09-28T09:21:25.000Z</time>
      </trkpt>
      <trkpt lat="49.84508" lon="4.84116">
        <ele>364</ele>
        <time>2022-09-28T09:21:26.000Z</time>
      </trkpt>
      <trkpt lat="49.84505" lon="4.8412">
        <ele>364</ele>
        <time>2022-09-28T09:21:27.000Z</time>
      </trkpt>
      <trkpt lat="49.84502" lon="4.84125">
        <ele>364</ele>
        <time>2022-09-28T09:21:28.000Z</time>
      </trkpt>
      <trkpt lat="49.84499" lon="4.84129">
        <ele>364</ele>
        <time>2022-09-28T09:21:29.000Z</time>
      </trkpt>
      <trkpt lat="49.84496" lon="4.84135">
        <ele>364</ele>
        <time>2022-09-28T09:21:30.000Z</time>
      </trkpt>
      <trkpt lat="49.84492" lon="4.8414">
        <ele>364</ele>
        <time>2022-09-28T09:21:31.000Z</time>
      </trkpt>
      <trkpt lat="49.84488" lon="4.84145">
        <ele>364</ele>
        <time>2022-09-28T09:21:32.000Z</time>
      </trkpt>
      <trkpt lat="49.84485" lon="4.84149">
        <ele>364</ele>
        <time>2022-09-28T09:21:33.000Z</time>
      </trkpt>
      <trkpt lat="49.84481" lon="4.84154">
        <ele>364</ele>
        <time>2022-09-28T09:21:34.000Z</time>
      </trkpt>
      <trkpt lat="49.84476" lon="4.84159">
        <ele>364</ele>
        <time>2022-09-28T09:21:35.000Z</time>
      </trkpt>
      <trkpt lat="49.84472" lon="4.84164">
        <ele>364</ele>
        <time>2022-09-28T09:21:36.000Z</time>
      </trkpt>
      <trkpt lat="49.84467" lon="4.84168">
        <ele>364</ele>
        <time>2022-09-28T09:21:37.000Z</time>
      </trkpt>
      <trkpt lat="49.84461" lon="4.84173">
        <ele>363</ele>
        <time>2022-09-28T09:21:38.000Z</time>
      </trkpt>
      <trkpt lat="49.84456" lon="4.84177">
        <ele>363</ele>
        <time>2022-09-28T09:21:39.000Z</time>
      </trkpt>
      <trkpt lat="49.84451" lon="4.84181">
        <ele>363</ele>
        <time>2022-09-28T09:21:40.000Z</time>
      </trkpt>
      <trkpt lat="49.84447" lon="4.84184">
        <ele>363</ele>
        <time>2022-09-28T09:21:41.000Z</time>
      </trkpt>
      <trkpt lat="49.84443" lon="4.84188">
        <ele>363</ele>
        <time>2022-09-28T09:21:42.000Z</time>
      </trkpt>
      <trkpt lat="49.84439" lon="4.84193">
        <ele>363</ele>
        <time>2022-09-28T09:21:43.000Z</time>
      </trkpt>
      <trkpt lat="49.84435" lon="4.84197">
        <ele>363</ele>
        <time>2022-09-28T09:21:44.000Z</time>
      </trkpt>
      <trkpt lat="49.8443" lon="4.84201">
        <ele>363</ele>
        <time>2022-09-28T09:21:45.000Z</time>
      </trkpt>
      <trkpt lat="49.84425" lon="4.84206">
        <ele>363</ele>
        <time>2022-09-28T09:21:46.000Z</time>
      </trkpt>
      <trkpt lat="49.84421" lon="4.8421">
        <ele>363</ele>
        <time>2022-09-28T09:21:47.000Z</time>
      </trkpt>
      <trkpt lat="49.84416" lon="4.84213">
        <ele>363</ele>
        <time>2022-09-28T09:21:48.000Z</time>
      </trkpt>
      <trkpt lat="49.84411" lon="4.84216">
        <ele>363</ele>
        <time>2022-09-28T09:21:49.000Z</time>
      </trkpt>
      <trkpt lat="49.84406" lon="4.8422">
        <ele>363</ele>
        <time>2022-09-28T09:21:50.000Z</time>
      </trkpt>
      <trkpt lat="49.84401" lon="4.84225">
        <ele>363</ele>
        <time>2022-09-28T09:21:51.000Z</time>
      </trkpt>
      <trkpt lat="49.84397" lon="4.8423">
        <ele>363</ele>
        <time>2022-09-28T09:21:52.000Z</time>
      </trkpt>
      <trkpt lat="49.84393" lon="4.84234">
        <ele>363</ele>
        <time>2022-09-28T09:21:53.000Z</time>
      </trkpt>
      <trkpt lat="49.8439" lon="4.84237">
        <ele>363</ele>
        <time>2022-09-28T09:21:54.000Z</time>
      </trkpt>
      <trkpt lat="49.84387" lon="4.8424">
        <ele>362</ele>
        <time>2022-09-28T09:21:55.000Z</time>
      </trkpt>
      <trkpt lat="49.84383" lon="4.84241">
        <ele>362</ele>
        <time>2022-09-28T09:21:56.000Z</time>
      </trkpt>
      <trkpt lat="49.84378" lon="4.84242">
        <ele>362</ele>
        <time>2022-09-28T09:21:57.000Z</time>
      </trkpt>
      <trkpt lat="49.84373" lon="4.84242">
        <ele>362</ele>
        <time>2022-09-28T09:21:58.000Z</time>
      </trkpt>
      <trkpt lat="49.84369" lon="4.84243">
        <ele>362</ele>
        <time>2022-09-28T09:21:59.000Z</time>
      </trkpt>
      <trkpt lat="49.84364" lon="4.84244">
        <ele>362</ele>
        <time>2022-09-28T09:22:00.000Z</time>
      </trkpt>
      <trkpt lat="49.8436" lon="4.84244">
        <ele>362</ele>
        <time>2022-09-28T09:22:01.000Z</time>
      </trkpt>
      <trkpt lat="49.84356" lon="4.84246">
        <ele>362</ele>
        <time>2022-09-28T09:22:02.000Z</time>
      </trkpt>
      <trkpt lat="49.84351" lon="4.84247">
        <ele>362</ele>
        <time>2022-09-28T09:22:03.000Z</time>
      </trkpt>
      <trkpt lat="49.84346" lon="4.84247">
        <ele>362</ele>
        <time>2022-09-28T09:22:04.000Z</time>
      </trkpt>
      <trkpt lat="49.84342" lon="4.84249">
        <ele>362</ele>
        <time>2022-09-28T09:22:05.000Z</time>
      </trkpt>
      <trkpt lat="49.84337" lon="4.8425">
        <ele>361</ele>
        <time>2022-09-28T09:22:06.000Z</time>
      </trkpt>
      <trkpt lat="49.84332" lon="4.84251">
        <ele>361</ele>
        <time>2022-09-28T09:22:07.000Z</time>
      </trkpt>
      <trkpt lat="49.84328" lon="4.84252">
        <ele>361</ele>
        <time>2022-09-28T09:22:08.000Z</time>
      </trkpt>
      <trkpt lat="49.84324" lon="4.84253">
        <ele>361</ele>
        <time>2022-09-28T09:22:09.000Z</time>
      </trkpt>
      <trkpt lat="49.8432" lon="4.84254">
        <ele>361</ele>
        <time>2022-09-28T09:22:10.000Z</time>
      </trkpt>
      <trkpt lat="49.84316" lon="4.84256">
        <ele>361</ele>
        <time>2022-09-28T09:22:11.000Z</time>
      </trkpt>
      <trkpt lat="49.84312" lon="4.84258">
        <ele>361</ele>
        <time>2022-09-28T09:22:12.000Z</time>
      </trkpt>
      <trkpt lat="49.84308" lon="4.84258">
        <ele>361</ele>
        <time>2022-09-28T09:22:13.000Z</time>
      </trkpt>
      <trkpt lat="49.84304" lon="4.84259">
        <ele>361</ele>
        <time>2022-09-28T09:22:14.000Z</time>
      </trkpt>
      <trkpt lat="49.843" lon="4.84262">
        <ele>360</ele>
        <time>2022-09-28T09:22:15.000Z</time>
      </trkpt>
      <trkpt lat="49.84297" lon="4.84264">
        <ele>360</ele>
        <time>2022-09-28T09:22:16.000Z</time>
      </trkpt>
      <trkpt lat="49.84294" lon="4.84266">
        <ele>360</ele>
        <time>2022-09-28T09:22:17.000Z</time>
      </trkpt>
      <trkpt lat="49.84291" lon="4.84268">
        <ele>360</ele>
        <time>2022-09-28T09:22:18.000Z</time>
      </trkpt>
      <trkpt lat="49.84287" lon="4.8427">
        <ele>360</ele>
        <time>2022-09-28T09:22:19.000Z</time>
      </trkpt>
      <trkpt lat="49.84283" lon="4.84272">
        <ele>360</ele>
        <time>2022-09-28T09:22:20.000Z</time>
      </trkpt>
      <trkpt lat="49.8428" lon="4.84275">
        <ele>360</ele>
        <time>2022-09-28T09:22:21.000Z</time>
      </trkpt>
      <trkpt lat="49.84276" lon="4.84277">
        <ele>360</ele>
        <time>2022-09-28T09:22:22.000Z</time>
      </trkpt>
      <trkpt lat="49.84273" lon="4.84279">
        <ele>360</ele>
        <time>2022-09-28T09:22:23.000Z</time>
      </trkpt>
      <trkpt lat="49.8427" lon="4.84279">
        <ele>360</ele>
        <time>2022-09-28T09:22:24.000Z</time>
      </trkpt>
      <trkpt lat="49.84268" lon="4.84279">
        <ele>359</ele>
        <time>2022-09-28T09:22:25.000Z</time>
      </trkpt>
      <trkpt lat="49.84265" lon="4.84279">
        <ele>359</ele>
        <time>2022-09-28T09:22:26.000Z</time>
      </trkpt>
      <trkpt lat="49.84262" lon="4.84281">
        <ele>359</ele>
        <time>2022-09-28T09:22:27.000Z</time>
      </trkpt>
      <trkpt lat="49.8426" lon="4.84284">
        <ele>359</ele>
        <time>2022-09-28T09:22:28.000Z</time>
      </trkpt>
      <trkpt lat="49.84258" lon="4.84288">
        <ele>359</ele>
        <time>2022-09-28T09:22:29.000Z</time>
      </trkpt>
      <trkpt lat="49.84256" lon="4.84292">
        <ele>359</ele>
        <time>2022-09-28T09:22:30.000Z</time>
      </trkpt>
      <trkpt lat="49.84255" lon="4.84297">
        <ele>359</ele>
        <time>2022-09-28T09:22:31.000Z</time>
      </trkpt>
      <trkpt lat="49.84254" lon="4.84301">
        <ele>359</ele>
        <time>2022-09-28T09:22:32.000Z</time>
      </trkpt>
      <trkpt lat="49.84251" lon="4.84305">
        <ele>359</ele>
        <time>2022-09-28T09:22:33.000Z</time>
      </trkpt>
      <trkpt lat="49.84248" lon="4.84308">
        <ele>359</ele>
        <time>2022-09-28T09:22:34.000Z</time>
      </trkpt>
      <trkpt lat="49.84244" lon="4.8431">
        <ele>359</ele>
        <time>2022-09-28T09:22:35.000Z</time>
      </trkpt>
      <trkpt lat="49.8424" lon="4.84311">
        <ele>359</ele>
        <time>2022-09-28T09:22:36.000Z</time>
      </trkpt>
      <trkpt lat="49.84236" lon="4.84311">
        <ele>358</ele>
        <time>2022-09-28T09:22:37.000Z</time>
      </trkpt>
      <trkpt lat="49.84231" lon="4.84311">
        <ele>358</ele>
        <time>2022-09-28T09:22:38.000Z</time>
      </trkpt>
      <trkpt lat="49.84226" lon="4.84311">
        <ele>358</ele>
        <time>2022-09-28T09:22:39.000Z</time>
      </trkpt>
      <trkpt lat="49.84221" lon="4.84311">
        <ele>358</ele>
        <time>2022-09-28T09:22:40.000Z</time>
      </trkpt>
      <trkpt lat="49.84216" lon="4.8431">
        <ele>357</ele>
        <time>2022-09-28T09:22:41.000Z</time>
      </trkpt>
      <trkpt lat="49.84211" lon="4.8431">
        <ele>357</ele>
        <time>2022-09-28T09:22:42.000Z</time>
      </trkpt>
      <trkpt lat="49.84205" lon="4.8431">
        <ele>357</ele>
        <time>2022-09-28T09:22:43.000Z</time>
      </trkpt>
      <trkpt lat="49.842" lon="4.8431">
        <ele>357</ele>
        <time>2022-09-28T09:22:44.000Z</time>
      </trkpt>
      <trkpt lat="49.84194" lon="4.8431">
        <ele>357</ele>
        <time>2022-09-28T09:22:45.000Z</time>
      </trkpt>
      <trkpt lat="49.84189" lon="4.84309">
        <ele>357</ele>
        <time>2022-09-28T09:22:46.000Z</time>
      </trkpt>
      <trkpt lat="49.84184" lon="4.84308">
        <ele>357</ele>
        <time>2022-09-28T09:22:47.000Z</time>
      </trkpt>
      <trkpt lat="49.84178" lon="4.84308">
        <ele>357</ele>
        <time>2022-09-28T09:22:48.000Z</time>
      </trkpt>
      <trkpt lat="49.84173" lon="4.84307">
        <ele>357</ele>
        <time>2022-09-28T09:22:49.000Z</time>
      </trkpt>
      <trkpt lat="49.84167" lon="4.84307">
        <ele>357</ele>
        <time>2022-09-28T09:22:50.000Z</time>
      </trkpt>
      <trkpt lat="49.84162" lon="4.84306">
        <ele>357</ele>
        <time>2022-09-28T09:22:51.000Z</time>
      </trkpt>
      <trkpt lat="49.84156" lon="4.84306">
        <ele>357</ele>
        <time>2022-09-28T09:22:52.000Z</time>
      </trkpt>
      <trkpt lat="49.84151" lon="4.84306">
        <ele>356</ele>
        <time>2022-09-28T09:22:53.000Z</time>
      </trkpt>
      <trkpt lat="49.84145" lon="4.84305">
        <ele>356</ele>
        <time>2022-09-28T09:22:54.000Z</time>
      </trkpt>
      <trkpt lat="49.8414" lon="4.84305">
        <ele>356</ele>
        <time>2022-09-28T09:22:55.000Z</time>
      </trkpt>
      <trkpt lat="49.84135" lon="4.84304">
        <ele>356</ele>
        <time>2022-09-28T09:22:56.000Z</time>
      </trkpt>
      <trkpt lat="49.84129" lon="4.84303">
        <ele>356</ele>
        <time>2022-09-28T09:22:57.000Z</time>
      </trkpt>
      <trkpt lat="49.84124" lon="4.84303">
        <ele>356</ele>
        <time>2022-09-28T09:22:58.000Z</time>
      </trkpt>
      <trkpt lat="49.84119" lon="4.84302">
        <ele>356</ele>
        <time>2022-09-28T09:22:59.000Z</time>
      </trkpt>
      <trkpt lat="49.84114" lon="4.84301">
        <ele>356</ele>
        <time>2022-09-28T09:23:00.000Z</time>
      </trkpt>
      <trkpt lat="49.84109" lon="4.843">
        <ele>356</ele>
        <time>2022-09-28T09:23:01.000Z</time>
      </trkpt>
      <trkpt lat="49.84104" lon="4.84299">
        <ele>356</ele>
        <time>2022-09-28T09:23:02.000Z</time>
      </trkpt>
      <trkpt lat="49.84099" lon="4.84298">
        <ele>357</ele>
        <time>2022-09-28T09:23:03.000Z</time>
      </trkpt>
      <trkpt lat="49.84094" lon="4.84297">
        <ele>357</ele>
        <time>2022-09-28T09:23:04.000Z</time>
      </trkpt>
      <trkpt lat="49.84089" lon="4.84296">
        <ele>356</ele>
        <time>2022-09-28T09:23:05.000Z</time>
      </trkpt>
      <trkpt lat="49.84084" lon="4.84295">
        <ele>356</ele>
        <time>2022-09-28T09:23:06.000Z</time>
      </trkpt>
      <trkpt lat="49.84078" lon="4.84294">
        <ele>356</ele>
        <time>2022-09-28T09:23:07.000Z</time>
      </trkpt>
      <trkpt lat="49.84073" lon="4.84293">
        <ele>356</ele>
        <time>2022-09-28T09:23:08.000Z</time>
      </trkpt>
      <trkpt lat="49.84067" lon="4.84292">
        <ele>356</ele>
        <time>2022-09-28T09:23:09.000Z</time>
      </trkpt>
      <trkpt lat="49.84061" lon="4.84291">
        <ele>356</ele>
        <time>2022-09-28T09:23:10.000Z</time>
      </trkpt>
      <trkpt lat="49.84055" lon="4.8429">
        <ele>356</ele>
        <time>2022-09-28T09:23:11.000Z</time>
      </trkpt>
      <trkpt lat="49.84049" lon="4.84289">
        <ele>356</ele>
        <time>2022-09-28T09:23:12.000Z</time>
      </trkpt>
      <trkpt lat="49.84044" lon="4.84287">
        <ele>356</ele>
        <time>2022-09-28T09:23:13.000Z</time>
      </trkpt>
      <trkpt lat="49.84038" lon="4.84286">
        <ele>356</ele>
        <time>2022-09-28T09:23:14.000Z</time>
      </trkpt>
      <trkpt lat="49.84032" lon="4.84285">
        <ele>356</ele>
        <time>2022-09-28T09:23:15.000Z</time>
      </trkpt>
      <trkpt lat="49.84026" lon="4.84284">
        <ele>356</ele>
        <time>2022-09-28T09:23:16.000Z</time>
      </trkpt>
      <trkpt lat="49.8402" lon="4.84283">
        <ele>356</ele>
        <time>2022-09-28T09:23:17.000Z</time>
      </trkpt>
      <trkpt lat="49.84014" lon="4.84282">
        <ele>356</ele>
        <time>2022-09-28T09:23:18.000Z</time>
      </trkpt>
      <trkpt lat="49.84008" lon="4.84281">
        <ele>356</ele>
        <time>2022-09-28T09:23:19.000Z</time>
      </trkpt>
      <trkpt lat="49.84002" lon="4.84279">
        <ele>356</ele>
        <time>2022-09-28T09:23:20.000Z</time>
      </trkpt>
      <trkpt lat="49.83997" lon="4.84278">
        <ele>355</ele>
        <time>2022-09-28T09:23:21.000Z</time>
      </trkpt>
      <trkpt lat="49.83991" lon="4.84277">
        <ele>355</ele>
        <time>2022-09-28T09:23:22.000Z</time>
      </trkpt>
      <trkpt lat="49.83985" lon="4.84276">
        <ele>355</ele>
        <time>2022-09-28T09:23:23.000Z</time>
      </trkpt>
      <trkpt lat="49.83979" lon="4.84275">
        <ele>355</ele>
        <time>2022-09-28T09:23:24.000Z</time>
      </trkpt>
      <trkpt lat="49.83973" lon="4.84274">
        <ele>355</ele>
        <time>2022-09-28T09:23:25.000Z</time>
      </trkpt>
      <trkpt lat="49.83967" lon="4.84273">
        <ele>355</ele>
        <time>2022-09-28T09:23:26.000Z</time>
      </trkpt>
      <trkpt lat="49.83962" lon="4.84272">
        <ele>355</ele>
        <time>2022-09-28T09:23:27.000Z</time>
      </trkpt>
      <trkpt lat="49.83956" lon="4.84271">
        <ele>355</ele>
        <time>2022-09-28T09:23:28.000Z</time>
      </trkpt>
      <trkpt lat="49.8395" lon="4.84269">
        <ele>355</ele>
        <time>2022-09-28T09:23:29.000Z</time>
      </trkpt>
      <trkpt lat="49.83945" lon="4.84268">
        <ele>355</ele>
        <time>2022-09-28T09:23:30.000Z</time>
      </trkpt>
      <trkpt lat="49.8394" lon="4.84267">
        <ele>354</ele>
        <time>2022-09-28T09:23:31.000Z</time>
      </trkpt>
      <trkpt lat="49.83936" lon="4.84266">
        <ele>354</ele>
        <time>2022-09-28T09:23:32.000Z</time>
      </trkpt>
      <trkpt lat="49.83931" lon="4.84265">
        <ele>354</ele>
        <time>2022-09-28T09:23:33.000Z</time>
      </trkpt>
      <trkpt lat="49.83926" lon="4.84264">
        <ele>354</ele>
        <time>2022-09-28T09:23:34.000Z</time>
      </trkpt>
      <trkpt lat="49.8392" lon="4.84263">
        <ele>353</ele>
        <time>2022-09-28T09:23:35.000Z</time>
      </trkpt>
      <trkpt lat="49.83914" lon="4.84262">
        <ele>353</ele>
        <time>2022-09-28T09:23:36.000Z</time>
      </trkpt>
      <trkpt lat="49.83909" lon="4.84261">
        <ele>353</ele>
        <time>2022-09-28T09:23:37.000Z</time>
      </trkpt>
      <trkpt lat="49.83903" lon="4.84259">
        <ele>353</ele>
        <time>2022-09-28T09:23:38.000Z</time>
      </trkpt>
      <trkpt lat="49.83898" lon="4.84258">
        <ele>353</ele>
        <time>2022-09-28T09:23:39.000Z</time>
      </trkpt>
      <trkpt lat="49.83892" lon="4.84257">
        <ele>352</ele>
        <time>2022-09-28T09:23:40.000Z</time>
      </trkpt>
      <trkpt lat="49.83887" lon="4.84256">
        <ele>352</ele>
        <time>2022-09-28T09:23:41.000Z</time>
      </trkpt>
      <trkpt lat="49.83881" lon="4.84254">
        <ele>352</ele>
        <time>2022-09-28T09:23:42.000Z</time>
      </trkpt>
      <trkpt lat="49.83876" lon="4.84253">
        <ele>352</ele>
        <time>2022-09-28T09:23:43.000Z</time>
      </trkpt>
      <trkpt lat="49.83871" lon="4.84251">
        <ele>352</ele>
        <time>2022-09-28T09:23:44.000Z</time>
      </trkpt>
      <trkpt lat="49.83866" lon="4.8425">
        <ele>352</ele>
        <time>2022-09-28T09:23:45.000Z</time>
      </trkpt>
      <trkpt lat="49.8386" lon="4.84249">
        <ele>352</ele>
        <time>2022-09-28T09:23:46.000Z</time>
      </trkpt>
      <trkpt lat="49.83855" lon="4.84248">
        <ele>352</ele>
        <time>2022-09-28T09:23:47.000Z</time>
      </trkpt>
      <trkpt lat="49.83849" lon="4.84247">
        <ele>351</ele>
        <time>2022-09-28T09:23:48.000Z</time>
      </trkpt>
      <trkpt lat="49.83844" lon="4.84246">
        <ele>351</ele>
        <time>2022-09-28T09:23:49.000Z</time>
      </trkpt>
      <trkpt lat="49.83839" lon="4.84245">
        <ele>351</ele>
        <time>2022-09-28T09:23:50.000Z</time>
      </trkpt>
      <trkpt lat="49.83833" lon="4.84244">
        <ele>351</ele>
        <time>2022-09-28T09:23:51.000Z</time>
      </trkpt>
      <trkpt lat="49.83828" lon="4.84243">
        <ele>351</ele>
        <time>2022-09-28T09:23:52.000Z</time>
      </trkpt>
      <trkpt lat="49.83823" lon="4.84242">
        <ele>351</ele>
        <time>2022-09-28T09:23:53.000Z</time>
      </trkpt>
      <trkpt lat="49.83818" lon="4.8424">
        <ele>351</ele>
        <time>2022-09-28T09:23:54.000Z</time>
      </trkpt>
      <trkpt lat="49.83813" lon="4.84239">
        <ele>350</ele>
        <time>2022-09-28T09:23:55.000Z</time>
      </trkpt>
      <trkpt lat="49.83808" lon="4.84237">
        <ele>350</ele>
        <time>2022-09-28T09:23:56.000Z</time>
      </trkpt>
      <trkpt lat="49.83804" lon="4.84236">
        <ele>350</ele>
        <time>2022-09-28T09:23:57.000Z</time>
      </trkpt>
      <trkpt lat="49.83799" lon="4.84236">
        <ele>350</ele>
        <time>2022-09-28T09:23:58.000Z</time>
      </trkpt>
      <trkpt lat="49.83795" lon="4.84235">
        <ele>350</ele>
        <time>2022-09-28T09:23:59.000Z</time>
      </trkpt>
      <trkpt lat="49.8379" lon="4.84234">
        <ele>350</ele>
        <time>2022-09-28T09:24:00.000Z</time>
      </trkpt>
      <trkpt lat="49.83786" lon="4.84233">
        <ele>350</ele>
        <time>2022-09-28T09:24:01.000Z</time>
      </trkpt>
      <trkpt lat="49.83782" lon="4.84232">
        <ele>350</ele>
        <time>2022-09-28T09:24:02.000Z</time>
      </trkpt>
      <trkpt lat="49.83778" lon="4.84231">
        <ele>350</ele>
        <time>2022-09-28T09:24:03.000Z</time>
      </trkpt>
      <trkpt lat="49.83774" lon="4.8423">
        <ele>350</ele>
        <time>2022-09-28T09:24:04.000Z</time>
      </trkpt>
      <trkpt lat="49.8377" lon="4.84229">
        <ele>350</ele>
        <time>2022-09-28T09:24:05.000Z</time>
      </trkpt>
      <trkpt lat="49.83766" lon="4.84228">
        <ele>350</ele>
        <time>2022-09-28T09:24:06.000Z</time>
      </trkpt>
      <trkpt lat="49.83762" lon="4.84227">
        <ele>350</ele>
        <time>2022-09-28T09:24:07.000Z</time>
      </trkpt>
      <trkpt lat="49.83759" lon="4.84226">
        <ele>350</ele>
        <time>2022-09-28T09:24:08.000Z</time>
      </trkpt>
      <trkpt lat="49.83756" lon="4.84225">
        <ele>350</ele>
        <time>2022-09-28T09:24:09.000Z</time>
      </trkpt>
      <trkpt lat="49.83752" lon="4.84225">
        <ele>350</ele>
        <time>2022-09-28T09:24:10.000Z</time>
      </trkpt>
      <trkpt lat="49.83749" lon="4.84224">
        <ele>350</ele>
        <time>2022-09-28T09:24:11.000Z</time>
      </trkpt>
      <trkpt lat="49.83746" lon="4.84224">
        <ele>350</ele>
        <time>2022-09-28T09:24:12.000Z</time>
      </trkpt>
      <trkpt lat="49.83742" lon="4.84224">
        <ele>351</ele>
        <time>2022-09-28T09:24:13.000Z</time>
      </trkpt>
      <trkpt lat="49.83738" lon="4.84224">
        <ele>351</ele>
        <time>2022-09-28T09:24:14.000Z</time>
      </trkpt>
      <trkpt lat="49.83735" lon="4.84224">
        <ele>351</ele>
        <time>2022-09-28T09:24:15.000Z</time>
      </trkpt>
      <trkpt lat="49.83731" lon="4.84223">
        <ele>351</ele>
        <time>2022-09-28T09:24:16.000Z</time>
      </trkpt>
      <trkpt lat="49.83726" lon="4.84223">
        <ele>351</ele>
        <time>2022-09-28T09:24:17.000Z</time>
      </trkpt>
      <trkpt lat="49.83722" lon="4.84222">
        <ele>352</ele>
        <time>2022-09-28T09:24:18.000Z</time>
      </trkpt>
      <trkpt lat="49.83717" lon="4.84221">
        <ele>352</ele>
        <time>2022-09-28T09:24:19.000Z</time>
      </trkpt>
      <trkpt lat="49.83713" lon="4.8422">
        <ele>352</ele>
        <time>2022-09-28T09:24:20.000Z</time>
      </trkpt>
      <trkpt lat="49.83709" lon="4.84219">
        <ele>352</ele>
        <time>2022-09-28T09:24:21.000Z</time>
      </trkpt>
      <trkpt lat="49.83704" lon="4.84218">
        <ele>353</ele>
        <time>2022-09-28T09:24:22.000Z</time>
      </trkpt>
      <trkpt lat="49.83699" lon="4.84217">
        <ele>353</ele>
        <time>2022-09-28T09:24:23.000Z</time>
      </trkpt>
      <trkpt lat="49.83695" lon="4.84216">
        <ele>353</ele>
        <time>2022-09-28T09:24:24.000Z</time>
      </trkpt>
      <trkpt lat="49.83691" lon="4.84215">
        <ele>353</ele>
        <time>2022-09-28T09:24:25.000Z</time>
      </trkpt>
      <trkpt lat="49.83687" lon="4.84214">
        <ele>354</ele>
        <time>2022-09-28T09:24:26.000Z</time>
      </trkpt>
      <trkpt lat="49.83683" lon="4.84213">
        <ele>354</ele>
        <time>2022-09-28T09:24:27.000Z</time>
      </trkpt>
      <trkpt lat="49.8368" lon="4.84211">
        <ele>354</ele>
        <time>2022-09-28T09:24:28.000Z</time>
      </trkpt>
      <trkpt lat="49.83676" lon="4.8421">
        <ele>354</ele>
        <time>2022-09-28T09:24:29.000Z</time>
      </trkpt>
      <trkpt lat="49.83673" lon="4.84209">
        <ele>354</ele>
        <time>2022-09-28T09:24:30.000Z</time>
      </trkpt>
      <trkpt lat="49.8367" lon="4.84209">
        <ele>355</ele>
        <time>2022-09-28T09:24:31.000Z</time>
      </trkpt>
      <trkpt lat="49.83668" lon="4.84208">
        <ele>355</ele>
        <time>2022-09-28T09:24:32.000Z</time>
      </trkpt>
      <trkpt lat="49.83665" lon="4.84208">
        <ele>355</ele>
        <time>2022-09-28T09:24:33.000Z</time>
      </trkpt>
      <trkpt lat="49.83663" lon="4.84208">
        <ele>355</ele>
        <time>2022-09-28T09:24:34.000Z</time>
      </trkpt>
      <trkpt lat="49.8366" lon="4.84209">
        <ele>356</ele>
        <time>2022-09-28T09:24:35.000Z</time>
      </trkpt>
      <trkpt lat="49.83658" lon="4.8421">
        <ele>356</ele>
        <time>2022-09-28T09:24:36.000Z</time>
      </trkpt>
      <trkpt lat="49.83656" lon="4.84211">
        <ele>356</ele>
        <time>2022-09-28T09:24:37.000Z</time>
      </trkpt>
      <trkpt lat="49.83653" lon="4.84213">
        <ele>356</ele>
        <time>2022-09-28T09:24:38.000Z</time>
      </trkpt>
      <trkpt lat="49.83651" lon="4.84215">
        <ele>356</ele>
        <time>2022-09-28T09:24:39.000Z</time>
      </trkpt>
      <trkpt lat="49.83649" lon="4.84217">
        <ele>356</ele>
        <time>2022-09-28T09:24:40.000Z</time>
      </trkpt>
      <trkpt lat="49.83646" lon="4.8422">
        <ele>357</ele>
        <time>2022-09-28T09:24:41.000Z</time>
      </trkpt>
      <trkpt lat="49.83644" lon="4.84225">
        <ele>357</ele>
        <time>2022-09-28T09:24:42.000Z</time>
      </trkpt>
      <trkpt lat="49.83641" lon="4.84231">
        <ele>357</ele>
        <time>2022-09-28T09:24:43.000Z</time>
      </trkpt>
      <trkpt lat="49.83638" lon="4.84238">
        <ele>357</ele>
        <time>2022-09-28T09:24:44.000Z</time>
      </trkpt>
      <trkpt lat="49.83635" lon="4.84245">
        <ele>357</ele>
        <time>2022-09-28T09:24:45.000Z</time>
      </trkpt>
      <trkpt lat="49.83632" lon="4.84253">
        <ele>357</ele>
        <time>2022-09-28T09:24:46.000Z</time>
      </trkpt>
      <trkpt lat="49.83628" lon="4.84262">
        <ele>357</ele>
        <time>2022-09-28T09:24:47.000Z</time>
      </trkpt>
      <trkpt lat="49.83623" lon="4.84271">
        <ele>357</ele>
        <time>2022-09-28T09:24:48.000Z</time>
      </trkpt>
      <trkpt lat="49.83619" lon="4.84281">
        <ele>356</ele>
        <time>2022-09-28T09:24:49.000Z</time>
      </trkpt>
      <trkpt lat="49.83614" lon="4.8429">
        <ele>356</ele>
        <time>2022-09-28T09:24:50.000Z</time>
      </trkpt>
      <trkpt lat="49.8361" lon="4.843">
        <ele>356</ele>
        <time>2022-09-28T09:24:51.000Z</time>
      </trkpt>
      <trkpt lat="49.83607" lon="4.8431">
        <ele>356</ele>
        <time>2022-09-28T09:24:52.000Z</time>
      </trkpt>
      <trkpt lat="49.83604" lon="4.84321">
        <ele>356</ele>
        <time>2022-09-28T09:24:53.000Z</time>
      </trkpt>
      <trkpt lat="49.83601" lon="4.84332">
        <ele>355</ele>
        <time>2022-09-28T09:24:54.000Z</time>
      </trkpt>
      <trkpt lat="49.83597" lon="4.84343">
        <ele>355</ele>
        <time>2022-09-28T09:24:55.000Z</time>
      </trkpt>
      <trkpt lat="49.83595" lon="4.84355">
        <ele>355</ele>
        <time>2022-09-28T09:24:56.000Z</time>
      </trkpt>
      <trkpt lat="49.83593" lon="4.84366">
        <ele>354</ele>
        <time>2022-09-28T09:24:57.000Z</time>
      </trkpt>
      <trkpt lat="49.8359" lon="4.84377">
        <ele>354</ele>
        <time>2022-09-28T09:24:58.000Z</time>
      </trkpt>
      <trkpt lat="49.83588" lon="4.84389">
        <ele>354</ele>
        <time>2022-09-28T09:24:59.000Z</time>
      </trkpt>
      <trkpt lat="49.83586" lon="4.844">
        <ele>354</ele>
        <time>2022-09-28T09:25:00.000Z</time>
      </trkpt>
      <trkpt lat="49.83584" lon="4.84411">
        <ele>353</ele>
        <time>2022-09-28T09:25:01.000Z</time>
      </trkpt>
      <trkpt lat="49.83582" lon="4.84422">
        <ele>353</ele>
        <time>2022-09-28T09:25:02.000Z</time>
      </trkpt>
      <trkpt lat="49.83581" lon="4.84432">
        <ele>352</ele>
        <time>2022-09-28T09:25:03.000Z</time>
      </trkpt>
      <trkpt lat="49.83579" lon="4.84443">
        <ele>352</ele>
        <time>2022-09-28T09:25:04.000Z</time>
      </trkpt>
      <trkpt lat="49.83578" lon="4.84453">
        <ele>352</ele>
        <time>2022-09-28T09:25:05.000Z</time>
      </trkpt>
      <trkpt lat="49.83577" lon="4.84462">
        <ele>351</ele>
        <time>2022-09-28T09:25:06.000Z</time>
      </trkpt>
      <trkpt lat="49.83575" lon="4.84471">
        <ele>351</ele>
        <time>2022-09-28T09:25:07.000Z</time>
      </trkpt>
      <trkpt lat="49.83574" lon="4.84479">
        <ele>350</ele>
        <time>2022-09-28T09:25:08.000Z</time>
      </trkpt>
      <trkpt lat="49.83573" lon="4.84486">
        <ele>350</ele>
        <time>2022-09-28T09:25:09.000Z</time>
      </trkpt>
      <trkpt lat="49.83571" lon="4.84494">
        <ele>350</ele>
        <time>2022-09-28T09:25:10.000Z</time>
      </trkpt>
      <trkpt lat="49.83569" lon="4.845">
        <ele>350</ele>
        <time>2022-09-28T09:25:11.000Z</time>
      </trkpt>
      <trkpt lat="49.83567" lon="4.84508">
        <ele>349</ele>
        <time>2022-09-28T09:25:12.000Z</time>
      </trkpt>
      <trkpt lat="49.83566" lon="4.84516">
        <ele>349</ele>
        <time>2022-09-28T09:25:13.000Z</time>
      </trkpt>
      <trkpt lat="49.83564" lon="4.84523">
        <ele>349</ele>
        <time>2022-09-28T09:25:14.000Z</time>
      </trkpt>
      <trkpt lat="49.83562" lon="4.84531">
        <ele>349</ele>
        <time>2022-09-28T09:25:15.000Z</time>
      </trkpt>
      <trkpt lat="49.83561" lon="4.84539">
        <ele>348</ele>
        <time>2022-09-28T09:25:16.000Z</time>
      </trkpt>
      <trkpt lat="49.83559" lon="4.84547">
        <ele>348</ele>
        <time>2022-09-28T09:25:17.000Z</time>
      </trkpt>
      <trkpt lat="49.83558" lon="4.84554">
        <ele>348</ele>
        <time>2022-09-28T09:25:18.000Z</time>
      </trkpt>
      <trkpt lat="49.83556" lon="4.84562">
        <ele>348</ele>
        <time>2022-09-28T09:25:19.000Z</time>
      </trkpt>
      <trkpt lat="49.83555" lon="4.8457">
        <ele>348</ele>
        <time>2022-09-28T09:25:20.000Z</time>
      </trkpt>
      <trkpt lat="49.83553" lon="4.84577">
        <ele>348</ele>
        <time>2022-09-28T09:25:21.000Z</time>
      </trkpt>
      <trkpt lat="49.83552" lon="4.84585">
        <ele>347</ele>
        <time>2022-09-28T09:25:22.000Z</time>
      </trkpt>
      <trkpt lat="49.8355" lon="4.84593">
        <ele>347</ele>
        <time>2022-09-28T09:25:23.000Z</time>
      </trkpt>
      <trkpt lat="49.83548" lon="4.846">
        <ele>347</ele>
        <time>2022-09-28T09:25:24.000Z</time>
      </trkpt>
      <trkpt lat="49.83547" lon="4.84608">
        <ele>347</ele>
        <time>2022-09-28T09:25:25.000Z</time>
      </trkpt>
      <trkpt lat="49.83546" lon="4.84616">
        <ele>347</ele>
        <time>2022-09-28T09:25:26.000Z</time>
      </trkpt>
      <trkpt lat="49.83545" lon="4.84624">
        <ele>347</ele>
        <time>2022-09-28T09:25:27.000Z</time>
      </trkpt>
      <trkpt lat="49.83544" lon="4.84631">
        <ele>347</ele>
        <time>2022-09-28T09:25:28.000Z</time>
      </trkpt>
      <trkpt lat="49.83542" lon="4.84639">
        <ele>347</ele>
        <time>2022-09-28T09:25:29.000Z</time>
      </trkpt>
      <trkpt lat="49.8354" lon="4.84647">
        <ele>347</ele>
        <time>2022-09-28T09:25:30.000Z</time>
      </trkpt>
      <trkpt lat="49.83539" lon="4.84655">
        <ele>347</ele>
        <time>2022-09-28T09:25:31.000Z</time>
      </trkpt>
      <trkpt lat="49.83537" lon="4.84663">
        <ele>346</ele>
        <time>2022-09-28T09:25:32.000Z</time>
      </trkpt>
      <trkpt lat="49.83536" lon="4.84671">
        <ele>346</ele>
        <time>2022-09-28T09:25:33.000Z</time>
      </trkpt>
      <trkpt lat="49.83534" lon="4.84679">
        <ele>346</ele>
        <time>2022-09-28T09:25:34.000Z</time>
      </trkpt>
      <trkpt lat="49.83533" lon="4.84687">
        <ele>346</ele>
        <time>2022-09-28T09:25:35.000Z</time>
      </trkpt>
      <trkpt lat="49.83531" lon="4.84695">
        <ele>346</ele>
        <time>2022-09-28T09:25:36.000Z</time>
      </trkpt>
      <trkpt lat="49.8353" lon="4.84703">
        <ele>346</ele>
        <time>2022-09-28T09:25:37.000Z</time>
      </trkpt>
      <trkpt lat="49.83529" lon="4.84711">
        <ele>346</ele>
        <time>2022-09-28T09:25:38.000Z</time>
      </trkpt>
      <trkpt lat="49.83528" lon="4.84719">
        <ele>346</ele>
        <time>2022-09-28T09:25:39.000Z</time>
      </trkpt>
      <trkpt lat="49.83526" lon="4.84727">
        <ele>346</ele>
        <time>2022-09-28T09:25:40.000Z</time>
      </trkpt>
      <trkpt lat="49.83525" lon="4.84734">
        <ele>346</ele>
        <time>2022-09-28T09:25:41.000Z</time>
      </trkpt>
      <trkpt lat="49.83524" lon="4.84742">
        <ele>346</ele>
        <time>2022-09-28T09:25:42.000Z</time>
      </trkpt>
      <trkpt lat="49.83522" lon="4.8475">
        <ele>346</ele>
        <time>2022-09-28T09:25:43.000Z</time>
      </trkpt>
      <trkpt lat="49.83521" lon="4.84758">
        <ele>346</ele>
        <time>2022-09-28T09:25:44.000Z</time>
      </trkpt>
      <trkpt lat="49.8352" lon="4.84765">
        <ele>346</ele>
        <time>2022-09-28T09:25:45.000Z</time>
      </trkpt>
      <trkpt lat="49.83519" lon="4.84773">
        <ele>346</ele>
        <time>2022-09-28T09:25:46.000Z</time>
      </trkpt>
      <trkpt lat="49.83517" lon="4.8478">
        <ele>346</ele>
        <time>2022-09-28T09:25:47.000Z</time>
      </trkpt>
      <trkpt lat="49.83516" lon="4.84787">
        <ele>346</ele>
        <time>2022-09-28T09:25:48.000Z</time>
      </trkpt>
      <trkpt lat="49.83515" lon="4.84794">
        <ele>346</ele>
        <time>2022-09-28T09:25:49.000Z</time>
      </trkpt>
      <trkpt lat="49.83514" lon="4.84802">
        <ele>346</ele>
        <time>2022-09-28T09:25:50.000Z</time>
      </trkpt>
      <trkpt lat="49.83513" lon="4.84809">
        <ele>346</ele>
        <time>2022-09-28T09:25:51.000Z</time>
      </trkpt>
      <trkpt lat="49.83512" lon="4.84816">
        <ele>346</ele>
        <time>2022-09-28T09:25:52.000Z</time>
      </trkpt>
      <trkpt lat="49.83511" lon="4.84822">
        <ele>346</ele>
        <time>2022-09-28T09:25:53.000Z</time>
      </trkpt>
      <trkpt lat="49.8351" lon="4.84829">
        <ele>346</ele>
        <time>2022-09-28T09:25:54.000Z</time>
      </trkpt>
      <trkpt lat="49.83509" lon="4.84835">
        <ele>346</ele>
        <time>2022-09-28T09:25:55.000Z</time>
      </trkpt>
      <trkpt lat="49.83507" lon="4.84841">
        <ele>346</ele>
        <time>2022-09-28T09:25:56.000Z</time>
      </trkpt>
      <trkpt lat="49.83506" lon="4.84847">
        <ele>346</ele>
        <time>2022-09-28T09:25:57.000Z</time>
      </trkpt>
      <trkpt lat="49.83504" lon="4.84853">
        <ele>346</ele>
        <time>2022-09-28T09:25:58.000Z</time>
      </trkpt>
      <trkpt lat="49.83503" lon="4.84859">
        <ele>346</ele>
        <time>2022-09-28T09:25:59.000Z</time>
      </trkpt>
      <trkpt lat="49.83502" lon="4.84864">
        <ele>346</ele>
        <time>2022-09-28T09:26:00.000Z</time>
      </trkpt>
      <trkpt lat="49.83501" lon="4.84869">
        <ele>346</ele>
        <time>2022-09-28T09:26:01.000Z</time>
      </trkpt>
      <trkpt lat="49.835" lon="4.84875">
        <ele>346</ele>
        <time>2022-09-28T09:26:02.000Z</time>
      </trkpt>
      <trkpt lat="49.83498" lon="4.84879">
        <ele>346</ele>
        <time>2022-09-28T09:26:03.000Z</time>
      </trkpt>
      <trkpt lat="49.83497" lon="4.84884">
        <ele>346</ele>
        <time>2022-09-28T09:26:04.000Z</time>
      </trkpt>
      <trkpt lat="49.83495" lon="4.84888">
        <ele>347</ele>
        <time>2022-09-28T09:26:05.000Z</time>
      </trkpt>
      <trkpt lat="49.83492" lon="4.84893">
        <ele>347</ele>
        <time>2022-09-28T09:26:06.000Z</time>
      </trkpt>
      <trkpt lat="49.8349" lon="4.84897">
        <ele>347</ele>
        <time>2022-09-28T09:26:07.000Z</time>
      </trkpt>
      <trkpt lat="49.83487" lon="4.84901">
        <ele>347</ele>
        <time>2022-09-28T09:26:08.000Z</time>
      </trkpt>
      <trkpt lat="49.83484" lon="4.84904">
        <ele>347</ele>
        <time>2022-09-28T09:26:09.000Z</time>
      </trkpt>
      <trkpt lat="49.83481" lon="4.84908">
        <ele>347</ele>
        <time>2022-09-28T09:26:10.000Z</time>
      </trkpt>
      <trkpt lat="49.83479" lon="4.84911">
        <ele>347</ele>
        <time>2022-09-28T09:26:11.000Z</time>
      </trkpt>
      <trkpt lat="49.83476" lon="4.84915">
        <ele>347</ele>
        <time>2022-09-28T09:26:12.000Z</time>
      </trkpt>
      <trkpt lat="49.83473" lon="4.84918">
        <ele>347</ele>
        <time>2022-09-28T09:26:13.000Z</time>
      </trkpt>
      <trkpt lat="49.8347" lon="4.84921">
        <ele>347</ele>
        <time>2022-09-28T09:26:14.000Z</time>
      </trkpt>
      <trkpt lat="49.83467" lon="4.84924">
        <ele>347</ele>
        <time>2022-09-28T09:26:15.000Z</time>
      </trkpt>
      <trkpt lat="49.83463" lon="4.84927">
        <ele>347</ele>
        <time>2022-09-28T09:26:16.000Z</time>
      </trkpt>
      <trkpt lat="49.8346" lon="4.8493">
        <ele>347</ele>
        <time>2022-09-28T09:26:17.000Z</time>
      </trkpt>
      <trkpt lat="49.83457" lon="4.84933">
        <ele>347</ele>
        <time>2022-09-28T09:26:18.000Z</time>
      </trkpt>
      <trkpt lat="49.83454" lon="4.84936">
        <ele>347</ele>
        <time>2022-09-28T09:26:19.000Z</time>
      </trkpt>
      <trkpt lat="49.83452" lon="4.84938">
        <ele>347</ele>
        <time>2022-09-28T09:26:20.000Z</time>
      </trkpt>
      <trkpt lat="49.83449" lon="4.84941">
        <ele>347</ele>
        <time>2022-09-28T09:26:21.000Z</time>
      </trkpt>
      <trkpt lat="49.83446" lon="4.84943">
        <ele>348</ele>
        <time>2022-09-28T09:26:22.000Z</time>
      </trkpt>
      <trkpt lat="49.83443" lon="4.84946">
        <ele>348</ele>
        <time>2022-09-28T09:26:23.000Z</time>
      </trkpt>
      <trkpt lat="49.8344" lon="4.84949">
        <ele>348</ele>
        <time>2022-09-28T09:26:24.000Z</time>
      </trkpt>
      <trkpt lat="49.83437" lon="4.84952">
        <ele>348</ele>
        <time>2022-09-28T09:26:25.000Z</time>
      </trkpt>
      <trkpt lat="49.83434" lon="4.84955">
        <ele>348</ele>
        <time>2022-09-28T09:26:26.000Z</time>
      </trkpt>
      <trkpt lat="49.83432" lon="4.84957">
        <ele>348</ele>
        <time>2022-09-28T09:26:27.000Z</time>
      </trkpt>
      <trkpt lat="49.83429" lon="4.8496">
        <ele>348</ele>
        <time>2022-09-28T09:26:28.000Z</time>
      </trkpt>
      <trkpt lat="49.83426" lon="4.84963">
        <ele>348</ele>
        <time>2022-09-28T09:26:29.000Z</time>
      </trkpt>
      <trkpt lat="49.83423" lon="4.84965">
        <ele>348</ele>
        <time>2022-09-28T09:26:30.000Z</time>
      </trkpt>
      <trkpt lat="49.8342" lon="4.84968">
        <ele>348</ele>
        <time>2022-09-28T09:26:31.000Z</time>
      </trkpt>
      <trkpt lat="49.83417" lon="4.84971">
        <ele>348</ele>
        <time>2022-09-28T09:26:32.000Z</time>
      </trkpt>
      <trkpt lat="49.83415" lon="4.84974">
        <ele>348</ele>
        <time>2022-09-28T09:26:33.000Z</time>
      </trkpt>
      <trkpt lat="49.83412" lon="4.84976">
        <ele>348</ele>
        <time>2022-09-28T09:26:34.000Z</time>
      </trkpt>
      <trkpt lat="49.83409" lon="4.84979">
        <ele>349</ele>
        <time>2022-09-28T09:26:35.000Z</time>
      </trkpt>
      <trkpt lat="49.83406" lon="4.84982">
        <ele>349</ele>
        <time>2022-09-28T09:26:36.000Z</time>
      </trkpt>
      <trkpt lat="49.83404" lon="4.84985">
        <ele>349</ele>
        <time>2022-09-28T09:26:37.000Z</time>
      </trkpt>
      <trkpt lat="49.834" lon="4.84988">
        <ele>349</ele>
        <time>2022-09-28T09:26:38.000Z</time>
      </trkpt>
      <trkpt lat="49.83397" lon="4.84991">
        <ele>349</ele>
        <time>2022-09-28T09:26:39.000Z</time>
      </trkpt>
      <trkpt lat="49.83394" lon="4.84994">
        <ele>349</ele>
        <time>2022-09-28T09:26:40.000Z</time>
      </trkpt>
      <trkpt lat="49.83391" lon="4.84997">
        <ele>349</ele>
        <time>2022-09-28T09:26:41.000Z</time>
      </trkpt>
      <trkpt lat="49.83388" lon="4.84999">
        <ele>349</ele>
        <time>2022-09-28T09:26:42.000Z</time>
      </trkpt>
      <trkpt lat="49.83385" lon="4.85002">
        <ele>349</ele>
        <time>2022-09-28T09:26:43.000Z</time>
      </trkpt>
      <trkpt lat="49.83382" lon="4.85005">
        <ele>349</ele>
        <time>2022-09-28T09:26:44.000Z</time>
      </trkpt>
      <trkpt lat="49.83379" lon="4.85008">
        <ele>349</ele>
        <time>2022-09-28T09:26:45.000Z</time>
      </trkpt>
      <trkpt lat="49.83376" lon="4.8501">
        <ele>350</ele>
        <time>2022-09-28T09:26:46.000Z</time>
      </trkpt>
      <trkpt lat="49.83374" lon="4.85013">
        <ele>350</ele>
        <time>2022-09-28T09:26:47.000Z</time>
      </trkpt>
      <trkpt lat="49.83371" lon="4.85016">
        <ele>350</ele>
        <time>2022-09-28T09:26:48.000Z</time>
      </trkpt>
      <trkpt lat="49.83368" lon="4.85018">
        <ele>350</ele>
        <time>2022-09-28T09:26:49.000Z</time>
      </trkpt>
      <trkpt lat="49.83365" lon="4.8502">
        <ele>350</ele>
        <time>2022-09-28T09:26:50.000Z</time>
      </trkpt>
      <trkpt lat="49.83363" lon="4.85022">
        <ele>350</ele>
        <time>2022-09-28T09:26:51.000Z</time>
      </trkpt>
      <trkpt lat="49.83361" lon="4.85024">
        <ele>350</ele>
        <time>2022-09-28T09:26:52.000Z</time>
      </trkpt>
      <trkpt lat="49.83359" lon="4.85027">
        <ele>351</ele>
        <time>2022-09-28T09:26:53.000Z</time>
      </trkpt>
      <trkpt lat="49.83357" lon="4.85028">
        <ele>351</ele>
        <time>2022-09-28T09:26:54.000Z</time>
      </trkpt>
      <trkpt lat="49.83355" lon="4.8503">
        <ele>351</ele>
        <time>2022-09-28T09:26:55.000Z</time>
      </trkpt>
      <trkpt lat="49.83353" lon="4.85032">
        <ele>351</ele>
        <time>2022-09-28T09:26:56.000Z</time>
      </trkpt>
      <trkpt lat="49.83351" lon="4.85033">
        <ele>351</ele>
        <time>2022-09-28T09:26:57.000Z</time>
      </trkpt>
      <trkpt lat="49.83348" lon="4.85035">
        <ele>351</ele>
        <time>2022-09-28T09:26:58.000Z</time>
      </trkpt>
      <trkpt lat="49.83346" lon="4.85037">
        <ele>351</ele>
        <time>2022-09-28T09:26:59.000Z</time>
      </trkpt>
      <trkpt lat="49.83344" lon="4.85038">
        <ele>351</ele>
        <time>2022-09-28T09:27:00.000Z</time>
      </trkpt>
      <trkpt lat="49.83342" lon="4.85039">
        <ele>352</ele>
        <time>2022-09-28T09:27:01.000Z</time>
      </trkpt>
      <trkpt lat="49.83339" lon="4.85041">
        <ele>352</ele>
        <time>2022-09-28T09:27:02.000Z</time>
      </trkpt>
      <trkpt lat="49.83337" lon="4.85042">
        <ele>352</ele>
        <time>2022-09-28T09:27:03.000Z</time>
      </trkpt>
      <trkpt lat="49.83335" lon="4.85042">
        <ele>352</ele>
        <time>2022-09-28T09:27:04.000Z</time>
      </trkpt>
      <trkpt lat="49.83332" lon="4.85043">
        <ele>352</ele>
        <time>2022-09-28T09:27:05.000Z</time>
      </trkpt>
      <trkpt lat="49.8333" lon="4.85043">
        <ele>352</ele>
        <time>2022-09-28T09:27:06.000Z</time>
      </trkpt>
      <trkpt lat="49.83328" lon="4.85044">
        <ele>352</ele>
        <time>2022-09-28T09:27:07.000Z</time>
      </trkpt>
      <trkpt lat="49.83325" lon="4.85045">
        <ele>352</ele>
        <time>2022-09-28T09:27:08.000Z</time>
      </trkpt>
      <trkpt lat="49.83323" lon="4.85045">
        <ele>353</ele>
        <time>2022-09-28T09:27:09.000Z</time>
      </trkpt>
      <trkpt lat="49.8332" lon="4.85045">
        <ele>353</ele>
        <time>2022-09-28T09:27:10.000Z</time>
      </trkpt>
      <trkpt lat="49.83318" lon="4.85046">
        <ele>353</ele>
        <time>2022-09-28T09:27:11.000Z</time>
      </trkpt>
      <trkpt lat="49.83314" lon="4.85047">
        <ele>353</ele>
        <time>2022-09-28T09:27:12.000Z</time>
      </trkpt>
      <trkpt lat="49.83311" lon="4.85048">
        <ele>353</ele>
        <time>2022-09-28T09:27:13.000Z</time>
      </trkpt>
      <trkpt lat="49.83307" lon="4.85048">
        <ele>353</ele>
        <time>2022-09-28T09:27:14.000Z</time>
      </trkpt>
      <trkpt lat="49.83304" lon="4.85049">
        <ele>354</ele>
        <time>2022-09-28T09:27:15.000Z</time>
      </trkpt>
      <trkpt lat="49.833" lon="4.8505">
        <ele>354</ele>
        <time>2022-09-28T09:27:16.000Z</time>
      </trkpt>
      <trkpt lat="49.83297" lon="4.85051">
        <ele>354</ele>
        <time>2022-09-28T09:27:17.000Z</time>
      </trkpt>
      <trkpt lat="49.83294" lon="4.85053">
        <ele>354</ele>
        <time>2022-09-28T09:27:18.000Z</time>
      </trkpt>
      <trkpt lat="49.83291" lon="4.85054">
        <ele>355</ele>
        <time>2022-09-28T09:27:19.000Z</time>
      </trkpt>
      <trkpt lat="49.83288" lon="4.85055">
        <ele>355</ele>
        <time>2022-09-28T09:27:20.000Z</time>
      </trkpt>
      <trkpt lat="49.83285" lon="4.85056">
        <ele>355</ele>
        <time>2022-09-28T09:27:21.000Z</time>
      </trkpt>
      <trkpt lat="49.83282" lon="4.85058">
        <ele>355</ele>
        <time>2022-09-28T09:27:22.000Z</time>
      </trkpt>
      <trkpt lat="49.83279" lon="4.85059">
        <ele>356</ele>
        <time>2022-09-28T09:27:23.000Z</time>
      </trkpt>
      <trkpt lat="49.83276" lon="4.8506">
        <ele>356</ele>
        <time>2022-09-28T09:27:24.000Z</time>
      </trkpt>
      <trkpt lat="49.83272" lon="4.8506">
        <ele>356</ele>
        <time>2022-09-28T09:27:25.000Z</time>
      </trkpt>
      <trkpt lat="49.8327" lon="4.85058">
        <ele>356</ele>
        <time>2022-09-28T09:27:26.000Z</time>
      </trkpt>
      <trkpt lat="49.83267" lon="4.85056">
        <ele>356</ele>
        <time>2022-09-28T09:27:27.000Z</time>
      </trkpt>
      <trkpt lat="49.83264" lon="4.85055">
        <ele>357</ele>
        <time>2022-09-28T09:27:28.000Z</time>
      </trkpt>
      <trkpt lat="49.83262" lon="4.85052">
        <ele>357</ele>
        <time>2022-09-28T09:27:29.000Z</time>
      </trkpt>
      <trkpt lat="49.8326" lon="4.8505">
        <ele>357</ele>
        <time>2022-09-28T09:27:30.000Z</time>
      </trkpt>
      <trkpt lat="49.83257" lon="4.85047">
        <ele>357</ele>
        <time>2022-09-28T09:27:31.000Z</time>
      </trkpt>
      <trkpt lat="49.83255" lon="4.85044">
        <ele>357</ele>
        <time>2022-09-28T09:27:32.000Z</time>
      </trkpt>
      <trkpt lat="49.83252" lon="4.85042">
        <ele>357</ele>
        <time>2022-09-28T09:27:33.000Z</time>
      </trkpt>
      <trkpt lat="49.83249" lon="4.85039">
        <ele>357</ele>
        <time>2022-09-28T09:27:34.000Z</time>
      </trkpt>
      <trkpt lat="49.83245" lon="4.85036">
        <ele>357</ele>
        <time>2022-09-28T09:27:35.000Z</time>
      </trkpt>
      <trkpt lat="49.83242" lon="4.85033">
        <ele>357</ele>
        <time>2022-09-28T09:27:36.000Z</time>
      </trkpt>
      <trkpt lat="49.83239" lon="4.85029">
        <ele>357</ele>
        <time>2022-09-28T09:27:37.000Z</time>
      </trkpt>
      <trkpt lat="49.83235" lon="4.85025">
        <ele>358</ele>
        <time>2022-09-28T09:27:38.000Z</time>
      </trkpt>
      <trkpt lat="49.83232" lon="4.85022">
        <ele>358</ele>
        <time>2022-09-28T09:27:39.000Z</time>
      </trkpt>
      <trkpt lat="49.83228" lon="4.85019">
        <ele>358</ele>
        <time>2022-09-28T09:27:40.000Z</time>
      </trkpt>
      <trkpt lat="49.83224" lon="4.85016">
        <ele>358</ele>
        <time>2022-09-28T09:27:41.000Z</time>
      </trkpt>
      <trkpt lat="49.83221" lon="4.85013">
        <ele>358</ele>
        <time>2022-09-28T09:27:42.000Z</time>
      </trkpt>
      <trkpt lat="49.83218" lon="4.8501">
        <ele>358</ele>
        <time>2022-09-28T09:27:43.000Z</time>
      </trkpt>
      <trkpt lat="49.83214" lon="4.85007">
        <ele>358</ele>
        <time>2022-09-28T09:27:44.000Z</time>
      </trkpt>
      <trkpt lat="49.83211" lon="4.85003">
        <ele>358</ele>
        <time>2022-09-28T09:27:45.000Z</time>
      </trkpt>
      <trkpt lat="49.83207" lon="4.85">
        <ele>358</ele>
        <time>2022-09-28T09:27:46.000Z</time>
      </trkpt>
      <trkpt lat="49.83204" lon="4.84997">
        <ele>358</ele>
        <time>2022-09-28T09:27:47.000Z</time>
      </trkpt>
      <trkpt lat="49.83201" lon="4.84995">
        <ele>358</ele>
        <time>2022-09-28T09:27:48.000Z</time>
      </trkpt>
      <trkpt lat="49.83198" lon="4.84991">
        <ele>358</ele>
        <time>2022-09-28T09:27:49.000Z</time>
      </trkpt>
      <trkpt lat="49.83194" lon="4.84988">
        <ele>358</ele>
        <time>2022-09-28T09:27:50.000Z</time>
      </trkpt>
      <trkpt lat="49.8319" lon="4.84984">
        <ele>358</ele>
        <time>2022-09-28T09:27:51.000Z</time>
      </trkpt>
      <trkpt lat="49.83185" lon="4.8498">
        <ele>358</ele>
        <time>2022-09-28T09:27:52.000Z</time>
      </trkpt>
      <trkpt lat="49.8318" lon="4.84976">
        <ele>358</ele>
        <time>2022-09-28T09:27:53.000Z</time>
      </trkpt>
      <trkpt lat="49.83176" lon="4.84971">
        <ele>358</ele>
        <time>2022-09-28T09:27:54.000Z</time>
      </trkpt>
      <trkpt lat="49.83171" lon="4.84966">
        <ele>358</ele>
        <time>2022-09-28T09:27:55.000Z</time>
      </trkpt>
      <trkpt lat="49.83166" lon="4.84961">
        <ele>358</ele>
        <time>2022-09-28T09:27:56.000Z</time>
      </trkpt>
      <trkpt lat="49.83162" lon="4.84956">
        <ele>358</ele>
        <time>2022-09-28T09:27:57.000Z</time>
      </trkpt>
      <trkpt lat="49.83157" lon="4.84951">
        <ele>358</ele>
        <time>2022-09-28T09:27:58.000Z</time>
      </trkpt>
      <trkpt lat="49.83152" lon="4.84946">
        <ele>358</ele>
        <time>2022-09-28T09:27:59.000Z</time>
      </trkpt>
      <trkpt lat="49.83148" lon="4.84942">
        <ele>358</ele>
        <time>2022-09-28T09:28:00.000Z</time>
      </trkpt>
      <trkpt lat="49.83143" lon="4.84939">
        <ele>358</ele>
        <time>2022-09-28T09:28:01.000Z</time>
      </trkpt>
      <trkpt lat="49.83139" lon="4.84935">
        <ele>358</ele>
        <time>2022-09-28T09:28:02.000Z</time>
      </trkpt>
      <trkpt lat="49.83135" lon="4.84931">
        <ele>358</ele>
        <time>2022-09-28T09:28:03.000Z</time>
      </trkpt>
      <trkpt lat="49.83131" lon="4.84928">
        <ele>358</ele>
        <time>2022-09-28T09:28:04.000Z</time>
      </trkpt>
      <trkpt lat="49.83127" lon="4.84924">
        <ele>358</ele>
        <time>2022-09-28T09:28:05.000Z</time>
      </trkpt>
      <trkpt lat="49.83123" lon="4.84921">
        <ele>358</ele>
        <time>2022-09-28T09:28:06.000Z</time>
      </trkpt>
      <trkpt lat="49.83119" lon="4.84917">
        <ele>358</ele>
        <time>2022-09-28T09:28:07.000Z</time>
      </trkpt>
      <trkpt lat="49.83116" lon="4.84913">
        <ele>358</ele>
        <time>2022-09-28T09:28:08.000Z</time>
      </trkpt>
      <trkpt lat="49.83112" lon="4.8491">
        <ele>359</ele>
        <time>2022-09-28T09:28:09.000Z</time>
      </trkpt>
      <trkpt lat="49.83108" lon="4.84906">
        <ele>358</ele>
        <time>2022-09-28T09:28:10.000Z</time>
      </trkpt>
      <trkpt lat="49.83104" lon="4.84903">
        <ele>358</ele>
        <time>2022-09-28T09:28:11.000Z</time>
      </trkpt>
      <trkpt lat="49.83099" lon="4.84899">
        <ele>358</ele>
        <time>2022-09-28T09:28:12.000Z</time>
      </trkpt>
      <trkpt lat="49.83094" lon="4.84895">
        <ele>358</ele>
        <time>2022-09-28T09:28:13.000Z</time>
      </trkpt>
      <trkpt lat="49.83089" lon="4.8489">
        <ele>358</ele>
        <time>2022-09-28T09:28:14.000Z</time>
      </trkpt>
      <trkpt lat="49.83083" lon="4.84884">
        <ele>358</ele>
        <time>2022-09-28T09:28:15.000Z</time>
      </trkpt>
      <trkpt lat="49.83077" lon="4.84878">
        <ele>358</ele>
        <time>2022-09-28T09:28:16.000Z</time>
      </trkpt>
      <trkpt lat="49.83072" lon="4.84873">
        <ele>358</ele>
        <time>2022-09-28T09:28:17.000Z</time>
      </trkpt>
      <trkpt lat="49.83066" lon="4.84867">
        <ele>357</ele>
        <time>2022-09-28T09:28:18.000Z</time>
      </trkpt>
      <trkpt lat="49.83061" lon="4.8486">
        <ele>357</ele>
        <time>2022-09-28T09:28:19.000Z</time>
      </trkpt>
      <trkpt lat="49.83055" lon="4.84854">
        <ele>357</ele>
        <time>2022-09-28T09:28:20.000Z</time>
      </trkpt>
      <trkpt lat="49.83049" lon="4.84848">
        <ele>357</ele>
        <time>2022-09-28T09:28:21.000Z</time>
      </trkpt>
      <trkpt lat="49.83043" lon="4.84843">
        <ele>356</ele>
        <time>2022-09-28T09:28:22.000Z</time>
      </trkpt>
      <trkpt lat="49.83037" lon="4.84838">
        <ele>356</ele>
        <time>2022-09-28T09:28:23.000Z</time>
      </trkpt>
      <trkpt lat="49.83031" lon="4.84834">
        <ele>356</ele>
        <time>2022-09-28T09:28:24.000Z</time>
      </trkpt>
      <trkpt lat="49.83024" lon="4.84833">
        <ele>355</ele>
        <time>2022-09-28T09:28:25.000Z</time>
      </trkpt>
      <trkpt lat="49.83017" lon="4.84832">
        <ele>355</ele>
        <time>2022-09-28T09:28:26.000Z</time>
      </trkpt>
      <trkpt lat="49.8301" lon="4.84834">
        <ele>355</ele>
        <time>2022-09-28T09:28:27.000Z</time>
      </trkpt>
      <trkpt lat="49.83003" lon="4.84835">
        <ele>354</ele>
        <time>2022-09-28T09:28:28.000Z</time>
      </trkpt>
      <trkpt lat="49.82996" lon="4.84835">
        <ele>354</ele>
        <time>2022-09-28T09:28:29.000Z</time>
      </trkpt>
      <trkpt lat="49.82989" lon="4.84834">
        <ele>354</ele>
        <time>2022-09-28T09:28:30.000Z</time>
      </trkpt>
      <trkpt lat="49.82983" lon="4.84833">
        <ele>354</ele>
        <time>2022-09-28T09:28:31.000Z</time>
      </trkpt>
      <trkpt lat="49.82976" lon="4.84833">
        <ele>353</ele>
        <time>2022-09-28T09:28:32.000Z</time>
      </trkpt>
      <trkpt lat="49.82969" lon="4.84831">
        <ele>353</ele>
        <time>2022-09-28T09:28:33.000Z</time>
      </trkpt>
      <trkpt lat="49.82963" lon="4.84829">
        <ele>353</ele>
        <time>2022-09-28T09:28:34.000Z</time>
      </trkpt>
      <trkpt lat="49.82957" lon="4.84829">
        <ele>352</ele>
        <time>2022-09-28T09:28:35.000Z</time>
      </trkpt>
      <trkpt lat="49.82951" lon="4.84831">
        <ele>352</ele>
        <time>2022-09-28T09:28:36.000Z</time>
      </trkpt>
      <trkpt lat="49.82946" lon="4.84833">
        <ele>352</ele>
        <time>2022-09-28T09:28:37.000Z</time>
      </trkpt>
      <trkpt lat="49.82941" lon="4.84837">
        <ele>351</ele>
        <time>2022-09-28T09:28:38.000Z</time>
      </trkpt>
      <trkpt lat="49.82937" lon="4.84843">
        <ele>351</ele>
        <time>2022-09-28T09:28:39.000Z</time>
      </trkpt>
      <trkpt lat="49.82933" lon="4.8485">
        <ele>350</ele>
        <time>2022-09-28T09:28:40.000Z</time>
      </trkpt>
      <trkpt lat="49.82929" lon="4.84856">
        <ele>350</ele>
        <time>2022-09-28T09:28:41.000Z</time>
      </trkpt>
      <trkpt lat="49.82926" lon="4.84862">
        <ele>350</ele>
        <time>2022-09-28T09:28:42.000Z</time>
      </trkpt>
      <trkpt lat="49.82922" lon="4.84866">
        <ele>349</ele>
        <time>2022-09-28T09:28:43.000Z</time>
      </trkpt>
      <trkpt lat="49.82918" lon="4.8487">
        <ele>349</ele>
        <time>2022-09-28T09:28:44.000Z</time>
      </trkpt>
      <trkpt lat="49.82913" lon="4.84874">
        <ele>348</ele>
        <time>2022-09-28T09:28:45.000Z</time>
      </trkpt>
      <trkpt lat="49.82909" lon="4.84877">
        <ele>348</ele>
        <time>2022-09-28T09:28:46.000Z</time>
      </trkpt>
      <trkpt lat="49.82905" lon="4.84879">
        <ele>347</ele>
        <time>2022-09-28T09:28:47.000Z</time>
      </trkpt>
      <trkpt lat="49.829" lon="4.8488">
        <ele>347</ele>
        <time>2022-09-28T09:28:48.000Z</time>
      </trkpt>
      <trkpt lat="49.82895" lon="4.84883">
        <ele>346</ele>
        <time>2022-09-28T09:28:49.000Z</time>
      </trkpt>
      <trkpt lat="49.8289" lon="4.84885">
        <ele>346</ele>
        <time>2022-09-28T09:28:50.000Z</time>
      </trkpt>
      <trkpt lat="49.82886" lon="4.84886">
        <ele>345</ele>
        <time>2022-09-28T09:28:51.000Z</time>
      </trkpt>
      <trkpt lat="49.82884" lon="4.84887">
        <ele>345</ele>
        <time>2022-09-28T09:28:52.000Z</time>
      </trkpt>
      <trkpt lat="49.82882" lon="4.84889">
        <ele>344</ele>
        <time>2022-09-28T09:28:53.000Z</time>
      </trkpt>
      <trkpt lat="49.82881" lon="4.84891">
        <ele>344</ele>
        <time>2022-09-28T09:28:54.000Z</time>
      </trkpt>
      <trkpt lat="49.82881" lon="4.84892">
        <ele>343</ele>
        <time>2022-09-28T09:28:55.000Z</time>
      </trkpt>
      <trkpt lat="49.82882" lon="4.84894">
        <ele>343</ele>
        <time>2022-09-28T09:28:56.000Z</time>
      </trkpt>
      <trkpt lat="49.82883" lon="4.84897">
        <ele>342</ele>
        <time>2022-09-28T09:28:57.000Z</time>
      </trkpt>
      <trkpt lat="49.82883" lon="4.84899">
        <ele>341</ele>
        <time>2022-09-28T09:28:58.000Z</time>
      </trkpt>
      <trkpt lat="49.82884" lon="4.84902">
        <ele>341</ele>
        <time>2022-09-28T09:28:59.000Z</time>
      </trkpt>
      <trkpt lat="49.82884" lon="4.84906">
        <ele>340</ele>
        <time>2022-09-28T09:29:00.000Z</time>
      </trkpt>
      <trkpt lat="49.82884" lon="4.8491">
        <ele>340</ele>
        <time>2022-09-28T09:29:01.000Z</time>
      </trkpt>
      <trkpt lat="49.82885" lon="4.84913">
        <ele>339</ele>
        <time>2022-09-28T09:29:02.000Z</time>
      </trkpt>
      <trkpt lat="49.82886" lon="4.84916">
        <ele>339</ele>
        <time>2022-09-28T09:29:03.000Z</time>
      </trkpt>
      <trkpt lat="49.82887" lon="4.84918">
        <ele>339</ele>
        <time>2022-09-28T09:29:04.000Z</time>
      </trkpt>
      <trkpt lat="49.82889" lon="4.84922">
        <ele>338</ele>
        <time>2022-09-28T09:29:05.000Z</time>
      </trkpt>
      <trkpt lat="49.8289" lon="4.84925">
        <ele>338</ele>
        <time>2022-09-28T09:29:06.000Z</time>
      </trkpt>
      <trkpt lat="49.82891" lon="4.84929">
        <ele>338</ele>
        <time>2022-09-28T09:29:07.000Z</time>
      </trkpt>
      <trkpt lat="49.82893" lon="4.84933">
        <ele>338</ele>
        <time>2022-09-28T09:29:08.000Z</time>
      </trkpt>
      <trkpt lat="49.82894" lon="4.84936">
        <ele>337</ele>
        <time>2022-09-28T09:29:09.000Z</time>
      </trkpt>
      <trkpt lat="49.82895" lon="4.8494">
        <ele>337</ele>
        <time>2022-09-28T09:29:10.000Z</time>
      </trkpt>
      <trkpt lat="49.82897" lon="4.84943">
        <ele>337</ele>
        <time>2022-09-28T09:29:11.000Z</time>
      </trkpt>
      <trkpt lat="49.82897" lon="4.84946">
        <ele>337</ele>
        <time>2022-09-28T09:29:12.000Z</time>
      </trkpt>
      <trkpt lat="49.82898" lon="4.8495">
        <ele>337</ele>
        <time>2022-09-28T09:29:13.000Z</time>
      </trkpt>
      <trkpt lat="49.829" lon="4.84953">
        <ele>336</ele>
        <time>2022-09-28T09:29:14.000Z</time>
      </trkpt>
      <trkpt lat="49.829" lon="4.84957">
        <ele>336</ele>
        <time>2022-09-28T09:29:15.000Z</time>
      </trkpt>
      <trkpt lat="49.82901" lon="4.8496">
        <ele>336</ele>
        <time>2022-09-28T09:29:16.000Z</time>
      </trkpt>
      <trkpt lat="49.82902" lon="4.84964">
        <ele>336</ele>
        <time>2022-09-28T09:29:17.000Z</time>
      </trkpt>
      <trkpt lat="49.82903" lon="4.84968">
        <ele>336</ele>
        <time>2022-09-28T09:29:18.000Z</time>
      </trkpt>
      <trkpt lat="49.82904" lon="4.84972">
        <ele>336</ele>
        <time>2022-09-28T09:29:19.000Z</time>
      </trkpt>
      <trkpt lat="49.82906" lon="4.84976">
        <ele>336</ele>
        <time>2022-09-28T09:29:20.000Z</time>
      </trkpt>
      <trkpt lat="49.82906" lon="4.8498">
        <ele>336</ele>
        <time>2022-09-28T09:29:21.000Z</time>
      </trkpt>
      <trkpt lat="49.82907" lon="4.84984">
        <ele>336</ele>
        <time>2022-09-28T09:29:22.000Z</time>
      </trkpt>
      <trkpt lat="49.82907" lon="4.84988">
        <ele>336</ele>
        <time>2022-09-28T09:29:23.000Z</time>
      </trkpt>
      <trkpt lat="49.82907" lon="4.84992">
        <ele>336</ele>
        <time>2022-09-28T09:29:24.000Z</time>
      </trkpt>
      <trkpt lat="49.82908" lon="4.84997">
        <ele>336</ele>
        <time>2022-09-28T09:29:25.000Z</time>
      </trkpt>
      <trkpt lat="49.82909" lon="4.85002">
        <ele>336</ele>
        <time>2022-09-28T09:29:26.000Z</time>
      </trkpt>
      <trkpt lat="49.82909" lon="4.85007">
        <ele>336</ele>
        <time>2022-09-28T09:29:27.000Z</time>
      </trkpt>
      <trkpt lat="49.82909" lon="4.85012">
        <ele>336</ele>
        <time>2022-09-28T09:29:28.000Z</time>
      </trkpt>
      <trkpt lat="49.82909" lon="4.85017">
        <ele>336</ele>
        <time>2022-09-28T09:29:29.000Z</time>
      </trkpt>
      <trkpt lat="49.8291" lon="4.85021">
        <ele>336</ele>
        <time>2022-09-28T09:29:30.000Z</time>
      </trkpt>
      <trkpt lat="49.8291" lon="4.85025">
        <ele>336</ele>
        <time>2022-09-28T09:29:31.000Z</time>
      </trkpt>
      <trkpt lat="49.8291" lon="4.8503">
        <ele>337</ele>
        <time>2022-09-28T09:29:32.000Z</time>
      </trkpt>
      <trkpt lat="49.8291" lon="4.85034">
        <ele>337</ele>
        <time>2022-09-28T09:29:33.000Z</time>
      </trkpt>
      <trkpt lat="49.82909" lon="4.85038">
        <ele>337</ele>
        <time>2022-09-28T09:29:34.000Z</time>
      </trkpt>
      <trkpt lat="49.82908" lon="4.85042">
        <ele>337</ele>
        <time>2022-09-28T09:29:35.000Z</time>
      </trkpt>
      <trkpt lat="49.82907" lon="4.85046">
        <ele>337</ele>
        <time>2022-09-28T09:29:36.000Z</time>
      </trkpt>
      <trkpt lat="49.82905" lon="4.85049">
        <ele>337</ele>
        <time>2022-09-28T09:29:37.000Z</time>
      </trkpt>
      <trkpt lat="49.82903" lon="4.85052">
        <ele>337</ele>
        <time>2022-09-28T09:29:38.000Z</time>
      </trkpt>
      <trkpt lat="49.82901" lon="4.85055">
        <ele>337</ele>
        <time>2022-09-28T09:29:39.000Z</time>
      </trkpt>
      <trkpt lat="49.82899" lon="4.85058">
        <ele>337</ele>
        <time>2022-09-28T09:29:40.000Z</time>
      </trkpt>
      <trkpt lat="49.82897" lon="4.85062">
        <ele>337</ele>
        <time>2022-09-28T09:29:41.000Z</time>
      </trkpt>
      <trkpt lat="49.82896" lon="4.85065">
        <ele>337</ele>
        <time>2022-09-28T09:29:42.000Z</time>
      </trkpt>
      <trkpt lat="49.82894" lon="4.85068">
        <ele>337</ele>
        <time>2022-09-28T09:29:43.000Z</time>
      </trkpt>
      <trkpt lat="49.82892" lon="4.85071">
        <ele>337</ele>
        <time>2022-09-28T09:29:44.000Z</time>
      </trkpt>
      <trkpt lat="49.8289" lon="4.85074">
        <ele>337</ele>
        <time>2022-09-28T09:29:45.000Z</time>
      </trkpt>
      <trkpt lat="49.82889" lon="4.85077">
        <ele>337</ele>
        <time>2022-09-28T09:29:46.000Z</time>
      </trkpt>
      <trkpt lat="49.82887" lon="4.85079">
        <ele>337</ele>
        <time>2022-09-28T09:29:47.000Z</time>
      </trkpt>
      <trkpt lat="49.82886" lon="4.85082">
        <ele>337</ele>
        <time>2022-09-28T09:29:48.000Z</time>
      </trkpt>
      <trkpt lat="49.82884" lon="4.85085">
        <ele>337</ele>
        <time>2022-09-28T09:29:49.000Z</time>
      </trkpt>
      <trkpt lat="49.82881" lon="4.85087">
        <ele>337</ele>
        <time>2022-09-28T09:29:50.000Z</time>
      </trkpt>
      <trkpt lat="49.82879" lon="4.8509">
        <ele>337</ele>
        <time>2022-09-28T09:29:51.000Z</time>
      </trkpt>
      <trkpt lat="49.82877" lon="4.85092">
        <ele>337</ele>
        <time>2022-09-28T09:29:52.000Z</time>
      </trkpt>
      <trkpt lat="49.82875" lon="4.85094">
        <ele>337</ele>
        <time>2022-09-28T09:29:53.000Z</time>
      </trkpt>
      <trkpt lat="49.82872" lon="4.85096">
        <ele>337</ele>
        <time>2022-09-28T09:29:54.000Z</time>
      </trkpt>
      <trkpt lat="49.82871" lon="4.85099">
        <ele>337</ele>
        <time>2022-09-28T09:29:55.000Z</time>
      </trkpt>
      <trkpt lat="49.82869" lon="4.85102">
        <ele>338</ele>
        <time>2022-09-28T09:29:56.000Z</time>
      </trkpt>
      <trkpt lat="49.82867" lon="4.85105">
        <ele>338</ele>
        <time>2022-09-28T09:29:57.000Z</time>
      </trkpt>
      <trkpt lat="49.82866" lon="4.85107">
        <ele>338</ele>
        <time>2022-09-28T09:29:58.000Z</time>
      </trkpt>
      <trkpt lat="49.82864" lon="4.85109">
        <ele>338</ele>
        <time>2022-09-28T09:29:59.000Z</time>
      </trkpt>
      <trkpt lat="49.82862" lon="4.85112">
        <ele>338</ele>
        <time>2022-09-28T09:30:00.000Z</time>
      </trkpt>
      <trkpt lat="49.8286" lon="4.85114">
        <ele>338</ele>
        <time>2022-09-28T09:30:01.000Z</time>
      </trkpt>
      <trkpt lat="49.82857" lon="4.85117">
        <ele>338</ele>
        <time>2022-09-28T09:30:02.000Z</time>
      </trkpt>
      <trkpt lat="49.82855" lon="4.85119">
        <ele>338</ele>
        <time>2022-09-28T09:30:03.000Z</time>
      </trkpt>
      <trkpt lat="49.82853" lon="4.85122">
        <ele>339</ele>
        <time>2022-09-28T09:30:04.000Z</time>
      </trkpt>
      <trkpt lat="49.8285" lon="4.85124">
        <ele>339</ele>
        <time>2022-09-28T09:30:05.000Z</time>
      </trkpt>
      <trkpt lat="49.82848" lon="4.85127">
        <ele>339</ele>
        <time>2022-09-28T09:30:06.000Z</time>
      </trkpt>
      <trkpt lat="49.82846" lon="4.8513">
        <ele>339</ele>
        <time>2022-09-28T09:30:07.000Z</time>
      </trkpt>
      <trkpt lat="49.82845" lon="4.85133">
        <ele>339</ele>
        <time>2022-09-28T09:30:08.000Z</time>
      </trkpt>
      <trkpt lat="49.82842" lon="4.85136">
        <ele>339</ele>
        <time>2022-09-28T09:30:09.000Z</time>
      </trkpt>
      <trkpt lat="49.8284" lon="4.8514">
        <ele>339</ele>
        <time>2022-09-28T09:30:10.000Z</time>
      </trkpt>
      <trkpt lat="49.82838" lon="4.85144">
        <ele>340</ele>
        <time>2022-09-28T09:30:11.000Z</time>
      </trkpt>
      <trkpt lat="49.82835" lon="4.85147">
        <ele>340</ele>
        <time>2022-09-28T09:30:12.000Z</time>
      </trkpt>
      <trkpt lat="49.82833" lon="4.8515">
        <ele>340</ele>
        <time>2022-09-28T09:30:13.000Z</time>
      </trkpt>
      <trkpt lat="49.82831" lon="4.85153">
        <ele>340</ele>
        <time>2022-09-28T09:30:14.000Z</time>
      </trkpt>
      <trkpt lat="49.82829" lon="4.85157">
        <ele>340</ele>
        <time>2022-09-28T09:30:15.000Z</time>
      </trkpt>
      <trkpt lat="49.82827" lon="4.8516">
        <ele>340</ele>
        <time>2022-09-28T09:30:16.000Z</time>
      </trkpt>
      <trkpt lat="49.82825" lon="4.85163">
        <ele>340</ele>
        <time>2022-09-28T09:30:17.000Z</time>
      </trkpt>
      <trkpt lat="49.82823" lon="4.85167">
        <ele>340</ele>
        <time>2022-09-28T09:30:18.000Z</time>
      </trkpt>
      <trkpt lat="49.82821" lon="4.8517">
        <ele>340</ele>
        <time>2022-09-28T09:30:19.000Z</time>
      </trkpt>
      <trkpt lat="49.82819" lon="4.85173">
        <ele>340</ele>
        <time>2022-09-28T09:30:20.000Z</time>
      </trkpt>
      <trkpt lat="49.82816" lon="4.85177">
        <ele>340</ele>
        <time>2022-09-28T09:30:21.000Z</time>
      </trkpt>
      <trkpt lat="49.82814" lon="4.85181">
        <ele>340</ele>
        <time>2022-09-28T09:30:22.000Z</time>
      </trkpt>
      <trkpt lat="49.82812" lon="4.85184">
        <ele>340</ele>
        <time>2022-09-28T09:30:23.000Z</time>
      </trkpt>
      <trkpt lat="49.82809" lon="4.85187">
        <ele>339</ele>
        <time>2022-09-28T09:30:24.000Z</time>
      </trkpt>
      <trkpt lat="49.82807" lon="4.85191">
        <ele>340</ele>
        <time>2022-09-28T09:30:25.000Z</time>
      </trkpt>
      <trkpt lat="49.82805" lon="4.85196">
        <ele>340</ele>
        <time>2022-09-28T09:30:26.000Z</time>
      </trkpt>
      <trkpt lat="49.82803" lon="4.852">
        <ele>340</ele>
        <time>2022-09-28T09:30:27.000Z</time>
      </trkpt>
      <trkpt lat="49.82802" lon="4.85204">
        <ele>340</ele>
        <time>2022-09-28T09:30:28.000Z</time>
      </trkpt>
      <trkpt lat="49.828" lon="4.85209">
        <ele>340</ele>
        <time>2022-09-28T09:30:29.000Z</time>
      </trkpt>
      <trkpt lat="49.82798" lon="4.85212">
        <ele>340</ele>
        <time>2022-09-28T09:30:30.000Z</time>
      </trkpt>
      <trkpt lat="49.82796" lon="4.85216">
        <ele>340</ele>
        <time>2022-09-28T09:30:31.000Z</time>
      </trkpt>
      <trkpt lat="49.82794" lon="4.8522">
        <ele>340</ele>
        <time>2022-09-28T09:30:32.000Z</time>
      </trkpt>
      <trkpt lat="49.82793" lon="4.85223">
        <ele>340</ele>
        <time>2022-09-28T09:30:33.000Z</time>
      </trkpt>
      <trkpt lat="49.82792" lon="4.85227">
        <ele>340</ele>
        <time>2022-09-28T09:30:34.000Z</time>
      </trkpt>
      <trkpt lat="49.82791" lon="4.8523">
        <ele>340</ele>
        <time>2022-09-28T09:30:35.000Z</time>
      </trkpt>
      <trkpt lat="49.8279" lon="4.85234">
        <ele>340</ele>
        <time>2022-09-28T09:30:36.000Z</time>
      </trkpt>
      <trkpt lat="49.82789" lon="4.85237">
        <ele>340</ele>
        <time>2022-09-28T09:30:37.000Z</time>
      </trkpt>
      <trkpt lat="49.82788" lon="4.85241">
        <ele>341</ele>
        <time>2022-09-28T09:30:38.000Z</time>
      </trkpt>
      <trkpt lat="49.82787" lon="4.85245">
        <ele>341</ele>
        <time>2022-09-28T09:30:39.000Z</time>
      </trkpt>
      <trkpt lat="49.82787" lon="4.8525">
        <ele>341</ele>
        <time>2022-09-28T09:30:40.000Z</time>
      </trkpt>
      <trkpt lat="49.82786" lon="4.85254">
        <ele>341</ele>
        <time>2022-09-28T09:30:41.000Z</time>
      </trkpt>
      <trkpt lat="49.82786" lon="4.85258">
        <ele>342</ele>
        <time>2022-09-28T09:30:42.000Z</time>
      </trkpt>
      <trkpt lat="49.82786" lon="4.85262">
        <ele>342</ele>
        <time>2022-09-28T09:30:43.000Z</time>
      </trkpt>
      <trkpt lat="49.82786" lon="4.85267">
        <ele>342</ele>
        <time>2022-09-28T09:30:44.000Z</time>
      </trkpt>
      <trkpt lat="49.82785" lon="4.85271">
        <ele>343</ele>
        <time>2022-09-28T09:30:45.000Z</time>
      </trkpt>
      <trkpt lat="49.82785" lon="4.85275">
        <ele>343</ele>
        <time>2022-09-28T09:30:46.000Z</time>
      </trkpt>
      <trkpt lat="49.82784" lon="4.85279">
        <ele>343</ele>
        <time>2022-09-28T09:30:47.000Z</time>
      </trkpt>
      <trkpt lat="49.82784" lon="4.85282">
        <ele>343</ele>
        <time>2022-09-28T09:30:48.000Z</time>
      </trkpt>
      <trkpt lat="49.82784" lon="4.85286">
        <ele>344</ele>
        <time>2022-09-28T09:30:49.000Z</time>
      </trkpt>
      <trkpt lat="49.82784" lon="4.85289">
        <ele>344</ele>
        <time>2022-09-28T09:30:50.000Z</time>
      </trkpt>
      <trkpt lat="49.82785" lon="4.85293">
        <ele>344</ele>
        <time>2022-09-28T09:30:51.000Z</time>
      </trkpt>
      <trkpt lat="49.82785" lon="4.85297">
        <ele>344</ele>
        <time>2022-09-28T09:30:52.000Z</time>
      </trkpt>
      <trkpt lat="49.82786" lon="4.853">
        <ele>345</ele>
        <time>2022-09-28T09:30:53.000Z</time>
      </trkpt>
      <trkpt lat="49.82786" lon="4.85304">
        <ele>345</ele>
        <time>2022-09-28T09:30:54.000Z</time>
      </trkpt>
      <trkpt lat="49.82787" lon="4.85308">
        <ele>345</ele>
        <time>2022-09-28T09:30:55.000Z</time>
      </trkpt>
      <trkpt lat="49.82789" lon="4.85311">
        <ele>345</ele>
        <time>2022-09-28T09:30:56.000Z</time>
      </trkpt>
      <trkpt lat="49.8279" lon="4.85314">
        <ele>345</ele>
        <time>2022-09-28T09:30:57.000Z</time>
      </trkpt>
      <trkpt lat="49.82792" lon="4.85317">
        <ele>346</ele>
        <time>2022-09-28T09:30:58.000Z</time>
      </trkpt>
      <trkpt lat="49.82794" lon="4.8532">
        <ele>346</ele>
        <time>2022-09-28T09:30:59.000Z</time>
      </trkpt>
      <trkpt lat="49.82796" lon="4.85323">
        <ele>346</ele>
        <time>2022-09-28T09:31:00.000Z</time>
      </trkpt>
      <trkpt lat="49.82798" lon="4.85326">
        <ele>346</ele>
        <time>2022-09-28T09:31:01.000Z</time>
      </trkpt>
      <trkpt lat="49.828" lon="4.85328">
        <ele>346</ele>
        <time>2022-09-28T09:31:02.000Z</time>
      </trkpt>
      <trkpt lat="49.82801" lon="4.85332">
        <ele>346</ele>
        <time>2022-09-28T09:31:03.000Z</time>
      </trkpt>
      <trkpt lat="49.82801" lon="4.85334">
        <ele>346</ele>
        <time>2022-09-28T09:31:04.000Z</time>
      </trkpt>
      <trkpt lat="49.828" lon="4.85337">
        <ele>346</ele>
        <time>2022-09-28T09:31:05.000Z</time>
      </trkpt>
      <trkpt lat="49.82798" lon="4.85339">
        <ele>346</ele>
        <time>2022-09-28T09:31:06.000Z</time>
      </trkpt>
      <trkpt lat="49.82795" lon="4.85341">
        <ele>346</ele>
        <time>2022-09-28T09:31:07.000Z</time>
      </trkpt>
      <trkpt lat="49.82792" lon="4.85341">
        <ele>346</ele>
        <time>2022-09-28T09:31:08.000Z</time>
      </trkpt>
      <trkpt lat="49.82789" lon="4.85342">
        <ele>346</ele>
        <time>2022-09-28T09:31:09.000Z</time>
      </trkpt>
      <trkpt lat="49.82785" lon="4.85341">
        <ele>346</ele>
        <time>2022-09-28T09:31:10.000Z</time>
      </trkpt>
      <trkpt lat="49.82782" lon="4.85341">
        <ele>346</ele>
        <time>2022-09-28T09:31:11.000Z</time>
      </trkpt>
      <trkpt lat="49.82779" lon="4.85342">
        <ele>346</ele>
        <time>2022-09-28T09:31:12.000Z</time>
      </trkpt>
      <trkpt lat="49.82776" lon="4.85342">
        <ele>346</ele>
        <time>2022-09-28T09:31:13.000Z</time>
      </trkpt>
      <trkpt lat="49.82773" lon="4.85343">
        <ele>346</ele>
        <time>2022-09-28T09:31:14.000Z</time>
      </trkpt>
      <trkpt lat="49.82771" lon="4.85344">
        <ele>347</ele>
        <time>2022-09-28T09:31:15.000Z</time>
      </trkpt>
      <trkpt lat="49.82768" lon="4.85345">
        <ele>347</ele>
        <time>2022-09-28T09:31:16.000Z</time>
      </trkpt>
      <trkpt lat="49.82765" lon="4.85347">
        <ele>347</ele>
        <time>2022-09-28T09:31:17.000Z</time>
      </trkpt>
      <trkpt lat="49.82762" lon="4.85348">
        <ele>347</ele>
        <time>2022-09-28T09:31:18.000Z</time>
      </trkpt>
      <trkpt lat="49.82759" lon="4.85349">
        <ele>347</ele>
        <time>2022-09-28T09:31:19.000Z</time>
      </trkpt>
      <trkpt lat="49.82755" lon="4.85351">
        <ele>347</ele>
        <time>2022-09-28T09:31:20.000Z</time>
      </trkpt>
      <trkpt lat="49.82753" lon="4.85352">
        <ele>347</ele>
        <time>2022-09-28T09:31:21.000Z</time>
      </trkpt>
      <trkpt lat="49.8275" lon="4.85354">
        <ele>347</ele>
        <time>2022-09-28T09:31:22.000Z</time>
      </trkpt>
      <trkpt lat="49.82748" lon="4.85355">
        <ele>347</ele>
        <time>2022-09-28T09:31:23.000Z</time>
      </trkpt>
      <trkpt lat="49.82745" lon="4.85357">
        <ele>347</ele>
        <time>2022-09-28T09:31:24.000Z</time>
      </trkpt>
      <trkpt lat="49.82742" lon="4.85357">
        <ele>348</ele>
        <time>2022-09-28T09:31:25.000Z</time>
      </trkpt>
      <trkpt lat="49.82739" lon="4.85359">
        <ele>348</ele>
        <time>2022-09-28T09:31:26.000Z</time>
      </trkpt>
      <trkpt lat="49.82735" lon="4.8536">
        <ele>348</ele>
        <time>2022-09-28T09:31:27.000Z</time>
      </trkpt>
      <trkpt lat="49.82733" lon="4.85362">
        <ele>348</ele>
        <time>2022-09-28T09:31:28.000Z</time>
      </trkpt>
      <trkpt lat="49.8273" lon="4.85363">
        <ele>348</ele>
        <time>2022-09-28T09:31:29.000Z</time>
      </trkpt>
      <trkpt lat="49.82727" lon="4.85365">
        <ele>348</ele>
        <time>2022-09-28T09:31:30.000Z</time>
      </trkpt>
      <trkpt lat="49.82725" lon="4.85366">
        <ele>348</ele>
        <time>2022-09-28T09:31:31.000Z</time>
      </trkpt>
      <trkpt lat="49.82722" lon="4.85368">
        <ele>348</ele>
        <time>2022-09-28T09:31:32.000Z</time>
      </trkpt>
      <trkpt lat="49.82719" lon="4.85369">
        <ele>348</ele>
        <time>2022-09-28T09:31:33.000Z</time>
      </trkpt>
      <trkpt lat="49.82717" lon="4.85371">
        <ele>348</ele>
        <time>2022-09-28T09:31:34.000Z</time>
      </trkpt>
      <trkpt lat="49.82714" lon="4.85373">
        <ele>348</ele>
        <time>2022-09-28T09:31:35.000Z</time>
      </trkpt>
      <trkpt lat="49.8271" lon="4.85376">
        <ele>348</ele>
        <time>2022-09-28T09:31:36.000Z</time>
      </trkpt>
      <trkpt lat="49.82707" lon="4.85378">
        <ele>349</ele>
        <time>2022-09-28T09:31:37.000Z</time>
      </trkpt>
      <trkpt lat="49.82704" lon="4.85382">
        <ele>349</ele>
        <time>2022-09-28T09:31:38.000Z</time>
      </trkpt>
      <trkpt lat="49.827" lon="4.85385">
        <ele>349</ele>
        <time>2022-09-28T09:31:39.000Z</time>
      </trkpt>
      <trkpt lat="49.82696" lon="4.85387">
        <ele>349</ele>
        <time>2022-09-28T09:31:40.000Z</time>
      </trkpt>
      <trkpt lat="49.82692" lon="4.85389">
        <ele>349</ele>
        <time>2022-09-28T09:31:41.000Z</time>
      </trkpt>
      <trkpt lat="49.82689" lon="4.85392">
        <ele>349</ele>
        <time>2022-09-28T09:31:42.000Z</time>
      </trkpt>
      <trkpt lat="49.82685" lon="4.85396">
        <ele>349</ele>
        <time>2022-09-28T09:31:43.000Z</time>
      </trkpt>
      <trkpt lat="49.82682" lon="4.85398">
        <ele>349</ele>
        <time>2022-09-28T09:31:44.000Z</time>
      </trkpt>
      <trkpt lat="49.82677" lon="4.854">
        <ele>349</ele>
        <time>2022-09-28T09:31:45.000Z</time>
      </trkpt>
      <trkpt lat="49.82673" lon="4.85401">
        <ele>350</ele>
        <time>2022-09-28T09:31:46.000Z</time>
      </trkpt>
      <trkpt lat="49.82668" lon="4.85403">
        <ele>350</ele>
        <time>2022-09-28T09:31:47.000Z</time>
      </trkpt>
      <trkpt lat="49.82663" lon="4.85404">
        <ele>350</ele>
        <time>2022-09-28T09:31:48.000Z</time>
      </trkpt>
      <trkpt lat="49.82658" lon="4.85405">
        <ele>350</ele>
        <time>2022-09-28T09:31:49.000Z</time>
      </trkpt>
      <trkpt lat="49.82653" lon="4.85407">
        <ele>350</ele>
        <time>2022-09-28T09:31:50.000Z</time>
      </trkpt>
      <trkpt lat="49.82647" lon="4.85408">
        <ele>350</ele>
        <time>2022-09-28T09:31:51.000Z</time>
      </trkpt>
      <trkpt lat="49.82641" lon="4.85409">
        <ele>350</ele>
        <time>2022-09-28T09:31:52.000Z</time>
      </trkpt>
      <trkpt lat="49.82637" lon="4.8541">
        <ele>350</ele>
        <time>2022-09-28T09:31:53.000Z</time>
      </trkpt>
      <trkpt lat="49.82632" lon="4.85412">
        <ele>350</ele>
        <time>2022-09-28T09:31:54.000Z</time>
      </trkpt>
      <trkpt lat="49.82626" lon="4.85413">
        <ele>350</ele>
        <time>2022-09-28T09:31:55.000Z</time>
      </trkpt>
      <trkpt lat="49.8262" lon="4.85413">
        <ele>350</ele>
        <time>2022-09-28T09:31:56.000Z</time>
      </trkpt>
      <trkpt lat="49.82614" lon="4.85413">
        <ele>350</ele>
        <time>2022-09-28T09:31:57.000Z</time>
      </trkpt>
      <trkpt lat="49.82608" lon="4.85414">
        <ele>350</ele>
        <time>2022-09-28T09:31:58.000Z</time>
      </trkpt>
      <trkpt lat="49.82602" lon="4.85413">
        <ele>350</ele>
        <time>2022-09-28T09:31:59.000Z</time>
      </trkpt>
      <trkpt lat="49.82596" lon="4.85413">
        <ele>350</ele>
        <time>2022-09-28T09:32:00.000Z</time>
      </trkpt>
      <trkpt lat="49.8259" lon="4.85413">
        <ele>350</ele>
        <time>2022-09-28T09:32:01.000Z</time>
      </trkpt>
      <trkpt lat="49.82583" lon="4.85413">
        <ele>350</ele>
        <time>2022-09-28T09:32:02.000Z</time>
      </trkpt>
      <trkpt lat="49.82576" lon="4.85413">
        <ele>349</ele>
        <time>2022-09-28T09:32:03.000Z</time>
      </trkpt>
      <trkpt lat="49.82569" lon="4.85413">
        <ele>349</ele>
        <time>2022-09-28T09:32:04.000Z</time>
      </trkpt>
      <trkpt lat="49.82561" lon="4.85414">
        <ele>349</ele>
        <time>2022-09-28T09:32:05.000Z</time>
      </trkpt>
      <trkpt lat="49.82554" lon="4.85414">
        <ele>349</ele>
        <time>2022-09-28T09:32:06.000Z</time>
      </trkpt>
      <trkpt lat="49.82547" lon="4.85414">
        <ele>349</ele>
        <time>2022-09-28T09:32:07.000Z</time>
      </trkpt>
      <trkpt lat="49.8254" lon="4.85415">
        <ele>349</ele>
        <time>2022-09-28T09:32:08.000Z</time>
      </trkpt>
      <trkpt lat="49.82532" lon="4.85414">
        <ele>349</ele>
        <time>2022-09-28T09:32:09.000Z</time>
      </trkpt>
      <trkpt lat="49.82525" lon="4.85414">
        <ele>348</ele>
        <time>2022-09-28T09:32:10.000Z</time>
      </trkpt>
      <trkpt lat="49.82519" lon="4.85414">
        <ele>348</ele>
        <time>2022-09-28T09:32:11.000Z</time>
      </trkpt>
      <trkpt lat="49.82512" lon="4.85413">
        <ele>348</ele>
        <time>2022-09-28T09:32:12.000Z</time>
      </trkpt>
      <trkpt lat="49.82506" lon="4.85412">
        <ele>348</ele>
        <time>2022-09-28T09:32:13.000Z</time>
      </trkpt>
      <trkpt lat="49.825" lon="4.85412">
        <ele>348</ele>
        <time>2022-09-28T09:32:14.000Z</time>
      </trkpt>
      <trkpt lat="49.82495" lon="4.85411">
        <ele>347</ele>
        <time>2022-09-28T09:32:15.000Z</time>
      </trkpt>
      <trkpt lat="49.8249" lon="4.8541">
        <ele>347</ele>
        <time>2022-09-28T09:32:16.000Z</time>
      </trkpt>
      <trkpt lat="49.82484" lon="4.85408">
        <ele>347</ele>
        <time>2022-09-28T09:32:17.000Z</time>
      </trkpt>
      <trkpt lat="49.82479" lon="4.85407">
        <ele>346</ele>
        <time>2022-09-28T09:32:18.000Z</time>
      </trkpt>
      <trkpt lat="49.82474" lon="4.85405">
        <ele>346</ele>
        <time>2022-09-28T09:32:19.000Z</time>
      </trkpt>
      <trkpt lat="49.82468" lon="4.85404">
        <ele>346</ele>
        <time>2022-09-28T09:32:20.000Z</time>
      </trkpt>
      <trkpt lat="49.82462" lon="4.85404">
        <ele>346</ele>
        <time>2022-09-28T09:32:21.000Z</time>
      </trkpt>
      <trkpt lat="49.82456" lon="4.85405">
        <ele>346</ele>
        <time>2022-09-28T09:32:22.000Z</time>
      </trkpt>
      <trkpt lat="49.8245" lon="4.85406">
        <ele>346</ele>
        <time>2022-09-28T09:32:23.000Z</time>
      </trkpt>
      <trkpt lat="49.82444" lon="4.85409">
        <ele>345</ele>
        <time>2022-09-28T09:32:24.000Z</time>
      </trkpt>
      <trkpt lat="49.82439" lon="4.85412">
        <ele>345</ele>
        <time>2022-09-28T09:32:25.000Z</time>
      </trkpt>
      <trkpt lat="49.82434" lon="4.85414">
        <ele>345</ele>
        <time>2022-09-28T09:32:26.000Z</time>
      </trkpt>
      <trkpt lat="49.82429" lon="4.85417">
        <ele>345</ele>
        <time>2022-09-28T09:32:27.000Z</time>
      </trkpt>
      <trkpt lat="49.82423" lon="4.85419">
        <ele>344</ele>
        <time>2022-09-28T09:32:28.000Z</time>
      </trkpt>
      <trkpt lat="49.82417" lon="4.8542">
        <ele>344</ele>
        <time>2022-09-28T09:32:29.000Z</time>
      </trkpt>
      <trkpt lat="49.8241" lon="4.85421">
        <ele>344</ele>
        <time>2022-09-28T09:32:30.000Z</time>
      </trkpt>
      <trkpt lat="49.82403" lon="4.85421">
        <ele>343</ele>
        <time>2022-09-28T09:32:31.000Z</time>
      </trkpt>
      <trkpt lat="49.82397" lon="4.85421">
        <ele>343</ele>
        <time>2022-09-28T09:32:32.000Z</time>
      </trkpt>
      <trkpt lat="49.8239" lon="4.85421">
        <ele>343</ele>
        <time>2022-09-28T09:32:33.000Z</time>
      </trkpt>
      <trkpt lat="49.82384" lon="4.85419">
        <ele>343</ele>
        <time>2022-09-28T09:32:34.000Z</time>
      </trkpt>
      <trkpt lat="49.82378" lon="4.85417">
        <ele>342</ele>
        <time>2022-09-28T09:32:35.000Z</time>
      </trkpt>
      <trkpt lat="49.82373" lon="4.85415">
        <ele>342</ele>
        <time>2022-09-28T09:32:36.000Z</time>
      </trkpt>
      <trkpt lat="49.82367" lon="4.85412">
        <ele>342</ele>
        <time>2022-09-28T09:32:37.000Z</time>
      </trkpt>
      <trkpt lat="49.82363" lon="4.85408">
        <ele>341</ele>
        <time>2022-09-28T09:32:38.000Z</time>
      </trkpt>
      <trkpt lat="49.82358" lon="4.85402">
        <ele>341</ele>
        <time>2022-09-28T09:32:39.000Z</time>
      </trkpt>
      <trkpt lat="49.82354" lon="4.85396">
        <ele>340</ele>
        <time>2022-09-28T09:32:40.000Z</time>
      </trkpt>
      <trkpt lat="49.82349" lon="4.8539">
        <ele>340</ele>
        <time>2022-09-28T09:32:41.000Z</time>
      </trkpt>
      <trkpt lat="49.82345" lon="4.85384">
        <ele>339</ele>
        <time>2022-09-28T09:32:42.000Z</time>
      </trkpt>
      <trkpt lat="49.82341" lon="4.85376">
        <ele>339</ele>
        <time>2022-09-28T09:32:43.000Z</time>
      </trkpt>
      <trkpt lat="49.82337" lon="4.85367">
        <ele>339</ele>
        <time>2022-09-28T09:32:44.000Z</time>
      </trkpt>
      <trkpt lat="49.82332" lon="4.85359">
        <ele>338</ele>
        <time>2022-09-28T09:32:45.000Z</time>
      </trkpt>
      <trkpt lat="49.82327" lon="4.85352">
        <ele>338</ele>
        <time>2022-09-28T09:32:46.000Z</time>
      </trkpt>
      <trkpt lat="49.82323" lon="4.85344">
        <ele>337</ele>
        <time>2022-09-28T09:32:47.000Z</time>
      </trkpt>
      <trkpt lat="49.82319" lon="4.85338">
        <ele>337</ele>
        <time>2022-09-28T09:32:48.000Z</time>
      </trkpt>
      <trkpt lat="49.82315" lon="4.85332">
        <ele>336</ele>
        <time>2022-09-28T09:32:49.000Z</time>
      </trkpt>
      <trkpt lat="49.82313" lon="4.85327">
        <ele>335</ele>
        <time>2022-09-28T09:32:50.000Z</time>
      </trkpt>
      <trkpt lat="49.82311" lon="4.85322">
        <ele>335</ele>
        <time>2022-09-28T09:32:51.000Z</time>
      </trkpt>
      <trkpt lat="49.82309" lon="4.85317">
        <ele>334</ele>
        <time>2022-09-28T09:32:52.000Z</time>
      </trkpt>
      <trkpt lat="49.82308" lon="4.85313">
        <ele>334</ele>
        <time>2022-09-28T09:32:53.000Z</time>
      </trkpt>
      <trkpt lat="49.82307" lon="4.85309">
        <ele>334</ele>
        <time>2022-09-28T09:32:54.000Z</time>
      </trkpt>
      <trkpt lat="49.82306" lon="4.85304">
        <ele>333</ele>
        <time>2022-09-28T09:32:55.000Z</time>
      </trkpt>
      <trkpt lat="49.82304" lon="4.85298">
        <ele>333</ele>
        <time>2022-09-28T09:32:56.000Z</time>
      </trkpt>
      <trkpt lat="49.82302" lon="4.85291">
        <ele>332</ele>
        <time>2022-09-28T09:32:57.000Z</time>
      </trkpt>
      <trkpt lat="49.823" lon="4.85285">
        <ele>332</ele>
        <time>2022-09-28T09:32:58.000Z</time>
      </trkpt>
      <trkpt lat="49.82298" lon="4.85278">
        <ele>331</ele>
        <time>2022-09-28T09:32:59.000Z</time>
      </trkpt>
      <trkpt lat="49.82296" lon="4.85272">
        <ele>331</ele>
        <time>2022-09-28T09:33:00.000Z</time>
      </trkpt>
      <trkpt lat="49.82293" lon="4.85265">
        <ele>330</ele>
        <time>2022-09-28T09:33:01.000Z</time>
      </trkpt>
      <trkpt lat="49.82291" lon="4.85259">
        <ele>329</ele>
        <time>2022-09-28T09:33:02.000Z</time>
      </trkpt>
      <trkpt lat="49.82289" lon="4.85253">
        <ele>329</ele>
        <time>2022-09-28T09:33:03.000Z</time>
      </trkpt>
      <trkpt lat="49.82288" lon="4.85248">
        <ele>328</ele>
        <time>2022-09-28T09:33:04.000Z</time>
      </trkpt>
      <trkpt lat="49.82286" lon="4.85242">
        <ele>328</ele>
        <time>2022-09-28T09:33:05.000Z</time>
      </trkpt>
      <trkpt lat="49.82284" lon="4.85238">
        <ele>327</ele>
        <time>2022-09-28T09:33:06.000Z</time>
      </trkpt>
      <trkpt lat="49.82282" lon="4.85235">
        <ele>327</ele>
        <time>2022-09-28T09:33:07.000Z</time>
      </trkpt>
      <trkpt lat="49.8228" lon="4.85233">
        <ele>326</ele>
        <time>2022-09-28T09:33:08.000Z</time>
      </trkpt>
      <trkpt lat="49.82279" lon="4.8523">
        <ele>326</ele>
        <time>2022-09-28T09:33:09.000Z</time>
      </trkpt>
      <trkpt lat="49.82278" lon="4.85226">
        <ele>325</ele>
        <time>2022-09-28T09:33:10.000Z</time>
      </trkpt>
      <trkpt lat="49.82277" lon="4.85224">
        <ele>325</ele>
        <time>2022-09-28T09:33:11.000Z</time>
      </trkpt>
      <trkpt lat="49.82276" lon="4.85219">
        <ele>324</ele>
        <time>2022-09-28T09:33:12.000Z</time>
      </trkpt>
      <trkpt lat="49.82275" lon="4.85213">
        <ele>323</ele>
        <time>2022-09-28T09:33:13.000Z</time>
      </trkpt>
      <trkpt lat="49.82274" lon="4.85206">
        <ele>323</ele>
        <time>2022-09-28T09:33:14.000Z</time>
      </trkpt>
      <trkpt lat="49.82272" lon="4.85199">
        <ele>322</ele>
        <time>2022-09-28T09:33:15.000Z</time>
      </trkpt>
      <trkpt lat="49.82271" lon="4.85192">
        <ele>322</ele>
        <time>2022-09-28T09:33:16.000Z</time>
      </trkpt>
      <trkpt lat="49.82269" lon="4.85186">
        <ele>321</ele>
        <time>2022-09-28T09:33:17.000Z</time>
      </trkpt>
      <trkpt lat="49.82268" lon="4.85181">
        <ele>321</ele>
        <time>2022-09-28T09:33:18.000Z</time>
      </trkpt>
      <trkpt lat="49.82267" lon="4.85176">
        <ele>320</ele>
        <time>2022-09-28T09:33:19.000Z</time>
      </trkpt>
      <trkpt lat="49.82266" lon="4.8517">
        <ele>320</ele>
        <time>2022-09-28T09:33:20.000Z</time>
      </trkpt>
      <trkpt lat="49.82265" lon="4.85164">
        <ele>319</ele>
        <time>2022-09-28T09:33:21.000Z</time>
      </trkpt>
      <trkpt lat="49.82265" lon="4.85158">
        <ele>318</ele>
        <time>2022-09-28T09:33:22.000Z</time>
      </trkpt>
      <trkpt lat="49.82265" lon="4.85151">
        <ele>318</ele>
        <time>2022-09-28T09:33:23.000Z</time>
      </trkpt>
      <trkpt lat="49.82265" lon="4.85144">
        <ele>317</ele>
        <time>2022-09-28T09:33:24.000Z</time>
      </trkpt>
      <trkpt lat="49.82265" lon="4.85137">
        <ele>317</ele>
        <time>2022-09-28T09:33:25.000Z</time>
      </trkpt>
      <trkpt lat="49.82265" lon="4.8513">
        <ele>316</ele>
        <time>2022-09-28T09:33:26.000Z</time>
      </trkpt>
      <trkpt lat="49.82266" lon="4.85122">
        <ele>316</ele>
        <time>2022-09-28T09:33:27.000Z</time>
      </trkpt>
      <trkpt lat="49.82267" lon="4.85116">
        <ele>315</ele>
        <time>2022-09-28T09:33:28.000Z</time>
      </trkpt>
      <trkpt lat="49.82267" lon="4.85111">
        <ele>315</ele>
        <time>2022-09-28T09:33:29.000Z</time>
      </trkpt>
      <trkpt lat="49.82268" lon="4.85105">
        <ele>314</ele>
        <time>2022-09-28T09:33:30.000Z</time>
      </trkpt>
      <trkpt lat="49.82269" lon="4.85099">
        <ele>314</ele>
        <time>2022-09-28T09:33:31.000Z</time>
      </trkpt>
      <trkpt lat="49.82269" lon="4.85093">
        <ele>313</ele>
        <time>2022-09-28T09:33:32.000Z</time>
      </trkpt>
      <trkpt lat="49.8227" lon="4.85087">
        <ele>312</ele>
        <time>2022-09-28T09:33:33.000Z</time>
      </trkpt>
      <trkpt lat="49.82269" lon="4.85081">
        <ele>312</ele>
        <time>2022-09-28T09:33:34.000Z</time>
      </trkpt>
      <trkpt lat="49.82269" lon="4.85076">
        <ele>311</ele>
        <time>2022-09-28T09:33:35.000Z</time>
      </trkpt>
      <trkpt lat="49.82268" lon="4.8507">
        <ele>311</ele>
        <time>2022-09-28T09:33:36.000Z</time>
      </trkpt>
      <trkpt lat="49.82267" lon="4.85064">
        <ele>310</ele>
        <time>2022-09-28T09:33:37.000Z</time>
      </trkpt>
      <trkpt lat="49.82265" lon="4.85058">
        <ele>309</ele>
        <time>2022-09-28T09:33:38.000Z</time>
      </trkpt>
      <trkpt lat="49.82264" lon="4.85051">
        <ele>309</ele>
        <time>2022-09-28T09:33:39.000Z</time>
      </trkpt>
      <trkpt lat="49.82262" lon="4.85044">
        <ele>309</ele>
        <time>2022-09-28T09:33:40.000Z</time>
      </trkpt>
      <trkpt lat="49.8226" lon="4.85037">
        <ele>308</ele>
        <time>2022-09-28T09:33:41.000Z</time>
      </trkpt>
      <trkpt lat="49.82258" lon="4.8503">
        <ele>308</ele>
        <time>2022-09-28T09:33:42.000Z</time>
      </trkpt>
      <trkpt lat="49.82256" lon="4.85022">
        <ele>307</ele>
        <time>2022-09-28T09:33:43.000Z</time>
      </trkpt>
      <trkpt lat="49.82254" lon="4.85015">
        <ele>307</ele>
        <time>2022-09-28T09:33:44.000Z</time>
      </trkpt>
      <trkpt lat="49.82252" lon="4.85008">
        <ele>307</ele>
        <time>2022-09-28T09:33:45.000Z</time>
      </trkpt>
      <trkpt lat="49.82251" lon="4.85001">
        <ele>306</ele>
        <time>2022-09-28T09:33:46.000Z</time>
      </trkpt>
      <trkpt lat="49.82249" lon="4.84994">
        <ele>306</ele>
        <time>2022-09-28T09:33:47.000Z</time>
      </trkpt>
      <trkpt lat="49.82247" lon="4.84988">
        <ele>305</ele>
        <time>2022-09-28T09:33:48.000Z</time>
      </trkpt>
      <trkpt lat="49.82245" lon="4.84982">
        <ele>305</ele>
        <time>2022-09-28T09:33:49.000Z</time>
      </trkpt>
      <trkpt lat="49.82244" lon="4.84976">
        <ele>304</ele>
        <time>2022-09-28T09:33:50.000Z</time>
      </trkpt>
      <trkpt lat="49.82242" lon="4.84972">
        <ele>304</ele>
        <time>2022-09-28T09:33:51.000Z</time>
      </trkpt>
      <trkpt lat="49.82241" lon="4.84968">
        <ele>304</ele>
        <time>2022-09-28T09:33:52.000Z</time>
      </trkpt>
      <trkpt lat="49.82239" lon="4.84964">
        <ele>303</ele>
        <time>2022-09-28T09:33:53.000Z</time>
      </trkpt>
      <trkpt lat="49.82239" lon="4.8496">
        <ele>303</ele>
        <time>2022-09-28T09:33:54.000Z</time>
      </trkpt>
      <trkpt lat="49.82238" lon="4.84956">
        <ele>302</ele>
        <time>2022-09-28T09:33:55.000Z</time>
      </trkpt>
      <trkpt lat="49.82237" lon="4.84953">
        <ele>302</ele>
        <time>2022-09-28T09:33:56.000Z</time>
      </trkpt>
      <trkpt lat="49.82236" lon="4.8495">
        <ele>301</ele>
        <time>2022-09-28T09:33:57.000Z</time>
      </trkpt>
      <trkpt lat="49.82235" lon="4.84945">
        <ele>301</ele>
        <time>2022-09-28T09:33:58.000Z</time>
      </trkpt>
      <trkpt lat="49.82233" lon="4.84941">
        <ele>300</ele>
        <time>2022-09-28T09:33:59.000Z</time>
      </trkpt>
      <trkpt lat="49.8223" lon="4.84937">
        <ele>300</ele>
        <time>2022-09-28T09:34:00.000Z</time>
      </trkpt>
      <trkpt lat="49.82227" lon="4.84933">
        <ele>299</ele>
        <time>2022-09-28T09:34:01.000Z</time>
      </trkpt>
      <trkpt lat="49.82224" lon="4.8493">
        <ele>298</ele>
        <time>2022-09-28T09:34:02.000Z</time>
      </trkpt>
      <trkpt lat="49.82221" lon="4.84927">
        <ele>298</ele>
        <time>2022-09-28T09:34:03.000Z</time>
      </trkpt>
      <trkpt lat="49.82219" lon="4.84923">
        <ele>297</ele>
        <time>2022-09-28T09:34:04.000Z</time>
      </trkpt>
      <trkpt lat="49.82217" lon="4.84921">
        <ele>297</ele>
        <time>2022-09-28T09:34:05.000Z</time>
      </trkpt>
      <trkpt lat="49.82214" lon="4.84918">
        <ele>296</ele>
        <time>2022-09-28T09:34:06.000Z</time>
      </trkpt>
      <trkpt lat="49.82211" lon="4.84915">
        <ele>295</ele>
        <time>2022-09-28T09:34:07.000Z</time>
      </trkpt>
      <trkpt lat="49.82208" lon="4.84914">
        <ele>295</ele>
        <time>2022-09-28T09:34:08.000Z</time>
      </trkpt>
      <trkpt lat="49.82204" lon="4.84913">
        <ele>294</ele>
        <time>2022-09-28T09:34:09.000Z</time>
      </trkpt>
      <trkpt lat="49.82201" lon="4.84911">
        <ele>294</ele>
        <time>2022-09-28T09:34:10.000Z</time>
      </trkpt>
      <trkpt lat="49.82198" lon="4.84909">
        <ele>293</ele>
        <time>2022-09-28T09:34:11.000Z</time>
      </trkpt>
      <trkpt lat="49.82194" lon="4.84907">
        <ele>293</ele>
        <time>2022-09-28T09:34:12.000Z</time>
      </trkpt>
      <trkpt lat="49.82191" lon="4.84904">
        <ele>292</ele>
        <time>2022-09-28T09:34:13.000Z</time>
      </trkpt>
      <trkpt lat="49.82188" lon="4.84902">
        <ele>292</ele>
        <time>2022-09-28T09:34:14.000Z</time>
      </trkpt>
      <trkpt lat="49.82186" lon="4.84901">
        <ele>291</ele>
        <time>2022-09-28T09:34:15.000Z</time>
      </trkpt>
      <trkpt lat="49.82184" lon="4.84899">
        <ele>291</ele>
        <time>2022-09-28T09:34:16.000Z</time>
      </trkpt>
      <trkpt lat="49.82182" lon="4.84897">
        <ele>290</ele>
        <time>2022-09-28T09:34:17.000Z</time>
      </trkpt>
      <trkpt lat="49.8218" lon="4.84896">
        <ele>290</ele>
        <time>2022-09-28T09:34:18.000Z</time>
      </trkpt>
      <trkpt lat="49.82178" lon="4.84895">
        <ele>289</ele>
        <time>2022-09-28T09:34:19.000Z</time>
      </trkpt>
      <trkpt lat="49.82175" lon="4.84895">
        <ele>289</ele>
        <time>2022-09-28T09:34:20.000Z</time>
      </trkpt>
      <trkpt lat="49.82171" lon="4.84895">
        <ele>288</ele>
        <time>2022-09-28T09:34:21.000Z</time>
      </trkpt>
      <trkpt lat="49.82169" lon="4.84894">
        <ele>287</ele>
        <time>2022-09-28T09:34:22.000Z</time>
      </trkpt>
      <trkpt lat="49.82166" lon="4.84893">
        <ele>287</ele>
        <time>2022-09-28T09:34:23.000Z</time>
      </trkpt>
      <trkpt lat="49.82162" lon="4.84892">
        <ele>287</ele>
        <time>2022-09-28T09:34:24.000Z</time>
      </trkpt>
      <trkpt lat="49.82158" lon="4.8489">
        <ele>286</ele>
        <time>2022-09-28T09:34:25.000Z</time>
      </trkpt>
      <trkpt lat="49.82154" lon="4.84889">
        <ele>286</ele>
        <time>2022-09-28T09:34:26.000Z</time>
      </trkpt>
      <trkpt lat="49.82151" lon="4.84887">
        <ele>285</ele>
        <time>2022-09-28T09:34:27.000Z</time>
      </trkpt>
      <trkpt lat="49.82148" lon="4.84885">
        <ele>285</ele>
        <time>2022-09-28T09:34:28.000Z</time>
      </trkpt>
      <trkpt lat="49.82144" lon="4.84883">
        <ele>284</ele>
        <time>2022-09-28T09:34:29.000Z</time>
      </trkpt>
      <trkpt lat="49.8214" lon="4.84881">
        <ele>284</ele>
        <time>2022-09-28T09:34:30.000Z</time>
      </trkpt>
      <trkpt lat="49.82137" lon="4.84879">
        <ele>283</ele>
        <time>2022-09-28T09:34:31.000Z</time>
      </trkpt>
      <trkpt lat="49.82133" lon="4.84877">
        <ele>283</ele>
        <time>2022-09-28T09:34:32.000Z</time>
      </trkpt>
      <trkpt lat="49.82129" lon="4.84875">
        <ele>282</ele>
        <time>2022-09-28T09:34:33.000Z</time>
      </trkpt>
      <trkpt lat="49.82125" lon="4.84872">
        <ele>281</ele>
        <time>2022-09-28T09:34:34.000Z</time>
      </trkpt>
      <trkpt lat="49.82121" lon="4.8487">
        <ele>281</ele>
        <time>2022-09-28T09:34:35.000Z</time>
      </trkpt>
      <trkpt lat="49.82117" lon="4.84867">
        <ele>280</ele>
        <time>2022-09-28T09:34:36.000Z</time>
      </trkpt>
      <trkpt lat="49.82115" lon="4.84866">
        <ele>279</ele>
        <time>2022-09-28T09:34:37.000Z</time>
      </trkpt>
      <trkpt lat="49.82115" lon="4.84865">
        <ele>278</ele>
        <time>2022-09-28T09:34:38.000Z</time>
      </trkpt>
      <trkpt lat="49.82114" lon="4.84866">
        <ele>277</ele>
        <time>2022-09-28T09:34:39.000Z</time>
      </trkpt>
      <trkpt lat="49.82114" lon="4.84866">
        <ele>277</ele>
        <time>2022-09-28T09:34:40.000Z</time>
      </trkpt>
      <trkpt lat="49.82113" lon="4.84865">
        <ele>276</ele>
        <time>2022-09-28T09:34:41.000Z</time>
      </trkpt>
      <trkpt lat="49.82112" lon="4.84864">
        <ele>275</ele>
        <time>2022-09-28T09:34:42.000Z</time>
      </trkpt>
      <trkpt lat="49.8211" lon="4.84863">
        <ele>275</ele>
        <time>2022-09-28T09:34:43.000Z</time>
      </trkpt>
      <trkpt lat="49.82107" lon="4.84862">
        <ele>274</ele>
        <time>2022-09-28T09:34:44.000Z</time>
      </trkpt>
      <trkpt lat="49.82104" lon="4.8486">
        <ele>273</ele>
        <time>2022-09-28T09:34:45.000Z</time>
      </trkpt>
      <trkpt lat="49.821" lon="4.84859">
        <ele>273</ele>
        <time>2022-09-28T09:34:46.000Z</time>
      </trkpt>
      <trkpt lat="49.82097" lon="4.84857">
        <ele>272</ele>
        <time>2022-09-28T09:34:47.000Z</time>
      </trkpt>
      <trkpt lat="49.82093" lon="4.84855">
        <ele>271</ele>
        <time>2022-09-28T09:34:48.000Z</time>
      </trkpt>
      <trkpt lat="49.82089" lon="4.84853">
        <ele>271</ele>
        <time>2022-09-28T09:34:49.000Z</time>
      </trkpt>
      <trkpt lat="49.82085" lon="4.8485">
        <ele>270</ele>
        <time>2022-09-28T09:34:50.000Z</time>
      </trkpt>
      <trkpt lat="49.8208" lon="4.84846">
        <ele>269</ele>
        <time>2022-09-28T09:34:51.000Z</time>
      </trkpt>
      <trkpt lat="49.82075" lon="4.84843">
        <ele>269</ele>
        <time>2022-09-28T09:34:52.000Z</time>
      </trkpt>
      <trkpt lat="49.8207" lon="4.8484">
        <ele>268</ele>
        <time>2022-09-28T09:34:53.000Z</time>
      </trkpt>
      <trkpt lat="49.82065" lon="4.84837">
        <ele>268</ele>
        <time>2022-09-28T09:34:54.000Z</time>
      </trkpt>
      <trkpt lat="49.8206" lon="4.84834">
        <ele>267</ele>
        <time>2022-09-28T09:34:55.000Z</time>
      </trkpt>
      <trkpt lat="49.82055" lon="4.84831">
        <ele>266</ele>
        <time>2022-09-28T09:34:56.000Z</time>
      </trkpt>
      <trkpt lat="49.82049" lon="4.84828">
        <ele>266</ele>
        <time>2022-09-28T09:34:57.000Z</time>
      </trkpt>
      <trkpt lat="49.82043" lon="4.84825">
        <ele>265</ele>
        <time>2022-09-28T09:34:58.000Z</time>
      </trkpt>
      <trkpt lat="49.82038" lon="4.84822">
        <ele>265</ele>
        <time>2022-09-28T09:34:59.000Z</time>
      </trkpt>
      <trkpt lat="49.82032" lon="4.84819">
        <ele>264</ele>
        <time>2022-09-28T09:35:00.000Z</time>
      </trkpt>
      <trkpt lat="49.82026" lon="4.84817">
        <ele>264</ele>
        <time>2022-09-28T09:35:01.000Z</time>
      </trkpt>
      <trkpt lat="49.82021" lon="4.84814">
        <ele>263</ele>
        <time>2022-09-28T09:35:02.000Z</time>
      </trkpt>
      <trkpt lat="49.82015" lon="4.84813">
        <ele>263</ele>
        <time>2022-09-28T09:35:03.000Z</time>
      </trkpt>
      <trkpt lat="49.8201" lon="4.84812">
        <ele>262</ele>
        <time>2022-09-28T09:35:04.000Z</time>
      </trkpt>
      <trkpt lat="49.82003" lon="4.84811">
        <ele>262</ele>
        <time>2022-09-28T09:35:05.000Z</time>
      </trkpt>
      <trkpt lat="49.81997" lon="4.8481">
        <ele>261</ele>
        <time>2022-09-28T09:35:06.000Z</time>
      </trkpt>
      <trkpt lat="49.8199" lon="4.8481">
        <ele>261</ele>
        <time>2022-09-28T09:35:07.000Z</time>
      </trkpt>
      <trkpt lat="49.81984" lon="4.84811">
        <ele>260</ele>
        <time>2022-09-28T09:35:08.000Z</time>
      </trkpt>
      <trkpt lat="49.81978" lon="4.84812">
        <ele>260</ele>
        <time>2022-09-28T09:35:09.000Z</time>
      </trkpt>
      <trkpt lat="49.81971" lon="4.84814">
        <ele>259</ele>
        <time>2022-09-28T09:35:10.000Z</time>
      </trkpt>
      <trkpt lat="49.81965" lon="4.84818">
        <ele>259</ele>
        <time>2022-09-28T09:35:11.000Z</time>
      </trkpt>
      <trkpt lat="49.81959" lon="4.84822">
        <ele>258</ele>
        <time>2022-09-28T09:35:12.000Z</time>
      </trkpt>
      <trkpt lat="49.81953" lon="4.84826">
        <ele>258</ele>
        <time>2022-09-28T09:35:13.000Z</time>
      </trkpt>
      <trkpt lat="49.81947" lon="4.8483">
        <ele>257</ele>
        <time>2022-09-28T09:35:14.000Z</time>
      </trkpt>
      <trkpt lat="49.81943" lon="4.84835">
        <ele>257</ele>
        <time>2022-09-28T09:35:15.000Z</time>
      </trkpt>
      <trkpt lat="49.81938" lon="4.8484">
        <ele>257</ele>
        <time>2022-09-28T09:35:16.000Z</time>
      </trkpt>
      <trkpt lat="49.81934" lon="4.84844">
        <ele>256</ele>
        <time>2022-09-28T09:35:17.000Z</time>
      </trkpt>
      <trkpt lat="49.81928" lon="4.84848">
        <ele>256</ele>
        <time>2022-09-28T09:35:18.000Z</time>
      </trkpt>
      <trkpt lat="49.81922" lon="4.8485">
        <ele>255</ele>
        <time>2022-09-28T09:35:19.000Z</time>
      </trkpt>
      <trkpt lat="49.81917" lon="4.84854">
        <ele>255</ele>
        <time>2022-09-28T09:35:20.000Z</time>
      </trkpt>
      <trkpt lat="49.81911" lon="4.84857">
        <ele>254</ele>
        <time>2022-09-28T09:35:21.000Z</time>
      </trkpt>
      <trkpt lat="49.81905" lon="4.8486">
        <ele>254</ele>
        <time>2022-09-28T09:35:22.000Z</time>
      </trkpt>
      <trkpt lat="49.81899" lon="4.84864">
        <ele>254</ele>
        <time>2022-09-28T09:35:23.000Z</time>
      </trkpt>
      <trkpt lat="49.81892" lon="4.8487">
        <ele>253</ele>
        <time>2022-09-28T09:35:24.000Z</time>
      </trkpt>
      <trkpt lat="49.81886" lon="4.84874">
        <ele>253</ele>
        <time>2022-09-28T09:35:25.000Z</time>
      </trkpt>
      <trkpt lat="49.8188" lon="4.84879">
        <ele>252</ele>
        <time>2022-09-28T09:35:26.000Z</time>
      </trkpt>
      <trkpt lat="49.81874" lon="4.84885">
        <ele>252</ele>
        <time>2022-09-28T09:35:27.000Z</time>
      </trkpt>
      <trkpt lat="49.81868" lon="4.8489">
        <ele>251</ele>
        <time>2022-09-28T09:35:28.000Z</time>
      </trkpt>
      <trkpt lat="49.81861" lon="4.84896">
        <ele>250</ele>
        <time>2022-09-28T09:35:29.000Z</time>
      </trkpt>
      <trkpt lat="49.81854" lon="4.84902">
        <ele>250</ele>
        <time>2022-09-28T09:35:30.000Z</time>
      </trkpt>
      <trkpt lat="49.81848" lon="4.84909">
        <ele>249</ele>
        <time>2022-09-28T09:35:31.000Z</time>
      </trkpt>
      <trkpt lat="49.81841" lon="4.84917">
        <ele>248</ele>
        <time>2022-09-28T09:35:32.000Z</time>
      </trkpt>
      <trkpt lat="49.81835" lon="4.84924">
        <ele>247</ele>
        <time>2022-09-28T09:35:33.000Z</time>
      </trkpt>
      <trkpt lat="49.81829" lon="4.84929">
        <ele>246</ele>
        <time>2022-09-28T09:35:34.000Z</time>
      </trkpt>
      <trkpt lat="49.81823" lon="4.84933">
        <ele>245</ele>
        <time>2022-09-28T09:35:35.000Z</time>
      </trkpt>
      <trkpt lat="49.81816" lon="4.84935">
        <ele>244</ele>
        <time>2022-09-28T09:35:36.000Z</time>
      </trkpt>
      <trkpt lat="49.8181" lon="4.84938">
        <ele>243</ele>
        <time>2022-09-28T09:35:37.000Z</time>
      </trkpt>
      <trkpt lat="49.81804" lon="4.84941">
        <ele>242</ele>
        <time>2022-09-28T09:35:38.000Z</time>
      </trkpt>
      <trkpt lat="49.81797" lon="4.84943">
        <ele>241</ele>
        <time>2022-09-28T09:35:39.000Z</time>
      </trkpt>
      <trkpt lat="49.81789" lon="4.84943">
        <ele>240</ele>
        <time>2022-09-28T09:35:40.000Z</time>
      </trkpt>
      <trkpt lat="49.81782" lon="4.84945">
        <ele>239</ele>
        <time>2022-09-28T09:35:41.000Z</time>
      </trkpt>
      <trkpt lat="49.81774" lon="4.84946">
        <ele>238</ele>
        <time>2022-09-28T09:35:42.000Z</time>
      </trkpt>
      <trkpt lat="49.81766" lon="4.84946">
        <ele>237</ele>
        <time>2022-09-28T09:35:43.000Z</time>
      </trkpt>
      <trkpt lat="49.81759" lon="4.84947">
        <ele>237</ele>
        <time>2022-09-28T09:35:44.000Z</time>
      </trkpt>
      <trkpt lat="49.81751" lon="4.84948">
        <ele>236</ele>
        <time>2022-09-28T09:35:45.000Z</time>
      </trkpt>
      <trkpt lat="49.81743" lon="4.84948">
        <ele>235</ele>
        <time>2022-09-28T09:35:46.000Z</time>
      </trkpt>
      <trkpt lat="49.81735" lon="4.84948">
        <ele>234</ele>
        <time>2022-09-28T09:35:47.000Z</time>
      </trkpt>
      <trkpt lat="49.81726" lon="4.84948">
        <ele>233</ele>
        <time>2022-09-28T09:35:48.000Z</time>
      </trkpt>
      <trkpt lat="49.81718" lon="4.84948">
        <ele>232</ele>
        <time>2022-09-28T09:35:49.000Z</time>
      </trkpt>
      <trkpt lat="49.8171" lon="4.84947">
        <ele>231</ele>
        <time>2022-09-28T09:35:50.000Z</time>
      </trkpt>
      <trkpt lat="49.81702" lon="4.84947">
        <ele>230</ele>
        <time>2022-09-28T09:35:51.000Z</time>
      </trkpt>
      <trkpt lat="49.81694" lon="4.84947">
        <ele>229</ele>
        <time>2022-09-28T09:35:52.000Z</time>
      </trkpt>
      <trkpt lat="49.81687" lon="4.84945">
        <ele>229</ele>
        <time>2022-09-28T09:35:53.000Z</time>
      </trkpt>
      <trkpt lat="49.81679" lon="4.84946">
        <ele>228</ele>
        <time>2022-09-28T09:35:54.000Z</time>
      </trkpt>
      <trkpt lat="49.81672" lon="4.84946">
        <ele>227</ele>
        <time>2022-09-28T09:35:55.000Z</time>
      </trkpt>
      <trkpt lat="49.81666" lon="4.84946">
        <ele>227</ele>
        <time>2022-09-28T09:35:56.000Z</time>
      </trkpt>
      <trkpt lat="49.81659" lon="4.84945">
        <ele>226</ele>
        <time>2022-09-28T09:35:57.000Z</time>
      </trkpt>
      <trkpt lat="49.81653" lon="4.84945">
        <ele>225</ele>
        <time>2022-09-28T09:35:58.000Z</time>
      </trkpt>
      <trkpt lat="49.81647" lon="4.84944">
        <ele>225</ele>
        <time>2022-09-28T09:35:59.000Z</time>
      </trkpt>
      <trkpt lat="49.81641" lon="4.84943">
        <ele>224</ele>
        <time>2022-09-28T09:36:00.000Z</time>
      </trkpt>
      <trkpt lat="49.81635" lon="4.84943">
        <ele>224</ele>
        <time>2022-09-28T09:36:01.000Z</time>
      </trkpt>
      <trkpt lat="49.8163" lon="4.84942">
        <ele>224</ele>
        <time>2022-09-28T09:36:02.000Z</time>
      </trkpt>
      <trkpt lat="49.81625" lon="4.84941">
        <ele>223</ele>
        <time>2022-09-28T09:36:03.000Z</time>
      </trkpt>
      <trkpt lat="49.8162" lon="4.8494">
        <ele>223</ele>
        <time>2022-09-28T09:36:04.000Z</time>
      </trkpt>
      <trkpt lat="49.81616" lon="4.8494">
        <ele>223</ele>
        <time>2022-09-28T09:36:05.000Z</time>
      </trkpt>
      <trkpt lat="49.81611" lon="4.84939">
        <ele>222</ele>
        <time>2022-09-28T09:36:06.000Z</time>
      </trkpt>
      <trkpt lat="49.81608" lon="4.84939">
        <ele>222</ele>
        <time>2022-09-28T09:36:07.000Z</time>
      </trkpt>
      <trkpt lat="49.81604" lon="4.84939">
        <ele>222</ele>
        <time>2022-09-28T09:36:08.000Z</time>
      </trkpt>
      <trkpt lat="49.81601" lon="4.84938">
        <ele>222</ele>
        <time>2022-09-28T09:36:09.000Z</time>
      </trkpt>
      <trkpt lat="49.81598" lon="4.84938">
        <ele>222</ele>
        <time>2022-09-28T09:36:10.000Z</time>
      </trkpt>
      <trkpt lat="49.81595" lon="4.84937">
        <ele>222</ele>
        <time>2022-09-28T09:36:11.000Z</time>
      </trkpt>
      <trkpt lat="49.81592" lon="4.84937">
        <ele>222</ele>
        <time>2022-09-28T09:36:12.000Z</time>
      </trkpt>
      <trkpt lat="49.81589" lon="4.84936">
        <ele>222</ele>
        <time>2022-09-28T09:36:13.000Z</time>
      </trkpt>
      <trkpt lat="49.81586" lon="4.84936">
        <ele>222</ele>
        <time>2022-09-28T09:36:14.000Z</time>
      </trkpt>
      <trkpt lat="49.81583" lon="4.84935">
        <ele>221</ele>
        <time>2022-09-28T09:36:15.000Z</time>
      </trkpt>
      <trkpt lat="49.8158" lon="4.84935">
        <ele>221</ele>
        <time>2022-09-28T09:36:16.000Z</time>
      </trkpt>
      <trkpt lat="49.81577" lon="4.84935">
        <ele>221</ele>
        <time>2022-09-28T09:36:17.000Z</time>
      </trkpt>
      <trkpt lat="49.81575" lon="4.84936">
        <ele>221</ele>
        <time>2022-09-28T09:36:18.000Z</time>
      </trkpt>
      <trkpt lat="49.81572" lon="4.84938">
        <ele>221</ele>
        <time>2022-09-28T09:36:19.000Z</time>
      </trkpt>
      <trkpt lat="49.81569" lon="4.84941">
        <ele>221</ele>
        <time>2022-09-28T09:36:20.000Z</time>
      </trkpt>
      <trkpt lat="49.81567" lon="4.84944">
        <ele>221</ele>
        <time>2022-09-28T09:36:21.000Z</time>
      </trkpt>
      <trkpt lat="49.81565" lon="4.84948">
        <ele>221</ele>
        <time>2022-09-28T09:36:22.000Z</time>
      </trkpt>
      <trkpt lat="49.81563" lon="4.84953">
        <ele>221</ele>
        <time>2022-09-28T09:36:23.000Z</time>
      </trkpt>
      <trkpt lat="49.81561" lon="4.84958">
        <ele>221</ele>
        <time>2022-09-28T09:36:24.000Z</time>
      </trkpt>
      <trkpt lat="49.81559" lon="4.84963">
        <ele>221</ele>
        <time>2022-09-28T09:36:25.000Z</time>
      </trkpt>
      <trkpt lat="49.81557" lon="4.84968">
        <ele>221</ele>
        <time>2022-09-28T09:36:26.000Z</time>
      </trkpt>
      <trkpt lat="49.81554" lon="4.84973">
        <ele>221</ele>
        <time>2022-09-28T09:36:27.000Z</time>
      </trkpt>
      <trkpt lat="49.81552" lon="4.84978">
        <ele>221</ele>
        <time>2022-09-28T09:36:28.000Z</time>
      </trkpt>
      <trkpt lat="49.8155" lon="4.84982">
        <ele>221</ele>
        <time>2022-09-28T09:36:29.000Z</time>
      </trkpt>
      <trkpt lat="49.81547" lon="4.84986">
        <ele>221</ele>
        <time>2022-09-28T09:36:30.000Z</time>
      </trkpt>
      <trkpt lat="49.81545" lon="4.84988">
        <ele>221</ele>
        <time>2022-09-28T09:36:31.000Z</time>
      </trkpt>
      <trkpt lat="49.81542" lon="4.8499">
        <ele>221</ele>
        <time>2022-09-28T09:36:32.000Z</time>
      </trkpt>
      <trkpt lat="49.8154" lon="4.84991">
        <ele>221</ele>
        <time>2022-09-28T09:36:33.000Z</time>
      </trkpt>
      <trkpt lat="49.81537" lon="4.84991">
        <ele>222</ele>
        <time>2022-09-28T09:36:34.000Z</time>
      </trkpt>
      <trkpt lat="49.81535" lon="4.84991">
        <ele>222</ele>
        <time>2022-09-28T09:36:35.000Z</time>
      </trkpt>
      <trkpt lat="49.81532" lon="4.8499">
        <ele>222</ele>
        <time>2022-09-28T09:36:36.000Z</time>
      </trkpt>
      <trkpt lat="49.8153" lon="4.84987">
        <ele>222</ele>
        <time>2022-09-28T09:36:37.000Z</time>
      </trkpt>
      <trkpt lat="49.81528" lon="4.84985">
        <ele>222</ele>
        <time>2022-09-28T09:36:38.000Z</time>
      </trkpt>
      <trkpt lat="49.81527" lon="4.84982">
        <ele>222</ele>
        <time>2022-09-28T09:36:39.000Z</time>
      </trkpt>
      <trkpt lat="49.81526" lon="4.84978">
        <ele>222</ele>
        <time>2022-09-28T09:36:40.000Z</time>
      </trkpt>
      <trkpt lat="49.81527" lon="4.84974">
        <ele>222</ele>
        <time>2022-09-28T09:36:41.000Z</time>
      </trkpt>
      <trkpt lat="49.81528" lon="4.8497">
        <ele>222</ele>
        <time>2022-09-28T09:36:42.000Z</time>
      </trkpt>
      <trkpt lat="49.81529" lon="4.84965">
        <ele>222</ele>
        <time>2022-09-28T09:36:43.000Z</time>
      </trkpt>
      <trkpt lat="49.81531" lon="4.8496">
        <ele>222</ele>
        <time>2022-09-28T09:36:44.000Z</time>
      </trkpt>
      <trkpt lat="49.81532" lon="4.84955">
        <ele>222</ele>
        <time>2022-09-28T09:36:45.000Z</time>
      </trkpt>
      <trkpt lat="49.81534" lon="4.84949">
        <ele>222</ele>
        <time>2022-09-28T09:36:46.000Z</time>
      </trkpt>
      <trkpt lat="49.81535" lon="4.84944">
        <ele>222</ele>
        <time>2022-09-28T09:36:47.000Z</time>
      </trkpt>
      <trkpt lat="49.81537" lon="4.84938">
        <ele>222</ele>
        <time>2022-09-28T09:36:48.000Z</time>
      </trkpt>
      <trkpt lat="49.81538" lon="4.84931">
        <ele>222</ele>
        <time>2022-09-28T09:36:49.000Z</time>
      </trkpt>
      <trkpt lat="49.81539" lon="4.84925">
        <ele>222</ele>
        <time>2022-09-28T09:36:50.000Z</time>
      </trkpt>
      <trkpt lat="49.8154" lon="4.84919">
        <ele>222</ele>
        <time>2022-09-28T09:36:51.000Z</time>
      </trkpt>
      <trkpt lat="49.81541" lon="4.84913">
        <ele>222</ele>
        <time>2022-09-28T09:36:52.000Z</time>
      </trkpt>
      <trkpt lat="49.81542" lon="4.84907">
        <ele>222</ele>
        <time>2022-09-28T09:36:53.000Z</time>
      </trkpt>
      <trkpt lat="49.81541" lon="4.84901">
        <ele>222</ele>
        <time>2022-09-28T09:36:54.000Z</time>
      </trkpt>
      <trkpt lat="49.81541" lon="4.84895">
        <ele>223</ele>
        <time>2022-09-28T09:36:55.000Z</time>
      </trkpt>
      <trkpt lat="49.81541" lon="4.84889">
        <ele>223</ele>
        <time>2022-09-28T09:36:56.000Z</time>
      </trkpt>
      <trkpt lat="49.8154" lon="4.84883">
        <ele>223</ele>
        <time>2022-09-28T09:36:57.000Z</time>
      </trkpt>
      <trkpt lat="49.81539" lon="4.84878">
        <ele>223</ele>
        <time>2022-09-28T09:36:58.000Z</time>
      </trkpt>
      <trkpt lat="49.81538" lon="4.84873">
        <ele>223</ele>
        <time>2022-09-28T09:36:59.000Z</time>
      </trkpt>
      <trkpt lat="49.81536" lon="4.84867">
        <ele>223</ele>
        <time>2022-09-28T09:37:00.000Z</time>
      </trkpt>
      <trkpt lat="49.81535" lon="4.84862">
        <ele>223</ele>
        <time>2022-09-28T09:37:01.000Z</time>
      </trkpt>
      <trkpt lat="49.81533" lon="4.84855">
        <ele>223</ele>
        <time>2022-09-28T09:37:02.000Z</time>
      </trkpt>
      <trkpt lat="49.81532" lon="4.84849">
        <ele>223</ele>
        <time>2022-09-28T09:37:03.000Z</time>
      </trkpt>
      <trkpt lat="49.81531" lon="4.84843">
        <ele>223</ele>
        <time>2022-09-28T09:37:04.000Z</time>
      </trkpt>
      <trkpt lat="49.8153" lon="4.84837">
        <ele>223</ele>
        <time>2022-09-28T09:37:05.000Z</time>
      </trkpt>
      <trkpt lat="49.81529" lon="4.8483">
        <ele>223</ele>
        <time>2022-09-28T09:37:06.000Z</time>
      </trkpt>
      <trkpt lat="49.81528" lon="4.84823">
        <ele>223</ele>
        <time>2022-09-28T09:37:07.000Z</time>
      </trkpt>
      <trkpt lat="49.81526" lon="4.84816">
        <ele>223</ele>
        <time>2022-09-28T09:37:08.000Z</time>
      </trkpt>
      <trkpt lat="49.81525" lon="4.8481">
        <ele>223</ele>
        <time>2022-09-28T09:37:09.000Z</time>
      </trkpt>
      <trkpt lat="49.81523" lon="4.84803">
        <ele>223</ele>
        <time>2022-09-28T09:37:10.000Z</time>
      </trkpt>
      <trkpt lat="49.81522" lon="4.84797">
        <ele>223</ele>
        <time>2022-09-28T09:37:11.000Z</time>
      </trkpt>
      <trkpt lat="49.81521" lon="4.8479">
        <ele>223</ele>
        <time>2022-09-28T09:37:12.000Z</time>
      </trkpt>
      <trkpt lat="49.81519" lon="4.84783">
        <ele>223</ele>
        <time>2022-09-28T09:37:13.000Z</time>
      </trkpt>
      <trkpt lat="49.81517" lon="4.84775">
        <ele>223</ele>
        <time>2022-09-28T09:37:14.000Z</time>
      </trkpt>
      <trkpt lat="49.81515" lon="4.84766">
        <ele>223</ele>
        <time>2022-09-28T09:37:15.000Z</time>
      </trkpt>
      <trkpt lat="49.81513" lon="4.84759">
        <ele>223</ele>
        <time>2022-09-28T09:37:16.000Z</time>
      </trkpt>
      <trkpt lat="49.81511" lon="4.8475">
        <ele>222</ele>
        <time>2022-09-28T09:37:17.000Z</time>
      </trkpt>
      <trkpt lat="49.81509" lon="4.84742">
        <ele>222</ele>
        <time>2022-09-28T09:37:18.000Z</time>
      </trkpt>
      <trkpt lat="49.81507" lon="4.84733">
        <ele>222</ele>
        <time>2022-09-28T09:37:19.000Z</time>
      </trkpt>
      <trkpt lat="49.81505" lon="4.84725">
        <ele>222</ele>
        <time>2022-09-28T09:37:20.000Z</time>
      </trkpt>
      <trkpt lat="49.81503" lon="4.84717">
        <ele>222</ele>
        <time>2022-09-28T09:37:21.000Z</time>
      </trkpt>
      <trkpt lat="49.81501" lon="4.84709">
        <ele>222</ele>
        <time>2022-09-28T09:37:22.000Z</time>
      </trkpt>
      <trkpt lat="49.81498" lon="4.84696">
        <ele>222</ele>
        <time>2022-09-28T09:37:23.000Z</time>
      </trkpt>
      <trkpt lat="49.81498" lon="4.84696">
        <ele>222</ele>
        <time>2022-09-28T09:37:24.000Z</time>
      </trkpt>
      <trkpt lat="49.81497" lon="4.8469">
        <ele>222</ele>
        <time>2022-09-28T09:37:25.000Z</time>
      </trkpt>
      <trkpt lat="49.81496" lon="4.84684">
        <ele>223</ele>
        <time>2022-09-28T09:37:26.000Z</time>
      </trkpt>
      <trkpt lat="49.81494" lon="4.84678">
        <ele>223</ele>
        <time>2022-09-28T09:37:27.000Z</time>
      </trkpt>
      <trkpt lat="49.81492" lon="4.84671">
        <ele>223</ele>
        <time>2022-09-28T09:37:28.000Z</time>
      </trkpt>
      <trkpt lat="49.8149" lon="4.84666">
        <ele>223</ele>
        <time>2022-09-28T09:37:29.000Z</time>
      </trkpt>
      <trkpt lat="49.81487" lon="4.84661">
        <ele>223</ele>
        <time>2022-09-28T09:37:30.000Z</time>
      </trkpt>
      <trkpt lat="49.81485" lon="4.84656">
        <ele>223</ele>
        <time>2022-09-28T09:37:31.000Z</time>
      </trkpt>
      <trkpt lat="49.81482" lon="4.84651">
        <ele>223</ele>
        <time>2022-09-28T09:37:32.000Z</time>
      </trkpt>
      <trkpt lat="49.81479" lon="4.84647">
        <ele>223</ele>
        <time>2022-09-28T09:37:33.000Z</time>
      </trkpt>
      <trkpt lat="49.81476" lon="4.84644">
        <ele>223</ele>
        <time>2022-09-28T09:37:34.000Z</time>
      </trkpt>
      <trkpt lat="49.81472" lon="4.84641">
        <ele>223</ele>
        <time>2022-09-28T09:37:35.000Z</time>
      </trkpt>
      <trkpt lat="49.81469" lon="4.84639">
        <ele>223</ele>
        <time>2022-09-28T09:37:36.000Z</time>
      </trkpt>
      <trkpt lat="49.81465" lon="4.84636">
        <ele>222</ele>
        <time>2022-09-28T09:37:37.000Z</time>
      </trkpt>
      <trkpt lat="49.81462" lon="4.84632">
        <ele>222</ele>
        <time>2022-09-28T09:37:38.000Z</time>
      </trkpt>
      <trkpt lat="49.8146" lon="4.84627">
        <ele>222</ele>
        <time>2022-09-28T09:37:39.000Z</time>
      </trkpt>
      <trkpt lat="49.81459" lon="4.8462">
        <ele>222</ele>
        <time>2022-09-28T09:37:40.000Z</time>
      </trkpt>
      <trkpt lat="49.81459" lon="4.84614">
        <ele>222</ele>
        <time>2022-09-28T09:37:41.000Z</time>
      </trkpt>
      <trkpt lat="49.81458" lon="4.84606">
        <ele>222</ele>
        <time>2022-09-28T09:37:42.000Z</time>
      </trkpt>
      <trkpt lat="49.81459" lon="4.84598">
        <ele>222</ele>
        <time>2022-09-28T09:37:43.000Z</time>
      </trkpt>
      <trkpt lat="49.81459" lon="4.84588">
        <ele>222</ele>
        <time>2022-09-28T09:37:44.000Z</time>
      </trkpt>
      <trkpt lat="49.81459" lon="4.84578">
        <ele>222</ele>
        <time>2022-09-28T09:37:45.000Z</time>
      </trkpt>
      <trkpt lat="49.81459" lon="4.84569">
        <ele>222</ele>
        <time>2022-09-28T09:37:46.000Z</time>
      </trkpt>
      <trkpt lat="49.81458" lon="4.84559">
        <ele>222</ele>
        <time>2022-09-28T09:37:47.000Z</time>
      </trkpt>
      <trkpt lat="49.81458" lon="4.84549">
        <ele>221</ele>
        <time>2022-09-28T09:37:48.000Z</time>
      </trkpt>
      <trkpt lat="49.81458" lon="4.84538">
        <ele>221</ele>
        <time>2022-09-28T09:37:49.000Z</time>
      </trkpt>
      <trkpt lat="49.81458" lon="4.84527">
        <ele>221</ele>
        <time>2022-09-28T09:37:50.000Z</time>
      </trkpt>
      <trkpt lat="49.81458" lon="4.84517">
        <ele>221</ele>
        <time>2022-09-28T09:37:51.000Z</time>
      </trkpt>
      <trkpt lat="49.81457" lon="4.84506">
        <ele>221</ele>
        <time>2022-09-28T09:37:52.000Z</time>
      </trkpt>
      <trkpt lat="49.81457" lon="4.84496">
        <ele>220</ele>
        <time>2022-09-28T09:37:53.000Z</time>
      </trkpt>
      <trkpt lat="49.81457" lon="4.84486">
        <ele>220</ele>
        <time>2022-09-28T09:37:54.000Z</time>
      </trkpt>
      <trkpt lat="49.81457" lon="4.84476">
        <ele>220</ele>
        <time>2022-09-28T09:37:55.000Z</time>
      </trkpt>
      <trkpt lat="49.81457" lon="4.84466">
        <ele>220</ele>
        <time>2022-09-28T09:37:56.000Z</time>
      </trkpt>
      <trkpt lat="49.81457" lon="4.84456">
        <ele>219</ele>
        <time>2022-09-28T09:37:57.000Z</time>
      </trkpt>
      <trkpt lat="49.81457" lon="4.84447">
        <ele>219</ele>
        <time>2022-09-28T09:37:58.000Z</time>
      </trkpt>
      <trkpt lat="49.81457" lon="4.84438">
        <ele>219</ele>
        <time>2022-09-28T09:37:59.000Z</time>
      </trkpt>
      <trkpt lat="49.81456" lon="4.84431">
        <ele>218</ele>
        <time>2022-09-28T09:38:00.000Z</time>
      </trkpt>
      <trkpt lat="49.81458" lon="4.84425">
        <ele>218</ele>
        <time>2022-09-28T09:38:01.000Z</time>
      </trkpt>
      <trkpt lat="49.81461" lon="4.84421">
        <ele>218</ele>
        <time>2022-09-28T09:38:02.000Z</time>
      </trkpt>
      <trkpt lat="49.81464" lon="4.84417">
        <ele>217</ele>
        <time>2022-09-28T09:38:03.000Z</time>
      </trkpt>
      <trkpt lat="49.81467" lon="4.84412">
        <ele>217</ele>
        <time>2022-09-28T09:38:04.000Z</time>
      </trkpt>
      <trkpt lat="49.81468" lon="4.84406">
        <ele>217</ele>
        <time>2022-09-28T09:38:05.000Z</time>
      </trkpt>
      <trkpt lat="49.81469" lon="4.844">
        <ele>217</ele>
        <time>2022-09-28T09:38:06.000Z</time>
      </trkpt>
      <trkpt lat="49.81469" lon="4.84393">
        <ele>217</ele>
        <time>2022-09-28T09:38:07.000Z</time>
      </trkpt>
      <trkpt lat="49.81469" lon="4.84386">
        <ele>217</ele>
        <time>2022-09-28T09:38:08.000Z</time>
      </trkpt>
      <trkpt lat="49.81469" lon="4.84379">
        <ele>216</ele>
        <time>2022-09-28T09:38:09.000Z</time>
      </trkpt>
      <trkpt lat="49.81469" lon="4.84372">
        <ele>216</ele>
        <time>2022-09-28T09:38:10.000Z</time>
      </trkpt>
      <trkpt lat="49.8147" lon="4.84365">
        <ele>216</ele>
        <time>2022-09-28T09:38:11.000Z</time>
      </trkpt>
      <trkpt lat="49.81471" lon="4.84357">
        <ele>216</ele>
        <time>2022-09-28T09:38:12.000Z</time>
      </trkpt>
      <trkpt lat="49.81473" lon="4.8435">
        <ele>216</ele>
        <time>2022-09-28T09:38:13.000Z</time>
      </trkpt>
      <trkpt lat="49.81475" lon="4.84343">
        <ele>216</ele>
        <time>2022-09-28T09:38:14.000Z</time>
      </trkpt>
      <trkpt lat="49.81477" lon="4.84336">
        <ele>216</ele>
        <time>2022-09-28T09:38:15.000Z</time>
      </trkpt>
      <trkpt lat="49.81479" lon="4.84329">
        <ele>216</ele>
        <time>2022-09-28T09:38:16.000Z</time>
      </trkpt>
      <trkpt lat="49.81481" lon="4.84321">
        <ele>216</ele>
        <time>2022-09-28T09:38:17.000Z</time>
      </trkpt>
      <trkpt lat="49.81483" lon="4.84314">
        <ele>216</ele>
        <time>2022-09-28T09:38:18.000Z</time>
      </trkpt>
      <trkpt lat="49.81485" lon="4.84306">
        <ele>217</ele>
        <time>2022-09-28T09:38:19.000Z</time>
      </trkpt>
      <trkpt lat="49.81486" lon="4.84299">
        <ele>217</ele>
        <time>2022-09-28T09:38:20.000Z</time>
      </trkpt>
      <trkpt lat="49.81488" lon="4.84291">
        <ele>217</ele>
        <time>2022-09-28T09:38:21.000Z</time>
      </trkpt>
      <trkpt lat="49.8149" lon="4.84284">
        <ele>217</ele>
        <time>2022-09-28T09:38:22.000Z</time>
      </trkpt>
      <trkpt lat="49.81492" lon="4.84277">
        <ele>216</ele>
        <time>2022-09-28T09:38:23.000Z</time>
      </trkpt>
      <trkpt lat="49.81493" lon="4.84271">
        <ele>216</ele>
        <time>2022-09-28T09:38:24.000Z</time>
      </trkpt>
      <trkpt lat="49.81494" lon="4.84263">
        <ele>216</ele>
        <time>2022-09-28T09:38:25.000Z</time>
      </trkpt>
      <trkpt lat="49.81494" lon="4.84257">
        <ele>216</ele>
        <time>2022-09-28T09:38:26.000Z</time>
      </trkpt>
      <trkpt lat="49.81495" lon="4.84251">
        <ele>216</ele>
        <time>2022-09-28T09:38:27.000Z</time>
      </trkpt>
      <trkpt lat="49.81495" lon="4.84245">
        <ele>216</ele>
        <time>2022-09-28T09:38:28.000Z</time>
      </trkpt>
      <trkpt lat="49.81494" lon="4.8424">
        <ele>216</ele>
        <time>2022-09-28T09:38:29.000Z</time>
      </trkpt>
      <trkpt lat="49.81493" lon="4.84235">
        <ele>216</ele>
        <time>2022-09-28T09:38:30.000Z</time>
      </trkpt>
      <trkpt lat="49.81492" lon="4.8423">
        <ele>216</ele>
        <time>2022-09-28T09:38:31.000Z</time>
      </trkpt>
      <trkpt lat="49.8149" lon="4.84226">
        <ele>216</ele>
        <time>2022-09-28T09:38:32.000Z</time>
      </trkpt>
      <trkpt lat="49.81489" lon="4.84222">
        <ele>216</ele>
        <time>2022-09-28T09:38:33.000Z</time>
      </trkpt>
      <trkpt lat="49.81489" lon="4.84217">
        <ele>216</ele>
        <time>2022-09-28T09:38:34.000Z</time>
      </trkpt>
      <trkpt lat="49.81489" lon="4.84211">
        <ele>216</ele>
        <time>2022-09-28T09:38:35.000Z</time>
      </trkpt>
      <trkpt lat="49.8149" lon="4.84205">
        <ele>216</ele>
        <time>2022-09-28T09:38:36.000Z</time>
      </trkpt>
      <trkpt lat="49.81491" lon="4.842">
        <ele>216</ele>
        <time>2022-09-28T09:38:37.000Z</time>
      </trkpt>
      <trkpt lat="49.81492" lon="4.84193">
        <ele>216</ele>
        <time>2022-09-28T09:38:38.000Z</time>
      </trkpt>
      <trkpt lat="49.81494" lon="4.84187">
        <ele>216</ele>
        <time>2022-09-28T09:38:39.000Z</time>
      </trkpt>
      <trkpt lat="49.81495" lon="4.8418">
        <ele>216</ele>
        <time>2022-09-28T09:38:40.000Z</time>
      </trkpt>
      <trkpt lat="49.81496" lon="4.84173">
        <ele>216</ele>
        <time>2022-09-28T09:38:41.000Z</time>
      </trkpt>
      <trkpt lat="49.81498" lon="4.84166">
        <ele>216</ele>
        <time>2022-09-28T09:38:42.000Z</time>
      </trkpt>
      <trkpt lat="49.81498" lon="4.84159">
        <ele>216</ele>
        <time>2022-09-28T09:38:43.000Z</time>
      </trkpt>
      <trkpt lat="49.81499" lon="4.84152">
        <ele>216</ele>
        <time>2022-09-28T09:38:44.000Z</time>
      </trkpt>
      <trkpt lat="49.815" lon="4.84144">
        <ele>216</ele>
        <time>2022-09-28T09:38:45.000Z</time>
      </trkpt>
      <trkpt lat="49.81501" lon="4.84137">
        <ele>216</ele>
        <time>2022-09-28T09:38:46.000Z</time>
      </trkpt>
      <trkpt lat="49.81501" lon="4.84129">
        <ele>216</ele>
        <time>2022-09-28T09:38:47.000Z</time>
      </trkpt>
      <trkpt lat="49.81502" lon="4.84121">
        <ele>216</ele>
        <time>2022-09-28T09:38:48.000Z</time>
      </trkpt>
      <trkpt lat="49.81502" lon="4.84113">
        <ele>216</ele>
        <time>2022-09-28T09:38:49.000Z</time>
      </trkpt>
      <trkpt lat="49.81502" lon="4.84105">
        <ele>216</ele>
        <time>2022-09-28T09:38:50.000Z</time>
      </trkpt>
      <trkpt lat="49.81501" lon="4.84097">
        <ele>216</ele>
        <time>2022-09-28T09:38:51.000Z</time>
      </trkpt>
      <trkpt lat="49.81501" lon="4.84089">
        <ele>216</ele>
        <time>2022-09-28T09:38:52.000Z</time>
      </trkpt>
      <trkpt lat="49.815" lon="4.8408">
        <ele>215</ele>
        <time>2022-09-28T09:38:53.000Z</time>
      </trkpt>
      <trkpt lat="49.815" lon="4.84072">
        <ele>215</ele>
        <time>2022-09-28T09:38:54.000Z</time>
      </trkpt>
      <trkpt lat="49.81499" lon="4.84065">
        <ele>215</ele>
        <time>2022-09-28T09:38:55.000Z</time>
      </trkpt>
      <trkpt lat="49.81498" lon="4.84057">
        <ele>215</ele>
        <time>2022-09-28T09:38:56.000Z</time>
      </trkpt>
      <trkpt lat="49.81497" lon="4.8405">
        <ele>215</ele>
        <time>2022-09-28T09:38:57.000Z</time>
      </trkpt>
      <trkpt lat="49.81497" lon="4.84042">
        <ele>215</ele>
        <time>2022-09-28T09:38:58.000Z</time>
      </trkpt>
      <trkpt lat="49.81496" lon="4.84034">
        <ele>215</ele>
        <time>2022-09-28T09:38:59.000Z</time>
      </trkpt>
      <trkpt lat="49.81495" lon="4.84026">
        <ele>215</ele>
        <time>2022-09-28T09:39:00.000Z</time>
      </trkpt>
      <trkpt lat="49.81494" lon="4.84018">
        <ele>215</ele>
        <time>2022-09-28T09:39:01.000Z</time>
      </trkpt>
      <trkpt lat="49.81494" lon="4.8401">
        <ele>215</ele>
        <time>2022-09-28T09:39:02.000Z</time>
      </trkpt>
      <trkpt lat="49.81493" lon="4.84001">
        <ele>214</ele>
        <time>2022-09-28T09:39:03.000Z</time>
      </trkpt>
      <trkpt lat="49.81491" lon="4.83992">
        <ele>214</ele>
        <time>2022-09-28T09:39:04.000Z</time>
      </trkpt>
      <trkpt lat="49.8149" lon="4.83983">
        <ele>214</ele>
        <time>2022-09-28T09:39:05.000Z</time>
      </trkpt>
      <trkpt lat="49.81488" lon="4.83974">
        <ele>214</ele>
        <time>2022-09-28T09:39:06.000Z</time>
      </trkpt>
      <trkpt lat="49.81487" lon="4.83965">
        <ele>214</ele>
        <time>2022-09-28T09:39:07.000Z</time>
      </trkpt>
      <trkpt lat="49.81485" lon="4.83956">
        <ele>214</ele>
        <time>2022-09-28T09:39:08.000Z</time>
      </trkpt>
      <trkpt lat="49.81484" lon="4.83948">
        <ele>214</ele>
        <time>2022-09-28T09:39:09.000Z</time>
      </trkpt>
      <trkpt lat="49.81482" lon="4.83939">
        <ele>214</ele>
        <time>2022-09-28T09:39:10.000Z</time>
      </trkpt>
      <trkpt lat="49.8148" lon="4.83932">
        <ele>214</ele>
        <time>2022-09-28T09:39:11.000Z</time>
      </trkpt>
      <trkpt lat="49.81479" lon="4.83925">
        <ele>213</ele>
        <time>2022-09-28T09:39:12.000Z</time>
      </trkpt>
      <trkpt lat="49.81478" lon="4.83917">
        <ele>213</ele>
        <time>2022-09-28T09:39:13.000Z</time>
      </trkpt>
      <trkpt lat="49.81476" lon="4.83909">
        <ele>213</ele>
        <time>2022-09-28T09:39:14.000Z</time>
      </trkpt>
      <trkpt lat="49.81475" lon="4.83901">
        <ele>213</ele>
        <time>2022-09-28T09:39:15.000Z</time>
      </trkpt>
      <trkpt lat="49.81474" lon="4.83894">
        <ele>213</ele>
        <time>2022-09-28T09:39:16.000Z</time>
      </trkpt>
      <trkpt lat="49.81473" lon="4.83886">
        <ele>213</ele>
        <time>2022-09-28T09:39:17.000Z</time>
      </trkpt>
      <trkpt lat="49.81471" lon="4.83879">
        <ele>213</ele>
        <time>2022-09-28T09:39:18.000Z</time>
      </trkpt>
      <trkpt lat="49.8147" lon="4.83872">
        <ele>212</ele>
        <time>2022-09-28T09:39:19.000Z</time>
      </trkpt>
      <trkpt lat="49.81469" lon="4.83866">
        <ele>212</ele>
        <time>2022-09-28T09:39:20.000Z</time>
      </trkpt>
      <trkpt lat="49.81467" lon="4.83861">
        <ele>212</ele>
        <time>2022-09-28T09:39:21.000Z</time>
      </trkpt>
      <trkpt lat="49.81465" lon="4.83858">
        <ele>212</ele>
        <time>2022-09-28T09:39:22.000Z</time>
      </trkpt>
      <trkpt lat="49.81462" lon="4.83856">
        <ele>212</ele>
        <time>2022-09-28T09:39:23.000Z</time>
      </trkpt>
      <trkpt lat="49.8146" lon="4.83854">
        <ele>212</ele>
        <time>2022-09-28T09:39:24.000Z</time>
      </trkpt>
      <trkpt lat="49.81458" lon="4.83853">
        <ele>212</ele>
        <time>2022-09-28T09:39:25.000Z</time>
      </trkpt>
      <trkpt lat="49.81457" lon="4.83852">
        <ele>212</ele>
        <time>2022-09-28T09:39:26.000Z</time>
      </trkpt>
      <trkpt lat="49.81455" lon="4.83852">
        <ele>212</ele>
        <time>2022-09-28T09:39:27.000Z</time>
      </trkpt>
      <trkpt lat="49.81453" lon="4.83853">
        <ele>212</ele>
        <time>2022-09-28T09:39:28.000Z</time>
      </trkpt>
      <trkpt lat="49.81452" lon="4.83854">
        <ele>212</ele>
        <time>2022-09-28T09:39:29.000Z</time>
      </trkpt>
      <trkpt lat="49.8145" lon="4.83854">
        <ele>212</ele>
        <time>2022-09-28T09:39:30.000Z</time>
      </trkpt>
      <trkpt lat="49.81449" lon="4.83854">
        <ele>212</ele>
        <time>2022-09-28T09:39:31.000Z</time>
      </trkpt>
      <trkpt lat="49.81447" lon="4.83855">
        <ele>212</ele>
        <time>2022-09-28T09:39:32.000Z</time>
      </trkpt>
      <trkpt lat="49.81446" lon="4.83856">
        <ele>212</ele>
        <time>2022-09-28T09:39:33.000Z</time>
      </trkpt>
      <trkpt lat="49.81444" lon="4.83856">
        <ele>212</ele>
        <time>2022-09-28T09:39:34.000Z</time>
      </trkpt>
      <trkpt lat="49.81441" lon="4.83856">
        <ele>213</ele>
        <time>2022-09-28T09:39:35.000Z</time>
      </trkpt>
      <trkpt lat="49.81441" lon="4.83856">
        <ele>213</ele>
        <time>2022-09-28T09:39:36.000Z</time>
      </trkpt>
      <trkpt lat="49.81439" lon="4.83856">
        <ele>213</ele>
        <time>2022-09-28T09:39:37.000Z</time>
      </trkpt>
      <trkpt lat="49.81437" lon="4.83857">
        <ele>213</ele>
        <time>2022-09-28T09:39:38.000Z</time>
      </trkpt>
      <trkpt lat="49.81435" lon="4.83857">
        <ele>213</ele>
        <time>2022-09-28T09:39:39.000Z</time>
      </trkpt>
      <trkpt lat="49.81432" lon="4.83857">
        <ele>214</ele>
        <time>2022-09-28T09:39:40.000Z</time>
      </trkpt>
      <trkpt lat="49.81432" lon="4.83857">
        <ele>214</ele>
        <time>2022-09-28T09:39:41.000Z</time>
      </trkpt>
      <trkpt lat="49.81431" lon="4.83855">
        <ele>214</ele>
        <time>2022-09-28T09:39:42.000Z</time>
      </trkpt>
      <trkpt lat="49.81429" lon="4.83853">
        <ele>214</ele>
        <time>2022-09-28T09:39:43.000Z</time>
      </trkpt>
      <trkpt lat="49.81427" lon="4.83851">
        <ele>215</ele>
        <time>2022-09-28T09:39:44.000Z</time>
      </trkpt>
      <trkpt lat="49.81425" lon="4.83849">
        <ele>215</ele>
        <time>2022-09-28T09:39:45.000Z</time>
      </trkpt>
      <trkpt lat="49.81423" lon="4.83848">
        <ele>215</ele>
        <time>2022-09-28T09:39:46.000Z</time>
      </trkpt>
      <trkpt lat="49.81421" lon="4.83846">
        <ele>215</ele>
        <time>2022-09-28T09:39:47.000Z</time>
      </trkpt>
      <trkpt lat="49.81418" lon="4.83845">
        <ele>215</ele>
        <time>2022-09-28T09:39:48.000Z</time>
      </trkpt>
      <trkpt lat="49.81415" lon="4.83846">
        <ele>215</ele>
        <time>2022-09-28T09:39:49.000Z</time>
      </trkpt>
      <trkpt lat="49.81412" lon="4.83846">
        <ele>216</ele>
        <time>2022-09-28T09:39:50.000Z</time>
      </trkpt>
      <trkpt lat="49.81409" lon="4.83846">
        <ele>216</ele>
        <time>2022-09-28T09:39:51.000Z</time>
      </trkpt>
      <trkpt lat="49.81406" lon="4.83847">
        <ele>216</ele>
        <time>2022-09-28T09:39:52.000Z</time>
      </trkpt>
      <trkpt lat="49.81402" lon="4.83847">
        <ele>216</ele>
        <time>2022-09-28T09:39:53.000Z</time>
      </trkpt>
      <trkpt lat="49.81399" lon="4.83848">
        <ele>217</ele>
        <time>2022-09-28T09:39:54.000Z</time>
      </trkpt>
      <trkpt lat="49.81396" lon="4.83849">
        <ele>217</ele>
        <time>2022-09-28T09:39:55.000Z</time>
      </trkpt>
      <trkpt lat="49.81394" lon="4.83849">
        <ele>217</ele>
        <time>2022-09-28T09:39:56.000Z</time>
      </trkpt>
      <trkpt lat="49.81392" lon="4.8385">
        <ele>217</ele>
        <time>2022-09-28T09:39:57.000Z</time>
      </trkpt>
      <trkpt lat="49.8139" lon="4.83851">
        <ele>218</ele>
        <time>2022-09-28T09:39:58.000Z</time>
      </trkpt>
      <trkpt lat="49.81388" lon="4.83852">
        <ele>218</ele>
        <time>2022-09-28T09:39:59.000Z</time>
      </trkpt>
      <trkpt lat="49.81386" lon="4.83852">
        <ele>218</ele>
        <time>2022-09-28T09:40:00.000Z</time>
      </trkpt>
      <trkpt lat="49.81384" lon="4.83853">
        <ele>219</ele>
        <time>2022-09-28T09:40:01.000Z</time>
      </trkpt>
      <trkpt lat="49.81382" lon="4.83853">
        <ele>219</ele>
        <time>2022-09-28T09:40:02.000Z</time>
      </trkpt>
      <trkpt lat="49.8138" lon="4.83853">
        <ele>219</ele>
        <time>2022-09-28T09:40:03.000Z</time>
      </trkpt>
      <trkpt lat="49.81378" lon="4.83853">
        <ele>220</ele>
        <time>2022-09-28T09:40:04.000Z</time>
      </trkpt>
      <trkpt lat="49.81376" lon="4.83852">
        <ele>220</ele>
        <time>2022-09-28T09:40:05.000Z</time>
      </trkpt>
      <trkpt lat="49.81373" lon="4.83852">
        <ele>220</ele>
        <time>2022-09-28T09:40:06.000Z</time>
      </trkpt>
      <trkpt lat="49.81371" lon="4.83852">
        <ele>221</ele>
        <time>2022-09-28T09:40:07.000Z</time>
      </trkpt>
      <trkpt lat="49.81368" lon="4.83851">
        <ele>221</ele>
        <time>2022-09-28T09:40:08.000Z</time>
      </trkpt>
      <trkpt lat="49.81366" lon="4.8385">
        <ele>221</ele>
        <time>2022-09-28T09:40:09.000Z</time>
      </trkpt>
      <trkpt lat="49.81363" lon="4.8385">
        <ele>222</ele>
        <time>2022-09-28T09:40:10.000Z</time>
      </trkpt>
      <trkpt lat="49.81361" lon="4.8385">
        <ele>222</ele>
        <time>2022-09-28T09:40:11.000Z</time>
      </trkpt>
      <trkpt lat="49.81358" lon="4.83849">
        <ele>222</ele>
        <time>2022-09-28T09:40:12.000Z</time>
      </trkpt>
      <trkpt lat="49.81357" lon="4.83849">
        <ele>222</ele>
        <time>2022-09-28T09:40:13.000Z</time>
      </trkpt>
      <trkpt lat="49.81356" lon="4.83849">
        <ele>223</ele>
        <time>2022-09-28T09:40:14.000Z</time>
      </trkpt>
      <trkpt lat="49.81356" lon="4.83848">
        <ele>223</ele>
        <time>2022-09-28T09:40:15.000Z</time>
      </trkpt>
      <trkpt lat="49.81356" lon="4.83848">
        <ele>223</ele>
        <time>2022-09-28T09:40:16.000Z</time>
      </trkpt>
      <trkpt lat="49.81355" lon="4.83847">
        <ele>224</ele>
        <time>2022-09-28T09:40:17.000Z</time>
      </trkpt>
      <trkpt lat="49.81355" lon="4.83847">
        <ele>224</ele>
        <time>2022-09-28T09:40:18.000Z</time>
      </trkpt>
      <trkpt lat="49.81354" lon="4.83846">
        <ele>224</ele>
        <time>2022-09-28T09:40:19.000Z</time>
      </trkpt>
      <trkpt lat="49.81353" lon="4.83846">
        <ele>225</ele>
        <time>2022-09-28T09:40:20.000Z</time>
      </trkpt>
      <trkpt lat="49.81353" lon="4.83846">
        <ele>225</ele>
        <time>2022-09-28T09:40:21.000Z</time>
      </trkpt>
      <trkpt lat="49.81353" lon="4.83846">
        <ele>225</ele>
        <time>2022-09-28T09:40:22.000Z</time>
      </trkpt>
      <trkpt lat="49.81353" lon="4.83846">
        <ele>226</ele>
        <time>2022-09-28T09:40:23.000Z</time>
      </trkpt>
      <trkpt lat="49.81353" lon="4.83846">
        <ele>226</ele>
        <time>2022-09-28T09:40:24.000Z</time>
      </trkpt>
      <trkpt lat="49.81353" lon="4.83846">
        <ele>227</ele>
        <time>2022-09-28T09:40:25.000Z</time>
      </trkpt>
      <trkpt lat="49.81353" lon="4.83846">
        <ele>227</ele>
        <time>2022-09-28T09:40:26.000Z</time>
      </trkpt>
      <trkpt lat="49.81353" lon="4.83845">
        <ele>227</ele>
        <time>2022-09-28T09:40:27.000Z</time>
      </trkpt>
      <trkpt lat="49.81354" lon="4.83845">
        <ele>227</ele>
        <time>2022-09-28T09:40:28.000Z</time>
      </trkpt>
      <trkpt lat="49.81354" lon="4.83845">
        <ele>228</ele>
        <time>2022-09-28T09:40:29.000Z</time>
      </trkpt>
      <trkpt lat="49.81354" lon="4.83845">
        <ele>228</ele>
        <time>2022-09-28T09:40:30.000Z</time>
      </trkpt>
      <trkpt lat="49.81354" lon="4.83845">
        <ele>228</ele>
        <time>2022-09-28T09:40:31.000Z</time>
      </trkpt>
      <trkpt lat="49.81354" lon="4.83845">
        <ele>228</ele>
        <time>2022-09-28T09:40:32.000Z</time>
      </trkpt>
      <trkpt lat="49.81354" lon="4.83845">
        <ele>228</ele>
        <time>2022-09-28T09:40:33.000Z</time>
      </trkpt>
      <trkpt lat="49.81354" lon="4.83845">
        <ele>229</ele>
        <time>2022-09-28T09:40:34.000Z</time>
      </trkpt>
      <trkpt lat="49.81354" lon="4.83845">
        <ele>229</ele>
        <time>2022-09-28T09:40:35.000Z</time>
      </trkpt>
      <trkpt lat="49.81354" lon="4.83845">
        <ele>229</ele>
        <time>2022-09-28T09:40:36.000Z</time>
      </trkpt>
      <trkpt lat="49.81354" lon="4.83845">
        <ele>229</ele>
        <time>2022-09-28T09:40:37.000Z</time>
      </trkpt>
      <trkpt lat="49.81355" lon="4.83845">
        <ele>229</ele>
        <time>2022-09-28T09:40:38.000Z</time>
      </trkpt>
      <trkpt lat="49.81355" lon="4.83844">
        <ele>230</ele>
        <time>2022-09-28T09:40:39.000Z</time>
      </trkpt>
      <trkpt lat="49.81356" lon="4.83844">
        <ele>230</ele>
        <time>2022-09-28T09:40:40.000Z</time>
      </trkpt>
      <trkpt lat="49.81356" lon="4.83844">
        <ele>230</ele>
        <time>2022-09-28T09:40:41.000Z</time>
      </trkpt>
      <trkpt lat="49.81356" lon="4.83844">
        <ele>230</ele>
        <time>2022-09-28T09:40:42.000Z</time>
      </trkpt>
      <trkpt lat="49.81356" lon="4.83845">
        <ele>231</ele>
        <time>2022-09-28T09:40:43.000Z</time>
      </trkpt>
      <trkpt lat="49.81357" lon="4.83845">
        <ele>231</ele>
        <time>2022-09-28T09:40:44.000Z</time>
      </trkpt>
      <trkpt lat="49.81357" lon="4.83845">
        <ele>231</ele>
        <time>2022-09-28T09:40:45.000Z</time>
      </trkpt>
      <trkpt lat="49.81357" lon="4.83846">
        <ele>231</ele>
        <time>2022-09-28T09:40:46.000Z</time>
      </trkpt>
      <trkpt lat="49.81357" lon="4.83846">
        <ele>231</ele>
        <time>2022-09-28T09:40:47.000Z</time>
      </trkpt>
      <trkpt lat="49.81357" lon="4.83846">
        <ele>231</ele>
        <time>2022-09-28T09:40:48.000Z</time>
      </trkpt>
      <trkpt lat="49.81357" lon="4.83847">
        <ele>232</ele>
        <time>2022-09-28T09:40:49.000Z</time>
      </trkpt>
      <trkpt lat="49.81357" lon="4.83847">
        <ele>232</ele>
        <time>2022-09-28T09:40:50.000Z</time>
      </trkpt>
      <trkpt lat="49.81356" lon="4.83847">
        <ele>232</ele>
        <time>2022-09-28T09:40:51.000Z</time>
      </trkpt>
      <trkpt lat="49.81356" lon="4.83847">
        <ele>232</ele>
        <time>2022-09-28T09:40:52.000Z</time>
      </trkpt>
      <trkpt lat="49.81356" lon="4.83846">
        <ele>232</ele>
        <time>2022-09-28T09:40:53.000Z</time>
      </trkpt>
      <trkpt lat="49.81356" lon="4.83846">
        <ele>232</ele>
        <time>2022-09-28T09:40:54.000Z</time>
      </trkpt>
      <trkpt lat="49.81355" lon="4.83846">
        <ele>233</ele>
        <time>2022-09-28T09:40:55.000Z</time>
      </trkpt>
      <trkpt lat="49.81355" lon="4.83846">
        <ele>233</ele>
        <time>2022-09-28T09:40:56.000Z</time>
      </trkpt>
      <trkpt lat="49.81354" lon="4.83845">
        <ele>233</ele>
        <time>2022-09-28T09:40:57.000Z</time>
      </trkpt>
      <trkpt lat="49.81353" lon="4.83845">
        <ele>233</ele>
        <time>2022-09-28T09:40:58.000Z</time>
      </trkpt>
      <trkpt lat="49.81352" lon="4.83844">
        <ele>233</ele>
        <time>2022-09-28T09:40:59.000Z</time>
      </trkpt>
      <trkpt lat="49.8135" lon="4.83843">
        <ele>233</ele>
        <time>2022-09-28T09:41:00.000Z</time>
      </trkpt>
      <trkpt lat="49.81347" lon="4.83843">
        <ele>233</ele>
        <time>2022-09-28T09:41:01.000Z</time>
      </trkpt>
      <trkpt lat="49.81344" lon="4.83841">
        <ele>233</ele>
        <time>2022-09-28T09:41:02.000Z</time>
      </trkpt>
      <trkpt lat="49.81341" lon="4.83841">
        <ele>233</ele>
        <time>2022-09-28T09:41:03.000Z</time>
      </trkpt>
      <trkpt lat="49.81338" lon="4.8384">
        <ele>233</ele>
        <time>2022-09-28T09:41:04.000Z</time>
      </trkpt>
      <trkpt lat="49.81335" lon="4.8384">
        <ele>233</ele>
        <time>2022-09-28T09:41:05.000Z</time>
      </trkpt>
      <trkpt lat="49.81331" lon="4.83839">
        <ele>233</ele>
        <time>2022-09-28T09:41:06.000Z</time>
      </trkpt>
      <trkpt lat="49.81328" lon="4.83837">
        <ele>233</ele>
        <time>2022-09-28T09:41:07.000Z</time>
      </trkpt>
      <trkpt lat="49.81324" lon="4.83837">
        <ele>233</ele>
        <time>2022-09-28T09:41:08.000Z</time>
      </trkpt>
      <trkpt lat="49.8132" lon="4.83836">
        <ele>233</ele>
        <time>2022-09-28T09:41:09.000Z</time>
      </trkpt>
      <trkpt lat="49.81316" lon="4.83838">
        <ele>233</ele>
        <time>2022-09-28T09:41:10.000Z</time>
      </trkpt>
      <trkpt lat="49.81313" lon="4.83839">
        <ele>233</ele>
        <time>2022-09-28T09:41:11.000Z</time>
      </trkpt>
      <trkpt lat="49.8131" lon="4.83841">
        <ele>233</ele>
        <time>2022-09-28T09:41:12.000Z</time>
      </trkpt>
      <trkpt lat="49.81307" lon="4.83844">
        <ele>233</ele>
        <time>2022-09-28T09:41:13.000Z</time>
      </trkpt>
      <trkpt lat="49.81305" lon="4.83847">
        <ele>233</ele>
        <time>2022-09-28T09:41:14.000Z</time>
      </trkpt>
      <trkpt lat="49.81303" lon="4.8385">
        <ele>233</ele>
        <time>2022-09-28T09:41:15.000Z</time>
      </trkpt>
      <trkpt lat="49.813" lon="4.83854">
        <ele>233</ele>
        <time>2022-09-28T09:41:16.000Z</time>
      </trkpt>
      <trkpt lat="49.81298" lon="4.83857">
        <ele>232</ele>
        <time>2022-09-28T09:41:17.000Z</time>
      </trkpt>
      <trkpt lat="49.81296" lon="4.83859">
        <ele>232</ele>
        <time>2022-09-28T09:41:18.000Z</time>
      </trkpt>
      <trkpt lat="49.81293" lon="4.8386">
        <ele>232</ele>
        <time>2022-09-28T09:41:19.000Z</time>
      </trkpt>
      <trkpt lat="49.81291" lon="4.83862">
        <ele>232</ele>
        <time>2022-09-28T09:41:20.000Z</time>
      </trkpt>
      <trkpt lat="49.81289" lon="4.83863">
        <ele>232</ele>
        <time>2022-09-28T09:41:21.000Z</time>
      </trkpt>
      <trkpt lat="49.81287" lon="4.83865">
        <ele>232</ele>
        <time>2022-09-28T09:41:22.000Z</time>
      </trkpt>
      <trkpt lat="49.81285" lon="4.83867">
        <ele>232</ele>
        <time>2022-09-28T09:41:23.000Z</time>
      </trkpt>
      <trkpt lat="49.81282" lon="4.83869">
        <ele>231</ele>
        <time>2022-09-28T09:41:24.000Z</time>
      </trkpt>
      <trkpt lat="49.8128" lon="4.83871">
        <ele>231</ele>
        <time>2022-09-28T09:41:25.000Z</time>
      </trkpt>
      <trkpt lat="49.81277" lon="4.83872">
        <ele>231</ele>
        <time>2022-09-28T09:41:26.000Z</time>
      </trkpt>
      <trkpt lat="49.81275" lon="4.83874">
        <ele>231</ele>
        <time>2022-09-28T09:41:27.000Z</time>
      </trkpt>
      <trkpt lat="49.81272" lon="4.83876">
        <ele>231</ele>
        <time>2022-09-28T09:41:28.000Z</time>
      </trkpt>
      <trkpt lat="49.8127" lon="4.83878">
        <ele>231</ele>
        <time>2022-09-28T09:41:29.000Z</time>
      </trkpt>
      <trkpt lat="49.81268" lon="4.83879">
        <ele>231</ele>
        <time>2022-09-28T09:41:30.000Z</time>
      </trkpt>
      <trkpt lat="49.81266" lon="4.8388">
        <ele>231</ele>
        <time>2022-09-28T09:41:31.000Z</time>
      </trkpt>
      <trkpt lat="49.81263" lon="4.83881">
        <ele>231</ele>
        <time>2022-09-28T09:41:32.000Z</time>
      </trkpt>
      <trkpt lat="49.8126" lon="4.83882">
        <ele>231</ele>
        <time>2022-09-28T09:41:33.000Z</time>
      </trkpt>
      <trkpt lat="49.81257" lon="4.83883">
        <ele>231</ele>
        <time>2022-09-28T09:41:34.000Z</time>
      </trkpt>
      <trkpt lat="49.81254" lon="4.83883">
        <ele>231</ele>
        <time>2022-09-28T09:41:35.000Z</time>
      </trkpt>
      <trkpt lat="49.81251" lon="4.83885">
        <ele>231</ele>
        <time>2022-09-28T09:41:36.000Z</time>
      </trkpt>
      <trkpt lat="49.81247" lon="4.83885">
        <ele>231</ele>
        <time>2022-09-28T09:41:37.000Z</time>
      </trkpt>
      <trkpt lat="49.81243" lon="4.83885">
        <ele>231</ele>
        <time>2022-09-28T09:41:38.000Z</time>
      </trkpt>
      <trkpt lat="49.8124" lon="4.83885">
        <ele>231</ele>
        <time>2022-09-28T09:41:39.000Z</time>
      </trkpt>
      <trkpt lat="49.81236" lon="4.83886">
        <ele>231</ele>
        <time>2022-09-28T09:41:40.000Z</time>
      </trkpt>
      <trkpt lat="49.81232" lon="4.83886">
        <ele>231</ele>
        <time>2022-09-28T09:41:41.000Z</time>
      </trkpt>
      <trkpt lat="49.81228" lon="4.83887">
        <ele>231</ele>
        <time>2022-09-28T09:41:42.000Z</time>
      </trkpt>
      <trkpt lat="49.81225" lon="4.83888">
        <ele>231</ele>
        <time>2022-09-28T09:41:43.000Z</time>
      </trkpt>
      <trkpt lat="49.81221" lon="4.83889">
        <ele>231</ele>
        <time>2022-09-28T09:41:44.000Z</time>
      </trkpt>
      <trkpt lat="49.81217" lon="4.8389">
        <ele>231</ele>
        <time>2022-09-28T09:41:45.000Z</time>
      </trkpt>
      <trkpt lat="49.81213" lon="4.8389">
        <ele>231</ele>
        <time>2022-09-28T09:41:46.000Z</time>
      </trkpt>
      <trkpt lat="49.8121" lon="4.8389">
        <ele>232</ele>
        <time>2022-09-28T09:41:47.000Z</time>
      </trkpt>
      <trkpt lat="49.81207" lon="4.83891">
        <ele>232</ele>
        <time>2022-09-28T09:41:48.000Z</time>
      </trkpt>
      <trkpt lat="49.81203" lon="4.83892">
        <ele>232</ele>
        <time>2022-09-28T09:41:49.000Z</time>
      </trkpt>
      <trkpt lat="49.81199" lon="4.83892">
        <ele>232</ele>
        <time>2022-09-28T09:41:50.000Z</time>
      </trkpt>
      <trkpt lat="49.81196" lon="4.83892">
        <ele>232</ele>
        <time>2022-09-28T09:41:51.000Z</time>
      </trkpt>
      <trkpt lat="49.81191" lon="4.83892">
        <ele>232</ele>
        <time>2022-09-28T09:41:52.000Z</time>
      </trkpt>
      <trkpt lat="49.81188" lon="4.83892">
        <ele>232</ele>
        <time>2022-09-28T09:41:53.000Z</time>
      </trkpt>
      <trkpt lat="49.81184" lon="4.83892">
        <ele>232</ele>
        <time>2022-09-28T09:41:54.000Z</time>
      </trkpt>
      <trkpt lat="49.8118" lon="4.83893">
        <ele>232</ele>
        <time>2022-09-28T09:41:55.000Z</time>
      </trkpt>
      <trkpt lat="49.81176" lon="4.83894">
        <ele>232</ele>
        <time>2022-09-28T09:41:56.000Z</time>
      </trkpt>
      <trkpt lat="49.81173" lon="4.83895">
        <ele>232</ele>
        <time>2022-09-28T09:41:57.000Z</time>
      </trkpt>
      <trkpt lat="49.81168" lon="4.83896">
        <ele>232</ele>
        <time>2022-09-28T09:41:58.000Z</time>
      </trkpt>
      <trkpt lat="49.81164" lon="4.83897">
        <ele>233</ele>
        <time>2022-09-28T09:41:59.000Z</time>
      </trkpt>
      <trkpt lat="49.81159" lon="4.83897">
        <ele>233</ele>
        <time>2022-09-28T09:42:00.000Z</time>
      </trkpt>
      <trkpt lat="49.81155" lon="4.83897">
        <ele>233</ele>
        <time>2022-09-28T09:42:01.000Z</time>
      </trkpt>
      <trkpt lat="49.8115" lon="4.83897">
        <ele>233</ele>
        <time>2022-09-28T09:42:02.000Z</time>
      </trkpt>
      <trkpt lat="49.81146" lon="4.83897">
        <ele>233</ele>
        <time>2022-09-28T09:42:03.000Z</time>
      </trkpt>
      <trkpt lat="49.81142" lon="4.83898">
        <ele>233</ele>
        <time>2022-09-28T09:42:04.000Z</time>
      </trkpt>
      <trkpt lat="49.81139" lon="4.83899">
        <ele>233</ele>
        <time>2022-09-28T09:42:05.000Z</time>
      </trkpt>
      <trkpt lat="49.81135" lon="4.839">
        <ele>233</ele>
        <time>2022-09-28T09:42:06.000Z</time>
      </trkpt>
      <trkpt lat="49.81131" lon="4.83901">
        <ele>233</ele>
        <time>2022-09-28T09:42:07.000Z</time>
      </trkpt>
      <trkpt lat="49.81127" lon="4.83902">
        <ele>233</ele>
        <time>2022-09-28T09:42:08.000Z</time>
      </trkpt>
      <trkpt lat="49.81123" lon="4.83902">
        <ele>233</ele>
        <time>2022-09-28T09:42:09.000Z</time>
      </trkpt>
      <trkpt lat="49.81118" lon="4.83902">
        <ele>234</ele>
        <time>2022-09-28T09:42:10.000Z</time>
      </trkpt>
      <trkpt lat="49.81114" lon="4.83901">
        <ele>234</ele>
        <time>2022-09-28T09:42:11.000Z</time>
      </trkpt>
      <trkpt lat="49.8111" lon="4.839">
        <ele>234</ele>
        <time>2022-09-28T09:42:12.000Z</time>
      </trkpt>
      <trkpt lat="49.81106" lon="4.83898">
        <ele>234</ele>
        <time>2022-09-28T09:42:13.000Z</time>
      </trkpt>
      <trkpt lat="49.81101" lon="4.83898">
        <ele>234</ele>
        <time>2022-09-28T09:42:14.000Z</time>
      </trkpt>
      <trkpt lat="49.81097" lon="4.83898">
        <ele>234</ele>
        <time>2022-09-28T09:42:15.000Z</time>
      </trkpt>
      <trkpt lat="49.81094" lon="4.83898">
        <ele>234</ele>
        <time>2022-09-28T09:42:16.000Z</time>
      </trkpt>
      <trkpt lat="49.8109" lon="4.83896">
        <ele>234</ele>
        <time>2022-09-28T09:42:17.000Z</time>
      </trkpt>
      <trkpt lat="49.81085" lon="4.83896">
        <ele>234</ele>
        <time>2022-09-28T09:42:18.000Z</time>
      </trkpt>
      <trkpt lat="49.81081" lon="4.83895">
        <ele>234</ele>
        <time>2022-09-28T09:42:19.000Z</time>
      </trkpt>
      <trkpt lat="49.81076" lon="4.83894">
        <ele>234</ele>
        <time>2022-09-28T09:42:20.000Z</time>
      </trkpt>
      <trkpt lat="49.81072" lon="4.83894">
        <ele>234</ele>
        <time>2022-09-28T09:42:21.000Z</time>
      </trkpt>
      <trkpt lat="49.81067" lon="4.83893">
        <ele>234</ele>
        <time>2022-09-28T09:42:22.000Z</time>
      </trkpt>
      <trkpt lat="49.81063" lon="4.83892">
        <ele>234</ele>
        <time>2022-09-28T09:42:23.000Z</time>
      </trkpt>
      <trkpt lat="49.81059" lon="4.83892">
        <ele>234</ele>
        <time>2022-09-28T09:42:24.000Z</time>
      </trkpt>
      <trkpt lat="49.81055" lon="4.83891">
        <ele>234</ele>
        <time>2022-09-28T09:42:25.000Z</time>
      </trkpt>
      <trkpt lat="49.81052" lon="4.83892">
        <ele>234</ele>
        <time>2022-09-28T09:42:26.000Z</time>
      </trkpt>
      <trkpt lat="49.81048" lon="4.83892">
        <ele>234</ele>
        <time>2022-09-28T09:42:27.000Z</time>
      </trkpt>
      <trkpt lat="49.81044" lon="4.83892">
        <ele>234</ele>
        <time>2022-09-28T09:42:28.000Z</time>
      </trkpt>
      <trkpt lat="49.8104" lon="4.83892">
        <ele>234</ele>
        <time>2022-09-28T09:42:29.000Z</time>
      </trkpt>
      <trkpt lat="49.81036" lon="4.83892">
        <ele>234</ele>
        <time>2022-09-28T09:42:30.000Z</time>
      </trkpt>
      <trkpt lat="49.81033" lon="4.83892">
        <ele>234</ele>
        <time>2022-09-28T09:42:31.000Z</time>
      </trkpt>
      <trkpt lat="49.81029" lon="4.83892">
        <ele>234</ele>
        <time>2022-09-28T09:42:32.000Z</time>
      </trkpt>
      <trkpt lat="49.81025" lon="4.83892">
        <ele>234</ele>
        <time>2022-09-28T09:42:33.000Z</time>
      </trkpt>
      <trkpt lat="49.81021" lon="4.83892">
        <ele>234</ele>
        <time>2022-09-28T09:42:34.000Z</time>
      </trkpt>
      <trkpt lat="49.81017" lon="4.83892">
        <ele>234</ele>
        <time>2022-09-28T09:42:35.000Z</time>
      </trkpt>
      <trkpt lat="49.81013" lon="4.83892">
        <ele>234</ele>
        <time>2022-09-28T09:42:36.000Z</time>
      </trkpt>
      <trkpt lat="49.81009" lon="4.83892">
        <ele>234</ele>
        <time>2022-09-28T09:42:37.000Z</time>
      </trkpt>
      <trkpt lat="49.81004" lon="4.83892">
        <ele>234</ele>
        <time>2022-09-28T09:42:38.000Z</time>
      </trkpt>
      <trkpt lat="49.81" lon="4.83892">
        <ele>234</ele>
        <time>2022-09-28T09:42:39.000Z</time>
      </trkpt>
      <trkpt lat="49.80996" lon="4.83892">
        <ele>234</ele>
        <time>2022-09-28T09:42:40.000Z</time>
      </trkpt>
      <trkpt lat="49.80992" lon="4.83891">
        <ele>234</ele>
        <time>2022-09-28T09:42:41.000Z</time>
      </trkpt>
      <trkpt lat="49.80987" lon="4.8389">
        <ele>234</ele>
        <time>2022-09-28T09:42:42.000Z</time>
      </trkpt>
      <trkpt lat="49.80982" lon="4.8389">
        <ele>234</ele>
        <time>2022-09-28T09:42:43.000Z</time>
      </trkpt>
      <trkpt lat="49.80978" lon="4.8389">
        <ele>234</ele>
        <time>2022-09-28T09:42:44.000Z</time>
      </trkpt>
      <trkpt lat="49.80973" lon="4.8389">
        <ele>234</ele>
        <time>2022-09-28T09:42:45.000Z</time>
      </trkpt>
      <trkpt lat="49.80969" lon="4.8389">
        <ele>234</ele>
        <time>2022-09-28T09:42:46.000Z</time>
      </trkpt>
      <trkpt lat="49.80965" lon="4.8389">
        <ele>234</ele>
        <time>2022-09-28T09:42:47.000Z</time>
      </trkpt>
      <trkpt lat="49.8096" lon="4.8389">
        <ele>234</ele>
        <time>2022-09-28T09:42:48.000Z</time>
      </trkpt>
      <trkpt lat="49.80956" lon="4.83889">
        <ele>234</ele>
        <time>2022-09-28T09:42:49.000Z</time>
      </trkpt>
      <trkpt lat="49.80952" lon="4.83889">
        <ele>234</ele>
        <time>2022-09-28T09:42:50.000Z</time>
      </trkpt>
      <trkpt lat="49.80947" lon="4.83889">
        <ele>234</ele>
        <time>2022-09-28T09:42:51.000Z</time>
      </trkpt>
      <trkpt lat="49.80943" lon="4.83889">
        <ele>234</ele>
        <time>2022-09-28T09:42:52.000Z</time>
      </trkpt>
      <trkpt lat="49.8094" lon="4.83889">
        <ele>234</ele>
        <time>2022-09-28T09:42:53.000Z</time>
      </trkpt>
      <trkpt lat="49.80936" lon="4.8389">
        <ele>234</ele>
        <time>2022-09-28T09:42:54.000Z</time>
      </trkpt>
      <trkpt lat="49.80932" lon="4.8389">
        <ele>233</ele>
        <time>2022-09-28T09:42:55.000Z</time>
      </trkpt>
      <trkpt lat="49.80927" lon="4.8389">
        <ele>233</ele>
        <time>2022-09-28T09:42:56.000Z</time>
      </trkpt>
      <trkpt lat="49.80923" lon="4.83889">
        <ele>233</ele>
        <time>2022-09-28T09:42:57.000Z</time>
      </trkpt>
      <trkpt lat="49.80919" lon="4.83889">
        <ele>233</ele>
        <time>2022-09-28T09:42:58.000Z</time>
      </trkpt>
      <trkpt lat="49.80915" lon="4.83889">
        <ele>233</ele>
        <time>2022-09-28T09:42:59.000Z</time>
      </trkpt>
      <trkpt lat="49.80911" lon="4.83889">
        <ele>233</ele>
        <time>2022-09-28T09:43:00.000Z</time>
      </trkpt>
      <trkpt lat="49.80906" lon="4.8389">
        <ele>233</ele>
        <time>2022-09-28T09:43:01.000Z</time>
      </trkpt>
      <trkpt lat="49.80902" lon="4.8389">
        <ele>233</ele>
        <time>2022-09-28T09:43:02.000Z</time>
      </trkpt>
      <trkpt lat="49.80897" lon="4.8389">
        <ele>233</ele>
        <time>2022-09-28T09:43:03.000Z</time>
      </trkpt>
      <trkpt lat="49.80893" lon="4.83889">
        <ele>233</ele>
        <time>2022-09-28T09:43:04.000Z</time>
      </trkpt>
      <trkpt lat="49.80888" lon="4.83889">
        <ele>233</ele>
        <time>2022-09-28T09:43:05.000Z</time>
      </trkpt>
      <trkpt lat="49.80883" lon="4.8389">
        <ele>233</ele>
        <time>2022-09-28T09:43:06.000Z</time>
      </trkpt>
      <trkpt lat="49.80879" lon="4.8389">
        <ele>233</ele>
        <time>2022-09-28T09:43:07.000Z</time>
      </trkpt>
      <trkpt lat="49.80875" lon="4.83891">
        <ele>233</ele>
        <time>2022-09-28T09:43:08.000Z</time>
      </trkpt>
      <trkpt lat="49.80871" lon="4.83891">
        <ele>233</ele>
        <time>2022-09-28T09:43:09.000Z</time>
      </trkpt>
      <trkpt lat="49.80867" lon="4.83891">
        <ele>232</ele>
        <time>2022-09-28T09:43:10.000Z</time>
      </trkpt>
      <trkpt lat="49.80863" lon="4.83891">
        <ele>232</ele>
        <time>2022-09-28T09:43:11.000Z</time>
      </trkpt>
      <trkpt lat="49.80859" lon="4.83892">
        <ele>232</ele>
        <time>2022-09-28T09:43:12.000Z</time>
      </trkpt>
      <trkpt lat="49.80855" lon="4.83892">
        <ele>232</ele>
        <time>2022-09-28T09:43:13.000Z</time>
      </trkpt>
      <trkpt lat="49.80852" lon="4.83893">
        <ele>232</ele>
        <time>2022-09-28T09:43:14.000Z</time>
      </trkpt>
      <trkpt lat="49.80848" lon="4.83893">
        <ele>232</ele>
        <time>2022-09-28T09:43:15.000Z</time>
      </trkpt>
      <trkpt lat="49.80844" lon="4.83894">
        <ele>232</ele>
        <time>2022-09-28T09:43:16.000Z</time>
      </trkpt>
      <trkpt lat="49.8084" lon="4.83894">
        <ele>232</ele>
        <time>2022-09-28T09:43:17.000Z</time>
      </trkpt>
      <trkpt lat="49.80836" lon="4.83894">
        <ele>232</ele>
        <time>2022-09-28T09:43:18.000Z</time>
      </trkpt>
      <trkpt lat="49.80832" lon="4.83894">
        <ele>231</ele>
        <time>2022-09-28T09:43:19.000Z</time>
      </trkpt>
      <trkpt lat="49.80828" lon="4.83894">
        <ele>231</ele>
        <time>2022-09-28T09:43:20.000Z</time>
      </trkpt>
      <trkpt lat="49.80824" lon="4.83895">
        <ele>231</ele>
        <time>2022-09-28T09:43:21.000Z</time>
      </trkpt>
      <trkpt lat="49.8082" lon="4.83895">
        <ele>231</ele>
        <time>2022-09-28T09:43:22.000Z</time>
      </trkpt>
      <trkpt lat="49.80817" lon="4.83895">
        <ele>231</ele>
        <time>2022-09-28T09:43:23.000Z</time>
      </trkpt>
      <trkpt lat="49.80812" lon="4.83894">
        <ele>231</ele>
        <time>2022-09-28T09:43:24.000Z</time>
      </trkpt>
      <trkpt lat="49.80808" lon="4.83896">
        <ele>231</ele>
        <time>2022-09-28T09:43:25.000Z</time>
      </trkpt>
      <trkpt lat="49.80804" lon="4.83897">
        <ele>231</ele>
        <time>2022-09-28T09:43:26.000Z</time>
      </trkpt>
      <trkpt lat="49.808" lon="4.83898">
        <ele>231</ele>
        <time>2022-09-28T09:43:27.000Z</time>
      </trkpt>
      <trkpt lat="49.80796" lon="4.83898">
        <ele>231</ele>
        <time>2022-09-28T09:43:28.000Z</time>
      </trkpt>
      <trkpt lat="49.80792" lon="4.83898">
        <ele>231</ele>
        <time>2022-09-28T09:43:29.000Z</time>
      </trkpt>
      <trkpt lat="49.80787" lon="4.83898">
        <ele>231</ele>
        <time>2022-09-28T09:43:30.000Z</time>
      </trkpt>
      <trkpt lat="49.80783" lon="4.83899">
        <ele>231</ele>
        <time>2022-09-28T09:43:31.000Z</time>
      </trkpt>
      <trkpt lat="49.80779" lon="4.83901">
        <ele>231</ele>
        <time>2022-09-28T09:43:32.000Z</time>
      </trkpt>
      <trkpt lat="49.80775" lon="4.83902">
        <ele>230</ele>
        <time>2022-09-28T09:43:33.000Z</time>
      </trkpt>
      <trkpt lat="49.80771" lon="4.83903">
        <ele>230</ele>
        <time>2022-09-28T09:43:34.000Z</time>
      </trkpt>
      <trkpt lat="49.80767" lon="4.83905">
        <ele>230</ele>
        <time>2022-09-28T09:43:35.000Z</time>
      </trkpt>
      <trkpt lat="49.80763" lon="4.83906">
        <ele>230</ele>
        <time>2022-09-28T09:43:36.000Z</time>
      </trkpt>
      <trkpt lat="49.80758" lon="4.83908">
        <ele>230</ele>
        <time>2022-09-28T09:43:37.000Z</time>
      </trkpt>
      <trkpt lat="49.80754" lon="4.8391">
        <ele>230</ele>
        <time>2022-09-28T09:43:38.000Z</time>
      </trkpt>
      <trkpt lat="49.8075" lon="4.83911">
        <ele>230</ele>
        <time>2022-09-28T09:43:39.000Z</time>
      </trkpt>
      <trkpt lat="49.80746" lon="4.83912">
        <ele>230</ele>
        <time>2022-09-28T09:43:40.000Z</time>
      </trkpt>
      <trkpt lat="49.80741" lon="4.83913">
        <ele>229</ele>
        <time>2022-09-28T09:43:41.000Z</time>
      </trkpt>
      <trkpt lat="49.80737" lon="4.83914">
        <ele>229</ele>
        <time>2022-09-28T09:43:42.000Z</time>
      </trkpt>
      <trkpt lat="49.80733" lon="4.83915">
        <ele>229</ele>
        <time>2022-09-28T09:43:43.000Z</time>
      </trkpt>
      <trkpt lat="49.80728" lon="4.83916">
        <ele>229</ele>
        <time>2022-09-28T09:43:44.000Z</time>
      </trkpt>
      <trkpt lat="49.80723" lon="4.83916">
        <ele>229</ele>
        <time>2022-09-28T09:43:45.000Z</time>
      </trkpt>
      <trkpt lat="49.80719" lon="4.83917">
        <ele>229</ele>
        <time>2022-09-28T09:43:46.000Z</time>
      </trkpt>
      <trkpt lat="49.80714" lon="4.83918">
        <ele>229</ele>
        <time>2022-09-28T09:43:47.000Z</time>
      </trkpt>
      <trkpt lat="49.80709" lon="4.83919">
        <ele>229</ele>
        <time>2022-09-28T09:43:48.000Z</time>
      </trkpt>
      <trkpt lat="49.80705" lon="4.83921">
        <ele>229</ele>
        <time>2022-09-28T09:43:49.000Z</time>
      </trkpt>
      <trkpt lat="49.80701" lon="4.83922">
        <ele>228</ele>
        <time>2022-09-28T09:43:50.000Z</time>
      </trkpt>
      <trkpt lat="49.80697" lon="4.83923">
        <ele>228</ele>
        <time>2022-09-28T09:43:51.000Z</time>
      </trkpt>
      <trkpt lat="49.80693" lon="4.83925">
        <ele>228</ele>
        <time>2022-09-28T09:43:52.000Z</time>
      </trkpt>
      <trkpt lat="49.80688" lon="4.83926">
        <ele>228</ele>
        <time>2022-09-28T09:43:53.000Z</time>
      </trkpt>
      <trkpt lat="49.80684" lon="4.83927">
        <ele>228</ele>
        <time>2022-09-28T09:43:54.000Z</time>
      </trkpt>
      <trkpt lat="49.80681" lon="4.83927">
        <ele>228</ele>
        <time>2022-09-28T09:43:55.000Z</time>
      </trkpt>
      <trkpt lat="49.80678" lon="4.83928">
        <ele>228</ele>
        <time>2022-09-28T09:43:56.000Z</time>
      </trkpt>
      <trkpt lat="49.80674" lon="4.83927">
        <ele>228</ele>
        <time>2022-09-28T09:43:57.000Z</time>
      </trkpt>
      <trkpt lat="49.80671" lon="4.83926">
        <ele>229</ele>
        <time>2022-09-28T09:43:58.000Z</time>
      </trkpt>
      <trkpt lat="49.80668" lon="4.83925">
        <ele>229</ele>
        <time>2022-09-28T09:43:59.000Z</time>
      </trkpt>
      <trkpt lat="49.80664" lon="4.83925">
        <ele>229</ele>
        <time>2022-09-28T09:44:00.000Z</time>
      </trkpt>
      <trkpt lat="49.80659" lon="4.83925">
        <ele>229</ele>
        <time>2022-09-28T09:44:01.000Z</time>
      </trkpt>
      <trkpt lat="49.80656" lon="4.83926">
        <ele>229</ele>
        <time>2022-09-28T09:44:02.000Z</time>
      </trkpt>
      <trkpt lat="49.80652" lon="4.83928">
        <ele>229</ele>
        <time>2022-09-28T09:44:03.000Z</time>
      </trkpt>
      <trkpt lat="49.80648" lon="4.8393">
        <ele>229</ele>
        <time>2022-09-28T09:44:04.000Z</time>
      </trkpt>
      <trkpt lat="49.80644" lon="4.83932">
        <ele>229</ele>
        <time>2022-09-28T09:44:05.000Z</time>
      </trkpt>
      <trkpt lat="49.8064" lon="4.83934">
        <ele>229</ele>
        <time>2022-09-28T09:44:06.000Z</time>
      </trkpt>
      <trkpt lat="49.80635" lon="4.83936">
        <ele>229</ele>
        <time>2022-09-28T09:44:07.000Z</time>
      </trkpt>
      <trkpt lat="49.8063" lon="4.83937">
        <ele>229</ele>
        <time>2022-09-28T09:44:08.000Z</time>
      </trkpt>
      <trkpt lat="49.80626" lon="4.83939">
        <ele>229</ele>
        <time>2022-09-28T09:44:09.000Z</time>
      </trkpt>
      <trkpt lat="49.80622" lon="4.8394">
        <ele>229</ele>
        <time>2022-09-28T09:44:10.000Z</time>
      </trkpt>
      <trkpt lat="49.80618" lon="4.83941">
        <ele>229</ele>
        <time>2022-09-28T09:44:11.000Z</time>
      </trkpt>
      <trkpt lat="49.80614" lon="4.83942">
        <ele>229</ele>
        <time>2022-09-28T09:44:12.000Z</time>
      </trkpt>
      <trkpt lat="49.80609" lon="4.83943">
        <ele>229</ele>
        <time>2022-09-28T09:44:13.000Z</time>
      </trkpt>
      <trkpt lat="49.80605" lon="4.83944">
        <ele>229</ele>
        <time>2022-09-28T09:44:14.000Z</time>
      </trkpt>
      <trkpt lat="49.806" lon="4.83946">
        <ele>229</ele>
        <time>2022-09-28T09:44:15.000Z</time>
      </trkpt>
      <trkpt lat="49.80595" lon="4.83946">
        <ele>228</ele>
        <time>2022-09-28T09:44:16.000Z</time>
      </trkpt>
      <trkpt lat="49.80591" lon="4.83947">
        <ele>228</ele>
        <time>2022-09-28T09:44:17.000Z</time>
      </trkpt>
      <trkpt lat="49.80587" lon="4.83948">
        <ele>228</ele>
        <time>2022-09-28T09:44:18.000Z</time>
      </trkpt>
      <trkpt lat="49.80583" lon="4.83948">
        <ele>228</ele>
        <time>2022-09-28T09:44:19.000Z</time>
      </trkpt>
      <trkpt lat="49.80579" lon="4.83949">
        <ele>228</ele>
        <time>2022-09-28T09:44:20.000Z</time>
      </trkpt>
      <trkpt lat="49.80576" lon="4.83949">
        <ele>228</ele>
        <time>2022-09-28T09:44:21.000Z</time>
      </trkpt>
      <trkpt lat="49.80573" lon="4.83949">
        <ele>228</ele>
        <time>2022-09-28T09:44:22.000Z</time>
      </trkpt>
      <trkpt lat="49.80569" lon="4.8395">
        <ele>228</ele>
        <time>2022-09-28T09:44:23.000Z</time>
      </trkpt>
      <trkpt lat="49.80566" lon="4.8395">
        <ele>227</ele>
        <time>2022-09-28T09:44:24.000Z</time>
      </trkpt>
      <trkpt lat="49.80563" lon="4.83951">
        <ele>227</ele>
        <time>2022-09-28T09:44:25.000Z</time>
      </trkpt>
      <trkpt lat="49.8056" lon="4.83951">
        <ele>227</ele>
        <time>2022-09-28T09:44:26.000Z</time>
      </trkpt>
      <trkpt lat="49.80556" lon="4.83952">
        <ele>226</ele>
        <time>2022-09-28T09:44:27.000Z</time>
      </trkpt>
      <trkpt lat="49.80553" lon="4.83953">
        <ele>226</ele>
        <time>2022-09-28T09:44:28.000Z</time>
      </trkpt>
      <trkpt lat="49.8055" lon="4.83953">
        <ele>226</ele>
        <time>2022-09-28T09:44:29.000Z</time>
      </trkpt>
      <trkpt lat="49.80546" lon="4.83954">
        <ele>225</ele>
        <time>2022-09-28T09:44:30.000Z</time>
      </trkpt>
      <trkpt lat="49.80542" lon="4.83954">
        <ele>225</ele>
        <time>2022-09-28T09:44:31.000Z</time>
      </trkpt>
      <trkpt lat="49.80538" lon="4.83954">
        <ele>225</ele>
        <time>2022-09-28T09:44:32.000Z</time>
      </trkpt>
      <trkpt lat="49.80535" lon="4.83955">
        <ele>225</ele>
        <time>2022-09-28T09:44:33.000Z</time>
      </trkpt>
      <trkpt lat="49.80532" lon="4.83956">
        <ele>224</ele>
        <time>2022-09-28T09:44:34.000Z</time>
      </trkpt>
      <trkpt lat="49.80529" lon="4.83956">
        <ele>224</ele>
        <time>2022-09-28T09:44:35.000Z</time>
      </trkpt>
      <trkpt lat="49.80525" lon="4.83957">
        <ele>224</ele>
        <time>2022-09-28T09:44:36.000Z</time>
      </trkpt>
      <trkpt lat="49.80522" lon="4.83958">
        <ele>224</ele>
        <time>2022-09-28T09:44:37.000Z</time>
      </trkpt>
      <trkpt lat="49.80518" lon="4.83959">
        <ele>223</ele>
        <time>2022-09-28T09:44:38.000Z</time>
      </trkpt>
      <trkpt lat="49.80516" lon="4.8396">
        <ele>223</ele>
        <time>2022-09-28T09:44:39.000Z</time>
      </trkpt>
      <trkpt lat="49.80513" lon="4.83959">
        <ele>223</ele>
        <time>2022-09-28T09:44:40.000Z</time>
      </trkpt>
      <trkpt lat="49.8051" lon="4.83959">
        <ele>223</ele>
        <time>2022-09-28T09:44:41.000Z</time>
      </trkpt>
      <trkpt lat="49.80508" lon="4.83959">
        <ele>222</ele>
        <time>2022-09-28T09:44:42.000Z</time>
      </trkpt>
      <trkpt lat="49.80506" lon="4.83959">
        <ele>222</ele>
        <time>2022-09-28T09:44:43.000Z</time>
      </trkpt>
      <trkpt lat="49.80504" lon="4.83957">
        <ele>222</ele>
        <time>2022-09-28T09:44:44.000Z</time>
      </trkpt>
      <trkpt lat="49.80501" lon="4.83954">
        <ele>222</ele>
        <time>2022-09-28T09:44:45.000Z</time>
      </trkpt>
      <trkpt lat="49.80499" lon="4.83951">
        <ele>222</ele>
        <time>2022-09-28T09:44:46.000Z</time>
      </trkpt>
      <trkpt lat="49.80497" lon="4.83948">
        <ele>222</ele>
        <time>2022-09-28T09:44:47.000Z</time>
      </trkpt>
      <trkpt lat="49.80494" lon="4.83945">
        <ele>222</ele>
        <time>2022-09-28T09:44:48.000Z</time>
      </trkpt>
      <trkpt lat="49.80491" lon="4.83941">
        <ele>221</ele>
        <time>2022-09-28T09:44:49.000Z</time>
      </trkpt>
      <trkpt lat="49.80488" lon="4.83937">
        <ele>221</ele>
        <time>2022-09-28T09:44:50.000Z</time>
      </trkpt>
      <trkpt lat="49.80485" lon="4.83934">
        <ele>221</ele>
        <time>2022-09-28T09:44:51.000Z</time>
      </trkpt>
      <trkpt lat="49.80482" lon="4.83931">
        <ele>221</ele>
        <time>2022-09-28T09:44:52.000Z</time>
      </trkpt>
      <trkpt lat="49.80479" lon="4.83927">
        <ele>221</ele>
        <time>2022-09-28T09:44:53.000Z</time>
      </trkpt>
      <trkpt lat="49.80476" lon="4.83924">
        <ele>221</ele>
        <time>2022-09-28T09:44:54.000Z</time>
      </trkpt>
      <trkpt lat="49.80472" lon="4.83921">
        <ele>220</ele>
        <time>2022-09-28T09:44:55.000Z</time>
      </trkpt>
      <trkpt lat="49.80469" lon="4.83919">
        <ele>220</ele>
        <time>2022-09-28T09:44:56.000Z</time>
      </trkpt>
      <trkpt lat="49.80465" lon="4.83916">
        <ele>220</ele>
        <time>2022-09-28T09:44:57.000Z</time>
      </trkpt>
      <trkpt lat="49.80462" lon="4.83915">
        <ele>220</ele>
        <time>2022-09-28T09:44:58.000Z</time>
      </trkpt>
      <trkpt lat="49.80458" lon="4.83913">
        <ele>220</ele>
        <time>2022-09-28T09:44:59.000Z</time>
      </trkpt>
      <trkpt lat="49.80454" lon="4.83911">
        <ele>220</ele>
        <time>2022-09-28T09:45:00.000Z</time>
      </trkpt>
      <trkpt lat="49.8045" lon="4.83909">
        <ele>220</ele>
        <time>2022-09-28T09:45:01.000Z</time>
      </trkpt>
      <trkpt lat="49.80446" lon="4.83907">
        <ele>220</ele>
        <time>2022-09-28T09:45:02.000Z</time>
      </trkpt>
      <trkpt lat="49.80442" lon="4.83906">
        <ele>219</ele>
        <time>2022-09-28T09:45:03.000Z</time>
      </trkpt>
      <trkpt lat="49.80438" lon="4.83904">
        <ele>219</ele>
        <time>2022-09-28T09:45:04.000Z</time>
      </trkpt>
      <trkpt lat="49.80434" lon="4.83901">
        <ele>219</ele>
        <time>2022-09-28T09:45:05.000Z</time>
      </trkpt>
      <trkpt lat="49.80431" lon="4.83898">
        <ele>219</ele>
        <time>2022-09-28T09:45:06.000Z</time>
      </trkpt>
      <trkpt lat="49.80427" lon="4.83896">
        <ele>219</ele>
        <time>2022-09-28T09:45:07.000Z</time>
      </trkpt>
      <trkpt lat="49.80423" lon="4.83893">
        <ele>219</ele>
        <time>2022-09-28T09:45:08.000Z</time>
      </trkpt>
      <trkpt lat="49.8042" lon="4.8389">
        <ele>219</ele>
        <time>2022-09-28T09:45:09.000Z</time>
      </trkpt>
      <trkpt lat="49.80416" lon="4.83887">
        <ele>219</ele>
        <time>2022-09-28T09:45:10.000Z</time>
      </trkpt>
      <trkpt lat="49.80412" lon="4.83884">
        <ele>219</ele>
        <time>2022-09-28T09:45:11.000Z</time>
      </trkpt>
      <trkpt lat="49.80409" lon="4.83881">
        <ele>219</ele>
        <time>2022-09-28T09:45:12.000Z</time>
      </trkpt>
      <trkpt lat="49.80405" lon="4.83876">
        <ele>219</ele>
        <time>2022-09-28T09:45:13.000Z</time>
      </trkpt>
      <trkpt lat="49.80402" lon="4.8387">
        <ele>219</ele>
        <time>2022-09-28T09:45:14.000Z</time>
      </trkpt>
      <trkpt lat="49.80399" lon="4.83866">
        <ele>218</ele>
        <time>2022-09-28T09:45:15.000Z</time>
      </trkpt>
      <trkpt lat="49.80396" lon="4.83864">
        <ele>218</ele>
        <time>2022-09-28T09:45:16.000Z</time>
      </trkpt>
      <trkpt lat="49.80393" lon="4.83862">
        <ele>218</ele>
        <time>2022-09-28T09:45:17.000Z</time>
      </trkpt>
      <trkpt lat="49.80389" lon="4.83861">
        <ele>218</ele>
        <time>2022-09-28T09:45:18.000Z</time>
      </trkpt>
      <trkpt lat="49.80386" lon="4.83861">
        <ele>218</ele>
        <time>2022-09-28T09:45:19.000Z</time>
      </trkpt>
      <trkpt lat="49.80382" lon="4.83859">
        <ele>218</ele>
        <time>2022-09-28T09:45:20.000Z</time>
      </trkpt>
      <trkpt lat="49.80378" lon="4.83858">
        <ele>218</ele>
        <time>2022-09-28T09:45:21.000Z</time>
      </trkpt>
      <trkpt lat="49.80374" lon="4.83857">
        <ele>218</ele>
        <time>2022-09-28T09:45:22.000Z</time>
      </trkpt>
      <trkpt lat="49.8037" lon="4.83857">
        <ele>218</ele>
        <time>2022-09-28T09:45:23.000Z</time>
      </trkpt>
      <trkpt lat="49.80366" lon="4.83856">
        <ele>218</ele>
        <time>2022-09-28T09:45:24.000Z</time>
      </trkpt>
      <trkpt lat="49.80362" lon="4.83855">
        <ele>219</ele>
        <time>2022-09-28T09:45:25.000Z</time>
      </trkpt>
      <trkpt lat="49.80358" lon="4.83855">
        <ele>219</ele>
        <time>2022-09-28T09:45:26.000Z</time>
      </trkpt>
      <trkpt lat="49.80354" lon="4.83854">
        <ele>219</ele>
        <time>2022-09-28T09:45:27.000Z</time>
      </trkpt>
      <trkpt lat="49.8035" lon="4.83853">
        <ele>219</ele>
        <time>2022-09-28T09:45:28.000Z</time>
      </trkpt>
      <trkpt lat="49.80346" lon="4.83853">
        <ele>219</ele>
        <time>2022-09-28T09:45:29.000Z</time>
      </trkpt>
      <trkpt lat="49.80341" lon="4.83852">
        <ele>219</ele>
        <time>2022-09-28T09:45:30.000Z</time>
      </trkpt>
      <trkpt lat="49.80337" lon="4.83851">
        <ele>219</ele>
        <time>2022-09-28T09:45:31.000Z</time>
      </trkpt>
      <trkpt lat="49.80333" lon="4.8385">
        <ele>219</ele>
        <time>2022-09-28T09:45:32.000Z</time>
      </trkpt>
      <trkpt lat="49.80328" lon="4.83849">
        <ele>220</ele>
        <time>2022-09-28T09:45:33.000Z</time>
      </trkpt>
      <trkpt lat="49.80324" lon="4.83848">
        <ele>220</ele>
        <time>2022-09-28T09:45:34.000Z</time>
      </trkpt>
      <trkpt lat="49.8032" lon="4.83848">
        <ele>220</ele>
        <time>2022-09-28T09:45:35.000Z</time>
      </trkpt>
      <trkpt lat="49.80316" lon="4.83847">
        <ele>220</ele>
        <time>2022-09-28T09:45:36.000Z</time>
      </trkpt>
      <trkpt lat="49.80312" lon="4.83846">
        <ele>221</ele>
        <time>2022-09-28T09:45:37.000Z</time>
      </trkpt>
      <trkpt lat="49.80308" lon="4.83846">
        <ele>221</ele>
        <time>2022-09-28T09:45:38.000Z</time>
      </trkpt>
      <trkpt lat="49.80304" lon="4.83845">
        <ele>221</ele>
        <time>2022-09-28T09:45:39.000Z</time>
      </trkpt>
      <trkpt lat="49.803" lon="4.83845">
        <ele>221</ele>
        <time>2022-09-28T09:45:40.000Z</time>
      </trkpt>
      <trkpt lat="49.80296" lon="4.83844">
        <ele>221</ele>
        <time>2022-09-28T09:45:41.000Z</time>
      </trkpt>
      <trkpt lat="49.80292" lon="4.83843">
        <ele>222</ele>
        <time>2022-09-28T09:45:42.000Z</time>
      </trkpt>
      <trkpt lat="49.80288" lon="4.83843">
        <ele>222</ele>
        <time>2022-09-28T09:45:43.000Z</time>
      </trkpt>
      <trkpt lat="49.80284" lon="4.83842">
        <ele>222</ele>
        <time>2022-09-28T09:45:44.000Z</time>
      </trkpt>
      <trkpt lat="49.8028" lon="4.83842">
        <ele>222</ele>
        <time>2022-09-28T09:45:45.000Z</time>
      </trkpt>
      <trkpt lat="49.80276" lon="4.83841">
        <ele>223</ele>
        <time>2022-09-28T09:45:46.000Z</time>
      </trkpt>
      <trkpt lat="49.80273" lon="4.83841">
        <ele>223</ele>
        <time>2022-09-28T09:45:47.000Z</time>
      </trkpt>
      <trkpt lat="49.80269" lon="4.8384">
        <ele>223</ele>
        <time>2022-09-28T09:45:48.000Z</time>
      </trkpt>
      <trkpt lat="49.80265" lon="4.8384">
        <ele>223</ele>
        <time>2022-09-28T09:45:49.000Z</time>
      </trkpt>
      <trkpt lat="49.80261" lon="4.8384">
        <ele>223</ele>
        <time>2022-09-28T09:45:50.000Z</time>
      </trkpt>
      <trkpt lat="49.80257" lon="4.83839">
        <ele>224</ele>
        <time>2022-09-28T09:45:51.000Z</time>
      </trkpt>
      <trkpt lat="49.80254" lon="4.83839">
        <ele>224</ele>
        <time>2022-09-28T09:45:52.000Z</time>
      </trkpt>
      <trkpt lat="49.8025" lon="4.83839">
        <ele>224</ele>
        <time>2022-09-28T09:45:53.000Z</time>
      </trkpt>
      <trkpt lat="49.80247" lon="4.83839">
        <ele>225</ele>
        <time>2022-09-28T09:45:54.000Z</time>
      </trkpt>
      <trkpt lat="49.80243" lon="4.83839">
        <ele>225</ele>
        <time>2022-09-28T09:45:55.000Z</time>
      </trkpt>
      <trkpt lat="49.80239" lon="4.8384">
        <ele>225</ele>
        <time>2022-09-28T09:45:56.000Z</time>
      </trkpt>
      <trkpt lat="49.80235" lon="4.83841">
        <ele>225</ele>
        <time>2022-09-28T09:45:57.000Z</time>
      </trkpt>
      <trkpt lat="49.80231" lon="4.83842">
        <ele>225</ele>
        <time>2022-09-28T09:45:58.000Z</time>
      </trkpt>
      <trkpt lat="49.80227" lon="4.83843">
        <ele>225</ele>
        <time>2022-09-28T09:45:59.000Z</time>
      </trkpt>
      <trkpt lat="49.80224" lon="4.83843">
        <ele>225</ele>
        <time>2022-09-28T09:46:00.000Z</time>
      </trkpt>
      <trkpt lat="49.8022" lon="4.83844">
        <ele>225</ele>
        <time>2022-09-28T09:46:01.000Z</time>
      </trkpt>
      <trkpt lat="49.80216" lon="4.83844">
        <ele>225</ele>
        <time>2022-09-28T09:46:02.000Z</time>
      </trkpt>
      <trkpt lat="49.80212" lon="4.83845">
        <ele>225</ele>
        <time>2022-09-28T09:46:03.000Z</time>
      </trkpt>
      <trkpt lat="49.80208" lon="4.83845">
        <ele>225</ele>
        <time>2022-09-28T09:46:04.000Z</time>
      </trkpt>
      <trkpt lat="49.80204" lon="4.83844">
        <ele>225</ele>
        <time>2022-09-28T09:46:05.000Z</time>
      </trkpt>
      <trkpt lat="49.80199" lon="4.83844">
        <ele>225</ele>
        <time>2022-09-28T09:46:06.000Z</time>
      </trkpt>
      <trkpt lat="49.80195" lon="4.83843">
        <ele>225</ele>
        <time>2022-09-28T09:46:07.000Z</time>
      </trkpt>
      <trkpt lat="49.80191" lon="4.83842">
        <ele>225</ele>
        <time>2022-09-28T09:46:08.000Z</time>
      </trkpt>
      <trkpt lat="49.80187" lon="4.8384">
        <ele>225</ele>
        <time>2022-09-28T09:46:09.000Z</time>
      </trkpt>
      <trkpt lat="49.80183" lon="4.83839">
        <ele>225</ele>
        <time>2022-09-28T09:46:10.000Z</time>
      </trkpt>
      <trkpt lat="49.80179" lon="4.83839">
        <ele>225</ele>
        <time>2022-09-28T09:46:11.000Z</time>
      </trkpt>
      <trkpt lat="49.80176" lon="4.83839">
        <ele>225</ele>
        <time>2022-09-28T09:46:12.000Z</time>
      </trkpt>
      <trkpt lat="49.80172" lon="4.83838">
        <ele>225</ele>
        <time>2022-09-28T09:46:13.000Z</time>
      </trkpt>
      <trkpt lat="49.80168" lon="4.83837">
        <ele>225</ele>
        <time>2022-09-28T09:46:14.000Z</time>
      </trkpt>
      <trkpt lat="49.80164" lon="4.83836">
        <ele>225</ele>
        <time>2022-09-28T09:46:15.000Z</time>
      </trkpt>
      <trkpt lat="49.8016" lon="4.83836">
        <ele>225</ele>
        <time>2022-09-28T09:46:16.000Z</time>
      </trkpt>
      <trkpt lat="49.80156" lon="4.83835">
        <ele>225</ele>
        <time>2022-09-28T09:46:17.000Z</time>
      </trkpt>
      <trkpt lat="49.80152" lon="4.83833">
        <ele>225</ele>
        <time>2022-09-28T09:46:18.000Z</time>
      </trkpt>
      <trkpt lat="49.80148" lon="4.83832">
        <ele>225</ele>
        <time>2022-09-28T09:46:19.000Z</time>
      </trkpt>
      <trkpt lat="49.80145" lon="4.8383">
        <ele>225</ele>
        <time>2022-09-28T09:46:20.000Z</time>
      </trkpt>
      <trkpt lat="49.80141" lon="4.83828">
        <ele>225</ele>
        <time>2022-09-28T09:46:21.000Z</time>
      </trkpt>
      <trkpt lat="49.80137" lon="4.83827">
        <ele>225</ele>
        <time>2022-09-28T09:46:22.000Z</time>
      </trkpt>
      <trkpt lat="49.80133" lon="4.83826">
        <ele>225</ele>
        <time>2022-09-28T09:46:23.000Z</time>
      </trkpt>
      <trkpt lat="49.80129" lon="4.83826">
        <ele>225</ele>
        <time>2022-09-28T09:46:24.000Z</time>
      </trkpt>
      <trkpt lat="49.80125" lon="4.83825">
        <ele>225</ele>
        <time>2022-09-28T09:46:25.000Z</time>
      </trkpt>
      <trkpt lat="49.80121" lon="4.83824">
        <ele>225</ele>
        <time>2022-09-28T09:46:26.000Z</time>
      </trkpt>
      <trkpt lat="49.80118" lon="4.83823">
        <ele>225</ele>
        <time>2022-09-28T09:46:27.000Z</time>
      </trkpt>
      <trkpt lat="49.80115" lon="4.83821">
        <ele>226</ele>
        <time>2022-09-28T09:46:28.000Z</time>
      </trkpt>
      <trkpt lat="49.80111" lon="4.83819">
        <ele>226</ele>
        <time>2022-09-28T09:46:29.000Z</time>
      </trkpt>
      <trkpt lat="49.80107" lon="4.83818">
        <ele>226</ele>
        <time>2022-09-28T09:46:30.000Z</time>
      </trkpt>
      <trkpt lat="49.80102" lon="4.83818">
        <ele>226</ele>
        <time>2022-09-28T09:46:31.000Z</time>
      </trkpt>
      <trkpt lat="49.80097" lon="4.83817">
        <ele>226</ele>
        <time>2022-09-28T09:46:32.000Z</time>
      </trkpt>
      <trkpt lat="49.80092" lon="4.83816">
        <ele>226</ele>
        <time>2022-09-28T09:46:33.000Z</time>
      </trkpt>
      <trkpt lat="49.80087" lon="4.83815">
        <ele>226</ele>
        <time>2022-09-28T09:46:34.000Z</time>
      </trkpt>
      <trkpt lat="49.80082" lon="4.83814">
        <ele>226</ele>
        <time>2022-09-28T09:46:35.000Z</time>
      </trkpt>
      <trkpt lat="49.80077" lon="4.83811">
        <ele>226</ele>
        <time>2022-09-28T09:46:36.000Z</time>
      </trkpt>
      <trkpt lat="49.80072" lon="4.83809">
        <ele>227</ele>
        <time>2022-09-28T09:46:37.000Z</time>
      </trkpt>
      <trkpt lat="49.80067" lon="4.83807">
        <ele>227</ele>
        <time>2022-09-28T09:46:38.000Z</time>
      </trkpt>
      <trkpt lat="49.80062" lon="4.83805">
        <ele>227</ele>
        <time>2022-09-28T09:46:39.000Z</time>
      </trkpt>
      <trkpt lat="49.80057" lon="4.83804">
        <ele>227</ele>
        <time>2022-09-28T09:46:40.000Z</time>
      </trkpt>
      <trkpt lat="49.80052" lon="4.83802">
        <ele>227</ele>
        <time>2022-09-28T09:46:41.000Z</time>
      </trkpt>
      <trkpt lat="49.80047" lon="4.838">
        <ele>227</ele>
        <time>2022-09-28T09:46:42.000Z</time>
      </trkpt>
      <trkpt lat="49.80042" lon="4.83799">
        <ele>228</ele>
        <time>2022-09-28T09:46:43.000Z</time>
      </trkpt>
      <trkpt lat="49.80036" lon="4.83797">
        <ele>228</ele>
        <time>2022-09-28T09:46:44.000Z</time>
      </trkpt>
      <trkpt lat="49.80031" lon="4.83795">
        <ele>228</ele>
        <time>2022-09-28T09:46:45.000Z</time>
      </trkpt>
      <trkpt lat="49.80026" lon="4.83794">
        <ele>228</ele>
        <time>2022-09-28T09:46:46.000Z</time>
      </trkpt>
      <trkpt lat="49.80021" lon="4.83792">
        <ele>229</ele>
        <time>2022-09-28T09:46:47.000Z</time>
      </trkpt>
      <trkpt lat="49.80016" lon="4.83791">
        <ele>229</ele>
        <time>2022-09-28T09:46:48.000Z</time>
      </trkpt>
      <trkpt lat="49.80011" lon="4.8379">
        <ele>229</ele>
        <time>2022-09-28T09:46:49.000Z</time>
      </trkpt>
      <trkpt lat="49.80006" lon="4.83788">
        <ele>229</ele>
        <time>2022-09-28T09:46:50.000Z</time>
      </trkpt>
      <trkpt lat="49.80001" lon="4.83787">
        <ele>229</ele>
        <time>2022-09-28T09:46:51.000Z</time>
      </trkpt>
      <trkpt lat="49.79995" lon="4.83787">
        <ele>229</ele>
        <time>2022-09-28T09:46:52.000Z</time>
      </trkpt>
      <trkpt lat="49.7999" lon="4.83787">
        <ele>229</ele>
        <time>2022-09-28T09:46:53.000Z</time>
      </trkpt>
      <trkpt lat="49.79985" lon="4.83786">
        <ele>229</ele>
        <time>2022-09-28T09:46:54.000Z</time>
      </trkpt>
      <trkpt lat="49.7998" lon="4.83784">
        <ele>229</ele>
        <time>2022-09-28T09:46:55.000Z</time>
      </trkpt>
      <trkpt lat="49.79976" lon="4.83782">
        <ele>229</ele>
        <time>2022-09-28T09:46:56.000Z</time>
      </trkpt>
      <trkpt lat="49.79971" lon="4.8378">
        <ele>229</ele>
        <time>2022-09-28T09:46:57.000Z</time>
      </trkpt>
      <trkpt lat="49.79966" lon="4.8378">
        <ele>229</ele>
        <time>2022-09-28T09:46:58.000Z</time>
      </trkpt>
      <trkpt lat="49.79961" lon="4.83779">
        <ele>229</ele>
        <time>2022-09-28T09:46:59.000Z</time>
      </trkpt>
      <trkpt lat="49.79956" lon="4.83778">
        <ele>229</ele>
        <time>2022-09-28T09:47:00.000Z</time>
      </trkpt>
      <trkpt lat="49.79952" lon="4.83776">
        <ele>229</ele>
        <time>2022-09-28T09:47:01.000Z</time>
      </trkpt>
      <trkpt lat="49.79947" lon="4.83774">
        <ele>229</ele>
        <time>2022-09-28T09:47:02.000Z</time>
      </trkpt>
      <trkpt lat="49.79942" lon="4.83772">
        <ele>229</ele>
        <time>2022-09-28T09:47:03.000Z</time>
      </trkpt>
      <trkpt lat="49.79938" lon="4.83771">
        <ele>229</ele>
        <time>2022-09-28T09:47:04.000Z</time>
      </trkpt>
      <trkpt lat="49.79933" lon="4.8377">
        <ele>229</ele>
        <time>2022-09-28T09:47:05.000Z</time>
      </trkpt>
      <trkpt lat="49.79928" lon="4.83769">
        <ele>230</ele>
        <time>2022-09-28T09:47:06.000Z</time>
      </trkpt>
      <trkpt lat="49.79923" lon="4.83768">
        <ele>230</ele>
        <time>2022-09-28T09:47:07.000Z</time>
      </trkpt>
      <trkpt lat="49.79918" lon="4.83766">
        <ele>230</ele>
        <time>2022-09-28T09:47:08.000Z</time>
      </trkpt>
      <trkpt lat="49.79913" lon="4.83765">
        <ele>230</ele>
        <time>2022-09-28T09:47:09.000Z</time>
      </trkpt>
      <trkpt lat="49.79908" lon="4.83763">
        <ele>230</ele>
        <time>2022-09-28T09:47:10.000Z</time>
      </trkpt>
      <trkpt lat="49.79903" lon="4.83762">
        <ele>230</ele>
        <time>2022-09-28T09:47:11.000Z</time>
      </trkpt>
      <trkpt lat="49.79898" lon="4.8376">
        <ele>230</ele>
        <time>2022-09-28T09:47:12.000Z</time>
      </trkpt>
      <trkpt lat="49.79894" lon="4.83759">
        <ele>230</ele>
        <time>2022-09-28T09:47:13.000Z</time>
      </trkpt>
      <trkpt lat="49.79889" lon="4.83757">
        <ele>230</ele>
        <time>2022-09-28T09:47:14.000Z</time>
      </trkpt>
      <trkpt lat="49.79884" lon="4.83756">
        <ele>230</ele>
        <time>2022-09-28T09:47:15.000Z</time>
      </trkpt>
      <trkpt lat="49.79879" lon="4.83754">
        <ele>230</ele>
        <time>2022-09-28T09:47:16.000Z</time>
      </trkpt>
      <trkpt lat="49.79874" lon="4.83753">
        <ele>230</ele>
        <time>2022-09-28T09:47:17.000Z</time>
      </trkpt>
      <trkpt lat="49.7987" lon="4.83751">
        <ele>230</ele>
        <time>2022-09-28T09:47:18.000Z</time>
      </trkpt>
      <trkpt lat="49.79865" lon="4.8375">
        <ele>230</ele>
        <time>2022-09-28T09:47:19.000Z</time>
      </trkpt>
      <trkpt lat="49.7986" lon="4.83748">
        <ele>230</ele>
        <time>2022-09-28T09:47:20.000Z</time>
      </trkpt>
      <trkpt lat="49.79855" lon="4.83746">
        <ele>230</ele>
        <time>2022-09-28T09:47:21.000Z</time>
      </trkpt>
      <trkpt lat="49.7985" lon="4.83745">
        <ele>230</ele>
        <time>2022-09-28T09:47:22.000Z</time>
      </trkpt>
      <trkpt lat="49.79845" lon="4.83744">
        <ele>230</ele>
        <time>2022-09-28T09:47:23.000Z</time>
      </trkpt>
      <trkpt lat="49.7984" lon="4.83742">
        <ele>231</ele>
        <time>2022-09-28T09:47:24.000Z</time>
      </trkpt>
      <trkpt lat="49.79834" lon="4.83742">
        <ele>231</ele>
        <time>2022-09-28T09:47:25.000Z</time>
      </trkpt>
      <trkpt lat="49.79829" lon="4.83742">
        <ele>231</ele>
        <time>2022-09-28T09:47:26.000Z</time>
      </trkpt>
      <trkpt lat="49.79824" lon="4.83741">
        <ele>231</ele>
        <time>2022-09-28T09:47:27.000Z</time>
      </trkpt>
      <trkpt lat="49.79818" lon="4.8374">
        <ele>231</ele>
        <time>2022-09-28T09:47:28.000Z</time>
      </trkpt>
      <trkpt lat="49.79813" lon="4.83739">
        <ele>231</ele>
        <time>2022-09-28T09:47:29.000Z</time>
      </trkpt>
      <trkpt lat="49.79808" lon="4.83738">
        <ele>231</ele>
        <time>2022-09-28T09:47:30.000Z</time>
      </trkpt>
      <trkpt lat="49.79803" lon="4.83736">
        <ele>231</ele>
        <time>2022-09-28T09:47:31.000Z</time>
      </trkpt>
      <trkpt lat="49.79797" lon="4.83736">
        <ele>231</ele>
        <time>2022-09-28T09:47:32.000Z</time>
      </trkpt>
      <trkpt lat="49.79792" lon="4.83735">
        <ele>231</ele>
        <time>2022-09-28T09:47:33.000Z</time>
      </trkpt>
      <trkpt lat="49.79787" lon="4.83734">
        <ele>231</ele>
        <time>2022-09-28T09:47:34.000Z</time>
      </trkpt>
      <trkpt lat="49.79782" lon="4.83733">
        <ele>231</ele>
        <time>2022-09-28T09:47:35.000Z</time>
      </trkpt>
      <trkpt lat="49.79777" lon="4.83732">
        <ele>231</ele>
        <time>2022-09-28T09:47:36.000Z</time>
      </trkpt>
      <trkpt lat="49.79773" lon="4.83732">
        <ele>231</ele>
        <time>2022-09-28T09:47:37.000Z</time>
      </trkpt>
      <trkpt lat="49.79769" lon="4.83731">
        <ele>231</ele>
        <time>2022-09-28T09:47:38.000Z</time>
      </trkpt>
      <trkpt lat="49.79764" lon="4.8373">
        <ele>231</ele>
        <time>2022-09-28T09:47:39.000Z</time>
      </trkpt>
      <trkpt lat="49.79759" lon="4.8373">
        <ele>231</ele>
        <time>2022-09-28T09:47:40.000Z</time>
      </trkpt>
      <trkpt lat="49.79754" lon="4.83729">
        <ele>232</ele>
        <time>2022-09-28T09:47:41.000Z</time>
      </trkpt>
      <trkpt lat="49.79749" lon="4.83729">
        <ele>232</ele>
        <time>2022-09-28T09:47:42.000Z</time>
      </trkpt>
      <trkpt lat="49.79744" lon="4.83729">
        <ele>232</ele>
        <time>2022-09-28T09:47:43.000Z</time>
      </trkpt>
      <trkpt lat="49.79738" lon="4.83729">
        <ele>232</ele>
        <time>2022-09-28T09:47:44.000Z</time>
      </trkpt>
      <trkpt lat="49.79733" lon="4.83728">
        <ele>232</ele>
        <time>2022-09-28T09:47:45.000Z</time>
      </trkpt>
      <trkpt lat="49.79728" lon="4.83727">
        <ele>232</ele>
        <time>2022-09-28T09:47:46.000Z</time>
      </trkpt>
      <trkpt lat="49.79723" lon="4.83727">
        <ele>232</ele>
        <time>2022-09-28T09:47:47.000Z</time>
      </trkpt>
      <trkpt lat="49.79717" lon="4.83727">
        <ele>232</ele>
        <time>2022-09-28T09:47:48.000Z</time>
      </trkpt>
      <trkpt lat="49.79711" lon="4.83727">
        <ele>232</ele>
        <time>2022-09-28T09:47:49.000Z</time>
      </trkpt>
      <trkpt lat="49.79706" lon="4.83726">
        <ele>232</ele>
        <time>2022-09-28T09:47:50.000Z</time>
      </trkpt>
      <trkpt lat="49.79701" lon="4.83725">
        <ele>232</ele>
        <time>2022-09-28T09:47:51.000Z</time>
      </trkpt>
      <trkpt lat="49.79695" lon="4.83725">
        <ele>232</ele>
        <time>2022-09-28T09:47:52.000Z</time>
      </trkpt>
      <trkpt lat="49.7969" lon="4.83725">
        <ele>232</ele>
        <time>2022-09-28T09:47:53.000Z</time>
      </trkpt>
      <trkpt lat="49.79684" lon="4.83724">
        <ele>232</ele>
        <time>2022-09-28T09:47:54.000Z</time>
      </trkpt>
      <trkpt lat="49.79679" lon="4.83724">
        <ele>232</ele>
        <time>2022-09-28T09:47:55.000Z</time>
      </trkpt>
      <trkpt lat="49.79674" lon="4.83724">
        <ele>232</ele>
        <time>2022-09-28T09:47:56.000Z</time>
      </trkpt>
      <trkpt lat="49.79669" lon="4.83726">
        <ele>232</ele>
        <time>2022-09-28T09:47:57.000Z</time>
      </trkpt>
      <trkpt lat="49.79665" lon="4.83727">
        <ele>232</ele>
        <time>2022-09-28T09:47:58.000Z</time>
      </trkpt>
      <trkpt lat="49.79661" lon="4.83729">
        <ele>232</ele>
        <time>2022-09-28T09:47:59.000Z</time>
      </trkpt>
      <trkpt lat="49.79658" lon="4.83733">
        <ele>232</ele>
        <time>2022-09-28T09:48:00.000Z</time>
      </trkpt>
      <trkpt lat="49.79656" lon="4.83736">
        <ele>232</ele>
        <time>2022-09-28T09:48:01.000Z</time>
      </trkpt>
      <trkpt lat="49.79655" lon="4.8374">
        <ele>232</ele>
        <time>2022-09-28T09:48:02.000Z</time>
      </trkpt>
      <trkpt lat="49.79654" lon="4.83744">
        <ele>232</ele>
        <time>2022-09-28T09:48:03.000Z</time>
      </trkpt>
      <trkpt lat="49.79653" lon="4.83748">
        <ele>232</ele>
        <time>2022-09-28T09:48:04.000Z</time>
      </trkpt>
      <trkpt lat="49.79652" lon="4.83751">
        <ele>232</ele>
        <time>2022-09-28T09:48:05.000Z</time>
      </trkpt>
      <trkpt lat="49.7965" lon="4.83755">
        <ele>232</ele>
        <time>2022-09-28T09:48:06.000Z</time>
      </trkpt>
      <trkpt lat="49.79649" lon="4.83758">
        <ele>232</ele>
        <time>2022-09-28T09:48:07.000Z</time>
      </trkpt>
      <trkpt lat="49.79648" lon="4.83761">
        <ele>232</ele>
        <time>2022-09-28T09:48:08.000Z</time>
      </trkpt>
      <trkpt lat="49.79647" lon="4.83764">
        <ele>232</ele>
        <time>2022-09-28T09:48:09.000Z</time>
      </trkpt>
      <trkpt lat="49.79645" lon="4.83767">
        <ele>232</ele>
        <time>2022-09-28T09:48:10.000Z</time>
      </trkpt>
      <trkpt lat="49.79644" lon="4.8377">
        <ele>232</ele>
        <time>2022-09-28T09:48:11.000Z</time>
      </trkpt>
      <trkpt lat="49.79643" lon="4.83773">
        <ele>232</ele>
        <time>2022-09-28T09:48:12.000Z</time>
      </trkpt>
      <trkpt lat="49.79641" lon="4.83777">
        <ele>232</ele>
        <time>2022-09-28T09:48:13.000Z</time>
      </trkpt>
      <trkpt lat="49.7964" lon="4.83782">
        <ele>232</ele>
        <time>2022-09-28T09:48:14.000Z</time>
      </trkpt>
      <trkpt lat="49.79638" lon="4.83787">
        <ele>232</ele>
        <time>2022-09-28T09:48:15.000Z</time>
      </trkpt>
      <trkpt lat="49.79635" lon="4.83791">
        <ele>232</ele>
        <time>2022-09-28T09:48:16.000Z</time>
      </trkpt>
      <trkpt lat="49.79633" lon="4.83795">
        <ele>232</ele>
        <time>2022-09-28T09:48:17.000Z</time>
      </trkpt>
      <trkpt lat="49.79632" lon="4.83798">
        <ele>232</ele>
        <time>2022-09-28T09:48:18.000Z</time>
      </trkpt>
      <trkpt lat="49.7963" lon="4.83802">
        <ele>232</ele>
        <time>2022-09-28T09:48:19.000Z</time>
      </trkpt>
      <trkpt lat="49.79629" lon="4.83805">
        <ele>232</ele>
        <time>2022-09-28T09:48:20.000Z</time>
      </trkpt>
      <trkpt lat="49.79627" lon="4.83809">
        <ele>232</ele>
        <time>2022-09-28T09:48:21.000Z</time>
      </trkpt>
      <trkpt lat="49.79626" lon="4.83812">
        <ele>232</ele>
        <time>2022-09-28T09:48:22.000Z</time>
      </trkpt>
      <trkpt lat="49.79624" lon="4.83815">
        <ele>232</ele>
        <time>2022-09-28T09:48:23.000Z</time>
      </trkpt>
      <trkpt lat="49.79622" lon="4.83818">
        <ele>232</ele>
        <time>2022-09-28T09:48:24.000Z</time>
      </trkpt>
      <trkpt lat="49.79621" lon="4.83821">
        <ele>232</ele>
        <time>2022-09-28T09:48:25.000Z</time>
      </trkpt>
      <trkpt lat="49.79619" lon="4.83825">
        <ele>232</ele>
        <time>2022-09-28T09:48:26.000Z</time>
      </trkpt>
      <trkpt lat="49.79617" lon="4.83829">
        <ele>232</ele>
        <time>2022-09-28T09:48:27.000Z</time>
      </trkpt>
      <trkpt lat="49.79615" lon="4.83833">
        <ele>232</ele>
        <time>2022-09-28T09:48:28.000Z</time>
      </trkpt>
      <trkpt lat="49.79613" lon="4.83837">
        <ele>232</ele>
        <time>2022-09-28T09:48:29.000Z</time>
      </trkpt>
      <trkpt lat="49.79611" lon="4.83841">
        <ele>232</ele>
        <time>2022-09-28T09:48:30.000Z</time>
      </trkpt>
      <trkpt lat="49.79608" lon="4.83845">
        <ele>232</ele>
        <time>2022-09-28T09:48:31.000Z</time>
      </trkpt>
      <trkpt lat="49.79606" lon="4.83849">
        <ele>232</ele>
        <time>2022-09-28T09:48:32.000Z</time>
      </trkpt>
      <trkpt lat="49.79604" lon="4.83853">
        <ele>232</ele>
        <time>2022-09-28T09:48:33.000Z</time>
      </trkpt>
      <trkpt lat="49.79602" lon="4.83857">
        <ele>232</ele>
        <time>2022-09-28T09:48:34.000Z</time>
      </trkpt>
      <trkpt lat="49.79601" lon="4.83861">
        <ele>232</ele>
        <time>2022-09-28T09:48:35.000Z</time>
      </trkpt>
      <trkpt lat="49.79599" lon="4.83865">
        <ele>232</ele>
        <time>2022-09-28T09:48:36.000Z</time>
      </trkpt>
      <trkpt lat="49.79597" lon="4.83869">
        <ele>232</ele>
        <time>2022-09-28T09:48:37.000Z</time>
      </trkpt>
      <trkpt lat="49.79596" lon="4.83873">
        <ele>232</ele>
        <time>2022-09-28T09:48:38.000Z</time>
      </trkpt>
      <trkpt lat="49.79595" lon="4.83877">
        <ele>232</ele>
        <time>2022-09-28T09:48:39.000Z</time>
      </trkpt>
      <trkpt lat="49.79593" lon="4.83881">
        <ele>232</ele>
        <time>2022-09-28T09:48:40.000Z</time>
      </trkpt>
      <trkpt lat="49.79591" lon="4.83884">
        <ele>232</ele>
        <time>2022-09-28T09:48:41.000Z</time>
      </trkpt>
      <trkpt lat="49.79589" lon="4.83888">
        <ele>232</ele>
        <time>2022-09-28T09:48:42.000Z</time>
      </trkpt>
      <trkpt lat="49.79587" lon="4.83891">
        <ele>232</ele>
        <time>2022-09-28T09:48:43.000Z</time>
      </trkpt>
      <trkpt lat="49.79585" lon="4.83895">
        <ele>233</ele>
        <time>2022-09-28T09:48:44.000Z</time>
      </trkpt>
      <trkpt lat="49.79583" lon="4.83899">
        <ele>233</ele>
        <time>2022-09-28T09:48:45.000Z</time>
      </trkpt>
      <trkpt lat="49.79581" lon="4.83902">
        <ele>233</ele>
        <time>2022-09-28T09:48:46.000Z</time>
      </trkpt>
      <trkpt lat="49.79579" lon="4.83906">
        <ele>233</ele>
        <time>2022-09-28T09:48:47.000Z</time>
      </trkpt>
      <trkpt lat="49.79577" lon="4.8391">
        <ele>233</ele>
        <time>2022-09-28T09:48:48.000Z</time>
      </trkpt>
      <trkpt lat="49.79575" lon="4.83913">
        <ele>233</ele>
        <time>2022-09-28T09:48:49.000Z</time>
      </trkpt>
      <trkpt lat="49.79573" lon="4.83917">
        <ele>233</ele>
        <time>2022-09-28T09:48:50.000Z</time>
      </trkpt>
      <trkpt lat="49.79572" lon="4.83921">
        <ele>234</ele>
        <time>2022-09-28T09:48:51.000Z</time>
      </trkpt>
      <trkpt lat="49.7957" lon="4.83926">
        <ele>234</ele>
        <time>2022-09-28T09:48:52.000Z</time>
      </trkpt>
      <trkpt lat="49.79569" lon="4.8393">
        <ele>234</ele>
        <time>2022-09-28T09:48:53.000Z</time>
      </trkpt>
      <trkpt lat="49.79567" lon="4.83935">
        <ele>234</ele>
        <time>2022-09-28T09:48:54.000Z</time>
      </trkpt>
      <trkpt lat="49.79565" lon="4.83939">
        <ele>234</ele>
        <time>2022-09-28T09:48:55.000Z</time>
      </trkpt>
      <trkpt lat="49.79564" lon="4.83944">
        <ele>234</ele>
        <time>2022-09-28T09:48:56.000Z</time>
      </trkpt>
      <trkpt lat="49.79563" lon="4.83948">
        <ele>234</ele>
        <time>2022-09-28T09:48:57.000Z</time>
      </trkpt>
      <trkpt lat="49.79561" lon="4.83952">
        <ele>234</ele>
        <time>2022-09-28T09:48:58.000Z</time>
      </trkpt>
      <trkpt lat="49.7956" lon="4.83956">
        <ele>234</ele>
        <time>2022-09-28T09:48:59.000Z</time>
      </trkpt>
      <trkpt lat="49.79558" lon="4.8396">
        <ele>234</ele>
        <time>2022-09-28T09:49:00.000Z</time>
      </trkpt>
      <trkpt lat="49.79556" lon="4.83963">
        <ele>234</ele>
        <time>2022-09-28T09:49:01.000Z</time>
      </trkpt>
      <trkpt lat="49.79555" lon="4.83966">
        <ele>234</ele>
        <time>2022-09-28T09:49:02.000Z</time>
      </trkpt>
      <trkpt lat="49.79554" lon="4.83968">
        <ele>234</ele>
        <time>2022-09-28T09:49:03.000Z</time>
      </trkpt>
      <trkpt lat="49.79553" lon="4.8397">
        <ele>234</ele>
        <time>2022-09-28T09:49:04.000Z</time>
      </trkpt>
      <trkpt lat="49.79552" lon="4.83973">
        <ele>234</ele>
        <time>2022-09-28T09:49:05.000Z</time>
      </trkpt>
      <trkpt lat="49.79551" lon="4.83976">
        <ele>234</ele>
        <time>2022-09-28T09:49:06.000Z</time>
      </trkpt>
      <trkpt lat="49.79549" lon="4.8398">
        <ele>234</ele>
        <time>2022-09-28T09:49:07.000Z</time>
      </trkpt>
      <trkpt lat="49.79547" lon="4.83984">
        <ele>234</ele>
        <time>2022-09-28T09:49:08.000Z</time>
      </trkpt>
      <trkpt lat="49.79546" lon="4.83988">
        <ele>235</ele>
        <time>2022-09-28T09:49:09.000Z</time>
      </trkpt>
      <trkpt lat="49.79544" lon="4.83992">
        <ele>235</ele>
        <time>2022-09-28T09:49:10.000Z</time>
      </trkpt>
      <trkpt lat="49.79542" lon="4.83995">
        <ele>235</ele>
        <time>2022-09-28T09:49:11.000Z</time>
      </trkpt>
      <trkpt lat="49.7954" lon="4.83999">
        <ele>235</ele>
        <time>2022-09-28T09:49:12.000Z</time>
      </trkpt>
      <trkpt lat="49.79539" lon="4.84003">
        <ele>235</ele>
        <time>2022-09-28T09:49:13.000Z</time>
      </trkpt>
      <trkpt lat="49.79537" lon="4.84007">
        <ele>235</ele>
        <time>2022-09-28T09:49:14.000Z</time>
      </trkpt>
      <trkpt lat="49.79535" lon="4.8401">
        <ele>235</ele>
        <time>2022-09-28T09:49:15.000Z</time>
      </trkpt>
      <trkpt lat="49.79533" lon="4.84014">
        <ele>235</ele>
        <time>2022-09-28T09:49:16.000Z</time>
      </trkpt>
      <trkpt lat="49.79531" lon="4.84018">
        <ele>235</ele>
        <time>2022-09-28T09:49:17.000Z</time>
      </trkpt>
      <trkpt lat="49.79529" lon="4.84022">
        <ele>235</ele>
        <time>2022-09-28T09:49:18.000Z</time>
      </trkpt>
      <trkpt lat="49.79527" lon="4.84026">
        <ele>235</ele>
        <time>2022-09-28T09:49:19.000Z</time>
      </trkpt>
      <trkpt lat="49.79525" lon="4.8403">
        <ele>235</ele>
        <time>2022-09-28T09:49:20.000Z</time>
      </trkpt>
      <trkpt lat="49.79523" lon="4.84034">
        <ele>235</ele>
        <time>2022-09-28T09:49:21.000Z</time>
      </trkpt>
      <trkpt lat="49.79522" lon="4.84038">
        <ele>235</ele>
        <time>2022-09-28T09:49:22.000Z</time>
      </trkpt>
      <trkpt lat="49.7952" lon="4.84043">
        <ele>235</ele>
        <time>2022-09-28T09:49:23.000Z</time>
      </trkpt>
      <trkpt lat="49.79518" lon="4.84047">
        <ele>235</ele>
        <time>2022-09-28T09:49:24.000Z</time>
      </trkpt>
      <trkpt lat="49.79517" lon="4.8405">
        <ele>235</ele>
        <time>2022-09-28T09:49:25.000Z</time>
      </trkpt>
      <trkpt lat="49.79515" lon="4.84054">
        <ele>235</ele>
        <time>2022-09-28T09:49:26.000Z</time>
      </trkpt>
      <trkpt lat="49.79514" lon="4.84056">
        <ele>235</ele>
        <time>2022-09-28T09:49:27.000Z</time>
      </trkpt>
      <trkpt lat="49.79513" lon="4.8406">
        <ele>235</ele>
        <time>2022-09-28T09:49:28.000Z</time>
      </trkpt>
      <trkpt lat="49.79512" lon="4.84063">
        <ele>235</ele>
        <time>2022-09-28T09:49:29.000Z</time>
      </trkpt>
      <trkpt lat="49.79511" lon="4.84066">
        <ele>236</ele>
        <time>2022-09-28T09:49:30.000Z</time>
      </trkpt>
      <trkpt lat="49.7951" lon="4.84071">
        <ele>236</ele>
        <time>2022-09-28T09:49:31.000Z</time>
      </trkpt>
      <trkpt lat="49.79509" lon="4.84074">
        <ele>236</ele>
        <time>2022-09-28T09:49:32.000Z</time>
      </trkpt>
      <trkpt lat="49.79508" lon="4.84077">
        <ele>236</ele>
        <time>2022-09-28T09:49:33.000Z</time>
      </trkpt>
      <trkpt lat="49.79508" lon="4.84081">
        <ele>236</ele>
        <time>2022-09-28T09:49:34.000Z</time>
      </trkpt>
      <trkpt lat="49.79507" lon="4.84085">
        <ele>236</ele>
        <time>2022-09-28T09:49:35.000Z</time>
      </trkpt>
      <trkpt lat="49.79507" lon="4.84089">
        <ele>236</ele>
        <time>2022-09-28T09:49:36.000Z</time>
      </trkpt>
      <trkpt lat="49.79506" lon="4.84094">
        <ele>236</ele>
        <time>2022-09-28T09:49:37.000Z</time>
      </trkpt>
      <trkpt lat="49.79507" lon="4.84098">
        <ele>236</ele>
        <time>2022-09-28T09:49:38.000Z</time>
      </trkpt>
      <trkpt lat="49.79507" lon="4.84103">
        <ele>237</ele>
        <time>2022-09-28T09:49:39.000Z</time>
      </trkpt>
      <trkpt lat="49.79506" lon="4.84107">
        <ele>237</ele>
        <time>2022-09-28T09:49:40.000Z</time>
      </trkpt>
      <trkpt lat="49.79506" lon="4.8411">
        <ele>237</ele>
        <time>2022-09-28T09:49:41.000Z</time>
      </trkpt>
      <trkpt lat="49.79506" lon="4.84114">
        <ele>237</ele>
        <time>2022-09-28T09:49:42.000Z</time>
      </trkpt>
      <trkpt lat="49.79506" lon="4.84119">
        <ele>237</ele>
        <time>2022-09-28T09:49:43.000Z</time>
      </trkpt>
      <trkpt lat="49.79506" lon="4.84123">
        <ele>238</ele>
        <time>2022-09-28T09:49:44.000Z</time>
      </trkpt>
      <trkpt lat="49.79506" lon="4.84127">
        <ele>238</ele>
        <time>2022-09-28T09:49:45.000Z</time>
      </trkpt>
      <trkpt lat="49.79505" lon="4.84131">
        <ele>238</ele>
        <time>2022-09-28T09:49:46.000Z</time>
      </trkpt>
      <trkpt lat="49.79505" lon="4.84134">
        <ele>238</ele>
        <time>2022-09-28T09:49:47.000Z</time>
      </trkpt>
      <trkpt lat="49.79504" lon="4.84138">
        <ele>238</ele>
        <time>2022-09-28T09:49:48.000Z</time>
      </trkpt>
      <trkpt lat="49.79504" lon="4.84141">
        <ele>238</ele>
        <time>2022-09-28T09:49:49.000Z</time>
      </trkpt>
      <trkpt lat="49.79504" lon="4.84145">
        <ele>239</ele>
        <time>2022-09-28T09:49:50.000Z</time>
      </trkpt>
      <trkpt lat="49.79504" lon="4.84149">
        <ele>239</ele>
        <time>2022-09-28T09:49:51.000Z</time>
      </trkpt>
      <trkpt lat="49.79503" lon="4.84153">
        <ele>239</ele>
        <time>2022-09-28T09:49:52.000Z</time>
      </trkpt>
      <trkpt lat="49.79504" lon="4.84156">
        <ele>239</ele>
        <time>2022-09-28T09:49:53.000Z</time>
      </trkpt>
      <trkpt lat="49.79504" lon="4.8416">
        <ele>239</ele>
        <time>2022-09-28T09:49:54.000Z</time>
      </trkpt>
      <trkpt lat="49.79503" lon="4.84164">
        <ele>240</ele>
        <time>2022-09-28T09:49:55.000Z</time>
      </trkpt>
      <trkpt lat="49.79504" lon="4.84169">
        <ele>240</ele>
        <time>2022-09-28T09:49:56.000Z</time>
      </trkpt>
      <trkpt lat="49.79504" lon="4.84173">
        <ele>240</ele>
        <time>2022-09-28T09:49:57.000Z</time>
      </trkpt>
      <trkpt lat="49.79504" lon="4.84178">
        <ele>240</ele>
        <time>2022-09-28T09:49:58.000Z</time>
      </trkpt>
      <trkpt lat="49.79504" lon="4.84182">
        <ele>240</ele>
        <time>2022-09-28T09:49:59.000Z</time>
      </trkpt>
      <trkpt lat="49.79505" lon="4.84187">
        <ele>240</ele>
        <time>2022-09-28T09:50:00.000Z</time>
      </trkpt>
      <trkpt lat="49.79505" lon="4.84192">
        <ele>241</ele>
        <time>2022-09-28T09:50:01.000Z</time>
      </trkpt>
      <trkpt lat="49.79506" lon="4.84196">
        <ele>241</ele>
        <time>2022-09-28T09:50:02.000Z</time>
      </trkpt>
      <trkpt lat="49.79506" lon="4.84201">
        <ele>241</ele>
        <time>2022-09-28T09:50:03.000Z</time>
      </trkpt>
      <trkpt lat="49.79507" lon="4.84205">
        <ele>241</ele>
        <time>2022-09-28T09:50:04.000Z</time>
      </trkpt>
      <trkpt lat="49.79507" lon="4.84208">
        <ele>241</ele>
        <time>2022-09-28T09:50:05.000Z</time>
      </trkpt>
      <trkpt lat="49.79508" lon="4.84212">
        <ele>241</ele>
        <time>2022-09-28T09:50:06.000Z</time>
      </trkpt>
      <trkpt lat="49.79509" lon="4.84215">
        <ele>241</ele>
        <time>2022-09-28T09:50:07.000Z</time>
      </trkpt>
      <trkpt lat="49.7951" lon="4.84219">
        <ele>241</ele>
        <time>2022-09-28T09:50:08.000Z</time>
      </trkpt>
      <trkpt lat="49.79511" lon="4.84223">
        <ele>241</ele>
        <time>2022-09-28T09:50:09.000Z</time>
      </trkpt>
      <trkpt lat="49.79512" lon="4.84226">
        <ele>242</ele>
        <time>2022-09-28T09:50:10.000Z</time>
      </trkpt>
      <trkpt lat="49.79513" lon="4.8423">
        <ele>242</ele>
        <time>2022-09-28T09:50:11.000Z</time>
      </trkpt>
      <trkpt lat="49.79514" lon="4.84233">
        <ele>242</ele>
        <time>2022-09-28T09:50:12.000Z</time>
      </trkpt>
      <trkpt lat="49.79514" lon="4.84236">
        <ele>242</ele>
        <time>2022-09-28T09:50:13.000Z</time>
      </trkpt>
      <trkpt lat="49.79515" lon="4.84239">
        <ele>242</ele>
        <time>2022-09-28T09:50:14.000Z</time>
      </trkpt>
      <trkpt lat="49.79515" lon="4.84242">
        <ele>242</ele>
        <time>2022-09-28T09:50:15.000Z</time>
      </trkpt>
      <trkpt lat="49.79516" lon="4.84244">
        <ele>242</ele>
        <time>2022-09-28T09:50:16.000Z</time>
      </trkpt>
      <trkpt lat="49.79516" lon="4.84247">
        <ele>242</ele>
        <time>2022-09-28T09:50:17.000Z</time>
      </trkpt>
      <trkpt lat="49.79516" lon="4.84249">
        <ele>242</ele>
        <time>2022-09-28T09:50:18.000Z</time>
      </trkpt>
      <trkpt lat="49.79517" lon="4.84252">
        <ele>242</ele>
        <time>2022-09-28T09:50:19.000Z</time>
      </trkpt>
      <trkpt lat="49.79518" lon="4.84254">
        <ele>243</ele>
        <time>2022-09-28T09:50:20.000Z</time>
      </trkpt>
      <trkpt lat="49.79518" lon="4.84256">
        <ele>243</ele>
        <time>2022-09-28T09:50:21.000Z</time>
      </trkpt>
      <trkpt lat="49.79519" lon="4.84258">
        <ele>243</ele>
        <time>2022-09-28T09:50:22.000Z</time>
      </trkpt>
      <trkpt lat="49.79519" lon="4.84259">
        <ele>244</ele>
        <time>2022-09-28T09:50:23.000Z</time>
      </trkpt>
      <trkpt lat="49.7952" lon="4.84261">
        <ele>244</ele>
        <time>2022-09-28T09:50:24.000Z</time>
      </trkpt>
      <trkpt lat="49.79521" lon="4.84264">
        <ele>244</ele>
        <time>2022-09-28T09:50:25.000Z</time>
      </trkpt>
      <trkpt lat="49.79522" lon="4.84266">
        <ele>245</ele>
        <time>2022-09-28T09:50:26.000Z</time>
      </trkpt>
      <trkpt lat="49.79523" lon="4.84268">
        <ele>245</ele>
        <time>2022-09-28T09:50:27.000Z</time>
      </trkpt>
      <trkpt lat="49.79523" lon="4.84271">
        <ele>245</ele>
        <time>2022-09-28T09:50:28.000Z</time>
      </trkpt>
      <trkpt lat="49.79525" lon="4.84274">
        <ele>246</ele>
        <time>2022-09-28T09:50:29.000Z</time>
      </trkpt>
      <trkpt lat="49.79526" lon="4.84276">
        <ele>246</ele>
        <time>2022-09-28T09:50:30.000Z</time>
      </trkpt>
      <trkpt lat="49.79527" lon="4.84279">
        <ele>246</ele>
        <time>2022-09-28T09:50:31.000Z</time>
      </trkpt>
      <trkpt lat="49.79529" lon="4.84282">
        <ele>247</ele>
        <time>2022-09-28T09:50:32.000Z</time>
      </trkpt>
      <trkpt lat="49.7953" lon="4.84285">
        <ele>247</ele>
        <time>2022-09-28T09:50:33.000Z</time>
      </trkpt>
      <trkpt lat="49.79531" lon="4.84289">
        <ele>247</ele>
        <time>2022-09-28T09:50:34.000Z</time>
      </trkpt>
      <trkpt lat="49.79532" lon="4.84292">
        <ele>248</ele>
        <time>2022-09-28T09:50:35.000Z</time>
      </trkpt>
      <trkpt lat="49.79533" lon="4.84295">
        <ele>248</ele>
        <time>2022-09-28T09:50:36.000Z</time>
      </trkpt>
      <trkpt lat="49.79534" lon="4.84299">
        <ele>248</ele>
        <time>2022-09-28T09:50:37.000Z</time>
      </trkpt>
      <trkpt lat="49.79535" lon="4.84302">
        <ele>248</ele>
        <time>2022-09-28T09:50:38.000Z</time>
      </trkpt>
      <trkpt lat="49.79537" lon="4.84305">
        <ele>249</ele>
        <time>2022-09-28T09:50:39.000Z</time>
      </trkpt>
      <trkpt lat="49.79538" lon="4.84308">
        <ele>249</ele>
        <time>2022-09-28T09:50:40.000Z</time>
      </trkpt>
      <trkpt lat="49.7954" lon="4.84311">
        <ele>249</ele>
        <time>2022-09-28T09:50:41.000Z</time>
      </trkpt>
      <trkpt lat="49.79541" lon="4.84314">
        <ele>249</ele>
        <time>2022-09-28T09:50:42.000Z</time>
      </trkpt>
      <trkpt lat="49.79542" lon="4.84317">
        <ele>249</ele>
        <time>2022-09-28T09:50:43.000Z</time>
      </trkpt>
      <trkpt lat="49.79543" lon="4.8432">
        <ele>249</ele>
        <time>2022-09-28T09:50:44.000Z</time>
      </trkpt>
      <trkpt lat="49.79544" lon="4.84323">
        <ele>249</ele>
        <time>2022-09-28T09:50:45.000Z</time>
      </trkpt>
      <trkpt lat="49.79545" lon="4.84327">
        <ele>249</ele>
        <time>2022-09-28T09:50:46.000Z</time>
      </trkpt>
      <trkpt lat="49.79546" lon="4.8433">
        <ele>249</ele>
        <time>2022-09-28T09:50:47.000Z</time>
      </trkpt>
      <trkpt lat="49.79547" lon="4.84333">
        <ele>249</ele>
        <time>2022-09-28T09:50:48.000Z</time>
      </trkpt>
      <trkpt lat="49.79549" lon="4.84336">
        <ele>250</ele>
        <time>2022-09-28T09:50:49.000Z</time>
      </trkpt>
      <trkpt lat="49.7955" lon="4.84339">
        <ele>250</ele>
        <time>2022-09-28T09:50:50.000Z</time>
      </trkpt>
      <trkpt lat="49.79551" lon="4.84342">
        <ele>250</ele>
        <time>2022-09-28T09:50:51.000Z</time>
      </trkpt>
      <trkpt lat="49.79553" lon="4.84345">
        <ele>250</ele>
        <time>2022-09-28T09:50:52.000Z</time>
      </trkpt>
      <trkpt lat="49.79553" lon="4.84348">
        <ele>250</ele>
        <time>2022-09-28T09:50:53.000Z</time>
      </trkpt>
      <trkpt lat="49.79554" lon="4.84352">
        <ele>250</ele>
        <time>2022-09-28T09:50:54.000Z</time>
      </trkpt>
      <trkpt lat="49.79555" lon="4.84356">
        <ele>250</ele>
        <time>2022-09-28T09:50:55.000Z</time>
      </trkpt>
      <trkpt lat="49.79556" lon="4.8436">
        <ele>251</ele>
        <time>2022-09-28T09:50:56.000Z</time>
      </trkpt>
      <trkpt lat="49.79557" lon="4.84364">
        <ele>251</ele>
        <time>2022-09-28T09:50:57.000Z</time>
      </trkpt>
      <trkpt lat="49.79559" lon="4.84367">
        <ele>251</ele>
        <time>2022-09-28T09:50:58.000Z</time>
      </trkpt>
      <trkpt lat="49.7956" lon="4.8437">
        <ele>251</ele>
        <time>2022-09-28T09:50:59.000Z</time>
      </trkpt>
      <trkpt lat="49.79561" lon="4.84373">
        <ele>252</ele>
        <time>2022-09-28T09:51:00.000Z</time>
      </trkpt>
      <trkpt lat="49.79562" lon="4.84376">
        <ele>252</ele>
        <time>2022-09-28T09:51:01.000Z</time>
      </trkpt>
      <trkpt lat="49.79563" lon="4.84379">
        <ele>252</ele>
        <time>2022-09-28T09:51:02.000Z</time>
      </trkpt>
      <trkpt lat="49.79564" lon="4.84382">
        <ele>252</ele>
        <time>2022-09-28T09:51:03.000Z</time>
      </trkpt>
      <trkpt lat="49.79565" lon="4.84385">
        <ele>253</ele>
        <time>2022-09-28T09:51:04.000Z</time>
      </trkpt>
      <trkpt lat="49.79565" lon="4.84389">
        <ele>253</ele>
        <time>2022-09-28T09:51:05.000Z</time>
      </trkpt>
      <trkpt lat="49.79566" lon="4.84392">
        <ele>253</ele>
        <time>2022-09-28T09:51:06.000Z</time>
      </trkpt>
      <trkpt lat="49.79567" lon="4.84396">
        <ele>253</ele>
        <time>2022-09-28T09:51:07.000Z</time>
      </trkpt>
      <trkpt lat="49.79568" lon="4.84399">
        <ele>253</ele>
        <time>2022-09-28T09:51:08.000Z</time>
      </trkpt>
      <trkpt lat="49.79568" lon="4.84403">
        <ele>253</ele>
        <time>2022-09-28T09:51:09.000Z</time>
      </trkpt>
      <trkpt lat="49.79569" lon="4.84406">
        <ele>254</ele>
        <time>2022-09-28T09:51:10.000Z</time>
      </trkpt>
      <trkpt lat="49.79569" lon="4.84409">
        <ele>254</ele>
        <time>2022-09-28T09:51:11.000Z</time>
      </trkpt>
      <trkpt lat="49.79569" lon="4.84412">
        <ele>254</ele>
        <time>2022-09-28T09:51:12.000Z</time>
      </trkpt>
      <trkpt lat="49.7957" lon="4.84415">
        <ele>254</ele>
        <time>2022-09-28T09:51:13.000Z</time>
      </trkpt>
      <trkpt lat="49.7957" lon="4.84418">
        <ele>254</ele>
        <time>2022-09-28T09:51:14.000Z</time>
      </trkpt>
      <trkpt lat="49.7957" lon="4.8442">
        <ele>254</ele>
        <time>2022-09-28T09:51:15.000Z</time>
      </trkpt>
      <trkpt lat="49.7957" lon="4.84422">
        <ele>255</ele>
        <time>2022-09-28T09:51:16.000Z</time>
      </trkpt>
      <trkpt lat="49.79571" lon="4.84425">
        <ele>255</ele>
        <time>2022-09-28T09:51:17.000Z</time>
      </trkpt>
      <trkpt lat="49.79572" lon="4.84427">
        <ele>255</ele>
        <time>2022-09-28T09:51:18.000Z</time>
      </trkpt>
      <trkpt lat="49.79572" lon="4.84429">
        <ele>255</ele>
        <time>2022-09-28T09:51:19.000Z</time>
      </trkpt>
      <trkpt lat="49.79573" lon="4.84431">
        <ele>255</ele>
        <time>2022-09-28T09:51:20.000Z</time>
      </trkpt>
      <trkpt lat="49.79573" lon="4.84434">
        <ele>256</ele>
        <time>2022-09-28T09:51:21.000Z</time>
      </trkpt>
      <trkpt lat="49.79574" lon="4.84437">
        <ele>256</ele>
        <time>2022-09-28T09:51:22.000Z</time>
      </trkpt>
      <trkpt lat="49.79575" lon="4.84441">
        <ele>256</ele>
        <time>2022-09-28T09:51:23.000Z</time>
      </trkpt>
      <trkpt lat="49.79575" lon="4.84444">
        <ele>257</ele>
        <time>2022-09-28T09:51:24.000Z</time>
      </trkpt>
      <trkpt lat="49.79576" lon="4.84447">
        <ele>257</ele>
        <time>2022-09-28T09:51:25.000Z</time>
      </trkpt>
      <trkpt lat="49.79576" lon="4.84451">
        <ele>257</ele>
        <time>2022-09-28T09:51:26.000Z</time>
      </trkpt>
      <trkpt lat="49.79577" lon="4.84455">
        <ele>257</ele>
        <time>2022-09-28T09:51:27.000Z</time>
      </trkpt>
      <trkpt lat="49.79578" lon="4.84459">
        <ele>258</ele>
        <time>2022-09-28T09:51:28.000Z</time>
      </trkpt>
      <trkpt lat="49.79578" lon="4.84463">
        <ele>258</ele>
        <time>2022-09-28T09:51:29.000Z</time>
      </trkpt>
      <trkpt lat="49.79579" lon="4.84466">
        <ele>258</ele>
        <time>2022-09-28T09:51:30.000Z</time>
      </trkpt>
      <trkpt lat="49.79579" lon="4.8447">
        <ele>258</ele>
        <time>2022-09-28T09:51:31.000Z</time>
      </trkpt>
      <trkpt lat="49.79579" lon="4.84474">
        <ele>259</ele>
        <time>2022-09-28T09:51:32.000Z</time>
      </trkpt>
      <trkpt lat="49.79579" lon="4.84477">
        <ele>259</ele>
        <time>2022-09-28T09:51:33.000Z</time>
      </trkpt>
      <trkpt lat="49.7958" lon="4.84481">
        <ele>259</ele>
        <time>2022-09-28T09:51:34.000Z</time>
      </trkpt>
      <trkpt lat="49.7958" lon="4.84484">
        <ele>259</ele>
        <time>2022-09-28T09:51:35.000Z</time>
      </trkpt>
      <trkpt lat="49.7958" lon="4.84487">
        <ele>259</ele>
        <time>2022-09-28T09:51:36.000Z</time>
      </trkpt>
      <trkpt lat="49.79581" lon="4.8449">
        <ele>260</ele>
        <time>2022-09-28T09:51:37.000Z</time>
      </trkpt>
      <trkpt lat="49.79581" lon="4.84493">
        <ele>260</ele>
        <time>2022-09-28T09:51:38.000Z</time>
      </trkpt>
      <trkpt lat="49.79581" lon="4.84496">
        <ele>260</ele>
        <time>2022-09-28T09:51:39.000Z</time>
      </trkpt>
      <trkpt lat="49.79581" lon="4.84499">
        <ele>260</ele>
        <time>2022-09-28T09:51:40.000Z</time>
      </trkpt>
      <trkpt lat="49.79581" lon="4.84503">
        <ele>260</ele>
        <time>2022-09-28T09:51:41.000Z</time>
      </trkpt>
      <trkpt lat="49.79581" lon="4.84506">
        <ele>261</ele>
        <time>2022-09-28T09:51:42.000Z</time>
      </trkpt>
      <trkpt lat="49.79581" lon="4.8451">
        <ele>261</ele>
        <time>2022-09-28T09:51:43.000Z</time>
      </trkpt>
      <trkpt lat="49.79582" lon="4.84513">
        <ele>261</ele>
        <time>2022-09-28T09:51:44.000Z</time>
      </trkpt>
      <trkpt lat="49.79583" lon="4.84517">
        <ele>261</ele>
        <time>2022-09-28T09:51:45.000Z</time>
      </trkpt>
      <trkpt lat="49.79584" lon="4.8452">
        <ele>261</ele>
        <time>2022-09-28T09:51:46.000Z</time>
      </trkpt>
      <trkpt lat="49.79586" lon="4.84524">
        <ele>261</ele>
        <time>2022-09-28T09:51:47.000Z</time>
      </trkpt>
      <trkpt lat="49.79587" lon="4.84527">
        <ele>261</ele>
        <time>2022-09-28T09:51:48.000Z</time>
      </trkpt>
      <trkpt lat="49.79588" lon="4.84531">
        <ele>261</ele>
        <time>2022-09-28T09:51:49.000Z</time>
      </trkpt>
      <trkpt lat="49.79589" lon="4.84534">
        <ele>262</ele>
        <time>2022-09-28T09:51:50.000Z</time>
      </trkpt>
      <trkpt lat="49.7959" lon="4.84537">
        <ele>262</ele>
        <time>2022-09-28T09:51:51.000Z</time>
      </trkpt>
      <trkpt lat="49.79591" lon="4.8454">
        <ele>262</ele>
        <time>2022-09-28T09:51:52.000Z</time>
      </trkpt>
      <trkpt lat="49.79592" lon="4.84543">
        <ele>262</ele>
        <time>2022-09-28T09:51:53.000Z</time>
      </trkpt>
      <trkpt lat="49.79593" lon="4.84546">
        <ele>263</ele>
        <time>2022-09-28T09:51:54.000Z</time>
      </trkpt>
      <trkpt lat="49.79594" lon="4.84549">
        <ele>263</ele>
        <time>2022-09-28T09:51:55.000Z</time>
      </trkpt>
      <trkpt lat="49.79595" lon="4.84552">
        <ele>263</ele>
        <time>2022-09-28T09:51:56.000Z</time>
      </trkpt>
      <trkpt lat="49.79596" lon="4.84555">
        <ele>263</ele>
        <time>2022-09-28T09:51:57.000Z</time>
      </trkpt>
      <trkpt lat="49.79597" lon="4.84558">
        <ele>264</ele>
        <time>2022-09-28T09:51:58.000Z</time>
      </trkpt>
      <trkpt lat="49.79598" lon="4.84561">
        <ele>264</ele>
        <time>2022-09-28T09:51:59.000Z</time>
      </trkpt>
      <trkpt lat="49.79599" lon="4.84564">
        <ele>264</ele>
        <time>2022-09-28T09:52:00.000Z</time>
      </trkpt>
      <trkpt lat="49.796" lon="4.84568">
        <ele>264</ele>
        <time>2022-09-28T09:52:01.000Z</time>
      </trkpt>
      <trkpt lat="49.796" lon="4.84571">
        <ele>265</ele>
        <time>2022-09-28T09:52:02.000Z</time>
      </trkpt>
      <trkpt lat="49.79601" lon="4.84574">
        <ele>265</ele>
        <time>2022-09-28T09:52:03.000Z</time>
      </trkpt>
      <trkpt lat="49.79601" lon="4.84578">
        <ele>265</ele>
        <time>2022-09-28T09:52:04.000Z</time>
      </trkpt>
      <trkpt lat="49.79602" lon="4.84581">
        <ele>265</ele>
        <time>2022-09-28T09:52:05.000Z</time>
      </trkpt>
      <trkpt lat="49.79603" lon="4.84585">
        <ele>265</ele>
        <time>2022-09-28T09:52:06.000Z</time>
      </trkpt>
      <trkpt lat="49.79603" lon="4.84589">
        <ele>265</ele>
        <time>2022-09-28T09:52:07.000Z</time>
      </trkpt>
      <trkpt lat="49.79603" lon="4.84592">
        <ele>266</ele>
        <time>2022-09-28T09:52:08.000Z</time>
      </trkpt>
      <trkpt lat="49.79604" lon="4.84596">
        <ele>266</ele>
        <time>2022-09-28T09:52:09.000Z</time>
      </trkpt>
      <trkpt lat="49.79605" lon="4.84599">
        <ele>266</ele>
        <time>2022-09-28T09:52:10.000Z</time>
      </trkpt>
      <trkpt lat="49.79605" lon="4.84603">
        <ele>266</ele>
        <time>2022-09-28T09:52:11.000Z</time>
      </trkpt>
      <trkpt lat="49.79605" lon="4.84606">
        <ele>266</ele>
        <time>2022-09-28T09:52:12.000Z</time>
      </trkpt>
      <trkpt lat="49.79606" lon="4.8461">
        <ele>266</ele>
        <time>2022-09-28T09:52:13.000Z</time>
      </trkpt>
      <trkpt lat="49.79607" lon="4.84613">
        <ele>267</ele>
        <time>2022-09-28T09:52:14.000Z</time>
      </trkpt>
      <trkpt lat="49.79609" lon="4.84617">
        <ele>267</ele>
        <time>2022-09-28T09:52:15.000Z</time>
      </trkpt>
      <trkpt lat="49.79611" lon="4.8462">
        <ele>267</ele>
        <time>2022-09-28T09:52:16.000Z</time>
      </trkpt>
      <trkpt lat="49.79612" lon="4.84624">
        <ele>267</ele>
        <time>2022-09-28T09:52:17.000Z</time>
      </trkpt>
      <trkpt lat="49.79612" lon="4.84628">
        <ele>268</ele>
        <time>2022-09-28T09:52:18.000Z</time>
      </trkpt>
      <trkpt lat="49.79613" lon="4.84631">
        <ele>268</ele>
        <time>2022-09-28T09:52:19.000Z</time>
      </trkpt>
      <trkpt lat="49.79614" lon="4.84635">
        <ele>268</ele>
        <time>2022-09-28T09:52:20.000Z</time>
      </trkpt>
      <trkpt lat="49.79614" lon="4.84638">
        <ele>269</ele>
        <time>2022-09-28T09:52:21.000Z</time>
      </trkpt>
      <trkpt lat="49.79614" lon="4.84641">
        <ele>269</ele>
        <time>2022-09-28T09:52:22.000Z</time>
      </trkpt>
      <trkpt lat="49.79614" lon="4.84645">
        <ele>270</ele>
        <time>2022-09-28T09:52:23.000Z</time>
      </trkpt>
      <trkpt lat="49.79614" lon="4.84648">
        <ele>270</ele>
        <time>2022-09-28T09:52:24.000Z</time>
      </trkpt>
      <trkpt lat="49.79614" lon="4.84651">
        <ele>271</ele>
        <time>2022-09-28T09:52:25.000Z</time>
      </trkpt>
      <trkpt lat="49.79614" lon="4.84655">
        <ele>271</ele>
        <time>2022-09-28T09:52:26.000Z</time>
      </trkpt>
      <trkpt lat="49.79613" lon="4.84659">
        <ele>272</ele>
        <time>2022-09-28T09:52:27.000Z</time>
      </trkpt>
      <trkpt lat="49.79613" lon="4.84662">
        <ele>272</ele>
        <time>2022-09-28T09:52:28.000Z</time>
      </trkpt>
      <trkpt lat="49.79613" lon="4.84665">
        <ele>273</ele>
        <time>2022-09-28T09:52:29.000Z</time>
      </trkpt>
      <trkpt lat="49.79613" lon="4.84669">
        <ele>273</ele>
        <time>2022-09-28T09:52:30.000Z</time>
      </trkpt>
      <trkpt lat="49.79613" lon="4.84674">
        <ele>273</ele>
        <time>2022-09-28T09:52:31.000Z</time>
      </trkpt>
      <trkpt lat="49.79612" lon="4.84678">
        <ele>274</ele>
        <time>2022-09-28T09:52:32.000Z</time>
      </trkpt>
      <trkpt lat="49.79612" lon="4.84682">
        <ele>274</ele>
        <time>2022-09-28T09:52:33.000Z</time>
      </trkpt>
      <trkpt lat="49.79611" lon="4.84686">
        <ele>274</ele>
        <time>2022-09-28T09:52:34.000Z</time>
      </trkpt>
      <trkpt lat="49.79611" lon="4.84689">
        <ele>275</ele>
        <time>2022-09-28T09:52:35.000Z</time>
      </trkpt>
      <trkpt lat="49.79611" lon="4.84693">
        <ele>275</ele>
        <time>2022-09-28T09:52:36.000Z</time>
      </trkpt>
      <trkpt lat="49.79611" lon="4.84696">
        <ele>276</ele>
        <time>2022-09-28T09:52:37.000Z</time>
      </trkpt>
      <trkpt lat="49.79612" lon="4.847">
        <ele>276</ele>
        <time>2022-09-28T09:52:38.000Z</time>
      </trkpt>
      <trkpt lat="49.79612" lon="4.84704">
        <ele>276</ele>
        <time>2022-09-28T09:52:39.000Z</time>
      </trkpt>
      <trkpt lat="49.79611" lon="4.84708">
        <ele>277</ele>
        <time>2022-09-28T09:52:40.000Z</time>
      </trkpt>
      <trkpt lat="49.79611" lon="4.84711">
        <ele>277</ele>
        <time>2022-09-28T09:52:41.000Z</time>
      </trkpt>
      <trkpt lat="49.79611" lon="4.84714">
        <ele>277</ele>
        <time>2022-09-28T09:52:42.000Z</time>
      </trkpt>
      <trkpt lat="49.79611" lon="4.84718">
        <ele>277</ele>
        <time>2022-09-28T09:52:43.000Z</time>
      </trkpt>
      <trkpt lat="49.79611" lon="4.84722">
        <ele>277</ele>
        <time>2022-09-28T09:52:44.000Z</time>
      </trkpt>
      <trkpt lat="49.7961" lon="4.84726">
        <ele>278</ele>
        <time>2022-09-28T09:52:45.000Z</time>
      </trkpt>
      <trkpt lat="49.7961" lon="4.84729">
        <ele>278</ele>
        <time>2022-09-28T09:52:46.000Z</time>
      </trkpt>
      <trkpt lat="49.79609" lon="4.84732">
        <ele>278</ele>
        <time>2022-09-28T09:52:47.000Z</time>
      </trkpt>
      <trkpt lat="49.79609" lon="4.84736">
        <ele>278</ele>
        <time>2022-09-28T09:52:48.000Z</time>
      </trkpt>
      <trkpt lat="49.79609" lon="4.8474">
        <ele>279</ele>
        <time>2022-09-28T09:52:49.000Z</time>
      </trkpt>
      <trkpt lat="49.79609" lon="4.84744">
        <ele>279</ele>
        <time>2022-09-28T09:52:50.000Z</time>
      </trkpt>
      <trkpt lat="49.79609" lon="4.84748">
        <ele>279</ele>
        <time>2022-09-28T09:52:51.000Z</time>
      </trkpt>
      <trkpt lat="49.7961" lon="4.84751">
        <ele>279</ele>
        <time>2022-09-28T09:52:52.000Z</time>
      </trkpt>
      <trkpt lat="49.7961" lon="4.84755">
        <ele>280</ele>
        <time>2022-09-28T09:52:53.000Z</time>
      </trkpt>
      <trkpt lat="49.7961" lon="4.84759">
        <ele>280</ele>
        <time>2022-09-28T09:52:54.000Z</time>
      </trkpt>
      <trkpt lat="49.79611" lon="4.84762">
        <ele>280</ele>
        <time>2022-09-28T09:52:55.000Z</time>
      </trkpt>
      <trkpt lat="49.79611" lon="4.84766">
        <ele>281</ele>
        <time>2022-09-28T09:52:56.000Z</time>
      </trkpt>
      <trkpt lat="49.79611" lon="4.84771">
        <ele>281</ele>
        <time>2022-09-28T09:52:57.000Z</time>
      </trkpt>
      <trkpt lat="49.79612" lon="4.84775">
        <ele>281</ele>
        <time>2022-09-28T09:52:58.000Z</time>
      </trkpt>
      <trkpt lat="49.79612" lon="4.84779">
        <ele>281</ele>
        <time>2022-09-28T09:52:59.000Z</time>
      </trkpt>
      <trkpt lat="49.79612" lon="4.84783">
        <ele>281</ele>
        <time>2022-09-28T09:53:00.000Z</time>
      </trkpt>
      <trkpt lat="49.79612" lon="4.84788">
        <ele>282</ele>
        <time>2022-09-28T09:53:01.000Z</time>
      </trkpt>
      <trkpt lat="49.79612" lon="4.84792">
        <ele>282</ele>
        <time>2022-09-28T09:53:02.000Z</time>
      </trkpt>
      <trkpt lat="49.79612" lon="4.84796">
        <ele>282</ele>
        <time>2022-09-28T09:53:03.000Z</time>
      </trkpt>
      <trkpt lat="49.79613" lon="4.848">
        <ele>282</ele>
        <time>2022-09-28T09:53:04.000Z</time>
      </trkpt>
      <trkpt lat="49.79612" lon="4.84804">
        <ele>283</ele>
        <time>2022-09-28T09:53:05.000Z</time>
      </trkpt>
      <trkpt lat="49.79612" lon="4.84807">
        <ele>283</ele>
        <time>2022-09-28T09:53:06.000Z</time>
      </trkpt>
      <trkpt lat="49.79612" lon="4.84811">
        <ele>283</ele>
        <time>2022-09-28T09:53:07.000Z</time>
      </trkpt>
      <trkpt lat="49.79612" lon="4.84815">
        <ele>283</ele>
        <time>2022-09-28T09:53:08.000Z</time>
      </trkpt>
      <trkpt lat="49.79613" lon="4.84818">
        <ele>284</ele>
        <time>2022-09-28T09:53:09.000Z</time>
      </trkpt>
      <trkpt lat="49.79613" lon="4.84821">
        <ele>284</ele>
        <time>2022-09-28T09:53:10.000Z</time>
      </trkpt>
      <trkpt lat="49.79613" lon="4.84824">
        <ele>284</ele>
        <time>2022-09-28T09:53:11.000Z</time>
      </trkpt>
      <trkpt lat="49.79614" lon="4.84828">
        <ele>284</ele>
        <time>2022-09-28T09:53:12.000Z</time>
      </trkpt>
      <trkpt lat="49.79615" lon="4.84831">
        <ele>285</ele>
        <time>2022-09-28T09:53:13.000Z</time>
      </trkpt>
      <trkpt lat="49.79615" lon="4.84835">
        <ele>285</ele>
        <time>2022-09-28T09:53:14.000Z</time>
      </trkpt>
      <trkpt lat="49.79615" lon="4.84839">
        <ele>285</ele>
        <time>2022-09-28T09:53:15.000Z</time>
      </trkpt>
      <trkpt lat="49.79616" lon="4.84843">
        <ele>286</ele>
        <time>2022-09-28T09:53:16.000Z</time>
      </trkpt>
      <trkpt lat="49.79616" lon="4.84847">
        <ele>286</ele>
        <time>2022-09-28T09:53:17.000Z</time>
      </trkpt>
      <trkpt lat="49.79616" lon="4.84851">
        <ele>286</ele>
        <time>2022-09-28T09:53:18.000Z</time>
      </trkpt>
      <trkpt lat="49.79616" lon="4.84855">
        <ele>286</ele>
        <time>2022-09-28T09:53:19.000Z</time>
      </trkpt>
      <trkpt lat="49.79616" lon="4.84859">
        <ele>286</ele>
        <time>2022-09-28T09:53:20.000Z</time>
      </trkpt>
      <trkpt lat="49.79616" lon="4.84863">
        <ele>287</ele>
        <time>2022-09-28T09:53:21.000Z</time>
      </trkpt>
      <trkpt lat="49.79616" lon="4.84867">
        <ele>287</ele>
        <time>2022-09-28T09:53:22.000Z</time>
      </trkpt>
      <trkpt lat="49.79616" lon="4.84871">
        <ele>287</ele>
        <time>2022-09-28T09:53:23.000Z</time>
      </trkpt>
      <trkpt lat="49.79616" lon="4.84875">
        <ele>287</ele>
        <time>2022-09-28T09:53:24.000Z</time>
      </trkpt>
      <trkpt lat="49.79616" lon="4.84878">
        <ele>287</ele>
        <time>2022-09-28T09:53:25.000Z</time>
      </trkpt>
      <trkpt lat="49.79615" lon="4.84882">
        <ele>288</ele>
        <time>2022-09-28T09:53:26.000Z</time>
      </trkpt>
      <trkpt lat="49.79615" lon="4.84885">
        <ele>288</ele>
        <time>2022-09-28T09:53:27.000Z</time>
      </trkpt>
      <trkpt lat="49.79615" lon="4.84888">
        <ele>288</ele>
        <time>2022-09-28T09:53:28.000Z</time>
      </trkpt>
      <trkpt lat="49.79615" lon="4.84891">
        <ele>288</ele>
        <time>2022-09-28T09:53:29.000Z</time>
      </trkpt>
      <trkpt lat="49.79616" lon="4.84894">
        <ele>289</ele>
        <time>2022-09-28T09:53:30.000Z</time>
      </trkpt>
      <trkpt lat="49.79616" lon="4.84898">
        <ele>289</ele>
        <time>2022-09-28T09:53:31.000Z</time>
      </trkpt>
      <trkpt lat="49.79616" lon="4.84901">
        <ele>289</ele>
        <time>2022-09-28T09:53:32.000Z</time>
      </trkpt>
      <trkpt lat="49.79617" lon="4.84905">
        <ele>290</ele>
        <time>2022-09-28T09:53:33.000Z</time>
      </trkpt>
      <trkpt lat="49.79617" lon="4.8491">
        <ele>290</ele>
        <time>2022-09-28T09:53:34.000Z</time>
      </trkpt>
      <trkpt lat="49.79618" lon="4.84914">
        <ele>290</ele>
        <time>2022-09-28T09:53:35.000Z</time>
      </trkpt>
      <trkpt lat="49.79619" lon="4.84918">
        <ele>290</ele>
        <time>2022-09-28T09:53:36.000Z</time>
      </trkpt>
      <trkpt lat="49.7962" lon="4.84922">
        <ele>290</ele>
        <time>2022-09-28T09:53:37.000Z</time>
      </trkpt>
      <trkpt lat="49.7962" lon="4.84925">
        <ele>291</ele>
        <time>2022-09-28T09:53:38.000Z</time>
      </trkpt>
      <trkpt lat="49.7962" lon="4.84928">
        <ele>291</ele>
        <time>2022-09-28T09:53:39.000Z</time>
      </trkpt>
      <trkpt lat="49.79619" lon="4.84931">
        <ele>291</ele>
        <time>2022-09-28T09:53:40.000Z</time>
      </trkpt>
      <trkpt lat="49.7962" lon="4.84935">
        <ele>291</ele>
        <time>2022-09-28T09:53:41.000Z</time>
      </trkpt>
      <trkpt lat="49.7962" lon="4.84938">
        <ele>291</ele>
        <time>2022-09-28T09:53:42.000Z</time>
      </trkpt>
      <trkpt lat="49.7962" lon="4.84942">
        <ele>292</ele>
        <time>2022-09-28T09:53:43.000Z</time>
      </trkpt>
      <trkpt lat="49.7962" lon="4.84945">
        <ele>292</ele>
        <time>2022-09-28T09:53:44.000Z</time>
      </trkpt>
      <trkpt lat="49.7962" lon="4.84948">
        <ele>292</ele>
        <time>2022-09-28T09:53:45.000Z</time>
      </trkpt>
      <trkpt lat="49.7962" lon="4.84951">
        <ele>293</ele>
        <time>2022-09-28T09:53:46.000Z</time>
      </trkpt>
      <trkpt lat="49.7962" lon="4.84954">
        <ele>293</ele>
        <time>2022-09-28T09:53:47.000Z</time>
      </trkpt>
      <trkpt lat="49.79619" lon="4.84957">
        <ele>293</ele>
        <time>2022-09-28T09:53:48.000Z</time>
      </trkpt>
      <trkpt lat="49.79619" lon="4.84959">
        <ele>293</ele>
        <time>2022-09-28T09:53:49.000Z</time>
      </trkpt>
      <trkpt lat="49.79618" lon="4.8496">
        <ele>293</ele>
        <time>2022-09-28T09:53:50.000Z</time>
      </trkpt>
      <trkpt lat="49.79617" lon="4.84962">
        <ele>294</ele>
        <time>2022-09-28T09:53:51.000Z</time>
      </trkpt>
      <trkpt lat="49.79616" lon="4.84963">
        <ele>294</ele>
        <time>2022-09-28T09:53:52.000Z</time>
      </trkpt>
      <trkpt lat="49.79615" lon="4.84962">
        <ele>294</ele>
        <time>2022-09-28T09:53:53.000Z</time>
      </trkpt>
      <trkpt lat="49.79612" lon="4.84961">
        <ele>294</ele>
        <time>2022-09-28T09:53:54.000Z</time>
      </trkpt>
      <trkpt lat="49.7961" lon="4.8496">
        <ele>294</ele>
        <time>2022-09-28T09:53:55.000Z</time>
      </trkpt>
      <trkpt lat="49.79608" lon="4.84959">
        <ele>294</ele>
        <time>2022-09-28T09:53:56.000Z</time>
      </trkpt>
      <trkpt lat="49.79606" lon="4.84958">
        <ele>295</ele>
        <time>2022-09-28T09:53:57.000Z</time>
      </trkpt>
      <trkpt lat="49.79604" lon="4.84957">
        <ele>295</ele>
        <time>2022-09-28T09:53:58.000Z</time>
      </trkpt>
      <trkpt lat="49.79602" lon="4.84956">
        <ele>295</ele>
        <time>2022-09-28T09:53:59.000Z</time>
      </trkpt>
      <trkpt lat="49.796" lon="4.84956">
        <ele>295</ele>
        <time>2022-09-28T09:54:00.000Z</time>
      </trkpt>
      <trkpt lat="49.79599" lon="4.84957">
        <ele>295</ele>
        <time>2022-09-28T09:54:01.000Z</time>
      </trkpt>
      <trkpt lat="49.79597" lon="4.84957">
        <ele>295</ele>
        <time>2022-09-28T09:54:02.000Z</time>
      </trkpt>
      <trkpt lat="49.79596" lon="4.84957">
        <ele>295</ele>
        <time>2022-09-28T09:54:03.000Z</time>
      </trkpt>
      <trkpt lat="49.79595" lon="4.84958">
        <ele>295</ele>
        <time>2022-09-28T09:54:04.000Z</time>
      </trkpt>
      <trkpt lat="49.79595" lon="4.84958">
        <ele>296</ele>
        <time>2022-09-28T09:54:05.000Z</time>
      </trkpt>
      <trkpt lat="49.79594" lon="4.84958">
        <ele>296</ele>
        <time>2022-09-28T09:54:06.000Z</time>
      </trkpt>
      <trkpt lat="49.79594" lon="4.84959">
        <ele>296</ele>
        <time>2022-09-28T09:54:07.000Z</time>
      </trkpt>
      <trkpt lat="49.79594" lon="4.84959">
        <ele>296</ele>
        <time>2022-09-28T09:54:08.000Z</time>
      </trkpt>
      <trkpt lat="49.79593" lon="4.8496">
        <ele>296</ele>
        <time>2022-09-28T09:54:09.000Z</time>
      </trkpt>
      <trkpt lat="49.79593" lon="4.84961">
        <ele>296</ele>
        <time>2022-09-28T09:54:10.000Z</time>
      </trkpt>
      <trkpt lat="49.79592" lon="4.84961">
        <ele>296</ele>
        <time>2022-09-28T09:54:11.000Z</time>
      </trkpt>
      <trkpt lat="49.79591" lon="4.84961">
        <ele>296</ele>
        <time>2022-09-28T09:54:12.000Z</time>
      </trkpt>
      <trkpt lat="49.7959" lon="4.84961">
        <ele>296</ele>
        <time>2022-09-28T09:54:13.000Z</time>
      </trkpt>
      <trkpt lat="49.7959" lon="4.84961">
        <ele>296</ele>
        <time>2022-09-28T09:54:14.000Z</time>
      </trkpt>
      <trkpt lat="49.79589" lon="4.84961">
        <ele>296</ele>
        <time>2022-09-28T09:54:15.000Z</time>
      </trkpt>
      <trkpt lat="49.79588" lon="4.84961">
        <ele>296</ele>
        <time>2022-09-28T09:54:16.000Z</time>
      </trkpt>
      <trkpt lat="49.79587" lon="4.8496">
        <ele>296</ele>
        <time>2022-09-28T09:54:17.000Z</time>
      </trkpt>
      <trkpt lat="49.79586" lon="4.8496">
        <ele>296</ele>
        <time>2022-09-28T09:54:18.000Z</time>
      </trkpt>
      <trkpt lat="49.79585" lon="4.8496">
        <ele>296</ele>
        <time>2022-09-28T09:54:19.000Z</time>
      </trkpt>
      <trkpt lat="49.79584" lon="4.8496">
        <ele>296</ele>
        <time>2022-09-28T09:54:20.000Z</time>
      </trkpt>
      <trkpt lat="49.79583" lon="4.8496">
        <ele>296</ele>
        <time>2022-09-28T09:54:21.000Z</time>
      </trkpt>
      <trkpt lat="49.79581" lon="4.84959">
        <ele>296</ele>
        <time>2022-09-28T09:54:22.000Z</time>
      </trkpt>
      <trkpt lat="49.7958" lon="4.84959">
        <ele>296</ele>
        <time>2022-09-28T09:54:23.000Z</time>
      </trkpt>
      <trkpt lat="49.79579" lon="4.84958">
        <ele>296</ele>
        <time>2022-09-28T09:54:24.000Z</time>
      </trkpt>
      <trkpt lat="49.79578" lon="4.84958">
        <ele>296</ele>
        <time>2022-09-28T09:54:25.000Z</time>
      </trkpt>
      <trkpt lat="49.79577" lon="4.84958">
        <ele>296</ele>
        <time>2022-09-28T09:54:26.000Z</time>
      </trkpt>
      <trkpt lat="49.79576" lon="4.84958">
        <ele>296</ele>
        <time>2022-09-28T09:54:27.000Z</time>
      </trkpt>
      <trkpt lat="49.79575" lon="4.84958">
        <ele>296</ele>
        <time>2022-09-28T09:54:28.000Z</time>
      </trkpt>
      <trkpt lat="49.79573" lon="4.84958">
        <ele>296</ele>
        <time>2022-09-28T09:54:29.000Z</time>
      </trkpt>
      <trkpt lat="49.79572" lon="4.84958">
        <ele>296</ele>
        <time>2022-09-28T09:54:30.000Z</time>
      </trkpt>
      <trkpt lat="49.79572" lon="4.84958">
        <ele>296</ele>
        <time>2022-09-28T09:54:31.000Z</time>
      </trkpt>
      <trkpt lat="49.79571" lon="4.84958">
        <ele>296</ele>
        <time>2022-09-28T09:54:32.000Z</time>
      </trkpt>
      <trkpt lat="49.7957" lon="4.84959">
        <ele>296</ele>
        <time>2022-09-28T09:54:33.000Z</time>
      </trkpt>
      <trkpt lat="49.7957" lon="4.84959">
        <ele>296</ele>
        <time>2022-09-28T09:54:34.000Z</time>
      </trkpt>
      <trkpt lat="49.79569" lon="4.84959">
        <ele>296</ele>
        <time>2022-09-28T09:54:35.000Z</time>
      </trkpt>
      <trkpt lat="49.79568" lon="4.84959">
        <ele>296</ele>
        <time>2022-09-28T09:54:36.000Z</time>
      </trkpt>
      <trkpt lat="49.79568" lon="4.84959">
        <ele>296</ele>
        <time>2022-09-28T09:54:37.000Z</time>
      </trkpt>
      <trkpt lat="49.79567" lon="4.84959">
        <ele>297</ele>
        <time>2022-09-28T09:54:38.000Z</time>
      </trkpt>
      <trkpt lat="49.79567" lon="4.84959">
        <ele>297</ele>
        <time>2022-09-28T09:54:39.000Z</time>
      </trkpt>
      <trkpt lat="49.79566" lon="4.84959">
        <ele>297</ele>
        <time>2022-09-28T09:54:40.000Z</time>
      </trkpt>
      <trkpt lat="49.79566" lon="4.84959">
        <ele>297</ele>
        <time>2022-09-28T09:54:41.000Z</time>
      </trkpt>
      <trkpt lat="49.79566" lon="4.84959">
        <ele>296</ele>
        <time>2022-09-28T09:54:42.000Z</time>
      </trkpt>
      <trkpt lat="49.79566" lon="4.84959">
        <ele>296</ele>
        <time>2022-09-28T09:54:43.000Z</time>
      </trkpt>
      <trkpt lat="49.79565" lon="4.84959">
        <ele>296</ele>
        <time>2022-09-28T09:54:44.000Z</time>
      </trkpt>
      <trkpt lat="49.79565" lon="4.84959">
        <ele>296</ele>
        <time>2022-09-28T09:54:45.000Z</time>
      </trkpt>
      <trkpt lat="49.79564" lon="4.84958">
        <ele>296</ele>
        <time>2022-09-28T09:54:46.000Z</time>
      </trkpt>
      <trkpt lat="49.79564" lon="4.84958">
        <ele>296</ele>
        <time>2022-09-28T09:54:47.000Z</time>
      </trkpt>
      <trkpt lat="49.79563" lon="4.84958">
        <ele>297</ele>
        <time>2022-09-28T09:54:48.000Z</time>
      </trkpt>
      <trkpt lat="49.79562" lon="4.84958">
        <ele>297</ele>
        <time>2022-09-28T09:54:49.000Z</time>
      </trkpt>
      <trkpt lat="49.79562" lon="4.84958">
        <ele>297</ele>
        <time>2022-09-28T09:54:50.000Z</time>
      </trkpt>
      <trkpt lat="49.79561" lon="4.84957">
        <ele>297</ele>
        <time>2022-09-28T09:54:51.000Z</time>
      </trkpt>
      <trkpt lat="49.79561" lon="4.84957">
        <ele>297</ele>
        <time>2022-09-28T09:54:52.000Z</time>
      </trkpt>
      <trkpt lat="49.7956" lon="4.84957">
        <ele>297</ele>
        <time>2022-09-28T09:54:53.000Z</time>
      </trkpt>
      <trkpt lat="49.79559" lon="4.84958">
        <ele>297</ele>
        <time>2022-09-28T09:54:54.000Z</time>
      </trkpt>
      <trkpt lat="49.79559" lon="4.84957">
        <ele>297</ele>
        <time>2022-09-28T09:54:55.000Z</time>
      </trkpt>
      <trkpt lat="49.79558" lon="4.84957">
        <ele>297</ele>
        <time>2022-09-28T09:54:56.000Z</time>
      </trkpt>
      <trkpt lat="49.79557" lon="4.84956">
        <ele>296</ele>
        <time>2022-09-28T09:54:57.000Z</time>
      </trkpt>
      <trkpt lat="49.79557" lon="4.84956">
        <ele>296</ele>
        <time>2022-09-28T09:54:58.000Z</time>
      </trkpt>
      <trkpt lat="49.79556" lon="4.84956">
        <ele>296</ele>
        <time>2022-09-28T09:54:59.000Z</time>
      </trkpt>
      <trkpt lat="49.79556" lon="4.84957">
        <ele>296</ele>
        <time>2022-09-28T09:55:00.000Z</time>
      </trkpt>
      <trkpt lat="49.79556" lon="4.84956">
        <ele>296</ele>
        <time>2022-09-28T09:55:01.000Z</time>
      </trkpt>
      <trkpt lat="49.79556" lon="4.84956">
        <ele>296</ele>
        <time>2022-09-28T09:55:02.000Z</time>
      </trkpt>
      <trkpt lat="49.79555" lon="4.84956">
        <ele>296</ele>
        <time>2022-09-28T09:55:03.000Z</time>
      </trkpt>
      <trkpt lat="49.79555" lon="4.84957">
        <ele>296</ele>
        <time>2022-09-28T09:55:04.000Z</time>
      </trkpt>
      <trkpt lat="49.79554" lon="4.84957">
        <ele>296</ele>
        <time>2022-09-28T09:55:05.000Z</time>
      </trkpt>
      <trkpt lat="49.79554" lon="4.84956">
        <ele>296</ele>
        <time>2022-09-28T09:55:06.000Z</time>
      </trkpt>
      <trkpt lat="49.79553" lon="4.84956">
        <ele>296</ele>
        <time>2022-09-28T09:55:07.000Z</time>
      </trkpt>
      <trkpt lat="49.79552" lon="4.84956">
        <ele>296</ele>
        <time>2022-09-28T09:55:08.000Z</time>
      </trkpt>
      <trkpt lat="49.79551" lon="4.84956">
        <ele>297</ele>
        <time>2022-09-28T09:55:09.000Z</time>
      </trkpt>
      <trkpt lat="49.79551" lon="4.84956">
        <ele>297</ele>
        <time>2022-09-28T09:55:10.000Z</time>
      </trkpt>
      <trkpt lat="49.7955" lon="4.84956">
        <ele>297</ele>
        <time>2022-09-28T09:55:11.000Z</time>
      </trkpt>
      <trkpt lat="49.79549" lon="4.84956">
        <ele>297</ele>
        <time>2022-09-28T09:55:12.000Z</time>
      </trkpt>
      <trkpt lat="49.79548" lon="4.84956">
        <ele>297</ele>
        <time>2022-09-28T09:55:13.000Z</time>
      </trkpt>
      <trkpt lat="49.79547" lon="4.84956">
        <ele>297</ele>
        <time>2022-09-28T09:55:14.000Z</time>
      </trkpt>
      <trkpt lat="49.79546" lon="4.84957">
        <ele>297</ele>
        <time>2022-09-28T09:55:15.000Z</time>
      </trkpt>
      <trkpt lat="49.79546" lon="4.84957">
        <ele>297</ele>
        <time>2022-09-28T09:55:16.000Z</time>
      </trkpt>
      <trkpt lat="49.79545" lon="4.84957">
        <ele>298</ele>
        <time>2022-09-28T09:55:17.000Z</time>
      </trkpt>
      <trkpt lat="49.79544" lon="4.84957">
        <ele>298</ele>
        <time>2022-09-28T09:55:18.000Z</time>
      </trkpt>
      <trkpt lat="49.79544" lon="4.84957">
        <ele>298</ele>
        <time>2022-09-28T09:55:19.000Z</time>
      </trkpt>
      <trkpt lat="49.79544" lon="4.84957">
        <ele>298</ele>
        <time>2022-09-28T09:55:20.000Z</time>
      </trkpt>
      <trkpt lat="49.79544" lon="4.84957">
        <ele>298</ele>
        <time>2022-09-28T09:55:21.000Z</time>
      </trkpt>
      <trkpt lat="49.79544" lon="4.84957">
        <ele>298</ele>
        <time>2022-09-28T09:55:22.000Z</time>
      </trkpt>
      <trkpt lat="49.79543" lon="4.84957">
        <ele>298</ele>
        <time>2022-09-28T09:55:23.000Z</time>
      </trkpt>
      <trkpt lat="49.79543" lon="4.84956">
        <ele>298</ele>
        <time>2022-09-28T09:55:24.000Z</time>
      </trkpt>
      <trkpt lat="49.79542" lon="4.84956">
        <ele>298</ele>
        <time>2022-09-28T09:55:25.000Z</time>
      </trkpt>
      <trkpt lat="49.79542" lon="4.84955">
        <ele>298</ele>
        <time>2022-09-28T09:55:26.000Z</time>
      </trkpt>
      <trkpt lat="49.79541" lon="4.84955">
        <ele>299</ele>
        <time>2022-09-28T09:55:27.000Z</time>
      </trkpt>
      <trkpt lat="49.7954" lon="4.84955">
        <ele>299</ele>
        <time>2022-09-28T09:55:28.000Z</time>
      </trkpt>
      <trkpt lat="49.79539" lon="4.84954">
        <ele>299</ele>
        <time>2022-09-28T09:55:29.000Z</time>
      </trkpt>
      <trkpt lat="49.79539" lon="4.84954">
        <ele>299</ele>
        <time>2022-09-28T09:55:30.000Z</time>
      </trkpt>
      <trkpt lat="49.79538" lon="4.84954">
        <ele>299</ele>
        <time>2022-09-28T09:55:31.000Z</time>
      </trkpt>
      <trkpt lat="49.79537" lon="4.84954">
        <ele>300</ele>
        <time>2022-09-28T09:55:32.000Z</time>
      </trkpt>
      <trkpt lat="49.79536" lon="4.84954">
        <ele>300</ele>
        <time>2022-09-28T09:55:33.000Z</time>
      </trkpt>
      <trkpt lat="49.79535" lon="4.84954">
        <ele>300</ele>
        <time>2022-09-28T09:55:34.000Z</time>
      </trkpt>
      <trkpt lat="49.79534" lon="4.84954">
        <ele>301</ele>
        <time>2022-09-28T09:55:35.000Z</time>
      </trkpt>
      <trkpt lat="49.79534" lon="4.84953">
        <ele>301</ele>
        <time>2022-09-28T09:55:36.000Z</time>
      </trkpt>
      <trkpt lat="49.79533" lon="4.84953">
        <ele>301</ele>
        <time>2022-09-28T09:55:37.000Z</time>
      </trkpt>
      <trkpt lat="49.79533" lon="4.84953">
        <ele>301</ele>
        <time>2022-09-28T09:55:38.000Z</time>
      </trkpt>
      <trkpt lat="49.79532" lon="4.84953">
        <ele>302</ele>
        <time>2022-09-28T09:55:39.000Z</time>
      </trkpt>
      <trkpt lat="49.79531" lon="4.84953">
        <ele>302</ele>
        <time>2022-09-28T09:55:40.000Z</time>
      </trkpt>
      <trkpt lat="49.79531" lon="4.84952">
        <ele>302</ele>
        <time>2022-09-28T09:55:41.000Z</time>
      </trkpt>
      <trkpt lat="49.7953" lon="4.84952">
        <ele>302</ele>
        <time>2022-09-28T09:55:42.000Z</time>
      </trkpt>
      <trkpt lat="49.79529" lon="4.84952">
        <ele>303</ele>
        <time>2022-09-28T09:55:43.000Z</time>
      </trkpt>
      <trkpt lat="49.79528" lon="4.84952">
        <ele>303</ele>
        <time>2022-09-28T09:55:44.000Z</time>
      </trkpt>
      <trkpt lat="49.79527" lon="4.84952">
        <ele>303</ele>
        <time>2022-09-28T09:55:45.000Z</time>
      </trkpt>
      <trkpt lat="49.79527" lon="4.84951">
        <ele>304</ele>
        <time>2022-09-28T09:55:46.000Z</time>
      </trkpt>
      <trkpt lat="49.79526" lon="4.84951">
        <ele>304</ele>
        <time>2022-09-28T09:55:47.000Z</time>
      </trkpt>
      <trkpt lat="49.79525" lon="4.8495">
        <ele>304</ele>
        <time>2022-09-28T09:55:48.000Z</time>
      </trkpt>
      <trkpt lat="49.79525" lon="4.8495">
        <ele>304</ele>
        <time>2022-09-28T09:55:49.000Z</time>
      </trkpt>
      <trkpt lat="49.79524" lon="4.84949">
        <ele>304</ele>
        <time>2022-09-28T09:55:50.000Z</time>
      </trkpt>
      <trkpt lat="49.79523" lon="4.84949">
        <ele>304</ele>
        <time>2022-09-28T09:55:51.000Z</time>
      </trkpt>
      <trkpt lat="49.79523" lon="4.84948">
        <ele>305</ele>
        <time>2022-09-28T09:55:52.000Z</time>
      </trkpt>
      <trkpt lat="49.79522" lon="4.84948">
        <ele>305</ele>
        <time>2022-09-28T09:55:53.000Z</time>
      </trkpt>
      <trkpt lat="49.79521" lon="4.84948">
        <ele>305</ele>
        <time>2022-09-28T09:55:54.000Z</time>
      </trkpt>
      <trkpt lat="49.79521" lon="4.84947">
        <ele>305</ele>
        <time>2022-09-28T09:55:55.000Z</time>
      </trkpt>
      <trkpt lat="49.7952" lon="4.84947">
        <ele>305</ele>
        <time>2022-09-28T09:55:56.000Z</time>
      </trkpt>
      <trkpt lat="49.79519" lon="4.84947">
        <ele>305</ele>
        <time>2022-09-28T09:55:57.000Z</time>
      </trkpt>
      <trkpt lat="49.79519" lon="4.84947">
        <ele>305</ele>
        <time>2022-09-28T09:55:58.000Z</time>
      </trkpt>
      <trkpt lat="49.79518" lon="4.84947">
        <ele>305</ele>
        <time>2022-09-28T09:55:59.000Z</time>
      </trkpt>
      <trkpt lat="49.79517" lon="4.84948">
        <ele>305</ele>
        <time>2022-09-28T09:56:00.000Z</time>
      </trkpt>
      <trkpt lat="49.79517" lon="4.84947">
        <ele>305</ele>
        <time>2022-09-28T09:56:01.000Z</time>
      </trkpt>
      <trkpt lat="49.79517" lon="4.84947">
        <ele>305</ele>
        <time>2022-09-28T09:56:02.000Z</time>
      </trkpt>
      <trkpt lat="49.79516" lon="4.84946">
        <ele>305</ele>
        <time>2022-09-28T09:56:03.000Z</time>
      </trkpt>
      <trkpt lat="49.79516" lon="4.84946">
        <ele>305</ele>
        <time>2022-09-28T09:56:04.000Z</time>
      </trkpt>
      <trkpt lat="49.79516" lon="4.84946">
        <ele>305</ele>
        <time>2022-09-28T09:56:05.000Z</time>
      </trkpt>
      <trkpt lat="49.79516" lon="4.84946">
        <ele>305</ele>
        <time>2022-09-28T09:56:06.000Z</time>
      </trkpt>
      <trkpt lat="49.79516" lon="4.84945">
        <ele>305</ele>
        <time>2022-09-28T09:56:07.000Z</time>
      </trkpt>
      <trkpt lat="49.79516" lon="4.84945">
        <ele>305</ele>
        <time>2022-09-28T09:56:08.000Z</time>
      </trkpt>
      <trkpt lat="49.79516" lon="4.84945">
        <ele>305</ele>
        <time>2022-09-28T09:56:09.000Z</time>
      </trkpt>
      <trkpt lat="49.79516" lon="4.84945">
        <ele>305</ele>
        <time>2022-09-28T09:56:10.000Z</time>
      </trkpt>
      <trkpt lat="49.79516" lon="4.84944">
        <ele>305</ele>
        <time>2022-09-28T09:56:11.000Z</time>
      </trkpt>
      <trkpt lat="49.79516" lon="4.84943">
        <ele>306</ele>
        <time>2022-09-28T09:56:12.000Z</time>
      </trkpt>
      <trkpt lat="49.79515" lon="4.84942">
        <ele>306</ele>
        <time>2022-09-28T09:56:13.000Z</time>
      </trkpt>
      <trkpt lat="49.79515" lon="4.84942">
        <ele>306</ele>
        <time>2022-09-28T09:56:14.000Z</time>
      </trkpt>
      <trkpt lat="49.79515" lon="4.84941">
        <ele>306</ele>
        <time>2022-09-28T09:56:15.000Z</time>
      </trkpt>
      <trkpt lat="49.79515" lon="4.84941">
        <ele>306</ele>
        <time>2022-09-28T09:56:16.000Z</time>
      </trkpt>
      <trkpt lat="49.79514" lon="4.84941">
        <ele>306</ele>
        <time>2022-09-28T09:56:17.000Z</time>
      </trkpt>
      <trkpt lat="49.79514" lon="4.84941">
        <ele>306</ele>
        <time>2022-09-28T09:56:18.000Z</time>
      </trkpt>
      <trkpt lat="49.79514" lon="4.84941">
        <ele>306</ele>
        <time>2022-09-28T09:56:19.000Z</time>
      </trkpt>
      <trkpt lat="49.79514" lon="4.8494">
        <ele>306</ele>
        <time>2022-09-28T09:56:20.000Z</time>
      </trkpt>
      <trkpt lat="49.79514" lon="4.8494">
        <ele>306</ele>
        <time>2022-09-28T09:56:21.000Z</time>
      </trkpt>
      <trkpt lat="49.79514" lon="4.8494">
        <ele>306</ele>
        <time>2022-09-28T09:56:22.000Z</time>
      </trkpt>
      <trkpt lat="49.79514" lon="4.84941">
        <ele>306</ele>
        <time>2022-09-28T09:56:23.000Z</time>
      </trkpt>
      <trkpt lat="49.79513" lon="4.84941">
        <ele>306</ele>
        <time>2022-09-28T09:56:24.000Z</time>
      </trkpt>
      <trkpt lat="49.79513" lon="4.84941">
        <ele>306</ele>
        <time>2022-09-28T09:56:25.000Z</time>
      </trkpt>
      <trkpt lat="49.79513" lon="4.84942">
        <ele>306</ele>
        <time>2022-09-28T09:56:26.000Z</time>
      </trkpt>
      <trkpt lat="49.79514" lon="4.84942">
        <ele>306</ele>
        <time>2022-09-28T09:56:27.000Z</time>
      </trkpt>
      <trkpt lat="49.79513" lon="4.84943">
        <ele>306</ele>
        <time>2022-09-28T09:56:28.000Z</time>
      </trkpt>
      <trkpt lat="49.79513" lon="4.84945">
        <ele>306</ele>
        <time>2022-09-28T09:56:29.000Z</time>
      </trkpt>
      <trkpt lat="49.79513" lon="4.84946">
        <ele>306</ele>
        <time>2022-09-28T09:56:30.000Z</time>
      </trkpt>
      <trkpt lat="49.79513" lon="4.84947">
        <ele>306</ele>
        <time>2022-09-28T09:56:31.000Z</time>
      </trkpt>
      <trkpt lat="49.79513" lon="4.84948">
        <ele>307</ele>
        <time>2022-09-28T09:56:32.000Z</time>
      </trkpt>
      <trkpt lat="49.79513" lon="4.84949">
        <ele>307</ele>
        <time>2022-09-28T09:56:33.000Z</time>
      </trkpt>
      <trkpt lat="49.79513" lon="4.8495">
        <ele>307</ele>
        <time>2022-09-28T09:56:34.000Z</time>
      </trkpt>
      <trkpt lat="49.79513" lon="4.84951">
        <ele>307</ele>
        <time>2022-09-28T09:56:35.000Z</time>
      </trkpt>
      <trkpt lat="49.79513" lon="4.84953">
        <ele>307</ele>
        <time>2022-09-28T09:56:36.000Z</time>
      </trkpt>
      <trkpt lat="49.79513" lon="4.84954">
        <ele>308</ele>
        <time>2022-09-28T09:56:37.000Z</time>
      </trkpt>
      <trkpt lat="49.79513" lon="4.84955">
        <ele>308</ele>
        <time>2022-09-28T09:56:38.000Z</time>
      </trkpt>
      <trkpt lat="49.79513" lon="4.84957">
        <ele>308</ele>
        <time>2022-09-28T09:56:39.000Z</time>
      </trkpt>
      <trkpt lat="49.79513" lon="4.84958">
        <ele>309</ele>
        <time>2022-09-28T09:56:40.000Z</time>
      </trkpt>
      <trkpt lat="49.79513" lon="4.8496">
        <ele>309</ele>
        <time>2022-09-28T09:56:41.000Z</time>
      </trkpt>
      <trkpt lat="49.79513" lon="4.84961">
        <ele>309</ele>
        <time>2022-09-28T09:56:42.000Z</time>
      </trkpt>
      <trkpt lat="49.79513" lon="4.84962">
        <ele>310</ele>
        <time>2022-09-28T09:56:43.000Z</time>
      </trkpt>
      <trkpt lat="49.79513" lon="4.84964">
        <ele>310</ele>
        <time>2022-09-28T09:56:44.000Z</time>
      </trkpt>
      <trkpt lat="49.79513" lon="4.84966">
        <ele>311</ele>
        <time>2022-09-28T09:56:45.000Z</time>
      </trkpt>
      <trkpt lat="49.79514" lon="4.84968">
        <ele>311</ele>
        <time>2022-09-28T09:56:46.000Z</time>
      </trkpt>
      <trkpt lat="49.79514" lon="4.84968">
        <ele>311</ele>
        <time>2022-09-28T09:56:47.000Z</time>
      </trkpt>
      <trkpt lat="49.79514" lon="4.84969">
        <ele>311</ele>
        <time>2022-09-28T09:56:48.000Z</time>
      </trkpt>
      <trkpt lat="49.79514" lon="4.84969">
        <ele>312</ele>
        <time>2022-09-28T09:56:49.000Z</time>
      </trkpt>
      <trkpt lat="49.79514" lon="4.84969">
        <ele>312</ele>
        <time>2022-09-28T09:56:50.000Z</time>
      </trkpt>
      <trkpt lat="49.79514" lon="4.8497">
        <ele>312</ele>
        <time>2022-09-28T09:56:51.000Z</time>
      </trkpt>
      <trkpt lat="49.79514" lon="4.8497">
        <ele>312</ele>
        <time>2022-09-28T09:56:52.000Z</time>
      </trkpt>
      <trkpt lat="49.79514" lon="4.8497">
        <ele>312</ele>
        <time>2022-09-28T09:56:53.000Z</time>
      </trkpt>
      <trkpt lat="49.79514" lon="4.84971">
        <ele>312</ele>
        <time>2022-09-28T09:56:54.000Z</time>
      </trkpt>
      <trkpt lat="49.79514" lon="4.84972">
        <ele>313</ele>
        <time>2022-09-28T09:56:55.000Z</time>
      </trkpt>
      <trkpt lat="49.79514" lon="4.84973">
        <ele>313</ele>
        <time>2022-09-28T09:56:56.000Z</time>
      </trkpt>
      <trkpt lat="49.79514" lon="4.84975">
        <ele>313</ele>
        <time>2022-09-28T09:56:57.000Z</time>
      </trkpt>
      <trkpt lat="49.79514" lon="4.84978">
        <ele>314</ele>
        <time>2022-09-28T09:56:58.000Z</time>
      </trkpt>
      <trkpt lat="49.79514" lon="4.8498">
        <ele>314</ele>
        <time>2022-09-28T09:56:59.000Z</time>
      </trkpt>
      <trkpt lat="49.79513" lon="4.84983">
        <ele>315</ele>
        <time>2022-09-28T09:57:00.000Z</time>
      </trkpt>
      <trkpt lat="49.79513" lon="4.84985">
        <ele>315</ele>
        <time>2022-09-28T09:57:01.000Z</time>
      </trkpt>
      <trkpt lat="49.79513" lon="4.84987">
        <ele>315</ele>
        <time>2022-09-28T09:57:02.000Z</time>
      </trkpt>
      <trkpt lat="49.79514" lon="4.84989">
        <ele>316</ele>
        <time>2022-09-28T09:57:03.000Z</time>
      </trkpt>
      <trkpt lat="49.79514" lon="4.84991">
        <ele>316</ele>
        <time>2022-09-28T09:57:04.000Z</time>
      </trkpt>
      <trkpt lat="49.79514" lon="4.84994">
        <ele>316</ele>
        <time>2022-09-28T09:57:05.000Z</time>
      </trkpt>
      <trkpt lat="49.79514" lon="4.84997">
        <ele>317</ele>
        <time>2022-09-28T09:57:06.000Z</time>
      </trkpt>
      <trkpt lat="49.79514" lon="4.85">
        <ele>317</ele>
        <time>2022-09-28T09:57:07.000Z</time>
      </trkpt>
      <trkpt lat="49.79513" lon="4.85003">
        <ele>318</ele>
        <time>2022-09-28T09:57:08.000Z</time>
      </trkpt>
      <trkpt lat="49.79511" lon="4.85004">
        <ele>318</ele>
        <time>2022-09-28T09:57:09.000Z</time>
      </trkpt>
      <trkpt lat="49.7951" lon="4.85005">
        <ele>318</ele>
        <time>2022-09-28T09:57:10.000Z</time>
      </trkpt>
      <trkpt lat="49.79509" lon="4.85004">
        <ele>318</ele>
        <time>2022-09-28T09:57:11.000Z</time>
      </trkpt>
      <trkpt lat="49.79508" lon="4.85003">
        <ele>319</ele>
        <time>2022-09-28T09:57:12.000Z</time>
      </trkpt>
      <trkpt lat="49.79507" lon="4.85001">
        <ele>319</ele>
        <time>2022-09-28T09:57:13.000Z</time>
      </trkpt>
      <trkpt lat="49.79506" lon="4.85">
        <ele>319</ele>
        <time>2022-09-28T09:57:14.000Z</time>
      </trkpt>
      <trkpt lat="49.79506" lon="4.84999">
        <ele>319</ele>
        <time>2022-09-28T09:57:15.000Z</time>
      </trkpt>
      <trkpt lat="49.79505" lon="4.84998">
        <ele>319</ele>
        <time>2022-09-28T09:57:16.000Z</time>
      </trkpt>
      <trkpt lat="49.79504" lon="4.84996">
        <ele>320</ele>
        <time>2022-09-28T09:57:17.000Z</time>
      </trkpt>
      <trkpt lat="49.79502" lon="4.84994">
        <ele>320</ele>
        <time>2022-09-28T09:57:18.000Z</time>
      </trkpt>
      <trkpt lat="49.79501" lon="4.84992">
        <ele>320</ele>
        <time>2022-09-28T09:57:19.000Z</time>
      </trkpt>
      <trkpt lat="49.795" lon="4.8499">
        <ele>320</ele>
        <time>2022-09-28T09:57:20.000Z</time>
      </trkpt>
      <trkpt lat="49.79499" lon="4.84989">
        <ele>320</ele>
        <time>2022-09-28T09:57:21.000Z</time>
      </trkpt>
      <trkpt lat="49.79498" lon="4.84987">
        <ele>320</ele>
        <time>2022-09-28T09:57:22.000Z</time>
      </trkpt>
      <trkpt lat="49.79497" lon="4.84986">
        <ele>321</ele>
        <time>2022-09-28T09:57:23.000Z</time>
      </trkpt>
      <trkpt lat="49.79496" lon="4.84985">
        <ele>321</ele>
        <time>2022-09-28T09:57:24.000Z</time>
      </trkpt>
      <trkpt lat="49.79495" lon="4.84984">
        <ele>321</ele>
        <time>2022-09-28T09:57:25.000Z</time>
      </trkpt>
      <trkpt lat="49.79493" lon="4.84983">
        <ele>321</ele>
        <time>2022-09-28T09:57:26.000Z</time>
      </trkpt>
      <trkpt lat="49.79491" lon="4.84982">
        <ele>321</ele>
        <time>2022-09-28T09:57:27.000Z</time>
      </trkpt>
      <trkpt lat="49.7949" lon="4.8498">
        <ele>321</ele>
        <time>2022-09-28T09:57:28.000Z</time>
      </trkpt>
      <trkpt lat="49.79489" lon="4.84979">
        <ele>321</ele>
        <time>2022-09-28T09:57:29.000Z</time>
      </trkpt>
      <trkpt lat="49.79487" lon="4.84978">
        <ele>321</ele>
        <time>2022-09-28T09:57:30.000Z</time>
      </trkpt>
      <trkpt lat="49.79486" lon="4.84976">
        <ele>321</ele>
        <time>2022-09-28T09:57:31.000Z</time>
      </trkpt>
      <trkpt lat="49.79484" lon="4.84975">
        <ele>321</ele>
        <time>2022-09-28T09:57:32.000Z</time>
      </trkpt>
      <trkpt lat="49.79482" lon="4.84972">
        <ele>321</ele>
        <time>2022-09-28T09:57:33.000Z</time>
      </trkpt>
      <trkpt lat="49.79481" lon="4.8497">
        <ele>321</ele>
        <time>2022-09-28T09:57:34.000Z</time>
      </trkpt>
      <trkpt lat="49.79479" lon="4.84968">
        <ele>321</ele>
        <time>2022-09-28T09:57:35.000Z</time>
      </trkpt>
      <trkpt lat="49.79478" lon="4.84966">
        <ele>321</ele>
        <time>2022-09-28T09:57:36.000Z</time>
      </trkpt>
      <trkpt lat="49.79476" lon="4.84963">
        <ele>321</ele>
        <time>2022-09-28T09:57:37.000Z</time>
      </trkpt>
      <trkpt lat="49.79475" lon="4.8496">
        <ele>321</ele>
        <time>2022-09-28T09:57:38.000Z</time>
      </trkpt>
      <trkpt lat="49.79473" lon="4.84958">
        <ele>321</ele>
        <time>2022-09-28T09:57:39.000Z</time>
      </trkpt>
      <trkpt lat="49.79472" lon="4.84955">
        <ele>321</ele>
        <time>2022-09-28T09:57:40.000Z</time>
      </trkpt>
      <trkpt lat="49.79469" lon="4.84952">
        <ele>321</ele>
        <time>2022-09-28T09:57:41.000Z</time>
      </trkpt>
      <trkpt lat="49.79467" lon="4.8495">
        <ele>321</ele>
        <time>2022-09-28T09:57:42.000Z</time>
      </trkpt>
      <trkpt lat="49.79464" lon="4.84947">
        <ele>321</ele>
        <time>2022-09-28T09:57:43.000Z</time>
      </trkpt>
      <trkpt lat="49.79462" lon="4.84944">
        <ele>321</ele>
        <time>2022-09-28T09:57:44.000Z</time>
      </trkpt>
      <trkpt lat="49.79459" lon="4.8494">
        <ele>321</ele>
        <time>2022-09-28T09:57:45.000Z</time>
      </trkpt>
      <trkpt lat="49.79457" lon="4.84937">
        <ele>321</ele>
        <time>2022-09-28T09:57:46.000Z</time>
      </trkpt>
      <trkpt lat="49.79455" lon="4.84933">
        <ele>321</ele>
        <time>2022-09-28T09:57:47.000Z</time>
      </trkpt>
      <trkpt lat="49.79453" lon="4.8493">
        <ele>321</ele>
        <time>2022-09-28T09:57:48.000Z</time>
      </trkpt>
      <trkpt lat="49.79452" lon="4.84927">
        <ele>321</ele>
        <time>2022-09-28T09:57:49.000Z</time>
      </trkpt>
      <trkpt lat="49.79451" lon="4.84926">
        <ele>321</ele>
        <time>2022-09-28T09:57:50.000Z</time>
      </trkpt>
      <trkpt lat="49.79451" lon="4.84926">
        <ele>321</ele>
        <time>2022-09-28T09:57:51.000Z</time>
      </trkpt>
      <trkpt lat="49.79451" lon="4.84925">
        <ele>321</ele>
        <time>2022-09-28T09:57:52.000Z</time>
      </trkpt>
      <trkpt lat="49.79451" lon="4.84925">
        <ele>321</ele>
        <time>2022-09-28T09:57:53.000Z</time>
      </trkpt>
      <trkpt lat="49.79451" lon="4.84925">
        <ele>322</ele>
        <time>2022-09-28T09:57:54.000Z</time>
      </trkpt>
      <trkpt lat="49.7945" lon="4.84924">
        <ele>322</ele>
        <time>2022-09-28T09:57:55.000Z</time>
      </trkpt>
      <trkpt lat="49.7945" lon="4.84924">
        <ele>322</ele>
        <time>2022-09-28T09:57:56.000Z</time>
      </trkpt>
      <trkpt lat="49.7945" lon="4.84924">
        <ele>322</ele>
        <time>2022-09-28T09:57:57.000Z</time>
      </trkpt>
      <trkpt lat="49.7945" lon="4.84923">
        <ele>322</ele>
        <time>2022-09-28T09:57:58.000Z</time>
      </trkpt>
      <trkpt lat="49.7945" lon="4.84923">
        <ele>322</ele>
        <time>2022-09-28T09:57:59.000Z</time>
      </trkpt>
      <trkpt lat="49.7945" lon="4.84923">
        <ele>322</ele>
        <time>2022-09-28T09:58:00.000Z</time>
      </trkpt>
      <trkpt lat="49.7945" lon="4.84922">
        <ele>322</ele>
        <time>2022-09-28T09:58:01.000Z</time>
      </trkpt>
      <trkpt lat="49.7945" lon="4.84922">
        <ele>322</ele>
        <time>2022-09-28T09:58:02.000Z</time>
      </trkpt>
      <trkpt lat="49.7945" lon="4.84921">
        <ele>322</ele>
        <time>2022-09-28T09:58:03.000Z</time>
      </trkpt>
      <trkpt lat="49.7945" lon="4.84921">
        <ele>322</ele>
        <time>2022-09-28T09:58:04.000Z</time>
      </trkpt>
      <trkpt lat="49.7945" lon="4.84921">
        <ele>322</ele>
        <time>2022-09-28T09:58:05.000Z</time>
      </trkpt>
      <trkpt lat="49.7945" lon="4.84921">
        <ele>322</ele>
        <time>2022-09-28T09:58:06.000Z</time>
      </trkpt>
      <trkpt lat="49.79449" lon="4.8492">
        <ele>322</ele>
        <time>2022-09-28T09:58:07.000Z</time>
      </trkpt>
      <trkpt lat="49.79448" lon="4.8492">
        <ele>322</ele>
        <time>2022-09-28T09:58:08.000Z</time>
      </trkpt>
      <trkpt lat="49.79447" lon="4.84919">
        <ele>322</ele>
        <time>2022-09-28T09:58:09.000Z</time>
      </trkpt>
      <trkpt lat="49.79446" lon="4.84919">
        <ele>322</ele>
        <time>2022-09-28T09:58:10.000Z</time>
      </trkpt>
      <trkpt lat="49.79444" lon="4.84919">
        <ele>323</ele>
        <time>2022-09-28T09:58:11.000Z</time>
      </trkpt>
      <trkpt lat="49.79441" lon="4.84918">
        <ele>323</ele>
        <time>2022-09-28T09:58:12.000Z</time>
      </trkpt>
      <trkpt lat="49.79438" lon="4.84918">
        <ele>323</ele>
        <time>2022-09-28T09:58:13.000Z</time>
      </trkpt>
      <trkpt lat="49.79436" lon="4.84918">
        <ele>323</ele>
        <time>2022-09-28T09:58:14.000Z</time>
      </trkpt>
      <trkpt lat="49.79433" lon="4.84918">
        <ele>323</ele>
        <time>2022-09-28T09:58:15.000Z</time>
      </trkpt>
      <trkpt lat="49.7943" lon="4.84918">
        <ele>323</ele>
        <time>2022-09-28T09:58:16.000Z</time>
      </trkpt>
      <trkpt lat="49.79428" lon="4.84917">
        <ele>323</ele>
        <time>2022-09-28T09:58:17.000Z</time>
      </trkpt>
      <trkpt lat="49.79425" lon="4.84917">
        <ele>323</ele>
        <time>2022-09-28T09:58:18.000Z</time>
      </trkpt>
      <trkpt lat="49.79423" lon="4.84916">
        <ele>324</ele>
        <time>2022-09-28T09:58:19.000Z</time>
      </trkpt>
      <trkpt lat="49.79421" lon="4.84916">
        <ele>324</ele>
        <time>2022-09-28T09:58:20.000Z</time>
      </trkpt>
      <trkpt lat="49.79419" lon="4.84915">
        <ele>324</ele>
        <time>2022-09-28T09:58:21.000Z</time>
      </trkpt>
      <trkpt lat="49.79417" lon="4.84914">
        <ele>324</ele>
        <time>2022-09-28T09:58:22.000Z</time>
      </trkpt>
      <trkpt lat="49.79415" lon="4.84914">
        <ele>324</ele>
        <time>2022-09-28T09:58:23.000Z</time>
      </trkpt>
      <trkpt lat="49.79413" lon="4.84913">
        <ele>324</ele>
        <time>2022-09-28T09:58:24.000Z</time>
      </trkpt>
      <trkpt lat="49.7941" lon="4.84911">
        <ele>324</ele>
        <time>2022-09-28T09:58:25.000Z</time>
      </trkpt>
      <trkpt lat="49.79407" lon="4.8491">
        <ele>324</ele>
        <time>2022-09-28T09:58:26.000Z</time>
      </trkpt>
      <trkpt lat="49.79404" lon="4.84909">
        <ele>324</ele>
        <time>2022-09-28T09:58:27.000Z</time>
      </trkpt>
      <trkpt lat="49.79401" lon="4.84909">
        <ele>324</ele>
        <time>2022-09-28T09:58:28.000Z</time>
      </trkpt>
      <trkpt lat="49.79399" lon="4.84908">
        <ele>324</ele>
        <time>2022-09-28T09:58:29.000Z</time>
      </trkpt>
      <trkpt lat="49.79397" lon="4.84907">
        <ele>324</ele>
        <time>2022-09-28T09:58:30.000Z</time>
      </trkpt>
      <trkpt lat="49.79395" lon="4.84907">
        <ele>325</ele>
        <time>2022-09-28T09:58:31.000Z</time>
      </trkpt>
      <trkpt lat="49.79393" lon="4.84906">
        <ele>325</ele>
        <time>2022-09-28T09:58:32.000Z</time>
      </trkpt>
      <trkpt lat="49.79392" lon="4.84906">
        <ele>325</ele>
        <time>2022-09-28T09:58:33.000Z</time>
      </trkpt>
      <trkpt lat="49.7939" lon="4.84905">
        <ele>325</ele>
        <time>2022-09-28T09:58:34.000Z</time>
      </trkpt>
      <trkpt lat="49.79388" lon="4.84905">
        <ele>325</ele>
        <time>2022-09-28T09:58:35.000Z</time>
      </trkpt>
      <trkpt lat="49.79386" lon="4.84904">
        <ele>325</ele>
        <time>2022-09-28T09:58:36.000Z</time>
      </trkpt>
      <trkpt lat="49.79383" lon="4.84903">
        <ele>325</ele>
        <time>2022-09-28T09:58:37.000Z</time>
      </trkpt>
      <trkpt lat="49.79381" lon="4.84901">
        <ele>325</ele>
        <time>2022-09-28T09:58:38.000Z</time>
      </trkpt>
      <trkpt lat="49.79378" lon="4.84901">
        <ele>325</ele>
        <time>2022-09-28T09:58:39.000Z</time>
      </trkpt>
      <trkpt lat="49.79376" lon="4.84901">
        <ele>325</ele>
        <time>2022-09-28T09:58:40.000Z</time>
      </trkpt>
      <trkpt lat="49.79374" lon="4.849">
        <ele>326</ele>
        <time>2022-09-28T09:58:41.000Z</time>
      </trkpt>
      <trkpt lat="49.79371" lon="4.84899">
        <ele>326</ele>
        <time>2022-09-28T09:58:42.000Z</time>
      </trkpt>
      <trkpt lat="49.79369" lon="4.84899">
        <ele>326</ele>
        <time>2022-09-28T09:58:43.000Z</time>
      </trkpt>
      <trkpt lat="49.79367" lon="4.84898">
        <ele>326</ele>
        <time>2022-09-28T09:58:44.000Z</time>
      </trkpt>
      <trkpt lat="49.79364" lon="4.84897">
        <ele>326</ele>
        <time>2022-09-28T09:58:45.000Z</time>
      </trkpt>
      <trkpt lat="49.79362" lon="4.84896">
        <ele>326</ele>
        <time>2022-09-28T09:58:46.000Z</time>
      </trkpt>
      <trkpt lat="49.79359" lon="4.84896">
        <ele>326</ele>
        <time>2022-09-28T09:58:47.000Z</time>
      </trkpt>
      <trkpt lat="49.79357" lon="4.84895">
        <ele>326</ele>
        <time>2022-09-28T09:58:48.000Z</time>
      </trkpt>
      <trkpt lat="49.79354" lon="4.84894">
        <ele>327</ele>
        <time>2022-09-28T09:58:49.000Z</time>
      </trkpt>
      <trkpt lat="49.79352" lon="4.84893">
        <ele>327</ele>
        <time>2022-09-28T09:58:50.000Z</time>
      </trkpt>
      <trkpt lat="49.7935" lon="4.84893">
        <ele>327</ele>
        <time>2022-09-28T09:58:51.000Z</time>
      </trkpt>
      <trkpt lat="49.79348" lon="4.84893">
        <ele>327</ele>
        <time>2022-09-28T09:58:52.000Z</time>
      </trkpt>
      <trkpt lat="49.79346" lon="4.84892">
        <ele>327</ele>
        <time>2022-09-28T09:58:53.000Z</time>
      </trkpt>
      <trkpt lat="49.79344" lon="4.84891">
        <ele>327</ele>
        <time>2022-09-28T09:58:54.000Z</time>
      </trkpt>
      <trkpt lat="49.79342" lon="4.84891">
        <ele>327</ele>
        <time>2022-09-28T09:58:55.000Z</time>
      </trkpt>
      <trkpt lat="49.7934" lon="4.8489">
        <ele>327</ele>
        <time>2022-09-28T09:58:56.000Z</time>
      </trkpt>
      <trkpt lat="49.79337" lon="4.8489">
        <ele>327</ele>
        <time>2022-09-28T09:58:57.000Z</time>
      </trkpt>
      <trkpt lat="49.79335" lon="4.84889">
        <ele>327</ele>
        <time>2022-09-28T09:58:58.000Z</time>
      </trkpt>
      <trkpt lat="49.79333" lon="4.84888">
        <ele>327</ele>
        <time>2022-09-28T09:58:59.000Z</time>
      </trkpt>
      <trkpt lat="49.79331" lon="4.84888">
        <ele>327</ele>
        <time>2022-09-28T09:59:00.000Z</time>
      </trkpt>
      <trkpt lat="49.79329" lon="4.84887">
        <ele>327</ele>
        <time>2022-09-28T09:59:01.000Z</time>
      </trkpt>
      <trkpt lat="49.79327" lon="4.84887">
        <ele>327</ele>
        <time>2022-09-28T09:59:02.000Z</time>
      </trkpt>
      <trkpt lat="49.79325" lon="4.84887">
        <ele>327</ele>
        <time>2022-09-28T09:59:03.000Z</time>
      </trkpt>
      <trkpt lat="49.79322" lon="4.84886">
        <ele>327</ele>
        <time>2022-09-28T09:59:04.000Z</time>
      </trkpt>
      <trkpt lat="49.7932" lon="4.84886">
        <ele>327</ele>
        <time>2022-09-28T09:59:05.000Z</time>
      </trkpt>
      <trkpt lat="49.79318" lon="4.84886">
        <ele>327</ele>
        <time>2022-09-28T09:59:06.000Z</time>
      </trkpt>
      <trkpt lat="49.79315" lon="4.84885">
        <ele>327</ele>
        <time>2022-09-28T09:59:07.000Z</time>
      </trkpt>
      <trkpt lat="49.79313" lon="4.84885">
        <ele>327</ele>
        <time>2022-09-28T09:59:08.000Z</time>
      </trkpt>
      <trkpt lat="49.79311" lon="4.84885">
        <ele>327</ele>
        <time>2022-09-28T09:59:09.000Z</time>
      </trkpt>
      <trkpt lat="49.79309" lon="4.84885">
        <ele>327</ele>
        <time>2022-09-28T09:59:10.000Z</time>
      </trkpt>
      <trkpt lat="49.79307" lon="4.84885">
        <ele>328</ele>
        <time>2022-09-28T09:59:11.000Z</time>
      </trkpt>
      <trkpt lat="49.79305" lon="4.84885">
        <ele>328</ele>
        <time>2022-09-28T09:59:12.000Z</time>
      </trkpt>
      <trkpt lat="49.79303" lon="4.84884">
        <ele>328</ele>
        <time>2022-09-28T09:59:13.000Z</time>
      </trkpt>
      <trkpt lat="49.79302" lon="4.84884">
        <ele>328</ele>
        <time>2022-09-28T09:59:14.000Z</time>
      </trkpt>
      <trkpt lat="49.793" lon="4.84884">
        <ele>328</ele>
        <time>2022-09-28T09:59:15.000Z</time>
      </trkpt>
      <trkpt lat="49.79299" lon="4.84884">
        <ele>328</ele>
        <time>2022-09-28T09:59:16.000Z</time>
      </trkpt>
      <trkpt lat="49.79299" lon="4.84884">
        <ele>328</ele>
        <time>2022-09-28T09:59:17.000Z</time>
      </trkpt>
      <trkpt lat="49.79298" lon="4.84884">
        <ele>329</ele>
        <time>2022-09-28T09:59:18.000Z</time>
      </trkpt>
      <trkpt lat="49.79298" lon="4.84884">
        <ele>329</ele>
        <time>2022-09-28T09:59:19.000Z</time>
      </trkpt>
      <trkpt lat="49.79298" lon="4.84884">
        <ele>329</ele>
        <time>2022-09-28T09:59:20.000Z</time>
      </trkpt>
      <trkpt lat="49.79299" lon="4.84883">
        <ele>329</ele>
        <time>2022-09-28T09:59:21.000Z</time>
      </trkpt>
      <trkpt lat="49.79299" lon="4.84882">
        <ele>329</ele>
        <time>2022-09-28T09:59:22.000Z</time>
      </trkpt>
      <trkpt lat="49.79299" lon="4.84882">
        <ele>329</ele>
        <time>2022-09-28T09:59:23.000Z</time>
      </trkpt>
      <trkpt lat="49.793" lon="4.84881">
        <ele>330</ele>
        <time>2022-09-28T09:59:24.000Z</time>
      </trkpt>
      <trkpt lat="49.79301" lon="4.84881">
        <ele>330</ele>
        <time>2022-09-28T09:59:25.000Z</time>
      </trkpt>
      <trkpt lat="49.79301" lon="4.84881">
        <ele>330</ele>
        <time>2022-09-28T09:59:26.000Z</time>
      </trkpt>
      <trkpt lat="49.79301" lon="4.84881">
        <ele>330</ele>
        <time>2022-09-28T09:59:27.000Z</time>
      </trkpt>
      <trkpt lat="49.79301" lon="4.8488">
        <ele>330</ele>
        <time>2022-09-28T09:59:28.000Z</time>
      </trkpt>
      <trkpt lat="49.79302" lon="4.8488">
        <ele>330</ele>
        <time>2022-09-28T09:59:29.000Z</time>
      </trkpt>
      <trkpt lat="49.79302" lon="4.8488">
        <ele>330</ele>
        <time>2022-09-28T09:59:30.000Z</time>
      </trkpt>
      <trkpt lat="49.79302" lon="4.84879">
        <ele>330</ele>
        <time>2022-09-28T09:59:31.000Z</time>
      </trkpt>
      <trkpt lat="49.79302" lon="4.84878">
        <ele>330</ele>
        <time>2022-09-28T09:59:32.000Z</time>
      </trkpt>
      <trkpt lat="49.79304" lon="4.84877">
        <ele>330</ele>
        <time>2022-09-28T09:59:33.000Z</time>
      </trkpt>
      <trkpt lat="49.79305" lon="4.84877">
        <ele>330</ele>
        <time>2022-09-28T09:59:34.000Z</time>
      </trkpt>
      <trkpt lat="49.79307" lon="4.84877">
        <ele>330</ele>
        <time>2022-09-28T09:59:35.000Z</time>
      </trkpt>
      <trkpt lat="49.79308" lon="4.84876">
        <ele>330</ele>
        <time>2022-09-28T09:59:36.000Z</time>
      </trkpt>
      <trkpt lat="49.7931" lon="4.84876">
        <ele>330</ele>
        <time>2022-09-28T09:59:37.000Z</time>
      </trkpt>
      <trkpt lat="49.79311" lon="4.84876">
        <ele>330</ele>
        <time>2022-09-28T09:59:38.000Z</time>
      </trkpt>
      <trkpt lat="49.79313" lon="4.84876">
        <ele>330</ele>
        <time>2022-09-28T09:59:39.000Z</time>
      </trkpt>
      <trkpt lat="49.79315" lon="4.84876">
        <ele>330</ele>
        <time>2022-09-28T09:59:40.000Z</time>
      </trkpt>
      <trkpt lat="49.79317" lon="4.84876">
        <ele>330</ele>
        <time>2022-09-28T09:59:41.000Z</time>
      </trkpt>
      <trkpt lat="49.79319" lon="4.84877">
        <ele>330</ele>
        <time>2022-09-28T09:59:42.000Z</time>
      </trkpt>
      <trkpt lat="49.7932" lon="4.84878">
        <ele>331</ele>
        <time>2022-09-28T09:59:43.000Z</time>
      </trkpt>
      <trkpt lat="49.79322" lon="4.84878">
        <ele>331</ele>
        <time>2022-09-28T09:59:44.000Z</time>
      </trkpt>
      <trkpt lat="49.79323" lon="4.84878">
        <ele>331</ele>
        <time>2022-09-28T09:59:45.000Z</time>
      </trkpt>
      <trkpt lat="49.79325" lon="4.84878">
        <ele>331</ele>
        <time>2022-09-28T09:59:46.000Z</time>
      </trkpt>
      <trkpt lat="49.79328" lon="4.84878">
        <ele>331</ele>
        <time>2022-09-28T09:59:47.000Z</time>
      </trkpt>
      <trkpt lat="49.79331" lon="4.84879">
        <ele>331</ele>
        <time>2022-09-28T09:59:48.000Z</time>
      </trkpt>
      <trkpt lat="49.79334" lon="4.84879">
        <ele>331</ele>
        <time>2022-09-28T09:59:49.000Z</time>
      </trkpt>
      <trkpt lat="49.79337" lon="4.84879">
        <ele>331</ele>
        <time>2022-09-28T09:59:50.000Z</time>
      </trkpt>
      <trkpt lat="49.79341" lon="4.8488">
        <ele>332</ele>
        <time>2022-09-28T09:59:51.000Z</time>
      </trkpt>
      <trkpt lat="49.79345" lon="4.84881">
        <ele>332</ele>
        <time>2022-09-28T09:59:52.000Z</time>
      </trkpt>
      <trkpt lat="49.79349" lon="4.84882">
        <ele>332</ele>
        <time>2022-09-28T09:59:53.000Z</time>
      </trkpt>
      <trkpt lat="49.79353" lon="4.84881">
        <ele>332</ele>
        <time>2022-09-28T09:59:54.000Z</time>
      </trkpt>
      <trkpt lat="49.79357" lon="4.84882">
        <ele>332</ele>
        <time>2022-09-28T09:59:55.000Z</time>
      </trkpt>
      <trkpt lat="49.79362" lon="4.84883">
        <ele>332</ele>
        <time>2022-09-28T09:59:56.000Z</time>
      </trkpt>
      <trkpt lat="49.79366" lon="4.84883">
        <ele>332</ele>
        <time>2022-09-28T09:59:57.000Z</time>
      </trkpt>
      <trkpt lat="49.79369" lon="4.84884">
        <ele>332</ele>
        <time>2022-09-28T09:59:58.000Z</time>
      </trkpt>
      <trkpt lat="49.79373" lon="4.84885">
        <ele>332</ele>
        <time>2022-09-28T09:59:59.000Z</time>
      </trkpt>
      <trkpt lat="49.79378" lon="4.84885">
        <ele>332</ele>
        <time>2022-09-28T10:00:00.000Z</time>
      </trkpt>
      <trkpt lat="49.79383" lon="4.84886">
        <ele>332</ele>
        <time>2022-09-28T10:00:01.000Z</time>
      </trkpt>
      <trkpt lat="49.79389" lon="4.84888">
        <ele>333</ele>
        <time>2022-09-28T10:00:02.000Z</time>
      </trkpt>
      <trkpt lat="49.79395" lon="4.8489">
        <ele>333</ele>
        <time>2022-09-28T10:00:03.000Z</time>
      </trkpt>
      <trkpt lat="49.794" lon="4.84893">
        <ele>333</ele>
        <time>2022-09-28T10:00:04.000Z</time>
      </trkpt>
      <trkpt lat="49.79406" lon="4.84895">
        <ele>333</ele>
        <time>2022-09-28T10:00:05.000Z</time>
      </trkpt>
      <trkpt lat="49.79412" lon="4.84897">
        <ele>333</ele>
        <time>2022-09-28T10:00:06.000Z</time>
      </trkpt>
      <trkpt lat="49.79418" lon="4.84899">
        <ele>333</ele>
        <time>2022-09-28T10:00:07.000Z</time>
      </trkpt>
      <trkpt lat="49.79423" lon="4.84901">
        <ele>332</ele>
        <time>2022-09-28T10:00:08.000Z</time>
      </trkpt>
      <trkpt lat="49.79427" lon="4.84902">
        <ele>332</ele>
        <time>2022-09-28T10:00:09.000Z</time>
      </trkpt>
      <trkpt lat="49.79429" lon="4.84902">
        <ele>332</ele>
        <time>2022-09-28T10:00:10.000Z</time>
      </trkpt>
      <trkpt lat="49.79431" lon="4.84902">
        <ele>332</ele>
        <time>2022-09-28T10:00:11.000Z</time>
      </trkpt>
      <trkpt lat="49.79432" lon="4.849">
        <ele>332</ele>
        <time>2022-09-28T10:00:12.000Z</time>
      </trkpt>
      <trkpt lat="49.79433" lon="4.849">
        <ele>332</ele>
        <time>2022-09-28T10:00:13.000Z</time>
      </trkpt>
      <trkpt lat="49.79434" lon="4.849">
        <ele>332</ele>
        <time>2022-09-28T10:00:14.000Z</time>
      </trkpt>
      <trkpt lat="49.79434" lon="4.84901">
        <ele>332</ele>
        <time>2022-09-28T10:00:15.000Z</time>
      </trkpt>
      <trkpt lat="49.79435" lon="4.84901">
        <ele>332</ele>
        <time>2022-09-28T10:00:16.000Z</time>
      </trkpt>
      <trkpt lat="49.79435" lon="4.84901">
        <ele>332</ele>
        <time>2022-09-28T10:00:17.000Z</time>
      </trkpt>
      <trkpt lat="49.79435" lon="4.849">
        <ele>332</ele>
        <time>2022-09-28T10:00:18.000Z</time>
      </trkpt>
      <trkpt lat="49.79434" lon="4.84899">
        <ele>332</ele>
        <time>2022-09-28T10:00:19.000Z</time>
      </trkpt>
      <trkpt lat="49.79434" lon="4.84897">
        <ele>332</ele>
        <time>2022-09-28T10:00:20.000Z</time>
      </trkpt>
      <trkpt lat="49.79434" lon="4.84894">
        <ele>332</ele>
        <time>2022-09-28T10:00:21.000Z</time>
      </trkpt>
      <trkpt lat="49.79433" lon="4.84892">
        <ele>332</ele>
        <time>2022-09-28T10:00:22.000Z</time>
      </trkpt>
      <trkpt lat="49.79432" lon="4.8489">
        <ele>331</ele>
        <time>2022-09-28T10:00:23.000Z</time>
      </trkpt>
      <trkpt lat="49.79431" lon="4.84886">
        <ele>331</ele>
        <time>2022-09-28T10:00:24.000Z</time>
      </trkpt>
      <trkpt lat="49.79429" lon="4.84881">
        <ele>331</ele>
        <time>2022-09-28T10:00:25.000Z</time>
      </trkpt>
      <trkpt lat="49.79427" lon="4.84877">
        <ele>331</ele>
        <time>2022-09-28T10:00:26.000Z</time>
      </trkpt>
      <trkpt lat="49.79425" lon="4.84871">
        <ele>330</ele>
        <time>2022-09-28T10:00:27.000Z</time>
      </trkpt>
      <trkpt lat="49.79422" lon="4.84866">
        <ele>330</ele>
        <time>2022-09-28T10:00:28.000Z</time>
      </trkpt>
      <trkpt lat="49.7942" lon="4.8486">
        <ele>330</ele>
        <time>2022-09-28T10:00:29.000Z</time>
      </trkpt>
      <trkpt lat="49.79417" lon="4.84856">
        <ele>330</ele>
        <time>2022-09-28T10:00:30.000Z</time>
      </trkpt>
      <trkpt lat="49.79414" lon="4.84852">
        <ele>330</ele>
        <time>2022-09-28T10:00:31.000Z</time>
      </trkpt>
      <trkpt lat="49.79411" lon="4.84848">
        <ele>329</ele>
        <time>2022-09-28T10:00:32.000Z</time>
      </trkpt>
      <trkpt lat="49.79409" lon="4.84843">
        <ele>329</ele>
        <time>2022-09-28T10:00:33.000Z</time>
      </trkpt>
      <trkpt lat="49.79407" lon="4.84838">
        <ele>329</ele>
        <time>2022-09-28T10:00:34.000Z</time>
      </trkpt>
      <trkpt lat="49.79405" lon="4.84832">
        <ele>329</ele>
        <time>2022-09-28T10:00:35.000Z</time>
      </trkpt>
      <trkpt lat="49.79403" lon="4.84827">
        <ele>329</ele>
        <time>2022-09-28T10:00:36.000Z</time>
      </trkpt>
      <trkpt lat="49.79401" lon="4.84822">
        <ele>328</ele>
        <time>2022-09-28T10:00:37.000Z</time>
      </trkpt>
      <trkpt lat="49.79398" lon="4.84815">
        <ele>328</ele>
        <time>2022-09-28T10:00:38.000Z</time>
      </trkpt>
      <trkpt lat="49.79395" lon="4.84809">
        <ele>328</ele>
        <time>2022-09-28T10:00:39.000Z</time>
      </trkpt>
      <trkpt lat="49.79393" lon="4.84804">
        <ele>328</ele>
        <time>2022-09-28T10:00:40.000Z</time>
      </trkpt>
      <trkpt lat="49.79391" lon="4.84798">
        <ele>328</ele>
        <time>2022-09-28T10:00:41.000Z</time>
      </trkpt>
      <trkpt lat="49.7939" lon="4.84793">
        <ele>328</ele>
        <time>2022-09-28T10:00:42.000Z</time>
      </trkpt>
      <trkpt lat="49.79387" lon="4.84788">
        <ele>328</ele>
        <time>2022-09-28T10:00:43.000Z</time>
      </trkpt>
      <trkpt lat="49.79385" lon="4.84782">
        <ele>327</ele>
        <time>2022-09-28T10:00:44.000Z</time>
      </trkpt>
      <trkpt lat="49.79383" lon="4.84778">
        <ele>327</ele>
        <time>2022-09-28T10:00:45.000Z</time>
      </trkpt>
      <trkpt lat="49.79381" lon="4.84775">
        <ele>327</ele>
        <time>2022-09-28T10:00:46.000Z</time>
      </trkpt>
      <trkpt lat="49.79379" lon="4.84771">
        <ele>327</ele>
        <time>2022-09-28T10:00:47.000Z</time>
      </trkpt>
      <trkpt lat="49.79377" lon="4.84768">
        <ele>327</ele>
        <time>2022-09-28T10:00:48.000Z</time>
      </trkpt>
      <trkpt lat="49.79375" lon="4.84765">
        <ele>326</ele>
        <time>2022-09-28T10:00:49.000Z</time>
      </trkpt>
      <trkpt lat="49.79373" lon="4.84762">
        <ele>326</ele>
        <time>2022-09-28T10:00:50.000Z</time>
      </trkpt>
      <trkpt lat="49.79371" lon="4.84758">
        <ele>326</ele>
        <time>2022-09-28T10:00:51.000Z</time>
      </trkpt>
      <trkpt lat="49.79369" lon="4.84755">
        <ele>326</ele>
        <time>2022-09-28T10:00:52.000Z</time>
      </trkpt>
      <trkpt lat="49.79368" lon="4.84752">
        <ele>326</ele>
        <time>2022-09-28T10:00:53.000Z</time>
      </trkpt>
      <trkpt lat="49.79366" lon="4.84749">
        <ele>326</ele>
        <time>2022-09-28T10:00:54.000Z</time>
      </trkpt>
      <trkpt lat="49.79364" lon="4.84745">
        <ele>325</ele>
        <time>2022-09-28T10:00:55.000Z</time>
      </trkpt>
      <trkpt lat="49.79362" lon="4.84742">
        <ele>325</ele>
        <time>2022-09-28T10:00:56.000Z</time>
      </trkpt>
      <trkpt lat="49.79361" lon="4.84739">
        <ele>325</ele>
        <time>2022-09-28T10:00:57.000Z</time>
      </trkpt>
      <trkpt lat="49.79359" lon="4.84735">
        <ele>325</ele>
        <time>2022-09-28T10:00:58.000Z</time>
      </trkpt>
      <trkpt lat="49.79357" lon="4.84732">
        <ele>324</ele>
        <time>2022-09-28T10:00:59.000Z</time>
      </trkpt>
      <trkpt lat="49.79356" lon="4.84728">
        <ele>324</ele>
        <time>2022-09-28T10:01:00.000Z</time>
      </trkpt>
      <trkpt lat="49.79353" lon="4.84724">
        <ele>324</ele>
        <time>2022-09-28T10:01:01.000Z</time>
      </trkpt>
      <trkpt lat="49.79351" lon="4.8472">
        <ele>324</ele>
        <time>2022-09-28T10:01:02.000Z</time>
      </trkpt>
      <trkpt lat="49.79348" lon="4.84714">
        <ele>323</ele>
        <time>2022-09-28T10:01:03.000Z</time>
      </trkpt>
      <trkpt lat="49.79345" lon="4.84709">
        <ele>323</ele>
        <time>2022-09-28T10:01:04.000Z</time>
      </trkpt>
      <trkpt lat="49.79343" lon="4.84704">
        <ele>323</ele>
        <time>2022-09-28T10:01:05.000Z</time>
      </trkpt>
      <trkpt lat="49.7934" lon="4.84699">
        <ele>323</ele>
        <time>2022-09-28T10:01:06.000Z</time>
      </trkpt>
      <trkpt lat="49.79337" lon="4.84693">
        <ele>322</ele>
        <time>2022-09-28T10:01:07.000Z</time>
      </trkpt>
      <trkpt lat="49.79335" lon="4.84687">
        <ele>322</ele>
        <time>2022-09-28T10:01:08.000Z</time>
      </trkpt>
      <trkpt lat="49.79332" lon="4.84682">
        <ele>322</ele>
        <time>2022-09-28T10:01:09.000Z</time>
      </trkpt>
      <trkpt lat="49.79329" lon="4.84677">
        <ele>321</ele>
        <time>2022-09-28T10:01:10.000Z</time>
      </trkpt>
      <trkpt lat="49.79326" lon="4.84672">
        <ele>321</ele>
        <time>2022-09-28T10:01:11.000Z</time>
      </trkpt>
      <trkpt lat="49.79323" lon="4.84668">
        <ele>321</ele>
        <time>2022-09-28T10:01:12.000Z</time>
      </trkpt>
      <trkpt lat="49.7932" lon="4.84664">
        <ele>320</ele>
        <time>2022-09-28T10:01:13.000Z</time>
      </trkpt>
      <trkpt lat="49.79318" lon="4.84661">
        <ele>320</ele>
        <time>2022-09-28T10:01:14.000Z</time>
      </trkpt>
      <trkpt lat="49.79315" lon="4.84658">
        <ele>320</ele>
        <time>2022-09-28T10:01:15.000Z</time>
      </trkpt>
      <trkpt lat="49.79312" lon="4.84656">
        <ele>319</ele>
        <time>2022-09-28T10:01:16.000Z</time>
      </trkpt>
      <trkpt lat="49.79309" lon="4.84655">
        <ele>319</ele>
        <time>2022-09-28T10:01:17.000Z</time>
      </trkpt>
      <trkpt lat="49.79306" lon="4.84654">
        <ele>319</ele>
        <time>2022-09-28T10:01:18.000Z</time>
      </trkpt>
      <trkpt lat="49.79304" lon="4.84654">
        <ele>319</ele>
        <time>2022-09-28T10:01:19.000Z</time>
      </trkpt>
      <trkpt lat="49.79301" lon="4.84654">
        <ele>318</ele>
        <time>2022-09-28T10:01:20.000Z</time>
      </trkpt>
      <trkpt lat="49.79299" lon="4.84654">
        <ele>318</ele>
        <time>2022-09-28T10:01:21.000Z</time>
      </trkpt>
      <trkpt lat="49.79296" lon="4.84652">
        <ele>318</ele>
        <time>2022-09-28T10:01:22.000Z</time>
      </trkpt>
      <trkpt lat="49.79294" lon="4.8465">
        <ele>318</ele>
        <time>2022-09-28T10:01:23.000Z</time>
      </trkpt>
      <trkpt lat="49.79292" lon="4.84648">
        <ele>318</ele>
        <time>2022-09-28T10:01:24.000Z</time>
      </trkpt>
      <trkpt lat="49.7929" lon="4.84645">
        <ele>317</ele>
        <time>2022-09-28T10:01:25.000Z</time>
      </trkpt>
      <trkpt lat="49.79289" lon="4.84641">
        <ele>317</ele>
        <time>2022-09-28T10:01:26.000Z</time>
      </trkpt>
      <trkpt lat="49.79287" lon="4.84637">
        <ele>317</ele>
        <time>2022-09-28T10:01:27.000Z</time>
      </trkpt>
      <trkpt lat="49.79287" lon="4.84632">
        <ele>317</ele>
        <time>2022-09-28T10:01:28.000Z</time>
      </trkpt>
      <trkpt lat="49.79287" lon="4.84629">
        <ele>316</ele>
        <time>2022-09-28T10:01:29.000Z</time>
      </trkpt>
      <trkpt lat="49.79287" lon="4.84625">
        <ele>316</ele>
        <time>2022-09-28T10:01:30.000Z</time>
      </trkpt>
      <trkpt lat="49.79288" lon="4.84622">
        <ele>316</ele>
        <time>2022-09-28T10:01:31.000Z</time>
      </trkpt>
      <trkpt lat="49.79288" lon="4.84617">
        <ele>315</ele>
        <time>2022-09-28T10:01:32.000Z</time>
      </trkpt>
      <trkpt lat="49.79288" lon="4.84613">
        <ele>315</ele>
        <time>2022-09-28T10:01:33.000Z</time>
      </trkpt>
      <trkpt lat="49.79288" lon="4.84608">
        <ele>315</ele>
        <time>2022-09-28T10:01:34.000Z</time>
      </trkpt>
      <trkpt lat="49.79288" lon="4.84601">
        <ele>314</ele>
        <time>2022-09-28T10:01:35.000Z</time>
      </trkpt>
      <trkpt lat="49.79288" lon="4.84595">
        <ele>314</ele>
        <time>2022-09-28T10:01:36.000Z</time>
      </trkpt>
      <trkpt lat="49.79287" lon="4.84587">
        <ele>314</ele>
        <time>2022-09-28T10:01:37.000Z</time>
      </trkpt>
      <trkpt lat="49.79287" lon="4.8458">
        <ele>313</ele>
        <time>2022-09-28T10:01:38.000Z</time>
      </trkpt>
      <trkpt lat="49.79287" lon="4.84571">
        <ele>313</ele>
        <time>2022-09-28T10:01:39.000Z</time>
      </trkpt>
      <trkpt lat="49.79287" lon="4.84563">
        <ele>313</ele>
        <time>2022-09-28T10:01:40.000Z</time>
      </trkpt>
      <trkpt lat="49.79288" lon="4.84556">
        <ele>312</ele>
        <time>2022-09-28T10:01:41.000Z</time>
      </trkpt>
      <trkpt lat="49.79289" lon="4.84549">
        <ele>312</ele>
        <time>2022-09-28T10:01:42.000Z</time>
      </trkpt>
      <trkpt lat="49.7929" lon="4.84542">
        <ele>311</ele>
        <time>2022-09-28T10:01:43.000Z</time>
      </trkpt>
      <trkpt lat="49.79291" lon="4.84536">
        <ele>311</ele>
        <time>2022-09-28T10:01:44.000Z</time>
      </trkpt>
      <trkpt lat="49.79291" lon="4.84531">
        <ele>310</ele>
        <time>2022-09-28T10:01:45.000Z</time>
      </trkpt>
      <trkpt lat="49.79292" lon="4.84525">
        <ele>310</ele>
        <time>2022-09-28T10:01:46.000Z</time>
      </trkpt>
      <trkpt lat="49.79291" lon="4.8452">
        <ele>309</ele>
        <time>2022-09-28T10:01:47.000Z</time>
      </trkpt>
      <trkpt lat="49.79291" lon="4.84515">
        <ele>309</ele>
        <time>2022-09-28T10:01:48.000Z</time>
      </trkpt>
      <trkpt lat="49.79291" lon="4.8451">
        <ele>308</ele>
        <time>2022-09-28T10:01:49.000Z</time>
      </trkpt>
      <trkpt lat="49.79292" lon="4.84506">
        <ele>308</ele>
        <time>2022-09-28T10:01:50.000Z</time>
      </trkpt>
      <trkpt lat="49.79292" lon="4.84503">
        <ele>307</ele>
        <time>2022-09-28T10:01:51.000Z</time>
      </trkpt>
      <trkpt lat="49.79292" lon="4.84501">
        <ele>307</ele>
        <time>2022-09-28T10:01:52.000Z</time>
      </trkpt>
      <trkpt lat="49.79293" lon="4.84501">
        <ele>306</ele>
        <time>2022-09-28T10:01:53.000Z</time>
      </trkpt>
      <trkpt lat="49.79293" lon="4.84501">
        <ele>306</ele>
        <time>2022-09-28T10:01:54.000Z</time>
      </trkpt>
      <trkpt lat="49.79293" lon="4.845">
        <ele>306</ele>
        <time>2022-09-28T10:01:55.000Z</time>
      </trkpt>
      <trkpt lat="49.79293" lon="4.845">
        <ele>305</ele>
        <time>2022-09-28T10:01:56.000Z</time>
      </trkpt>
      <trkpt lat="49.79293" lon="4.845">
        <ele>305</ele>
        <time>2022-09-28T10:01:57.000Z</time>
      </trkpt>
      <trkpt lat="49.79293" lon="4.84499">
        <ele>305</ele>
        <time>2022-09-28T10:01:58.000Z</time>
      </trkpt>
      <trkpt lat="49.79293" lon="4.84499">
        <ele>304</ele>
        <time>2022-09-28T10:01:59.000Z</time>
      </trkpt>
      <trkpt lat="49.79293" lon="4.84499">
        <ele>304</ele>
        <time>2022-09-28T10:02:00.000Z</time>
      </trkpt>
      <trkpt lat="49.79293" lon="4.84498">
        <ele>304</ele>
        <time>2022-09-28T10:02:01.000Z</time>
      </trkpt>
      <trkpt lat="49.79293" lon="4.84498">
        <ele>304</ele>
        <time>2022-09-28T10:02:02.000Z</time>
      </trkpt>
      <trkpt lat="49.79293" lon="4.84498">
        <ele>303</ele>
        <time>2022-09-28T10:02:03.000Z</time>
      </trkpt>
      <trkpt lat="49.79293" lon="4.84498">
        <ele>303</ele>
        <time>2022-09-28T10:02:04.000Z</time>
      </trkpt>
      <trkpt lat="49.79293" lon="4.84498">
        <ele>303</ele>
        <time>2022-09-28T10:02:05.000Z</time>
      </trkpt>
      <trkpt lat="49.79293" lon="4.84498">
        <ele>303</ele>
        <time>2022-09-28T10:02:06.000Z</time>
      </trkpt>
      <trkpt lat="49.79293" lon="4.84497">
        <ele>303</ele>
        <time>2022-09-28T10:02:07.000Z</time>
      </trkpt>
      <trkpt lat="49.79294" lon="4.84497">
        <ele>303</ele>
        <time>2022-09-28T10:02:08.000Z</time>
      </trkpt>
      <trkpt lat="49.79294" lon="4.84497">
        <ele>302</ele>
        <time>2022-09-28T10:02:09.000Z</time>
      </trkpt>
      <trkpt lat="49.79294" lon="4.84497">
        <ele>302</ele>
        <time>2022-09-28T10:02:10.000Z</time>
      </trkpt>
      <trkpt lat="49.79294" lon="4.84497">
        <ele>302</ele>
        <time>2022-09-28T10:02:11.000Z</time>
      </trkpt>
      <trkpt lat="49.79293" lon="4.84497">
        <ele>302</ele>
        <time>2022-09-28T10:02:12.000Z</time>
      </trkpt>
      <trkpt lat="49.79294" lon="4.84497">
        <ele>302</ele>
        <time>2022-09-28T10:02:13.000Z</time>
      </trkpt>
      <trkpt lat="49.79294" lon="4.84498">
        <ele>302</ele>
        <time>2022-09-28T10:02:14.000Z</time>
      </trkpt>
      <trkpt lat="49.79294" lon="4.84499">
        <ele>302</ele>
        <time>2022-09-28T10:02:15.000Z</time>
      </trkpt>
      <trkpt lat="49.79295" lon="4.845">
        <ele>301</ele>
        <time>2022-09-28T10:02:16.000Z</time>
      </trkpt>
      <trkpt lat="49.79296" lon="4.845">
        <ele>301</ele>
        <time>2022-09-28T10:02:17.000Z</time>
      </trkpt>
      <trkpt lat="49.79296" lon="4.845">
        <ele>301</ele>
        <time>2022-09-28T10:02:18.000Z</time>
      </trkpt>
      <trkpt lat="49.79296" lon="4.845">
        <ele>301</ele>
        <time>2022-09-28T10:02:19.000Z</time>
      </trkpt>
      <trkpt lat="49.79297" lon="4.845">
        <ele>301</ele>
        <time>2022-09-28T10:02:20.000Z</time>
      </trkpt>
      <trkpt lat="49.79298" lon="4.84499">
        <ele>301</ele>
        <time>2022-09-28T10:02:21.000Z</time>
      </trkpt>
      <trkpt lat="49.793" lon="4.84498">
        <ele>301</ele>
        <time>2022-09-28T10:02:22.000Z</time>
      </trkpt>
      <trkpt lat="49.79302" lon="4.84498">
        <ele>300</ele>
        <time>2022-09-28T10:02:23.000Z</time>
      </trkpt>
      <trkpt lat="49.79305" lon="4.84497">
        <ele>300</ele>
        <time>2022-09-28T10:02:24.000Z</time>
      </trkpt>
      <trkpt lat="49.79307" lon="4.84496">
        <ele>300</ele>
        <time>2022-09-28T10:02:25.000Z</time>
      </trkpt>
      <trkpt lat="49.79311" lon="4.84496">
        <ele>300</ele>
        <time>2022-09-28T10:02:26.000Z</time>
      </trkpt>
      <trkpt lat="49.79314" lon="4.84495">
        <ele>300</ele>
        <time>2022-09-28T10:02:27.000Z</time>
      </trkpt>
      <trkpt lat="49.79318" lon="4.84495">
        <ele>300</ele>
        <time>2022-09-28T10:02:28.000Z</time>
      </trkpt>
      <trkpt lat="49.79321" lon="4.84495">
        <ele>300</ele>
        <time>2022-09-28T10:02:29.000Z</time>
      </trkpt>
      <trkpt lat="49.79324" lon="4.84494">
        <ele>300</ele>
        <time>2022-09-28T10:02:30.000Z</time>
      </trkpt>
      <trkpt lat="49.79328" lon="4.84492">
        <ele>300</ele>
        <time>2022-09-28T10:02:31.000Z</time>
      </trkpt>
      <trkpt lat="49.79332" lon="4.84492">
        <ele>299</ele>
        <time>2022-09-28T10:02:32.000Z</time>
      </trkpt>
      <trkpt lat="49.79335" lon="4.84491">
        <ele>299</ele>
        <time>2022-09-28T10:02:33.000Z</time>
      </trkpt>
      <trkpt lat="49.79338" lon="4.84491">
        <ele>299</ele>
        <time>2022-09-28T10:02:34.000Z</time>
      </trkpt>
      <trkpt lat="49.79341" lon="4.84492">
        <ele>299</ele>
        <time>2022-09-28T10:02:35.000Z</time>
      </trkpt>
      <trkpt lat="49.79343" lon="4.84493">
        <ele>299</ele>
        <time>2022-09-28T10:02:36.000Z</time>
      </trkpt>
      <trkpt lat="49.79344" lon="4.84493">
        <ele>298</ele>
        <time>2022-09-28T10:02:37.000Z</time>
      </trkpt>
      <trkpt lat="49.79346" lon="4.84493">
        <ele>298</ele>
        <time>2022-09-28T10:02:38.000Z</time>
      </trkpt>
      <trkpt lat="49.79348" lon="4.84493">
        <ele>298</ele>
        <time>2022-09-28T10:02:39.000Z</time>
      </trkpt>
      <trkpt lat="49.79351" lon="4.84494">
        <ele>298</ele>
        <time>2022-09-28T10:02:40.000Z</time>
      </trkpt>
      <trkpt lat="49.79353" lon="4.84494">
        <ele>298</ele>
        <time>2022-09-28T10:02:41.000Z</time>
      </trkpt>
      <trkpt lat="49.79356" lon="4.84494">
        <ele>298</ele>
        <time>2022-09-28T10:02:42.000Z</time>
      </trkpt>
      <trkpt lat="49.79359" lon="4.84494">
        <ele>297</ele>
        <time>2022-09-28T10:02:43.000Z</time>
      </trkpt>
      <trkpt lat="49.79363" lon="4.84495">
        <ele>297</ele>
        <time>2022-09-28T10:02:44.000Z</time>
      </trkpt>
      <trkpt lat="49.79366" lon="4.84496">
        <ele>297</ele>
        <time>2022-09-28T10:02:45.000Z</time>
      </trkpt>
      <trkpt lat="49.79369" lon="4.84497">
        <ele>297</ele>
        <time>2022-09-28T10:02:46.000Z</time>
      </trkpt>
      <trkpt lat="49.79373" lon="4.84499">
        <ele>297</ele>
        <time>2022-09-28T10:02:47.000Z</time>
      </trkpt>
      <trkpt lat="49.79376" lon="4.845">
        <ele>297</ele>
        <time>2022-09-28T10:02:48.000Z</time>
      </trkpt>
      <trkpt lat="49.79378" lon="4.845">
        <ele>297</ele>
        <time>2022-09-28T10:02:49.000Z</time>
      </trkpt>
      <trkpt lat="49.79381" lon="4.84502">
        <ele>297</ele>
        <time>2022-09-28T10:02:50.000Z</time>
      </trkpt>
      <trkpt lat="49.79384" lon="4.84502">
        <ele>297</ele>
        <time>2022-09-28T10:02:51.000Z</time>
      </trkpt>
      <trkpt lat="49.79386" lon="4.84504">
        <ele>297</ele>
        <time>2022-09-28T10:02:52.000Z</time>
      </trkpt>
      <trkpt lat="49.79389" lon="4.84505">
        <ele>297</ele>
        <time>2022-09-28T10:02:53.000Z</time>
      </trkpt>
      <trkpt lat="49.79391" lon="4.84506">
        <ele>296</ele>
        <time>2022-09-28T10:02:54.000Z</time>
      </trkpt>
      <trkpt lat="49.79392" lon="4.84507">
        <ele>296</ele>
        <time>2022-09-28T10:02:55.000Z</time>
      </trkpt>
      <trkpt lat="49.79393" lon="4.84507">
        <ele>296</ele>
        <time>2022-09-28T10:02:56.000Z</time>
      </trkpt>
      <trkpt lat="49.79393" lon="4.84508">
        <ele>296</ele>
        <time>2022-09-28T10:02:57.000Z</time>
      </trkpt>
      <trkpt lat="49.79394" lon="4.84508">
        <ele>296</ele>
        <time>2022-09-28T10:02:58.000Z</time>
      </trkpt>
      <trkpt lat="49.79394" lon="4.84509">
        <ele>296</ele>
        <time>2022-09-28T10:02:59.000Z</time>
      </trkpt>
      <trkpt lat="49.79395" lon="4.8451">
        <ele>296</ele>
        <time>2022-09-28T10:03:00.000Z</time>
      </trkpt>
      <trkpt lat="49.79395" lon="4.84511">
        <ele>296</ele>
        <time>2022-09-28T10:03:01.000Z</time>
      </trkpt>
      <trkpt lat="49.79396" lon="4.84512">
        <ele>296</ele>
        <time>2022-09-28T10:03:02.000Z</time>
      </trkpt>
      <trkpt lat="49.79397" lon="4.84513">
        <ele>296</ele>
        <time>2022-09-28T10:03:03.000Z</time>
      </trkpt>
      <trkpt lat="49.79398" lon="4.84513">
        <ele>296</ele>
        <time>2022-09-28T10:03:04.000Z</time>
      </trkpt>
      <trkpt lat="49.79399" lon="4.84514">
        <ele>295</ele>
        <time>2022-09-28T10:03:05.000Z</time>
      </trkpt>
      <trkpt lat="49.79399" lon="4.84513">
        <ele>295</ele>
        <time>2022-09-28T10:03:06.000Z</time>
      </trkpt>
      <trkpt lat="49.794" lon="4.84513">
        <ele>295</ele>
        <time>2022-09-28T10:03:07.000Z</time>
      </trkpt>
      <trkpt lat="49.79401" lon="4.84512">
        <ele>295</ele>
        <time>2022-09-28T10:03:08.000Z</time>
      </trkpt>
      <trkpt lat="49.79402" lon="4.84512">
        <ele>295</ele>
        <time>2022-09-28T10:03:09.000Z</time>
      </trkpt>
      <trkpt lat="49.79403" lon="4.84512">
        <ele>295</ele>
        <time>2022-09-28T10:03:10.000Z</time>
      </trkpt>
      <trkpt lat="49.79403" lon="4.84511">
        <ele>294</ele>
        <time>2022-09-28T10:03:11.000Z</time>
      </trkpt>
      <trkpt lat="49.79404" lon="4.84512">
        <ele>294</ele>
        <time>2022-09-28T10:03:12.000Z</time>
      </trkpt>
      <trkpt lat="49.79406" lon="4.8451">
        <ele>294</ele>
        <time>2022-09-28T10:03:13.000Z</time>
      </trkpt>
      <trkpt lat="49.79408" lon="4.8451">
        <ele>294</ele>
        <time>2022-09-28T10:03:14.000Z</time>
      </trkpt>
      <trkpt lat="49.79411" lon="4.84509">
        <ele>294</ele>
        <time>2022-09-28T10:03:15.000Z</time>
      </trkpt>
      <trkpt lat="49.79414" lon="4.84509">
        <ele>294</ele>
        <time>2022-09-28T10:03:16.000Z</time>
      </trkpt>
      <trkpt lat="49.79418" lon="4.84509">
        <ele>294</ele>
        <time>2022-09-28T10:03:17.000Z</time>
      </trkpt>
      <trkpt lat="49.7942" lon="4.84509">
        <ele>294</ele>
        <time>2022-09-28T10:03:18.000Z</time>
      </trkpt>
      <trkpt lat="49.79422" lon="4.84509">
        <ele>293</ele>
        <time>2022-09-28T10:03:19.000Z</time>
      </trkpt>
      <trkpt lat="49.79424" lon="4.84509">
        <ele>293</ele>
        <time>2022-09-28T10:03:20.000Z</time>
      </trkpt>
      <trkpt lat="49.79426" lon="4.84508">
        <ele>293</ele>
        <time>2022-09-28T10:03:21.000Z</time>
      </trkpt>
      <trkpt lat="49.79428" lon="4.84507">
        <ele>293</ele>
        <time>2022-09-28T10:03:22.000Z</time>
      </trkpt>
      <trkpt lat="49.79429" lon="4.84507">
        <ele>293</ele>
        <time>2022-09-28T10:03:23.000Z</time>
      </trkpt>
      <trkpt lat="49.7943" lon="4.84506">
        <ele>293</ele>
        <time>2022-09-28T10:03:24.000Z</time>
      </trkpt>
      <trkpt lat="49.79431" lon="4.84507">
        <ele>293</ele>
        <time>2022-09-28T10:03:25.000Z</time>
      </trkpt>
      <trkpt lat="49.79431" lon="4.84507">
        <ele>293</ele>
        <time>2022-09-28T10:03:26.000Z</time>
      </trkpt>
      <trkpt lat="49.79431" lon="4.84507">
        <ele>293</ele>
        <time>2022-09-28T10:03:27.000Z</time>
      </trkpt>
      <trkpt lat="49.79431" lon="4.84507">
        <ele>293</ele>
        <time>2022-09-28T10:03:28.000Z</time>
      </trkpt>
      <trkpt lat="49.79432" lon="4.84507">
        <ele>292</ele>
        <time>2022-09-28T10:03:29.000Z</time>
      </trkpt>
      <trkpt lat="49.79432" lon="4.84508">
        <ele>292</ele>
        <time>2022-09-28T10:03:30.000Z</time>
      </trkpt>
      <trkpt lat="49.79432" lon="4.84508">
        <ele>292</ele>
        <time>2022-09-28T10:03:31.000Z</time>
      </trkpt>
      <trkpt lat="49.79432" lon="4.84508">
        <ele>292</ele>
        <time>2022-09-28T10:03:32.000Z</time>
      </trkpt>
      <trkpt lat="49.79432" lon="4.84508">
        <ele>292</ele>
        <time>2022-09-28T10:03:33.000Z</time>
      </trkpt>
      <trkpt lat="49.79433" lon="4.84508">
        <ele>292</ele>
        <time>2022-09-28T10:03:34.000Z</time>
      </trkpt>
      <trkpt lat="49.79433" lon="4.84508">
        <ele>292</ele>
        <time>2022-09-28T10:03:35.000Z</time>
      </trkpt>
      <trkpt lat="49.79433" lon="4.84508">
        <ele>292</ele>
        <time>2022-09-28T10:03:36.000Z</time>
      </trkpt>
      <trkpt lat="49.79433" lon="4.84508">
        <ele>292</ele>
        <time>2022-09-28T10:03:37.000Z</time>
      </trkpt>
      <trkpt lat="49.79433" lon="4.84508">
        <ele>292</ele>
        <time>2022-09-28T10:03:38.000Z</time>
      </trkpt>
      <trkpt lat="49.79434" lon="4.84508">
        <ele>292</ele>
        <time>2022-09-28T10:03:39.000Z</time>
      </trkpt>
      <trkpt lat="49.79435" lon="4.84507">
        <ele>292</ele>
        <time>2022-09-28T10:03:40.000Z</time>
      </trkpt>
      <trkpt lat="49.79437" lon="4.84507">
        <ele>292</ele>
        <time>2022-09-28T10:03:41.000Z</time>
      </trkpt>
      <trkpt lat="49.79439" lon="4.84507">
        <ele>291</ele>
        <time>2022-09-28T10:03:42.000Z</time>
      </trkpt>
      <trkpt lat="49.7944" lon="4.84507">
        <ele>291</ele>
        <time>2022-09-28T10:03:43.000Z</time>
      </trkpt>
      <trkpt lat="49.79442" lon="4.84507">
        <ele>291</ele>
        <time>2022-09-28T10:03:44.000Z</time>
      </trkpt>
      <trkpt lat="49.79444" lon="4.84507">
        <ele>291</ele>
        <time>2022-09-28T10:03:45.000Z</time>
      </trkpt>
      <trkpt lat="49.79447" lon="4.84506">
        <ele>291</ele>
        <time>2022-09-28T10:03:46.000Z</time>
      </trkpt>
      <trkpt lat="49.7945" lon="4.84506">
        <ele>291</ele>
        <time>2022-09-28T10:03:47.000Z</time>
      </trkpt>
      <trkpt lat="49.79453" lon="4.84506">
        <ele>291</ele>
        <time>2022-09-28T10:03:48.000Z</time>
      </trkpt>
      <trkpt lat="49.79456" lon="4.84505">
        <ele>290</ele>
        <time>2022-09-28T10:03:49.000Z</time>
      </trkpt>
      <trkpt lat="49.7946" lon="4.84504">
        <ele>290</ele>
        <time>2022-09-28T10:03:50.000Z</time>
      </trkpt>
      <trkpt lat="49.79463" lon="4.84503">
        <ele>290</ele>
        <time>2022-09-28T10:03:51.000Z</time>
      </trkpt>
      <trkpt lat="49.79465" lon="4.84502">
        <ele>290</ele>
        <time>2022-09-28T10:03:52.000Z</time>
      </trkpt>
      <trkpt lat="49.79468" lon="4.84502">
        <ele>290</ele>
        <time>2022-09-28T10:03:53.000Z</time>
      </trkpt>
      <trkpt lat="49.7947" lon="4.84502">
        <ele>290</ele>
        <time>2022-09-28T10:03:54.000Z</time>
      </trkpt>
      <trkpt lat="49.79472" lon="4.84502">
        <ele>290</ele>
        <time>2022-09-28T10:03:55.000Z</time>
      </trkpt>
      <trkpt lat="49.79475" lon="4.84501">
        <ele>289</ele>
        <time>2022-09-28T10:03:56.000Z</time>
      </trkpt>
      <trkpt lat="49.79477" lon="4.84501">
        <ele>289</ele>
        <time>2022-09-28T10:03:57.000Z</time>
      </trkpt>
      <trkpt lat="49.7948" lon="4.845">
        <ele>289</ele>
        <time>2022-09-28T10:03:58.000Z</time>
      </trkpt>
      <trkpt lat="49.79482" lon="4.84501">
        <ele>289</ele>
        <time>2022-09-28T10:03:59.000Z</time>
      </trkpt>
      <trkpt lat="49.79485" lon="4.84501">
        <ele>289</ele>
        <time>2022-09-28T10:04:00.000Z</time>
      </trkpt>
      <trkpt lat="49.79487" lon="4.84502">
        <ele>289</ele>
        <time>2022-09-28T10:04:01.000Z</time>
      </trkpt>
      <trkpt lat="49.7949" lon="4.84503">
        <ele>288</ele>
        <time>2022-09-28T10:04:02.000Z</time>
      </trkpt>
      <trkpt lat="49.79493" lon="4.84504">
        <ele>288</ele>
        <time>2022-09-28T10:04:03.000Z</time>
      </trkpt>
      <trkpt lat="49.79496" lon="4.84505">
        <ele>288</ele>
        <time>2022-09-28T10:04:04.000Z</time>
      </trkpt>
      <trkpt lat="49.79498" lon="4.84507">
        <ele>288</ele>
        <time>2022-09-28T10:04:05.000Z</time>
      </trkpt>
      <trkpt lat="49.795" lon="4.84509">
        <ele>288</ele>
        <time>2022-09-28T10:04:06.000Z</time>
      </trkpt>
      <trkpt lat="49.79502" lon="4.84511">
        <ele>288</ele>
        <time>2022-09-28T10:04:07.000Z</time>
      </trkpt>
      <trkpt lat="49.79504" lon="4.84513">
        <ele>288</ele>
        <time>2022-09-28T10:04:08.000Z</time>
      </trkpt>
      <trkpt lat="49.79506" lon="4.84515">
        <ele>287</ele>
        <time>2022-09-28T10:04:09.000Z</time>
      </trkpt>
      <trkpt lat="49.79508" lon="4.84518">
        <ele>287</ele>
        <time>2022-09-28T10:04:10.000Z</time>
      </trkpt>
      <trkpt lat="49.79511" lon="4.8452">
        <ele>287</ele>
        <time>2022-09-28T10:04:11.000Z</time>
      </trkpt>
      <trkpt lat="49.79513" lon="4.84522">
        <ele>287</ele>
        <time>2022-09-28T10:04:12.000Z</time>
      </trkpt>
      <trkpt lat="49.79515" lon="4.84525">
        <ele>287</ele>
        <time>2022-09-28T10:04:13.000Z</time>
      </trkpt>
      <trkpt lat="49.79517" lon="4.84529">
        <ele>286</ele>
        <time>2022-09-28T10:04:14.000Z</time>
      </trkpt>
      <trkpt lat="49.79519" lon="4.84532">
        <ele>286</ele>
        <time>2022-09-28T10:04:15.000Z</time>
      </trkpt>
      <trkpt lat="49.79521" lon="4.84534">
        <ele>286</ele>
        <time>2022-09-28T10:04:16.000Z</time>
      </trkpt>
      <trkpt lat="49.79523" lon="4.84536">
        <ele>286</ele>
        <time>2022-09-28T10:04:17.000Z</time>
      </trkpt>
      <trkpt lat="49.79524" lon="4.84539">
        <ele>286</ele>
        <time>2022-09-28T10:04:18.000Z</time>
      </trkpt>
      <trkpt lat="49.79526" lon="4.84542">
        <ele>285</ele>
        <time>2022-09-28T10:04:19.000Z</time>
      </trkpt>
      <trkpt lat="49.79528" lon="4.84545">
        <ele>285</ele>
        <time>2022-09-28T10:04:20.000Z</time>
      </trkpt>
      <trkpt lat="49.7953" lon="4.84547">
        <ele>285</ele>
        <time>2022-09-28T10:04:21.000Z</time>
      </trkpt>
      <trkpt lat="49.79532" lon="4.84551">
        <ele>285</ele>
        <time>2022-09-28T10:04:22.000Z</time>
      </trkpt>
      <trkpt lat="49.79533" lon="4.84554">
        <ele>285</ele>
        <time>2022-09-28T10:04:23.000Z</time>
      </trkpt>
      <trkpt lat="49.79535" lon="4.84556">
        <ele>284</ele>
        <time>2022-09-28T10:04:24.000Z</time>
      </trkpt>
      <trkpt lat="49.79536" lon="4.84559">
        <ele>284</ele>
        <time>2022-09-28T10:04:25.000Z</time>
      </trkpt>
      <trkpt lat="49.79537" lon="4.84562">
        <ele>284</ele>
        <time>2022-09-28T10:04:26.000Z</time>
      </trkpt>
      <trkpt lat="49.79538" lon="4.84565">
        <ele>284</ele>
        <time>2022-09-28T10:04:27.000Z</time>
      </trkpt>
      <trkpt lat="49.79539" lon="4.84568">
        <ele>284</ele>
        <time>2022-09-28T10:04:28.000Z</time>
      </trkpt>
      <trkpt lat="49.7954" lon="4.84571">
        <ele>283</ele>
        <time>2022-09-28T10:04:29.000Z</time>
      </trkpt>
      <trkpt lat="49.79541" lon="4.84574">
        <ele>283</ele>
        <time>2022-09-28T10:04:30.000Z</time>
      </trkpt>
      <trkpt lat="49.79541" lon="4.84577">
        <ele>283</ele>
        <time>2022-09-28T10:04:31.000Z</time>
      </trkpt>
      <trkpt lat="49.79542" lon="4.84578">
        <ele>283</ele>
        <time>2022-09-28T10:04:32.000Z</time>
      </trkpt>
      <trkpt lat="49.79543" lon="4.84579">
        <ele>283</ele>
        <time>2022-09-28T10:04:33.000Z</time>
      </trkpt>
      <trkpt lat="49.79543" lon="4.8458">
        <ele>283</ele>
        <time>2022-09-28T10:04:34.000Z</time>
      </trkpt>
      <trkpt lat="49.79544" lon="4.84582">
        <ele>282</ele>
        <time>2022-09-28T10:04:35.000Z</time>
      </trkpt>
      <trkpt lat="49.79545" lon="4.84583">
        <ele>282</ele>
        <time>2022-09-28T10:04:36.000Z</time>
      </trkpt>
      <trkpt lat="49.79545" lon="4.84585">
        <ele>282</ele>
        <time>2022-09-28T10:04:37.000Z</time>
      </trkpt>
      <trkpt lat="49.79546" lon="4.84587">
        <ele>282</ele>
        <time>2022-09-28T10:04:38.000Z</time>
      </trkpt>
      <trkpt lat="49.79546" lon="4.84588">
        <ele>282</ele>
        <time>2022-09-28T10:04:39.000Z</time>
      </trkpt>
      <trkpt lat="49.79547" lon="4.8459">
        <ele>282</ele>
        <time>2022-09-28T10:04:40.000Z</time>
      </trkpt>
      <trkpt lat="49.79547" lon="4.84593">
        <ele>281</ele>
        <time>2022-09-28T10:04:41.000Z</time>
      </trkpt>
      <trkpt lat="49.79548" lon="4.84595">
        <ele>281</ele>
        <time>2022-09-28T10:04:42.000Z</time>
      </trkpt>
      <trkpt lat="49.79548" lon="4.84596">
        <ele>281</ele>
        <time>2022-09-28T10:04:43.000Z</time>
      </trkpt>
      <trkpt lat="49.79549" lon="4.84598">
        <ele>281</ele>
        <time>2022-09-28T10:04:44.000Z</time>
      </trkpt>
      <trkpt lat="49.79549" lon="4.84599">
        <ele>282</ele>
        <time>2022-09-28T10:04:45.000Z</time>
      </trkpt>
      <trkpt lat="49.79548" lon="4.84601">
        <ele>282</ele>
        <time>2022-09-28T10:04:46.000Z</time>
      </trkpt>
      <trkpt lat="49.79549" lon="4.84602">
        <ele>281</ele>
        <time>2022-09-28T10:04:47.000Z</time>
      </trkpt>
      <trkpt lat="49.79549" lon="4.84603">
        <ele>281</ele>
        <time>2022-09-28T10:04:48.000Z</time>
      </trkpt>
      <trkpt lat="49.79549" lon="4.84604">
        <ele>281</ele>
        <time>2022-09-28T10:04:49.000Z</time>
      </trkpt>
      <trkpt lat="49.7955" lon="4.84605">
        <ele>281</ele>
        <time>2022-09-28T10:04:50.000Z</time>
      </trkpt>
      <trkpt lat="49.7955" lon="4.84606">
        <ele>281</ele>
        <time>2022-09-28T10:04:51.000Z</time>
      </trkpt>
      <trkpt lat="49.7955" lon="4.84607">
        <ele>281</ele>
        <time>2022-09-28T10:04:52.000Z</time>
      </trkpt>
      <trkpt lat="49.7955" lon="4.84609">
        <ele>281</ele>
        <time>2022-09-28T10:04:53.000Z</time>
      </trkpt>
      <trkpt lat="49.79551" lon="4.8461">
        <ele>281</ele>
        <time>2022-09-28T10:04:54.000Z</time>
      </trkpt>
      <trkpt lat="49.79551" lon="4.84611">
        <ele>281</ele>
        <time>2022-09-28T10:04:55.000Z</time>
      </trkpt>
      <trkpt lat="49.79552" lon="4.84612">
        <ele>281</ele>
        <time>2022-09-28T10:04:56.000Z</time>
      </trkpt>
      <trkpt lat="49.79553" lon="4.84614">
        <ele>281</ele>
        <time>2022-09-28T10:04:57.000Z</time>
      </trkpt>
      <trkpt lat="49.79553" lon="4.84615">
        <ele>281</ele>
        <time>2022-09-28T10:04:58.000Z</time>
      </trkpt>
      <trkpt lat="49.79554" lon="4.84616">
        <ele>281</ele>
        <time>2022-09-28T10:04:59.000Z</time>
      </trkpt>
      <trkpt lat="49.79555" lon="4.84618">
        <ele>281</ele>
        <time>2022-09-28T10:05:00.000Z</time>
      </trkpt>
      <trkpt lat="49.79555" lon="4.84619">
        <ele>281</ele>
        <time>2022-09-28T10:05:01.000Z</time>
      </trkpt>
      <trkpt lat="49.79556" lon="4.84621">
        <ele>281</ele>
        <time>2022-09-28T10:05:02.000Z</time>
      </trkpt>
      <trkpt lat="49.79557" lon="4.84622">
        <ele>281</ele>
        <time>2022-09-28T10:05:03.000Z</time>
      </trkpt>
      <trkpt lat="49.79557" lon="4.84623">
        <ele>281</ele>
        <time>2022-09-28T10:05:04.000Z</time>
      </trkpt>
      <trkpt lat="49.79558" lon="4.84625">
        <ele>281</ele>
        <time>2022-09-28T10:05:05.000Z</time>
      </trkpt>
      <trkpt lat="49.79559" lon="4.84627">
        <ele>281</ele>
        <time>2022-09-28T10:05:06.000Z</time>
      </trkpt>
      <trkpt lat="49.79559" lon="4.84629">
        <ele>281</ele>
        <time>2022-09-28T10:05:07.000Z</time>
      </trkpt>
      <trkpt lat="49.7956" lon="4.84631">
        <ele>281</ele>
        <time>2022-09-28T10:05:08.000Z</time>
      </trkpt>
      <trkpt lat="49.7956" lon="4.84633">
        <ele>281</ele>
        <time>2022-09-28T10:05:09.000Z</time>
      </trkpt>
      <trkpt lat="49.79561" lon="4.84635">
        <ele>281</ele>
        <time>2022-09-28T10:05:10.000Z</time>
      </trkpt>
      <trkpt lat="49.79562" lon="4.84636">
        <ele>281</ele>
        <time>2022-09-28T10:05:11.000Z</time>
      </trkpt>
      <trkpt lat="49.79562" lon="4.84637">
        <ele>280</ele>
        <time>2022-09-28T10:05:12.000Z</time>
      </trkpt>
      <trkpt lat="49.79563" lon="4.84639">
        <ele>280</ele>
        <time>2022-09-28T10:05:13.000Z</time>
      </trkpt>
      <trkpt lat="49.79563" lon="4.84641">
        <ele>280</ele>
        <time>2022-09-28T10:05:14.000Z</time>
      </trkpt>
      <trkpt lat="49.79564" lon="4.84642">
        <ele>280</ele>
        <time>2022-09-28T10:05:15.000Z</time>
      </trkpt>
      <trkpt lat="49.79564" lon="4.84643">
        <ele>280</ele>
        <time>2022-09-28T10:05:16.000Z</time>
      </trkpt>
      <trkpt lat="49.79565" lon="4.84645">
        <ele>280</ele>
        <time>2022-09-28T10:05:17.000Z</time>
      </trkpt>
      <trkpt lat="49.79565" lon="4.84646">
        <ele>280</ele>
        <time>2022-09-28T10:05:18.000Z</time>
      </trkpt>
      <trkpt lat="49.79566" lon="4.84648">
        <ele>279</ele>
        <time>2022-09-28T10:05:19.000Z</time>
      </trkpt>
      <trkpt lat="49.79567" lon="4.84649">
        <ele>279</ele>
        <time>2022-09-28T10:05:20.000Z</time>
      </trkpt>
      <trkpt lat="49.79567" lon="4.84651">
        <ele>279</ele>
        <time>2022-09-28T10:05:21.000Z</time>
      </trkpt>
      <trkpt lat="49.79568" lon="4.84652">
        <ele>279</ele>
        <time>2022-09-28T10:05:22.000Z</time>
      </trkpt>
      <trkpt lat="49.79568" lon="4.84654">
        <ele>279</ele>
        <time>2022-09-28T10:05:23.000Z</time>
      </trkpt>
      <trkpt lat="49.79569" lon="4.84656">
        <ele>279</ele>
        <time>2022-09-28T10:05:24.000Z</time>
      </trkpt>
      <trkpt lat="49.7957" lon="4.84658">
        <ele>279</ele>
        <time>2022-09-28T10:05:25.000Z</time>
      </trkpt>
      <trkpt lat="49.7957" lon="4.84659">
        <ele>279</ele>
        <time>2022-09-28T10:05:26.000Z</time>
      </trkpt>
      <trkpt lat="49.79571" lon="4.8466">
        <ele>279</ele>
        <time>2022-09-28T10:05:27.000Z</time>
      </trkpt>
      <trkpt lat="49.79572" lon="4.84661">
        <ele>279</ele>
        <time>2022-09-28T10:05:28.000Z</time>
      </trkpt>
      <trkpt lat="49.79572" lon="4.84662">
        <ele>279</ele>
        <time>2022-09-28T10:05:29.000Z</time>
      </trkpt>
      <trkpt lat="49.79573" lon="4.84663">
        <ele>278</ele>
        <time>2022-09-28T10:05:30.000Z</time>
      </trkpt>
      <trkpt lat="49.79574" lon="4.84663">
        <ele>278</ele>
        <time>2022-09-28T10:05:31.000Z</time>
      </trkpt>
      <trkpt lat="49.79574" lon="4.84664">
        <ele>278</ele>
        <time>2022-09-28T10:05:32.000Z</time>
      </trkpt>
      <trkpt lat="49.79574" lon="4.84664">
        <ele>278</ele>
        <time>2022-09-28T10:05:33.000Z</time>
      </trkpt>
      <trkpt lat="49.79575" lon="4.84666">
        <ele>278</ele>
        <time>2022-09-28T10:05:34.000Z</time>
      </trkpt>
      <trkpt lat="49.79575" lon="4.84667">
        <ele>278</ele>
        <time>2022-09-28T10:05:35.000Z</time>
      </trkpt>
      <trkpt lat="49.79575" lon="4.84667">
        <ele>278</ele>
        <time>2022-09-28T10:05:36.000Z</time>
      </trkpt>
      <trkpt lat="49.79575" lon="4.84669">
        <ele>278</ele>
        <time>2022-09-28T10:05:37.000Z</time>
      </trkpt>
      <trkpt lat="49.79575" lon="4.8467">
        <ele>278</ele>
        <time>2022-09-28T10:05:38.000Z</time>
      </trkpt>
      <trkpt lat="49.79575" lon="4.84671">
        <ele>278</ele>
        <time>2022-09-28T10:05:39.000Z</time>
      </trkpt>
      <trkpt lat="49.79576" lon="4.84673">
        <ele>279</ele>
        <time>2022-09-28T10:05:40.000Z</time>
      </trkpt>
      <trkpt lat="49.79576" lon="4.84675">
        <ele>279</ele>
        <time>2022-09-28T10:05:41.000Z</time>
      </trkpt>
      <trkpt lat="49.79577" lon="4.84677">
        <ele>279</ele>
        <time>2022-09-28T10:05:42.000Z</time>
      </trkpt>
      <trkpt lat="49.79577" lon="4.84679">
        <ele>279</ele>
        <time>2022-09-28T10:05:43.000Z</time>
      </trkpt>
      <trkpt lat="49.79577" lon="4.8468">
        <ele>279</ele>
        <time>2022-09-28T10:05:44.000Z</time>
      </trkpt>
      <trkpt lat="49.79578" lon="4.84682">
        <ele>279</ele>
        <time>2022-09-28T10:05:45.000Z</time>
      </trkpt>
      <trkpt lat="49.79578" lon="4.84684">
        <ele>279</ele>
        <time>2022-09-28T10:05:46.000Z</time>
      </trkpt>
      <trkpt lat="49.79578" lon="4.84686">
        <ele>279</ele>
        <time>2022-09-28T10:05:47.000Z</time>
      </trkpt>
      <trkpt lat="49.79579" lon="4.84688">
        <ele>279</ele>
        <time>2022-09-28T10:05:48.000Z</time>
      </trkpt>
      <trkpt lat="49.79579" lon="4.84691">
        <ele>280</ele>
        <time>2022-09-28T10:05:49.000Z</time>
      </trkpt>
      <trkpt lat="49.79579" lon="4.84693">
        <ele>280</ele>
        <time>2022-09-28T10:05:50.000Z</time>
      </trkpt>
      <trkpt lat="49.79579" lon="4.84695">
        <ele>280</ele>
        <time>2022-09-28T10:05:51.000Z</time>
      </trkpt>
      <trkpt lat="49.79578" lon="4.84697">
        <ele>280</ele>
        <time>2022-09-28T10:05:52.000Z</time>
      </trkpt>
      <trkpt lat="49.79579" lon="4.84699">
        <ele>280</ele>
        <time>2022-09-28T10:05:53.000Z</time>
      </trkpt>
      <trkpt lat="49.79579" lon="4.84701">
        <ele>280</ele>
        <time>2022-09-28T10:05:54.000Z</time>
      </trkpt>
      <trkpt lat="49.79579" lon="4.84704">
        <ele>280</ele>
        <time>2022-09-28T10:05:55.000Z</time>
      </trkpt>
      <trkpt lat="49.7958" lon="4.84705">
        <ele>280</ele>
        <time>2022-09-28T10:05:56.000Z</time>
      </trkpt>
      <trkpt lat="49.79581" lon="4.84707">
        <ele>280</ele>
        <time>2022-09-28T10:05:57.000Z</time>
      </trkpt>
      <trkpt lat="49.79582" lon="4.84708">
        <ele>280</ele>
        <time>2022-09-28T10:05:58.000Z</time>
      </trkpt>
      <trkpt lat="49.79582" lon="4.84709">
        <ele>280</ele>
        <time>2022-09-28T10:05:59.000Z</time>
      </trkpt>
      <trkpt lat="49.79582" lon="4.84711">
        <ele>280</ele>
        <time>2022-09-28T10:06:00.000Z</time>
      </trkpt>
      <trkpt lat="49.79583" lon="4.84712">
        <ele>280</ele>
        <time>2022-09-28T10:06:01.000Z</time>
      </trkpt>
      <trkpt lat="49.79583" lon="4.84714">
        <ele>280</ele>
        <time>2022-09-28T10:06:02.000Z</time>
      </trkpt>
      <trkpt lat="49.79583" lon="4.84715">
        <ele>280</ele>
        <time>2022-09-28T10:06:03.000Z</time>
      </trkpt>
      <trkpt lat="49.79584" lon="4.84717">
        <ele>280</ele>
        <time>2022-09-28T10:06:04.000Z</time>
      </trkpt>
      <trkpt lat="49.79584" lon="4.84718">
        <ele>281</ele>
        <time>2022-09-28T10:06:05.000Z</time>
      </trkpt>
      <trkpt lat="49.79585" lon="4.84719">
        <ele>281</ele>
        <time>2022-09-28T10:06:06.000Z</time>
      </trkpt>
      <trkpt lat="49.79585" lon="4.8472">
        <ele>281</ele>
        <time>2022-09-28T10:06:07.000Z</time>
      </trkpt>
      <trkpt lat="49.79585" lon="4.84722">
        <ele>281</ele>
        <time>2022-09-28T10:06:08.000Z</time>
      </trkpt>
      <trkpt lat="49.79585" lon="4.84723">
        <ele>281</ele>
        <time>2022-09-28T10:06:09.000Z</time>
      </trkpt>
      <trkpt lat="49.79585" lon="4.84725">
        <ele>281</ele>
        <time>2022-09-28T10:06:10.000Z</time>
      </trkpt>
      <trkpt lat="49.79585" lon="4.84726">
        <ele>281</ele>
        <time>2022-09-28T10:06:11.000Z</time>
      </trkpt>
      <trkpt lat="49.79585" lon="4.84728">
        <ele>282</ele>
        <time>2022-09-28T10:06:12.000Z</time>
      </trkpt>
      <trkpt lat="49.79584" lon="4.84729">
        <ele>282</ele>
        <time>2022-09-28T10:06:13.000Z</time>
      </trkpt>
      <trkpt lat="49.79584" lon="4.84731">
        <ele>282</ele>
        <time>2022-09-28T10:06:14.000Z</time>
      </trkpt>
      <trkpt lat="49.79584" lon="4.84733">
        <ele>282</ele>
        <time>2022-09-28T10:06:15.000Z</time>
      </trkpt>
      <trkpt lat="49.79584" lon="4.84734">
        <ele>282</ele>
        <time>2022-09-28T10:06:16.000Z</time>
      </trkpt>
      <trkpt lat="49.79585" lon="4.84736">
        <ele>282</ele>
        <time>2022-09-28T10:06:17.000Z</time>
      </trkpt>
      <trkpt lat="49.79585" lon="4.84738">
        <ele>282</ele>
        <time>2022-09-28T10:06:18.000Z</time>
      </trkpt>
      <trkpt lat="49.79585" lon="4.8474">
        <ele>282</ele>
        <time>2022-09-28T10:06:19.000Z</time>
      </trkpt>
      <trkpt lat="49.79586" lon="4.84742">
        <ele>282</ele>
        <time>2022-09-28T10:06:20.000Z</time>
      </trkpt>
      <trkpt lat="49.79586" lon="4.84743">
        <ele>282</ele>
        <time>2022-09-28T10:06:21.000Z</time>
      </trkpt>
      <trkpt lat="49.79586" lon="4.84745">
        <ele>282</ele>
        <time>2022-09-28T10:06:22.000Z</time>
      </trkpt>
      <trkpt lat="49.79586" lon="4.84747">
        <ele>281</ele>
        <time>2022-09-28T10:06:23.000Z</time>
      </trkpt>
      <trkpt lat="49.79586" lon="4.84749">
        <ele>281</ele>
        <time>2022-09-28T10:06:24.000Z</time>
      </trkpt>
      <trkpt lat="49.79587" lon="4.84751">
        <ele>281</ele>
        <time>2022-09-28T10:06:25.000Z</time>
      </trkpt>
      <trkpt lat="49.79587" lon="4.84753">
        <ele>281</ele>
        <time>2022-09-28T10:06:26.000Z</time>
      </trkpt>
      <trkpt lat="49.79587" lon="4.84755">
        <ele>282</ele>
        <time>2022-09-28T10:06:27.000Z</time>
      </trkpt>
      <trkpt lat="49.79587" lon="4.84758">
        <ele>282</ele>
        <time>2022-09-28T10:06:28.000Z</time>
      </trkpt>
      <trkpt lat="49.79588" lon="4.8476">
        <ele>282</ele>
        <time>2022-09-28T10:06:29.000Z</time>
      </trkpt>
      <trkpt lat="49.79588" lon="4.84761">
        <ele>282</ele>
        <time>2022-09-28T10:06:30.000Z</time>
      </trkpt>
      <trkpt lat="49.79588" lon="4.84763">
        <ele>282</ele>
        <time>2022-09-28T10:06:31.000Z</time>
      </trkpt>
      <trkpt lat="49.79588" lon="4.84764">
        <ele>282</ele>
        <time>2022-09-28T10:06:32.000Z</time>
      </trkpt>
      <trkpt lat="49.79588" lon="4.84766">
        <ele>282</ele>
        <time>2022-09-28T10:06:33.000Z</time>
      </trkpt>
      <trkpt lat="49.79588" lon="4.84768">
        <ele>282</ele>
        <time>2022-09-28T10:06:34.000Z</time>
      </trkpt>
      <trkpt lat="49.79588" lon="4.8477">
        <ele>282</ele>
        <time>2022-09-28T10:06:35.000Z</time>
      </trkpt>
      <trkpt lat="49.79589" lon="4.84772">
        <ele>283</ele>
        <time>2022-09-28T10:06:36.000Z</time>
      </trkpt>
      <trkpt lat="49.79589" lon="4.84774">
        <ele>283</ele>
        <time>2022-09-28T10:06:37.000Z</time>
      </trkpt>
      <trkpt lat="49.79588" lon="4.84775">
        <ele>283</ele>
        <time>2022-09-28T10:06:38.000Z</time>
      </trkpt>
      <trkpt lat="49.79588" lon="4.84777">
        <ele>283</ele>
        <time>2022-09-28T10:06:39.000Z</time>
      </trkpt>
      <trkpt lat="49.79588" lon="4.84777">
        <ele>283</ele>
        <time>2022-09-28T10:06:40.000Z</time>
      </trkpt>
      <trkpt lat="49.79588" lon="4.84778">
        <ele>283</ele>
        <time>2022-09-28T10:06:41.000Z</time>
      </trkpt>
      <trkpt lat="49.79588" lon="4.84778">
        <ele>283</ele>
        <time>2022-09-28T10:06:42.000Z</time>
      </trkpt>
      <trkpt lat="49.79588" lon="4.84778">
        <ele>283</ele>
        <time>2022-09-28T10:06:43.000Z</time>
      </trkpt>
      <trkpt lat="49.79588" lon="4.84778">
        <ele>283</ele>
        <time>2022-09-28T10:06:44.000Z</time>
      </trkpt>
      <trkpt lat="49.79588" lon="4.84778">
        <ele>283</ele>
        <time>2022-09-28T10:06:45.000Z</time>
      </trkpt>
      <trkpt lat="49.79589" lon="4.84778">
        <ele>283</ele>
        <time>2022-09-28T10:06:46.000Z</time>
      </trkpt>
      <trkpt lat="49.79589" lon="4.84779">
        <ele>283</ele>
        <time>2022-09-28T10:06:47.000Z</time>
      </trkpt>
      <trkpt lat="49.79589" lon="4.84779">
        <ele>283</ele>
        <time>2022-09-28T10:06:48.000Z</time>
      </trkpt>
      <trkpt lat="49.79589" lon="4.8478">
        <ele>283</ele>
        <time>2022-09-28T10:06:49.000Z</time>
      </trkpt>
      <trkpt lat="49.7959" lon="4.84781">
        <ele>283</ele>
        <time>2022-09-28T10:06:50.000Z</time>
      </trkpt>
      <trkpt lat="49.7959" lon="4.84783">
        <ele>283</ele>
        <time>2022-09-28T10:06:51.000Z</time>
      </trkpt>
      <trkpt lat="49.7959" lon="4.84785">
        <ele>284</ele>
        <time>2022-09-28T10:06:52.000Z</time>
      </trkpt>
      <trkpt lat="49.7959" lon="4.84786">
        <ele>284</ele>
        <time>2022-09-28T10:06:53.000Z</time>
      </trkpt>
      <trkpt lat="49.79591" lon="4.84788">
        <ele>284</ele>
        <time>2022-09-28T10:06:54.000Z</time>
      </trkpt>
      <trkpt lat="49.79591" lon="4.84791">
        <ele>284</ele>
        <time>2022-09-28T10:06:55.000Z</time>
      </trkpt>
      <trkpt lat="49.79592" lon="4.84792">
        <ele>284</ele>
        <time>2022-09-28T10:06:56.000Z</time>
      </trkpt>
      <trkpt lat="49.79592" lon="4.84794">
        <ele>284</ele>
        <time>2022-09-28T10:06:57.000Z</time>
      </trkpt>
      <trkpt lat="49.79592" lon="4.84796">
        <ele>284</ele>
        <time>2022-09-28T10:06:58.000Z</time>
      </trkpt>
      <trkpt lat="49.79592" lon="4.84796">
        <ele>284</ele>
        <time>2022-09-28T10:06:59.000Z</time>
      </trkpt>
      <trkpt lat="49.79593" lon="4.84797">
        <ele>284</ele>
        <time>2022-09-28T10:07:00.000Z</time>
      </trkpt>
      <trkpt lat="49.79593" lon="4.84798">
        <ele>284</ele>
        <time>2022-09-28T10:07:01.000Z</time>
      </trkpt>
      <trkpt lat="49.79593" lon="4.84799">
        <ele>284</ele>
        <time>2022-09-28T10:07:02.000Z</time>
      </trkpt>
      <trkpt lat="49.79593" lon="4.84799">
        <ele>284</ele>
        <time>2022-09-28T10:07:03.000Z</time>
      </trkpt>
      <trkpt lat="49.79593" lon="4.84801">
        <ele>285</ele>
        <time>2022-09-28T10:07:04.000Z</time>
      </trkpt>
      <trkpt lat="49.79593" lon="4.84802">
        <ele>285</ele>
        <time>2022-09-28T10:07:05.000Z</time>
      </trkpt>
      <trkpt lat="49.79593" lon="4.84803">
        <ele>285</ele>
        <time>2022-09-28T10:07:06.000Z</time>
      </trkpt>
      <trkpt lat="49.79593" lon="4.84805">
        <ele>285</ele>
        <time>2022-09-28T10:07:07.000Z</time>
      </trkpt>
      <trkpt lat="49.79593" lon="4.84806">
        <ele>285</ele>
        <time>2022-09-28T10:07:08.000Z</time>
      </trkpt>
      <trkpt lat="49.79593" lon="4.84807">
        <ele>285</ele>
        <time>2022-09-28T10:07:09.000Z</time>
      </trkpt>
      <trkpt lat="49.79592" lon="4.84807">
        <ele>285</ele>
        <time>2022-09-28T10:07:10.000Z</time>
      </trkpt>
      <trkpt lat="49.79592" lon="4.84807">
        <ele>285</ele>
        <time>2022-09-28T10:07:11.000Z</time>
      </trkpt>
      <trkpt lat="49.79592" lon="4.84807">
        <ele>285</ele>
        <time>2022-09-28T10:07:12.000Z</time>
      </trkpt>
      <trkpt lat="49.79593" lon="4.84807">
        <ele>285</ele>
        <time>2022-09-28T10:07:13.000Z</time>
      </trkpt>
      <trkpt lat="49.79593" lon="4.84806">
        <ele>285</ele>
        <time>2022-09-28T10:07:14.000Z</time>
      </trkpt>
      <trkpt lat="49.79594" lon="4.84806">
        <ele>285</ele>
        <time>2022-09-28T10:07:15.000Z</time>
      </trkpt>
      <trkpt lat="49.79594" lon="4.84805">
        <ele>285</ele>
        <time>2022-09-28T10:07:16.000Z</time>
      </trkpt>
      <trkpt lat="49.79595" lon="4.84804">
        <ele>285</ele>
        <time>2022-09-28T10:07:17.000Z</time>
      </trkpt>
      <trkpt lat="49.79596" lon="4.84803">
        <ele>285</ele>
        <time>2022-09-28T10:07:18.000Z</time>
      </trkpt>
      <trkpt lat="49.79597" lon="4.84802">
        <ele>285</ele>
        <time>2022-09-28T10:07:19.000Z</time>
      </trkpt>
      <trkpt lat="49.79599" lon="4.84801">
        <ele>285</ele>
        <time>2022-09-28T10:07:20.000Z</time>
      </trkpt>
      <trkpt lat="49.79599" lon="4.848">
        <ele>285</ele>
        <time>2022-09-28T10:07:21.000Z</time>
      </trkpt>
      <trkpt lat="49.796" lon="4.848">
        <ele>285</ele>
        <time>2022-09-28T10:07:22.000Z</time>
      </trkpt>
      <trkpt lat="49.79601" lon="4.84799">
        <ele>285</ele>
        <time>2022-09-28T10:07:23.000Z</time>
      </trkpt>
      <trkpt lat="49.79601" lon="4.84799">
        <ele>285</ele>
        <time>2022-09-28T10:07:24.000Z</time>
      </trkpt>
      <trkpt lat="49.79602" lon="4.84798">
        <ele>285</ele>
        <time>2022-09-28T10:07:25.000Z</time>
      </trkpt>
      <trkpt lat="49.79602" lon="4.84797">
        <ele>285</ele>
        <time>2022-09-28T10:07:26.000Z</time>
      </trkpt>
      <trkpt lat="49.79602" lon="4.84796">
        <ele>285</ele>
        <time>2022-09-28T10:07:27.000Z</time>
      </trkpt>
      <trkpt lat="49.79602" lon="4.84796">
        <ele>285</ele>
        <time>2022-09-28T10:07:28.000Z</time>
      </trkpt>
      <trkpt lat="49.79603" lon="4.84795">
        <ele>285</ele>
        <time>2022-09-28T10:07:29.000Z</time>
      </trkpt>
      <trkpt lat="49.79603" lon="4.84795">
        <ele>285</ele>
        <time>2022-09-28T10:07:30.000Z</time>
      </trkpt>
      <trkpt lat="49.79604" lon="4.84794">
        <ele>285</ele>
        <time>2022-09-28T10:07:31.000Z</time>
      </trkpt>
      <trkpt lat="49.79604" lon="4.84794">
        <ele>285</ele>
        <time>2022-09-28T10:07:32.000Z</time>
      </trkpt>
      <trkpt lat="49.79605" lon="4.84793">
        <ele>285</ele>
        <time>2022-09-28T10:07:33.000Z</time>
      </trkpt>
      <trkpt lat="49.79606" lon="4.84792">
        <ele>285</ele>
        <time>2022-09-28T10:07:34.000Z</time>
      </trkpt>
      <trkpt lat="49.79606" lon="4.84791">
        <ele>286</ele>
        <time>2022-09-28T10:07:35.000Z</time>
      </trkpt>
      <trkpt lat="49.79607" lon="4.8479">
        <ele>286</ele>
        <time>2022-09-28T10:07:36.000Z</time>
      </trkpt>
      <trkpt lat="49.79608" lon="4.84789">
        <ele>286</ele>
        <time>2022-09-28T10:07:37.000Z</time>
      </trkpt>
      <trkpt lat="49.79608" lon="4.84788">
        <ele>286</ele>
        <time>2022-09-28T10:07:38.000Z</time>
      </trkpt>
      <trkpt lat="49.79609" lon="4.84787">
        <ele>286</ele>
        <time>2022-09-28T10:07:39.000Z</time>
      </trkpt>
      <trkpt lat="49.79609" lon="4.84787">
        <ele>286</ele>
        <time>2022-09-28T10:07:40.000Z</time>
      </trkpt>
      <trkpt lat="49.7961" lon="4.84786">
        <ele>286</ele>
        <time>2022-09-28T10:07:41.000Z</time>
      </trkpt>
      <trkpt lat="49.7961" lon="4.84786">
        <ele>286</ele>
        <time>2022-09-28T10:07:42.000Z</time>
      </trkpt>
      <trkpt lat="49.7961" lon="4.84785">
        <ele>286</ele>
        <time>2022-09-28T10:07:43.000Z</time>
      </trkpt>
      <trkpt lat="49.7961" lon="4.84785">
        <ele>286</ele>
        <time>2022-09-28T10:07:44.000Z</time>
      </trkpt>
      <trkpt lat="49.79609" lon="4.84784">
        <ele>286</ele>
        <time>2022-09-28T10:07:45.000Z</time>
      </trkpt>
      <trkpt lat="49.79609" lon="4.84784">
        <ele>287</ele>
        <time>2022-09-28T10:07:46.000Z</time>
      </trkpt>
      <trkpt lat="49.7961" lon="4.84783">
        <ele>287</ele>
        <time>2022-09-28T10:07:47.000Z</time>
      </trkpt>
      <trkpt lat="49.79609" lon="4.8478">
        <ele>287</ele>
        <time>2022-09-28T10:07:48.000Z</time>
      </trkpt>
      <trkpt lat="49.79609" lon="4.84779">
        <ele>287</ele>
        <time>2022-09-28T10:07:49.000Z</time>
      </trkpt>
      <trkpt lat="49.79608" lon="4.84776">
        <ele>287</ele>
        <time>2022-09-28T10:07:50.000Z</time>
      </trkpt>
      <trkpt lat="49.79609" lon="4.84773">
        <ele>287</ele>
        <time>2022-09-28T10:07:51.000Z</time>
      </trkpt>
      <trkpt lat="49.79609" lon="4.8477">
        <ele>287</ele>
        <time>2022-09-28T10:07:52.000Z</time>
      </trkpt>
      <trkpt lat="49.79608" lon="4.84767">
        <ele>287</ele>
        <time>2022-09-28T10:07:53.000Z</time>
      </trkpt>
      <trkpt lat="49.79609" lon="4.84762">
        <ele>288</ele>
        <time>2022-09-28T10:07:54.000Z</time>
      </trkpt>
      <trkpt lat="49.79609" lon="4.84758">
        <ele>288</ele>
        <time>2022-09-28T10:07:55.000Z</time>
      </trkpt>
      <trkpt lat="49.79608" lon="4.84752">
        <ele>288</ele>
        <time>2022-09-28T10:07:56.000Z</time>
      </trkpt>
      <trkpt lat="49.79608" lon="4.84746">
        <ele>288</ele>
        <time>2022-09-28T10:07:57.000Z</time>
      </trkpt>
      <trkpt lat="49.79608" lon="4.8474">
        <ele>288</ele>
        <time>2022-09-28T10:07:58.000Z</time>
      </trkpt>
      <trkpt lat="49.79608" lon="4.84734">
        <ele>288</ele>
        <time>2022-09-28T10:07:59.000Z</time>
      </trkpt>
      <trkpt lat="49.79608" lon="4.84728">
        <ele>288</ele>
        <time>2022-09-28T10:08:00.000Z</time>
      </trkpt>
      <trkpt lat="49.79608" lon="4.84722">
        <ele>288</ele>
        <time>2022-09-28T10:08:01.000Z</time>
      </trkpt>
      <trkpt lat="49.79607" lon="4.84715">
        <ele>288</ele>
        <time>2022-09-28T10:08:02.000Z</time>
      </trkpt>
      <trkpt lat="49.79606" lon="4.84708">
        <ele>288</ele>
        <time>2022-09-28T10:08:03.000Z</time>
      </trkpt>
      <trkpt lat="49.79606" lon="4.84701">
        <ele>288</ele>
        <time>2022-09-28T10:08:04.000Z</time>
      </trkpt>
      <trkpt lat="49.79606" lon="4.84693">
        <ele>288</ele>
        <time>2022-09-28T10:08:05.000Z</time>
      </trkpt>
      <trkpt lat="49.79605" lon="4.84685">
        <ele>288</ele>
        <time>2022-09-28T10:08:06.000Z</time>
      </trkpt>
      <trkpt lat="49.79605" lon="4.84677">
        <ele>288</ele>
        <time>2022-09-28T10:08:07.000Z</time>
      </trkpt>
      <trkpt lat="49.79604" lon="4.84669">
        <ele>288</ele>
        <time>2022-09-28T10:08:08.000Z</time>
      </trkpt>
      <trkpt lat="49.79604" lon="4.84661">
        <ele>288</ele>
        <time>2022-09-28T10:08:09.000Z</time>
      </trkpt>
      <trkpt lat="49.79603" lon="4.84652">
        <ele>287</ele>
        <time>2022-09-28T10:08:10.000Z</time>
      </trkpt>
      <trkpt lat="49.79602" lon="4.84644">
        <ele>287</ele>
        <time>2022-09-28T10:08:11.000Z</time>
      </trkpt>
      <trkpt lat="49.79601" lon="4.84636">
        <ele>287</ele>
        <time>2022-09-28T10:08:12.000Z</time>
      </trkpt>
      <trkpt lat="49.79599" lon="4.84627">
        <ele>287</ele>
        <time>2022-09-28T10:08:13.000Z</time>
      </trkpt>
      <trkpt lat="49.79597" lon="4.8462">
        <ele>287</ele>
        <time>2022-09-28T10:08:14.000Z</time>
      </trkpt>
      <trkpt lat="49.79595" lon="4.84612">
        <ele>287</ele>
        <time>2022-09-28T10:08:15.000Z</time>
      </trkpt>
      <trkpt lat="49.79593" lon="4.84604">
        <ele>287</ele>
        <time>2022-09-28T10:08:16.000Z</time>
      </trkpt>
      <trkpt lat="49.79592" lon="4.84594">
        <ele>286</ele>
        <time>2022-09-28T10:08:17.000Z</time>
      </trkpt>
      <trkpt lat="49.7959" lon="4.84585">
        <ele>286</ele>
        <time>2022-09-28T10:08:18.000Z</time>
      </trkpt>
      <trkpt lat="49.79589" lon="4.84575">
        <ele>286</ele>
        <time>2022-09-28T10:08:19.000Z</time>
      </trkpt>
      <trkpt lat="49.79587" lon="4.84567">
        <ele>285</ele>
        <time>2022-09-28T10:08:20.000Z</time>
      </trkpt>
      <trkpt lat="49.79585" lon="4.84559">
        <ele>285</ele>
        <time>2022-09-28T10:08:21.000Z</time>
      </trkpt>
      <trkpt lat="49.79582" lon="4.84551">
        <ele>285</ele>
        <time>2022-09-28T10:08:22.000Z</time>
      </trkpt>
      <trkpt lat="49.79581" lon="4.84543">
        <ele>284</ele>
        <time>2022-09-28T10:08:23.000Z</time>
      </trkpt>
      <trkpt lat="49.79579" lon="4.84536">
        <ele>284</ele>
        <time>2022-09-28T10:08:24.000Z</time>
      </trkpt>
      <trkpt lat="49.79577" lon="4.84529">
        <ele>283</ele>
        <time>2022-09-28T10:08:25.000Z</time>
      </trkpt>
      <trkpt lat="49.79576" lon="4.8452">
        <ele>283</ele>
        <time>2022-09-28T10:08:26.000Z</time>
      </trkpt>
      <trkpt lat="49.79576" lon="4.84512">
        <ele>282</ele>
        <time>2022-09-28T10:08:27.000Z</time>
      </trkpt>
      <trkpt lat="49.79575" lon="4.84504">
        <ele>282</ele>
        <time>2022-09-28T10:08:28.000Z</time>
      </trkpt>
      <trkpt lat="49.79575" lon="4.84496">
        <ele>281</ele>
        <time>2022-09-28T10:08:29.000Z</time>
      </trkpt>
      <trkpt lat="49.79575" lon="4.84489">
        <ele>281</ele>
        <time>2022-09-28T10:08:30.000Z</time>
      </trkpt>
      <trkpt lat="49.79574" lon="4.84481">
        <ele>280</ele>
        <time>2022-09-28T10:08:31.000Z</time>
      </trkpt>
      <trkpt lat="49.79573" lon="4.84474">
        <ele>280</ele>
        <time>2022-09-28T10:08:32.000Z</time>
      </trkpt>
      <trkpt lat="49.79573" lon="4.84465">
        <ele>279</ele>
        <time>2022-09-28T10:08:33.000Z</time>
      </trkpt>
      <trkpt lat="49.79572" lon="4.84457">
        <ele>279</ele>
        <time>2022-09-28T10:08:34.000Z</time>
      </trkpt>
      <trkpt lat="49.7957" lon="4.84449">
        <ele>278</ele>
        <time>2022-09-28T10:08:35.000Z</time>
      </trkpt>
      <trkpt lat="49.79568" lon="4.8444">
        <ele>278</ele>
        <time>2022-09-28T10:08:36.000Z</time>
      </trkpt>
      <trkpt lat="49.79567" lon="4.84431">
        <ele>278</ele>
        <time>2022-09-28T10:08:37.000Z</time>
      </trkpt>
      <trkpt lat="49.79566" lon="4.84422">
        <ele>277</ele>
        <time>2022-09-28T10:08:38.000Z</time>
      </trkpt>
      <trkpt lat="49.79564" lon="4.84411">
        <ele>277</ele>
        <time>2022-09-28T10:08:39.000Z</time>
      </trkpt>
      <trkpt lat="49.79562" lon="4.844">
        <ele>276</ele>
        <time>2022-09-28T10:08:40.000Z</time>
      </trkpt>
      <trkpt lat="49.7956" lon="4.8439">
        <ele>276</ele>
        <time>2022-09-28T10:08:41.000Z</time>
      </trkpt>
      <trkpt lat="49.79557" lon="4.84381">
        <ele>275</ele>
        <time>2022-09-28T10:08:42.000Z</time>
      </trkpt>
      <trkpt lat="49.79554" lon="4.84373">
        <ele>274</ele>
        <time>2022-09-28T10:08:43.000Z</time>
      </trkpt>
      <trkpt lat="49.79551" lon="4.84365">
        <ele>274</ele>
        <time>2022-09-28T10:08:44.000Z</time>
      </trkpt>
      <trkpt lat="49.79549" lon="4.84358">
        <ele>273</ele>
        <time>2022-09-28T10:08:45.000Z</time>
      </trkpt>
      <trkpt lat="49.79547" lon="4.8435">
        <ele>272</ele>
        <time>2022-09-28T10:08:46.000Z</time>
      </trkpt>
      <trkpt lat="49.79545" lon="4.84343">
        <ele>272</ele>
        <time>2022-09-28T10:08:47.000Z</time>
      </trkpt>
      <trkpt lat="49.79542" lon="4.84335">
        <ele>271</ele>
        <time>2022-09-28T10:08:48.000Z</time>
      </trkpt>
      <trkpt lat="49.7954" lon="4.84326">
        <ele>271</ele>
        <time>2022-09-28T10:08:49.000Z</time>
      </trkpt>
      <trkpt lat="49.79536" lon="4.84318">
        <ele>270</ele>
        <time>2022-09-28T10:08:50.000Z</time>
      </trkpt>
      <trkpt lat="49.79533" lon="4.8431">
        <ele>269</ele>
        <time>2022-09-28T10:08:51.000Z</time>
      </trkpt>
      <trkpt lat="49.79529" lon="4.84302">
        <ele>269</ele>
        <time>2022-09-28T10:08:52.000Z</time>
      </trkpt>
      <trkpt lat="49.79525" lon="4.84293">
        <ele>268</ele>
        <time>2022-09-28T10:08:53.000Z</time>
      </trkpt>
      <trkpt lat="49.79522" lon="4.84285">
        <ele>267</ele>
        <time>2022-09-28T10:08:54.000Z</time>
      </trkpt>
      <trkpt lat="49.79519" lon="4.84276">
        <ele>267</ele>
        <time>2022-09-28T10:08:55.000Z</time>
      </trkpt>
      <trkpt lat="49.79516" lon="4.84267">
        <ele>266</ele>
        <time>2022-09-28T10:08:56.000Z</time>
      </trkpt>
      <trkpt lat="49.79514" lon="4.84256">
        <ele>266</ele>
        <time>2022-09-28T10:08:57.000Z</time>
      </trkpt>
      <trkpt lat="49.79511" lon="4.84245">
        <ele>265</ele>
        <time>2022-09-28T10:08:58.000Z</time>
      </trkpt>
      <trkpt lat="49.79508" lon="4.84233">
        <ele>264</ele>
        <time>2022-09-28T10:08:59.000Z</time>
      </trkpt>
      <trkpt lat="49.79506" lon="4.84221">
        <ele>264</ele>
        <time>2022-09-28T10:09:00.000Z</time>
      </trkpt>
      <trkpt lat="49.79504" lon="4.8421">
        <ele>263</ele>
        <time>2022-09-28T10:09:01.000Z</time>
      </trkpt>
      <trkpt lat="49.79503" lon="4.842">
        <ele>263</ele>
        <time>2022-09-28T10:09:02.000Z</time>
      </trkpt>
      <trkpt lat="49.79502" lon="4.84194">
        <ele>262</ele>
        <time>2022-09-28T10:09:03.000Z</time>
      </trkpt>
      <trkpt lat="49.79502" lon="4.84193">
        <ele>262</ele>
        <time>2022-09-28T10:09:04.000Z</time>
      </trkpt>
      <trkpt lat="49.79502" lon="4.84193">
        <ele>262</ele>
        <time>2022-09-28T10:09:05.000Z</time>
      </trkpt>
      <trkpt lat="49.79502" lon="4.84193">
        <ele>261</ele>
        <time>2022-09-28T10:09:06.000Z</time>
      </trkpt>
      <trkpt lat="49.79502" lon="4.84193">
        <ele>261</ele>
        <time>2022-09-28T10:09:07.000Z</time>
      </trkpt>
      <trkpt lat="49.79502" lon="4.84194">
        <ele>260</ele>
        <time>2022-09-28T10:09:08.000Z</time>
      </trkpt>
      <trkpt lat="49.79502" lon="4.84196">
        <ele>260</ele>
        <time>2022-09-28T10:09:09.000Z</time>
      </trkpt>
      <trkpt lat="49.79503" lon="4.84198">
        <ele>260</ele>
        <time>2022-09-28T10:09:10.000Z</time>
      </trkpt>
      <trkpt lat="49.79503" lon="4.84201">
        <ele>260</ele>
        <time>2022-09-28T10:09:11.000Z</time>
      </trkpt>
      <trkpt lat="49.79503" lon="4.84204">
        <ele>259</ele>
        <time>2022-09-28T10:09:12.000Z</time>
      </trkpt>
      <trkpt lat="49.79502" lon="4.84206">
        <ele>259</ele>
        <time>2022-09-28T10:09:13.000Z</time>
      </trkpt>
      <trkpt lat="49.795" lon="4.84207">
        <ele>259</ele>
        <time>2022-09-28T10:09:14.000Z</time>
      </trkpt>
      <trkpt lat="49.79499" lon="4.84208">
        <ele>259</ele>
        <time>2022-09-28T10:09:15.000Z</time>
      </trkpt>
      <trkpt lat="49.79497" lon="4.84208">
        <ele>259</ele>
        <time>2022-09-28T10:09:16.000Z</time>
      </trkpt>
      <trkpt lat="49.79495" lon="4.84207">
        <ele>259</ele>
        <time>2022-09-28T10:09:17.000Z</time>
      </trkpt>
      <trkpt lat="49.79493" lon="4.84208">
        <ele>258</ele>
        <time>2022-09-28T10:09:18.000Z</time>
      </trkpt>
      <trkpt lat="49.79492" lon="4.84209">
        <ele>258</ele>
        <time>2022-09-28T10:09:19.000Z</time>
      </trkpt>
      <trkpt lat="49.7949" lon="4.8421">
        <ele>258</ele>
        <time>2022-09-28T10:09:20.000Z</time>
      </trkpt>
      <trkpt lat="49.79488" lon="4.8421">
        <ele>258</ele>
        <time>2022-09-28T10:09:21.000Z</time>
      </trkpt>
      <trkpt lat="49.79487" lon="4.84211">
        <ele>257</ele>
        <time>2022-09-28T10:09:22.000Z</time>
      </trkpt>
      <trkpt lat="49.79484" lon="4.84212">
        <ele>257</ele>
        <time>2022-09-28T10:09:23.000Z</time>
      </trkpt>
      <trkpt lat="49.79483" lon="4.84213">
        <ele>257</ele>
        <time>2022-09-28T10:09:24.000Z</time>
      </trkpt>
      <trkpt lat="49.79481" lon="4.84214">
        <ele>257</ele>
        <time>2022-09-28T10:09:25.000Z</time>
      </trkpt>
      <trkpt lat="49.7948" lon="4.84214">
        <ele>257</ele>
        <time>2022-09-28T10:09:26.000Z</time>
      </trkpt>
      <trkpt lat="49.79478" lon="4.84215">
        <ele>257</ele>
        <time>2022-09-28T10:09:27.000Z</time>
      </trkpt>
      <trkpt lat="49.79477" lon="4.84216">
        <ele>257</ele>
        <time>2022-09-28T10:09:28.000Z</time>
      </trkpt>
      <trkpt lat="49.79475" lon="4.84217">
        <ele>257</ele>
        <time>2022-09-28T10:09:29.000Z</time>
      </trkpt>
      <trkpt lat="49.79474" lon="4.84218">
        <ele>256</ele>
        <time>2022-09-28T10:09:30.000Z</time>
      </trkpt>
      <trkpt lat="49.79472" lon="4.84219">
        <ele>256</ele>
        <time>2022-09-28T10:09:31.000Z</time>
      </trkpt>
      <trkpt lat="49.7947" lon="4.8422">
        <ele>256</ele>
        <time>2022-09-28T10:09:32.000Z</time>
      </trkpt>
      <trkpt lat="49.79468" lon="4.84221">
        <ele>256</ele>
        <time>2022-09-28T10:09:33.000Z</time>
      </trkpt>
      <trkpt lat="49.79466" lon="4.84221">
        <ele>256</ele>
        <time>2022-09-28T10:09:34.000Z</time>
      </trkpt>
      <trkpt lat="49.79465" lon="4.84222">
        <ele>256</ele>
        <time>2022-09-28T10:09:35.000Z</time>
      </trkpt>
      <trkpt lat="49.79464" lon="4.84224">
        <ele>256</ele>
        <time>2022-09-28T10:09:36.000Z</time>
      </trkpt>
      <trkpt lat="49.79463" lon="4.84225">
        <ele>256</ele>
        <time>2022-09-28T10:09:37.000Z</time>
      </trkpt>
      <trkpt lat="49.79462" lon="4.84225">
        <ele>256</ele>
        <time>2022-09-28T10:09:38.000Z</time>
      </trkpt>
      <trkpt lat="49.79461" lon="4.84226">
        <ele>256</ele>
        <time>2022-09-28T10:09:39.000Z</time>
      </trkpt>
      <trkpt lat="49.79459" lon="4.84226">
        <ele>256</ele>
        <time>2022-09-28T10:09:40.000Z</time>
      </trkpt>
      <trkpt lat="49.79457" lon="4.84227">
        <ele>256</ele>
        <time>2022-09-28T10:09:41.000Z</time>
      </trkpt>
      <trkpt lat="49.79456" lon="4.84227">
        <ele>256</ele>
        <time>2022-09-28T10:09:42.000Z</time>
      </trkpt>
      <trkpt lat="49.79454" lon="4.84228">
        <ele>256</ele>
        <time>2022-09-28T10:09:43.000Z</time>
      </trkpt>
      <trkpt lat="49.79453" lon="4.84229">
        <ele>256</ele>
        <time>2022-09-28T10:09:44.000Z</time>
      </trkpt>
      <trkpt lat="49.79451" lon="4.8423">
        <ele>256</ele>
        <time>2022-09-28T10:09:45.000Z</time>
      </trkpt>
      <trkpt lat="49.7945" lon="4.84231">
        <ele>256</ele>
        <time>2022-09-28T10:09:46.000Z</time>
      </trkpt>
      <trkpt lat="49.79448" lon="4.84232">
        <ele>256</ele>
        <time>2022-09-28T10:09:47.000Z</time>
      </trkpt>
      <trkpt lat="49.79447" lon="4.84233">
        <ele>256</ele>
        <time>2022-09-28T10:09:48.000Z</time>
      </trkpt>
      <trkpt lat="49.79446" lon="4.84234">
        <ele>256</ele>
        <time>2022-09-28T10:09:49.000Z</time>
      </trkpt>
      <trkpt lat="49.79445" lon="4.84236">
        <ele>256</ele>
        <time>2022-09-28T10:09:50.000Z</time>
      </trkpt>
      <trkpt lat="49.79444" lon="4.84237">
        <ele>256</ele>
        <time>2022-09-28T10:09:51.000Z</time>
      </trkpt>
      <trkpt lat="49.79443" lon="4.84238">
        <ele>256</ele>
        <time>2022-09-28T10:09:52.000Z</time>
      </trkpt>
      <trkpt lat="49.79441" lon="4.8424">
        <ele>256</ele>
        <time>2022-09-28T10:09:53.000Z</time>
      </trkpt>
      <trkpt lat="49.7944" lon="4.84241">
        <ele>256</ele>
        <time>2022-09-28T10:09:54.000Z</time>
      </trkpt>
      <trkpt lat="49.79439" lon="4.84242">
        <ele>257</ele>
        <time>2022-09-28T10:09:55.000Z</time>
      </trkpt>
      <trkpt lat="49.79438" lon="4.84243">
        <ele>257</ele>
        <time>2022-09-28T10:09:56.000Z</time>
      </trkpt>
      <trkpt lat="49.79437" lon="4.84245">
        <ele>257</ele>
        <time>2022-09-28T10:09:57.000Z</time>
      </trkpt>
      <trkpt lat="49.79435" lon="4.84246">
        <ele>257</ele>
        <time>2022-09-28T10:09:58.000Z</time>
      </trkpt>
      <trkpt lat="49.79433" lon="4.84248">
        <ele>257</ele>
        <time>2022-09-28T10:09:59.000Z</time>
      </trkpt>
      <trkpt lat="49.79431" lon="4.8425">
        <ele>257</ele>
        <time>2022-09-28T10:10:00.000Z</time>
      </trkpt>
      <trkpt lat="49.7943" lon="4.84251">
        <ele>257</ele>
        <time>2022-09-28T10:10:01.000Z</time>
      </trkpt>
      <trkpt lat="49.79428" lon="4.84252">
        <ele>257</ele>
        <time>2022-09-28T10:10:02.000Z</time>
      </trkpt>
      <trkpt lat="49.79426" lon="4.84254">
        <ele>257</ele>
        <time>2022-09-28T10:10:03.000Z</time>
      </trkpt>
      <trkpt lat="49.79423" lon="4.84256">
        <ele>257</ele>
        <time>2022-09-28T10:10:04.000Z</time>
      </trkpt>
      <trkpt lat="49.79422" lon="4.84258">
        <ele>257</ele>
        <time>2022-09-28T10:10:05.000Z</time>
      </trkpt>
      <trkpt lat="49.79419" lon="4.8426">
        <ele>257</ele>
        <time>2022-09-28T10:10:06.000Z</time>
      </trkpt>
      <trkpt lat="49.79418" lon="4.84262">
        <ele>258</ele>
        <time>2022-09-28T10:10:07.000Z</time>
      </trkpt>
      <trkpt lat="49.79416" lon="4.84264">
        <ele>258</ele>
        <time>2022-09-28T10:10:08.000Z</time>
      </trkpt>
      <trkpt lat="49.79415" lon="4.84266">
        <ele>258</ele>
        <time>2022-09-28T10:10:09.000Z</time>
      </trkpt>
      <trkpt lat="49.79414" lon="4.84268">
        <ele>258</ele>
        <time>2022-09-28T10:10:10.000Z</time>
      </trkpt>
      <trkpt lat="49.79413" lon="4.84269">
        <ele>258</ele>
        <time>2022-09-28T10:10:11.000Z</time>
      </trkpt>
      <trkpt lat="49.79411" lon="4.8427">
        <ele>258</ele>
        <time>2022-09-28T10:10:12.000Z</time>
      </trkpt>
      <trkpt lat="49.79408" lon="4.84271">
        <ele>258</ele>
        <time>2022-09-28T10:10:13.000Z</time>
      </trkpt>
      <trkpt lat="49.79406" lon="4.84273">
        <ele>258</ele>
        <time>2022-09-28T10:10:14.000Z</time>
      </trkpt>
      <trkpt lat="49.79404" lon="4.84276">
        <ele>259</ele>
        <time>2022-09-28T10:10:15.000Z</time>
      </trkpt>
      <trkpt lat="49.79402" lon="4.84278">
        <ele>259</ele>
        <time>2022-09-28T10:10:16.000Z</time>
      </trkpt>
      <trkpt lat="49.794" lon="4.8428">
        <ele>259</ele>
        <time>2022-09-28T10:10:17.000Z</time>
      </trkpt>
      <trkpt lat="49.79398" lon="4.84282">
        <ele>259</ele>
        <time>2022-09-28T10:10:18.000Z</time>
      </trkpt>
      <trkpt lat="49.79396" lon="4.84283">
        <ele>259</ele>
        <time>2022-09-28T10:10:19.000Z</time>
      </trkpt>
      <trkpt lat="49.79394" lon="4.84284">
        <ele>259</ele>
        <time>2022-09-28T10:10:20.000Z</time>
      </trkpt>
      <trkpt lat="49.79392" lon="4.84283">
        <ele>259</ele>
        <time>2022-09-28T10:10:21.000Z</time>
      </trkpt>
      <trkpt lat="49.7939" lon="4.84283">
        <ele>260</ele>
        <time>2022-09-28T10:10:22.000Z</time>
      </trkpt>
      <trkpt lat="49.79388" lon="4.84282">
        <ele>260</ele>
        <time>2022-09-28T10:10:23.000Z</time>
      </trkpt>
      <trkpt lat="49.79386" lon="4.84281">
        <ele>260</ele>
        <time>2022-09-28T10:10:24.000Z</time>
      </trkpt>
      <trkpt lat="49.79384" lon="4.84279">
        <ele>260</ele>
        <time>2022-09-28T10:10:25.000Z</time>
      </trkpt>
      <trkpt lat="49.79383" lon="4.84276">
        <ele>260</ele>
        <time>2022-09-28T10:10:26.000Z</time>
      </trkpt>
      <trkpt lat="49.79381" lon="4.84273">
        <ele>260</ele>
        <time>2022-09-28T10:10:27.000Z</time>
      </trkpt>
      <trkpt lat="49.7938" lon="4.84269">
        <ele>260</ele>
        <time>2022-09-28T10:10:28.000Z</time>
      </trkpt>
      <trkpt lat="49.79378" lon="4.84263">
        <ele>261</ele>
        <time>2022-09-28T10:10:29.000Z</time>
      </trkpt>
      <trkpt lat="49.79376" lon="4.84257">
        <ele>261</ele>
        <time>2022-09-28T10:10:30.000Z</time>
      </trkpt>
      <trkpt lat="49.79374" lon="4.8425">
        <ele>261</ele>
        <time>2022-09-28T10:10:31.000Z</time>
      </trkpt>
      <trkpt lat="49.79373" lon="4.84242">
        <ele>261</ele>
        <time>2022-09-28T10:10:32.000Z</time>
      </trkpt>
      <trkpt lat="49.79372" lon="4.84235">
        <ele>261</ele>
        <time>2022-09-28T10:10:33.000Z</time>
      </trkpt>
      <trkpt lat="49.79371" lon="4.8423">
        <ele>261</ele>
        <time>2022-09-28T10:10:34.000Z</time>
      </trkpt>
      <trkpt lat="49.7937" lon="4.84225">
        <ele>261</ele>
        <time>2022-09-28T10:10:35.000Z</time>
      </trkpt>
      <trkpt lat="49.79369" lon="4.84219">
        <ele>261</ele>
        <time>2022-09-28T10:10:36.000Z</time>
      </trkpt>
      <trkpt lat="49.79368" lon="4.84212">
        <ele>261</ele>
        <time>2022-09-28T10:10:37.000Z</time>
      </trkpt>
      <trkpt lat="49.79368" lon="4.84205">
        <ele>262</ele>
        <time>2022-09-28T10:10:38.000Z</time>
      </trkpt>
      <trkpt lat="49.79367" lon="4.84196">
        <ele>262</ele>
        <time>2022-09-28T10:10:39.000Z</time>
      </trkpt>
      <trkpt lat="49.79366" lon="4.84187">
        <ele>262</ele>
        <time>2022-09-28T10:10:40.000Z</time>
      </trkpt>
      <trkpt lat="49.79366" lon="4.84179">
        <ele>262</ele>
        <time>2022-09-28T10:10:41.000Z</time>
      </trkpt>
      <trkpt lat="49.79366" lon="4.8417">
        <ele>262</ele>
        <time>2022-09-28T10:10:42.000Z</time>
      </trkpt>
      <trkpt lat="49.79366" lon="4.8416">
        <ele>262</ele>
        <time>2022-09-28T10:10:43.000Z</time>
      </trkpt>
      <trkpt lat="49.79366" lon="4.84152">
        <ele>262</ele>
        <time>2022-09-28T10:10:44.000Z</time>
      </trkpt>
      <trkpt lat="49.79366" lon="4.84145">
        <ele>262</ele>
        <time>2022-09-28T10:10:45.000Z</time>
      </trkpt>
      <trkpt lat="49.79367" lon="4.84137">
        <ele>261</ele>
        <time>2022-09-28T10:10:46.000Z</time>
      </trkpt>
      <trkpt lat="49.79367" lon="4.84129">
        <ele>261</ele>
        <time>2022-09-28T10:10:47.000Z</time>
      </trkpt>
      <trkpt lat="49.79366" lon="4.84121">
        <ele>261</ele>
        <time>2022-09-28T10:10:48.000Z</time>
      </trkpt>
      <trkpt lat="49.79366" lon="4.84112">
        <ele>261</ele>
        <time>2022-09-28T10:10:49.000Z</time>
      </trkpt>
      <trkpt lat="49.79365" lon="4.84105">
        <ele>261</ele>
        <time>2022-09-28T10:10:50.000Z</time>
      </trkpt>
      <trkpt lat="49.79364" lon="4.84098">
        <ele>260</ele>
        <time>2022-09-28T10:10:51.000Z</time>
      </trkpt>
      <trkpt lat="49.79363" lon="4.84093">
        <ele>260</ele>
        <time>2022-09-28T10:10:52.000Z</time>
      </trkpt>
      <trkpt lat="49.79363" lon="4.84088">
        <ele>260</ele>
        <time>2022-09-28T10:10:53.000Z</time>
      </trkpt>
      <trkpt lat="49.79363" lon="4.84085">
        <ele>260</ele>
        <time>2022-09-28T10:10:54.000Z</time>
      </trkpt>
      <trkpt lat="49.79363" lon="4.84081">
        <ele>260</ele>
        <time>2022-09-28T10:10:55.000Z</time>
      </trkpt>
      <trkpt lat="49.79363" lon="4.84078">
        <ele>259</ele>
        <time>2022-09-28T10:10:56.000Z</time>
      </trkpt>
      <trkpt lat="49.79364" lon="4.84074">
        <ele>259</ele>
        <time>2022-09-28T10:10:57.000Z</time>
      </trkpt>
      <trkpt lat="49.79365" lon="4.84071">
        <ele>259</ele>
        <time>2022-09-28T10:10:58.000Z</time>
      </trkpt>
      <trkpt lat="49.79366" lon="4.84066">
        <ele>259</ele>
        <time>2022-09-28T10:10:59.000Z</time>
      </trkpt>
      <trkpt lat="49.79366" lon="4.8406">
        <ele>259</ele>
        <time>2022-09-28T10:11:00.000Z</time>
      </trkpt>
      <trkpt lat="49.79366" lon="4.84055">
        <ele>259</ele>
        <time>2022-09-28T10:11:01.000Z</time>
      </trkpt>
      <trkpt lat="49.79365" lon="4.84049">
        <ele>258</ele>
        <time>2022-09-28T10:11:02.000Z</time>
      </trkpt>
      <trkpt lat="49.79364" lon="4.84043">
        <ele>258</ele>
        <time>2022-09-28T10:11:03.000Z</time>
      </trkpt>
      <trkpt lat="49.79364" lon="4.84037">
        <ele>258</ele>
        <time>2022-09-28T10:11:04.000Z</time>
      </trkpt>
      <trkpt lat="49.79363" lon="4.8403">
        <ele>258</ele>
        <time>2022-09-28T10:11:05.000Z</time>
      </trkpt>
      <trkpt lat="49.79363" lon="4.84024">
        <ele>258</ele>
        <time>2022-09-28T10:11:06.000Z</time>
      </trkpt>
      <trkpt lat="49.79363" lon="4.84016">
        <ele>258</ele>
        <time>2022-09-28T10:11:07.000Z</time>
      </trkpt>
      <trkpt lat="49.79364" lon="4.84009">
        <ele>257</ele>
        <time>2022-09-28T10:11:08.000Z</time>
      </trkpt>
      <trkpt lat="49.79365" lon="4.84001">
        <ele>257</ele>
        <time>2022-09-28T10:11:09.000Z</time>
      </trkpt>
      <trkpt lat="49.79366" lon="4.83994">
        <ele>257</ele>
        <time>2022-09-28T10:11:10.000Z</time>
      </trkpt>
      <trkpt lat="49.79366" lon="4.83986">
        <ele>257</ele>
        <time>2022-09-28T10:11:11.000Z</time>
      </trkpt>
      <trkpt lat="49.79366" lon="4.83979">
        <ele>256</ele>
        <time>2022-09-28T10:11:12.000Z</time>
      </trkpt>
      <trkpt lat="49.79366" lon="4.83972">
        <ele>256</ele>
        <time>2022-09-28T10:11:13.000Z</time>
      </trkpt>
      <trkpt lat="49.79366" lon="4.83965">
        <ele>256</ele>
        <time>2022-09-28T10:11:14.000Z</time>
      </trkpt>
      <trkpt lat="49.79366" lon="4.83958">
        <ele>255</ele>
        <time>2022-09-28T10:11:15.000Z</time>
      </trkpt>
      <trkpt lat="49.79365" lon="4.8395">
        <ele>255</ele>
        <time>2022-09-28T10:11:16.000Z</time>
      </trkpt>
      <trkpt lat="49.79365" lon="4.83944">
        <ele>255</ele>
        <time>2022-09-28T10:11:17.000Z</time>
      </trkpt>
      <trkpt lat="49.79363" lon="4.83938">
        <ele>254</ele>
        <time>2022-09-28T10:11:18.000Z</time>
      </trkpt>
      <trkpt lat="49.79362" lon="4.83933">
        <ele>254</ele>
        <time>2022-09-28T10:11:19.000Z</time>
      </trkpt>
      <trkpt lat="49.7936" lon="4.83931">
        <ele>254</ele>
        <time>2022-09-28T10:11:20.000Z</time>
      </trkpt>
      <trkpt lat="49.7936" lon="4.8393">
        <ele>254</ele>
        <time>2022-09-28T10:11:21.000Z</time>
      </trkpt>
      <trkpt lat="49.7936" lon="4.83929">
        <ele>253</ele>
        <time>2022-09-28T10:11:22.000Z</time>
      </trkpt>
      <trkpt lat="49.7936" lon="4.83929">
        <ele>253</ele>
        <time>2022-09-28T10:11:23.000Z</time>
      </trkpt>
      <trkpt lat="49.79359" lon="4.83928">
        <ele>253</ele>
        <time>2022-09-28T10:11:24.000Z</time>
      </trkpt>
      <trkpt lat="49.79359" lon="4.83928">
        <ele>253</ele>
        <time>2022-09-28T10:11:25.000Z</time>
      </trkpt>
      <trkpt lat="49.79358" lon="4.83928">
        <ele>252</ele>
        <time>2022-09-28T10:11:26.000Z</time>
      </trkpt>
      <trkpt lat="49.79357" lon="4.83928">
        <ele>252</ele>
        <time>2022-09-28T10:11:27.000Z</time>
      </trkpt>
      <trkpt lat="49.79355" lon="4.83928">
        <ele>252</ele>
        <time>2022-09-28T10:11:28.000Z</time>
      </trkpt>
      <trkpt lat="49.79353" lon="4.83929">
        <ele>252</ele>
        <time>2022-09-28T10:11:29.000Z</time>
      </trkpt>
      <trkpt lat="49.79351" lon="4.83928">
        <ele>252</ele>
        <time>2022-09-28T10:11:30.000Z</time>
      </trkpt>
      <trkpt lat="49.79349" lon="4.83929">
        <ele>251</ele>
        <time>2022-09-28T10:11:31.000Z</time>
      </trkpt>
      <trkpt lat="49.79347" lon="4.83929">
        <ele>251</ele>
        <time>2022-09-28T10:11:32.000Z</time>
      </trkpt>
      <trkpt lat="49.79345" lon="4.83929">
        <ele>251</ele>
        <time>2022-09-28T10:11:33.000Z</time>
      </trkpt>
      <trkpt lat="49.79342" lon="4.83929">
        <ele>251</ele>
        <time>2022-09-28T10:11:34.000Z</time>
      </trkpt>
      <trkpt lat="49.79339" lon="4.83929">
        <ele>251</ele>
        <time>2022-09-28T10:11:35.000Z</time>
      </trkpt>
      <trkpt lat="49.79335" lon="4.83929">
        <ele>251</ele>
        <time>2022-09-28T10:11:36.000Z</time>
      </trkpt>
      <trkpt lat="49.7933" lon="4.83928">
        <ele>250</ele>
        <time>2022-09-28T10:11:37.000Z</time>
      </trkpt>
      <trkpt lat="49.79324" lon="4.83927">
        <ele>250</ele>
        <time>2022-09-28T10:11:38.000Z</time>
      </trkpt>
      <trkpt lat="49.79318" lon="4.83926">
        <ele>250</ele>
        <time>2022-09-28T10:11:39.000Z</time>
      </trkpt>
      <trkpt lat="49.79312" lon="4.83926">
        <ele>250</ele>
        <time>2022-09-28T10:11:40.000Z</time>
      </trkpt>
      <trkpt lat="49.79306" lon="4.83924">
        <ele>250</ele>
        <time>2022-09-28T10:11:41.000Z</time>
      </trkpt>
      <trkpt lat="49.79299" lon="4.83923">
        <ele>249</ele>
        <time>2022-09-28T10:11:42.000Z</time>
      </trkpt>
      <trkpt lat="49.79293" lon="4.83922">
        <ele>249</ele>
        <time>2022-09-28T10:11:43.000Z</time>
      </trkpt>
      <trkpt lat="49.79287" lon="4.83921">
        <ele>249</ele>
        <time>2022-09-28T10:11:44.000Z</time>
      </trkpt>
      <trkpt lat="49.79281" lon="4.8392">
        <ele>249</ele>
        <time>2022-09-28T10:11:45.000Z</time>
      </trkpt>
      <trkpt lat="49.79275" lon="4.8392">
        <ele>248</ele>
        <time>2022-09-28T10:11:46.000Z</time>
      </trkpt>
      <trkpt lat="49.79269" lon="4.83919">
        <ele>248</ele>
        <time>2022-09-28T10:11:47.000Z</time>
      </trkpt>
      <trkpt lat="49.79263" lon="4.83918">
        <ele>248</ele>
        <time>2022-09-28T10:11:48.000Z</time>
      </trkpt>
      <trkpt lat="49.79258" lon="4.83917">
        <ele>247</ele>
        <time>2022-09-28T10:11:49.000Z</time>
      </trkpt>
      <trkpt lat="49.79252" lon="4.83916">
        <ele>247</ele>
        <time>2022-09-28T10:11:50.000Z</time>
      </trkpt>
      <trkpt lat="49.79248" lon="4.83915">
        <ele>247</ele>
        <time>2022-09-28T10:11:51.000Z</time>
      </trkpt>
      <trkpt lat="49.79245" lon="4.83915">
        <ele>246</ele>
        <time>2022-09-28T10:11:52.000Z</time>
      </trkpt>
      <trkpt lat="49.79242" lon="4.83918">
        <ele>246</ele>
        <time>2022-09-28T10:11:53.000Z</time>
      </trkpt>
      <trkpt lat="49.7924" lon="4.83921">
        <ele>245</ele>
        <time>2022-09-28T10:11:54.000Z</time>
      </trkpt>
      <trkpt lat="49.79238" lon="4.83924">
        <ele>245</ele>
        <time>2022-09-28T10:11:55.000Z</time>
      </trkpt>
      <trkpt lat="49.79236" lon="4.83927">
        <ele>244</ele>
        <time>2022-09-28T10:11:56.000Z</time>
      </trkpt>
      <trkpt lat="49.79233" lon="4.8393">
        <ele>244</ele>
        <time>2022-09-28T10:11:57.000Z</time>
      </trkpt>
      <trkpt lat="49.79232" lon="4.83934">
        <ele>243</ele>
        <time>2022-09-28T10:11:58.000Z</time>
      </trkpt>
      <trkpt lat="49.7923" lon="4.83937">
        <ele>243</ele>
        <time>2022-09-28T10:11:59.000Z</time>
      </trkpt>
      <trkpt lat="49.79228" lon="4.8394">
        <ele>242</ele>
        <time>2022-09-28T10:12:00.000Z</time>
      </trkpt>
      <trkpt lat="49.79225" lon="4.83944">
        <ele>242</ele>
        <time>2022-09-28T10:12:01.000Z</time>
      </trkpt>
      <trkpt lat="49.79223" lon="4.83949">
        <ele>241</ele>
        <time>2022-09-28T10:12:02.000Z</time>
      </trkpt>
      <trkpt lat="49.7922" lon="4.83954">
        <ele>240</ele>
        <time>2022-09-28T10:12:03.000Z</time>
      </trkpt>
      <trkpt lat="49.79217" lon="4.83959">
        <ele>240</ele>
        <time>2022-09-28T10:12:04.000Z</time>
      </trkpt>
      <trkpt lat="49.79215" lon="4.83965">
        <ele>239</ele>
        <time>2022-09-28T10:12:05.000Z</time>
      </trkpt>
      <trkpt lat="49.79212" lon="4.8397">
        <ele>238</ele>
        <time>2022-09-28T10:12:06.000Z</time>
      </trkpt>
      <trkpt lat="49.79209" lon="4.83977">
        <ele>238</ele>
        <time>2022-09-28T10:12:07.000Z</time>
      </trkpt>
      <trkpt lat="49.79205" lon="4.83984">
        <ele>237</ele>
        <time>2022-09-28T10:12:08.000Z</time>
      </trkpt>
      <trkpt lat="49.79202" lon="4.83991">
        <ele>237</ele>
        <time>2022-09-28T10:12:09.000Z</time>
      </trkpt>
      <trkpt lat="49.79198" lon="4.83997">
        <ele>236</ele>
        <time>2022-09-28T10:12:10.000Z</time>
      </trkpt>
      <trkpt lat="49.79195" lon="4.84002">
        <ele>235</ele>
        <time>2022-09-28T10:12:11.000Z</time>
      </trkpt>
      <trkpt lat="49.79192" lon="4.84008">
        <ele>235</ele>
        <time>2022-09-28T10:12:12.000Z</time>
      </trkpt>
      <trkpt lat="49.79189" lon="4.84015">
        <ele>235</ele>
        <time>2022-09-28T10:12:13.000Z</time>
      </trkpt>
      <trkpt lat="49.79185" lon="4.84022">
        <ele>234</ele>
        <time>2022-09-28T10:12:14.000Z</time>
      </trkpt>
      <trkpt lat="49.79181" lon="4.84027">
        <ele>234</ele>
        <time>2022-09-28T10:12:15.000Z</time>
      </trkpt>
      <trkpt lat="49.79178" lon="4.84032">
        <ele>233</ele>
        <time>2022-09-28T10:12:16.000Z</time>
      </trkpt>
      <trkpt lat="49.79175" lon="4.84037">
        <ele>233</ele>
        <time>2022-09-28T10:12:17.000Z</time>
      </trkpt>
      <trkpt lat="49.79173" lon="4.84043">
        <ele>233</ele>
        <time>2022-09-28T10:12:18.000Z</time>
      </trkpt>
      <trkpt lat="49.79169" lon="4.84049">
        <ele>233</ele>
        <time>2022-09-28T10:12:19.000Z</time>
      </trkpt>
      <trkpt lat="49.79167" lon="4.84054">
        <ele>232</ele>
        <time>2022-09-28T10:12:20.000Z</time>
      </trkpt>
      <trkpt lat="49.79163" lon="4.8406">
        <ele>232</ele>
        <time>2022-09-28T10:12:21.000Z</time>
      </trkpt>
      <trkpt lat="49.7916" lon="4.84066">
        <ele>232</ele>
        <time>2022-09-28T10:12:22.000Z</time>
      </trkpt>
      <trkpt lat="49.79156" lon="4.84072">
        <ele>231</ele>
        <time>2022-09-28T10:12:23.000Z</time>
      </trkpt>
      <trkpt lat="49.79153" lon="4.84078">
        <ele>231</ele>
        <time>2022-09-28T10:12:24.000Z</time>
      </trkpt>
      <trkpt lat="49.7915" lon="4.84083">
        <ele>231</ele>
        <time>2022-09-28T10:12:25.000Z</time>
      </trkpt>
      <trkpt lat="49.79147" lon="4.84088">
        <ele>230</ele>
        <time>2022-09-28T10:12:26.000Z</time>
      </trkpt>
      <trkpt lat="49.79144" lon="4.84093">
        <ele>230</ele>
        <time>2022-09-28T10:12:27.000Z</time>
      </trkpt>
      <trkpt lat="49.7914" lon="4.84098">
        <ele>229</ele>
        <time>2022-09-28T10:12:28.000Z</time>
      </trkpt>
      <trkpt lat="49.79137" lon="4.84103">
        <ele>229</ele>
        <time>2022-09-28T10:12:29.000Z</time>
      </trkpt>
      <trkpt lat="49.79133" lon="4.84108">
        <ele>229</ele>
        <time>2022-09-28T10:12:30.000Z</time>
      </trkpt>
      <trkpt lat="49.79128" lon="4.84114">
        <ele>228</ele>
        <time>2022-09-28T10:12:31.000Z</time>
      </trkpt>
      <trkpt lat="49.79123" lon="4.8412">
        <ele>228</ele>
        <time>2022-09-28T10:12:32.000Z</time>
      </trkpt>
      <trkpt lat="49.79118" lon="4.84126">
        <ele>227</ele>
        <time>2022-09-28T10:12:33.000Z</time>
      </trkpt>
      <trkpt lat="49.79114" lon="4.84133">
        <ele>227</ele>
        <time>2022-09-28T10:12:34.000Z</time>
      </trkpt>
      <trkpt lat="49.79109" lon="4.84139">
        <ele>226</ele>
        <time>2022-09-28T10:12:35.000Z</time>
      </trkpt>
      <trkpt lat="49.79105" lon="4.84145">
        <ele>226</ele>
        <time>2022-09-28T10:12:36.000Z</time>
      </trkpt>
      <trkpt lat="49.79101" lon="4.84151">
        <ele>226</ele>
        <time>2022-09-28T10:12:37.000Z</time>
      </trkpt>
      <trkpt lat="49.79096" lon="4.84157">
        <ele>225</ele>
        <time>2022-09-28T10:12:38.000Z</time>
      </trkpt>
      <trkpt lat="49.79092" lon="4.84163">
        <ele>225</ele>
        <time>2022-09-28T10:12:39.000Z</time>
      </trkpt>
      <trkpt lat="49.79088" lon="4.84169">
        <ele>225</ele>
        <time>2022-09-28T10:12:40.000Z</time>
      </trkpt>
      <trkpt lat="49.79084" lon="4.84174">
        <ele>224</ele>
        <time>2022-09-28T10:12:41.000Z</time>
      </trkpt>
      <trkpt lat="49.7908" lon="4.8418">
        <ele>224</ele>
        <time>2022-09-28T10:12:42.000Z</time>
      </trkpt>
      <trkpt lat="49.79076" lon="4.84186">
        <ele>224</ele>
        <time>2022-09-28T10:12:43.000Z</time>
      </trkpt>
      <trkpt lat="49.79071" lon="4.84192">
        <ele>223</ele>
        <time>2022-09-28T10:12:44.000Z</time>
      </trkpt>
      <trkpt lat="49.79067" lon="4.84198">
        <ele>223</ele>
        <time>2022-09-28T10:12:45.000Z</time>
      </trkpt>
      <trkpt lat="49.79062" lon="4.84204">
        <ele>223</ele>
        <time>2022-09-28T10:12:46.000Z</time>
      </trkpt>
      <trkpt lat="49.79058" lon="4.8421">
        <ele>222</ele>
        <time>2022-09-28T10:12:47.000Z</time>
      </trkpt>
      <trkpt lat="49.79053" lon="4.84216">
        <ele>222</ele>
        <time>2022-09-28T10:12:48.000Z</time>
      </trkpt>
      <trkpt lat="49.79049" lon="4.84221">
        <ele>222</ele>
        <time>2022-09-28T10:12:49.000Z</time>
      </trkpt>
      <trkpt lat="49.79045" lon="4.84226">
        <ele>221</ele>
        <time>2022-09-28T10:12:50.000Z</time>
      </trkpt>
      <trkpt lat="49.7904" lon="4.84232">
        <ele>221</ele>
        <time>2022-09-28T10:12:51.000Z</time>
      </trkpt>
      <trkpt lat="49.79036" lon="4.84237">
        <ele>221</ele>
        <time>2022-09-28T10:12:52.000Z</time>
      </trkpt>
      <trkpt lat="49.79031" lon="4.84242">
        <ele>221</ele>
        <time>2022-09-28T10:12:53.000Z</time>
      </trkpt>
      <trkpt lat="49.79026" lon="4.84247">
        <ele>220</ele>
        <time>2022-09-28T10:12:54.000Z</time>
      </trkpt>
      <trkpt lat="49.7902" lon="4.84251">
        <ele>220</ele>
        <time>2022-09-28T10:12:55.000Z</time>
      </trkpt>
      <trkpt lat="49.79015" lon="4.84256">
        <ele>220</ele>
        <time>2022-09-28T10:12:56.000Z</time>
      </trkpt>
      <trkpt lat="49.7901" lon="4.8426">
        <ele>220</ele>
        <time>2022-09-28T10:12:57.000Z</time>
      </trkpt>
      <trkpt lat="49.79005" lon="4.84264">
        <ele>220</ele>
        <time>2022-09-28T10:12:58.000Z</time>
      </trkpt>
      <trkpt lat="49.78999" lon="4.84266">
        <ele>219</ele>
        <time>2022-09-28T10:12:59.000Z</time>
      </trkpt>
      <trkpt lat="49.78994" lon="4.84268">
        <ele>219</ele>
        <time>2022-09-28T10:13:00.000Z</time>
      </trkpt>
      <trkpt lat="49.78989" lon="4.8427">
        <ele>219</ele>
        <time>2022-09-28T10:13:01.000Z</time>
      </trkpt>
      <trkpt lat="49.78984" lon="4.84272">
        <ele>219</ele>
        <time>2022-09-28T10:13:02.000Z</time>
      </trkpt>
      <trkpt lat="49.78979" lon="4.84275">
        <ele>219</ele>
        <time>2022-09-28T10:13:03.000Z</time>
      </trkpt>
      <trkpt lat="49.78974" lon="4.84278">
        <ele>219</ele>
        <time>2022-09-28T10:13:04.000Z</time>
      </trkpt>
      <trkpt lat="49.78968" lon="4.84281">
        <ele>219</ele>
        <time>2022-09-28T10:13:05.000Z</time>
      </trkpt>
      <trkpt lat="49.78963" lon="4.84284">
        <ele>219</ele>
        <time>2022-09-28T10:13:06.000Z</time>
      </trkpt>
      <trkpt lat="49.78957" lon="4.84287">
        <ele>219</ele>
        <time>2022-09-28T10:13:07.000Z</time>
      </trkpt>
      <trkpt lat="49.78952" lon="4.84291">
        <ele>219</ele>
        <time>2022-09-28T10:13:08.000Z</time>
      </trkpt>
      <trkpt lat="49.78946" lon="4.84293">
        <ele>219</ele>
        <time>2022-09-28T10:13:09.000Z</time>
      </trkpt>
      <trkpt lat="49.78941" lon="4.84297">
        <ele>218</ele>
        <time>2022-09-28T10:13:10.000Z</time>
      </trkpt>
      <trkpt lat="49.78936" lon="4.843">
        <ele>218</ele>
        <time>2022-09-28T10:13:11.000Z</time>
      </trkpt>
      <trkpt lat="49.78931" lon="4.84304">
        <ele>218</ele>
        <time>2022-09-28T10:13:12.000Z</time>
      </trkpt>
      <trkpt lat="49.78925" lon="4.84306">
        <ele>218</ele>
        <time>2022-09-28T10:13:13.000Z</time>
      </trkpt>
      <trkpt lat="49.7892" lon="4.84309">
        <ele>218</ele>
        <time>2022-09-28T10:13:14.000Z</time>
      </trkpt>
      <trkpt lat="49.78914" lon="4.84311">
        <ele>218</ele>
        <time>2022-09-28T10:13:15.000Z</time>
      </trkpt>
      <trkpt lat="49.78908" lon="4.84313">
        <ele>218</ele>
        <time>2022-09-28T10:13:16.000Z</time>
      </trkpt>
      <trkpt lat="49.78902" lon="4.84316">
        <ele>217</ele>
        <time>2022-09-28T10:13:17.000Z</time>
      </trkpt>
      <trkpt lat="49.78897" lon="4.84318">
        <ele>217</ele>
        <time>2022-09-28T10:13:18.000Z</time>
      </trkpt>
      <trkpt lat="49.78891" lon="4.8432">
        <ele>217</ele>
        <time>2022-09-28T10:13:19.000Z</time>
      </trkpt>
      <trkpt lat="49.78885" lon="4.84323">
        <ele>217</ele>
        <time>2022-09-28T10:13:20.000Z</time>
      </trkpt>
      <trkpt lat="49.7888" lon="4.84324">
        <ele>217</ele>
        <time>2022-09-28T10:13:21.000Z</time>
      </trkpt>
      <trkpt lat="49.78874" lon="4.84325">
        <ele>217</ele>
        <time>2022-09-28T10:13:22.000Z</time>
      </trkpt>
      <trkpt lat="49.78869" lon="4.84324">
        <ele>217</ele>
        <time>2022-09-28T10:13:23.000Z</time>
      </trkpt>
      <trkpt lat="49.78864" lon="4.84324">
        <ele>217</ele>
        <time>2022-09-28T10:13:24.000Z</time>
      </trkpt>
      <trkpt lat="49.78858" lon="4.84324">
        <ele>217</ele>
        <time>2022-09-28T10:13:25.000Z</time>
      </trkpt>
      <trkpt lat="49.78851" lon="4.84324">
        <ele>216</ele>
        <time>2022-09-28T10:13:26.000Z</time>
      </trkpt>
      <trkpt lat="49.78845" lon="4.84323">
        <ele>216</ele>
        <time>2022-09-28T10:13:27.000Z</time>
      </trkpt>
      <trkpt lat="49.78837" lon="4.84323">
        <ele>216</ele>
        <time>2022-09-28T10:13:28.000Z</time>
      </trkpt>
      <trkpt lat="49.7883" lon="4.84323">
        <ele>216</ele>
        <time>2022-09-28T10:13:29.000Z</time>
      </trkpt>
      <trkpt lat="49.78822" lon="4.84324">
        <ele>216</ele>
        <time>2022-09-28T10:13:30.000Z</time>
      </trkpt>
      <trkpt lat="49.78815" lon="4.84324">
        <ele>216</ele>
        <time>2022-09-28T10:13:31.000Z</time>
      </trkpt>
      <trkpt lat="49.78807" lon="4.84323">
        <ele>216</ele>
        <time>2022-09-28T10:13:32.000Z</time>
      </trkpt>
      <trkpt lat="49.78799" lon="4.84323">
        <ele>216</ele>
        <time>2022-09-28T10:13:33.000Z</time>
      </trkpt>
      <trkpt lat="49.78792" lon="4.84322">
        <ele>216</ele>
        <time>2022-09-28T10:13:34.000Z</time>
      </trkpt>
      <trkpt lat="49.78785" lon="4.84322">
        <ele>215</ele>
        <time>2022-09-28T10:13:35.000Z</time>
      </trkpt>
      <trkpt lat="49.78778" lon="4.84321">
        <ele>215</ele>
        <time>2022-09-28T10:13:36.000Z</time>
      </trkpt>
      <trkpt lat="49.78771" lon="4.84321">
        <ele>215</ele>
        <time>2022-09-28T10:13:37.000Z</time>
      </trkpt>
      <trkpt lat="49.78764" lon="4.84321">
        <ele>214</ele>
        <time>2022-09-28T10:13:38.000Z</time>
      </trkpt>
      <trkpt lat="49.78757" lon="4.84321">
        <ele>214</ele>
        <time>2022-09-28T10:13:39.000Z</time>
      </trkpt>
      <trkpt lat="49.7875" lon="4.8432">
        <ele>214</ele>
        <time>2022-09-28T10:13:40.000Z</time>
      </trkpt>
      <trkpt lat="49.78744" lon="4.8432">
        <ele>214</ele>
        <time>2022-09-28T10:13:41.000Z</time>
      </trkpt>
      <trkpt lat="49.78737" lon="4.84321">
        <ele>213</ele>
        <time>2022-09-28T10:13:42.000Z</time>
      </trkpt>
      <trkpt lat="49.7873" lon="4.8432">
        <ele>213</ele>
        <time>2022-09-28T10:13:43.000Z</time>
      </trkpt>
      <trkpt lat="49.78723" lon="4.8432">
        <ele>213</ele>
        <time>2022-09-28T10:13:44.000Z</time>
      </trkpt>
      <trkpt lat="49.78717" lon="4.8432">
        <ele>213</ele>
        <time>2022-09-28T10:13:45.000Z</time>
      </trkpt>
      <trkpt lat="49.78709" lon="4.8432">
        <ele>212</ele>
        <time>2022-09-28T10:13:46.000Z</time>
      </trkpt>
      <trkpt lat="49.78702" lon="4.8432">
        <ele>212</ele>
        <time>2022-09-28T10:13:47.000Z</time>
      </trkpt>
      <trkpt lat="49.78695" lon="4.8432">
        <ele>212</ele>
        <time>2022-09-28T10:13:48.000Z</time>
      </trkpt>
      <trkpt lat="49.78688" lon="4.8432">
        <ele>212</ele>
        <time>2022-09-28T10:13:49.000Z</time>
      </trkpt>
      <trkpt lat="49.7868" lon="4.84319">
        <ele>211</ele>
        <time>2022-09-28T10:13:50.000Z</time>
      </trkpt>
      <trkpt lat="49.78673" lon="4.84318">
        <ele>211</ele>
        <time>2022-09-28T10:13:51.000Z</time>
      </trkpt>
      <trkpt lat="49.78666" lon="4.84319">
        <ele>211</ele>
        <time>2022-09-28T10:13:52.000Z</time>
      </trkpt>
      <trkpt lat="49.78658" lon="4.84319">
        <ele>210</ele>
        <time>2022-09-28T10:13:53.000Z</time>
      </trkpt>
      <trkpt lat="49.78651" lon="4.84319">
        <ele>210</ele>
        <time>2022-09-28T10:13:54.000Z</time>
      </trkpt>
      <trkpt lat="49.78643" lon="4.84318">
        <ele>209</ele>
        <time>2022-09-28T10:13:55.000Z</time>
      </trkpt>
      <trkpt lat="49.78637" lon="4.84317">
        <ele>209</ele>
        <time>2022-09-28T10:13:56.000Z</time>
      </trkpt>
      <trkpt lat="49.7863" lon="4.84316">
        <ele>209</ele>
        <time>2022-09-28T10:13:57.000Z</time>
      </trkpt>
      <trkpt lat="49.78623" lon="4.84315">
        <ele>208</ele>
        <time>2022-09-28T10:13:58.000Z</time>
      </trkpt>
      <trkpt lat="49.78616" lon="4.84314">
        <ele>208</ele>
        <time>2022-09-28T10:13:59.000Z</time>
      </trkpt>
      <trkpt lat="49.7861" lon="4.84313">
        <ele>208</ele>
        <time>2022-09-28T10:14:00.000Z</time>
      </trkpt>
      <trkpt lat="49.78603" lon="4.84312">
        <ele>207</ele>
        <time>2022-09-28T10:14:01.000Z</time>
      </trkpt>
      <trkpt lat="49.78596" lon="4.84312">
        <ele>207</ele>
        <time>2022-09-28T10:14:02.000Z</time>
      </trkpt>
      <trkpt lat="49.7859" lon="4.84311">
        <ele>207</ele>
        <time>2022-09-28T10:14:03.000Z</time>
      </trkpt>
      <trkpt lat="49.78584" lon="4.84311">
        <ele>207</ele>
        <time>2022-09-28T10:14:04.000Z</time>
      </trkpt>
      <trkpt lat="49.78577" lon="4.84311">
        <ele>206</ele>
        <time>2022-09-28T10:14:05.000Z</time>
      </trkpt>
      <trkpt lat="49.78571" lon="4.84311">
        <ele>206</ele>
        <time>2022-09-28T10:14:06.000Z</time>
      </trkpt>
      <trkpt lat="49.78564" lon="4.8431">
        <ele>206</ele>
        <time>2022-09-28T10:14:07.000Z</time>
      </trkpt>
      <trkpt lat="49.78558" lon="4.8431">
        <ele>205</ele>
        <time>2022-09-28T10:14:08.000Z</time>
      </trkpt>
      <trkpt lat="49.78551" lon="4.8431">
        <ele>205</ele>
        <time>2022-09-28T10:14:09.000Z</time>
      </trkpt>
      <trkpt lat="49.78545" lon="4.84309">
        <ele>204</ele>
        <time>2022-09-28T10:14:10.000Z</time>
      </trkpt>
      <trkpt lat="49.78538" lon="4.84309">
        <ele>204</ele>
        <time>2022-09-28T10:14:11.000Z</time>
      </trkpt>
      <trkpt lat="49.78531" lon="4.84308">
        <ele>203</ele>
        <time>2022-09-28T10:14:12.000Z</time>
      </trkpt>
      <trkpt lat="49.78524" lon="4.84308">
        <ele>203</ele>
        <time>2022-09-28T10:14:13.000Z</time>
      </trkpt>
      <trkpt lat="49.78517" lon="4.84307">
        <ele>202</ele>
        <time>2022-09-28T10:14:14.000Z</time>
      </trkpt>
      <trkpt lat="49.78511" lon="4.84307">
        <ele>202</ele>
        <time>2022-09-28T10:14:15.000Z</time>
      </trkpt>
      <trkpt lat="49.78505" lon="4.84307">
        <ele>202</ele>
        <time>2022-09-28T10:14:16.000Z</time>
      </trkpt>
      <trkpt lat="49.78498" lon="4.84307">
        <ele>201</ele>
        <time>2022-09-28T10:14:17.000Z</time>
      </trkpt>
      <trkpt lat="49.78492" lon="4.84306">
        <ele>201</ele>
        <time>2022-09-28T10:14:18.000Z</time>
      </trkpt>
      <trkpt lat="49.78486" lon="4.84306">
        <ele>201</ele>
        <time>2022-09-28T10:14:19.000Z</time>
      </trkpt>
      <trkpt lat="49.7848" lon="4.84306">
        <ele>201</ele>
        <time>2022-09-28T10:14:20.000Z</time>
      </trkpt>
      <trkpt lat="49.78474" lon="4.84305">
        <ele>200</ele>
        <time>2022-09-28T10:14:21.000Z</time>
      </trkpt>
      <trkpt lat="49.78468" lon="4.84305">
        <ele>200</ele>
        <time>2022-09-28T10:14:22.000Z</time>
      </trkpt>
      <trkpt lat="49.78462" lon="4.84304">
        <ele>200</ele>
        <time>2022-09-28T10:14:23.000Z</time>
      </trkpt>
      <trkpt lat="49.78456" lon="4.84303">
        <ele>200</ele>
        <time>2022-09-28T10:14:24.000Z</time>
      </trkpt>
      <trkpt lat="49.7845" lon="4.84302">
        <ele>200</ele>
        <time>2022-09-28T10:14:25.000Z</time>
      </trkpt>
      <trkpt lat="49.78444" lon="4.84302">
        <ele>199</ele>
        <time>2022-09-28T10:14:26.000Z</time>
      </trkpt>
      <trkpt lat="49.78439" lon="4.84303">
        <ele>199</ele>
        <time>2022-09-28T10:14:27.000Z</time>
      </trkpt>
      <trkpt lat="49.78433" lon="4.84306">
        <ele>199</ele>
        <time>2022-09-28T10:14:28.000Z</time>
      </trkpt>
      <trkpt lat="49.78429" lon="4.84309">
        <ele>199</ele>
        <time>2022-09-28T10:14:29.000Z</time>
      </trkpt>
      <trkpt lat="49.78424" lon="4.84313">
        <ele>198</ele>
        <time>2022-09-28T10:14:30.000Z</time>
      </trkpt>
      <trkpt lat="49.78419" lon="4.84318">
        <ele>198</ele>
        <time>2022-09-28T10:14:31.000Z</time>
      </trkpt>
      <trkpt lat="49.78414" lon="4.84322">
        <ele>198</ele>
        <time>2022-09-28T10:14:32.000Z</time>
      </trkpt>
      <trkpt lat="49.7841" lon="4.84326">
        <ele>197</ele>
        <time>2022-09-28T10:14:33.000Z</time>
      </trkpt>
      <trkpt lat="49.78406" lon="4.8433">
        <ele>197</ele>
        <time>2022-09-28T10:14:34.000Z</time>
      </trkpt>
      <trkpt lat="49.78402" lon="4.84335">
        <ele>197</ele>
        <time>2022-09-28T10:14:35.000Z</time>
      </trkpt>
      <trkpt lat="49.78398" lon="4.84339">
        <ele>197</ele>
        <time>2022-09-28T10:14:36.000Z</time>
      </trkpt>
      <trkpt lat="49.78393" lon="4.84342">
        <ele>196</ele>
        <time>2022-09-28T10:14:37.000Z</time>
      </trkpt>
      <trkpt lat="49.78388" lon="4.84344">
        <ele>196</ele>
        <time>2022-09-28T10:14:38.000Z</time>
      </trkpt>
      <trkpt lat="49.78383" lon="4.84346">
        <ele>196</ele>
        <time>2022-09-28T10:14:39.000Z</time>
      </trkpt>
      <trkpt lat="49.78377" lon="4.84346">
        <ele>196</ele>
        <time>2022-09-28T10:14:40.000Z</time>
      </trkpt>
      <trkpt lat="49.78372" lon="4.84344">
        <ele>195</ele>
        <time>2022-09-28T10:14:41.000Z</time>
      </trkpt>
      <trkpt lat="49.78366" lon="4.84341">
        <ele>195</ele>
        <time>2022-09-28T10:14:42.000Z</time>
      </trkpt>
      <trkpt lat="49.78361" lon="4.84337">
        <ele>195</ele>
        <time>2022-09-28T10:14:43.000Z</time>
      </trkpt>
      <trkpt lat="49.78355" lon="4.84334">
        <ele>195</ele>
        <time>2022-09-28T10:14:44.000Z</time>
      </trkpt>
      <trkpt lat="49.7835" lon="4.84331">
        <ele>195</ele>
        <time>2022-09-28T10:14:45.000Z</time>
      </trkpt>
      <trkpt lat="49.78345" lon="4.84327">
        <ele>194</ele>
        <time>2022-09-28T10:14:46.000Z</time>
      </trkpt>
      <trkpt lat="49.7834" lon="4.84324">
        <ele>194</ele>
        <time>2022-09-28T10:14:47.000Z</time>
      </trkpt>
      <trkpt lat="49.78335" lon="4.8432">
        <ele>194</ele>
        <time>2022-09-28T10:14:48.000Z</time>
      </trkpt>
      <trkpt lat="49.7833" lon="4.84317">
        <ele>194</ele>
        <time>2022-09-28T10:14:49.000Z</time>
      </trkpt>
      <trkpt lat="49.78325" lon="4.84313">
        <ele>194</ele>
        <time>2022-09-28T10:14:50.000Z</time>
      </trkpt>
      <trkpt lat="49.7832" lon="4.8431">
        <ele>193</ele>
        <time>2022-09-28T10:14:51.000Z</time>
      </trkpt>
      <trkpt lat="49.78315" lon="4.84306">
        <ele>193</ele>
        <time>2022-09-28T10:14:52.000Z</time>
      </trkpt>
      <trkpt lat="49.7831" lon="4.84303">
        <ele>193</ele>
        <time>2022-09-28T10:14:53.000Z</time>
      </trkpt>
      <trkpt lat="49.78304" lon="4.84299">
        <ele>193</ele>
        <time>2022-09-28T10:14:54.000Z</time>
      </trkpt>
      <trkpt lat="49.78299" lon="4.84295">
        <ele>193</ele>
        <time>2022-09-28T10:14:55.000Z</time>
      </trkpt>
      <trkpt lat="49.78294" lon="4.84291">
        <ele>193</ele>
        <time>2022-09-28T10:14:56.000Z</time>
      </trkpt>
      <trkpt lat="49.78289" lon="4.84288">
        <ele>193</ele>
        <time>2022-09-28T10:14:57.000Z</time>
      </trkpt>
      <trkpt lat="49.78284" lon="4.84284">
        <ele>193</ele>
        <time>2022-09-28T10:14:58.000Z</time>
      </trkpt>
      <trkpt lat="49.78279" lon="4.84281">
        <ele>193</ele>
        <time>2022-09-28T10:14:59.000Z</time>
      </trkpt>
      <trkpt lat="49.78274" lon="4.84279">
        <ele>193</ele>
        <time>2022-09-28T10:15:00.000Z</time>
      </trkpt>
      <trkpt lat="49.78269" lon="4.84276">
        <ele>193</ele>
        <time>2022-09-28T10:15:01.000Z</time>
      </trkpt>
      <trkpt lat="49.78264" lon="4.84273">
        <ele>193</ele>
        <time>2022-09-28T10:15:02.000Z</time>
      </trkpt>
      <trkpt lat="49.78259" lon="4.8427">
        <ele>193</ele>
        <time>2022-09-28T10:15:03.000Z</time>
      </trkpt>
      <trkpt lat="49.78255" lon="4.84265">
        <ele>193</ele>
        <time>2022-09-28T10:15:04.000Z</time>
      </trkpt>
      <trkpt lat="49.78251" lon="4.84261">
        <ele>193</ele>
        <time>2022-09-28T10:15:05.000Z</time>
      </trkpt>
      <trkpt lat="49.78248" lon="4.84256">
        <ele>193</ele>
        <time>2022-09-28T10:15:06.000Z</time>
      </trkpt>
      <trkpt lat="49.78245" lon="4.8425">
        <ele>193</ele>
        <time>2022-09-28T10:15:07.000Z</time>
      </trkpt>
      <trkpt lat="49.78243" lon="4.84244">
        <ele>193</ele>
        <time>2022-09-28T10:15:08.000Z</time>
      </trkpt>
      <trkpt lat="49.78239" lon="4.84238">
        <ele>192</ele>
        <time>2022-09-28T10:15:09.000Z</time>
      </trkpt>
      <trkpt lat="49.78237" lon="4.84232">
        <ele>192</ele>
        <time>2022-09-28T10:15:10.000Z</time>
      </trkpt>
      <trkpt lat="49.78235" lon="4.84225">
        <ele>192</ele>
        <time>2022-09-28T10:15:11.000Z</time>
      </trkpt>
      <trkpt lat="49.78234" lon="4.84218">
        <ele>192</ele>
        <time>2022-09-28T10:15:12.000Z</time>
      </trkpt>
      <trkpt lat="49.78233" lon="4.84211">
        <ele>192</ele>
        <time>2022-09-28T10:15:13.000Z</time>
      </trkpt>
      <trkpt lat="49.78232" lon="4.84204">
        <ele>191</ele>
        <time>2022-09-28T10:15:14.000Z</time>
      </trkpt>
      <trkpt lat="49.78231" lon="4.84198">
        <ele>191</ele>
        <time>2022-09-28T10:15:15.000Z</time>
      </trkpt>
      <trkpt lat="49.78229" lon="4.84192">
        <ele>191</ele>
        <time>2022-09-28T10:15:16.000Z</time>
      </trkpt>
      <trkpt lat="49.78228" lon="4.84187">
        <ele>191</ele>
        <time>2022-09-28T10:15:17.000Z</time>
      </trkpt>
      <trkpt lat="49.78226" lon="4.84181">
        <ele>191</ele>
        <time>2022-09-28T10:15:18.000Z</time>
      </trkpt>
      <trkpt lat="49.78224" lon="4.84176">
        <ele>191</ele>
        <time>2022-09-28T10:15:19.000Z</time>
      </trkpt>
      <trkpt lat="49.78222" lon="4.8417">
        <ele>190</ele>
        <time>2022-09-28T10:15:20.000Z</time>
      </trkpt>
      <trkpt lat="49.78219" lon="4.84164">
        <ele>190</ele>
        <time>2022-09-28T10:15:21.000Z</time>
      </trkpt>
      <trkpt lat="49.78216" lon="4.8416">
        <ele>190</ele>
        <time>2022-09-28T10:15:22.000Z</time>
      </trkpt>
      <trkpt lat="49.78214" lon="4.84155">
        <ele>190</ele>
        <time>2022-09-28T10:15:23.000Z</time>
      </trkpt>
      <trkpt lat="49.78212" lon="4.8415">
        <ele>190</ele>
        <time>2022-09-28T10:15:24.000Z</time>
      </trkpt>
      <trkpt lat="49.7821" lon="4.84146">
        <ele>190</ele>
        <time>2022-09-28T10:15:25.000Z</time>
      </trkpt>
      <trkpt lat="49.78207" lon="4.8414">
        <ele>190</ele>
        <time>2022-09-28T10:15:26.000Z</time>
      </trkpt>
      <trkpt lat="49.78205" lon="4.84135">
        <ele>190</ele>
        <time>2022-09-28T10:15:27.000Z</time>
      </trkpt>
      <trkpt lat="49.78202" lon="4.84131">
        <ele>190</ele>
        <time>2022-09-28T10:15:28.000Z</time>
      </trkpt>
      <trkpt lat="49.78198" lon="4.84127">
        <ele>189</ele>
        <time>2022-09-28T10:15:29.000Z</time>
      </trkpt>
      <trkpt lat="49.78195" lon="4.84124">
        <ele>189</ele>
        <time>2022-09-28T10:15:30.000Z</time>
      </trkpt>
      <trkpt lat="49.78191" lon="4.8412">
        <ele>189</ele>
        <time>2022-09-28T10:15:31.000Z</time>
      </trkpt>
      <trkpt lat="49.78188" lon="4.84118">
        <ele>189</ele>
        <time>2022-09-28T10:15:32.000Z</time>
      </trkpt>
      <trkpt lat="49.78184" lon="4.84116">
        <ele>189</ele>
        <time>2022-09-28T10:15:33.000Z</time>
      </trkpt>
      <trkpt lat="49.7818" lon="4.84116">
        <ele>189</ele>
        <time>2022-09-28T10:15:34.000Z</time>
      </trkpt>
      <trkpt lat="49.78176" lon="4.84116">
        <ele>189</ele>
        <time>2022-09-28T10:15:35.000Z</time>
      </trkpt>
      <trkpt lat="49.78173" lon="4.84119">
        <ele>188</ele>
        <time>2022-09-28T10:15:36.000Z</time>
      </trkpt>
      <trkpt lat="49.78169" lon="4.84121">
        <ele>188</ele>
        <time>2022-09-28T10:15:37.000Z</time>
      </trkpt>
      <trkpt lat="49.78166" lon="4.84124">
        <ele>188</ele>
        <time>2022-09-28T10:15:38.000Z</time>
      </trkpt>
      <trkpt lat="49.78163" lon="4.84126">
        <ele>188</ele>
        <time>2022-09-28T10:15:39.000Z</time>
      </trkpt>
      <trkpt lat="49.7816" lon="4.84129">
        <ele>188</ele>
        <time>2022-09-28T10:15:40.000Z</time>
      </trkpt>
      <trkpt lat="49.78157" lon="4.84131">
        <ele>188</ele>
        <time>2022-09-28T10:15:41.000Z</time>
      </trkpt>
      <trkpt lat="49.78155" lon="4.84134">
        <ele>188</ele>
        <time>2022-09-28T10:15:42.000Z</time>
      </trkpt>
      <trkpt lat="49.78152" lon="4.84136">
        <ele>189</ele>
        <time>2022-09-28T10:15:43.000Z</time>
      </trkpt>
      <trkpt lat="49.78149" lon="4.84138">
        <ele>189</ele>
        <time>2022-09-28T10:15:44.000Z</time>
      </trkpt>
      <trkpt lat="49.78146" lon="4.84141">
        <ele>189</ele>
        <time>2022-09-28T10:15:45.000Z</time>
      </trkpt>
      <trkpt lat="49.78142" lon="4.84144">
        <ele>189</ele>
        <time>2022-09-28T10:15:46.000Z</time>
      </trkpt>
      <trkpt lat="49.78138" lon="4.84147">
        <ele>189</ele>
        <time>2022-09-28T10:15:47.000Z</time>
      </trkpt>
      <trkpt lat="49.78135" lon="4.8415">
        <ele>189</ele>
        <time>2022-09-28T10:15:48.000Z</time>
      </trkpt>
      <trkpt lat="49.78131" lon="4.84154">
        <ele>189</ele>
        <time>2022-09-28T10:15:49.000Z</time>
      </trkpt>
      <trkpt lat="49.78128" lon="4.84158">
        <ele>189</ele>
        <time>2022-09-28T10:15:50.000Z</time>
      </trkpt>
      <trkpt lat="49.78125" lon="4.84162">
        <ele>189</ele>
        <time>2022-09-28T10:15:51.000Z</time>
      </trkpt>
      <trkpt lat="49.78122" lon="4.84165">
        <ele>189</ele>
        <time>2022-09-28T10:15:52.000Z</time>
      </trkpt>
      <trkpt lat="49.78118" lon="4.84168">
        <ele>189</ele>
        <time>2022-09-28T10:15:53.000Z</time>
      </trkpt>
      <trkpt lat="49.78115" lon="4.84171">
        <ele>189</ele>
        <time>2022-09-28T10:15:54.000Z</time>
      </trkpt>
      <trkpt lat="49.78111" lon="4.84174">
        <ele>189</ele>
        <time>2022-09-28T10:15:55.000Z</time>
      </trkpt>
      <trkpt lat="49.78107" lon="4.84178">
        <ele>189</ele>
        <time>2022-09-28T10:15:56.000Z</time>
      </trkpt>
      <trkpt lat="49.78102" lon="4.84181">
        <ele>189</ele>
        <time>2022-09-28T10:15:57.000Z</time>
      </trkpt>
      <trkpt lat="49.78097" lon="4.84185">
        <ele>190</ele>
        <time>2022-09-28T10:15:58.000Z</time>
      </trkpt>
      <trkpt lat="49.78092" lon="4.84188">
        <ele>190</ele>
        <time>2022-09-28T10:15:59.000Z</time>
      </trkpt>
      <trkpt lat="49.78087" lon="4.8419">
        <ele>190</ele>
        <time>2022-09-28T10:16:00.000Z</time>
      </trkpt>
      <trkpt lat="49.78083" lon="4.84192">
        <ele>190</ele>
        <time>2022-09-28T10:16:01.000Z</time>
      </trkpt>
      <trkpt lat="49.78078" lon="4.84193">
        <ele>190</ele>
        <time>2022-09-28T10:16:02.000Z</time>
      </trkpt>
      <trkpt lat="49.78074" lon="4.84194">
        <ele>190</ele>
        <time>2022-09-28T10:16:03.000Z</time>
      </trkpt>
      <trkpt lat="49.78069" lon="4.84195">
        <ele>190</ele>
        <time>2022-09-28T10:16:04.000Z</time>
      </trkpt>
      <trkpt lat="49.78064" lon="4.84197">
        <ele>190</ele>
        <time>2022-09-28T10:16:05.000Z</time>
      </trkpt>
      <trkpt lat="49.78058" lon="4.84199">
        <ele>190</ele>
        <time>2022-09-28T10:16:06.000Z</time>
      </trkpt>
      <trkpt lat="49.78052" lon="4.84201">
        <ele>190</ele>
        <time>2022-09-28T10:16:07.000Z</time>
      </trkpt>
      <trkpt lat="49.78045" lon="4.84202">
        <ele>190</ele>
        <time>2022-09-28T10:16:08.000Z</time>
      </trkpt>
      <trkpt lat="49.78039" lon="4.84202">
        <ele>190</ele>
        <time>2022-09-28T10:16:09.000Z</time>
      </trkpt>
      <trkpt lat="49.78033" lon="4.84203">
        <ele>190</ele>
        <time>2022-09-28T10:16:10.000Z</time>
      </trkpt>
      <trkpt lat="49.78026" lon="4.84204">
        <ele>190</ele>
        <time>2022-09-28T10:16:11.000Z</time>
      </trkpt>
      <trkpt lat="49.7802" lon="4.84204">
        <ele>190</ele>
        <time>2022-09-28T10:16:12.000Z</time>
      </trkpt>
      <trkpt lat="49.78013" lon="4.84204">
        <ele>190</ele>
        <time>2022-09-28T10:16:13.000Z</time>
      </trkpt>
      <trkpt lat="49.78007" lon="4.84205">
        <ele>190</ele>
        <time>2022-09-28T10:16:14.000Z</time>
      </trkpt>
      <trkpt lat="49.78001" lon="4.84206">
        <ele>190</ele>
        <time>2022-09-28T10:16:15.000Z</time>
      </trkpt>
      <trkpt lat="49.77994" lon="4.84206">
        <ele>190</ele>
        <time>2022-09-28T10:16:16.000Z</time>
      </trkpt>
      <trkpt lat="49.77988" lon="4.84206">
        <ele>190</ele>
        <time>2022-09-28T10:16:17.000Z</time>
      </trkpt>
      <trkpt lat="49.77981" lon="4.84205">
        <ele>190</ele>
        <time>2022-09-28T10:16:18.000Z</time>
      </trkpt>
      <trkpt lat="49.77974" lon="4.84204">
        <ele>189</ele>
        <time>2022-09-28T10:16:19.000Z</time>
      </trkpt>
      <trkpt lat="49.77967" lon="4.84202">
        <ele>189</ele>
        <time>2022-09-28T10:16:20.000Z</time>
      </trkpt>
      <trkpt lat="49.77961" lon="4.84201">
        <ele>189</ele>
        <time>2022-09-28T10:16:21.000Z</time>
      </trkpt>
      <trkpt lat="49.77955" lon="4.842">
        <ele>189</ele>
        <time>2022-09-28T10:16:22.000Z</time>
      </trkpt>
      <trkpt lat="49.77949" lon="4.84199">
        <ele>189</ele>
        <time>2022-09-28T10:16:23.000Z</time>
      </trkpt>
      <trkpt lat="49.77943" lon="4.84199">
        <ele>189</ele>
        <time>2022-09-28T10:16:24.000Z</time>
      </trkpt>
      <trkpt lat="49.77937" lon="4.84201">
        <ele>189</ele>
        <time>2022-09-28T10:16:25.000Z</time>
      </trkpt>
      <trkpt lat="49.77932" lon="4.84201">
        <ele>189</ele>
        <time>2022-09-28T10:16:26.000Z</time>
      </trkpt>
      <trkpt lat="49.77926" lon="4.84201">
        <ele>189</ele>
        <time>2022-09-28T10:16:27.000Z</time>
      </trkpt>
      <trkpt lat="49.7792" lon="4.84202">
        <ele>189</ele>
        <time>2022-09-28T10:16:28.000Z</time>
      </trkpt>
      <trkpt lat="49.77915" lon="4.84202">
        <ele>189</ele>
        <time>2022-09-28T10:16:29.000Z</time>
      </trkpt>
      <trkpt lat="49.7791" lon="4.84201">
        <ele>189</ele>
        <time>2022-09-28T10:16:30.000Z</time>
      </trkpt>
      <trkpt lat="49.77904" lon="4.84202">
        <ele>190</ele>
        <time>2022-09-28T10:16:31.000Z</time>
      </trkpt>
      <trkpt lat="49.77897" lon="4.84202">
        <ele>190</ele>
        <time>2022-09-28T10:16:32.000Z</time>
      </trkpt>
      <trkpt lat="49.77892" lon="4.84203">
        <ele>190</ele>
        <time>2022-09-28T10:16:33.000Z</time>
      </trkpt>
      <trkpt lat="49.77886" lon="4.84204">
        <ele>190</ele>
        <time>2022-09-28T10:16:34.000Z</time>
      </trkpt>
      <trkpt lat="49.77881" lon="4.84204">
        <ele>190</ele>
        <time>2022-09-28T10:16:35.000Z</time>
      </trkpt>
      <trkpt lat="49.77875" lon="4.84203">
        <ele>190</ele>
        <time>2022-09-28T10:16:36.000Z</time>
      </trkpt>
      <trkpt lat="49.77869" lon="4.84202">
        <ele>190</ele>
        <time>2022-09-28T10:16:37.000Z</time>
      </trkpt>
      <trkpt lat="49.77864" lon="4.84201">
        <ele>190</ele>
        <time>2022-09-28T10:16:38.000Z</time>
      </trkpt>
      <trkpt lat="49.77859" lon="4.84201">
        <ele>190</ele>
        <time>2022-09-28T10:16:39.000Z</time>
      </trkpt>
      <trkpt lat="49.77853" lon="4.84201">
        <ele>190</ele>
        <time>2022-09-28T10:16:40.000Z</time>
      </trkpt>
      <trkpt lat="49.77847" lon="4.842">
        <ele>190</ele>
        <time>2022-09-28T10:16:41.000Z</time>
      </trkpt>
      <trkpt lat="49.77841" lon="4.84198">
        <ele>190</ele>
        <time>2022-09-28T10:16:42.000Z</time>
      </trkpt>
      <trkpt lat="49.77835" lon="4.84197">
        <ele>190</ele>
        <time>2022-09-28T10:16:43.000Z</time>
      </trkpt>
      <trkpt lat="49.77828" lon="4.84195">
        <ele>190</ele>
        <time>2022-09-28T10:16:44.000Z</time>
      </trkpt>
      <trkpt lat="49.77822" lon="4.84194">
        <ele>190</ele>
        <time>2022-09-28T10:16:45.000Z</time>
      </trkpt>
      <trkpt lat="49.77816" lon="4.84193">
        <ele>190</ele>
        <time>2022-09-28T10:16:46.000Z</time>
      </trkpt>
      <trkpt lat="49.77809" lon="4.84192">
        <ele>190</ele>
        <time>2022-09-28T10:16:47.000Z</time>
      </trkpt>
      <trkpt lat="49.77803" lon="4.84192">
        <ele>190</ele>
        <time>2022-09-28T10:16:48.000Z</time>
      </trkpt>
      <trkpt lat="49.77796" lon="4.84191">
        <ele>190</ele>
        <time>2022-09-28T10:16:49.000Z</time>
      </trkpt>
      <trkpt lat="49.7779" lon="4.8419">
        <ele>190</ele>
        <time>2022-09-28T10:16:50.000Z</time>
      </trkpt>
      <trkpt lat="49.77784" lon="4.84188">
        <ele>190</ele>
        <time>2022-09-28T10:16:51.000Z</time>
      </trkpt>
      <trkpt lat="49.77778" lon="4.84186">
        <ele>190</ele>
        <time>2022-09-28T10:16:52.000Z</time>
      </trkpt>
      <trkpt lat="49.77771" lon="4.84186">
        <ele>190</ele>
        <time>2022-09-28T10:16:53.000Z</time>
      </trkpt>
      <trkpt lat="49.77765" lon="4.84185">
        <ele>190</ele>
        <time>2022-09-28T10:16:54.000Z</time>
      </trkpt>
      <trkpt lat="49.77759" lon="4.84183">
        <ele>190</ele>
        <time>2022-09-28T10:16:55.000Z</time>
      </trkpt>
      <trkpt lat="49.77753" lon="4.84181">
        <ele>190</ele>
        <time>2022-09-28T10:16:56.000Z</time>
      </trkpt>
      <trkpt lat="49.77748" lon="4.84179">
        <ele>190</ele>
        <time>2022-09-28T10:16:57.000Z</time>
      </trkpt>
      <trkpt lat="49.77743" lon="4.84177">
        <ele>190</ele>
        <time>2022-09-28T10:16:58.000Z</time>
      </trkpt>
      <trkpt lat="49.77738" lon="4.84176">
        <ele>190</ele>
        <time>2022-09-28T10:16:59.000Z</time>
      </trkpt>
      <trkpt lat="49.77733" lon="4.84174">
        <ele>190</ele>
        <time>2022-09-28T10:17:00.000Z</time>
      </trkpt>
      <trkpt lat="49.77728" lon="4.84173">
        <ele>190</ele>
        <time>2022-09-28T10:17:01.000Z</time>
      </trkpt>
      <trkpt lat="49.77723" lon="4.84172">
        <ele>190</ele>
        <time>2022-09-28T10:17:02.000Z</time>
      </trkpt>
      <trkpt lat="49.77719" lon="4.84171">
        <ele>190</ele>
        <time>2022-09-28T10:17:03.000Z</time>
      </trkpt>
      <trkpt lat="49.77714" lon="4.8417">
        <ele>190</ele>
        <time>2022-09-28T10:17:04.000Z</time>
      </trkpt>
      <trkpt lat="49.77711" lon="4.84169">
        <ele>190</ele>
        <time>2022-09-28T10:17:05.000Z</time>
      </trkpt>
      <trkpt lat="49.77707" lon="4.84167">
        <ele>190</ele>
        <time>2022-09-28T10:17:06.000Z</time>
      </trkpt>
      <trkpt lat="49.77704" lon="4.84166">
        <ele>190</ele>
        <time>2022-09-28T10:17:07.000Z</time>
      </trkpt>
      <trkpt lat="49.77701" lon="4.84164">
        <ele>190</ele>
        <time>2022-09-28T10:17:08.000Z</time>
      </trkpt>
      <trkpt lat="49.77698" lon="4.84162">
        <ele>190</ele>
        <time>2022-09-28T10:17:09.000Z</time>
      </trkpt>
      <trkpt lat="49.77695" lon="4.84161">
        <ele>190</ele>
        <time>2022-09-28T10:17:10.000Z</time>
      </trkpt>
      <trkpt lat="49.77692" lon="4.84159">
        <ele>190</ele>
        <time>2022-09-28T10:17:11.000Z</time>
      </trkpt>
      <trkpt lat="49.77689" lon="4.84158">
        <ele>190</ele>
        <time>2022-09-28T10:17:12.000Z</time>
      </trkpt>
      <trkpt lat="49.77685" lon="4.84156">
        <ele>190</ele>
        <time>2022-09-28T10:17:13.000Z</time>
      </trkpt>
      <trkpt lat="49.77682" lon="4.84154">
        <ele>190</ele>
        <time>2022-09-28T10:17:14.000Z</time>
      </trkpt>
      <trkpt lat="49.77678" lon="4.84152">
        <ele>190</ele>
        <time>2022-09-28T10:17:15.000Z</time>
      </trkpt>
      <trkpt lat="49.77674" lon="4.8415">
        <ele>190</ele>
        <time>2022-09-28T10:17:16.000Z</time>
      </trkpt>
      <trkpt lat="49.7767" lon="4.84149">
        <ele>190</ele>
        <time>2022-09-28T10:17:17.000Z</time>
      </trkpt>
      <trkpt lat="49.77665" lon="4.84149">
        <ele>190</ele>
        <time>2022-09-28T10:17:18.000Z</time>
      </trkpt>
      <trkpt lat="49.7766" lon="4.8415">
        <ele>191</ele>
        <time>2022-09-28T10:17:19.000Z</time>
      </trkpt>
      <trkpt lat="49.77655" lon="4.8415">
        <ele>191</ele>
        <time>2022-09-28T10:17:20.000Z</time>
      </trkpt>
      <trkpt lat="49.77651" lon="4.8415">
        <ele>191</ele>
        <time>2022-09-28T10:17:21.000Z</time>
      </trkpt>
      <trkpt lat="49.77646" lon="4.8415">
        <ele>191</ele>
        <time>2022-09-28T10:17:22.000Z</time>
      </trkpt>
      <trkpt lat="49.77642" lon="4.8415">
        <ele>191</ele>
        <time>2022-09-28T10:17:23.000Z</time>
      </trkpt>
      <trkpt lat="49.77638" lon="4.84149">
        <ele>191</ele>
        <time>2022-09-28T10:17:24.000Z</time>
      </trkpt>
      <trkpt lat="49.77634" lon="4.84148">
        <ele>191</ele>
        <time>2022-09-28T10:17:25.000Z</time>
      </trkpt>
      <trkpt lat="49.7763" lon="4.84148">
        <ele>192</ele>
        <time>2022-09-28T10:17:26.000Z</time>
      </trkpt>
      <trkpt lat="49.77627" lon="4.84148">
        <ele>192</ele>
        <time>2022-09-28T10:17:27.000Z</time>
      </trkpt>
      <trkpt lat="49.77623" lon="4.84147">
        <ele>192</ele>
        <time>2022-09-28T10:17:28.000Z</time>
      </trkpt>
      <trkpt lat="49.77619" lon="4.84145">
        <ele>192</ele>
        <time>2022-09-28T10:17:29.000Z</time>
      </trkpt>
      <trkpt lat="49.77614" lon="4.84144">
        <ele>192</ele>
        <time>2022-09-28T10:17:30.000Z</time>
      </trkpt>
      <trkpt lat="49.7761" lon="4.84142">
        <ele>192</ele>
        <time>2022-09-28T10:17:31.000Z</time>
      </trkpt>
      <trkpt lat="49.77606" lon="4.84141">
        <ele>192</ele>
        <time>2022-09-28T10:17:32.000Z</time>
      </trkpt>
      <trkpt lat="49.77602" lon="4.84141">
        <ele>193</ele>
        <time>2022-09-28T10:17:33.000Z</time>
      </trkpt>
      <trkpt lat="49.77599" lon="4.8414">
        <ele>193</ele>
        <time>2022-09-28T10:17:34.000Z</time>
      </trkpt>
      <trkpt lat="49.77595" lon="4.84138">
        <ele>193</ele>
        <time>2022-09-28T10:17:35.000Z</time>
      </trkpt>
      <trkpt lat="49.77591" lon="4.84137">
        <ele>193</ele>
        <time>2022-09-28T10:17:36.000Z</time>
      </trkpt>
      <trkpt lat="49.77588" lon="4.84136">
        <ele>193</ele>
        <time>2022-09-28T10:17:37.000Z</time>
      </trkpt>
      <trkpt lat="49.77584" lon="4.84136">
        <ele>193</ele>
        <time>2022-09-28T10:17:38.000Z</time>
      </trkpt>
      <trkpt lat="49.77581" lon="4.84136">
        <ele>193</ele>
        <time>2022-09-28T10:17:39.000Z</time>
      </trkpt>
      <trkpt lat="49.77577" lon="4.84136">
        <ele>193</ele>
        <time>2022-09-28T10:17:40.000Z</time>
      </trkpt>
      <trkpt lat="49.77573" lon="4.84135">
        <ele>193</ele>
        <time>2022-09-28T10:17:41.000Z</time>
      </trkpt>
      <trkpt lat="49.77569" lon="4.84134">
        <ele>193</ele>
        <time>2022-09-28T10:17:42.000Z</time>
      </trkpt>
      <trkpt lat="49.77566" lon="4.84133">
        <ele>194</ele>
        <time>2022-09-28T10:17:43.000Z</time>
      </trkpt>
      <trkpt lat="49.77561" lon="4.84132">
        <ele>194</ele>
        <time>2022-09-28T10:17:44.000Z</time>
      </trkpt>
      <trkpt lat="49.77557" lon="4.84132">
        <ele>194</ele>
        <time>2022-09-28T10:17:45.000Z</time>
      </trkpt>
      <trkpt lat="49.77552" lon="4.8413">
        <ele>194</ele>
        <time>2022-09-28T10:17:46.000Z</time>
      </trkpt>
      <trkpt lat="49.77549" lon="4.84128">
        <ele>195</ele>
        <time>2022-09-28T10:17:47.000Z</time>
      </trkpt>
      <trkpt lat="49.77545" lon="4.84127">
        <ele>195</ele>
        <time>2022-09-28T10:17:48.000Z</time>
      </trkpt>
      <trkpt lat="49.77541" lon="4.84126">
        <ele>195</ele>
        <time>2022-09-28T10:17:49.000Z</time>
      </trkpt>
      <trkpt lat="49.77537" lon="4.84125">
        <ele>195</ele>
        <time>2022-09-28T10:17:50.000Z</time>
      </trkpt>
      <trkpt lat="49.77533" lon="4.84124">
        <ele>195</ele>
        <time>2022-09-28T10:17:51.000Z</time>
      </trkpt>
      <trkpt lat="49.77529" lon="4.84123">
        <ele>196</ele>
        <time>2022-09-28T10:17:52.000Z</time>
      </trkpt>
      <trkpt lat="49.77525" lon="4.84122">
        <ele>196</ele>
        <time>2022-09-28T10:17:53.000Z</time>
      </trkpt>
      <trkpt lat="49.77521" lon="4.84121">
        <ele>196</ele>
        <time>2022-09-28T10:17:54.000Z</time>
      </trkpt>
      <trkpt lat="49.77517" lon="4.8412">
        <ele>196</ele>
        <time>2022-09-28T10:17:55.000Z</time>
      </trkpt>
      <trkpt lat="49.77513" lon="4.84119">
        <ele>196</ele>
        <time>2022-09-28T10:17:56.000Z</time>
      </trkpt>
      <trkpt lat="49.7751" lon="4.84118">
        <ele>196</ele>
        <time>2022-09-28T10:17:57.000Z</time>
      </trkpt>
      <trkpt lat="49.77508" lon="4.84116">
        <ele>197</ele>
        <time>2022-09-28T10:17:58.000Z</time>
      </trkpt>
      <trkpt lat="49.77506" lon="4.84115">
        <ele>197</ele>
        <time>2022-09-28T10:17:59.000Z</time>
      </trkpt>
      <trkpt lat="49.77503" lon="4.84115">
        <ele>197</ele>
        <time>2022-09-28T10:18:00.000Z</time>
      </trkpt>
      <trkpt lat="49.775" lon="4.84115">
        <ele>197</ele>
        <time>2022-09-28T10:18:01.000Z</time>
      </trkpt>
      <trkpt lat="49.77497" lon="4.84114">
        <ele>197</ele>
        <time>2022-09-28T10:18:02.000Z</time>
      </trkpt>
      <trkpt lat="49.77494" lon="4.84114">
        <ele>197</ele>
        <time>2022-09-28T10:18:03.000Z</time>
      </trkpt>
      <trkpt lat="49.77491" lon="4.84112">
        <ele>197</ele>
        <time>2022-09-28T10:18:04.000Z</time>
      </trkpt>
      <trkpt lat="49.77487" lon="4.84111">
        <ele>197</ele>
        <time>2022-09-28T10:18:05.000Z</time>
      </trkpt>
      <trkpt lat="49.77483" lon="4.84111">
        <ele>197</ele>
        <time>2022-09-28T10:18:06.000Z</time>
      </trkpt>
      <trkpt lat="49.77479" lon="4.84111">
        <ele>197</ele>
        <time>2022-09-28T10:18:07.000Z</time>
      </trkpt>
      <trkpt lat="49.77475" lon="4.8411">
        <ele>198</ele>
        <time>2022-09-28T10:18:08.000Z</time>
      </trkpt>
      <trkpt lat="49.77472" lon="4.84109">
        <ele>198</ele>
        <time>2022-09-28T10:18:09.000Z</time>
      </trkpt>
      <trkpt lat="49.77468" lon="4.84109">
        <ele>198</ele>
        <time>2022-09-28T10:18:10.000Z</time>
      </trkpt>
      <trkpt lat="49.77464" lon="4.8411">
        <ele>198</ele>
        <time>2022-09-28T10:18:11.000Z</time>
      </trkpt>
      <trkpt lat="49.7746" lon="4.84111">
        <ele>198</ele>
        <time>2022-09-28T10:18:12.000Z</time>
      </trkpt>
      <trkpt lat="49.77456" lon="4.84111">
        <ele>198</ele>
        <time>2022-09-28T10:18:13.000Z</time>
      </trkpt>
      <trkpt lat="49.77451" lon="4.8411">
        <ele>198</ele>
        <time>2022-09-28T10:18:14.000Z</time>
      </trkpt>
      <trkpt lat="49.77447" lon="4.84111">
        <ele>198</ele>
        <time>2022-09-28T10:18:15.000Z</time>
      </trkpt>
      <trkpt lat="49.77442" lon="4.84111">
        <ele>198</ele>
        <time>2022-09-28T10:18:16.000Z</time>
      </trkpt>
      <trkpt lat="49.77438" lon="4.8411">
        <ele>199</ele>
        <time>2022-09-28T10:18:17.000Z</time>
      </trkpt>
      <trkpt lat="49.77434" lon="4.84109">
        <ele>199</ele>
        <time>2022-09-28T10:18:18.000Z</time>
      </trkpt>
      <trkpt lat="49.7743" lon="4.84108">
        <ele>199</ele>
        <time>2022-09-28T10:18:19.000Z</time>
      </trkpt>
      <trkpt lat="49.77425" lon="4.84109">
        <ele>199</ele>
        <time>2022-09-28T10:18:20.000Z</time>
      </trkpt>
      <trkpt lat="49.77419" lon="4.84108">
        <ele>199</ele>
        <time>2022-09-28T10:18:21.000Z</time>
      </trkpt>
      <trkpt lat="49.77414" lon="4.84108">
        <ele>199</ele>
        <time>2022-09-28T10:18:22.000Z</time>
      </trkpt>
      <trkpt lat="49.77409" lon="4.84108">
        <ele>199</ele>
        <time>2022-09-28T10:18:23.000Z</time>
      </trkpt>
      <trkpt lat="49.77405" lon="4.84107">
        <ele>199</ele>
        <time>2022-09-28T10:18:24.000Z</time>
      </trkpt>
      <trkpt lat="49.774" lon="4.84107">
        <ele>199</ele>
        <time>2022-09-28T10:18:25.000Z</time>
      </trkpt>
      <trkpt lat="49.77395" lon="4.84107">
        <ele>199</ele>
        <time>2022-09-28T10:18:26.000Z</time>
      </trkpt>
      <trkpt lat="49.77391" lon="4.84106">
        <ele>199</ele>
        <time>2022-09-28T10:18:27.000Z</time>
      </trkpt>
      <trkpt lat="49.77387" lon="4.84105">
        <ele>199</ele>
        <time>2022-09-28T10:18:28.000Z</time>
      </trkpt>
      <trkpt lat="49.77383" lon="4.84105">
        <ele>199</ele>
        <time>2022-09-28T10:18:29.000Z</time>
      </trkpt>
      <trkpt lat="49.77378" lon="4.84105">
        <ele>199</ele>
        <time>2022-09-28T10:18:30.000Z</time>
      </trkpt>
      <trkpt lat="49.77374" lon="4.84105">
        <ele>200</ele>
        <time>2022-09-28T10:18:31.000Z</time>
      </trkpt>
      <trkpt lat="49.77369" lon="4.84104">
        <ele>200</ele>
        <time>2022-09-28T10:18:32.000Z</time>
      </trkpt>
      <trkpt lat="49.77365" lon="4.84104">
        <ele>200</ele>
        <time>2022-09-28T10:18:33.000Z</time>
      </trkpt>
      <trkpt lat="49.77362" lon="4.84103">
        <ele>200</ele>
        <time>2022-09-28T10:18:34.000Z</time>
      </trkpt>
      <trkpt lat="49.77358" lon="4.84102">
        <ele>200</ele>
        <time>2022-09-28T10:18:35.000Z</time>
      </trkpt>
      <trkpt lat="49.77355" lon="4.84099">
        <ele>200</ele>
        <time>2022-09-28T10:18:36.000Z</time>
      </trkpt>
      <trkpt lat="49.77351" lon="4.84097">
        <ele>200</ele>
        <time>2022-09-28T10:18:37.000Z</time>
      </trkpt>
      <trkpt lat="49.77347" lon="4.84096">
        <ele>200</ele>
        <time>2022-09-28T10:18:38.000Z</time>
      </trkpt>
      <trkpt lat="49.77343" lon="4.84097">
        <ele>200</ele>
        <time>2022-09-28T10:18:39.000Z</time>
      </trkpt>
      <trkpt lat="49.77339" lon="4.84096">
        <ele>200</ele>
        <time>2022-09-28T10:18:40.000Z</time>
      </trkpt>
      <trkpt lat="49.77335" lon="4.84096">
        <ele>200</ele>
        <time>2022-09-28T10:18:41.000Z</time>
      </trkpt>
      <trkpt lat="49.77331" lon="4.84094">
        <ele>200</ele>
        <time>2022-09-28T10:18:42.000Z</time>
      </trkpt>
      <trkpt lat="49.77326" lon="4.84093">
        <ele>201</ele>
        <time>2022-09-28T10:18:43.000Z</time>
      </trkpt>
      <trkpt lat="49.77322" lon="4.84091">
        <ele>201</ele>
        <time>2022-09-28T10:18:44.000Z</time>
      </trkpt>
      <trkpt lat="49.77317" lon="4.8409">
        <ele>201</ele>
        <time>2022-09-28T10:18:45.000Z</time>
      </trkpt>
      <trkpt lat="49.77313" lon="4.84089">
        <ele>201</ele>
        <time>2022-09-28T10:18:46.000Z</time>
      </trkpt>
      <trkpt lat="49.77309" lon="4.84088">
        <ele>201</ele>
        <time>2022-09-28T10:18:47.000Z</time>
      </trkpt>
      <trkpt lat="49.77305" lon="4.84087">
        <ele>201</ele>
        <time>2022-09-28T10:18:48.000Z</time>
      </trkpt>
      <trkpt lat="49.77302" lon="4.84086">
        <ele>201</ele>
        <time>2022-09-28T10:18:49.000Z</time>
      </trkpt>
      <trkpt lat="49.77298" lon="4.84085">
        <ele>200</ele>
        <time>2022-09-28T10:18:50.000Z</time>
      </trkpt>
      <trkpt lat="49.77293" lon="4.84083">
        <ele>200</ele>
        <time>2022-09-28T10:18:51.000Z</time>
      </trkpt>
      <trkpt lat="49.77289" lon="4.84081">
        <ele>200</ele>
        <time>2022-09-28T10:18:52.000Z</time>
      </trkpt>
      <trkpt lat="49.77284" lon="4.8408">
        <ele>200</ele>
        <time>2022-09-28T10:18:53.000Z</time>
      </trkpt>
      <trkpt lat="49.7728" lon="4.8408">
        <ele>200</ele>
        <time>2022-09-28T10:18:54.000Z</time>
      </trkpt>
      <trkpt lat="49.77275" lon="4.84079">
        <ele>200</ele>
        <time>2022-09-28T10:18:55.000Z</time>
      </trkpt>
      <trkpt lat="49.7727" lon="4.84077">
        <ele>200</ele>
        <time>2022-09-28T10:18:56.000Z</time>
      </trkpt>
      <trkpt lat="49.77265" lon="4.84076">
        <ele>200</ele>
        <time>2022-09-28T10:18:57.000Z</time>
      </trkpt>
      <trkpt lat="49.7726" lon="4.84076">
        <ele>200</ele>
        <time>2022-09-28T10:18:58.000Z</time>
      </trkpt>
      <trkpt lat="49.77255" lon="4.84075">
        <ele>200</ele>
        <time>2022-09-28T10:18:59.000Z</time>
      </trkpt>
      <trkpt lat="49.77249" lon="4.84073">
        <ele>200</ele>
        <time>2022-09-28T10:19:00.000Z</time>
      </trkpt>
      <trkpt lat="49.77243" lon="4.84072">
        <ele>199</ele>
        <time>2022-09-28T10:19:01.000Z</time>
      </trkpt>
      <trkpt lat="49.77238" lon="4.84071">
        <ele>199</ele>
        <time>2022-09-28T10:19:02.000Z</time>
      </trkpt>
      <trkpt lat="49.77232" lon="4.84069">
        <ele>199</ele>
        <time>2022-09-28T10:19:03.000Z</time>
      </trkpt>
      <trkpt lat="49.77226" lon="4.84068">
        <ele>199</ele>
        <time>2022-09-28T10:19:04.000Z</time>
      </trkpt>
      <trkpt lat="49.77221" lon="4.84066">
        <ele>199</ele>
        <time>2022-09-28T10:19:05.000Z</time>
      </trkpt>
      <trkpt lat="49.77215" lon="4.84063">
        <ele>199</ele>
        <time>2022-09-28T10:19:06.000Z</time>
      </trkpt>
      <trkpt lat="49.7721" lon="4.8406">
        <ele>199</ele>
        <time>2022-09-28T10:19:07.000Z</time>
      </trkpt>
      <trkpt lat="49.77205" lon="4.84058">
        <ele>199</ele>
        <time>2022-09-28T10:19:08.000Z</time>
      </trkpt>
      <trkpt lat="49.772" lon="4.84055">
        <ele>199</ele>
        <time>2022-09-28T10:19:09.000Z</time>
      </trkpt>
      <trkpt lat="49.77196" lon="4.84053">
        <ele>198</ele>
        <time>2022-09-28T10:19:10.000Z</time>
      </trkpt>
      <trkpt lat="49.77191" lon="4.84051">
        <ele>198</ele>
        <time>2022-09-28T10:19:11.000Z</time>
      </trkpt>
      <trkpt lat="49.77187" lon="4.84049">
        <ele>198</ele>
        <time>2022-09-28T10:19:12.000Z</time>
      </trkpt>
      <trkpt lat="49.77182" lon="4.84048">
        <ele>198</ele>
        <time>2022-09-28T10:19:13.000Z</time>
      </trkpt>
      <trkpt lat="49.77176" lon="4.84047">
        <ele>198</ele>
        <time>2022-09-28T10:19:14.000Z</time>
      </trkpt>
      <trkpt lat="49.77171" lon="4.84047">
        <ele>198</ele>
        <time>2022-09-28T10:19:15.000Z</time>
      </trkpt>
      <trkpt lat="49.77165" lon="4.84046">
        <ele>198</ele>
        <time>2022-09-28T10:19:16.000Z</time>
      </trkpt>
      <trkpt lat="49.77159" lon="4.84045">
        <ele>198</ele>
        <time>2022-09-28T10:19:17.000Z</time>
      </trkpt>
      <trkpt lat="49.77153" lon="4.84044">
        <ele>197</ele>
        <time>2022-09-28T10:19:18.000Z</time>
      </trkpt>
      <trkpt lat="49.77148" lon="4.84042">
        <ele>197</ele>
        <time>2022-09-28T10:19:19.000Z</time>
      </trkpt>
      <trkpt lat="49.77143" lon="4.84041">
        <ele>197</ele>
        <time>2022-09-28T10:19:20.000Z</time>
      </trkpt>
      <trkpt lat="49.77137" lon="4.84039">
        <ele>197</ele>
        <time>2022-09-28T10:19:21.000Z</time>
      </trkpt>
      <trkpt lat="49.77132" lon="4.84038">
        <ele>197</ele>
        <time>2022-09-28T10:19:22.000Z</time>
      </trkpt>
      <trkpt lat="49.77126" lon="4.84036">
        <ele>197</ele>
        <time>2022-09-28T10:19:23.000Z</time>
      </trkpt>
      <trkpt lat="49.77121" lon="4.84035">
        <ele>196</ele>
        <time>2022-09-28T10:19:24.000Z</time>
      </trkpt>
      <trkpt lat="49.77116" lon="4.84033">
        <ele>196</ele>
        <time>2022-09-28T10:19:25.000Z</time>
      </trkpt>
      <trkpt lat="49.77111" lon="4.84031">
        <ele>196</ele>
        <time>2022-09-28T10:19:26.000Z</time>
      </trkpt>
      <trkpt lat="49.77105" lon="4.8403">
        <ele>196</ele>
        <time>2022-09-28T10:19:27.000Z</time>
      </trkpt>
      <trkpt lat="49.771" lon="4.84028">
        <ele>195</ele>
        <time>2022-09-28T10:19:28.000Z</time>
      </trkpt>
      <trkpt lat="49.77094" lon="4.84026">
        <ele>195</ele>
        <time>2022-09-28T10:19:29.000Z</time>
      </trkpt>
      <trkpt lat="49.77089" lon="4.84025">
        <ele>195</ele>
        <time>2022-09-28T10:19:30.000Z</time>
      </trkpt>
      <trkpt lat="49.77084" lon="4.84022">
        <ele>195</ele>
        <time>2022-09-28T10:19:31.000Z</time>
      </trkpt>
      <trkpt lat="49.77078" lon="4.8402">
        <ele>194</ele>
        <time>2022-09-28T10:19:32.000Z</time>
      </trkpt>
      <trkpt lat="49.77073" lon="4.84019">
        <ele>194</ele>
        <time>2022-09-28T10:19:33.000Z</time>
      </trkpt>
      <trkpt lat="49.77067" lon="4.84018">
        <ele>194</ele>
        <time>2022-09-28T10:19:34.000Z</time>
      </trkpt>
      <trkpt lat="49.77062" lon="4.84016">
        <ele>194</ele>
        <time>2022-09-28T10:19:35.000Z</time>
      </trkpt>
      <trkpt lat="49.77057" lon="4.84012">
        <ele>193</ele>
        <time>2022-09-28T10:19:36.000Z</time>
      </trkpt>
      <trkpt lat="49.77052" lon="4.84009">
        <ele>193</ele>
        <time>2022-09-28T10:19:37.000Z</time>
      </trkpt>
      <trkpt lat="49.77047" lon="4.84007">
        <ele>193</ele>
        <time>2022-09-28T10:19:38.000Z</time>
      </trkpt>
      <trkpt lat="49.77042" lon="4.84004">
        <ele>193</ele>
        <time>2022-09-28T10:19:39.000Z</time>
      </trkpt>
      <trkpt lat="49.77037" lon="4.84001">
        <ele>193</ele>
        <time>2022-09-28T10:19:40.000Z</time>
      </trkpt>
      <trkpt lat="49.77032" lon="4.83999">
        <ele>193</ele>
        <time>2022-09-28T10:19:41.000Z</time>
      </trkpt>
      <trkpt lat="49.77026" lon="4.83997">
        <ele>193</ele>
        <time>2022-09-28T10:19:42.000Z</time>
      </trkpt>
      <trkpt lat="49.77021" lon="4.83993">
        <ele>193</ele>
        <time>2022-09-28T10:19:43.000Z</time>
      </trkpt>
      <trkpt lat="49.77017" lon="4.83991">
        <ele>192</ele>
        <time>2022-09-28T10:19:44.000Z</time>
      </trkpt>
      <trkpt lat="49.77012" lon="4.83988">
        <ele>192</ele>
        <time>2022-09-28T10:19:45.000Z</time>
      </trkpt>
      <trkpt lat="49.77008" lon="4.83985">
        <ele>192</ele>
        <time>2022-09-28T10:19:46.000Z</time>
      </trkpt>
      <trkpt lat="49.77004" lon="4.83982">
        <ele>192</ele>
        <time>2022-09-28T10:19:47.000Z</time>
      </trkpt>
      <trkpt lat="49.76999" lon="4.83979">
        <ele>192</ele>
        <time>2022-09-28T10:19:48.000Z</time>
      </trkpt>
      <trkpt lat="49.76994" lon="4.83976">
        <ele>192</ele>
        <time>2022-09-28T10:19:49.000Z</time>
      </trkpt>
      <trkpt lat="49.76989" lon="4.83973">
        <ele>192</ele>
        <time>2022-09-28T10:19:50.000Z</time>
      </trkpt>
      <trkpt lat="49.76984" lon="4.8397">
        <ele>192</ele>
        <time>2022-09-28T10:19:51.000Z</time>
      </trkpt>
      <trkpt lat="49.76979" lon="4.83967">
        <ele>191</ele>
        <time>2022-09-28T10:19:52.000Z</time>
      </trkpt>
      <trkpt lat="49.76974" lon="4.83964">
        <ele>191</ele>
        <time>2022-09-28T10:19:53.000Z</time>
      </trkpt>
      <trkpt lat="49.7697" lon="4.83961">
        <ele>191</ele>
        <time>2022-09-28T10:19:54.000Z</time>
      </trkpt>
      <trkpt lat="49.76965" lon="4.83959">
        <ele>191</ele>
        <time>2022-09-28T10:19:55.000Z</time>
      </trkpt>
      <trkpt lat="49.7696" lon="4.83958">
        <ele>191</ele>
        <time>2022-09-28T10:19:56.000Z</time>
      </trkpt>
      <trkpt lat="49.76955" lon="4.83957">
        <ele>191</ele>
        <time>2022-09-28T10:19:57.000Z</time>
      </trkpt>
      <trkpt lat="49.76949" lon="4.83954">
        <ele>191</ele>
        <time>2022-09-28T10:19:58.000Z</time>
      </trkpt>
      <trkpt lat="49.76944" lon="4.83952">
        <ele>191</ele>
        <time>2022-09-28T10:19:59.000Z</time>
      </trkpt>
      <trkpt lat="49.76938" lon="4.8395">
        <ele>190</ele>
        <time>2022-09-28T10:20:00.000Z</time>
      </trkpt>
      <trkpt lat="49.76933" lon="4.83949">
        <ele>190</ele>
        <time>2022-09-28T10:20:01.000Z</time>
      </trkpt>
      <trkpt lat="49.76927" lon="4.83947">
        <ele>190</ele>
        <time>2022-09-28T10:20:02.000Z</time>
      </trkpt>
      <trkpt lat="49.76922" lon="4.83946">
        <ele>190</ele>
        <time>2022-09-28T10:20:03.000Z</time>
      </trkpt>
      <trkpt lat="49.76916" lon="4.83945">
        <ele>190</ele>
        <time>2022-09-28T10:20:04.000Z</time>
      </trkpt>
      <trkpt lat="49.76911" lon="4.83945">
        <ele>190</ele>
        <time>2022-09-28T10:20:05.000Z</time>
      </trkpt>
      <trkpt lat="49.76905" lon="4.83944">
        <ele>190</ele>
        <time>2022-09-28T10:20:06.000Z</time>
      </trkpt>
      <trkpt lat="49.769" lon="4.83943">
        <ele>190</ele>
        <time>2022-09-28T10:20:07.000Z</time>
      </trkpt>
      <trkpt lat="49.76895" lon="4.83943">
        <ele>190</ele>
        <time>2022-09-28T10:20:08.000Z</time>
      </trkpt>
      <trkpt lat="49.7689" lon="4.83941">
        <ele>190</ele>
        <time>2022-09-28T10:20:09.000Z</time>
      </trkpt>
      <trkpt lat="49.76884" lon="4.8394">
        <ele>190</ele>
        <time>2022-09-28T10:20:10.000Z</time>
      </trkpt>
      <trkpt lat="49.76878" lon="4.83939">
        <ele>189</ele>
        <time>2022-09-28T10:20:11.000Z</time>
      </trkpt>
      <trkpt lat="49.76872" lon="4.83939">
        <ele>189</ele>
        <time>2022-09-28T10:20:12.000Z</time>
      </trkpt>
      <trkpt lat="49.76866" lon="4.83941">
        <ele>189</ele>
        <time>2022-09-28T10:20:13.000Z</time>
      </trkpt>
      <trkpt lat="49.7686" lon="4.83941">
        <ele>189</ele>
        <time>2022-09-28T10:20:14.000Z</time>
      </trkpt>
      <trkpt lat="49.76854" lon="4.8394">
        <ele>189</ele>
        <time>2022-09-28T10:20:15.000Z</time>
      </trkpt>
      <trkpt lat="49.76849" lon="4.8394">
        <ele>189</ele>
        <time>2022-09-28T10:20:16.000Z</time>
      </trkpt>
      <trkpt lat="49.76843" lon="4.83938">
        <ele>189</ele>
        <time>2022-09-28T10:20:17.000Z</time>
      </trkpt>
      <trkpt lat="49.76837" lon="4.83936">
        <ele>189</ele>
        <time>2022-09-28T10:20:18.000Z</time>
      </trkpt>
      <trkpt lat="49.76831" lon="4.83934">
        <ele>188</ele>
        <time>2022-09-28T10:20:19.000Z</time>
      </trkpt>
      <trkpt lat="49.76825" lon="4.83934">
        <ele>188</ele>
        <time>2022-09-28T10:20:20.000Z</time>
      </trkpt>
      <trkpt lat="49.76819" lon="4.83933">
        <ele>188</ele>
        <time>2022-09-28T10:20:21.000Z</time>
      </trkpt>
      <trkpt lat="49.76814" lon="4.83933">
        <ele>188</ele>
        <time>2022-09-28T10:20:22.000Z</time>
      </trkpt>
      <trkpt lat="49.76808" lon="4.83932">
        <ele>188</ele>
        <time>2022-09-28T10:20:23.000Z</time>
      </trkpt>
      <trkpt lat="49.76802" lon="4.83932">
        <ele>188</ele>
        <time>2022-09-28T10:20:24.000Z</time>
      </trkpt>
      <trkpt lat="49.76797" lon="4.83931">
        <ele>188</ele>
        <time>2022-09-28T10:20:25.000Z</time>
      </trkpt>
      <trkpt lat="49.76791" lon="4.83931">
        <ele>188</ele>
        <time>2022-09-28T10:20:26.000Z</time>
      </trkpt>
      <trkpt lat="49.76785" lon="4.83931">
        <ele>188</ele>
        <time>2022-09-28T10:20:27.000Z</time>
      </trkpt>
      <trkpt lat="49.76779" lon="4.83931">
        <ele>188</ele>
        <time>2022-09-28T10:20:28.000Z</time>
      </trkpt>
      <trkpt lat="49.76773" lon="4.83931">
        <ele>188</ele>
        <time>2022-09-28T10:20:29.000Z</time>
      </trkpt>
      <trkpt lat="49.76767" lon="4.83931">
        <ele>188</ele>
        <time>2022-09-28T10:20:30.000Z</time>
      </trkpt>
      <trkpt lat="49.7676" lon="4.83931">
        <ele>188</ele>
        <time>2022-09-28T10:20:31.000Z</time>
      </trkpt>
      <trkpt lat="49.76754" lon="4.83931">
        <ele>188</ele>
        <time>2022-09-28T10:20:32.000Z</time>
      </trkpt>
      <trkpt lat="49.76748" lon="4.83931">
        <ele>188</ele>
        <time>2022-09-28T10:20:33.000Z</time>
      </trkpt>
      <trkpt lat="49.76742" lon="4.83931">
        <ele>188</ele>
        <time>2022-09-28T10:20:34.000Z</time>
      </trkpt>
      <trkpt lat="49.76736" lon="4.83931">
        <ele>188</ele>
        <time>2022-09-28T10:20:35.000Z</time>
      </trkpt>
      <trkpt lat="49.7673" lon="4.83932">
        <ele>188</ele>
        <time>2022-09-28T10:20:36.000Z</time>
      </trkpt>
      <trkpt lat="49.76724" lon="4.83934">
        <ele>188</ele>
        <time>2022-09-28T10:20:37.000Z</time>
      </trkpt>
      <trkpt lat="49.76718" lon="4.83935">
        <ele>188</ele>
        <time>2022-09-28T10:20:38.000Z</time>
      </trkpt>
      <trkpt lat="49.76712" lon="4.83937">
        <ele>188</ele>
        <time>2022-09-28T10:20:39.000Z</time>
      </trkpt>
      <trkpt lat="49.76706" lon="4.83939">
        <ele>188</ele>
        <time>2022-09-28T10:20:40.000Z</time>
      </trkpt>
      <trkpt lat="49.767" lon="4.83941">
        <ele>188</ele>
        <time>2022-09-28T10:20:41.000Z</time>
      </trkpt>
      <trkpt lat="49.76695" lon="4.83943">
        <ele>188</ele>
        <time>2022-09-28T10:20:42.000Z</time>
      </trkpt>
      <trkpt lat="49.76689" lon="4.83946">
        <ele>188</ele>
        <time>2022-09-28T10:20:43.000Z</time>
      </trkpt>
      <trkpt lat="49.76684" lon="4.83948">
        <ele>188</ele>
        <time>2022-09-28T10:20:44.000Z</time>
      </trkpt>
      <trkpt lat="49.76678" lon="4.8395">
        <ele>188</ele>
        <time>2022-09-28T10:20:45.000Z</time>
      </trkpt>
      <trkpt lat="49.76672" lon="4.83953">
        <ele>187</ele>
        <time>2022-09-28T10:20:46.000Z</time>
      </trkpt>
      <trkpt lat="49.76667" lon="4.83955">
        <ele>187</ele>
        <time>2022-09-28T10:20:47.000Z</time>
      </trkpt>
      <trkpt lat="49.76662" lon="4.83958">
        <ele>187</ele>
        <time>2022-09-28T10:20:48.000Z</time>
      </trkpt>
      <trkpt lat="49.76656" lon="4.83961">
        <ele>187</ele>
        <time>2022-09-28T10:20:49.000Z</time>
      </trkpt>
      <trkpt lat="49.7665" lon="4.83964">
        <ele>187</ele>
        <time>2022-09-28T10:20:50.000Z</time>
      </trkpt>
      <trkpt lat="49.76644" lon="4.83967">
        <ele>186</ele>
        <time>2022-09-28T10:20:51.000Z</time>
      </trkpt>
      <trkpt lat="49.76638" lon="4.8397">
        <ele>186</ele>
        <time>2022-09-28T10:20:52.000Z</time>
      </trkpt>
      <trkpt lat="49.76632" lon="4.83973">
        <ele>186</ele>
        <time>2022-09-28T10:20:53.000Z</time>
      </trkpt>
      <trkpt lat="49.76626" lon="4.83976">
        <ele>186</ele>
        <time>2022-09-28T10:20:54.000Z</time>
      </trkpt>
      <trkpt lat="49.7662" lon="4.83979">
        <ele>185</ele>
        <time>2022-09-28T10:20:55.000Z</time>
      </trkpt>
      <trkpt lat="49.76614" lon="4.83982">
        <ele>185</ele>
        <time>2022-09-28T10:20:56.000Z</time>
      </trkpt>
      <trkpt lat="49.76608" lon="4.83984">
        <ele>185</ele>
        <time>2022-09-28T10:20:57.000Z</time>
      </trkpt>
      <trkpt lat="49.76602" lon="4.83986">
        <ele>184</ele>
        <time>2022-09-28T10:20:58.000Z</time>
      </trkpt>
      <trkpt lat="49.76596" lon="4.83987">
        <ele>184</ele>
        <time>2022-09-28T10:20:59.000Z</time>
      </trkpt>
      <trkpt lat="49.7659" lon="4.83988">
        <ele>184</ele>
        <time>2022-09-28T10:21:00.000Z</time>
      </trkpt>
      <trkpt lat="49.76585" lon="4.83989">
        <ele>183</ele>
        <time>2022-09-28T10:21:01.000Z</time>
      </trkpt>
      <trkpt lat="49.76579" lon="4.8399">
        <ele>183</ele>
        <time>2022-09-28T10:21:02.000Z</time>
      </trkpt>
      <trkpt lat="49.76573" lon="4.8399">
        <ele>183</ele>
        <time>2022-09-28T10:21:03.000Z</time>
      </trkpt>
      <trkpt lat="49.76567" lon="4.8399">
        <ele>183</ele>
        <time>2022-09-28T10:21:04.000Z</time>
      </trkpt>
      <trkpt lat="49.76562" lon="4.83989">
        <ele>182</ele>
        <time>2022-09-28T10:21:05.000Z</time>
      </trkpt>
      <trkpt lat="49.76556" lon="4.83989">
        <ele>182</ele>
        <time>2022-09-28T10:21:06.000Z</time>
      </trkpt>
      <trkpt lat="49.76551" lon="4.83989">
        <ele>182</ele>
        <time>2022-09-28T10:21:07.000Z</time>
      </trkpt>
      <trkpt lat="49.76545" lon="4.83989">
        <ele>182</ele>
        <time>2022-09-28T10:21:08.000Z</time>
      </trkpt>
      <trkpt lat="49.7654" lon="4.83988">
        <ele>181</ele>
        <time>2022-09-28T10:21:09.000Z</time>
      </trkpt>
      <trkpt lat="49.76534" lon="4.83987">
        <ele>181</ele>
        <time>2022-09-28T10:21:10.000Z</time>
      </trkpt>
      <trkpt lat="49.76529" lon="4.83987">
        <ele>181</ele>
        <time>2022-09-28T10:21:11.000Z</time>
      </trkpt>
      <trkpt lat="49.76523" lon="4.83986">
        <ele>181</ele>
        <time>2022-09-28T10:21:12.000Z</time>
      </trkpt>
      <trkpt lat="49.76518" lon="4.83985">
        <ele>180</ele>
        <time>2022-09-28T10:21:13.000Z</time>
      </trkpt>
      <trkpt lat="49.76512" lon="4.83985">
        <ele>180</ele>
        <time>2022-09-28T10:21:14.000Z</time>
      </trkpt>
      <trkpt lat="49.76507" lon="4.83984">
        <ele>180</ele>
        <time>2022-09-28T10:21:15.000Z</time>
      </trkpt>
      <trkpt lat="49.76501" lon="4.83985">
        <ele>180</ele>
        <time>2022-09-28T10:21:16.000Z</time>
      </trkpt>
      <trkpt lat="49.76495" lon="4.83985">
        <ele>180</ele>
        <time>2022-09-28T10:21:17.000Z</time>
      </trkpt>
      <trkpt lat="49.7649" lon="4.83986">
        <ele>180</ele>
        <time>2022-09-28T10:21:18.000Z</time>
      </trkpt>
      <trkpt lat="49.76484" lon="4.83985">
        <ele>180</ele>
        <time>2022-09-28T10:21:19.000Z</time>
      </trkpt>
      <trkpt lat="49.76479" lon="4.83984">
        <ele>180</ele>
        <time>2022-09-28T10:21:20.000Z</time>
      </trkpt>
      <trkpt lat="49.76473" lon="4.83984">
        <ele>180</ele>
        <time>2022-09-28T10:21:21.000Z</time>
      </trkpt>
      <trkpt lat="49.76467" lon="4.83983">
        <ele>179</ele>
        <time>2022-09-28T10:21:22.000Z</time>
      </trkpt>
      <trkpt lat="49.76462" lon="4.83983">
        <ele>179</ele>
        <time>2022-09-28T10:21:23.000Z</time>
      </trkpt>
      <trkpt lat="49.76456" lon="4.83982">
        <ele>179</ele>
        <time>2022-09-28T10:21:24.000Z</time>
      </trkpt>
      <trkpt lat="49.76451" lon="4.83981">
        <ele>179</ele>
        <time>2022-09-28T10:21:25.000Z</time>
      </trkpt>
      <trkpt lat="49.76445" lon="4.8398">
        <ele>179</ele>
        <time>2022-09-28T10:21:26.000Z</time>
      </trkpt>
      <trkpt lat="49.76439" lon="4.8398">
        <ele>179</ele>
        <time>2022-09-28T10:21:27.000Z</time>
      </trkpt>
      <trkpt lat="49.76434" lon="4.8398">
        <ele>179</ele>
        <time>2022-09-28T10:21:28.000Z</time>
      </trkpt>
      <trkpt lat="49.76428" lon="4.8398">
        <ele>179</ele>
        <time>2022-09-28T10:21:29.000Z</time>
      </trkpt>
      <trkpt lat="49.76422" lon="4.83979">
        <ele>179</ele>
        <time>2022-09-28T10:21:30.000Z</time>
      </trkpt>
      <trkpt lat="49.76417" lon="4.83978">
        <ele>179</ele>
        <time>2022-09-28T10:21:31.000Z</time>
      </trkpt>
      <trkpt lat="49.76411" lon="4.83978">
        <ele>178</ele>
        <time>2022-09-28T10:21:32.000Z</time>
      </trkpt>
      <trkpt lat="49.76405" lon="4.83977">
        <ele>178</ele>
        <time>2022-09-28T10:21:33.000Z</time>
      </trkpt>
      <trkpt lat="49.76399" lon="4.83977">
        <ele>178</ele>
        <time>2022-09-28T10:21:34.000Z</time>
      </trkpt>
      <trkpt lat="49.76394" lon="4.83976">
        <ele>178</ele>
        <time>2022-09-28T10:21:35.000Z</time>
      </trkpt>
      <trkpt lat="49.76388" lon="4.83976">
        <ele>178</ele>
        <time>2022-09-28T10:21:36.000Z</time>
      </trkpt>
      <trkpt lat="49.76383" lon="4.83975">
        <ele>178</ele>
        <time>2022-09-28T10:21:37.000Z</time>
      </trkpt>
      <trkpt lat="49.76377" lon="4.83975">
        <ele>178</ele>
        <time>2022-09-28T10:21:38.000Z</time>
      </trkpt>
      <trkpt lat="49.76371" lon="4.83975">
        <ele>178</ele>
        <time>2022-09-28T10:21:39.000Z</time>
      </trkpt>
      <trkpt lat="49.76365" lon="4.83975">
        <ele>178</ele>
        <time>2022-09-28T10:21:40.000Z</time>
      </trkpt>
      <trkpt lat="49.76359" lon="4.83974">
        <ele>178</ele>
        <time>2022-09-28T10:21:41.000Z</time>
      </trkpt>
      <trkpt lat="49.76353" lon="4.83974">
        <ele>177</ele>
        <time>2022-09-28T10:21:42.000Z</time>
      </trkpt>
      <trkpt lat="49.76347" lon="4.83973">
        <ele>177</ele>
        <time>2022-09-28T10:21:43.000Z</time>
      </trkpt>
      <trkpt lat="49.76341" lon="4.83972">
        <ele>177</ele>
        <time>2022-09-28T10:21:44.000Z</time>
      </trkpt>
      <trkpt lat="49.76336" lon="4.83971">
        <ele>177</ele>
        <time>2022-09-28T10:21:45.000Z</time>
      </trkpt>
      <trkpt lat="49.7633" lon="4.8397">
        <ele>177</ele>
        <time>2022-09-28T10:21:46.000Z</time>
      </trkpt>
      <trkpt lat="49.76324" lon="4.83968">
        <ele>177</ele>
        <time>2022-09-28T10:21:47.000Z</time>
      </trkpt>
      <trkpt lat="49.76318" lon="4.83966">
        <ele>177</ele>
        <time>2022-09-28T10:21:48.000Z</time>
      </trkpt>
      <trkpt lat="49.76313" lon="4.83964">
        <ele>177</ele>
        <time>2022-09-28T10:21:49.000Z</time>
      </trkpt>
      <trkpt lat="49.76308" lon="4.8396">
        <ele>177</ele>
        <time>2022-09-28T10:21:50.000Z</time>
      </trkpt>
      <trkpt lat="49.76303" lon="4.83956">
        <ele>177</ele>
        <time>2022-09-28T10:21:51.000Z</time>
      </trkpt>
      <trkpt lat="49.76298" lon="4.83952">
        <ele>177</ele>
        <time>2022-09-28T10:21:52.000Z</time>
      </trkpt>
      <trkpt lat="49.76293" lon="4.83948">
        <ele>177</ele>
        <time>2022-09-28T10:21:53.000Z</time>
      </trkpt>
      <trkpt lat="49.76288" lon="4.83943">
        <ele>177</ele>
        <time>2022-09-28T10:21:54.000Z</time>
      </trkpt>
      <trkpt lat="49.76284" lon="4.83938">
        <ele>177</ele>
        <time>2022-09-28T10:21:55.000Z</time>
      </trkpt>
      <trkpt lat="49.76279" lon="4.83933">
        <ele>177</ele>
        <time>2022-09-28T10:21:56.000Z</time>
      </trkpt>
      <trkpt lat="49.76275" lon="4.83927">
        <ele>177</ele>
        <time>2022-09-28T10:21:57.000Z</time>
      </trkpt>
      <trkpt lat="49.76272" lon="4.83921">
        <ele>177</ele>
        <time>2022-09-28T10:21:58.000Z</time>
      </trkpt>
      <trkpt lat="49.76269" lon="4.83914">
        <ele>177</ele>
        <time>2022-09-28T10:21:59.000Z</time>
      </trkpt>
      <trkpt lat="49.76266" lon="4.83906">
        <ele>176</ele>
        <time>2022-09-28T10:22:00.000Z</time>
      </trkpt>
      <trkpt lat="49.76265" lon="4.83898">
        <ele>176</ele>
        <time>2022-09-28T10:22:01.000Z</time>
      </trkpt>
      <trkpt lat="49.76264" lon="4.8389">
        <ele>176</ele>
        <time>2022-09-28T10:22:02.000Z</time>
      </trkpt>
      <trkpt lat="49.76264" lon="4.83881">
        <ele>176</ele>
        <time>2022-09-28T10:22:03.000Z</time>
      </trkpt>
      <trkpt lat="49.76265" lon="4.83873">
        <ele>176</ele>
        <time>2022-09-28T10:22:04.000Z</time>
      </trkpt>
      <trkpt lat="49.76266" lon="4.83865">
        <ele>176</ele>
        <time>2022-09-28T10:22:05.000Z</time>
      </trkpt>
      <trkpt lat="49.76267" lon="4.83857">
        <ele>176</ele>
        <time>2022-09-28T10:22:06.000Z</time>
      </trkpt>
      <trkpt lat="49.76269" lon="4.83848">
        <ele>176</ele>
        <time>2022-09-28T10:22:07.000Z</time>
      </trkpt>
      <trkpt lat="49.7627" lon="4.83841">
        <ele>176</ele>
        <time>2022-09-28T10:22:08.000Z</time>
      </trkpt>
      <trkpt lat="49.76272" lon="4.83833">
        <ele>176</ele>
        <time>2022-09-28T10:22:09.000Z</time>
      </trkpt>
      <trkpt lat="49.76275" lon="4.83825">
        <ele>176</ele>
        <time>2022-09-28T10:22:10.000Z</time>
      </trkpt>
      <trkpt lat="49.76277" lon="4.83818">
        <ele>176</ele>
        <time>2022-09-28T10:22:11.000Z</time>
      </trkpt>
      <trkpt lat="49.7628" lon="4.8381">
        <ele>176</ele>
        <time>2022-09-28T10:22:12.000Z</time>
      </trkpt>
      <trkpt lat="49.76282" lon="4.83802">
        <ele>176</ele>
        <time>2022-09-28T10:22:13.000Z</time>
      </trkpt>
      <trkpt lat="49.76284" lon="4.83794">
        <ele>176</ele>
        <time>2022-09-28T10:22:14.000Z</time>
      </trkpt>
      <trkpt lat="49.76287" lon="4.83786">
        <ele>176</ele>
        <time>2022-09-28T10:22:15.000Z</time>
      </trkpt>
      <trkpt lat="49.76289" lon="4.83778">
        <ele>177</ele>
        <time>2022-09-28T10:22:16.000Z</time>
      </trkpt>
      <trkpt lat="49.76292" lon="4.8377">
        <ele>177</ele>
        <time>2022-09-28T10:22:17.000Z</time>
      </trkpt>
      <trkpt lat="49.76295" lon="4.83763">
        <ele>177</ele>
        <time>2022-09-28T10:22:18.000Z</time>
      </trkpt>
      <trkpt lat="49.76297" lon="4.83755">
        <ele>177</ele>
        <time>2022-09-28T10:22:19.000Z</time>
      </trkpt>
      <trkpt lat="49.76299" lon="4.83747">
        <ele>177</ele>
        <time>2022-09-28T10:22:20.000Z</time>
      </trkpt>
      <trkpt lat="49.76302" lon="4.83739">
        <ele>177</ele>
        <time>2022-09-28T10:22:21.000Z</time>
      </trkpt>
      <trkpt lat="49.76305" lon="4.83732">
        <ele>177</ele>
        <time>2022-09-28T10:22:22.000Z</time>
      </trkpt>
      <trkpt lat="49.76307" lon="4.83724">
        <ele>177</ele>
        <time>2022-09-28T10:22:23.000Z</time>
      </trkpt>
      <trkpt lat="49.7631" lon="4.83716">
        <ele>177</ele>
        <time>2022-09-28T10:22:24.000Z</time>
      </trkpt>
      <trkpt lat="49.76312" lon="4.83708">
        <ele>177</ele>
        <time>2022-09-28T10:22:25.000Z</time>
      </trkpt>
      <trkpt lat="49.76315" lon="4.83701">
        <ele>177</ele>
        <time>2022-09-28T10:22:26.000Z</time>
      </trkpt>
      <trkpt lat="49.76317" lon="4.83693">
        <ele>177</ele>
        <time>2022-09-28T10:22:27.000Z</time>
      </trkpt>
      <trkpt lat="49.76319" lon="4.83686">
        <ele>177</ele>
        <time>2022-09-28T10:22:28.000Z</time>
      </trkpt>
      <trkpt lat="49.76322" lon="4.83678">
        <ele>177</ele>
        <time>2022-09-28T10:22:29.000Z</time>
      </trkpt>
      <trkpt lat="49.76324" lon="4.83671">
        <ele>177</ele>
        <time>2022-09-28T10:22:30.000Z</time>
      </trkpt>
      <trkpt lat="49.76326" lon="4.83663">
        <ele>177</ele>
        <time>2022-09-28T10:22:31.000Z</time>
      </trkpt>
      <trkpt lat="49.76328" lon="4.83657">
        <ele>178</ele>
        <time>2022-09-28T10:22:32.000Z</time>
      </trkpt>
      <trkpt lat="49.7633" lon="4.83649">
        <ele>178</ele>
        <time>2022-09-28T10:22:33.000Z</time>
      </trkpt>
      <trkpt lat="49.76333" lon="4.83642">
        <ele>178</ele>
        <time>2022-09-28T10:22:34.000Z</time>
      </trkpt>
      <trkpt lat="49.76335" lon="4.83635">
        <ele>178</ele>
        <time>2022-09-28T10:22:35.000Z</time>
      </trkpt>
      <trkpt lat="49.76337" lon="4.83628">
        <ele>178</ele>
        <time>2022-09-28T10:22:36.000Z</time>
      </trkpt>
      <trkpt lat="49.76339" lon="4.83621">
        <ele>178</ele>
        <time>2022-09-28T10:22:37.000Z</time>
      </trkpt>
      <trkpt lat="49.76341" lon="4.83614">
        <ele>178</ele>
        <time>2022-09-28T10:22:38.000Z</time>
      </trkpt>
      <trkpt lat="49.76343" lon="4.83607">
        <ele>178</ele>
        <time>2022-09-28T10:22:39.000Z</time>
      </trkpt>
      <trkpt lat="49.76345" lon="4.836">
        <ele>178</ele>
        <time>2022-09-28T10:22:40.000Z</time>
      </trkpt>
      <trkpt lat="49.76347" lon="4.83593">
        <ele>178</ele>
        <time>2022-09-28T10:22:41.000Z</time>
      </trkpt>
      <trkpt lat="49.76349" lon="4.83586">
        <ele>178</ele>
        <time>2022-09-28T10:22:42.000Z</time>
      </trkpt>
      <trkpt lat="49.76351" lon="4.83578">
        <ele>178</ele>
        <time>2022-09-28T10:22:43.000Z</time>
      </trkpt>
      <trkpt lat="49.76353" lon="4.83571">
        <ele>178</ele>
        <time>2022-09-28T10:22:44.000Z</time>
      </trkpt>
      <trkpt lat="49.76355" lon="4.83564">
        <ele>179</ele>
        <time>2022-09-28T10:22:45.000Z</time>
      </trkpt>
      <trkpt lat="49.76357" lon="4.83556">
        <ele>179</ele>
        <time>2022-09-28T10:22:46.000Z</time>
      </trkpt>
      <trkpt lat="49.76358" lon="4.83549">
        <ele>179</ele>
        <time>2022-09-28T10:22:47.000Z</time>
      </trkpt>
      <trkpt lat="49.7636" lon="4.83542">
        <ele>179</ele>
        <time>2022-09-28T10:22:48.000Z</time>
      </trkpt>
      <trkpt lat="49.76362" lon="4.83535">
        <ele>179</ele>
        <time>2022-09-28T10:22:49.000Z</time>
      </trkpt>
      <trkpt lat="49.76363" lon="4.83528">
        <ele>179</ele>
        <time>2022-09-28T10:22:50.000Z</time>
      </trkpt>
      <trkpt lat="49.76364" lon="4.83521">
        <ele>179</ele>
        <time>2022-09-28T10:22:51.000Z</time>
      </trkpt>
      <trkpt lat="49.76366" lon="4.83514">
        <ele>179</ele>
        <time>2022-09-28T10:22:52.000Z</time>
      </trkpt>
      <trkpt lat="49.76368" lon="4.83507">
        <ele>179</ele>
        <time>2022-09-28T10:22:53.000Z</time>
      </trkpt>
      <trkpt lat="49.76369" lon="4.835">
        <ele>179</ele>
        <time>2022-09-28T10:22:54.000Z</time>
      </trkpt>
      <trkpt lat="49.7637" lon="4.83493">
        <ele>179</ele>
        <time>2022-09-28T10:22:55.000Z</time>
      </trkpt>
      <trkpt lat="49.76372" lon="4.83486">
        <ele>180</ele>
        <time>2022-09-28T10:22:56.000Z</time>
      </trkpt>
      <trkpt lat="49.76373" lon="4.83479">
        <ele>180</ele>
        <time>2022-09-28T10:22:57.000Z</time>
      </trkpt>
      <trkpt lat="49.76374" lon="4.83472">
        <ele>180</ele>
        <time>2022-09-28T10:22:58.000Z</time>
      </trkpt>
      <trkpt lat="49.76375" lon="4.83465">
        <ele>180</ele>
        <time>2022-09-28T10:22:59.000Z</time>
      </trkpt>
      <trkpt lat="49.76376" lon="4.83458">
        <ele>180</ele>
        <time>2022-09-28T10:23:00.000Z</time>
      </trkpt>
      <trkpt lat="49.76377" lon="4.83452">
        <ele>180</ele>
        <time>2022-09-28T10:23:01.000Z</time>
      </trkpt>
      <trkpt lat="49.76378" lon="4.83445">
        <ele>180</ele>
        <time>2022-09-28T10:23:02.000Z</time>
      </trkpt>
      <trkpt lat="49.76379" lon="4.83438">
        <ele>180</ele>
        <time>2022-09-28T10:23:03.000Z</time>
      </trkpt>
      <trkpt lat="49.7638" lon="4.83431">
        <ele>180</ele>
        <time>2022-09-28T10:23:04.000Z</time>
      </trkpt>
      <trkpt lat="49.7638" lon="4.83424">
        <ele>181</ele>
        <time>2022-09-28T10:23:05.000Z</time>
      </trkpt>
      <trkpt lat="49.76381" lon="4.83417">
        <ele>181</ele>
        <time>2022-09-28T10:23:06.000Z</time>
      </trkpt>
      <trkpt lat="49.76381" lon="4.83409">
        <ele>181</ele>
        <time>2022-09-28T10:23:07.000Z</time>
      </trkpt>
      <trkpt lat="49.76382" lon="4.83402">
        <ele>181</ele>
        <time>2022-09-28T10:23:08.000Z</time>
      </trkpt>
      <trkpt lat="49.76382" lon="4.83394">
        <ele>181</ele>
        <time>2022-09-28T10:23:09.000Z</time>
      </trkpt>
      <trkpt lat="49.76383" lon="4.83386">
        <ele>181</ele>
        <time>2022-09-28T10:23:10.000Z</time>
      </trkpt>
      <trkpt lat="49.76383" lon="4.83378">
        <ele>181</ele>
        <time>2022-09-28T10:23:11.000Z</time>
      </trkpt>
      <trkpt lat="49.76383" lon="4.8337">
        <ele>180</ele>
        <time>2022-09-28T10:23:12.000Z</time>
      </trkpt>
      <trkpt lat="49.76382" lon="4.83361">
        <ele>180</ele>
        <time>2022-09-28T10:23:13.000Z</time>
      </trkpt>
      <trkpt lat="49.76382" lon="4.83352">
        <ele>180</ele>
        <time>2022-09-28T10:23:14.000Z</time>
      </trkpt>
      <trkpt lat="49.76381" lon="4.83343">
        <ele>180</ele>
        <time>2022-09-28T10:23:15.000Z</time>
      </trkpt>
      <trkpt lat="49.7638" lon="4.83334">
        <ele>180</ele>
        <time>2022-09-28T10:23:16.000Z</time>
      </trkpt>
      <trkpt lat="49.76379" lon="4.83325">
        <ele>180</ele>
        <time>2022-09-28T10:23:17.000Z</time>
      </trkpt>
      <trkpt lat="49.76376" lon="4.83316">
        <ele>180</ele>
        <time>2022-09-28T10:23:18.000Z</time>
      </trkpt>
      <trkpt lat="49.76373" lon="4.83308">
        <ele>180</ele>
        <time>2022-09-28T10:23:19.000Z</time>
      </trkpt>
      <trkpt lat="49.7637" lon="4.83301">
        <ele>180</ele>
        <time>2022-09-28T10:23:20.000Z</time>
      </trkpt>
      <trkpt lat="49.76366" lon="4.83294">
        <ele>180</ele>
        <time>2022-09-28T10:23:21.000Z</time>
      </trkpt>
      <trkpt lat="49.76363" lon="4.83288">
        <ele>180</ele>
        <time>2022-09-28T10:23:22.000Z</time>
      </trkpt>
      <trkpt lat="49.76359" lon="4.83282">
        <ele>180</ele>
        <time>2022-09-28T10:23:23.000Z</time>
      </trkpt>
      <trkpt lat="49.76355" lon="4.83276">
        <ele>180</ele>
        <time>2022-09-28T10:23:24.000Z</time>
      </trkpt>
      <trkpt lat="49.7635" lon="4.8327">
        <ele>180</ele>
        <time>2022-09-28T10:23:25.000Z</time>
      </trkpt>
      <trkpt lat="49.76346" lon="4.83263">
        <ele>179</ele>
        <time>2022-09-28T10:23:26.000Z</time>
      </trkpt>
      <trkpt lat="49.76342" lon="4.83257">
        <ele>179</ele>
        <time>2022-09-28T10:23:27.000Z</time>
      </trkpt>
      <trkpt lat="49.76338" lon="4.83251">
        <ele>179</ele>
        <time>2022-09-28T10:23:28.000Z</time>
      </trkpt>
      <trkpt lat="49.76334" lon="4.83245">
        <ele>179</ele>
        <time>2022-09-28T10:23:29.000Z</time>
      </trkpt>
      <trkpt lat="49.76329" lon="4.83242">
        <ele>179</ele>
        <time>2022-09-28T10:23:30.000Z</time>
      </trkpt>
      <trkpt lat="49.76323" lon="4.8324">
        <ele>179</ele>
        <time>2022-09-28T10:23:31.000Z</time>
      </trkpt>
      <trkpt lat="49.76318" lon="4.83239">
        <ele>179</ele>
        <time>2022-09-28T10:23:32.000Z</time>
      </trkpt>
      <trkpt lat="49.76312" lon="4.8324">
        <ele>179</ele>
        <time>2022-09-28T10:23:33.000Z</time>
      </trkpt>
      <trkpt lat="49.76306" lon="4.83241">
        <ele>179</ele>
        <time>2022-09-28T10:23:34.000Z</time>
      </trkpt>
      <trkpt lat="49.76301" lon="4.83244">
        <ele>179</ele>
        <time>2022-09-28T10:23:35.000Z</time>
      </trkpt>
      <trkpt lat="49.76295" lon="4.83247">
        <ele>179</ele>
        <time>2022-09-28T10:23:36.000Z</time>
      </trkpt>
      <trkpt lat="49.7629" lon="4.83249">
        <ele>179</ele>
        <time>2022-09-28T10:23:37.000Z</time>
      </trkpt>
      <trkpt lat="49.76284" lon="4.83253">
        <ele>179</ele>
        <time>2022-09-28T10:23:38.000Z</time>
      </trkpt>
      <trkpt lat="49.7628" lon="4.83257">
        <ele>179</ele>
        <time>2022-09-28T10:23:39.000Z</time>
      </trkpt>
      <trkpt lat="49.76276" lon="4.83263">
        <ele>179</ele>
        <time>2022-09-28T10:23:40.000Z</time>
      </trkpt>
      <trkpt lat="49.76274" lon="4.83269">
        <ele>179</ele>
        <time>2022-09-28T10:23:41.000Z</time>
      </trkpt>
      <trkpt lat="49.76273" lon="4.83277">
        <ele>179</ele>
        <time>2022-09-28T10:23:42.000Z</time>
      </trkpt>
      <trkpt lat="49.76272" lon="4.83284">
        <ele>179</ele>
        <time>2022-09-28T10:23:43.000Z</time>
      </trkpt>
      <trkpt lat="49.76272" lon="4.83291">
        <ele>179</ele>
        <time>2022-09-28T10:23:44.000Z</time>
      </trkpt>
      <trkpt lat="49.76272" lon="4.83298">
        <ele>179</ele>
        <time>2022-09-28T10:23:45.000Z</time>
      </trkpt>
      <trkpt lat="49.7627" lon="4.83305">
        <ele>179</ele>
        <time>2022-09-28T10:23:46.000Z</time>
      </trkpt>
      <trkpt lat="49.76267" lon="4.83309">
        <ele>179</ele>
        <time>2022-09-28T10:23:47.000Z</time>
      </trkpt>
      <trkpt lat="49.76264" lon="4.83311">
        <ele>179</ele>
        <time>2022-09-28T10:23:48.000Z</time>
      </trkpt>
      <trkpt lat="49.76261" lon="4.8331">
        <ele>179</ele>
        <time>2022-09-28T10:23:49.000Z</time>
      </trkpt>
      <trkpt lat="49.7626" lon="4.83307">
        <ele>179</ele>
        <time>2022-09-28T10:23:50.000Z</time>
      </trkpt>
      <trkpt lat="49.76259" lon="4.83303">
        <ele>179</ele>
        <time>2022-09-28T10:23:51.000Z</time>
      </trkpt>
      <trkpt lat="49.76257" lon="4.833">
        <ele>179</ele>
        <time>2022-09-28T10:23:52.000Z</time>
      </trkpt>
      <trkpt lat="49.76254" lon="4.83297">
        <ele>179</ele>
        <time>2022-09-28T10:23:53.000Z</time>
      </trkpt>
      <trkpt lat="49.76251" lon="4.83295">
        <ele>179</ele>
        <time>2022-09-28T10:23:54.000Z</time>
      </trkpt>
      <trkpt lat="49.76249" lon="4.83294">
        <ele>179</ele>
        <time>2022-09-28T10:23:55.000Z</time>
      </trkpt>
      <trkpt lat="49.76247" lon="4.83292">
        <ele>179</ele>
        <time>2022-09-28T10:23:56.000Z</time>
      </trkpt>
      <trkpt lat="49.76245" lon="4.83289">
        <ele>179</ele>
        <time>2022-09-28T10:23:57.000Z</time>
      </trkpt>
      <trkpt lat="49.76242" lon="4.83285">
        <ele>179</ele>
        <time>2022-09-28T10:23:58.000Z</time>
      </trkpt>
      <trkpt lat="49.7624" lon="4.83281">
        <ele>179</ele>
        <time>2022-09-28T10:23:59.000Z</time>
      </trkpt>
      <trkpt lat="49.76237" lon="4.83276">
        <ele>179</ele>
        <time>2022-09-28T10:24:00.000Z</time>
      </trkpt>
      <trkpt lat="49.76235" lon="4.8327">
        <ele>179</ele>
        <time>2022-09-28T10:24:01.000Z</time>
      </trkpt>
      <trkpt lat="49.76232" lon="4.83264">
        <ele>179</ele>
        <time>2022-09-28T10:24:02.000Z</time>
      </trkpt>
      <trkpt lat="49.76229" lon="4.83258">
        <ele>179</ele>
        <time>2022-09-28T10:24:03.000Z</time>
      </trkpt>
      <trkpt lat="49.76226" lon="4.83252">
        <ele>179</ele>
        <time>2022-09-28T10:24:04.000Z</time>
      </trkpt>
      <trkpt lat="49.76222" lon="4.83247">
        <ele>179</ele>
        <time>2022-09-28T10:24:05.000Z</time>
      </trkpt>
      <trkpt lat="49.76219" lon="4.83241">
        <ele>179</ele>
        <time>2022-09-28T10:24:06.000Z</time>
      </trkpt>
      <trkpt lat="49.76216" lon="4.83235">
        <ele>179</ele>
        <time>2022-09-28T10:24:07.000Z</time>
      </trkpt>
      <trkpt lat="49.76212" lon="4.83229">
        <ele>179</ele>
        <time>2022-09-28T10:24:08.000Z</time>
      </trkpt>
      <trkpt lat="49.76209" lon="4.83224">
        <ele>179</ele>
        <time>2022-09-28T10:24:09.000Z</time>
      </trkpt>
      <trkpt lat="49.76206" lon="4.83219">
        <ele>179</ele>
        <time>2022-09-28T10:24:10.000Z</time>
      </trkpt>
      <trkpt lat="49.76202" lon="4.83213">
        <ele>179</ele>
        <time>2022-09-28T10:24:11.000Z</time>
      </trkpt>
      <trkpt lat="49.76198" lon="4.83208">
        <ele>179</ele>
        <time>2022-09-28T10:24:12.000Z</time>
      </trkpt>
      <trkpt lat="49.76194" lon="4.83202">
        <ele>179</ele>
        <time>2022-09-28T10:24:13.000Z</time>
      </trkpt>
      <trkpt lat="49.7619" lon="4.83196">
        <ele>179</ele>
        <time>2022-09-28T10:24:14.000Z</time>
      </trkpt>
      <trkpt lat="49.76186" lon="4.8319">
        <ele>179</ele>
        <time>2022-09-28T10:24:15.000Z</time>
      </trkpt>
      <trkpt lat="49.76181" lon="4.83184">
        <ele>179</ele>
        <time>2022-09-28T10:24:16.000Z</time>
      </trkpt>
      <trkpt lat="49.76177" lon="4.83178">
        <ele>179</ele>
        <time>2022-09-28T10:24:17.000Z</time>
      </trkpt>
      <trkpt lat="49.76172" lon="4.83172">
        <ele>179</ele>
        <time>2022-09-28T10:24:18.000Z</time>
      </trkpt>
      <trkpt lat="49.76167" lon="4.83167">
        <ele>179</ele>
        <time>2022-09-28T10:24:19.000Z</time>
      </trkpt>
      <trkpt lat="49.76162" lon="4.83161">
        <ele>179</ele>
        <time>2022-09-28T10:24:20.000Z</time>
      </trkpt>
      <trkpt lat="49.76157" lon="4.83156">
        <ele>179</ele>
        <time>2022-09-28T10:24:21.000Z</time>
      </trkpt>
      <trkpt lat="49.76153" lon="4.83151">
        <ele>180</ele>
        <time>2022-09-28T10:24:22.000Z</time>
      </trkpt>
      <trkpt lat="49.76148" lon="4.83147">
        <ele>180</ele>
        <time>2022-09-28T10:24:23.000Z</time>
      </trkpt>
      <trkpt lat="49.76143" lon="4.83142">
        <ele>180</ele>
        <time>2022-09-28T10:24:24.000Z</time>
      </trkpt>
      <trkpt lat="49.76139" lon="4.83137">
        <ele>180</ele>
        <time>2022-09-28T10:24:25.000Z</time>
      </trkpt>
      <trkpt lat="49.76134" lon="4.83132">
        <ele>180</ele>
        <time>2022-09-28T10:24:26.000Z</time>
      </trkpt>
      <trkpt lat="49.7613" lon="4.83127">
        <ele>180</ele>
        <time>2022-09-28T10:24:27.000Z</time>
      </trkpt>
      <trkpt lat="49.76126" lon="4.83122">
        <ele>180</ele>
        <time>2022-09-28T10:24:28.000Z</time>
      </trkpt>
      <trkpt lat="49.76122" lon="4.83117">
        <ele>180</ele>
        <time>2022-09-28T10:24:29.000Z</time>
      </trkpt>
      <trkpt lat="49.76118" lon="4.83112">
        <ele>180</ele>
        <time>2022-09-28T10:24:30.000Z</time>
      </trkpt>
      <trkpt lat="49.76114" lon="4.83106">
        <ele>180</ele>
        <time>2022-09-28T10:24:31.000Z</time>
      </trkpt>
      <trkpt lat="49.76109" lon="4.83102">
        <ele>181</ele>
        <time>2022-09-28T10:24:32.000Z</time>
      </trkpt>
      <trkpt lat="49.76104" lon="4.83098">
        <ele>181</ele>
        <time>2022-09-28T10:24:33.000Z</time>
      </trkpt>
      <trkpt lat="49.761" lon="4.83095">
        <ele>181</ele>
        <time>2022-09-28T10:24:34.000Z</time>
      </trkpt>
      <trkpt lat="49.76095" lon="4.83092">
        <ele>181</ele>
        <time>2022-09-28T10:24:35.000Z</time>
      </trkpt>
      <trkpt lat="49.7609" lon="4.83089">
        <ele>181</ele>
        <time>2022-09-28T10:24:36.000Z</time>
      </trkpt>
      <trkpt lat="49.76085" lon="4.83086">
        <ele>181</ele>
        <time>2022-09-28T10:24:37.000Z</time>
      </trkpt>
      <trkpt lat="49.7608" lon="4.83083">
        <ele>181</ele>
        <time>2022-09-28T10:24:38.000Z</time>
      </trkpt>
      <trkpt lat="49.76075" lon="4.83081">
        <ele>181</ele>
        <time>2022-09-28T10:24:39.000Z</time>
      </trkpt>
      <trkpt lat="49.76069" lon="4.83078">
        <ele>181</ele>
        <time>2022-09-28T10:24:40.000Z</time>
      </trkpt>
      <trkpt lat="49.76064" lon="4.83075">
        <ele>181</ele>
        <time>2022-09-28T10:24:41.000Z</time>
      </trkpt>
      <trkpt lat="49.76059" lon="4.83073">
        <ele>181</ele>
        <time>2022-09-28T10:24:42.000Z</time>
      </trkpt>
      <trkpt lat="49.76053" lon="4.83072">
        <ele>181</ele>
        <time>2022-09-28T10:24:43.000Z</time>
      </trkpt>
      <trkpt lat="49.76048" lon="4.83072">
        <ele>181</ele>
        <time>2022-09-28T10:24:44.000Z</time>
      </trkpt>
      <trkpt lat="49.76043" lon="4.83074">
        <ele>181</ele>
        <time>2022-09-28T10:24:45.000Z</time>
      </trkpt>
      <trkpt lat="49.76038" lon="4.83077">
        <ele>181</ele>
        <time>2022-09-28T10:24:46.000Z</time>
      </trkpt>
      <trkpt lat="49.76033" lon="4.8308">
        <ele>181</ele>
        <time>2022-09-28T10:24:47.000Z</time>
      </trkpt>
      <trkpt lat="49.7603" lon="4.83084">
        <ele>181</ele>
        <time>2022-09-28T10:24:48.000Z</time>
      </trkpt>
      <trkpt lat="49.76027" lon="4.83089">
        <ele>181</ele>
        <time>2022-09-28T10:24:49.000Z</time>
      </trkpt>
      <trkpt lat="49.76023" lon="4.83093">
        <ele>181</ele>
        <time>2022-09-28T10:24:50.000Z</time>
      </trkpt>
      <trkpt lat="49.7602" lon="4.83096">
        <ele>181</ele>
        <time>2022-09-28T10:24:51.000Z</time>
      </trkpt>
      <trkpt lat="49.76017" lon="4.831">
        <ele>181</ele>
        <time>2022-09-28T10:24:52.000Z</time>
      </trkpt>
      <trkpt lat="49.76013" lon="4.83102">
        <ele>181</ele>
        <time>2022-09-28T10:24:53.000Z</time>
      </trkpt>
      <trkpt lat="49.76009" lon="4.83104">
        <ele>181</ele>
        <time>2022-09-28T10:24:54.000Z</time>
      </trkpt>
      <trkpt lat="49.76004" lon="4.83105">
        <ele>181</ele>
        <time>2022-09-28T10:24:55.000Z</time>
      </trkpt>
      <trkpt lat="49.76" lon="4.83105">
        <ele>181</ele>
        <time>2022-09-28T10:24:56.000Z</time>
      </trkpt>
      <trkpt lat="49.75996" lon="4.83104">
        <ele>181</ele>
        <time>2022-09-28T10:24:57.000Z</time>
      </trkpt>
      <trkpt lat="49.75991" lon="4.83103">
        <ele>181</ele>
        <time>2022-09-28T10:24:58.000Z</time>
      </trkpt>
      <trkpt lat="49.75987" lon="4.83101">
        <ele>181</ele>
        <time>2022-09-28T10:24:59.000Z</time>
      </trkpt>
      <trkpt lat="49.75982" lon="4.831">
        <ele>181</ele>
        <time>2022-09-28T10:25:00.000Z</time>
      </trkpt>
      <trkpt lat="49.75977" lon="4.83098">
        <ele>181</ele>
        <time>2022-09-28T10:25:01.000Z</time>
      </trkpt>
      <trkpt lat="49.75971" lon="4.83096">
        <ele>182</ele>
        <time>2022-09-28T10:25:02.000Z</time>
      </trkpt>
      <trkpt lat="49.75965" lon="4.83093">
        <ele>182</ele>
        <time>2022-09-28T10:25:03.000Z</time>
      </trkpt>
      <trkpt lat="49.7596" lon="4.8309">
        <ele>182</ele>
        <time>2022-09-28T10:25:04.000Z</time>
      </trkpt>
      <trkpt lat="49.75955" lon="4.83087">
        <ele>182</ele>
        <time>2022-09-28T10:25:05.000Z</time>
      </trkpt>
      <trkpt lat="49.7595" lon="4.83083">
        <ele>182</ele>
        <time>2022-09-28T10:25:06.000Z</time>
      </trkpt>
      <trkpt lat="49.75945" lon="4.8308">
        <ele>182</ele>
        <time>2022-09-28T10:25:07.000Z</time>
      </trkpt>
      <trkpt lat="49.75941" lon="4.83078">
        <ele>182</ele>
        <time>2022-09-28T10:25:08.000Z</time>
      </trkpt>
      <trkpt lat="49.75937" lon="4.83076">
        <ele>182</ele>
        <time>2022-09-28T10:25:09.000Z</time>
      </trkpt>
      <trkpt lat="49.75933" lon="4.83074">
        <ele>182</ele>
        <time>2022-09-28T10:25:10.000Z</time>
      </trkpt>
      <trkpt lat="49.7593" lon="4.83072">
        <ele>182</ele>
        <time>2022-09-28T10:25:11.000Z</time>
      </trkpt>
      <trkpt lat="49.75926" lon="4.8307">
        <ele>182</ele>
        <time>2022-09-28T10:25:12.000Z</time>
      </trkpt>
      <trkpt lat="49.75922" lon="4.83067">
        <ele>182</ele>
        <time>2022-09-28T10:25:13.000Z</time>
      </trkpt>
      <trkpt lat="49.75919" lon="4.83066">
        <ele>182</ele>
        <time>2022-09-28T10:25:14.000Z</time>
      </trkpt>
      <trkpt lat="49.75915" lon="4.83063">
        <ele>182</ele>
        <time>2022-09-28T10:25:15.000Z</time>
      </trkpt>
      <trkpt lat="49.75911" lon="4.83061">
        <ele>182</ele>
        <time>2022-09-28T10:25:16.000Z</time>
      </trkpt>
      <trkpt lat="49.75907" lon="4.83059">
        <ele>182</ele>
        <time>2022-09-28T10:25:17.000Z</time>
      </trkpt>
      <trkpt lat="49.75903" lon="4.83056">
        <ele>182</ele>
        <time>2022-09-28T10:25:18.000Z</time>
      </trkpt>
      <trkpt lat="49.75899" lon="4.83054">
        <ele>182</ele>
        <time>2022-09-28T10:25:19.000Z</time>
      </trkpt>
      <trkpt lat="49.75894" lon="4.83052">
        <ele>182</ele>
        <time>2022-09-28T10:25:20.000Z</time>
      </trkpt>
      <trkpt lat="49.7589" lon="4.83049">
        <ele>182</ele>
        <time>2022-09-28T10:25:21.000Z</time>
      </trkpt>
      <trkpt lat="49.75886" lon="4.83047">
        <ele>183</ele>
        <time>2022-09-28T10:25:22.000Z</time>
      </trkpt>
      <trkpt lat="49.75881" lon="4.83044">
        <ele>183</ele>
        <time>2022-09-28T10:25:23.000Z</time>
      </trkpt>
      <trkpt lat="49.75877" lon="4.83042">
        <ele>183</ele>
        <time>2022-09-28T10:25:24.000Z</time>
      </trkpt>
      <trkpt lat="49.75872" lon="4.8304">
        <ele>183</ele>
        <time>2022-09-28T10:25:25.000Z</time>
      </trkpt>
      <trkpt lat="49.75868" lon="4.83038">
        <ele>183</ele>
        <time>2022-09-28T10:25:26.000Z</time>
      </trkpt>
      <trkpt lat="49.75863" lon="4.83035">
        <ele>183</ele>
        <time>2022-09-28T10:25:27.000Z</time>
      </trkpt>
      <trkpt lat="49.75859" lon="4.83033">
        <ele>183</ele>
        <time>2022-09-28T10:25:28.000Z</time>
      </trkpt>
      <trkpt lat="49.75854" lon="4.83031">
        <ele>183</ele>
        <time>2022-09-28T10:25:29.000Z</time>
      </trkpt>
      <trkpt lat="49.75849" lon="4.83028">
        <ele>183</ele>
        <time>2022-09-28T10:25:30.000Z</time>
      </trkpt>
      <trkpt lat="49.75844" lon="4.83026">
        <ele>183</ele>
        <time>2022-09-28T10:25:31.000Z</time>
      </trkpt>
      <trkpt lat="49.75839" lon="4.83024">
        <ele>183</ele>
        <time>2022-09-28T10:25:32.000Z</time>
      </trkpt>
      <trkpt lat="49.75834" lon="4.83021">
        <ele>183</ele>
        <time>2022-09-28T10:25:33.000Z</time>
      </trkpt>
      <trkpt lat="49.7583" lon="4.83019">
        <ele>183</ele>
        <time>2022-09-28T10:25:34.000Z</time>
      </trkpt>
      <trkpt lat="49.75825" lon="4.83017">
        <ele>183</ele>
        <time>2022-09-28T10:25:35.000Z</time>
      </trkpt>
      <trkpt lat="49.7582" lon="4.83016">
        <ele>183</ele>
        <time>2022-09-28T10:25:36.000Z</time>
      </trkpt>
      <trkpt lat="49.75815" lon="4.83016">
        <ele>183</ele>
        <time>2022-09-28T10:25:37.000Z</time>
      </trkpt>
      <trkpt lat="49.7581" lon="4.83015">
        <ele>183</ele>
        <time>2022-09-28T10:25:38.000Z</time>
      </trkpt>
      <trkpt lat="49.75805" lon="4.83015">
        <ele>183</ele>
        <time>2022-09-28T10:25:39.000Z</time>
      </trkpt>
      <trkpt lat="49.758" lon="4.83015">
        <ele>183</ele>
        <time>2022-09-28T10:25:40.000Z</time>
      </trkpt>
      <trkpt lat="49.75795" lon="4.83016">
        <ele>184</ele>
        <time>2022-09-28T10:25:41.000Z</time>
      </trkpt>
      <trkpt lat="49.7579" lon="4.83016">
        <ele>184</ele>
        <time>2022-09-28T10:25:42.000Z</time>
      </trkpt>
      <trkpt lat="49.75785" lon="4.83017">
        <ele>184</ele>
        <time>2022-09-28T10:25:43.000Z</time>
      </trkpt>
      <trkpt lat="49.7578" lon="4.83019">
        <ele>184</ele>
        <time>2022-09-28T10:25:44.000Z</time>
      </trkpt>
      <trkpt lat="49.75775" lon="4.83021">
        <ele>184</ele>
        <time>2022-09-28T10:25:45.000Z</time>
      </trkpt>
      <trkpt lat="49.7577" lon="4.83023">
        <ele>184</ele>
        <time>2022-09-28T10:25:46.000Z</time>
      </trkpt>
      <trkpt lat="49.75765" lon="4.83026">
        <ele>184</ele>
        <time>2022-09-28T10:25:47.000Z</time>
      </trkpt>
      <trkpt lat="49.75761" lon="4.83029">
        <ele>184</ele>
        <time>2022-09-28T10:25:48.000Z</time>
      </trkpt>
      <trkpt lat="49.75756" lon="4.83032">
        <ele>184</ele>
        <time>2022-09-28T10:25:49.000Z</time>
      </trkpt>
      <trkpt lat="49.75751" lon="4.83036">
        <ele>184</ele>
        <time>2022-09-28T10:25:50.000Z</time>
      </trkpt>
      <trkpt lat="49.75747" lon="4.83039">
        <ele>184</ele>
        <time>2022-09-28T10:25:51.000Z</time>
      </trkpt>
      <trkpt lat="49.75742" lon="4.83042">
        <ele>185</ele>
        <time>2022-09-28T10:25:52.000Z</time>
      </trkpt>
      <trkpt lat="49.75738" lon="4.83046">
        <ele>185</ele>
        <time>2022-09-28T10:25:53.000Z</time>
      </trkpt>
      <trkpt lat="49.75733" lon="4.83049">
        <ele>185</ele>
        <time>2022-09-28T10:25:54.000Z</time>
      </trkpt>
      <trkpt lat="49.75729" lon="4.83053">
        <ele>185</ele>
        <time>2022-09-28T10:25:55.000Z</time>
      </trkpt>
      <trkpt lat="49.75724" lon="4.83056">
        <ele>185</ele>
        <time>2022-09-28T10:25:56.000Z</time>
      </trkpt>
      <trkpt lat="49.7572" lon="4.83059">
        <ele>185</ele>
        <time>2022-09-28T10:25:57.000Z</time>
      </trkpt>
      <trkpt lat="49.75715" lon="4.83062">
        <ele>185</ele>
        <time>2022-09-28T10:25:58.000Z</time>
      </trkpt>
      <trkpt lat="49.75711" lon="4.83065">
        <ele>185</ele>
        <time>2022-09-28T10:25:59.000Z</time>
      </trkpt>
      <trkpt lat="49.75706" lon="4.83068">
        <ele>185</ele>
        <time>2022-09-28T10:26:00.000Z</time>
      </trkpt>
      <trkpt lat="49.75702" lon="4.83071">
        <ele>186</ele>
        <time>2022-09-28T10:26:01.000Z</time>
      </trkpt>
      <trkpt lat="49.75697" lon="4.83074">
        <ele>186</ele>
        <time>2022-09-28T10:26:02.000Z</time>
      </trkpt>
      <trkpt lat="49.75693" lon="4.83077">
        <ele>186</ele>
        <time>2022-09-28T10:26:03.000Z</time>
      </trkpt>
      <trkpt lat="49.75689" lon="4.8308">
        <ele>186</ele>
        <time>2022-09-28T10:26:04.000Z</time>
      </trkpt>
      <trkpt lat="49.75685" lon="4.83083">
        <ele>186</ele>
        <time>2022-09-28T10:26:05.000Z</time>
      </trkpt>
      <trkpt lat="49.75682" lon="4.83085">
        <ele>186</ele>
        <time>2022-09-28T10:26:06.000Z</time>
      </trkpt>
      <trkpt lat="49.75678" lon="4.83088">
        <ele>186</ele>
        <time>2022-09-28T10:26:07.000Z</time>
      </trkpt>
      <trkpt lat="49.75675" lon="4.8309">
        <ele>186</ele>
        <time>2022-09-28T10:26:08.000Z</time>
      </trkpt>
      <trkpt lat="49.75672" lon="4.83093">
        <ele>186</ele>
        <time>2022-09-28T10:26:09.000Z</time>
      </trkpt>
      <trkpt lat="49.7567" lon="4.83095">
        <ele>186</ele>
        <time>2022-09-28T10:26:10.000Z</time>
      </trkpt>
      <trkpt lat="49.75667" lon="4.83097">
        <ele>186</ele>
        <time>2022-09-28T10:26:11.000Z</time>
      </trkpt>
      <trkpt lat="49.75665" lon="4.83099">
        <ele>187</ele>
        <time>2022-09-28T10:26:12.000Z</time>
      </trkpt>
      <trkpt lat="49.75664" lon="4.83101">
        <ele>187</ele>
        <time>2022-09-28T10:26:13.000Z</time>
      </trkpt>
      <trkpt lat="49.75663" lon="4.83102">
        <ele>187</ele>
        <time>2022-09-28T10:26:14.000Z</time>
      </trkpt>
      <trkpt lat="49.75661" lon="4.83103">
        <ele>187</ele>
        <time>2022-09-28T10:26:15.000Z</time>
      </trkpt>
      <trkpt lat="49.7566" lon="4.83105">
        <ele>187</ele>
        <time>2022-09-28T10:26:16.000Z</time>
      </trkpt>
      <trkpt lat="49.75658" lon="4.83106">
        <ele>187</ele>
        <time>2022-09-28T10:26:17.000Z</time>
      </trkpt>
      <trkpt lat="49.75656" lon="4.83108">
        <ele>187</ele>
        <time>2022-09-28T10:26:18.000Z</time>
      </trkpt>
      <trkpt lat="49.75655" lon="4.8311">
        <ele>187</ele>
        <time>2022-09-28T10:26:19.000Z</time>
      </trkpt>
      <trkpt lat="49.75653" lon="4.83111">
        <ele>187</ele>
        <time>2022-09-28T10:26:20.000Z</time>
      </trkpt>
      <trkpt lat="49.75651" lon="4.83113">
        <ele>187</ele>
        <time>2022-09-28T10:26:21.000Z</time>
      </trkpt>
      <trkpt lat="49.75649" lon="4.83114">
        <ele>187</ele>
        <time>2022-09-28T10:26:22.000Z</time>
      </trkpt>
      <trkpt lat="49.75647" lon="4.83116">
        <ele>187</ele>
        <time>2022-09-28T10:26:23.000Z</time>
      </trkpt>
      <trkpt lat="49.75645" lon="4.83118">
        <ele>187</ele>
        <time>2022-09-28T10:26:24.000Z</time>
      </trkpt>
      <trkpt lat="49.75643" lon="4.8312">
        <ele>187</ele>
        <time>2022-09-28T10:26:25.000Z</time>
      </trkpt>
      <trkpt lat="49.75642" lon="4.83122">
        <ele>187</ele>
        <time>2022-09-28T10:26:26.000Z</time>
      </trkpt>
      <trkpt lat="49.7564" lon="4.83124">
        <ele>187</ele>
        <time>2022-09-28T10:26:27.000Z</time>
      </trkpt>
      <trkpt lat="49.75638" lon="4.83126">
        <ele>187</ele>
        <time>2022-09-28T10:26:28.000Z</time>
      </trkpt>
      <trkpt lat="49.75636" lon="4.83128">
        <ele>188</ele>
        <time>2022-09-28T10:26:29.000Z</time>
      </trkpt>
      <trkpt lat="49.75634" lon="4.8313">
        <ele>188</ele>
        <time>2022-09-28T10:26:30.000Z</time>
      </trkpt>
      <trkpt lat="49.75631" lon="4.83131">
        <ele>188</ele>
        <time>2022-09-28T10:26:31.000Z</time>
      </trkpt>
      <trkpt lat="49.75629" lon="4.83132">
        <ele>188</ele>
        <time>2022-09-28T10:26:32.000Z</time>
      </trkpt>
      <trkpt lat="49.75626" lon="4.83133">
        <ele>188</ele>
        <time>2022-09-28T10:26:33.000Z</time>
      </trkpt>
      <trkpt lat="49.75624" lon="4.83134">
        <ele>188</ele>
        <time>2022-09-28T10:26:34.000Z</time>
      </trkpt>
      <trkpt lat="49.75622" lon="4.83134">
        <ele>189</ele>
        <time>2022-09-28T10:26:35.000Z</time>
      </trkpt>
      <trkpt lat="49.7562" lon="4.83135">
        <ele>189</ele>
        <time>2022-09-28T10:26:36.000Z</time>
      </trkpt>
      <trkpt lat="49.75618" lon="4.83135">
        <ele>189</ele>
        <time>2022-09-28T10:26:37.000Z</time>
      </trkpt>
      <trkpt lat="49.75616" lon="4.83135">
        <ele>189</ele>
        <time>2022-09-28T10:26:38.000Z</time>
      </trkpt>
      <trkpt lat="49.75614" lon="4.83135">
        <ele>189</ele>
        <time>2022-09-28T10:26:39.000Z</time>
      </trkpt>
      <trkpt lat="49.75612" lon="4.83135">
        <ele>189</ele>
        <time>2022-09-28T10:26:40.000Z</time>
      </trkpt>
      <trkpt lat="49.7561" lon="4.83136">
        <ele>189</ele>
        <time>2022-09-28T10:26:41.000Z</time>
      </trkpt>
      <trkpt lat="49.75608" lon="4.83136">
        <ele>189</ele>
        <time>2022-09-28T10:26:42.000Z</time>
      </trkpt>
      <trkpt lat="49.75606" lon="4.83135">
        <ele>189</ele>
        <time>2022-09-28T10:26:43.000Z</time>
      </trkpt>
      <trkpt lat="49.75603" lon="4.83135">
        <ele>189</ele>
        <time>2022-09-28T10:26:44.000Z</time>
      </trkpt>
      <trkpt lat="49.75601" lon="4.83135">
        <ele>189</ele>
        <time>2022-09-28T10:26:45.000Z</time>
      </trkpt>
      <trkpt lat="49.75599" lon="4.83134">
        <ele>189</ele>
        <time>2022-09-28T10:26:46.000Z</time>
      </trkpt>
      <trkpt lat="49.75597" lon="4.83134">
        <ele>189</ele>
        <time>2022-09-28T10:26:47.000Z</time>
      </trkpt>
      <trkpt lat="49.75595" lon="4.83133">
        <ele>189</ele>
        <time>2022-09-28T10:26:48.000Z</time>
      </trkpt>
      <trkpt lat="49.75594" lon="4.83133">
        <ele>189</ele>
        <time>2022-09-28T10:26:49.000Z</time>
      </trkpt>
      <trkpt lat="49.75592" lon="4.83132">
        <ele>189</ele>
        <time>2022-09-28T10:26:50.000Z</time>
      </trkpt>
      <trkpt lat="49.7559" lon="4.83132">
        <ele>189</ele>
        <time>2022-09-28T10:26:51.000Z</time>
      </trkpt>
      <trkpt lat="49.75588" lon="4.83131">
        <ele>189</ele>
        <time>2022-09-28T10:26:52.000Z</time>
      </trkpt>
      <trkpt lat="49.75586" lon="4.83131">
        <ele>189</ele>
        <time>2022-09-28T10:26:53.000Z</time>
      </trkpt>
      <trkpt lat="49.75584" lon="4.8313">
        <ele>189</ele>
        <time>2022-09-28T10:26:54.000Z</time>
      </trkpt>
      <trkpt lat="49.75582" lon="4.8313">
        <ele>189</ele>
        <time>2022-09-28T10:26:55.000Z</time>
      </trkpt>
      <trkpt lat="49.75579" lon="4.83129">
        <ele>189</ele>
        <time>2022-09-28T10:26:56.000Z</time>
      </trkpt>
      <trkpt lat="49.75577" lon="4.83129">
        <ele>189</ele>
        <time>2022-09-28T10:26:57.000Z</time>
      </trkpt>
      <trkpt lat="49.75574" lon="4.83128">
        <ele>189</ele>
        <time>2022-09-28T10:26:58.000Z</time>
      </trkpt>
      <trkpt lat="49.75571" lon="4.83127">
        <ele>189</ele>
        <time>2022-09-28T10:26:59.000Z</time>
      </trkpt>
      <trkpt lat="49.75568" lon="4.83127">
        <ele>189</ele>
        <time>2022-09-28T10:27:00.000Z</time>
      </trkpt>
      <trkpt lat="49.75565" lon="4.83126">
        <ele>189</ele>
        <time>2022-09-28T10:27:01.000Z</time>
      </trkpt>
      <trkpt lat="49.75562" lon="4.83126">
        <ele>189</ele>
        <time>2022-09-28T10:27:02.000Z</time>
      </trkpt>
      <trkpt lat="49.75559" lon="4.83126">
        <ele>189</ele>
        <time>2022-09-28T10:27:03.000Z</time>
      </trkpt>
      <trkpt lat="49.75556" lon="4.83125">
        <ele>189</ele>
        <time>2022-09-28T10:27:04.000Z</time>
      </trkpt>
      <trkpt lat="49.75553" lon="4.83124">
        <ele>189</ele>
        <time>2022-09-28T10:27:05.000Z</time>
      </trkpt>
      <trkpt lat="49.7555" lon="4.83124">
        <ele>189</ele>
        <time>2022-09-28T10:27:06.000Z</time>
      </trkpt>
      <trkpt lat="49.75548" lon="4.83123">
        <ele>189</ele>
        <time>2022-09-28T10:27:07.000Z</time>
      </trkpt>
      <trkpt lat="49.75546" lon="4.83123">
        <ele>189</ele>
        <time>2022-09-28T10:27:08.000Z</time>
      </trkpt>
      <trkpt lat="49.75543" lon="4.83123">
        <ele>189</ele>
        <time>2022-09-28T10:27:09.000Z</time>
      </trkpt>
      <trkpt lat="49.75541" lon="4.83122">
        <ele>189</ele>
        <time>2022-09-28T10:27:10.000Z</time>
      </trkpt>
      <trkpt lat="49.75539" lon="4.83122">
        <ele>189</ele>
        <time>2022-09-28T10:27:11.000Z</time>
      </trkpt>
      <trkpt lat="49.75538" lon="4.83122">
        <ele>189</ele>
        <time>2022-09-28T10:27:12.000Z</time>
      </trkpt>
      <trkpt lat="49.75536" lon="4.83122">
        <ele>189</ele>
        <time>2022-09-28T10:27:13.000Z</time>
      </trkpt>
      <trkpt lat="49.75535" lon="4.83121">
        <ele>189</ele>
        <time>2022-09-28T10:27:14.000Z</time>
      </trkpt>
      <trkpt lat="49.75533" lon="4.8312">
        <ele>189</ele>
        <time>2022-09-28T10:27:15.000Z</time>
      </trkpt>
      <trkpt lat="49.75531" lon="4.83118">
        <ele>189</ele>
        <time>2022-09-28T10:27:16.000Z</time>
      </trkpt>
      <trkpt lat="49.75529" lon="4.83116">
        <ele>190</ele>
        <time>2022-09-28T10:27:17.000Z</time>
      </trkpt>
      <trkpt lat="49.75527" lon="4.83112">
        <ele>190</ele>
        <time>2022-09-28T10:27:18.000Z</time>
      </trkpt>
      <trkpt lat="49.75526" lon="4.83108">
        <ele>190</ele>
        <time>2022-09-28T10:27:19.000Z</time>
      </trkpt>
      <trkpt lat="49.75525" lon="4.83104">
        <ele>190</ele>
        <time>2022-09-28T10:27:20.000Z</time>
      </trkpt>
      <trkpt lat="49.75523" lon="4.831">
        <ele>190</ele>
        <time>2022-09-28T10:27:21.000Z</time>
      </trkpt>
      <trkpt lat="49.75522" lon="4.83096">
        <ele>190</ele>
        <time>2022-09-28T10:27:22.000Z</time>
      </trkpt>
      <trkpt lat="49.75521" lon="4.83092">
        <ele>190</ele>
        <time>2022-09-28T10:27:23.000Z</time>
      </trkpt>
      <trkpt lat="49.7552" lon="4.83088">
        <ele>190</ele>
        <time>2022-09-28T10:27:24.000Z</time>
      </trkpt>
      <trkpt lat="49.75519" lon="4.83084">
        <ele>190</ele>
        <time>2022-09-28T10:27:25.000Z</time>
      </trkpt>
      <trkpt lat="49.75518" lon="4.8308">
        <ele>190</ele>
        <time>2022-09-28T10:27:26.000Z</time>
      </trkpt>
      <trkpt lat="49.75517" lon="4.83076">
        <ele>191</ele>
        <time>2022-09-28T10:27:27.000Z</time>
      </trkpt>
      <trkpt lat="49.75516" lon="4.83072">
        <ele>191</ele>
        <time>2022-09-28T10:27:28.000Z</time>
      </trkpt>
      <trkpt lat="49.75515" lon="4.83068">
        <ele>191</ele>
        <time>2022-09-28T10:27:29.000Z</time>
      </trkpt>
      <trkpt lat="49.75514" lon="4.83064">
        <ele>191</ele>
        <time>2022-09-28T10:27:30.000Z</time>
      </trkpt>
      <trkpt lat="49.75513" lon="4.8306">
        <ele>191</ele>
        <time>2022-09-28T10:27:31.000Z</time>
      </trkpt>
      <trkpt lat="49.75512" lon="4.83057">
        <ele>191</ele>
        <time>2022-09-28T10:27:32.000Z</time>
      </trkpt>
      <trkpt lat="49.75511" lon="4.83054">
        <ele>192</ele>
        <time>2022-09-28T10:27:33.000Z</time>
      </trkpt>
      <trkpt lat="49.7551" lon="4.8305">
        <ele>192</ele>
        <time>2022-09-28T10:27:34.000Z</time>
      </trkpt>
      <trkpt lat="49.75509" lon="4.83047">
        <ele>192</ele>
        <time>2022-09-28T10:27:35.000Z</time>
      </trkpt>
      <trkpt lat="49.75508" lon="4.83044">
        <ele>192</ele>
        <time>2022-09-28T10:27:36.000Z</time>
      </trkpt>
      <trkpt lat="49.75507" lon="4.83042">
        <ele>192</ele>
        <time>2022-09-28T10:27:37.000Z</time>
      </trkpt>
      <trkpt lat="49.75507" lon="4.83039">
        <ele>192</ele>
        <time>2022-09-28T10:27:38.000Z</time>
      </trkpt>
      <trkpt lat="49.75506" lon="4.83037">
        <ele>193</ele>
        <time>2022-09-28T10:27:39.000Z</time>
      </trkpt>
      <trkpt lat="49.75506" lon="4.83034">
        <ele>193</ele>
        <time>2022-09-28T10:27:40.000Z</time>
      </trkpt>
      <trkpt lat="49.75505" lon="4.83032">
        <ele>193</ele>
        <time>2022-09-28T10:27:41.000Z</time>
      </trkpt>
      <trkpt lat="49.75504" lon="4.83029">
        <ele>193</ele>
        <time>2022-09-28T10:27:42.000Z</time>
      </trkpt>
      <trkpt lat="49.75503" lon="4.83027">
        <ele>193</ele>
        <time>2022-09-28T10:27:43.000Z</time>
      </trkpt>
      <trkpt lat="49.75502" lon="4.83024">
        <ele>193</ele>
        <time>2022-09-28T10:27:44.000Z</time>
      </trkpt>
      <trkpt lat="49.75501" lon="4.83022">
        <ele>193</ele>
        <time>2022-09-28T10:27:45.000Z</time>
      </trkpt>
      <trkpt lat="49.755" lon="4.83019">
        <ele>193</ele>
        <time>2022-09-28T10:27:46.000Z</time>
      </trkpt>
      <trkpt lat="49.755" lon="4.83016">
        <ele>193</ele>
        <time>2022-09-28T10:27:47.000Z</time>
      </trkpt>
      <trkpt lat="49.75499" lon="4.83013">
        <ele>194</ele>
        <time>2022-09-28T10:27:48.000Z</time>
      </trkpt>
      <trkpt lat="49.75498" lon="4.8301">
        <ele>194</ele>
        <time>2022-09-28T10:27:49.000Z</time>
      </trkpt>
      <trkpt lat="49.75496" lon="4.83008">
        <ele>194</ele>
        <time>2022-09-28T10:27:50.000Z</time>
      </trkpt>
      <trkpt lat="49.75496" lon="4.83005">
        <ele>194</ele>
        <time>2022-09-28T10:27:51.000Z</time>
      </trkpt>
      <trkpt lat="49.75495" lon="4.83002">
        <ele>194</ele>
        <time>2022-09-28T10:27:52.000Z</time>
      </trkpt>
      <trkpt lat="49.75493" lon="4.82999">
        <ele>194</ele>
        <time>2022-09-28T10:27:53.000Z</time>
      </trkpt>
      <trkpt lat="49.75493" lon="4.82996">
        <ele>195</ele>
        <time>2022-09-28T10:27:54.000Z</time>
      </trkpt>
      <trkpt lat="49.75492" lon="4.82993">
        <ele>195</ele>
        <time>2022-09-28T10:27:55.000Z</time>
      </trkpt>
      <trkpt lat="49.7549" lon="4.82991">
        <ele>195</ele>
        <time>2022-09-28T10:27:56.000Z</time>
      </trkpt>
      <trkpt lat="49.75489" lon="4.82988">
        <ele>195</ele>
        <time>2022-09-28T10:27:57.000Z</time>
      </trkpt>
      <trkpt lat="49.75489" lon="4.82985">
        <ele>195</ele>
        <time>2022-09-28T10:27:58.000Z</time>
      </trkpt>
      <trkpt lat="49.75488" lon="4.82983">
        <ele>196</ele>
        <time>2022-09-28T10:27:59.000Z</time>
      </trkpt>
      <trkpt lat="49.75487" lon="4.8298">
        <ele>196</ele>
        <time>2022-09-28T10:28:00.000Z</time>
      </trkpt>
      <trkpt lat="49.75486" lon="4.82978">
        <ele>196</ele>
        <time>2022-09-28T10:28:01.000Z</time>
      </trkpt>
      <trkpt lat="49.75485" lon="4.82975">
        <ele>196</ele>
        <time>2022-09-28T10:28:02.000Z</time>
      </trkpt>
      <trkpt lat="49.75484" lon="4.82973">
        <ele>196</ele>
        <time>2022-09-28T10:28:03.000Z</time>
      </trkpt>
      <trkpt lat="49.75483" lon="4.82971">
        <ele>197</ele>
        <time>2022-09-28T10:28:04.000Z</time>
      </trkpt>
      <trkpt lat="49.75482" lon="4.82968">
        <ele>197</ele>
        <time>2022-09-28T10:28:05.000Z</time>
      </trkpt>
      <trkpt lat="49.75481" lon="4.82965">
        <ele>197</ele>
        <time>2022-09-28T10:28:06.000Z</time>
      </trkpt>
      <trkpt lat="49.7548" lon="4.82963">
        <ele>197</ele>
        <time>2022-09-28T10:28:07.000Z</time>
      </trkpt>
      <trkpt lat="49.75479" lon="4.8296">
        <ele>198</ele>
        <time>2022-09-28T10:28:08.000Z</time>
      </trkpt>
      <trkpt lat="49.75479" lon="4.82957">
        <ele>198</ele>
        <time>2022-09-28T10:28:09.000Z</time>
      </trkpt>
      <trkpt lat="49.75478" lon="4.82955">
        <ele>198</ele>
        <time>2022-09-28T10:28:10.000Z</time>
      </trkpt>
      <trkpt lat="49.75477" lon="4.82952">
        <ele>198</ele>
        <time>2022-09-28T10:28:11.000Z</time>
      </trkpt>
      <trkpt lat="49.75476" lon="4.8295">
        <ele>199</ele>
        <time>2022-09-28T10:28:12.000Z</time>
      </trkpt>
      <trkpt lat="49.75475" lon="4.82947">
        <ele>199</ele>
        <time>2022-09-28T10:28:13.000Z</time>
      </trkpt>
      <trkpt lat="49.75474" lon="4.82944">
        <ele>199</ele>
        <time>2022-09-28T10:28:14.000Z</time>
      </trkpt>
      <trkpt lat="49.75474" lon="4.82941">
        <ele>199</ele>
        <time>2022-09-28T10:28:15.000Z</time>
      </trkpt>
      <trkpt lat="49.75473" lon="4.82939">
        <ele>200</ele>
        <time>2022-09-28T10:28:16.000Z</time>
      </trkpt>
      <trkpt lat="49.75472" lon="4.82936">
        <ele>200</ele>
        <time>2022-09-28T10:28:17.000Z</time>
      </trkpt>
      <trkpt lat="49.75471" lon="4.82934">
        <ele>200</ele>
        <time>2022-09-28T10:28:18.000Z</time>
      </trkpt>
      <trkpt lat="49.75471" lon="4.82931">
        <ele>201</ele>
        <time>2022-09-28T10:28:19.000Z</time>
      </trkpt>
      <trkpt lat="49.7547" lon="4.82929">
        <ele>201</ele>
        <time>2022-09-28T10:28:20.000Z</time>
      </trkpt>
      <trkpt lat="49.75469" lon="4.82926">
        <ele>201</ele>
        <time>2022-09-28T10:28:21.000Z</time>
      </trkpt>
      <trkpt lat="49.75468" lon="4.82924">
        <ele>202</ele>
        <time>2022-09-28T10:28:22.000Z</time>
      </trkpt>
      <trkpt lat="49.75467" lon="4.82921">
        <ele>202</ele>
        <time>2022-09-28T10:28:23.000Z</time>
      </trkpt>
      <trkpt lat="49.75466" lon="4.82919">
        <ele>202</ele>
        <time>2022-09-28T10:28:24.000Z</time>
      </trkpt>
      <trkpt lat="49.75466" lon="4.82917">
        <ele>202</ele>
        <time>2022-09-28T10:28:25.000Z</time>
      </trkpt>
      <trkpt lat="49.75465" lon="4.82914">
        <ele>203</ele>
        <time>2022-09-28T10:28:26.000Z</time>
      </trkpt>
      <trkpt lat="49.75464" lon="4.82912">
        <ele>203</ele>
        <time>2022-09-28T10:28:27.000Z</time>
      </trkpt>
      <trkpt lat="49.75464" lon="4.8291">
        <ele>203</ele>
        <time>2022-09-28T10:28:28.000Z</time>
      </trkpt>
      <trkpt lat="49.75463" lon="4.82908">
        <ele>203</ele>
        <time>2022-09-28T10:28:29.000Z</time>
      </trkpt>
      <trkpt lat="49.75462" lon="4.82906">
        <ele>204</ele>
        <time>2022-09-28T10:28:30.000Z</time>
      </trkpt>
      <trkpt lat="49.75461" lon="4.82903">
        <ele>204</ele>
        <time>2022-09-28T10:28:31.000Z</time>
      </trkpt>
      <trkpt lat="49.75461" lon="4.82901">
        <ele>204</ele>
        <time>2022-09-28T10:28:32.000Z</time>
      </trkpt>
      <trkpt lat="49.7546" lon="4.82898">
        <ele>205</ele>
        <time>2022-09-28T10:28:33.000Z</time>
      </trkpt>
      <trkpt lat="49.75459" lon="4.82896">
        <ele>205</ele>
        <time>2022-09-28T10:28:34.000Z</time>
      </trkpt>
      <trkpt lat="49.75459" lon="4.82893">
        <ele>205</ele>
        <time>2022-09-28T10:28:35.000Z</time>
      </trkpt>
      <trkpt lat="49.75458" lon="4.82891">
        <ele>206</ele>
        <time>2022-09-28T10:28:36.000Z</time>
      </trkpt>
      <trkpt lat="49.75457" lon="4.82888">
        <ele>206</ele>
        <time>2022-09-28T10:28:37.000Z</time>
      </trkpt>
      <trkpt lat="49.75456" lon="4.82886">
        <ele>206</ele>
        <time>2022-09-28T10:28:38.000Z</time>
      </trkpt>
      <trkpt lat="49.75456" lon="4.82884">
        <ele>206</ele>
        <time>2022-09-28T10:28:39.000Z</time>
      </trkpt>
      <trkpt lat="49.75455" lon="4.82881">
        <ele>207</ele>
        <time>2022-09-28T10:28:40.000Z</time>
      </trkpt>
      <trkpt lat="49.75454" lon="4.82878">
        <ele>207</ele>
        <time>2022-09-28T10:28:41.000Z</time>
      </trkpt>
      <trkpt lat="49.75454" lon="4.82876">
        <ele>207</ele>
        <time>2022-09-28T10:28:42.000Z</time>
      </trkpt>
      <trkpt lat="49.75453" lon="4.82873">
        <ele>208</ele>
        <time>2022-09-28T10:28:43.000Z</time>
      </trkpt>
      <trkpt lat="49.75453" lon="4.8287">
        <ele>208</ele>
        <time>2022-09-28T10:28:44.000Z</time>
      </trkpt>
      <trkpt lat="49.75452" lon="4.82868">
        <ele>208</ele>
        <time>2022-09-28T10:28:45.000Z</time>
      </trkpt>
      <trkpt lat="49.75453" lon="4.82865">
        <ele>209</ele>
        <time>2022-09-28T10:28:46.000Z</time>
      </trkpt>
      <trkpt lat="49.75453" lon="4.82863">
        <ele>209</ele>
        <time>2022-09-28T10:28:47.000Z</time>
      </trkpt>
      <trkpt lat="49.75453" lon="4.82861">
        <ele>209</ele>
        <time>2022-09-28T10:28:48.000Z</time>
      </trkpt>
      <trkpt lat="49.75454" lon="4.82858">
        <ele>209</ele>
        <time>2022-09-28T10:28:49.000Z</time>
      </trkpt>
      <trkpt lat="49.75455" lon="4.82855">
        <ele>210</ele>
        <time>2022-09-28T10:28:50.000Z</time>
      </trkpt>
      <trkpt lat="49.75456" lon="4.82853">
        <ele>210</ele>
        <time>2022-09-28T10:28:51.000Z</time>
      </trkpt>
      <trkpt lat="49.75458" lon="4.82851">
        <ele>210</ele>
        <time>2022-09-28T10:28:52.000Z</time>
      </trkpt>
      <trkpt lat="49.75461" lon="4.82848">
        <ele>210</ele>
        <time>2022-09-28T10:28:53.000Z</time>
      </trkpt>
      <trkpt lat="49.75463" lon="4.82846">
        <ele>210</ele>
        <time>2022-09-28T10:28:54.000Z</time>
      </trkpt>
      <trkpt lat="49.75466" lon="4.82843">
        <ele>210</ele>
        <time>2022-09-28T10:28:55.000Z</time>
      </trkpt>
      <trkpt lat="49.75469" lon="4.8284">
        <ele>210</ele>
        <time>2022-09-28T10:28:56.000Z</time>
      </trkpt>
      <trkpt lat="49.75472" lon="4.82837">
        <ele>210</ele>
        <time>2022-09-28T10:28:57.000Z</time>
      </trkpt>
      <trkpt lat="49.75474" lon="4.82834">
        <ele>210</ele>
        <time>2022-09-28T10:28:58.000Z</time>
      </trkpt>
      <trkpt lat="49.75478" lon="4.8283">
        <ele>210</ele>
        <time>2022-09-28T10:28:59.000Z</time>
      </trkpt>
      <trkpt lat="49.75481" lon="4.82827">
        <ele>210</ele>
        <time>2022-09-28T10:29:00.000Z</time>
      </trkpt>
      <trkpt lat="49.75483" lon="4.82822">
        <ele>210</ele>
        <time>2022-09-28T10:29:01.000Z</time>
      </trkpt>
      <trkpt lat="49.75486" lon="4.82817">
        <ele>210</ele>
        <time>2022-09-28T10:29:02.000Z</time>
      </trkpt>
      <trkpt lat="49.75489" lon="4.82811">
        <ele>210</ele>
        <time>2022-09-28T10:29:03.000Z</time>
      </trkpt>
      <trkpt lat="49.75492" lon="4.82805">
        <ele>210</ele>
        <time>2022-09-28T10:29:04.000Z</time>
      </trkpt>
      <trkpt lat="49.75496" lon="4.82797">
        <ele>210</ele>
        <time>2022-09-28T10:29:05.000Z</time>
      </trkpt>
      <trkpt lat="49.75499" lon="4.82789">
        <ele>209</ele>
        <time>2022-09-28T10:29:06.000Z</time>
      </trkpt>
      <trkpt lat="49.75502" lon="4.82779">
        <ele>209</ele>
        <time>2022-09-28T10:29:07.000Z</time>
      </trkpt>
      <trkpt lat="49.75504" lon="4.82768">
        <ele>209</ele>
        <time>2022-09-28T10:29:08.000Z</time>
      </trkpt>
      <trkpt lat="49.75505" lon="4.82757">
        <ele>209</ele>
        <time>2022-09-28T10:29:09.000Z</time>
      </trkpt>
      <trkpt lat="49.75505" lon="4.82746">
        <ele>209</ele>
        <time>2022-09-28T10:29:10.000Z</time>
      </trkpt>
      <trkpt lat="49.75503" lon="4.82736">
        <ele>209</ele>
        <time>2022-09-28T10:29:11.000Z</time>
      </trkpt>
      <trkpt lat="49.75502" lon="4.82725">
        <ele>208</ele>
        <time>2022-09-28T10:29:12.000Z</time>
      </trkpt>
      <trkpt lat="49.755" lon="4.82715">
        <ele>208</ele>
        <time>2022-09-28T10:29:13.000Z</time>
      </trkpt>
      <trkpt lat="49.75498" lon="4.82705">
        <ele>208</ele>
        <time>2022-09-28T10:29:14.000Z</time>
      </trkpt>
      <trkpt lat="49.75496" lon="4.82695">
        <ele>208</ele>
        <time>2022-09-28T10:29:15.000Z</time>
      </trkpt>
      <trkpt lat="49.75493" lon="4.82685">
        <ele>207</ele>
        <time>2022-09-28T10:29:16.000Z</time>
      </trkpt>
      <trkpt lat="49.75491" lon="4.82676">
        <ele>207</ele>
        <time>2022-09-28T10:29:17.000Z</time>
      </trkpt>
      <trkpt lat="49.75489" lon="4.82667">
        <ele>207</ele>
        <time>2022-09-28T10:29:18.000Z</time>
      </trkpt>
      <trkpt lat="49.75487" lon="4.82658">
        <ele>206</ele>
        <time>2022-09-28T10:29:19.000Z</time>
      </trkpt>
      <trkpt lat="49.75485" lon="4.82649">
        <ele>206</ele>
        <time>2022-09-28T10:29:20.000Z</time>
      </trkpt>
      <trkpt lat="49.75483" lon="4.8264">
        <ele>205</ele>
        <time>2022-09-28T10:29:21.000Z</time>
      </trkpt>
      <trkpt lat="49.7548" lon="4.82631">
        <ele>205</ele>
        <time>2022-09-28T10:29:22.000Z</time>
      </trkpt>
      <trkpt lat="49.75478" lon="4.82622">
        <ele>205</ele>
        <time>2022-09-28T10:29:23.000Z</time>
      </trkpt>
      <trkpt lat="49.75475" lon="4.82614">
        <ele>204</ele>
        <time>2022-09-28T10:29:24.000Z</time>
      </trkpt>
      <trkpt lat="49.75473" lon="4.82604">
        <ele>204</ele>
        <time>2022-09-28T10:29:25.000Z</time>
      </trkpt>
      <trkpt lat="49.7547" lon="4.82595">
        <ele>204</ele>
        <time>2022-09-28T10:29:26.000Z</time>
      </trkpt>
      <trkpt lat="49.75468" lon="4.82585">
        <ele>203</ele>
        <time>2022-09-28T10:29:27.000Z</time>
      </trkpt>
      <trkpt lat="49.75466" lon="4.82574">
        <ele>203</ele>
        <time>2022-09-28T10:29:28.000Z</time>
      </trkpt>
      <trkpt lat="49.75463" lon="4.82564">
        <ele>203</ele>
        <time>2022-09-28T10:29:29.000Z</time>
      </trkpt>
      <trkpt lat="49.75461" lon="4.82554">
        <ele>202</ele>
        <time>2022-09-28T10:29:30.000Z</time>
      </trkpt>
      <trkpt lat="49.75458" lon="4.82543">
        <ele>202</ele>
        <time>2022-09-28T10:29:31.000Z</time>
      </trkpt>
      <trkpt lat="49.75456" lon="4.82532">
        <ele>201</ele>
        <time>2022-09-28T10:29:32.000Z</time>
      </trkpt>
      <trkpt lat="49.75453" lon="4.82522">
        <ele>201</ele>
        <time>2022-09-28T10:29:33.000Z</time>
      </trkpt>
      <trkpt lat="49.75451" lon="4.82511">
        <ele>200</ele>
        <time>2022-09-28T10:29:34.000Z</time>
      </trkpt>
      <trkpt lat="49.75449" lon="4.825">
        <ele>200</ele>
        <time>2022-09-28T10:29:35.000Z</time>
      </trkpt>
      <trkpt lat="49.75446" lon="4.82489">
        <ele>200</ele>
        <time>2022-09-28T10:29:36.000Z</time>
      </trkpt>
      <trkpt lat="49.75444" lon="4.82477">
        <ele>199</ele>
        <time>2022-09-28T10:29:37.000Z</time>
      </trkpt>
      <trkpt lat="49.75443" lon="4.82466">
        <ele>199</ele>
        <time>2022-09-28T10:29:38.000Z</time>
      </trkpt>
      <trkpt lat="49.75442" lon="4.82455">
        <ele>199</ele>
        <time>2022-09-28T10:29:39.000Z</time>
      </trkpt>
      <trkpt lat="49.75441" lon="4.82444">
        <ele>198</ele>
        <time>2022-09-28T10:29:40.000Z</time>
      </trkpt>
      <trkpt lat="49.7544" lon="4.82432">
        <ele>198</ele>
        <time>2022-09-28T10:29:41.000Z</time>
      </trkpt>
      <trkpt lat="49.75439" lon="4.82421">
        <ele>197</ele>
        <time>2022-09-28T10:29:42.000Z</time>
      </trkpt>
      <trkpt lat="49.75438" lon="4.82409">
        <ele>197</ele>
        <time>2022-09-28T10:29:43.000Z</time>
      </trkpt>
      <trkpt lat="49.75437" lon="4.82398">
        <ele>196</ele>
        <time>2022-09-28T10:29:44.000Z</time>
      </trkpt>
      <trkpt lat="49.75436" lon="4.82386">
        <ele>196</ele>
        <time>2022-09-28T10:29:45.000Z</time>
      </trkpt>
      <trkpt lat="49.75434" lon="4.82375">
        <ele>196</ele>
        <time>2022-09-28T10:29:46.000Z</time>
      </trkpt>
      <trkpt lat="49.75432" lon="4.82364">
        <ele>195</ele>
        <time>2022-09-28T10:29:47.000Z</time>
      </trkpt>
      <trkpt lat="49.75431" lon="4.82353">
        <ele>195</ele>
        <time>2022-09-28T10:29:48.000Z</time>
      </trkpt>
      <trkpt lat="49.7543" lon="4.82342">
        <ele>194</ele>
        <time>2022-09-28T10:29:49.000Z</time>
      </trkpt>
      <trkpt lat="49.75429" lon="4.82332">
        <ele>194</ele>
        <time>2022-09-28T10:29:50.000Z</time>
      </trkpt>
      <trkpt lat="49.75428" lon="4.82325">
        <ele>193</ele>
        <time>2022-09-28T10:29:51.000Z</time>
      </trkpt>
      <trkpt lat="49.75427" lon="4.82319">
        <ele>193</ele>
        <time>2022-09-28T10:29:52.000Z</time>
      </trkpt>
      <trkpt lat="49.75426" lon="4.82311">
        <ele>193</ele>
        <time>2022-09-28T10:29:53.000Z</time>
      </trkpt>
      <trkpt lat="49.75426" lon="4.82303">
        <ele>192</ele>
        <time>2022-09-28T10:29:54.000Z</time>
      </trkpt>
      <trkpt lat="49.75427" lon="4.82294">
        <ele>192</ele>
        <time>2022-09-28T10:29:55.000Z</time>
      </trkpt>
      <trkpt lat="49.75428" lon="4.82285">
        <ele>192</ele>
        <time>2022-09-28T10:29:56.000Z</time>
      </trkpt>
      <trkpt lat="49.7543" lon="4.82275">
        <ele>191</ele>
        <time>2022-09-28T10:29:57.000Z</time>
      </trkpt>
      <trkpt lat="49.75431" lon="4.82265">
        <ele>191</ele>
        <time>2022-09-28T10:29:58.000Z</time>
      </trkpt>
      <trkpt lat="49.75433" lon="4.82255">
        <ele>191</ele>
        <time>2022-09-28T10:29:59.000Z</time>
      </trkpt>
      <trkpt lat="49.75435" lon="4.82244">
        <ele>190</ele>
        <time>2022-09-28T10:30:00.000Z</time>
      </trkpt>
      <trkpt lat="49.75438" lon="4.82235">
        <ele>190</ele>
        <time>2022-09-28T10:30:01.000Z</time>
      </trkpt>
      <trkpt lat="49.75441" lon="4.82229">
        <ele>189</ele>
        <time>2022-09-28T10:30:02.000Z</time>
      </trkpt>
      <trkpt lat="49.75444" lon="4.82225">
        <ele>189</ele>
        <time>2022-09-28T10:30:03.000Z</time>
      </trkpt>
      <trkpt lat="49.75444" lon="4.8222">
        <ele>189</ele>
        <time>2022-09-28T10:30:04.000Z</time>
      </trkpt>
      <trkpt lat="49.75443" lon="4.82215">
        <ele>189</ele>
        <time>2022-09-28T10:30:05.000Z</time>
      </trkpt>
      <trkpt lat="49.7544" lon="4.8221">
        <ele>189</ele>
        <time>2022-09-28T10:30:06.000Z</time>
      </trkpt>
      <trkpt lat="49.75436" lon="4.82206">
        <ele>189</ele>
        <time>2022-09-28T10:30:07.000Z</time>
      </trkpt>
      <trkpt lat="49.75431" lon="4.82203">
        <ele>188</ele>
        <time>2022-09-28T10:30:08.000Z</time>
      </trkpt>
      <trkpt lat="49.75426" lon="4.82201">
        <ele>188</ele>
        <time>2022-09-28T10:30:09.000Z</time>
      </trkpt>
      <trkpt lat="49.75421" lon="4.82199">
        <ele>188</ele>
        <time>2022-09-28T10:30:10.000Z</time>
      </trkpt>
      <trkpt lat="49.75417" lon="4.82196">
        <ele>188</ele>
        <time>2022-09-28T10:30:11.000Z</time>
      </trkpt>
      <trkpt lat="49.75413" lon="4.82194">
        <ele>188</ele>
        <time>2022-09-28T10:30:12.000Z</time>
      </trkpt>
      <trkpt lat="49.75408" lon="4.82193">
        <ele>187</ele>
        <time>2022-09-28T10:30:13.000Z</time>
      </trkpt>
      <trkpt lat="49.75404" lon="4.82191">
        <ele>187</ele>
        <time>2022-09-28T10:30:14.000Z</time>
      </trkpt>
      <trkpt lat="49.754" lon="4.8219">
        <ele>187</ele>
        <time>2022-09-28T10:30:15.000Z</time>
      </trkpt>
      <trkpt lat="49.75395" lon="4.82189">
        <ele>187</ele>
        <time>2022-09-28T10:30:16.000Z</time>
      </trkpt>
      <trkpt lat="49.75391" lon="4.82189">
        <ele>187</ele>
        <time>2022-09-28T10:30:17.000Z</time>
      </trkpt>
      <trkpt lat="49.75388" lon="4.82192">
        <ele>187</ele>
        <time>2022-09-28T10:30:18.000Z</time>
      </trkpt>
      <trkpt lat="49.75385" lon="4.82195">
        <ele>186</ele>
        <time>2022-09-28T10:30:19.000Z</time>
      </trkpt>
      <trkpt lat="49.75382" lon="4.82198">
        <ele>186</ele>
        <time>2022-09-28T10:30:20.000Z</time>
      </trkpt>
      <trkpt lat="49.7538" lon="4.82201">
        <ele>186</ele>
        <time>2022-09-28T10:30:21.000Z</time>
      </trkpt>
      <trkpt lat="49.75378" lon="4.82202">
        <ele>186</ele>
        <time>2022-09-28T10:30:22.000Z</time>
      </trkpt>
      <trkpt lat="49.75378" lon="4.82202">
        <ele>186</ele>
        <time>2022-09-28T10:30:23.000Z</time>
      </trkpt>
      <trkpt lat="49.75378" lon="4.82202">
        <ele>186</ele>
        <time>2022-09-28T10:30:24.000Z</time>
      </trkpt>
      <trkpt lat="49.75378" lon="4.82202">
        <ele>186</ele>
        <time>2022-09-28T10:30:25.000Z</time>
      </trkpt>
      <trkpt lat="49.75378" lon="4.82201">
        <ele>186</ele>
        <time>2022-09-28T10:30:26.000Z</time>
      </trkpt>
      <trkpt lat="49.75378" lon="4.82202">
        <ele>186</ele>
        <time>2022-09-28T10:30:27.000Z</time>
      </trkpt>
      <trkpt lat="49.75378" lon="4.82202">
        <ele>186</ele>
        <time>2022-09-28T10:30:28.000Z</time>
      </trkpt>
      <trkpt lat="49.75378" lon="4.82202">
        <ele>186</ele>
        <time>2022-09-28T10:30:29.000Z</time>
      </trkpt>
      <trkpt lat="49.75378" lon="4.82202">
        <ele>186</ele>
        <time>2022-09-28T10:30:30.000Z</time>
      </trkpt>
      <trkpt lat="49.75377" lon="4.82202">
        <ele>186</ele>
        <time>2022-09-28T10:30:31.000Z</time>
      </trkpt>
      <trkpt lat="49.75377" lon="4.82202">
        <ele>187</ele>
        <time>2022-09-28T10:30:32.000Z</time>
      </trkpt>
    </trkseg>
  </trk>
</gpx>